<?xml version='1.0' encoding='UTF-8'?><gpx version="1.1" creator="JPX - https://github.com/jenetics/jpx" xmlns="http://www.topografix.com/GPX/1/1"><trk><trkseg><trkpt lat="37.72774" lon="15.1819361"><ele>77.0</ele><time>2026-04-26T08:16:56.206Z</time></trkpt><trkpt lat="37.7277306" lon="15.1818194"><ele>77.0</ele><time>2026-04-26T08:16:57.206Z</time></trkpt><trkpt lat="37.7277055" lon="15.1816973"><ele>77.0</ele><time>2026-04-26T08:16:58.207Z</time></trkpt><trkpt lat="37.7276938" lon="15.1815509"><ele>77.0</ele><time>2026-04-26T08:16:59.206Z</time></trkpt><trkpt lat="37.7276793" lon="15.1814252"><ele>77.0</ele><time>2026-04-26T08:17:00.206Z</time></trkpt><trkpt lat="37.7276674" lon="15.1813194"><ele>79.8</ele><time>2026-04-26T08:17:01.206Z</time></trkpt><trkpt lat="37.7276529" lon="15.181228"><ele>82.6</ele><time>2026-04-26T08:17:02.207Z</time></trkpt><trkpt lat="37.7276279" lon="15.1810945"><ele>85.39999999999999</ele><time>2026-04-26T08:17:04.206Z</time></trkpt><trkpt lat="37.7274878" lon="15.1811167"><ele>88.2</ele><time>2026-04-26T08:17:07.206Z</time></trkpt><trkpt lat="37.7274" lon="15.18114"><ele>91.0</ele><time>2026-04-26T08:17:08.206Z</time></trkpt><trkpt lat="37.727315" lon="15.1811733"><ele>91.0</ele><time>2026-04-26T08:17:09.206Z</time></trkpt><trkpt lat="37.7272233" lon="15.1812033"><ele>91.0</ele><time>2026-04-26T08:17:10.206Z</time></trkpt><trkpt lat="37.72713" lon="15.1812267"><ele>91.0</ele><time>2026-04-26T08:17:11.206Z</time></trkpt><trkpt lat="37.7270317" lon="15.18126"><ele>91.0</ele><time>2026-04-26T08:17:12.206Z</time></trkpt><trkpt lat="37.7269283" lon="15.18129"><ele>91.0</ele><time>2026-04-26T08:17:13.206Z</time></trkpt><trkpt lat="37.726825" lon="15.1813167"><ele>91.66666666666666</ele><time>2026-04-26T08:17:14.206Z</time></trkpt><trkpt lat="37.7267317" lon="15.1813467"><ele>92.33333333333333</ele><time>2026-04-26T08:17:15.207Z</time></trkpt><trkpt lat="37.72665" lon="15.1813667"><ele>93.0</ele><time>2026-04-26T08:17:16.206Z</time></trkpt><trkpt lat="37.726575" lon="15.181395"><ele>93.66666666666667</ele><time>2026-04-26T08:17:17.206Z</time></trkpt><trkpt lat="37.7265083" lon="15.1814167"><ele>94.33333333333334</ele><time>2026-04-26T08:17:18.207Z</time></trkpt><trkpt lat="37.7264183" lon="15.1814517"><ele>95.0</ele><time>2026-04-26T08:17:20.206Z</time></trkpt><trkpt lat="37.7263317" lon="15.1815067"><ele>94.8</ele><time>2026-04-26T08:17:24.206Z</time></trkpt><trkpt lat="37.726225" lon="15.1815483"><ele>94.6</ele><time>2026-04-26T08:17:26.207Z</time></trkpt><trkpt lat="37.7261483" lon="15.181575"><ele>94.4</ele><time>2026-04-26T08:17:27.206Z</time></trkpt><trkpt lat="37.7260533" lon="15.1816033"><ele>94.2</ele><time>2026-04-26T08:17:28.206Z</time></trkpt><trkpt lat="37.725955" lon="15.1816367"><ele>94.0</ele><time>2026-04-26T08:17:29.206Z</time></trkpt><trkpt lat="37.7258533" lon="15.1816783"><ele>94.80000000000001</ele><time>2026-04-26T08:17:30.206Z</time></trkpt><trkpt lat="37.72575" lon="15.181715"><ele>95.60000000000001</ele><time>2026-04-26T08:17:31.206Z</time></trkpt><trkpt lat="37.7256433" lon="15.1817467"><ele>96.4</ele><time>2026-04-26T08:17:32.207Z</time></trkpt><trkpt lat="37.7255383" lon="15.1817767"><ele>97.2</ele><time>2026-04-26T08:17:33.207Z</time></trkpt><trkpt lat="37.7254333" lon="15.1817933"><ele>98.0</ele><time>2026-04-26T08:17:34.207Z</time></trkpt><trkpt lat="37.725335" lon="15.1818183"><ele>97.99999999999999</ele><time>2026-04-26T08:17:35.206Z</time></trkpt><trkpt lat="37.7252417" lon="15.1818467"><ele>98.0</ele><time>2026-04-26T08:17:36.206Z</time></trkpt><trkpt lat="37.7251533" lon="15.181875"><ele>98.0</ele><time>2026-04-26T08:17:37.206Z</time></trkpt><trkpt lat="37.72507" lon="15.1818967"><ele>98.0</ele><time>2026-04-26T08:17:38.206Z</time></trkpt><trkpt lat="37.72499" lon="15.1819217"><ele>97.99999999999999</ele><time>2026-04-26T08:17:39.206Z</time></trkpt><trkpt lat="37.724915" lon="15.1819483"><ele>98.0</ele><time>2026-04-26T08:17:40.206Z</time></trkpt><trkpt lat="37.7248467" lon="15.1819767"><ele>98.33333333333333</ele><time>2026-04-26T08:17:41.207Z</time></trkpt><trkpt lat="37.7247883" lon="15.1820217"><ele>98.66666666666666</ele><time>2026-04-26T08:17:42.206Z</time></trkpt><trkpt lat="37.724725" lon="15.182065"><ele>99.0</ele><time>2026-04-26T08:17:43.206Z</time></trkpt><trkpt lat="37.7246683" lon="15.1821017"><ele>99.33333333333334</ele><time>2026-04-26T08:17:44.206Z</time></trkpt><trkpt lat="37.72457" lon="15.1821367"><ele>99.66666666666667</ele><time>2026-04-26T08:17:46.206Z</time></trkpt><trkpt lat="37.7245133" lon="15.1821017"><ele>100.0</ele><time>2026-04-26T08:17:48.206Z</time></trkpt><trkpt lat="37.7244533" lon="15.1819867"><ele>100.00000000000001</ele><time>2026-04-26T08:17:50.206Z</time></trkpt><trkpt lat="37.72442" lon="15.1819"><ele>100.0</ele><time>2026-04-26T08:17:51.206Z</time></trkpt><trkpt lat="37.7243933" lon="15.181805"><ele>100.0</ele><time>2026-04-26T08:17:52.207Z</time></trkpt><trkpt lat="37.7243583" lon="15.1817167"><ele>100.0</ele><time>2026-04-26T08:17:53.206Z</time></trkpt><trkpt lat="37.7243283" lon="15.1816183"><ele>100.00000000000001</ele><time>2026-04-26T08:17:54.206Z</time></trkpt><trkpt lat="37.724295" lon="15.181515"><ele>100.0</ele><time>2026-04-26T08:17:55.206Z</time></trkpt><trkpt lat="37.7242617" lon="15.1814117"><ele>101.16666666666667</ele><time>2026-04-26T08:17:56.206Z</time></trkpt><trkpt lat="37.72423" lon="15.18131"><ele>102.33333333333334</ele><time>2026-04-26T08:17:57.207Z</time></trkpt><trkpt lat="37.724195" lon="15.18123"><ele>103.5</ele><time>2026-04-26T08:17:58.206Z</time></trkpt><trkpt lat="37.72416" lon="15.1811483"><ele>104.66666666666666</ele><time>2026-04-26T08:17:59.206Z</time></trkpt><trkpt lat="37.7241317" lon="15.1810733"><ele>105.83333333333333</ele><time>2026-04-26T08:18:00.206Z</time></trkpt><trkpt lat="37.724075" lon="15.1809733"><ele>107.0</ele><time>2026-04-26T08:18:02.206Z</time></trkpt><trkpt lat="37.723975" lon="15.180975"><ele>107.0</ele><time>2026-04-26T08:18:04.206Z</time></trkpt><trkpt lat="37.72387" lon="15.181035"><ele>106.99999999999999</ele><time>2026-04-26T08:18:06.206Z</time></trkpt><trkpt lat="37.72378" lon="15.181105"><ele>106.99999999999999</ele><time>2026-04-26T08:18:08.206Z</time></trkpt><trkpt lat="37.723695" lon="15.1811567"><ele>107.0</ele><time>2026-04-26T08:18:10.206Z</time></trkpt><trkpt lat="37.723635" lon="15.181195"><ele>107.0</ele><time>2026-04-26T08:18:12.206Z</time></trkpt><trkpt lat="37.7235717" lon="15.1811633"><ele>107.33333333333333</ele><time>2026-04-26T08:18:14.206Z</time></trkpt><trkpt lat="37.7235267" lon="15.1811067"><ele>107.66666666666666</ele><time>2026-04-26T08:18:15.206Z</time></trkpt><trkpt lat="37.723465" lon="15.1810283"><ele>108.0</ele><time>2026-04-26T08:18:16.206Z</time></trkpt><trkpt lat="37.7234017" lon="15.1809533"><ele>108.33333333333334</ele><time>2026-04-26T08:18:17.206Z</time></trkpt><trkpt lat="37.7233333" lon="15.1808817"><ele>108.66666666666667</ele><time>2026-04-26T08:18:18.206Z</time></trkpt><trkpt lat="37.72326" lon="15.1807983"><ele>109.0</ele><time>2026-04-26T08:18:19.206Z</time></trkpt><trkpt lat="37.7231883" lon="15.1807067"><ele>109.2</ele><time>2026-04-26T08:18:20.206Z</time></trkpt><trkpt lat="37.72311" lon="15.1806183"><ele>109.4</ele><time>2026-04-26T08:18:21.206Z</time></trkpt><trkpt lat="37.7230433" lon="15.180535"><ele>109.6</ele><time>2026-04-26T08:18:22.206Z</time></trkpt><trkpt lat="37.7229883" lon="15.1804483"><ele>109.8</ele><time>2026-04-26T08:18:23.206Z</time></trkpt><trkpt lat="37.7229367" lon="15.18036"><ele>110.0</ele><time>2026-04-26T08:18:24.206Z</time></trkpt><trkpt lat="37.722885" lon="15.180275"><ele>110.0</ele><time>2026-04-26T08:18:25.206Z</time></trkpt><trkpt lat="37.7228317" lon="15.1801917"><ele>110.0</ele><time>2026-04-26T08:18:26.206Z</time></trkpt><trkpt lat="37.7227717" lon="15.18011"><ele>110.0</ele><time>2026-04-26T08:18:27.206Z</time></trkpt><trkpt lat="37.7227033" lon="15.18003"><ele>110.0</ele><time>2026-04-26T08:18:28.206Z</time></trkpt><trkpt lat="37.7226417" lon="15.17994"><ele>110.0</ele><time>2026-04-26T08:18:29.205Z</time></trkpt><trkpt lat="37.72257" lon="15.1798517"><ele>111.0</ele><time>2026-04-26T08:18:30.205Z</time></trkpt><trkpt lat="37.7224967" lon="15.17976"><ele>112.0</ele><time>2026-04-26T08:18:31.205Z</time></trkpt><trkpt lat="37.7224233" lon="15.1796667"><ele>113.0</ele><time>2026-04-26T08:18:32.205Z</time></trkpt><trkpt lat="37.722355" lon="15.1795683"><ele>114.0</ele><time>2026-04-26T08:18:33.205Z</time></trkpt><trkpt lat="37.72229" lon="15.1794767"><ele>115.0</ele><time>2026-04-26T08:18:34.205Z</time></trkpt><trkpt lat="37.7222233" lon="15.1793817"><ele>115.0</ele><time>2026-04-26T08:18:35.205Z</time></trkpt><trkpt lat="37.7221517" lon="15.1793017"><ele>115.0</ele><time>2026-04-26T08:18:36.206Z</time></trkpt><trkpt lat="37.7220767" lon="15.17921"><ele>115.0</ele><time>2026-04-26T08:18:37.205Z</time></trkpt><trkpt lat="37.722005" lon="15.1791083"><ele>115.0</ele><time>2026-04-26T08:18:38.206Z</time></trkpt><trkpt lat="37.7219267" lon="15.1790217"><ele>115.0</ele><time>2026-04-26T08:18:39.205Z</time></trkpt><trkpt lat="37.7218467" lon="15.17893"><ele>115.4</ele><time>2026-04-26T08:18:40.205Z</time></trkpt><trkpt lat="37.7217783" lon="15.1788283"><ele>115.8</ele><time>2026-04-26T08:18:41.205Z</time></trkpt><trkpt lat="37.72171" lon="15.1787267"><ele>116.19999999999999</ele><time>2026-04-26T08:18:42.205Z</time></trkpt><trkpt lat="37.7216417" lon="15.178625"><ele>116.6</ele><time>2026-04-26T08:18:43.205Z</time></trkpt><trkpt lat="37.7215717" lon="15.1785183"><ele>117.0</ele><time>2026-04-26T08:18:44.205Z</time></trkpt><trkpt lat="37.7215033" lon="15.178415"><ele>117.0</ele><time>2026-04-26T08:18:45.205Z</time></trkpt><trkpt lat="37.7214283" lon="15.1783183"><ele>116.99999999999999</ele><time>2026-04-26T08:18:46.205Z</time></trkpt><trkpt lat="37.72136" lon="15.1782217"><ele>116.99999999999999</ele><time>2026-04-26T08:18:47.205Z</time></trkpt><trkpt lat="37.7212917" lon="15.1781333"><ele>117.0</ele><time>2026-04-26T08:18:48.205Z</time></trkpt><trkpt lat="37.7212333" lon="15.1780567"><ele>117.0</ele><time>2026-04-26T08:18:49.205Z</time></trkpt><trkpt lat="37.72118" lon="15.1779817"><ele>117.83333333333333</ele><time>2026-04-26T08:18:50.205Z</time></trkpt><trkpt lat="37.7211267" lon="15.17791"><ele>118.66666666666666</ele><time>2026-04-26T08:18:51.205Z</time></trkpt><trkpt lat="37.721075" lon="15.17784"><ele>119.5</ele><time>2026-04-26T08:18:52.205Z</time></trkpt><trkpt lat="37.7210233" lon="15.1777733"><ele>120.33333333333333</ele><time>2026-04-26T08:18:53.205Z</time></trkpt><trkpt lat="37.720975" lon="15.1777067"><ele>121.16666666666666</ele><time>2026-04-26T08:18:54.205Z</time></trkpt><trkpt lat="37.72093" lon="15.1776467"><ele>122.0</ele><time>2026-04-26T08:18:55.205Z</time></trkpt><trkpt lat="37.7208333" lon="15.177575"><ele>122.6</ele><time>2026-04-26T08:18:57.205Z</time></trkpt><trkpt lat="37.7207317" lon="15.1776383"><ele>123.19999999999999</ele><time>2026-04-26T08:18:59.205Z</time></trkpt><trkpt lat="37.7206717" lon="15.1777117"><ele>123.8</ele><time>2026-04-26T08:19:00.205Z</time></trkpt><trkpt lat="37.7206017" lon="15.17781"><ele>124.4</ele><time>2026-04-26T08:19:01.205Z</time></trkpt><trkpt lat="37.7205117" lon="15.1779117"><ele>125.0</ele><time>2026-04-26T08:19:02.205Z</time></trkpt><trkpt lat="37.7204067" lon="15.1780283"><ele>125.0</ele><time>2026-04-26T08:19:03.205Z</time></trkpt><trkpt lat="37.720305" lon="15.17816"><ele>125.0</ele><time>2026-04-26T08:19:04.205Z</time></trkpt><trkpt lat="37.7202" lon="15.1782917"><ele>125.0</ele><time>2026-04-26T08:19:05.205Z</time></trkpt><trkpt lat="37.7200967" lon="15.1784283"><ele>125.0</ele><time>2026-04-26T08:19:06.205Z</time></trkpt><trkpt lat="37.7199983" lon="15.1785483"><ele>123.5</ele><time>2026-04-26T08:19:07.205Z</time></trkpt><trkpt lat="37.719905" lon="15.1786617"><ele>122.0</ele><time>2026-04-26T08:19:08.205Z</time></trkpt><trkpt lat="37.7198183" lon="15.178765"><ele>120.5</ele><time>2026-04-26T08:19:09.205Z</time></trkpt><trkpt lat="37.719745" lon="15.178895"><ele>119.0</ele><time>2026-04-26T08:19:10.205Z</time></trkpt><trkpt lat="37.7196583" lon="15.1789917"><ele>119.2</ele><time>2026-04-26T08:19:11.205Z</time></trkpt><trkpt lat="37.719585" lon="15.17908"><ele>119.4</ele><time>2026-04-26T08:19:12.206Z</time></trkpt><trkpt lat="37.7195183" lon="15.1791633"><ele>119.6</ele><time>2026-04-26T08:19:13.205Z</time></trkpt><trkpt lat="37.719465" lon="15.1792333"><ele>119.8</ele><time>2026-04-26T08:19:14.205Z</time></trkpt><trkpt lat="37.71938" lon="15.179285"><ele>120.0</ele><time>2026-04-26T08:19:16.206Z</time></trkpt><trkpt lat="37.71927" lon="15.1792233"><ele>120.0</ele><time>2026-04-26T08:19:18.205Z</time></trkpt><trkpt lat="37.7191917" lon="15.17915"><ele>120.0</ele><time>2026-04-26T08:19:19.205Z</time></trkpt><trkpt lat="37.719095" lon="15.1790683"><ele>120.0</ele><time>2026-04-26T08:19:20.206Z</time></trkpt><trkpt lat="37.718995" lon="15.178985"><ele>120.0</ele><time>2026-04-26T08:19:21.205Z</time></trkpt><trkpt lat="37.7188883" lon="15.1789033"><ele>120.5</ele><time>2026-04-26T08:19:22.205Z</time></trkpt><trkpt lat="37.7187817" lon="15.17882"><ele>121.0</ele><time>2026-04-26T08:19:23.205Z</time></trkpt><trkpt lat="37.7186717" lon="15.178735"><ele>121.5</ele><time>2026-04-26T08:19:24.206Z</time></trkpt><trkpt lat="37.7185567" lon="15.17865"><ele>122.0</ele><time>2026-04-26T08:19:25.205Z</time></trkpt><trkpt lat="37.7184483" lon="15.1785683"><ele>123.25</ele><time>2026-04-26T08:19:26.205Z</time></trkpt><trkpt lat="37.7183333" lon="15.17849"><ele>124.5</ele><time>2026-04-26T08:19:27.205Z</time></trkpt><trkpt lat="37.7182167" lon="15.178405"><ele>125.75</ele><time>2026-04-26T08:19:28.206Z</time></trkpt><trkpt lat="37.7180967" lon="15.178305"><ele>127.0</ele><time>2026-04-26T08:19:29.206Z</time></trkpt><trkpt lat="37.7179683" lon="15.1782067"><ele>126.66666666666667</ele><time>2026-04-26T08:19:30.206Z</time></trkpt><trkpt lat="37.7178333" lon="15.1781017"><ele>126.33333333333334</ele><time>2026-04-26T08:19:31.206Z</time></trkpt><trkpt lat="37.7176933" lon="15.1779983"><ele>126.0</ele><time>2026-04-26T08:19:32.205Z</time></trkpt><trkpt lat="37.7175467" lon="15.17789"><ele>127.0</ele><time>2026-04-26T08:19:33.205Z</time></trkpt><trkpt lat="37.7174033" lon="15.17778"><ele>128.0</ele><time>2026-04-26T08:19:34.205Z</time></trkpt><trkpt lat="37.7172567" lon="15.1776733"><ele>129.0</ele><time>2026-04-26T08:19:35.205Z</time></trkpt><trkpt lat="37.7171083" lon="15.1775567"><ele>129.0</ele><time>2026-04-26T08:19:36.205Z</time></trkpt><trkpt lat="37.716955" lon="15.1774467"><ele>129.0</ele><time>2026-04-26T08:19:37.205Z</time></trkpt><trkpt lat="37.7168067" lon="15.1773333"><ele>129.0</ele><time>2026-04-26T08:19:38.205Z</time></trkpt><trkpt lat="37.7166567" lon="15.177215"><ele>132.33333333333334</ele><time>2026-04-26T08:19:39.205Z</time></trkpt><trkpt lat="37.716505" lon="15.177115"><ele>135.66666666666669</ele><time>2026-04-26T08:19:40.205Z</time></trkpt><trkpt lat="37.7163717" lon="15.1770083"><ele>139.0</ele><time>2026-04-26T08:19:41.205Z</time></trkpt><trkpt lat="37.7162417" lon="15.1769133"><ele>139.0</ele><time>2026-04-26T08:19:42.205Z</time></trkpt><trkpt lat="37.7161233" lon="15.1768217"><ele>139.0</ele><time>2026-04-26T08:19:43.205Z</time></trkpt><trkpt lat="37.7160217" lon="15.17674"><ele>139.0</ele><time>2026-04-26T08:19:44.205Z</time></trkpt><trkpt lat="37.715935" lon="15.1766683"><ele>139.0</ele><time>2026-04-26T08:19:45.206Z</time></trkpt><trkpt lat="37.7158467" lon="15.17662"><ele>139.2</ele><time>2026-04-26T08:19:46.205Z</time></trkpt><trkpt lat="37.7157917" lon="15.17658"><ele>139.4</ele><time>2026-04-26T08:19:47.205Z</time></trkpt><trkpt lat="37.715735" lon="15.176535"><ele>139.6</ele><time>2026-04-26T08:20:02.206Z</time></trkpt><trkpt lat="37.71564" lon="15.1764667"><ele>139.8</ele><time>2026-04-26T08:20:04.205Z</time></trkpt><trkpt lat="37.7155383" lon="15.17638"><ele>140.0</ele><time>2026-04-26T08:20:05.205Z</time></trkpt><trkpt lat="37.7154283" lon="15.176295"><ele>140.75</ele><time>2026-04-26T08:20:06.206Z</time></trkpt><trkpt lat="37.7153167" lon="15.1762083"><ele>141.5</ele><time>2026-04-26T08:20:07.205Z</time></trkpt><trkpt lat="37.7151967" lon="15.17612"><ele>142.25</ele><time>2026-04-26T08:20:08.205Z</time></trkpt><trkpt lat="37.7150783" lon="15.176025"><ele>143.0</ele><time>2026-04-26T08:20:09.205Z</time></trkpt><trkpt lat="37.7149533" lon="15.1759383"><ele>143.4</ele><time>2026-04-26T08:20:10.205Z</time></trkpt><trkpt lat="37.7148317" lon="15.1758667"><ele>143.8</ele><time>2026-04-26T08:20:11.205Z</time></trkpt><trkpt lat="37.7147317" lon="15.17579"><ele>144.2</ele><time>2026-04-26T08:20:12.205Z</time></trkpt><trkpt lat="37.7146467" lon="15.1757217"><ele>144.6</ele><time>2026-04-26T08:20:13.205Z</time></trkpt><trkpt lat="37.7145633" lon="15.175665"><ele>145.0</ele><time>2026-04-26T08:20:14.205Z</time></trkpt><trkpt lat="37.7144767" lon="15.1756033"><ele>145.83333333333334</ele><time>2026-04-26T08:20:15.205Z</time></trkpt><trkpt lat="37.7143917" lon="15.1755417"><ele>146.66666666666669</ele><time>2026-04-26T08:20:16.205Z</time></trkpt><trkpt lat="37.7143033" lon="15.1755017"><ele>147.5</ele><time>2026-04-26T08:20:17.205Z</time></trkpt><trkpt lat="37.714225" lon="15.1755017"><ele>148.33333333333334</ele><time>2026-04-26T08:20:18.205Z</time></trkpt><trkpt lat="37.714155" lon="15.175525"><ele>149.16666666666666</ele><time>2026-04-26T08:20:19.205Z</time></trkpt><trkpt lat="37.7140767" lon="15.175555"><ele>150.0</ele><time>2026-04-26T08:20:21.205Z</time></trkpt><trkpt lat="37.7140183" lon="15.175495"><ele>150.0</ele><time>2026-04-26T08:20:29.205Z</time></trkpt><trkpt lat="37.7139933" lon="15.1753617"><ele>150.0</ele><time>2026-04-26T08:20:31.205Z</time></trkpt><trkpt lat="37.7139683" lon="15.1752567"><ele>150.0</ele><time>2026-04-26T08:20:32.205Z</time></trkpt><trkpt lat="37.7139483" lon="15.175125"><ele>150.0</ele><time>2026-04-26T08:20:33.205Z</time></trkpt><trkpt lat="37.713915" lon="15.1749717"><ele>150.0</ele><time>2026-04-26T08:20:34.205Z</time></trkpt><trkpt lat="37.713885" lon="15.1748117"><ele>150.5</ele><time>2026-04-26T08:20:35.205Z</time></trkpt><trkpt lat="37.71385" lon="15.17464"><ele>151.0</ele><time>2026-04-26T08:20:36.205Z</time></trkpt><trkpt lat="37.7138217" lon="15.1744683"><ele>151.5</ele><time>2026-04-26T08:20:37.205Z</time></trkpt><trkpt lat="37.7137967" lon="15.1742983"><ele>152.0</ele><time>2026-04-26T08:20:38.205Z</time></trkpt><trkpt lat="37.7137767" lon="15.1741483"><ele>152.4</ele><time>2026-04-26T08:20:39.205Z</time></trkpt><trkpt lat="37.71375" lon="15.174015"><ele>152.79999999999998</ele><time>2026-04-26T08:20:40.205Z</time></trkpt><trkpt lat="37.7137317" lon="15.17389"><ele>153.2</ele><time>2026-04-26T08:20:41.205Z</time></trkpt><trkpt lat="37.7137083" lon="15.1737733"><ele>153.6</ele><time>2026-04-26T08:20:42.205Z</time></trkpt><trkpt lat="37.7136917" lon="15.1736667"><ele>154.0</ele><time>2026-04-26T08:20:43.206Z</time></trkpt><trkpt lat="37.7136767" lon="15.17358"><ele>154.0</ele><time>2026-04-26T08:20:44.205Z</time></trkpt><trkpt lat="37.713655" lon="15.17347"><ele>154.0</ele><time>2026-04-26T08:20:46.205Z</time></trkpt><trkpt lat="37.71363" lon="15.1733567"><ele>154.0</ele><time>2026-04-26T08:20:55.205Z</time></trkpt><trkpt lat="37.71361" lon="15.1732767"><ele>154.0</ele><time>2026-04-26T08:20:57.205Z</time></trkpt><trkpt lat="37.7135867" lon="15.173195"><ele>154.0</ele><time>2026-04-26T08:20:59.205Z</time></trkpt><trkpt lat="37.713525" lon="15.17315"><ele>154.0</ele><time>2026-04-26T08:21:02.205Z</time></trkpt><trkpt lat="37.713575" lon="15.173055"><ele>154.4</ele><time>2026-04-26T08:27:26.205Z</time></trkpt><trkpt lat="37.7135733" lon="15.172975"><ele>154.8</ele><time>2026-04-26T08:27:27.205Z</time></trkpt><trkpt lat="37.7135467" lon="15.1728083"><ele>155.2</ele><time>2026-04-26T08:27:29.205Z</time></trkpt><trkpt lat="37.7135167" lon="15.1727083"><ele>155.6</ele><time>2026-04-26T08:27:30.206Z</time></trkpt><trkpt lat="37.7134967" lon="15.1725917"><ele>156.0</ele><time>2026-04-26T08:27:31.206Z</time></trkpt><trkpt lat="37.7134733" lon="15.1724767"><ele>156.6</ele><time>2026-04-26T08:27:32.205Z</time></trkpt><trkpt lat="37.7134433" lon="15.1723583"><ele>157.2</ele><time>2026-04-26T08:27:33.205Z</time></trkpt><trkpt lat="37.7134317" lon="15.172235"><ele>157.8</ele><time>2026-04-26T08:27:34.205Z</time></trkpt><trkpt lat="37.713405" lon="15.17211"><ele>158.4</ele><time>2026-04-26T08:27:35.205Z</time></trkpt><trkpt lat="37.7133967" lon="15.1719933"><ele>159.0</ele><time>2026-04-26T08:27:36.205Z</time></trkpt><trkpt lat="37.7133783" lon="15.1718933"><ele>159.57142857142856</ele><time>2026-04-26T08:27:37.205Z</time></trkpt><trkpt lat="37.7133733" lon="15.1718017"><ele>160.14285714285717</ele><time>2026-04-26T08:27:38.205Z</time></trkpt><trkpt lat="37.713375" lon="15.1717017"><ele>160.71428571428572</ele><time>2026-04-26T08:27:39.205Z</time></trkpt><trkpt lat="37.713375" lon="15.1716083"><ele>161.28571428571428</ele><time>2026-04-26T08:27:40.205Z</time></trkpt><trkpt lat="37.7133717" lon="15.1715167"><ele>161.85714285714283</ele><time>2026-04-26T08:27:41.205Z</time></trkpt><trkpt lat="37.7133767" lon="15.17142"><ele>162.42857142857144</ele><time>2026-04-26T08:27:42.206Z</time></trkpt><trkpt lat="37.71338" lon="15.1713267"><ele>163.0</ele><time>2026-04-26T08:27:43.205Z</time></trkpt><trkpt lat="37.71338" lon="15.1712217"><ele>163.8</ele><time>2026-04-26T08:27:44.205Z</time></trkpt><trkpt lat="37.7133633" lon="15.171115"><ele>164.60000000000002</ele><time>2026-04-26T08:27:45.205Z</time></trkpt><trkpt lat="37.7133333" lon="15.171015"><ele>165.39999999999998</ele><time>2026-04-26T08:27:46.206Z</time></trkpt><trkpt lat="37.713295" lon="15.1709017"><ele>166.2</ele><time>2026-04-26T08:27:47.205Z</time></trkpt><trkpt lat="37.71325" lon="15.170785"><ele>167.0</ele><time>2026-04-26T08:27:48.205Z</time></trkpt><trkpt lat="37.713205" lon="15.170665"><ele>167.75</ele><time>2026-04-26T08:27:49.205Z</time></trkpt><trkpt lat="37.7131567" lon="15.1705367"><ele>168.5</ele><time>2026-04-26T08:27:50.206Z</time></trkpt><trkpt lat="37.7131067" lon="15.1704117"><ele>169.25</ele><time>2026-04-26T08:27:51.205Z</time></trkpt><trkpt lat="37.713055" lon="15.1702817"><ele>170.0</ele><time>2026-04-26T08:27:52.205Z</time></trkpt><trkpt lat="37.7130117" lon="15.1701517"><ele>170.0</ele><time>2026-04-26T08:27:53.205Z</time></trkpt><trkpt lat="37.71297" lon="15.17003"><ele>170.0</ele><time>2026-04-26T08:27:54.205Z</time></trkpt><trkpt lat="37.7129233" lon="15.169925"><ele>170.0</ele><time>2026-04-26T08:27:55.205Z</time></trkpt><trkpt lat="37.7128683" lon="15.1698233"><ele>170.0</ele><time>2026-04-26T08:27:56.205Z</time></trkpt><trkpt lat="37.712805" lon="15.1697417"><ele>170.0</ele><time>2026-04-26T08:27:57.205Z</time></trkpt><trkpt lat="37.7127317" lon="15.1696833"><ele>170.8</ele><time>2026-04-26T08:27:58.205Z</time></trkpt><trkpt lat="37.71265" lon="15.1696383"><ele>171.6</ele><time>2026-04-26T08:27:59.205Z</time></trkpt><trkpt lat="37.712565" lon="15.1695967"><ele>172.39999999999998</ele><time>2026-04-26T08:28:00.205Z</time></trkpt><trkpt lat="37.712485" lon="15.1695567"><ele>173.2</ele><time>2026-04-26T08:28:01.206Z</time></trkpt><trkpt lat="37.7124" lon="15.1695217"><ele>174.0</ele><time>2026-04-26T08:28:02.205Z</time></trkpt><trkpt lat="37.7123033" lon="15.16949"><ele>174.0</ele><time>2026-04-26T08:28:03.205Z</time></trkpt><trkpt lat="37.71221" lon="15.1694533"><ele>174.0</ele><time>2026-04-26T08:28:04.205Z</time></trkpt><trkpt lat="37.7121133" lon="15.1694133"><ele>174.0</ele><time>2026-04-26T08:28:05.206Z</time></trkpt><trkpt lat="37.7120167" lon="15.1693767"><ele>174.0</ele><time>2026-04-26T08:28:06.205Z</time></trkpt><trkpt lat="37.7119167" lon="15.1693383"><ele>174.0</ele><time>2026-04-26T08:28:07.205Z</time></trkpt><trkpt lat="37.71181" lon="15.1693017"><ele>175.25</ele><time>2026-04-26T08:28:08.205Z</time></trkpt><trkpt lat="37.7116983" lon="15.1692533"><ele>176.5</ele><time>2026-04-26T08:28:09.205Z</time></trkpt><trkpt lat="37.711575" lon="15.1692067"><ele>177.75</ele><time>2026-04-26T08:28:10.206Z</time></trkpt><trkpt lat="37.71146" lon="15.169155"><ele>179.0</ele><time>2026-04-26T08:28:11.206Z</time></trkpt><trkpt lat="37.71135" lon="15.1691133"><ele>179.0</ele><time>2026-04-26T08:28:12.205Z</time></trkpt><trkpt lat="37.71126" lon="15.1690717"><ele>179.0</ele><time>2026-04-26T08:28:13.206Z</time></trkpt><trkpt lat="37.7111767" lon="15.169035"><ele>179.0</ele><time>2026-04-26T08:28:14.205Z</time></trkpt><trkpt lat="37.7110867" lon="15.169"><ele>179.0</ele><time>2026-04-26T08:28:15.205Z</time></trkpt><trkpt lat="37.7109767" lon="15.168965"><ele>179.0</ele><time>2026-04-26T08:28:16.205Z</time></trkpt><trkpt lat="37.71086" lon="15.16892"><ele>180.66666666666666</ele><time>2026-04-26T08:28:17.205Z</time></trkpt><trkpt lat="37.710725" lon="15.16887"><ele>182.33333333333334</ele><time>2026-04-26T08:28:18.205Z</time></trkpt><trkpt lat="37.71058" lon="15.1688067"><ele>184.0</ele><time>2026-04-26T08:28:19.205Z</time></trkpt><trkpt lat="37.71043" lon="15.1687433"><ele>184.0</ele><time>2026-04-26T08:28:20.205Z</time></trkpt><trkpt lat="37.7102783" lon="15.16867"><ele>184.0</ele><time>2026-04-26T08:28:21.205Z</time></trkpt><trkpt lat="37.7101183" lon="15.1686067"><ele>184.0</ele><time>2026-04-26T08:28:22.205Z</time></trkpt><trkpt lat="37.7099733" lon="15.1685417"><ele>184.0</ele><time>2026-04-26T08:28:23.205Z</time></trkpt><trkpt lat="37.709835" lon="15.1684967"><ele>184.0</ele><time>2026-04-26T08:28:24.205Z</time></trkpt><trkpt lat="37.7096933" lon="15.1684883"><ele>184.0</ele><time>2026-04-26T08:28:25.205Z</time></trkpt><trkpt lat="37.7095683" lon="15.1684883"><ele>184.0</ele><time>2026-04-26T08:28:26.205Z</time></trkpt><trkpt lat="37.7094417" lon="15.16851"><ele>185.5</ele><time>2026-04-26T08:28:27.206Z</time></trkpt><trkpt lat="37.709315" lon="15.1685683"><ele>187.0</ele><time>2026-04-26T08:28:28.205Z</time></trkpt><trkpt lat="37.709195" lon="15.168645"><ele>188.5</ele><time>2026-04-26T08:28:29.205Z</time></trkpt><trkpt lat="37.7090733" lon="15.16874"><ele>190.0</ele><time>2026-04-26T08:28:30.205Z</time></trkpt><trkpt lat="37.7089483" lon="15.168845"><ele>190.0</ele><time>2026-04-26T08:28:31.205Z</time></trkpt><trkpt lat="37.7088433" lon="15.1689383"><ele>190.0</ele><time>2026-04-26T08:28:32.205Z</time></trkpt><trkpt lat="37.70873" lon="15.1690567"><ele>190.0</ele><time>2026-04-26T08:28:33.205Z</time></trkpt><trkpt lat="37.70862" lon="15.169185"><ele>190.0</ele><time>2026-04-26T08:28:34.206Z</time></trkpt><trkpt lat="37.7085033" lon="15.169315"><ele>189.0</ele><time>2026-04-26T08:28:35.205Z</time></trkpt><trkpt lat="37.7083917" lon="15.1694317"><ele>188.0</ele><time>2026-04-26T08:28:36.205Z</time></trkpt><trkpt lat="37.7082717" lon="15.1695383"><ele>187.0</ele><time>2026-04-26T08:28:37.205Z</time></trkpt><trkpt lat="37.708135" lon="15.16964"><ele>187.0</ele><time>2026-04-26T08:28:38.206Z</time></trkpt><trkpt lat="37.7080017" lon="15.1697333"><ele>187.0</ele><time>2026-04-26T08:28:39.206Z</time></trkpt><trkpt lat="37.7078633" lon="15.16982"><ele>187.0</ele><time>2026-04-26T08:28:40.206Z</time></trkpt><trkpt lat="37.7077283" lon="15.1699"><ele>186.25</ele><time>2026-04-26T08:28:41.205Z</time></trkpt><trkpt lat="37.7076" lon="15.1699867"><ele>185.5</ele><time>2026-04-26T08:28:42.205Z</time></trkpt><trkpt lat="37.7074667" lon="15.1700617"><ele>184.75</ele><time>2026-04-26T08:28:43.205Z</time></trkpt><trkpt lat="37.7073367" lon="15.1701433"><ele>184.0</ele><time>2026-04-26T08:28:44.205Z</time></trkpt><trkpt lat="37.7072067" lon="15.1702167"><ele>184.0</ele><time>2026-04-26T08:28:45.205Z</time></trkpt><trkpt lat="37.70708" lon="15.1702917"><ele>184.0</ele><time>2026-04-26T08:28:46.205Z</time></trkpt><trkpt lat="37.7069583" lon="15.1703833"><ele>184.0</ele><time>2026-04-26T08:28:47.206Z</time></trkpt><trkpt lat="37.7068367" lon="15.1704767"><ele>184.0</ele><time>2026-04-26T08:28:48.205Z</time></trkpt><trkpt lat="37.7067033" lon="15.1705533"><ele>184.0</ele><time>2026-04-26T08:28:49.205Z</time></trkpt><trkpt lat="37.70659" lon="15.1706367"><ele>184.0</ele><time>2026-04-26T08:28:50.204Z</time></trkpt><trkpt lat="37.70649" lon="15.1707333"><ele>184.0</ele><time>2026-04-26T08:28:51.204Z</time></trkpt><trkpt lat="37.7063933" lon="15.1708233"><ele>184.0</ele><time>2026-04-26T08:28:52.204Z</time></trkpt><trkpt lat="37.7062933" lon="15.170905"><ele>183.6</ele><time>2026-04-26T08:28:53.204Z</time></trkpt><trkpt lat="37.7061983" lon="15.1709867"><ele>183.2</ele><time>2026-04-26T08:28:54.204Z</time></trkpt><trkpt lat="37.7061133" lon="15.17106"><ele>182.79999999999998</ele><time>2026-04-26T08:28:55.204Z</time></trkpt><trkpt lat="37.706025" lon="15.1711317"><ele>182.39999999999998</ele><time>2026-04-26T08:28:56.204Z</time></trkpt><trkpt lat="37.7059367" lon="15.1711917"><ele>182.0</ele><time>2026-04-26T08:28:57.204Z</time></trkpt><trkpt lat="37.7058567" lon="15.17125"><ele>182.0</ele><time>2026-04-26T08:28:58.204Z</time></trkpt><trkpt lat="37.7057917" lon="15.171295"><ele>182.0</ele><time>2026-04-26T08:28:59.205Z</time></trkpt><trkpt lat="37.7057283" lon="15.1713383"><ele>182.0</ele><time>2026-04-26T08:29:00.204Z</time></trkpt><trkpt lat="37.705665" lon="15.17139"><ele>182.0</ele><time>2026-04-26T08:29:01.204Z</time></trkpt><trkpt lat="37.705605" lon="15.1714367"><ele>182.0</ele><time>2026-04-26T08:29:02.204Z</time></trkpt><trkpt lat="37.7055117" lon="15.1715033"><ele>182.0</ele><time>2026-04-26T08:29:04.204Z</time></trkpt><trkpt lat="37.7054483" lon="15.1715317"><ele>181.66666666666666</ele><time>2026-04-26T08:29:06.204Z</time></trkpt><trkpt lat="37.7053733" lon="15.1715883"><ele>181.33333333333331</ele><time>2026-04-26T08:29:29.205Z</time></trkpt><trkpt lat="37.7053017" lon="15.1716033"><ele>181.0</ele><time>2026-04-26T08:29:40.204Z</time></trkpt><trkpt lat="37.7052333" lon="15.17165"><ele>180.66666666666666</ele><time>2026-04-26T08:29:52.204Z</time></trkpt><trkpt lat="37.7051633" lon="15.1716017"><ele>180.33333333333334</ele><time>2026-04-26T08:29:54.204Z</time></trkpt><trkpt lat="37.7051033" lon="15.17154"><ele>180.0</ele><time>2026-04-26T08:29:55.204Z</time></trkpt><trkpt lat="37.7050433" lon="15.1714717"><ele>179.8</ele><time>2026-04-26T08:29:56.204Z</time></trkpt><trkpt lat="37.704975" lon="15.1714033"><ele>179.6</ele><time>2026-04-26T08:29:57.205Z</time></trkpt><trkpt lat="37.70491" lon="15.1713233"><ele>179.39999999999998</ele><time>2026-04-26T08:29:58.204Z</time></trkpt><trkpt lat="37.704825" lon="15.1712367"><ele>179.2</ele><time>2026-04-26T08:29:59.204Z</time></trkpt><trkpt lat="37.7047317" lon="15.1711567"><ele>179.0</ele><time>2026-04-26T08:30:00.204Z</time></trkpt><trkpt lat="37.7046483" lon="15.17108"><ele>179.0</ele><time>2026-04-26T08:30:01.204Z</time></trkpt><trkpt lat="37.7045667" lon="15.171015"><ele>179.0</ele><time>2026-04-26T08:30:02.204Z</time></trkpt><trkpt lat="37.7044983" lon="15.1709617"><ele>179.0</ele><time>2026-04-26T08:30:03.205Z</time></trkpt><trkpt lat="37.70444" lon="15.1709183"><ele>179.0</ele><time>2026-04-26T08:30:04.204Z</time></trkpt><trkpt lat="37.7043433" lon="15.1708267"><ele>179.0</ele><time>2026-04-26T08:30:06.204Z</time></trkpt><trkpt lat="37.704295" lon="15.1707517"><ele>179.0</ele><time>2026-04-26T08:30:07.204Z</time></trkpt><trkpt lat="37.7042533" lon="15.170665"><ele>180.39999999999998</ele><time>2026-04-26T08:30:08.204Z</time></trkpt><trkpt lat="37.7041917" lon="15.1705833"><ele>181.8</ele><time>2026-04-26T08:30:09.204Z</time></trkpt><trkpt lat="37.7041167" lon="15.1705283"><ele>183.2</ele><time>2026-04-26T08:30:10.204Z</time></trkpt><trkpt lat="37.7040233" lon="15.1704883"><ele>184.60000000000002</ele><time>2026-04-26T08:30:11.204Z</time></trkpt><trkpt lat="37.703935" lon="15.17045"><ele>186.0</ele><time>2026-04-26T08:30:12.204Z</time></trkpt><trkpt lat="37.7038417" lon="15.1703867"><ele>186.0</ele><time>2026-04-26T08:30:13.204Z</time></trkpt><trkpt lat="37.7037417" lon="15.1703033"><ele>186.0</ele><time>2026-04-26T08:30:14.204Z</time></trkpt><trkpt lat="37.7036367" lon="15.1702267"><ele>186.0</ele><time>2026-04-26T08:30:15.204Z</time></trkpt><trkpt lat="37.7035233" lon="15.1701383"><ele>186.0</ele><time>2026-04-26T08:30:16.204Z</time></trkpt><trkpt lat="37.7034067" lon="15.1700533"><ele>186.0</ele><time>2026-04-26T08:30:17.205Z</time></trkpt><trkpt lat="37.7032817" lon="15.16997"><ele>186.0</ele><time>2026-04-26T08:30:18.204Z</time></trkpt><trkpt lat="37.7031633" lon="15.1698833"><ele>186.0</ele><time>2026-04-26T08:30:19.204Z</time></trkpt><trkpt lat="37.70305" lon="15.1697917"><ele>186.0</ele><time>2026-04-26T08:30:20.204Z</time></trkpt><trkpt lat="37.7029383" lon="15.16971"><ele>186.0</ele><time>2026-04-26T08:30:21.204Z</time></trkpt><trkpt lat="37.7028367" lon="15.1696417"><ele>186.0</ele><time>2026-04-26T08:30:22.204Z</time></trkpt><trkpt lat="37.7027383" lon="15.1695633"><ele>186.0</ele><time>2026-04-26T08:30:23.204Z</time></trkpt><trkpt lat="37.7026417" lon="15.1694717"><ele>186.0</ele><time>2026-04-26T08:30:24.204Z</time></trkpt><trkpt lat="37.70255" lon="15.1693783"><ele>185.75</ele><time>2026-04-26T08:30:25.204Z</time></trkpt><trkpt lat="37.7024483" lon="15.1692917"><ele>185.5</ele><time>2026-04-26T08:30:26.205Z</time></trkpt><trkpt lat="37.7023467" lon="15.1692133"><ele>185.25</ele><time>2026-04-26T08:30:27.204Z</time></trkpt><trkpt lat="37.7022383" lon="15.16913"><ele>185.0</ele><time>2026-04-26T08:30:28.204Z</time></trkpt><trkpt lat="37.702135" lon="15.1690467"><ele>186.0</ele><time>2026-04-26T08:30:29.204Z</time></trkpt><trkpt lat="37.7020367" lon="15.168945"><ele>187.0</ele><time>2026-04-26T08:30:30.204Z</time></trkpt><trkpt lat="37.7019433" lon="15.168845"><ele>188.0</ele><time>2026-04-26T08:30:31.204Z</time></trkpt><trkpt lat="37.7018433" lon="15.1687533"><ele>189.0</ele><time>2026-04-26T08:30:32.204Z</time></trkpt><trkpt lat="37.7017433" lon="15.1686467"><ele>189.0</ele><time>2026-04-26T08:30:33.204Z</time></trkpt><trkpt lat="37.7016317" lon="15.16856"><ele>189.0</ele><time>2026-04-26T08:30:34.204Z</time></trkpt><trkpt lat="37.70152" lon="15.168475"><ele>189.0</ele><time>2026-04-26T08:30:35.204Z</time></trkpt><trkpt lat="37.7013933" lon="15.1683917"><ele>189.0</ele><time>2026-04-26T08:30:36.204Z</time></trkpt><trkpt lat="37.7012817" lon="15.1683033"><ele>189.0</ele><time>2026-04-26T08:30:37.204Z</time></trkpt><trkpt lat="37.701165" lon="15.1682333"><ele>189.0</ele><time>2026-04-26T08:30:38.204Z</time></trkpt><trkpt lat="37.7010383" lon="15.1681667"><ele>189.0</ele><time>2026-04-26T08:30:39.205Z</time></trkpt><trkpt lat="37.7009267" lon="15.168095"><ele>189.0</ele><time>2026-04-26T08:30:40.204Z</time></trkpt><trkpt lat="37.7008167" lon="15.1680367"><ele>190.5</ele><time>2026-04-26T08:30:41.204Z</time></trkpt><trkpt lat="37.700695" lon="15.167985"><ele>192.0</ele><time>2026-04-26T08:30:42.205Z</time></trkpt><trkpt lat="37.700585" lon="15.16792"><ele>193.5</ele><time>2026-04-26T08:30:43.204Z</time></trkpt><trkpt lat="37.7004833" lon="15.16786"><ele>195.0</ele><time>2026-04-26T08:30:44.204Z</time></trkpt><trkpt lat="37.7003817" lon="15.16779"><ele>195.0</ele><time>2026-04-26T08:30:45.204Z</time></trkpt><trkpt lat="37.7002833" lon="15.1677333"><ele>195.0</ele><time>2026-04-26T08:30:46.204Z</time></trkpt><trkpt lat="37.7002" lon="15.16767"><ele>195.0</ele><time>2026-04-26T08:30:47.204Z</time></trkpt><trkpt lat="37.7001217" lon="15.1675983"><ele>195.0</ele><time>2026-04-26T08:30:48.205Z</time></trkpt><trkpt lat="37.7000617" lon="15.1674967"><ele>195.0</ele><time>2026-04-26T08:30:49.204Z</time></trkpt><trkpt lat="37.700005" lon="15.1673833"><ele>194.8</ele><time>2026-04-26T08:30:50.204Z</time></trkpt><trkpt lat="37.6999617" lon="15.167255"><ele>194.6</ele><time>2026-04-26T08:30:51.204Z</time></trkpt><trkpt lat="37.6999233" lon="15.1671167"><ele>194.39999999999998</ele><time>2026-04-26T08:30:52.204Z</time></trkpt><trkpt lat="37.6999" lon="15.1669783"><ele>194.2</ele><time>2026-04-26T08:30:53.204Z</time></trkpt><trkpt lat="37.69988" lon="15.1668467"><ele>194.0</ele><time>2026-04-26T08:30:54.204Z</time></trkpt><trkpt lat="37.6998617" lon="15.166715"><ele>194.0</ele><time>2026-04-26T08:30:55.204Z</time></trkpt><trkpt lat="37.6998417" lon="15.1665883"><ele>194.0</ele><time>2026-04-26T08:30:56.205Z</time></trkpt><trkpt lat="37.6998183" lon="15.1664683"><ele>194.0</ele><time>2026-04-26T08:30:57.205Z</time></trkpt><trkpt lat="37.6997783" lon="15.1663633"><ele>194.0</ele><time>2026-04-26T08:30:58.205Z</time></trkpt><trkpt lat="37.6997133" lon="15.1662667"><ele>194.0</ele><time>2026-04-26T08:30:59.204Z</time></trkpt><trkpt lat="37.6996533" lon="15.16618"><ele>196.0</ele><time>2026-04-26T08:31:00.205Z</time></trkpt><trkpt lat="37.6995817" lon="15.1661217"><ele>198.0</ele><time>2026-04-26T08:31:01.204Z</time></trkpt><trkpt lat="37.6994967" lon="15.1661117"><ele>200.0</ele><time>2026-04-26T08:31:02.204Z</time></trkpt><trkpt lat="37.699405" lon="15.166125"><ele>202.0</ele><time>2026-04-26T08:31:03.204Z</time></trkpt><trkpt lat="37.6993017" lon="15.1661817"><ele>204.0</ele><time>2026-04-26T08:31:04.204Z</time></trkpt><trkpt lat="37.699175" lon="15.1662667"><ele>205.33333333333331</ele><time>2026-04-26T08:31:05.204Z</time></trkpt><trkpt lat="37.699035" lon="15.1663617"><ele>206.66666666666666</ele><time>2026-04-26T08:31:06.204Z</time></trkpt><trkpt lat="37.6988733" lon="15.16645"><ele>208.0</ele><time>2026-04-26T08:31:07.204Z</time></trkpt><trkpt lat="37.6987067" lon="15.1665333"><ele>206.33333333333331</ele><time>2026-04-26T08:31:08.204Z</time></trkpt><trkpt lat="37.6985483" lon="15.1665933"><ele>204.66666666666669</ele><time>2026-04-26T08:31:09.204Z</time></trkpt><trkpt lat="37.6983967" lon="15.16664"><ele>203.0</ele><time>2026-04-26T08:31:10.204Z</time></trkpt><trkpt lat="37.6982517" lon="15.1666783"><ele>203.0</ele><time>2026-04-26T08:31:11.204Z</time></trkpt><trkpt lat="37.6980967" lon="15.1666983"><ele>203.0</ele><time>2026-04-26T08:31:12.204Z</time></trkpt><trkpt lat="37.6979417" lon="15.16671"><ele>203.0</ele><time>2026-04-26T08:31:13.204Z</time></trkpt><trkpt lat="37.6977767" lon="15.16672"><ele>205.0</ele><time>2026-04-26T08:31:14.205Z</time></trkpt><trkpt lat="37.697615" lon="15.16672"><ele>207.0</ele><time>2026-04-26T08:31:15.204Z</time></trkpt><trkpt lat="37.69746" lon="15.1667233"><ele>209.0</ele><time>2026-04-26T08:31:16.204Z</time></trkpt><trkpt lat="37.69731" lon="15.1667333"><ele>209.0</ele><time>2026-04-26T08:31:17.204Z</time></trkpt><trkpt lat="37.6971767" lon="15.1667283"><ele>209.0</ele><time>2026-04-26T08:31:18.205Z</time></trkpt><trkpt lat="37.6970333" lon="15.16671"><ele>209.0</ele><time>2026-04-26T08:31:19.204Z</time></trkpt><trkpt lat="37.6968933" lon="15.1666717"><ele>209.0</ele><time>2026-04-26T08:31:20.204Z</time></trkpt><trkpt lat="37.6967667" lon="15.1666"><ele>210.5</ele><time>2026-04-26T08:31:21.204Z</time></trkpt><trkpt lat="37.6966583" lon="15.1664983"><ele>212.0</ele><time>2026-04-26T08:31:22.205Z</time></trkpt><trkpt lat="37.6965833" lon="15.1663717"><ele>213.5</ele><time>2026-04-26T08:31:23.204Z</time></trkpt><trkpt lat="37.6965483" lon="15.166225"><ele>215.0</ele><time>2026-04-26T08:31:24.205Z</time></trkpt><trkpt lat="37.6965417" lon="15.1660517"><ele>215.0</ele><time>2026-04-26T08:31:25.204Z</time></trkpt><trkpt lat="37.696525" lon="15.1658733"><ele>215.0</ele><time>2026-04-26T08:31:26.204Z</time></trkpt><trkpt lat="37.6964967" lon="15.16569"><ele>215.0</ele><time>2026-04-26T08:31:27.204Z</time></trkpt><trkpt lat="37.6964633" lon="15.1655083"><ele>215.0</ele><time>2026-04-26T08:31:28.204Z</time></trkpt><trkpt lat="37.6964317" lon="15.165315"><ele>215.66666666666669</ele><time>2026-04-26T08:31:29.204Z</time></trkpt><trkpt lat="37.6963983" lon="15.16511"><ele>216.33333333333331</ele><time>2026-04-26T08:31:30.204Z</time></trkpt><trkpt lat="37.69636" lon="15.1649"><ele>217.0</ele><time>2026-04-26T08:31:31.204Z</time></trkpt><trkpt lat="37.6963133" lon="15.1646917"><ele>219.33333333333331</ele><time>2026-04-26T08:31:32.204Z</time></trkpt><trkpt lat="37.6962567" lon="15.16448"><ele>221.66666666666669</ele><time>2026-04-26T08:31:33.204Z</time></trkpt><trkpt lat="37.696185" lon="15.1642733"><ele>224.0</ele><time>2026-04-26T08:31:34.204Z</time></trkpt><trkpt lat="37.6961017" lon="15.1640633"><ele>223.0</ele><time>2026-04-26T08:31:35.204Z</time></trkpt><trkpt lat="37.6960133" lon="15.1638567"><ele>222.0</ele><time>2026-04-26T08:31:36.204Z</time></trkpt><trkpt lat="37.6959267" lon="15.163635"><ele>221.0</ele><time>2026-04-26T08:31:37.204Z</time></trkpt><trkpt lat="37.6958367" lon="15.1634233"><ele>221.0</ele><time>2026-04-26T08:31:38.204Z</time></trkpt><trkpt lat="37.69575" lon="15.1632117"><ele>221.0</ele><time>2026-04-26T08:31:39.204Z</time></trkpt><trkpt lat="37.69567" lon="15.1629917"><ele>221.0</ele><time>2026-04-26T08:31:40.204Z</time></trkpt><trkpt lat="37.6955783" lon="15.1627783"><ele>223.0</ele><time>2026-04-26T08:31:41.204Z</time></trkpt><trkpt lat="37.6954967" lon="15.162555"><ele>225.0</ele><time>2026-04-26T08:31:42.204Z</time></trkpt><trkpt lat="37.6954117" lon="15.1623467"><ele>227.0</ele><time>2026-04-26T08:31:43.204Z</time></trkpt><trkpt lat="37.695345" lon="15.1621317"><ele>227.0</ele><time>2026-04-26T08:31:44.204Z</time></trkpt><trkpt lat="37.69529" lon="15.161905"><ele>227.0</ele><time>2026-04-26T08:31:45.205Z</time></trkpt><trkpt lat="37.69525" lon="15.1616733"><ele>227.0</ele><time>2026-04-26T08:31:46.204Z</time></trkpt><trkpt lat="37.69521" lon="15.161445"><ele>229.0</ele><time>2026-04-26T08:31:47.204Z</time></trkpt><trkpt lat="37.6951867" lon="15.1612"><ele>231.0</ele><time>2026-04-26T08:31:48.204Z</time></trkpt><trkpt lat="37.6951783" lon="15.1609683"><ele>233.0</ele><time>2026-04-26T08:31:49.205Z</time></trkpt><trkpt lat="37.695175" lon="15.1607267"><ele>234.66666666666669</ele><time>2026-04-26T08:31:50.205Z</time></trkpt><trkpt lat="37.6951867" lon="15.1604767"><ele>236.33333333333331</ele><time>2026-04-26T08:31:51.204Z</time></trkpt><trkpt lat="37.69517" lon="15.1602233"><ele>238.0</ele><time>2026-04-26T08:31:52.205Z</time></trkpt><trkpt lat="37.6951383" lon="15.159975"><ele>239.0</ele><time>2026-04-26T08:31:53.204Z</time></trkpt><trkpt lat="37.6950983" lon="15.1597233"><ele>240.0</ele><time>2026-04-26T08:31:54.204Z</time></trkpt><trkpt lat="37.6950583" lon="15.1594667"><ele>241.0</ele><time>2026-04-26T08:31:55.204Z</time></trkpt><trkpt lat="37.6950167" lon="15.159215"><ele>242.0</ele><time>2026-04-26T08:31:56.205Z</time></trkpt><trkpt lat="37.6949767" lon="15.15897"><ele>243.0</ele><time>2026-04-26T08:31:57.204Z</time></trkpt><trkpt lat="37.6949167" lon="15.15873"><ele>244.0</ele><time>2026-04-26T08:31:58.204Z</time></trkpt><trkpt lat="37.6948467" lon="15.158485"><ele>244.0</ele><time>2026-04-26T08:31:59.205Z</time></trkpt><trkpt lat="37.6947633" lon="15.1582483"><ele>244.0</ele><time>2026-04-26T08:32:00.204Z</time></trkpt><trkpt lat="37.6946883" lon="15.1579983"><ele>244.0</ele><time>2026-04-26T08:32:01.204Z</time></trkpt><trkpt lat="37.694615" lon="15.1577517"><ele>246.0</ele><time>2026-04-26T08:32:02.204Z</time></trkpt><trkpt lat="37.6945367" lon="15.1575067"><ele>248.0</ele><time>2026-04-26T08:32:03.204Z</time></trkpt><trkpt lat="37.6944583" lon="15.157275"><ele>250.0</ele><time>2026-04-26T08:32:04.204Z</time></trkpt><trkpt lat="37.6943833" lon="15.1570467"><ele>250.33333333333331</ele><time>2026-04-26T08:32:05.204Z</time></trkpt><trkpt lat="37.6943033" lon="15.1568317"><ele>250.66666666666669</ele><time>2026-04-26T08:32:06.204Z</time></trkpt><trkpt lat="37.6942133" lon="15.1566283"><ele>251.0</ele><time>2026-04-26T08:32:07.204Z</time></trkpt><trkpt lat="37.69412" lon="15.1564317"><ele>251.66666666666669</ele><time>2026-04-26T08:32:08.204Z</time></trkpt><trkpt lat="37.6940183" lon="15.1562433"><ele>252.33333333333331</ele><time>2026-04-26T08:32:09.204Z</time></trkpt><trkpt lat="37.6938983" lon="15.1560667"><ele>253.0</ele><time>2026-04-26T08:32:10.204Z</time></trkpt><trkpt lat="37.6937833" lon="15.1558917"><ele>253.0</ele><time>2026-04-26T08:32:11.204Z</time></trkpt><trkpt lat="37.6936683" lon="15.1557217"><ele>253.0</ele><time>2026-04-26T08:32:12.204Z</time></trkpt><trkpt lat="37.69355" lon="15.1555583"><ele>253.0</ele><time>2026-04-26T08:32:13.204Z</time></trkpt><trkpt lat="37.69344" lon="15.1553883"><ele>253.66666666666666</ele><time>2026-04-26T08:32:14.204Z</time></trkpt><trkpt lat="37.6933417" lon="15.1552233"><ele>254.33333333333331</ele><time>2026-04-26T08:32:15.204Z</time></trkpt><trkpt lat="37.6932633" lon="15.15506"><ele>255.0</ele><time>2026-04-26T08:32:16.204Z</time></trkpt><trkpt lat="37.6932067" lon="15.15489"><ele>256.25</ele><time>2026-04-26T08:32:17.204Z</time></trkpt><trkpt lat="37.6931783" lon="15.154715"><ele>257.5</ele><time>2026-04-26T08:32:18.204Z</time></trkpt><trkpt lat="37.693175" lon="15.1545483"><ele>258.75</ele><time>2026-04-26T08:32:19.204Z</time></trkpt><trkpt lat="37.6931883" lon="15.15439"><ele>260.0</ele><time>2026-04-26T08:32:20.204Z</time></trkpt><trkpt lat="37.69321" lon="15.1542417"><ele>260.0</ele><time>2026-04-26T08:32:21.204Z</time></trkpt><trkpt lat="37.6932417" lon="15.1540983"><ele>260.0</ele><time>2026-04-26T08:32:22.204Z</time></trkpt><trkpt lat="37.6932733" lon="15.1539567"><ele>260.0</ele><time>2026-04-26T08:32:23.204Z</time></trkpt><trkpt lat="37.693305" lon="15.1538083"><ele>260.0</ele><time>2026-04-26T08:32:24.204Z</time></trkpt><trkpt lat="37.693325" lon="15.153655"><ele>261.75</ele><time>2026-04-26T08:32:25.204Z</time></trkpt><trkpt lat="37.69335" lon="15.1535"><ele>263.5</ele><time>2026-04-26T08:32:26.204Z</time></trkpt><trkpt lat="37.69337" lon="15.1533467"><ele>265.25</ele><time>2026-04-26T08:32:27.204Z</time></trkpt><trkpt lat="37.6933967" lon="15.153195"><ele>267.0</ele><time>2026-04-26T08:32:28.204Z</time></trkpt><trkpt lat="37.693425" lon="15.1530433"><ele>267.5</ele><time>2026-04-26T08:32:29.204Z</time></trkpt><trkpt lat="37.6934567" lon="15.1528883"><ele>268.0</ele><time>2026-04-26T08:32:30.204Z</time></trkpt><trkpt lat="37.6934767" lon="15.1527433"><ele>268.5</ele><time>2026-04-26T08:32:31.204Z</time></trkpt><trkpt lat="37.6935017" lon="15.152605"><ele>269.0</ele><time>2026-04-26T08:32:32.204Z</time></trkpt><trkpt lat="37.693515" lon="15.1524717"><ele>270.0</ele><time>2026-04-26T08:32:33.204Z</time></trkpt><trkpt lat="37.6935183" lon="15.15234"><ele>271.0</ele><time>2026-04-26T08:32:34.204Z</time></trkpt><trkpt lat="37.69352" lon="15.1522183"><ele>272.0</ele><time>2026-04-26T08:32:35.205Z</time></trkpt><trkpt lat="37.6934967" lon="15.1520967"><ele>273.0</ele><time>2026-04-26T08:32:36.204Z</time></trkpt><trkpt lat="37.6934633" lon="15.1519833"><ele>274.0</ele><time>2026-04-26T08:32:37.204Z</time></trkpt><trkpt lat="37.69342" lon="15.1518833"><ele>274.0</ele><time>2026-04-26T08:32:38.205Z</time></trkpt><trkpt lat="37.6933667" lon="15.15179"><ele>274.0</ele><time>2026-04-26T08:32:39.204Z</time></trkpt><trkpt lat="37.6932883" lon="15.15171"><ele>274.0</ele><time>2026-04-26T08:32:40.204Z</time></trkpt><trkpt lat="37.6932083" lon="15.151645"><ele>274.0</ele><time>2026-04-26T08:32:41.205Z</time></trkpt><trkpt lat="37.6931267" lon="15.15159"><ele>274.0</ele><time>2026-04-26T08:32:42.205Z</time></trkpt><trkpt lat="37.6930333" lon="15.1515333"><ele>275.0</ele><time>2026-04-26T08:32:43.204Z</time></trkpt><trkpt lat="37.6929467" lon="15.1514817"><ele>276.0</ele><time>2026-04-26T08:32:44.204Z</time></trkpt><trkpt lat="37.6928583" lon="15.1514217"><ele>277.0</ele><time>2026-04-26T08:32:45.204Z</time></trkpt><trkpt lat="37.6927517" lon="15.1513617"><ele>278.0</ele><time>2026-04-26T08:32:46.204Z</time></trkpt><trkpt lat="37.69265" lon="15.1513133"><ele>279.0</ele><time>2026-04-26T08:32:47.204Z</time></trkpt><trkpt lat="37.6925433" lon="15.1512567"><ele>280.5</ele><time>2026-04-26T08:32:48.205Z</time></trkpt><trkpt lat="37.692435" lon="15.15119"><ele>282.0</ele><time>2026-04-26T08:32:49.204Z</time></trkpt><trkpt lat="37.6923433" lon="15.151105"><ele>283.5</ele><time>2026-04-26T08:32:50.204Z</time></trkpt><trkpt lat="37.692255" lon="15.1509817"><ele>285.0</ele><time>2026-04-26T08:32:51.204Z</time></trkpt><trkpt lat="37.6921867" lon="15.1508483"><ele>286.5</ele><time>2026-04-26T08:32:52.204Z</time></trkpt><trkpt lat="37.6921433" lon="15.1506917"><ele>288.0</ele><time>2026-04-26T08:32:53.205Z</time></trkpt><trkpt lat="37.6921017" lon="15.15052"><ele>289.5</ele><time>2026-04-26T08:32:54.204Z</time></trkpt><trkpt lat="37.6920717" lon="15.1503483"><ele>291.0</ele><time>2026-04-26T08:32:55.204Z</time></trkpt><trkpt lat="37.6920417" lon="15.1501767"><ele>291.0</ele><time>2026-04-26T08:32:56.204Z</time></trkpt><trkpt lat="37.6920083" lon="15.1499933"><ele>291.0</ele><time>2026-04-26T08:32:57.205Z</time></trkpt><trkpt lat="37.6919767" lon="15.1498167"><ele>291.0</ele><time>2026-04-26T08:32:58.204Z</time></trkpt><trkpt lat="37.6919467" lon="15.1496433"><ele>291.0</ele><time>2026-04-26T08:32:59.204Z</time></trkpt><trkpt lat="37.6919267" lon="15.14947"><ele>292.75</ele><time>2026-04-26T08:33:00.204Z</time></trkpt><trkpt lat="37.6919283" lon="15.149295"><ele>294.5</ele><time>2026-04-26T08:33:01.204Z</time></trkpt><trkpt lat="37.691955" lon="15.1491283"><ele>296.25</ele><time>2026-04-26T08:33:02.205Z</time></trkpt><trkpt lat="37.6919967" lon="15.1489617"><ele>298.0</ele><time>2026-04-26T08:33:03.204Z</time></trkpt><trkpt lat="37.6920433" lon="15.14878"><ele>298.5</ele><time>2026-04-26T08:33:04.204Z</time></trkpt><trkpt lat="37.6920883" lon="15.1486017"><ele>299.0</ele><time>2026-04-26T08:33:05.204Z</time></trkpt><trkpt lat="37.6921133" lon="15.1484183"><ele>299.5</ele><time>2026-04-26T08:33:06.205Z</time></trkpt><trkpt lat="37.69212" lon="15.148225"><ele>300.0</ele><time>2026-04-26T08:33:07.204Z</time></trkpt><trkpt lat="37.69211" lon="15.1480367"><ele>300.75</ele><time>2026-04-26T08:33:08.204Z</time></trkpt><trkpt lat="37.6920883" lon="15.147855"><ele>301.5</ele><time>2026-04-26T08:33:09.204Z</time></trkpt><trkpt lat="37.6920683" lon="15.14767"><ele>302.25</ele><time>2026-04-26T08:33:10.204Z</time></trkpt><trkpt lat="37.6920283" lon="15.1474833"><ele>303.0</ele><time>2026-04-26T08:33:11.204Z</time></trkpt><trkpt lat="37.6919633" lon="15.1473167"><ele>303.6666666666667</ele><time>2026-04-26T08:33:12.204Z</time></trkpt><trkpt lat="37.6918867" lon="15.147165"><ele>304.33333333333337</ele><time>2026-04-26T08:33:13.204Z</time></trkpt><trkpt lat="37.6917767" lon="15.1470133"><ele>305.0</ele><time>2026-04-26T08:33:14.204Z</time></trkpt><trkpt lat="37.6916667" lon="15.1468783"><ele>305.0</ele><time>2026-04-26T08:33:15.204Z</time></trkpt><trkpt lat="37.6915483" lon="15.14675"><ele>305.0</ele><time>2026-04-26T08:33:16.205Z</time></trkpt><trkpt lat="37.6914183" lon="15.1466183"><ele>305.0</ele><time>2026-04-26T08:33:17.204Z</time></trkpt><trkpt lat="37.6912967" lon="15.146495"><ele>306.0</ele><time>2026-04-26T08:33:18.204Z</time></trkpt><trkpt lat="37.69117" lon="15.1463783"><ele>307.0</ele><time>2026-04-26T08:33:19.204Z</time></trkpt><trkpt lat="37.6910417" lon="15.146245"><ele>308.0</ele><time>2026-04-26T08:33:20.204Z</time></trkpt><trkpt lat="37.69095" lon="15.14612"><ele>308.0</ele><time>2026-04-26T08:33:21.204Z</time></trkpt><trkpt lat="37.6908417" lon="15.14599"><ele>308.0</ele><time>2026-04-26T08:33:22.204Z</time></trkpt><trkpt lat="37.690745" lon="15.1458567"><ele>308.0</ele><time>2026-04-26T08:33:23.204Z</time></trkpt><trkpt lat="37.6906517" lon="15.1457217"><ele>308.0</ele><time>2026-04-26T08:33:24.204Z</time></trkpt><trkpt lat="37.69055" lon="15.14559"><ele>309.0</ele><time>2026-04-26T08:33:25.204Z</time></trkpt><trkpt lat="37.690475" lon="15.1454467"><ele>310.0</ele><time>2026-04-26T08:33:26.204Z</time></trkpt><trkpt lat="37.6904033" lon="15.1453"><ele>311.0</ele><time>2026-04-26T08:33:27.204Z</time></trkpt><trkpt lat="37.69036" lon="15.1451517"><ele>312.0</ele><time>2026-04-26T08:33:28.205Z</time></trkpt><trkpt lat="37.690315" lon="15.1449867"><ele>312.25</ele><time>2026-04-26T08:33:29.204Z</time></trkpt><trkpt lat="37.6903017" lon="15.1448233"><ele>312.5</ele><time>2026-04-26T08:33:30.204Z</time></trkpt><trkpt lat="37.6902683" lon="15.1446533"><ele>312.75</ele><time>2026-04-26T08:33:31.204Z</time></trkpt><trkpt lat="37.69023" lon="15.1444767"><ele>313.0</ele><time>2026-04-26T08:33:32.204Z</time></trkpt><trkpt lat="37.6901967" lon="15.1443017"><ele>312.25</ele><time>2026-04-26T08:33:33.204Z</time></trkpt><trkpt lat="37.69017" lon="15.1441167"><ele>311.5</ele><time>2026-04-26T08:33:34.204Z</time></trkpt><trkpt lat="37.6901467" lon="15.1439317"><ele>310.75</ele><time>2026-04-26T08:33:35.204Z</time></trkpt><trkpt lat="37.690115" lon="15.1437567"><ele>310.0</ele><time>2026-04-26T08:33:36.205Z</time></trkpt><trkpt lat="37.6900817" lon="15.1435833"><ele>310.0</ele><time>2026-04-26T08:33:37.204Z</time></trkpt><trkpt lat="37.6900583" lon="15.1434167"><ele>310.0</ele><time>2026-04-26T08:33:38.205Z</time></trkpt><trkpt lat="37.6900267" lon="15.1432583"><ele>310.0</ele><time>2026-04-26T08:33:39.204Z</time></trkpt><trkpt lat="37.6899983" lon="15.1431033"><ele>310.0</ele><time>2026-04-26T08:33:40.204Z</time></trkpt><trkpt lat="37.6899767" lon="15.1429633"><ele>311.0</ele><time>2026-04-26T08:33:41.204Z</time></trkpt><trkpt lat="37.6899517" lon="15.14284"><ele>312.0</ele><time>2026-04-26T08:33:42.204Z</time></trkpt><trkpt lat="37.6899317" lon="15.1427317"><ele>313.0</ele><time>2026-04-26T08:33:43.204Z</time></trkpt><trkpt lat="37.68992" lon="15.1426317"><ele>314.0</ele><time>2026-04-26T08:33:44.204Z</time></trkpt><trkpt lat="37.6899017" lon="15.1425383"><ele>315.0</ele><time>2026-04-26T08:33:45.204Z</time></trkpt><trkpt lat="37.689875" lon="15.1424383"><ele>316.0</ele><time>2026-04-26T08:33:46.204Z</time></trkpt><trkpt lat="37.6898333" lon="15.1423483"><ele>317.0</ele><time>2026-04-26T08:33:47.204Z</time></trkpt><trkpt lat="37.6897933" lon="15.142275"><ele>318.0</ele><time>2026-04-26T08:33:48.204Z</time></trkpt><trkpt lat="37.6897167" lon="15.1421533"><ele>319.0</ele><time>2026-04-26T08:33:50.204Z</time></trkpt><trkpt lat="37.68963" lon="15.14204"><ele>320.0</ele><time>2026-04-26T08:33:52.205Z</time></trkpt><trkpt lat="37.6895467" lon="15.142025"><ele>321.0</ele><time>2026-04-26T08:33:53.204Z</time></trkpt><trkpt lat="37.6894617" lon="15.1420367"><ele>320.8333333333333</ele><time>2026-04-26T08:33:54.204Z</time></trkpt><trkpt lat="37.6893917" lon="15.1420533"><ele>320.6666666666667</ele><time>2026-04-26T08:33:55.204Z</time></trkpt><trkpt lat="37.6893117" lon="15.142075"><ele>320.5</ele><time>2026-04-26T08:33:57.205Z</time></trkpt><trkpt lat="37.689245" lon="15.1420933"><ele>320.33333333333337</ele><time>2026-04-26T08:34:00.204Z</time></trkpt><trkpt lat="37.6891967" lon="15.141985"><ele>320.1666666666667</ele><time>2026-04-26T08:34:04.204Z</time></trkpt><trkpt lat="37.6891733" lon="15.1418817"><ele>320.0</ele><time>2026-04-26T08:34:06.204Z</time></trkpt><trkpt lat="37.6891467" lon="15.141775"><ele>320.0</ele><time>2026-04-26T08:34:08.204Z</time></trkpt><trkpt lat="37.6891267" lon="15.1416383"><ele>320.0</ele><time>2026-04-26T08:34:10.204Z</time></trkpt><trkpt lat="37.6891017" lon="15.141495"><ele>320.0</ele><time>2026-04-26T08:34:12.204Z</time></trkpt><trkpt lat="37.68907" lon="15.1413667"><ele>320.0</ele><time>2026-04-26T08:34:14.204Z</time></trkpt><trkpt lat="37.688985" lon="15.1412667"><ele>320.0</ele><time>2026-04-26T08:34:16.205Z</time></trkpt><trkpt lat="37.6888967" lon="15.1411967"><ele>320.33333333333337</ele><time>2026-04-26T08:34:18.204Z</time></trkpt><trkpt lat="37.6888067" lon="15.14114"><ele>320.6666666666667</ele><time>2026-04-26T08:34:20.205Z</time></trkpt><trkpt lat="37.6887167" lon="15.1410917"><ele>321.0</ele><time>2026-04-26T08:34:22.204Z</time></trkpt><trkpt lat="37.6886433" lon="15.14103"><ele>321.3333333333333</ele><time>2026-04-26T08:34:24.205Z</time></trkpt><trkpt lat="37.68857" lon="15.14099"><ele>321.66666666666663</ele><time>2026-04-26T08:34:27.204Z</time></trkpt><trkpt lat="37.6885033" lon="15.1409617"><ele>322.0</ele><time>2026-04-26T08:34:29.205Z</time></trkpt><trkpt lat="37.6884183" lon="15.1409083"><ele>323.0</ele><time>2026-04-26T08:34:31.204Z</time></trkpt><trkpt lat="37.6883417" lon="15.1408633"><ele>324.0</ele><time>2026-04-26T08:34:33.204Z</time></trkpt><trkpt lat="37.68826" lon="15.1408233"><ele>325.0</ele><time>2026-04-26T08:34:35.204Z</time></trkpt><trkpt lat="37.688175" lon="15.1407783"><ele>326.0</ele><time>2026-04-26T08:34:37.204Z</time></trkpt><trkpt lat="37.688085" lon="15.1407267"><ele>327.0</ele><time>2026-04-26T08:34:39.205Z</time></trkpt><trkpt lat="37.6879917" lon="15.140685"><ele>327.0</ele><time>2026-04-26T08:34:41.204Z</time></trkpt><trkpt lat="37.6879017" lon="15.140655"><ele>327.0</ele><time>2026-04-26T08:34:43.204Z</time></trkpt><trkpt lat="37.6878167" lon="15.1406317"><ele>327.0</ele><time>2026-04-26T08:34:45.204Z</time></trkpt><trkpt lat="37.6877267" lon="15.1405983"><ele>327.0</ele><time>2026-04-26T08:34:47.204Z</time></trkpt><trkpt lat="37.6876683" lon="15.1405317"><ele>327.0</ele><time>2026-04-26T08:34:49.204Z</time></trkpt><trkpt lat="37.6876567" lon="15.140385"><ele>328.1666666666667</ele><time>2026-04-26T08:34:51.204Z</time></trkpt><trkpt lat="37.6876583" lon="15.1402933"><ele>329.3333333333333</ele><time>2026-04-26T08:34:52.205Z</time></trkpt><trkpt lat="37.687655" lon="15.140205"><ele>330.5</ele><time>2026-04-26T08:34:53.204Z</time></trkpt><trkpt lat="37.6876467" lon="15.14011"><ele>331.66666666666663</ele><time>2026-04-26T08:34:54.204Z</time></trkpt><trkpt lat="37.6876417" lon="15.1400117"><ele>332.8333333333333</ele><time>2026-04-26T08:34:55.204Z</time></trkpt><trkpt lat="37.6876333" lon="15.1399017"><ele>334.0</ele><time>2026-04-26T08:34:56.204Z</time></trkpt><trkpt lat="37.68762" lon="15.1397867"><ele>334.6</ele><time>2026-04-26T08:34:57.204Z</time></trkpt><trkpt lat="37.6876033" lon="15.1396783"><ele>335.2</ele><time>2026-04-26T08:34:58.204Z</time></trkpt><trkpt lat="37.6875783" lon="15.1395633"><ele>335.8</ele><time>2026-04-26T08:34:59.204Z</time></trkpt><trkpt lat="37.6875517" lon="15.1394433"><ele>336.40000000000003</ele><time>2026-04-26T08:35:00.204Z</time></trkpt><trkpt lat="37.6875233" lon="15.13933"><ele>337.0</ele><time>2026-04-26T08:35:01.205Z</time></trkpt><trkpt lat="37.6874767" lon="15.1392217"><ele>337.0</ele><time>2026-04-26T08:35:02.204Z</time></trkpt><trkpt lat="37.687425" lon="15.1391167"><ele>337.0</ele><time>2026-04-26T08:35:03.205Z</time></trkpt><trkpt lat="37.6873833" lon="15.1390133"><ele>337.0</ele><time>2026-04-26T08:35:04.204Z</time></trkpt><trkpt lat="37.687345" lon="15.1389117"><ele>337.0</ele><time>2026-04-26T08:35:05.204Z</time></trkpt><trkpt lat="37.687305" lon="15.1388117"><ele>337.0</ele><time>2026-04-26T08:35:06.204Z</time></trkpt><trkpt lat="37.687265" lon="15.13871"><ele>337.6</ele><time>2026-04-26T08:35:07.204Z</time></trkpt><trkpt lat="37.6872517" lon="15.138595"><ele>338.20000000000005</ele><time>2026-04-26T08:35:08.205Z</time></trkpt><trkpt lat="37.6872517" lon="15.1384633"><ele>338.8</ele><time>2026-04-26T08:35:09.204Z</time></trkpt><trkpt lat="37.6872467" lon="15.138335"><ele>339.4</ele><time>2026-04-26T08:35:10.204Z</time></trkpt><trkpt lat="37.68724" lon="15.1381917"><ele>340.0</ele><time>2026-04-26T08:35:11.205Z</time></trkpt><trkpt lat="37.687235" lon="15.138055"><ele>341.0</ele><time>2026-04-26T08:35:12.204Z</time></trkpt><trkpt lat="37.6872417" lon="15.1378933"><ele>342.0</ele><time>2026-04-26T08:35:13.204Z</time></trkpt><trkpt lat="37.68725" lon="15.137735"><ele>343.0</ele><time>2026-04-26T08:35:14.204Z</time></trkpt><trkpt lat="37.6872633" lon="15.13758"><ele>344.0</ele><time>2026-04-26T08:35:15.204Z</time></trkpt><trkpt lat="37.6872867" lon="15.1374233"><ele>345.25</ele><time>2026-04-26T08:35:16.204Z</time></trkpt><trkpt lat="37.6872783" lon="15.1372717"><ele>346.5</ele><time>2026-04-26T08:35:17.204Z</time></trkpt><trkpt lat="37.6872717" lon="15.13712"><ele>347.75</ele><time>2026-04-26T08:35:18.204Z</time></trkpt><trkpt lat="37.6872567" lon="15.1369617"><ele>349.0</ele><time>2026-04-26T08:35:19.204Z</time></trkpt><trkpt lat="37.687245" lon="15.136815"><ele>349.0</ele><time>2026-04-26T08:35:20.204Z</time></trkpt><trkpt lat="37.687235" lon="15.136675"><ele>349.0</ele><time>2026-04-26T08:35:21.204Z</time></trkpt><trkpt lat="37.687225" lon="15.13655"><ele>349.0</ele><time>2026-04-26T08:35:22.204Z</time></trkpt><trkpt lat="37.6872167" lon="15.136435"><ele>349.0</ele><time>2026-04-26T08:35:23.204Z</time></trkpt><trkpt lat="37.68721" lon="15.136315"><ele>349.0</ele><time>2026-04-26T08:35:24.204Z</time></trkpt><trkpt lat="37.6872083" lon="15.1361883"><ele>350.4</ele><time>2026-04-26T08:35:25.204Z</time></trkpt><trkpt lat="37.68721" lon="15.1360517"><ele>351.79999999999995</ele><time>2026-04-26T08:35:26.204Z</time></trkpt><trkpt lat="37.6872033" lon="15.1359167"><ele>353.20000000000005</ele><time>2026-04-26T08:35:27.205Z</time></trkpt><trkpt lat="37.6871867" lon="15.135795"><ele>354.6</ele><time>2026-04-26T08:35:28.204Z</time></trkpt><trkpt lat="37.6871817" lon="15.1356783"><ele>356.0</ele><time>2026-04-26T08:35:29.204Z</time></trkpt><trkpt lat="37.6871883" lon="15.1355517"><ele>356.0</ele><time>2026-04-26T08:35:30.204Z</time></trkpt><trkpt lat="37.68718" lon="15.13544"><ele>356.0</ele><time>2026-04-26T08:35:31.204Z</time></trkpt><trkpt lat="37.6871717" lon="15.135315"><ele>356.0</ele><time>2026-04-26T08:35:32.205Z</time></trkpt><trkpt lat="37.6871667" lon="15.1351933"><ele>356.0</ele><time>2026-04-26T08:35:33.205Z</time></trkpt><trkpt lat="37.68715" lon="15.1350833"><ele>356.0</ele><time>2026-04-26T08:35:34.205Z</time></trkpt><trkpt lat="37.68714" lon="15.1349683"><ele>356.57142857142856</ele><time>2026-04-26T08:35:35.204Z</time></trkpt><trkpt lat="37.6871133" lon="15.13487"><ele>357.1428571428571</ele><time>2026-04-26T08:35:36.204Z</time></trkpt><trkpt lat="37.6870767" lon="15.134795"><ele>357.71428571428567</ele><time>2026-04-26T08:35:37.204Z</time></trkpt><trkpt lat="37.6870267" lon="15.1347267"><ele>358.2857142857143</ele><time>2026-04-26T08:35:38.204Z</time></trkpt><trkpt lat="37.6869767" lon="15.1346717"><ele>358.8571428571429</ele><time>2026-04-26T08:35:39.204Z</time></trkpt><trkpt lat="37.6869183" lon="15.134635"><ele>359.4285714285714</ele><time>2026-04-26T08:35:40.204Z</time></trkpt><trkpt lat="37.686855" lon="15.1346067"><ele>360.0</ele><time>2026-04-26T08:35:41.204Z</time></trkpt><trkpt lat="37.6867583" lon="15.1345533"><ele>360.5</ele><time>2026-04-26T08:35:43.205Z</time></trkpt><trkpt lat="37.6866817" lon="15.1345083"><ele>361.0</ele><time>2026-04-26T08:35:45.204Z</time></trkpt><trkpt lat="37.6866183" lon="15.13446"><ele>361.5</ele><time>2026-04-26T08:35:48.204Z</time></trkpt><trkpt lat="37.6866017" lon="15.1343717"><ele>362.0</ele><time>2026-04-26T08:35:51.204Z</time></trkpt><trkpt lat="37.68664" lon="15.1342733"><ele>362.5</ele><time>2026-04-26T08:35:53.205Z</time></trkpt><trkpt lat="37.686685" lon="15.1341533"><ele>363.0</ele><time>2026-04-26T08:35:55.204Z</time></trkpt><trkpt lat="37.6867467" lon="15.1339983"><ele>363.6666666666667</ele><time>2026-04-26T08:35:57.205Z</time></trkpt><trkpt lat="37.686785" lon="15.133915"><ele>364.3333333333333</ele><time>2026-04-26T08:35:58.204Z</time></trkpt><trkpt lat="37.6868133" lon="15.1338233"><ele>365.0</ele><time>2026-04-26T08:35:59.205Z</time></trkpt><trkpt lat="37.6868517" lon="15.1337233"><ele>365.66666666666663</ele><time>2026-04-26T08:36:00.204Z</time></trkpt><trkpt lat="37.6868867" lon="15.13362"><ele>366.3333333333333</ele><time>2026-04-26T08:36:01.204Z</time></trkpt><trkpt lat="37.68692" lon="15.1335283"><ele>367.0</ele><time>2026-04-26T08:36:02.205Z</time></trkpt><trkpt lat="37.6869483" lon="15.1334333"><ele>367.0</ele><time>2026-04-26T08:36:03.204Z</time></trkpt><trkpt lat="37.686975" lon="15.1333533"><ele>367.0</ele><time>2026-04-26T08:36:04.204Z</time></trkpt><trkpt lat="37.6870033" lon="15.1332817"><ele>367.0</ele><time>2026-04-26T08:36:05.204Z</time></trkpt><trkpt lat="37.68705" lon="15.1331617"><ele>367.0</ele><time>2026-04-26T08:36:07.204Z</time></trkpt><trkpt lat="37.687035" lon="15.1330733"><ele>367.0</ele><time>2026-04-26T08:36:09.204Z</time></trkpt><trkpt lat="37.68693" lon="15.133015"><ele>367.0</ele><time>2026-04-26T08:36:11.204Z</time></trkpt><trkpt lat="37.6868517" lon="15.132985"><ele>367.8</ele><time>2026-04-26T08:36:12.204Z</time></trkpt><trkpt lat="37.686775" lon="15.1329433"><ele>368.6</ele><time>2026-04-26T08:36:13.205Z</time></trkpt><trkpt lat="37.68669" lon="15.132885"><ele>369.40000000000003</ele><time>2026-04-26T08:36:14.204Z</time></trkpt><trkpt lat="37.6866017" lon="15.13281"><ele>370.20000000000005</ele><time>2026-04-26T08:36:15.205Z</time></trkpt><trkpt lat="37.6865133" lon="15.132725"><ele>371.0</ele><time>2026-04-26T08:36:16.204Z</time></trkpt><trkpt lat="37.6864167" lon="15.1326433"><ele>371.0</ele><time>2026-04-26T08:36:17.204Z</time></trkpt><trkpt lat="37.6863183" lon="15.1325617"><ele>371.0</ele><time>2026-04-26T08:36:18.204Z</time></trkpt><trkpt lat="37.686225" lon="15.1324717"><ele>371.0</ele><time>2026-04-26T08:36:19.204Z</time></trkpt><trkpt lat="37.6861283" lon="15.13239"><ele>371.0</ele><time>2026-04-26T08:36:20.204Z</time></trkpt><trkpt lat="37.6860217" lon="15.13233"><ele>372.8</ele><time>2026-04-26T08:36:21.204Z</time></trkpt><trkpt lat="37.6859017" lon="15.1323083"><ele>374.6</ele><time>2026-04-26T08:36:22.204Z</time></trkpt><trkpt lat="37.68579" lon="15.13227"><ele>376.4</ele><time>2026-04-26T08:36:23.204Z</time></trkpt><trkpt lat="37.6856917" lon="15.1322183"><ele>378.2</ele><time>2026-04-26T08:36:24.205Z</time></trkpt><trkpt lat="37.685605" lon="15.1321533"><ele>380.0</ele><time>2026-04-26T08:36:25.204Z</time></trkpt><trkpt lat="37.68553" lon="15.1320783"><ele>380.0</ele><time>2026-04-26T08:36:26.205Z</time></trkpt><trkpt lat="37.68547" lon="15.1319783"><ele>380.0</ele><time>2026-04-26T08:36:27.204Z</time></trkpt><trkpt lat="37.6854117" lon="15.131895"><ele>380.0</ele><time>2026-04-26T08:36:28.205Z</time></trkpt><trkpt lat="37.6853383" lon="15.1318383"><ele>380.0</ele><time>2026-04-26T08:36:29.204Z</time></trkpt><trkpt lat="37.685265" lon="15.131795"><ele>380.0</ele><time>2026-04-26T08:36:30.204Z</time></trkpt><trkpt lat="37.6851867" lon="15.1317817"><ele>380.0</ele><time>2026-04-26T08:36:31.204Z</time></trkpt><trkpt lat="37.6850867" lon="15.1317717"><ele>380.0</ele><time>2026-04-26T08:36:32.204Z</time></trkpt><trkpt lat="37.684985" lon="15.1317667"><ele>380.0</ele><time>2026-04-26T08:36:33.204Z</time></trkpt><trkpt lat="37.684885" lon="15.1317717"><ele>380.0</ele><time>2026-04-26T08:36:34.204Z</time></trkpt><trkpt lat="37.6847883" lon="15.1317683"><ele>380.0</ele><time>2026-04-26T08:36:35.204Z</time></trkpt><trkpt lat="37.6846917" lon="15.1317733"><ele>380.0</ele><time>2026-04-26T08:36:36.204Z</time></trkpt><trkpt lat="37.6845983" lon="15.1317767"><ele>380.0</ele><time>2026-04-26T08:36:37.204Z</time></trkpt><trkpt lat="37.6845083" lon="15.131785"><ele>380.0</ele><time>2026-04-26T08:36:38.205Z</time></trkpt><trkpt lat="37.6844267" lon="15.131805"><ele>380.0</ele><time>2026-04-26T08:36:39.204Z</time></trkpt><trkpt lat="37.6843483" lon="15.131805"><ele>380.0</ele><time>2026-04-26T08:36:40.205Z</time></trkpt><trkpt lat="37.68428" lon="15.131795"><ele>380.0</ele><time>2026-04-26T08:36:41.204Z</time></trkpt><trkpt lat="37.68421" lon="15.1317817"><ele>380.0</ele><time>2026-04-26T08:36:42.205Z</time></trkpt><trkpt lat="37.6841133" lon="15.1317717"><ele>379.6666666666667</ele><time>2026-04-26T08:36:44.204Z</time></trkpt><trkpt lat="37.6840483" lon="15.1317633"><ele>379.33333333333337</ele><time>2026-04-26T08:36:48.204Z</time></trkpt><trkpt lat="37.6839783" lon="15.13175"><ele>379.0</ele><time>2026-04-26T08:36:51.204Z</time></trkpt><trkpt lat="37.6839117" lon="15.1317383"><ele>378.6666666666667</ele><time>2026-04-26T08:36:53.204Z</time></trkpt><trkpt lat="37.683785" lon="15.131735"><ele>378.3333333333333</ele><time>2026-04-26T08:36:55.204Z</time></trkpt><trkpt lat="37.683705" lon="15.13172"><ele>378.0</ele><time>2026-04-26T08:36:56.204Z</time></trkpt><trkpt lat="37.6836117" lon="15.1316883"><ele>377.75</ele><time>2026-04-26T08:36:57.204Z</time></trkpt><trkpt lat="37.6835183" lon="15.13164"><ele>377.5</ele><time>2026-04-26T08:36:58.204Z</time></trkpt><trkpt lat="37.6834233" lon="15.1315667"><ele>377.25</ele><time>2026-04-26T08:36:59.204Z</time></trkpt><trkpt lat="37.6833233" lon="15.1314883"><ele>377.0</ele><time>2026-04-26T08:37:00.204Z</time></trkpt><trkpt lat="37.6832183" lon="15.131385"><ele>379.0</ele><time>2026-04-26T08:37:01.205Z</time></trkpt><trkpt lat="37.68312" lon="15.13127"><ele>381.0</ele><time>2026-04-26T08:37:02.204Z</time></trkpt><trkpt lat="37.6830117" lon="15.1311517"><ele>383.0</ele><time>2026-04-26T08:37:03.204Z</time></trkpt><trkpt lat="37.6829183" lon="15.131015"><ele>385.0</ele><time>2026-04-26T08:37:04.204Z</time></trkpt><trkpt lat="37.68282" lon="15.1308767"><ele>383.5</ele><time>2026-04-26T08:37:05.204Z</time></trkpt><trkpt lat="37.68272" lon="15.130735"><ele>382.0</ele><time>2026-04-26T08:37:06.204Z</time></trkpt><trkpt lat="37.6826283" lon="15.1305933"><ele>380.5</ele><time>2026-04-26T08:37:07.204Z</time></trkpt><trkpt lat="37.6825533" lon="15.1304417"><ele>379.0</ele><time>2026-04-26T08:37:08.204Z</time></trkpt><trkpt lat="37.6824867" lon="15.1303"><ele>379.0</ele><time>2026-04-26T08:37:09.205Z</time></trkpt><trkpt lat="37.6824233" lon="15.1301583"><ele>379.0</ele><time>2026-04-26T08:37:10.204Z</time></trkpt><trkpt lat="37.6823633" lon="15.1300133"><ele>379.0</ele><time>2026-04-26T08:37:11.204Z</time></trkpt><trkpt lat="37.6823" lon="15.129875"><ele>379.0</ele><time>2026-04-26T08:37:12.204Z</time></trkpt><trkpt lat="37.6822433" lon="15.1297383"><ele>379.75</ele><time>2026-04-26T08:37:13.204Z</time></trkpt><trkpt lat="37.6821917" lon="15.129595"><ele>380.5</ele><time>2026-04-26T08:37:14.204Z</time></trkpt><trkpt lat="37.6821533" lon="15.1294517"><ele>381.25</ele><time>2026-04-26T08:37:15.205Z</time></trkpt><trkpt lat="37.68211" lon="15.1293083"><ele>382.0</ele><time>2026-04-26T08:37:16.204Z</time></trkpt><trkpt lat="37.682075" lon="15.1291467"><ele>383.0</ele><time>2026-04-26T08:37:17.205Z</time></trkpt><trkpt lat="37.6820267" lon="15.129"><ele>384.0</ele><time>2026-04-26T08:37:18.205Z</time></trkpt><trkpt lat="37.6819817" lon="15.1288583"><ele>385.0</ele><time>2026-04-26T08:37:19.204Z</time></trkpt><trkpt lat="37.6819367" lon="15.1287017"><ele>386.0</ele><time>2026-04-26T08:37:20.204Z</time></trkpt><trkpt lat="37.681865" lon="15.1285517"><ele>386.0</ele><time>2026-04-26T08:37:21.204Z</time></trkpt><trkpt lat="37.6817833" lon="15.1284083"><ele>386.0</ele><time>2026-04-26T08:37:22.205Z</time></trkpt><trkpt lat="37.6816983" lon="15.1282783"><ele>386.0</ele><time>2026-04-26T08:37:23.203Z</time></trkpt><trkpt lat="37.68161" lon="15.1281483"><ele>386.0</ele><time>2026-04-26T08:37:24.203Z</time></trkpt><trkpt lat="37.6815117" lon="15.1280317"><ele>386.5</ele><time>2026-04-26T08:37:25.203Z</time></trkpt><trkpt lat="37.68142" lon="15.12791"><ele>387.0</ele><time>2026-04-26T08:37:26.203Z</time></trkpt><trkpt lat="37.68133" lon="15.12778"><ele>387.5</ele><time>2026-04-26T08:37:27.203Z</time></trkpt><trkpt lat="37.6812367" lon="15.1276533"><ele>388.0</ele><time>2026-04-26T08:37:28.203Z</time></trkpt><trkpt lat="37.68115" lon="15.1275217"><ele>387.5</ele><time>2026-04-26T08:37:29.203Z</time></trkpt><trkpt lat="37.6810733" lon="15.127405"><ele>387.0</ele><time>2026-04-26T08:37:30.203Z</time></trkpt><trkpt lat="37.6809933" lon="15.1272817"><ele>386.5</ele><time>2026-04-26T08:37:31.203Z</time></trkpt><trkpt lat="37.68089" lon="15.1271683"><ele>386.0</ele><time>2026-04-26T08:37:32.203Z</time></trkpt><trkpt lat="37.6807717" lon="15.1270533"><ele>386.0</ele><time>2026-04-26T08:37:33.203Z</time></trkpt><trkpt lat="37.6806467" lon="15.1269517"><ele>386.0</ele><time>2026-04-26T08:37:34.203Z</time></trkpt><trkpt lat="37.6805167" lon="15.126855"><ele>386.0</ele><time>2026-04-26T08:37:35.203Z</time></trkpt><trkpt lat="37.68038" lon="15.1267667"><ele>386.3333333333333</ele><time>2026-04-26T08:37:36.203Z</time></trkpt><trkpt lat="37.6802483" lon="15.126665"><ele>386.66666666666663</ele><time>2026-04-26T08:37:37.203Z</time></trkpt><trkpt lat="37.6801167" lon="15.12655"><ele>387.0</ele><time>2026-04-26T08:37:38.203Z</time></trkpt><trkpt lat="37.6800017" lon="15.1264267"><ele>387.0</ele><time>2026-04-26T08:37:39.203Z</time></trkpt><trkpt lat="37.6798867" lon="15.126285"><ele>387.0</ele><time>2026-04-26T08:37:40.203Z</time></trkpt><trkpt lat="37.6797783" lon="15.1261317"><ele>387.0</ele><time>2026-04-26T08:37:41.203Z</time></trkpt><trkpt lat="37.6796717" lon="15.1259667"><ele>387.0</ele><time>2026-04-26T08:37:42.203Z</time></trkpt><trkpt lat="37.6795667" lon="15.1258083"><ele>387.0</ele><time>2026-04-26T08:37:43.203Z</time></trkpt><trkpt lat="37.67946" lon="15.12564"><ele>387.0</ele><time>2026-04-26T08:37:44.204Z</time></trkpt><trkpt lat="37.6793583" lon="15.1254667"><ele>386.66666666666663</ele><time>2026-04-26T08:37:45.203Z</time></trkpt><trkpt lat="37.6792717" lon="15.1253"><ele>386.3333333333333</ele><time>2026-04-26T08:37:46.203Z</time></trkpt><trkpt lat="37.6791867" lon="15.1251367"><ele>386.0</ele><time>2026-04-26T08:37:47.203Z</time></trkpt><trkpt lat="37.6790983" lon="15.1249933"><ele>386.25</ele><time>2026-04-26T08:37:48.203Z</time></trkpt><trkpt lat="37.6790167" lon="15.1248633"><ele>386.5</ele><time>2026-04-26T08:37:49.203Z</time></trkpt><trkpt lat="37.6789033" lon="15.1247383"><ele>386.75</ele><time>2026-04-26T08:37:50.203Z</time></trkpt><trkpt lat="37.6787933" lon="15.1246333"><ele>387.0</ele><time>2026-04-26T08:37:51.203Z</time></trkpt><trkpt lat="37.6786733" lon="15.1245333"><ele>385.0</ele><time>2026-04-26T08:37:52.203Z</time></trkpt><trkpt lat="37.6785617" lon="15.1244383"><ele>383.0</ele><time>2026-04-26T08:37:53.203Z</time></trkpt><trkpt lat="37.678455" lon="15.124335"><ele>381.0</ele><time>2026-04-26T08:37:54.202Z</time></trkpt><trkpt lat="37.6783567" lon="15.12423"><ele>379.0</ele><time>2026-04-26T08:37:55.203Z</time></trkpt><trkpt lat="37.67827" lon="15.124115"><ele>380.0</ele><time>2026-04-26T08:37:56.203Z</time></trkpt><trkpt lat="37.6781967" lon="15.1239933"><ele>381.0</ele><time>2026-04-26T08:37:57.203Z</time></trkpt><trkpt lat="37.67816" lon="15.1238583"><ele>382.0</ele><time>2026-04-26T08:37:58.203Z</time></trkpt><trkpt lat="37.6781533" lon="15.1237117"><ele>383.0</ele><time>2026-04-26T08:37:59.203Z</time></trkpt><trkpt lat="37.67815" lon="15.12355"><ele>383.0</ele><time>2026-04-26T08:38:00.203Z</time></trkpt><trkpt lat="37.678135" lon="15.1233517"><ele>383.0</ele><time>2026-04-26T08:38:01.203Z</time></trkpt><trkpt lat="37.6781183" lon="15.12312"><ele>383.0</ele><time>2026-04-26T08:38:02.204Z</time></trkpt><trkpt lat="37.6781117" lon="15.12287"><ele>385.6666666666667</ele><time>2026-04-26T08:38:03.203Z</time></trkpt><trkpt lat="37.678115" lon="15.12263"><ele>388.33333333333337</ele><time>2026-04-26T08:38:04.203Z</time></trkpt><trkpt lat="37.678115" lon="15.1224083"><ele>391.0</ele><time>2026-04-26T08:38:05.203Z</time></trkpt><trkpt lat="37.6781" lon="15.122195"><ele>395.0</ele><time>2026-04-26T08:38:06.203Z</time></trkpt><trkpt lat="37.67806" lon="15.12198"><ele>399.0</ele><time>2026-04-26T08:38:07.203Z</time></trkpt><trkpt lat="37.6779933" lon="15.1217567"><ele>403.0</ele><time>2026-04-26T08:38:08.204Z</time></trkpt><trkpt lat="37.6779083" lon="15.1215317"><ele>402.6666666666667</ele><time>2026-04-26T08:38:09.203Z</time></trkpt><trkpt lat="37.677815" lon="15.1213033"><ele>402.33333333333337</ele><time>2026-04-26T08:38:10.203Z</time></trkpt><trkpt lat="37.67773" lon="15.1211083"><ele>402.0</ele><time>2026-04-26T08:38:11.203Z</time></trkpt><trkpt lat="37.6776217" lon="15.1209433"><ele>402.0</ele><time>2026-04-26T08:38:12.203Z</time></trkpt><trkpt lat="37.6774867" lon="15.1208017"><ele>402.0</ele><time>2026-04-26T08:38:13.203Z</time></trkpt><trkpt lat="37.6773283" lon="15.1206717"><ele>402.0</ele><time>2026-04-26T08:38:14.203Z</time></trkpt><trkpt lat="37.6771383" lon="15.1205583"><ele>403.0</ele><time>2026-04-26T08:38:15.203Z</time></trkpt><trkpt lat="37.676945" lon="15.1204383"><ele>404.0</ele><time>2026-04-26T08:38:16.203Z</time></trkpt><trkpt lat="37.6767583" lon="15.1203317"><ele>405.0</ele><time>2026-04-26T08:38:17.204Z</time></trkpt><trkpt lat="37.6765883" lon="15.12022"><ele>405.0</ele><time>2026-04-26T08:38:18.203Z</time></trkpt><trkpt lat="37.6764217" lon="15.1201017"><ele>405.0</ele><time>2026-04-26T08:38:19.203Z</time></trkpt><trkpt lat="37.6762617" lon="15.11997"><ele>405.0</ele><time>2026-04-26T08:38:20.204Z</time></trkpt><trkpt lat="37.676105" lon="15.1198133"><ele>406.0</ele><time>2026-04-26T08:38:21.203Z</time></trkpt><trkpt lat="37.6759517" lon="15.119665"><ele>407.0</ele><time>2026-04-26T08:38:22.203Z</time></trkpt><trkpt lat="37.6758033" lon="15.1195317"><ele>408.0</ele><time>2026-04-26T08:38:23.203Z</time></trkpt><trkpt lat="37.6756483" lon="15.1194267"><ele>408.0</ele><time>2026-04-26T08:38:24.203Z</time></trkpt><trkpt lat="37.6755017" lon="15.11933"><ele>408.0</ele><time>2026-04-26T08:38:25.203Z</time></trkpt><trkpt lat="37.6753683" lon="15.1192467"><ele>408.0</ele><time>2026-04-26T08:38:26.203Z</time></trkpt><trkpt lat="37.6752367" lon="15.1191583"><ele>408.0</ele><time>2026-04-26T08:38:27.203Z</time></trkpt><trkpt lat="37.6751083" lon="15.119065"><ele>408.0</ele><time>2026-04-26T08:38:28.203Z</time></trkpt><trkpt lat="37.6749783" lon="15.1189717"><ele>408.0</ele><time>2026-04-26T08:38:29.203Z</time></trkpt><trkpt lat="37.674865" lon="15.1188583"><ele>408.0</ele><time>2026-04-26T08:38:30.203Z</time></trkpt><trkpt lat="37.67476" lon="15.1187233"><ele>408.0</ele><time>2026-04-26T08:38:31.203Z</time></trkpt><trkpt lat="37.6746483" lon="15.1185983"><ele>408.0</ele><time>2026-04-26T08:38:32.203Z</time></trkpt><trkpt lat="37.674535" lon="15.118485"><ele>408.0</ele><time>2026-04-26T08:38:33.203Z</time></trkpt><trkpt lat="37.6744233" lon="15.118385"><ele>408.0</ele><time>2026-04-26T08:38:34.203Z</time></trkpt><trkpt lat="37.6743133" lon="15.1182867"><ele>407.5</ele><time>2026-04-26T08:38:35.203Z</time></trkpt><trkpt lat="37.6741983" lon="15.1181917"><ele>407.0</ele><time>2026-04-26T08:38:36.203Z</time></trkpt><trkpt lat="37.67409" lon="15.1180883"><ele>406.5</ele><time>2026-04-26T08:38:37.203Z</time></trkpt><trkpt lat="37.6739833" lon="15.1179967"><ele>406.0</ele><time>2026-04-26T08:38:38.203Z</time></trkpt><trkpt lat="37.6738817" lon="15.11791"><ele>406.0</ele><time>2026-04-26T08:38:39.203Z</time></trkpt><trkpt lat="37.6737783" lon="15.1178183"><ele>406.0</ele><time>2026-04-26T08:38:40.203Z</time></trkpt><trkpt lat="37.67366" lon="15.11772"><ele>406.0</ele><time>2026-04-26T08:38:41.203Z</time></trkpt><trkpt lat="37.673555" lon="15.1176267"><ele>406.0</ele><time>2026-04-26T08:38:42.203Z</time></trkpt><trkpt lat="37.6734533" lon="15.1175"><ele>406.0</ele><time>2026-04-26T08:38:43.203Z</time></trkpt><trkpt lat="37.67337" lon="15.1173583"><ele>406.0</ele><time>2026-04-26T08:38:44.203Z</time></trkpt><trkpt lat="37.6733083" lon="15.1172067"><ele>406.0</ele><time>2026-04-26T08:38:45.203Z</time></trkpt><trkpt lat="37.6732517" lon="15.11706"><ele>406.0</ele><time>2026-04-26T08:38:46.203Z</time></trkpt><trkpt lat="37.6731883" lon="15.116915"><ele>406.0</ele><time>2026-04-26T08:38:47.203Z</time></trkpt><trkpt lat="37.67313" lon="15.1167667"><ele>406.0</ele><time>2026-04-26T08:38:48.203Z</time></trkpt><trkpt lat="37.6730667" lon="15.1166167"><ele>406.0</ele><time>2026-04-26T08:38:49.203Z</time></trkpt><trkpt lat="37.6730133" lon="15.116475"><ele>406.0</ele><time>2026-04-26T08:38:50.203Z</time></trkpt><trkpt lat="37.6729567" lon="15.1163433"><ele>406.8</ele><time>2026-04-26T08:38:51.203Z</time></trkpt><trkpt lat="37.6729083" lon="15.1162033"><ele>407.6</ele><time>2026-04-26T08:38:52.203Z</time></trkpt><trkpt lat="37.6728583" lon="15.1160817"><ele>408.4</ele><time>2026-04-26T08:38:53.203Z</time></trkpt><trkpt lat="37.672805" lon="15.1159617"><ele>409.2</ele><time>2026-04-26T08:38:54.203Z</time></trkpt><trkpt lat="37.6727583" lon="15.1158617"><ele>410.0</ele><time>2026-04-26T08:38:55.203Z</time></trkpt><trkpt lat="37.6726817" lon="15.1157817"><ele>410.0</ele><time>2026-04-26T08:38:56.203Z</time></trkpt><trkpt lat="37.67259" lon="15.11575"><ele>410.0</ele><time>2026-04-26T08:38:57.203Z</time></trkpt><trkpt lat="37.6724933" lon="15.1157533"><ele>410.0</ele><time>2026-04-26T08:38:58.203Z</time></trkpt><trkpt lat="37.6724033" lon="15.1157567"><ele>410.0</ele><time>2026-04-26T08:38:59.203Z</time></trkpt><trkpt lat="37.6723167" lon="15.115715"><ele>410.0</ele><time>2026-04-26T08:39:00.203Z</time></trkpt><trkpt lat="37.6722517" lon="15.1156317"><ele>411.2</ele><time>2026-04-26T08:39:01.204Z</time></trkpt><trkpt lat="37.6721933" lon="15.1155183"><ele>412.4</ele><time>2026-04-26T08:39:02.204Z</time></trkpt><trkpt lat="37.672145" lon="15.1154"><ele>413.6</ele><time>2026-04-26T08:39:03.203Z</time></trkpt><trkpt lat="37.67209" lon="15.1152933"><ele>414.8</ele><time>2026-04-26T08:39:04.203Z</time></trkpt><trkpt lat="37.6720433" lon="15.1151883"><ele>416.0</ele><time>2026-04-26T08:39:05.204Z</time></trkpt><trkpt lat="37.6719917" lon="15.115085"><ele>416.8</ele><time>2026-04-26T08:39:06.203Z</time></trkpt><trkpt lat="37.6719283" lon="15.114975"><ele>417.6</ele><time>2026-04-26T08:39:07.203Z</time></trkpt><trkpt lat="37.6718633" lon="15.1148717"><ele>418.4</ele><time>2026-04-26T08:39:08.203Z</time></trkpt><trkpt lat="37.6717833" lon="15.1147867"><ele>419.2</ele><time>2026-04-26T08:39:09.204Z</time></trkpt><trkpt lat="37.6716933" lon="15.1146917"><ele>420.0</ele><time>2026-04-26T08:39:10.204Z</time></trkpt><trkpt lat="37.6715867" lon="15.1145883"><ele>421.0</ele><time>2026-04-26T08:39:11.204Z</time></trkpt><trkpt lat="37.6714833" lon="15.1144967"><ele>422.0</ele><time>2026-04-26T08:39:12.203Z</time></trkpt><trkpt lat="37.6713833" lon="15.114405"><ele>423.0</ele><time>2026-04-26T08:39:13.203Z</time></trkpt><trkpt lat="37.6712783" lon="15.1143183"><ele>424.0</ele><time>2026-04-26T08:39:14.203Z</time></trkpt><trkpt lat="37.6711633" lon="15.1142367"><ele>424.0</ele><time>2026-04-26T08:39:15.204Z</time></trkpt><trkpt lat="37.6710317" lon="15.1141633"><ele>424.0</ele><time>2026-04-26T08:39:16.203Z</time></trkpt><trkpt lat="37.67091" lon="15.114105"><ele>424.0</ele><time>2026-04-26T08:39:17.203Z</time></trkpt><trkpt lat="37.67078" lon="15.1140517"><ele>424.0</ele><time>2026-04-26T08:39:18.204Z</time></trkpt><trkpt lat="37.670635" lon="15.1140167"><ele>425.33333333333337</ele><time>2026-04-26T08:39:19.203Z</time></trkpt><trkpt lat="37.6704833" lon="15.113995"><ele>426.66666666666663</ele><time>2026-04-26T08:39:20.203Z</time></trkpt><trkpt lat="37.6703167" lon="15.113975"><ele>428.0</ele><time>2026-04-26T08:39:21.203Z</time></trkpt><trkpt lat="37.6701333" lon="15.11396"><ele>428.66666666666663</ele><time>2026-04-26T08:39:22.204Z</time></trkpt><trkpt lat="37.6699283" lon="15.1139467"><ele>429.33333333333337</ele><time>2026-04-26T08:39:23.203Z</time></trkpt><trkpt lat="37.66972" lon="15.1139383"><ele>430.0</ele><time>2026-04-26T08:39:24.203Z</time></trkpt><trkpt lat="37.6695117" lon="15.1139267"><ele>430.6666666666667</ele><time>2026-04-26T08:39:25.203Z</time></trkpt><trkpt lat="37.6693267" lon="15.1139117"><ele>431.33333333333337</ele><time>2026-04-26T08:39:26.203Z</time></trkpt><trkpt lat="37.6691567" lon="15.1138917"><ele>432.0</ele><time>2026-04-26T08:39:27.203Z</time></trkpt><trkpt lat="37.6689967" lon="15.1138583"><ele>432.0</ele><time>2026-04-26T08:39:28.203Z</time></trkpt><trkpt lat="37.668855" lon="15.1137883"><ele>432.0</ele><time>2026-04-26T08:39:29.203Z</time></trkpt><trkpt lat="37.6687183" lon="15.1136867"><ele>432.0</ele><time>2026-04-26T08:39:30.203Z</time></trkpt><trkpt lat="37.6685517" lon="15.1135667"><ele>433.0</ele><time>2026-04-26T08:39:31.203Z</time></trkpt><trkpt lat="37.66839" lon="15.11344"><ele>434.0</ele><time>2026-04-26T08:39:32.203Z</time></trkpt><trkpt lat="37.66823" lon="15.1133333"><ele>435.0</ele><time>2026-04-26T08:39:33.204Z</time></trkpt><trkpt lat="37.6680683" lon="15.1132183"><ele>436.33333333333337</ele><time>2026-04-26T08:39:34.204Z</time></trkpt><trkpt lat="37.6679367" lon="15.1131067"><ele>437.6666666666667</ele><time>2026-04-26T08:39:35.203Z</time></trkpt><trkpt lat="37.6678133" lon="15.11296"><ele>439.0</ele><time>2026-04-26T08:39:36.203Z</time></trkpt><trkpt lat="37.66769" lon="15.1127733"><ele>439.0</ele><time>2026-04-26T08:39:37.203Z</time></trkpt><trkpt lat="37.6675817" lon="15.11259"><ele>439.0</ele><time>2026-04-26T08:39:38.204Z</time></trkpt><trkpt lat="37.6674833" lon="15.112405"><ele>439.0</ele><time>2026-04-26T08:39:39.203Z</time></trkpt><trkpt lat="37.6673667" lon="15.1122167"><ele>441.0</ele><time>2026-04-26T08:39:40.203Z</time></trkpt><trkpt lat="37.66726" lon="15.1120483"><ele>443.0</ele><time>2026-04-26T08:39:41.203Z</time></trkpt><trkpt lat="37.66715" lon="15.111905"><ele>445.0</ele><time>2026-04-26T08:39:42.203Z</time></trkpt><trkpt lat="37.66702" lon="15.1117833"><ele>445.0</ele><time>2026-04-26T08:39:43.203Z</time></trkpt><trkpt lat="37.6668683" lon="15.11168"><ele>445.0</ele><time>2026-04-26T08:39:44.204Z</time></trkpt><trkpt lat="37.666715" lon="15.1115983"><ele>445.0</ele><time>2026-04-26T08:39:45.203Z</time></trkpt><trkpt lat="37.666555" lon="15.1115333"><ele>445.33333333333337</ele><time>2026-04-26T08:39:46.204Z</time></trkpt><trkpt lat="37.66638" lon="15.1114617"><ele>445.66666666666663</ele><time>2026-04-26T08:39:47.203Z</time></trkpt><trkpt lat="37.6661967" lon="15.1113767"><ele>446.0</ele><time>2026-04-26T08:39:48.203Z</time></trkpt><trkpt lat="37.66602" lon="15.1112917"><ele>447.3333333333333</ele><time>2026-04-26T08:39:49.203Z</time></trkpt><trkpt lat="37.6658383" lon="15.111205"><ele>448.66666666666663</ele><time>2026-04-26T08:39:50.203Z</time></trkpt><trkpt lat="37.6656517" lon="15.1111067"><ele>450.0</ele><time>2026-04-26T08:39:51.203Z</time></trkpt><trkpt lat="37.6654817" lon="15.1110133"><ele>450.0</ele><time>2026-04-26T08:39:52.203Z</time></trkpt><trkpt lat="37.66534" lon="15.1109333"><ele>450.0</ele><time>2026-04-26T08:39:53.204Z</time></trkpt><trkpt lat="37.6651917" lon="15.11086"><ele>450.0</ele><time>2026-04-26T08:39:54.203Z</time></trkpt><trkpt lat="37.665055" lon="15.110775"><ele>451.25</ele><time>2026-04-26T08:39:55.203Z</time></trkpt><trkpt lat="37.6649317" lon="15.1106867"><ele>452.5</ele><time>2026-04-26T08:39:56.204Z</time></trkpt><trkpt lat="37.6648017" lon="15.1105867"><ele>453.75</ele><time>2026-04-26T08:39:57.204Z</time></trkpt><trkpt lat="37.664695" lon="15.1104867"><ele>455.0</ele><time>2026-04-26T08:39:58.203Z</time></trkpt><trkpt lat="37.664605" lon="15.1104033"><ele>455.0</ele><time>2026-04-26T08:39:59.203Z</time></trkpt><trkpt lat="37.66451" lon="15.1103117"><ele>455.0</ele><time>2026-04-26T08:40:00.203Z</time></trkpt><trkpt lat="37.6644133" lon="15.1102217"><ele>455.0</ele><time>2026-04-26T08:40:01.203Z</time></trkpt><trkpt lat="37.6643217" lon="15.1101117"><ele>455.0</ele><time>2026-04-26T08:40:02.203Z</time></trkpt><trkpt lat="37.66424" lon="15.109995"><ele>455.5</ele><time>2026-04-26T08:40:03.203Z</time></trkpt><trkpt lat="37.6641633" lon="15.109865"><ele>456.0</ele><time>2026-04-26T08:40:04.203Z</time></trkpt><trkpt lat="37.6640867" lon="15.10973"><ele>456.5</ele><time>2026-04-26T08:40:05.203Z</time></trkpt><trkpt lat="37.6640133" lon="15.1095883"><ele>457.0</ele><time>2026-04-26T08:40:06.203Z</time></trkpt><trkpt lat="37.6639533" lon="15.10943"><ele>457.0</ele><time>2026-04-26T08:40:07.203Z</time></trkpt><trkpt lat="37.66389" lon="15.1092717"><ele>457.0</ele><time>2026-04-26T08:40:08.203Z</time></trkpt><trkpt lat="37.6638267" lon="15.1091067"><ele>457.0</ele><time>2026-04-26T08:40:09.203Z</time></trkpt><trkpt lat="37.6637667" lon="15.1089383"><ele>457.0</ele><time>2026-04-26T08:40:10.203Z</time></trkpt><trkpt lat="37.6637117" lon="15.1087717"><ele>458.5</ele><time>2026-04-26T08:40:11.203Z</time></trkpt><trkpt lat="37.663665" lon="15.1086167"><ele>460.0</ele><time>2026-04-26T08:40:12.203Z</time></trkpt><trkpt lat="37.6636183" lon="15.1084767"><ele>461.5</ele><time>2026-04-26T08:40:13.203Z</time></trkpt><trkpt lat="37.66357" lon="15.1083467"><ele>463.0</ele><time>2026-04-26T08:40:14.203Z</time></trkpt><trkpt lat="37.663515" lon="15.1082233"><ele>464.25</ele><time>2026-04-26T08:40:15.203Z</time></trkpt><trkpt lat="37.66347" lon="15.1081033"><ele>465.5</ele><time>2026-04-26T08:40:16.203Z</time></trkpt><trkpt lat="37.663435" lon="15.107985"><ele>466.75</ele><time>2026-04-26T08:40:17.203Z</time></trkpt><trkpt lat="37.6633733" lon="15.1078767"><ele>468.0</ele><time>2026-04-26T08:40:18.203Z</time></trkpt><trkpt lat="37.663265" lon="15.10776"><ele>468.0</ele><time>2026-04-26T08:40:19.203Z</time></trkpt><trkpt lat="37.6631483" lon="15.10763"><ele>468.0</ele><time>2026-04-26T08:40:20.204Z</time></trkpt><trkpt lat="37.663045" lon="15.10748"><ele>468.0</ele><time>2026-04-26T08:40:21.203Z</time></trkpt><trkpt lat="37.6629367" lon="15.107335"><ele>470.0</ele><time>2026-04-26T08:40:22.203Z</time></trkpt><trkpt lat="37.6628317" lon="15.10719"><ele>472.0</ele><time>2026-04-26T08:40:23.203Z</time></trkpt><trkpt lat="37.66274" lon="15.1070467"><ele>474.0</ele><time>2026-04-26T08:40:24.203Z</time></trkpt><trkpt lat="37.6626533" lon="15.10691"><ele>476.0</ele><time>2026-04-26T08:40:25.203Z</time></trkpt><trkpt lat="37.66258" lon="15.1067767"><ele>476.3333333333333</ele><time>2026-04-26T08:40:26.203Z</time></trkpt><trkpt lat="37.66254" lon="15.1066517"><ele>476.66666666666663</ele><time>2026-04-26T08:40:27.203Z</time></trkpt><trkpt lat="37.6625467" lon="15.1065417"><ele>477.0</ele><time>2026-04-26T08:40:28.203Z</time></trkpt><trkpt lat="37.6625967" lon="15.1064617"><ele>477.33333333333337</ele><time>2026-04-26T08:40:29.204Z</time></trkpt><trkpt lat="37.6626617" lon="15.1064067"><ele>477.6666666666667</ele><time>2026-04-26T08:40:30.203Z</time></trkpt><trkpt lat="37.6627517" lon="15.10638"><ele>478.0</ele><time>2026-04-26T08:40:31.204Z</time></trkpt><trkpt lat="37.662855" lon="15.1063783"><ele>478.33333333333337</ele><time>2026-04-26T08:40:32.203Z</time></trkpt><trkpt lat="37.6629467" lon="15.10636"><ele>478.6666666666667</ele><time>2026-04-26T08:40:33.204Z</time></trkpt><trkpt lat="37.6630033" lon="15.1063033"><ele>479.0</ele><time>2026-04-26T08:40:34.203Z</time></trkpt><trkpt lat="37.6630133" lon="15.1062167"><ele>479.33333333333337</ele><time>2026-04-26T08:40:35.203Z</time></trkpt><trkpt lat="37.6629833" lon="15.1061467"><ele>479.6666666666667</ele><time>2026-04-26T08:40:36.204Z</time></trkpt><trkpt lat="37.662925" lon="15.10609"><ele>480.0</ele><time>2026-04-26T08:40:37.203Z</time></trkpt><trkpt lat="37.66283" lon="15.10601"><ele>481.0</ele><time>2026-04-26T08:40:38.204Z</time></trkpt><trkpt lat="37.6627283" lon="15.1059117"><ele>482.0</ele><time>2026-04-26T08:40:39.204Z</time></trkpt><trkpt lat="37.6626283" lon="15.1058117"><ele>483.0</ele><time>2026-04-26T08:40:40.203Z</time></trkpt><trkpt lat="37.66251" lon="15.1056933"><ele>484.0</ele><time>2026-04-26T08:40:41.203Z</time></trkpt><trkpt lat="37.662375" lon="15.1055533"><ele>485.25</ele><time>2026-04-26T08:40:42.204Z</time></trkpt><trkpt lat="37.6622667" lon="15.105435"><ele>486.5</ele><time>2026-04-26T08:40:43.204Z</time></trkpt><trkpt lat="37.6621583" lon="15.105305"><ele>487.75</ele><time>2026-04-26T08:40:44.204Z</time></trkpt><trkpt lat="37.6620783" lon="15.1051517"><ele>489.0</ele><time>2026-04-26T08:40:45.203Z</time></trkpt><trkpt lat="37.662025" lon="15.104965"><ele>491.0</ele><time>2026-04-26T08:40:46.203Z</time></trkpt><trkpt lat="37.661995" lon="15.1047717"><ele>493.0</ele><time>2026-04-26T08:40:47.203Z</time></trkpt><trkpt lat="37.6619867" lon="15.1045683"><ele>495.0</ele><time>2026-04-26T08:40:48.203Z</time></trkpt><trkpt lat="37.661975" lon="15.1043817"><ele>495.0</ele><time>2026-04-26T08:40:49.203Z</time></trkpt><trkpt lat="37.6619517" lon="15.10421"><ele>495.0</ele><time>2026-04-26T08:40:50.203Z</time></trkpt><trkpt lat="37.6619267" lon="15.1040367"><ele>495.0</ele><time>2026-04-26T08:40:51.203Z</time></trkpt><trkpt lat="37.6618867" lon="15.1038733"><ele>495.0</ele><time>2026-04-26T08:40:52.204Z</time></trkpt><trkpt lat="37.66184" lon="15.103715"><ele>496.25</ele><time>2026-04-26T08:40:53.203Z</time></trkpt><trkpt lat="37.6617817" lon="15.10354"><ele>497.5</ele><time>2026-04-26T08:40:54.203Z</time></trkpt><trkpt lat="37.66171" lon="15.103375"><ele>498.75</ele><time>2026-04-26T08:40:55.204Z</time></trkpt><trkpt lat="37.6616583" lon="15.1032083"><ele>500.0</ele><time>2026-04-26T08:40:56.204Z</time></trkpt><trkpt lat="37.6616133" lon="15.1030633"><ele>501.0</ele><time>2026-04-26T08:40:57.203Z</time></trkpt><trkpt lat="37.6615783" lon="15.1029417"><ele>502.0</ele><time>2026-04-26T08:40:58.203Z</time></trkpt><trkpt lat="37.6615483" lon="15.1028033"><ele>503.0</ele><time>2026-04-26T08:40:59.203Z</time></trkpt><trkpt lat="37.6615117" lon="15.1026633"><ele>504.0</ele><time>2026-04-26T08:41:00.204Z</time></trkpt><trkpt lat="37.6614733" lon="15.10253"><ele>505.0</ele><time>2026-04-26T08:41:01.203Z</time></trkpt><trkpt lat="37.6614383" lon="15.1024017"><ele>506.6</ele><time>2026-04-26T08:41:02.203Z</time></trkpt><trkpt lat="37.6613983" lon="15.1022667"><ele>508.2</ele><time>2026-04-26T08:41:03.203Z</time></trkpt><trkpt lat="37.6613433" lon="15.1021417"><ele>509.79999999999995</ele><time>2026-04-26T08:41:04.203Z</time></trkpt><trkpt lat="37.6613" lon="15.10202"><ele>511.4</ele><time>2026-04-26T08:41:05.203Z</time></trkpt><trkpt lat="37.6612483" lon="15.10189"><ele>513.0</ele><time>2026-04-26T08:41:06.204Z</time></trkpt><trkpt lat="37.66119" lon="15.1017683"><ele>513.0</ele><time>2026-04-26T08:41:07.203Z</time></trkpt><trkpt lat="37.661135" lon="15.1016617"><ele>513.0</ele><time>2026-04-26T08:41:08.203Z</time></trkpt><trkpt lat="37.66107" lon="15.1015517"><ele>513.0</ele><time>2026-04-26T08:41:09.203Z</time></trkpt><trkpt lat="37.6610133" lon="15.1014467"><ele>513.0</ele><time>2026-04-26T08:41:10.203Z</time></trkpt><trkpt lat="37.6609567" lon="15.1013467"><ele>513.0</ele><time>2026-04-26T08:41:11.203Z</time></trkpt><trkpt lat="37.6608917" lon="15.1012367"><ele>512.0</ele><time>2026-04-26T08:41:12.203Z</time></trkpt><trkpt lat="37.660835" lon="15.101125"><ele>510.99999999999994</ele><time>2026-04-26T08:41:13.203Z</time></trkpt><trkpt lat="37.6607667" lon="15.10102"><ele>509.99999999999994</ele><time>2026-04-26T08:41:14.203Z</time></trkpt><trkpt lat="37.6607" lon="15.10091"><ele>509.0</ele><time>2026-04-26T08:41:15.203Z</time></trkpt><trkpt lat="37.6606417" lon="15.1008083"><ele>508.0</ele><time>2026-04-26T08:41:16.203Z</time></trkpt><trkpt lat="37.6605783" lon="15.1007067"><ele>508.0</ele><time>2026-04-26T08:41:17.203Z</time></trkpt><trkpt lat="37.6605217" lon="15.1006033"><ele>507.99999999999994</ele><time>2026-04-26T08:41:18.203Z</time></trkpt><trkpt lat="37.660465" lon="15.1005017"><ele>507.99999999999994</ele><time>2026-04-26T08:41:19.204Z</time></trkpt><trkpt lat="37.6604" lon="15.1004033"><ele>508.0</ele><time>2026-04-26T08:41:20.203Z</time></trkpt><trkpt lat="37.660345" lon="15.1003117"><ele>508.0</ele><time>2026-04-26T08:41:21.203Z</time></trkpt><trkpt lat="37.660285" lon="15.1002167"><ele>508.79999999999995</ele><time>2026-04-26T08:41:22.204Z</time></trkpt><trkpt lat="37.66022" lon="15.1001167"><ele>509.59999999999997</ele><time>2026-04-26T08:41:23.204Z</time></trkpt><trkpt lat="37.6601617" lon="15.1000167"><ele>510.40000000000003</ele><time>2026-04-26T08:41:24.203Z</time></trkpt><trkpt lat="37.66011" lon="15.09993"><ele>511.20000000000005</ele><time>2026-04-26T08:41:25.203Z</time></trkpt><trkpt lat="37.66006" lon="15.0998417"><ele>512.0</ele><time>2026-04-26T08:41:26.203Z</time></trkpt><trkpt lat="37.6600017" lon="15.099765"><ele>512.6666666666666</ele><time>2026-04-26T08:41:27.203Z</time></trkpt><trkpt lat="37.6599367" lon="15.0996633"><ele>513.3333333333333</ele><time>2026-04-26T08:41:29.204Z</time></trkpt><trkpt lat="37.6598983" lon="15.0995917"><ele>514.0</ele><time>2026-04-26T08:41:33.203Z</time></trkpt><trkpt lat="37.6598517" lon="15.0995333"><ele>514.6666666666666</ele><time>2026-04-26T08:41:37.203Z</time></trkpt><trkpt lat="37.6597567" lon="15.099565"><ele>515.3333333333334</ele><time>2026-04-26T08:41:39.203Z</time></trkpt><trkpt lat="37.65969" lon="15.0996067"><ele>516.0</ele><time>2026-04-26T08:41:40.203Z</time></trkpt><trkpt lat="37.6596233" lon="15.0996483"><ele>516.0</ele><time>2026-04-26T08:41:41.203Z</time></trkpt><trkpt lat="37.659535" lon="15.099685"><ele>516.0</ele><time>2026-04-26T08:41:42.203Z</time></trkpt><trkpt lat="37.6594217" lon="15.0997283"><ele>516.0</ele><time>2026-04-26T08:41:43.203Z</time></trkpt><trkpt lat="37.6592833" lon="15.0997733"><ele>516.0</ele><time>2026-04-26T08:41:44.203Z</time></trkpt><trkpt lat="37.6591167" lon="15.099825"><ele>516.6666666666666</ele><time>2026-04-26T08:41:45.203Z</time></trkpt><trkpt lat="37.65894" lon="15.0998767"><ele>517.3333333333333</ele><time>2026-04-26T08:41:46.204Z</time></trkpt><trkpt lat="37.6587483" lon="15.0999217"><ele>518.0</ele><time>2026-04-26T08:41:47.203Z</time></trkpt><trkpt lat="37.6585533" lon="15.09996"><ele>518.6666666666666</ele><time>2026-04-26T08:41:48.203Z</time></trkpt><trkpt lat="37.6583667" lon="15.1000067"><ele>519.3333333333334</ele><time>2026-04-26T08:41:49.203Z</time></trkpt><trkpt lat="37.65819" lon="15.100055"><ele>520.0</ele><time>2026-04-26T08:41:50.204Z</time></trkpt><trkpt lat="37.6580333" lon="15.10009"><ele>520.0</ele><time>2026-04-26T08:41:51.203Z</time></trkpt><trkpt lat="37.6578833" lon="15.1001267"><ele>520.0</ele><time>2026-04-26T08:41:52.204Z</time></trkpt><trkpt lat="37.65773" lon="15.1001583"><ele>520.0</ele><time>2026-04-26T08:41:53.203Z</time></trkpt><trkpt lat="37.6575833" lon="15.1001917"><ele>521.25</ele><time>2026-04-26T08:41:54.203Z</time></trkpt><trkpt lat="37.6574367" lon="15.1002267"><ele>522.5</ele><time>2026-04-26T08:41:55.203Z</time></trkpt><trkpt lat="37.6573017" lon="15.1002583"><ele>523.75</ele><time>2026-04-26T08:41:56.204Z</time></trkpt><trkpt lat="37.6571783" lon="15.1002883"><ele>525.0</ele><time>2026-04-26T08:41:57.203Z</time></trkpt><trkpt lat="37.6570517" lon="15.1003117"><ele>526.5</ele><time>2026-04-26T08:41:58.203Z</time></trkpt><trkpt lat="37.6569283" lon="15.1003383"><ele>528.0</ele><time>2026-04-26T08:41:59.203Z</time></trkpt><trkpt lat="37.6568033" lon="15.1003583"><ele>529.5</ele><time>2026-04-26T08:42:00.203Z</time></trkpt><trkpt lat="37.6566833" lon="15.1003867"><ele>531.0</ele><time>2026-04-26T08:42:01.203Z</time></trkpt><trkpt lat="37.6565617" lon="15.1004133"><ele>531.0</ele><time>2026-04-26T08:42:02.204Z</time></trkpt><trkpt lat="37.6564383" lon="15.1004467"><ele>531.0</ele><time>2026-04-26T08:42:03.203Z</time></trkpt><trkpt lat="37.656325" lon="15.1004733"><ele>531.0</ele><time>2026-04-26T08:42:04.203Z</time></trkpt><trkpt lat="37.65621" lon="15.1005"><ele>531.0</ele><time>2026-04-26T08:42:05.203Z</time></trkpt><trkpt lat="37.6560917" lon="15.10053"><ele>532.8</ele><time>2026-04-26T08:42:06.203Z</time></trkpt><trkpt lat="37.655985" lon="15.1005583"><ele>534.6</ele><time>2026-04-26T08:42:07.203Z</time></trkpt><trkpt lat="37.6558833" lon="15.10058"><ele>536.4</ele><time>2026-04-26T08:42:08.204Z</time></trkpt><trkpt lat="37.6557883" lon="15.1005967"><ele>538.2</ele><time>2026-04-26T08:42:09.203Z</time></trkpt><trkpt lat="37.6557017" lon="15.1006133"><ele>540.0</ele><time>2026-04-26T08:42:10.203Z</time></trkpt><trkpt lat="37.6556267" lon="15.1006317"><ele>540.0</ele><time>2026-04-26T08:42:11.203Z</time></trkpt><trkpt lat="37.6555583" lon="15.1006567"><ele>540.0</ele><time>2026-04-26T08:42:12.203Z</time></trkpt><trkpt lat="37.6554917" lon="15.1006717"><ele>540.0</ele><time>2026-04-26T08:42:13.203Z</time></trkpt><trkpt lat="37.65543" lon="15.1006883"><ele>540.0</ele><time>2026-04-26T08:42:14.203Z</time></trkpt><trkpt lat="37.655325" lon="15.1007117"><ele>540.0</ele><time>2026-04-26T08:42:16.203Z</time></trkpt><trkpt lat="37.655255" lon="15.10069"><ele>540.0</ele><time>2026-04-26T08:42:18.203Z</time></trkpt><trkpt lat="37.6552167" lon="15.100605"><ele>540.8333333333334</ele><time>2026-04-26T08:42:20.203Z</time></trkpt><trkpt lat="37.655215" lon="15.1004433"><ele>541.6666666666666</ele><time>2026-04-26T08:42:22.203Z</time></trkpt><trkpt lat="37.6552083" lon="15.1003417"><ele>542.5</ele><time>2026-04-26T08:42:23.203Z</time></trkpt><trkpt lat="37.6552033" lon="15.10024"><ele>543.3333333333333</ele><time>2026-04-26T08:42:24.204Z</time></trkpt><trkpt lat="37.65519" lon="15.1001367"><ele>544.1666666666666</ele><time>2026-04-26T08:42:25.203Z</time></trkpt><trkpt lat="37.6551783" lon="15.1000433"><ele>545.0</ele><time>2026-04-26T08:42:26.203Z</time></trkpt><trkpt lat="37.6551633" lon="15.09994"><ele>546.2</ele><time>2026-04-26T08:42:27.203Z</time></trkpt><trkpt lat="37.6551517" lon="15.0998133"><ele>547.4</ele><time>2026-04-26T08:42:28.203Z</time></trkpt><trkpt lat="37.6551433" lon="15.09969"><ele>548.6</ele><time>2026-04-26T08:42:29.203Z</time></trkpt><trkpt lat="37.6551333" lon="15.0995717"><ele>549.8</ele><time>2026-04-26T08:42:30.203Z</time></trkpt><trkpt lat="37.65513" lon="15.099455"><ele>551.0</ele><time>2026-04-26T08:42:31.204Z</time></trkpt><trkpt lat="37.6551183" lon="15.0993583"><ele>551.0</ele><time>2026-04-26T08:42:32.203Z</time></trkpt><trkpt lat="37.655065" lon="15.0992917"><ele>551.0</ele><time>2026-04-26T08:42:33.203Z</time></trkpt><trkpt lat="37.6549817" lon="15.09925"><ele>551.0</ele><time>2026-04-26T08:42:34.203Z</time></trkpt><trkpt lat="37.6549083" lon="15.09923"><ele>551.0</ele><time>2026-04-26T08:42:35.203Z</time></trkpt><trkpt lat="37.6547983" lon="15.09921"><ele>551.0</ele><time>2026-04-26T08:42:37.203Z</time></trkpt><trkpt lat="37.65472" lon="15.099185"><ele>551.0</ele><time>2026-04-26T08:42:39.203Z</time></trkpt><trkpt lat="37.654635" lon="15.0991533"><ele>551.0</ele><time>2026-04-26T08:42:41.203Z</time></trkpt><trkpt lat="37.6545533" lon="15.0991033"><ele>551.0</ele><time>2026-04-26T08:42:43.204Z</time></trkpt><trkpt lat="37.654545" lon="15.09895"><ele>551.0</ele><time>2026-04-26T08:42:45.203Z</time></trkpt><trkpt lat="37.6545633" lon="15.0988283"><ele>551.0</ele><time>2026-04-26T08:42:46.203Z</time></trkpt><trkpt lat="37.6545817" lon="15.0986917"><ele>551.0</ele><time>2026-04-26T08:42:47.203Z</time></trkpt><trkpt lat="37.6546017" lon="15.0985533"><ele>552.0</ele><time>2026-04-26T08:42:48.203Z</time></trkpt><trkpt lat="37.654635" lon="15.0983833"><ele>553.0</ele><time>2026-04-26T08:42:49.203Z</time></trkpt><trkpt lat="37.6546667" lon="15.0982533"><ele>554.0</ele><time>2026-04-26T08:42:50.203Z</time></trkpt><trkpt lat="37.6546883" lon="15.0981417"><ele>555.0</ele><time>2026-04-26T08:42:51.203Z</time></trkpt><trkpt lat="37.6547017" lon="15.098035"><ele>556.0</ele><time>2026-04-26T08:42:52.203Z</time></trkpt><trkpt lat="37.6547183" lon="15.0979517"><ele>556.6</ele><time>2026-04-26T08:42:53.203Z</time></trkpt><trkpt lat="37.65473" lon="15.0978117"><ele>557.2</ele><time>2026-04-26T08:42:55.203Z</time></trkpt><trkpt lat="37.6546917" lon="15.0977083"><ele>557.8</ele><time>2026-04-26T08:42:59.203Z</time></trkpt><trkpt lat="37.6546033" lon="15.097585"><ele>558.4</ele><time>2026-04-26T08:43:01.203Z</time></trkpt><trkpt lat="37.6545433" lon="15.0974983"><ele>559.0</ele><time>2026-04-26T08:43:02.203Z</time></trkpt><trkpt lat="37.6544733" lon="15.0973867"><ele>557.25</ele><time>2026-04-26T08:43:03.203Z</time></trkpt><trkpt lat="37.6543867" lon="15.0972667"><ele>555.5</ele><time>2026-04-26T08:43:04.203Z</time></trkpt><trkpt lat="37.654295" lon="15.097145"><ele>553.75</ele><time>2026-04-26T08:43:05.203Z</time></trkpt><trkpt lat="37.65421" lon="15.0970283"><ele>552.0</ele><time>2026-04-26T08:43:06.203Z</time></trkpt><trkpt lat="37.6541167" lon="15.096925"><ele>552.0</ele><time>2026-04-26T08:43:07.203Z</time></trkpt><trkpt lat="37.654015" lon="15.0968367"><ele>552.0</ele><time>2026-04-26T08:43:08.204Z</time></trkpt><trkpt lat="37.65391" lon="15.09675"><ele>552.0</ele><time>2026-04-26T08:43:09.203Z</time></trkpt><trkpt lat="37.6538267" lon="15.0966717"><ele>552.0</ele><time>2026-04-26T08:43:10.203Z</time></trkpt><trkpt lat="37.6537567" lon="15.0965933"><ele>552.0</ele><time>2026-04-26T08:43:11.203Z</time></trkpt><trkpt lat="37.6536883" lon="15.096515"><ele>551.8000000000001</ele><time>2026-04-26T08:43:12.203Z</time></trkpt><trkpt lat="37.6536133" lon="15.09645"><ele>551.6</ele><time>2026-04-26T08:43:13.203Z</time></trkpt><trkpt lat="37.6535367" lon="15.0963833"><ele>551.4000000000001</ele><time>2026-04-26T08:43:14.203Z</time></trkpt><trkpt lat="37.6534633" lon="15.0963233"><ele>551.2</ele><time>2026-04-26T08:43:15.203Z</time></trkpt><trkpt lat="37.6533967" lon="15.0962583"><ele>551.0</ele><time>2026-04-26T08:43:16.203Z</time></trkpt><trkpt lat="37.6533133" lon="15.0961983"><ele>551.0</ele><time>2026-04-26T08:43:17.203Z</time></trkpt><trkpt lat="37.6532417" lon="15.0961383"><ele>551.0</ele><time>2026-04-26T08:43:18.203Z</time></trkpt><trkpt lat="37.6531733" lon="15.0960817"><ele>551.0</ele><time>2026-04-26T08:43:19.204Z</time></trkpt><trkpt lat="37.6531033" lon="15.0960217"><ele>551.0</ele><time>2026-04-26T08:43:20.203Z</time></trkpt><trkpt lat="37.653035" lon="15.0959633"><ele>551.0</ele><time>2026-04-26T08:43:21.204Z</time></trkpt><trkpt lat="37.652965" lon="15.095895"><ele>551.0</ele><time>2026-04-26T08:43:22.203Z</time></trkpt><trkpt lat="37.65289" lon="15.09583"><ele>551.0</ele><time>2026-04-26T08:43:23.204Z</time></trkpt><trkpt lat="37.65282" lon="15.0957617"><ele>551.0</ele><time>2026-04-26T08:43:24.204Z</time></trkpt><trkpt lat="37.6527417" lon="15.095705"><ele>551.0</ele><time>2026-04-26T08:43:25.203Z</time></trkpt><trkpt lat="37.6526617" lon="15.095645"><ele>551.0</ele><time>2026-04-26T08:43:26.203Z</time></trkpt><trkpt lat="37.6525817" lon="15.0955767"><ele>551.0</ele><time>2026-04-26T08:43:27.203Z</time></trkpt><trkpt lat="37.6525033" lon="15.095505"><ele>551.8</ele><time>2026-04-26T08:43:28.203Z</time></trkpt><trkpt lat="37.65243" lon="15.0954267"><ele>552.6</ele><time>2026-04-26T08:43:29.203Z</time></trkpt><trkpt lat="37.65236" lon="15.0953383"><ele>553.4</ele><time>2026-04-26T08:43:30.203Z</time></trkpt><trkpt lat="37.6522867" lon="15.0952417"><ele>554.2</ele><time>2026-04-26T08:43:31.203Z</time></trkpt><trkpt lat="37.6522217" lon="15.0951517"><ele>555.0</ele><time>2026-04-26T08:43:32.203Z</time></trkpt><trkpt lat="37.6521583" lon="15.0950667"><ele>555.0</ele><time>2026-04-26T08:43:33.203Z</time></trkpt><trkpt lat="37.6520933" lon="15.0949817"><ele>555.0</ele><time>2026-04-26T08:43:34.203Z</time></trkpt><trkpt lat="37.6520217" lon="15.0949017"><ele>555.0</ele><time>2026-04-26T08:43:35.203Z</time></trkpt><trkpt lat="37.651955" lon="15.0948283"><ele>555.0</ele><time>2026-04-26T08:43:36.203Z</time></trkpt><trkpt lat="37.6518833" lon="15.0947667"><ele>555.0</ele><time>2026-04-26T08:43:37.204Z</time></trkpt><trkpt lat="37.6518017" lon="15.09471"><ele>554.8</ele><time>2026-04-26T08:43:38.203Z</time></trkpt><trkpt lat="37.6517133" lon="15.0946533"><ele>554.6</ele><time>2026-04-26T08:43:39.203Z</time></trkpt><trkpt lat="37.651625" lon="15.0946083"><ele>554.4</ele><time>2026-04-26T08:43:40.203Z</time></trkpt><trkpt lat="37.6515383" lon="15.0945633"><ele>554.2</ele><time>2026-04-26T08:43:41.204Z</time></trkpt><trkpt lat="37.6514583" lon="15.09453"><ele>554.0</ele><time>2026-04-26T08:43:42.203Z</time></trkpt><trkpt lat="37.6513717" lon="15.0944983"><ele>554.0</ele><time>2026-04-26T08:43:43.203Z</time></trkpt><trkpt lat="37.651285" lon="15.09446"><ele>554.0</ele><time>2026-04-26T08:43:44.204Z</time></trkpt><trkpt lat="37.651195" lon="15.0944167"><ele>554.0</ele><time>2026-04-26T08:43:45.203Z</time></trkpt><trkpt lat="37.65111" lon="15.0943583"><ele>554.0</ele><time>2026-04-26T08:43:46.204Z</time></trkpt><trkpt lat="37.6510267" lon="15.0943033"><ele>554.0</ele><time>2026-04-26T08:43:47.203Z</time></trkpt><trkpt lat="37.6509417" lon="15.0942367"><ele>553.8</ele><time>2026-04-26T08:43:48.204Z</time></trkpt><trkpt lat="37.650865" lon="15.094155"><ele>553.5999999999999</ele><time>2026-04-26T08:43:49.203Z</time></trkpt><trkpt lat="37.6507933" lon="15.0940617"><ele>553.4</ele><time>2026-04-26T08:43:50.203Z</time></trkpt><trkpt lat="37.6507117" lon="15.0939683"><ele>553.1999999999999</ele><time>2026-04-26T08:43:51.203Z</time></trkpt><trkpt lat="37.6506317" lon="15.0938633"><ele>553.0</ele><time>2026-04-26T08:43:52.203Z</time></trkpt><trkpt lat="37.65056" lon="15.0937467"><ele>552.75</ele><time>2026-04-26T08:43:53.203Z</time></trkpt><trkpt lat="37.6504867" lon="15.0936267"><ele>552.5</ele><time>2026-04-26T08:43:54.203Z</time></trkpt><trkpt lat="37.6504183" lon="15.093495"><ele>552.25</ele><time>2026-04-26T08:43:55.203Z</time></trkpt><trkpt lat="37.6503433" lon="15.093385"><ele>552.0</ele><time>2026-04-26T08:43:56.203Z</time></trkpt><trkpt lat="37.65025" lon="15.0932867"><ele>550.75</ele><time>2026-04-26T08:43:57.204Z</time></trkpt><trkpt lat="37.6501467" lon="15.0932067"><ele>549.5</ele><time>2026-04-26T08:43:58.203Z</time></trkpt><trkpt lat="37.6500283" lon="15.0931433"><ele>548.25</ele><time>2026-04-26T08:43:59.203Z</time></trkpt><trkpt lat="37.649905" lon="15.0931"><ele>547.0</ele><time>2026-04-26T08:44:00.203Z</time></trkpt><trkpt lat="37.64977" lon="15.0930683"><ele>547.0</ele><time>2026-04-26T08:44:01.203Z</time></trkpt><trkpt lat="37.6496383" lon="15.0930383"><ele>547.0</ele><time>2026-04-26T08:44:02.203Z</time></trkpt><trkpt lat="37.64951" lon="15.093005"><ele>547.0</ele><time>2026-04-26T08:44:03.203Z</time></trkpt><trkpt lat="37.6493783" lon="15.0929667"><ele>547.0</ele><time>2026-04-26T08:44:04.203Z</time></trkpt><trkpt lat="37.64925" lon="15.0929333"><ele>546.0</ele><time>2026-04-26T08:44:05.203Z</time></trkpt><trkpt lat="37.649115" lon="15.0928933"><ele>545.0</ele><time>2026-04-26T08:44:06.203Z</time></trkpt><trkpt lat="37.6489817" lon="15.0928383"><ele>544.0</ele><time>2026-04-26T08:44:07.203Z</time></trkpt><trkpt lat="37.6488433" lon="15.0927983"><ele>543.0</ele><time>2026-04-26T08:44:08.204Z</time></trkpt><trkpt lat="37.6486967" lon="15.0927617"><ele>540.3333333333334</ele><time>2026-04-26T08:44:09.203Z</time></trkpt><trkpt lat="37.6485383" lon="15.0927333"><ele>537.6666666666667</ele><time>2026-04-26T08:44:10.203Z</time></trkpt><trkpt lat="37.6483817" lon="15.09271"><ele>535.0</ele><time>2026-04-26T08:44:11.203Z</time></trkpt><trkpt lat="37.6482283" lon="15.0926983"><ele>535.0</ele><time>2026-04-26T08:44:12.203Z</time></trkpt><trkpt lat="37.648075" lon="15.0926833"><ele>535.0</ele><time>2026-04-26T08:44:13.203Z</time></trkpt><trkpt lat="37.647935" lon="15.092675"><ele>535.0</ele><time>2026-04-26T08:44:14.203Z</time></trkpt><trkpt lat="37.6477933" lon="15.0926633"><ele>535.0</ele><time>2026-04-26T08:44:15.203Z</time></trkpt><trkpt lat="37.64765" lon="15.0926567"><ele>534.0</ele><time>2026-04-26T08:44:16.203Z</time></trkpt><trkpt lat="37.6475083" lon="15.0926383"><ele>533.0</ele><time>2026-04-26T08:44:17.203Z</time></trkpt><trkpt lat="37.6473683" lon="15.0926233"><ele>532.0</ele><time>2026-04-26T08:44:18.203Z</time></trkpt><trkpt lat="37.6472267" lon="15.0926017"><ele>531.0</ele><time>2026-04-26T08:44:19.203Z</time></trkpt><trkpt lat="37.6470733" lon="15.0925767"><ele>530.0</ele><time>2026-04-26T08:44:20.203Z</time></trkpt><trkpt lat="37.6469267" lon="15.092555"><ele>529.0</ele><time>2026-04-26T08:44:21.203Z</time></trkpt><trkpt lat="37.6467767" lon="15.0925267"><ele>528.0</ele><time>2026-04-26T08:44:22.203Z</time></trkpt><trkpt lat="37.6466317" lon="15.0925033"><ele>527.0</ele><time>2026-04-26T08:44:23.203Z</time></trkpt><trkpt lat="37.6464933" lon="15.09249"><ele>527.0</ele><time>2026-04-26T08:44:24.203Z</time></trkpt><trkpt lat="37.64636" lon="15.0924517"><ele>527.0</ele><time>2026-04-26T08:44:25.203Z</time></trkpt><trkpt lat="37.6462283" lon="15.092385"><ele>527.0</ele><time>2026-04-26T08:44:26.203Z</time></trkpt><trkpt lat="37.646105" lon="15.0923017"><ele>527.0</ele><time>2026-04-26T08:44:27.203Z</time></trkpt><trkpt lat="37.645985" lon="15.092225"><ele>526.25</ele><time>2026-04-26T08:44:28.204Z</time></trkpt><trkpt lat="37.6458633" lon="15.0921567"><ele>525.5</ele><time>2026-04-26T08:44:29.204Z</time></trkpt><trkpt lat="37.6457367" lon="15.0921167"><ele>524.75</ele><time>2026-04-26T08:44:30.203Z</time></trkpt><trkpt lat="37.6456017" lon="15.0920933"><ele>524.0</ele><time>2026-04-26T08:44:31.204Z</time></trkpt><trkpt lat="37.6454717" lon="15.0920767"><ele>524.0</ele><time>2026-04-26T08:44:32.203Z</time></trkpt><trkpt lat="37.6453483" lon="15.0920767"><ele>524.0</ele><time>2026-04-26T08:44:33.204Z</time></trkpt><trkpt lat="37.645225" lon="15.0920933"><ele>524.0</ele><time>2026-04-26T08:44:34.203Z</time></trkpt><trkpt lat="37.645105" lon="15.092125"><ele>524.0</ele><time>2026-04-26T08:44:35.203Z</time></trkpt><trkpt lat="37.6449833" lon="15.092175"><ele>523.25</ele><time>2026-04-26T08:44:36.203Z</time></trkpt><trkpt lat="37.6448567" lon="15.092225"><ele>522.5</ele><time>2026-04-26T08:44:37.203Z</time></trkpt><trkpt lat="37.6447383" lon="15.0922817"><ele>521.75</ele><time>2026-04-26T08:44:38.203Z</time></trkpt><trkpt lat="37.6446283" lon="15.092365"><ele>521.0</ele><time>2026-04-26T08:44:39.203Z</time></trkpt><trkpt lat="37.6445167" lon="15.0924433"><ele>519.75</ele><time>2026-04-26T08:44:40.203Z</time></trkpt><trkpt lat="37.6444083" lon="15.0925267"><ele>518.5</ele><time>2026-04-26T08:44:41.203Z</time></trkpt><trkpt lat="37.6443017" lon="15.0926117"><ele>517.25</ele><time>2026-04-26T08:44:42.203Z</time></trkpt><trkpt lat="37.6442067" lon="15.0927"><ele>516.0</ele><time>2026-04-26T08:44:43.203Z</time></trkpt><trkpt lat="37.6441067" lon="15.0927733"><ele>516.0</ele><time>2026-04-26T08:44:44.204Z</time></trkpt><trkpt lat="37.644025" lon="15.092845"><ele>516.0</ele><time>2026-04-26T08:44:45.203Z</time></trkpt><trkpt lat="37.6439483" lon="15.0928983"><ele>516.0</ele><time>2026-04-26T08:44:46.203Z</time></trkpt><trkpt lat="37.643885" lon="15.092935"><ele>516.0</ele><time>2026-04-26T08:44:47.204Z</time></trkpt><trkpt lat="37.64378" lon="15.0929533"><ele>516.0</ele><time>2026-04-26T08:44:49.203Z</time></trkpt><trkpt lat="37.643655" lon="15.0928433"><ele>515.6</ele><time>2026-04-26T08:44:51.203Z</time></trkpt><trkpt lat="37.6435717" lon="15.0927683"><ele>515.2</ele><time>2026-04-26T08:44:52.203Z</time></trkpt><trkpt lat="37.6434817" lon="15.0926967"><ele>514.8</ele><time>2026-04-26T08:44:53.203Z</time></trkpt><trkpt lat="37.6433867" lon="15.0926217"><ele>514.4</ele><time>2026-04-26T08:44:54.203Z</time></trkpt><trkpt lat="37.643285" lon="15.0925433"><ele>514.0</ele><time>2026-04-26T08:44:55.203Z</time></trkpt><trkpt lat="37.6431767" lon="15.09246"><ele>513.5</ele><time>2026-04-26T08:44:56.203Z</time></trkpt><trkpt lat="37.6430733" lon="15.0923867"><ele>513.0</ele><time>2026-04-26T08:44:57.203Z</time></trkpt><trkpt lat="37.6429617" lon="15.0923017"><ele>512.5</ele><time>2026-04-26T08:44:58.203Z</time></trkpt><trkpt lat="37.642855" lon="15.0922183"><ele>512.0</ele><time>2026-04-26T08:44:59.204Z</time></trkpt><trkpt lat="37.64274" lon="15.0921433"><ele>512.0</ele><time>2026-04-26T08:45:00.203Z</time></trkpt><trkpt lat="37.6426367" lon="15.0920667"><ele>512.0</ele><time>2026-04-26T08:45:01.203Z</time></trkpt><trkpt lat="37.642545" lon="15.0919867"><ele>512.0</ele><time>2026-04-26T08:45:02.203Z</time></trkpt><trkpt lat="37.6424517" lon="15.091915"><ele>512.0</ele><time>2026-04-26T08:45:03.204Z</time></trkpt><trkpt lat="37.6423533" lon="15.0918467"><ele>512.0</ele><time>2026-04-26T08:45:04.204Z</time></trkpt><trkpt lat="37.6422583" lon="15.0917783"><ele>512.0</ele><time>2026-04-26T08:45:05.203Z</time></trkpt><trkpt lat="37.64216" lon="15.091705"><ele>512.0</ele><time>2026-04-26T08:45:06.203Z</time></trkpt><trkpt lat="37.64206" lon="15.0916383"><ele>512.0</ele><time>2026-04-26T08:45:07.203Z</time></trkpt><trkpt lat="37.6419583" lon="15.0915583"><ele>511.75</ele><time>2026-04-26T08:45:08.203Z</time></trkpt><trkpt lat="37.641845" lon="15.09148"><ele>511.5</ele><time>2026-04-26T08:45:09.204Z</time></trkpt><trkpt lat="37.641735" lon="15.0914"><ele>511.25</ele><time>2026-04-26T08:45:10.204Z</time></trkpt><trkpt lat="37.6416183" lon="15.0913183"><ele>511.0</ele><time>2026-04-26T08:45:11.203Z</time></trkpt><trkpt lat="37.6415" lon="15.0912317"><ele>511.0</ele><time>2026-04-26T08:45:12.203Z</time></trkpt><trkpt lat="37.6413783" lon="15.0911417"><ele>511.0</ele><time>2026-04-26T08:45:13.203Z</time></trkpt><trkpt lat="37.64126" lon="15.0910433"><ele>511.0</ele><time>2026-04-26T08:45:14.203Z</time></trkpt><trkpt lat="37.64112" lon="15.09095"><ele>511.0</ele><time>2026-04-26T08:45:15.203Z</time></trkpt><trkpt lat="37.640985" lon="15.0908467"><ele>513.3333333333334</ele><time>2026-04-26T08:45:16.203Z</time></trkpt><trkpt lat="37.64085" lon="15.0907467"><ele>515.6666666666666</ele><time>2026-04-26T08:45:17.203Z</time></trkpt><trkpt lat="37.6407217" lon="15.0906417"><ele>518.0</ele><time>2026-04-26T08:45:18.203Z</time></trkpt><trkpt lat="37.6406033" lon="15.090545"><ele>518.0</ele><time>2026-04-26T08:45:19.203Z</time></trkpt><trkpt lat="37.640485" lon="15.0904617"><ele>518.0</ele><time>2026-04-26T08:45:20.203Z</time></trkpt><trkpt lat="37.64037" lon="15.0903767"><ele>518.0</ele><time>2026-04-26T08:45:21.203Z</time></trkpt><trkpt lat="37.6402583" lon="15.0902933"><ele>518.0</ele><time>2026-04-26T08:45:22.203Z</time></trkpt><trkpt lat="37.640145" lon="15.0902117"><ele>517.5</ele><time>2026-04-26T08:45:23.203Z</time></trkpt><trkpt lat="37.640035" lon="15.09013"><ele>517.0</ele><time>2026-04-26T08:45:24.203Z</time></trkpt><trkpt lat="37.63992" lon="15.09005"><ele>516.5</ele><time>2026-04-26T08:45:25.203Z</time></trkpt><trkpt lat="37.6398033" lon="15.089965"><ele>516.0</ele><time>2026-04-26T08:45:26.204Z</time></trkpt><trkpt lat="37.639695" lon="15.0898983"><ele>517.5</ele><time>2026-04-26T08:45:27.203Z</time></trkpt><trkpt lat="37.639595" lon="15.0898267"><ele>519.0</ele><time>2026-04-26T08:45:28.204Z</time></trkpt><trkpt lat="37.6394917" lon="15.0897333"><ele>520.5</ele><time>2026-04-26T08:45:29.203Z</time></trkpt><trkpt lat="37.6393833" lon="15.0896533"><ele>522.0</ele><time>2026-04-26T08:45:30.203Z</time></trkpt><trkpt lat="37.6392717" lon="15.0895733"><ele>522.0</ele><time>2026-04-26T08:45:31.203Z</time></trkpt><trkpt lat="37.6391567" lon="15.0894783"><ele>522.0</ele><time>2026-04-26T08:45:32.203Z</time></trkpt><trkpt lat="37.6390467" lon="15.0893917"><ele>522.0</ele><time>2026-04-26T08:45:33.204Z</time></trkpt><trkpt lat="37.638935" lon="15.089295"><ele>522.0</ele><time>2026-04-26T08:45:34.203Z</time></trkpt><trkpt lat="37.63882" lon="15.0891767"><ele>522.6666666666666</ele><time>2026-04-26T08:45:35.203Z</time></trkpt><trkpt lat="37.6386967" lon="15.0890617"><ele>523.3333333333333</ele><time>2026-04-26T08:45:36.203Z</time></trkpt><trkpt lat="37.6385717" lon="15.08894"><ele>524.0</ele><time>2026-04-26T08:45:37.203Z</time></trkpt><trkpt lat="37.6384367" lon="15.0888033"><ele>524.0</ele><time>2026-04-26T08:45:38.203Z</time></trkpt><trkpt lat="37.638285" lon="15.0886567"><ele>524.0</ele><time>2026-04-26T08:45:39.203Z</time></trkpt><trkpt lat="37.63814" lon="15.0884983"><ele>524.0</ele><time>2026-04-26T08:45:40.203Z</time></trkpt><trkpt lat="37.63799" lon="15.08833"><ele>524.6666666666666</ele><time>2026-04-26T08:45:41.203Z</time></trkpt><trkpt lat="37.6378333" lon="15.08815"><ele>525.3333333333334</ele><time>2026-04-26T08:45:42.203Z</time></trkpt><trkpt lat="37.637675" lon="15.0879733"><ele>526.0</ele><time>2026-04-26T08:45:43.203Z</time></trkpt><trkpt lat="37.6375267" lon="15.0878083"><ele>526.0</ele><time>2026-04-26T08:45:44.203Z</time></trkpt><trkpt lat="37.637375" lon="15.0876483"><ele>526.0</ele><time>2026-04-26T08:45:45.203Z</time></trkpt><trkpt lat="37.6372333" lon="15.0874917"><ele>526.0</ele><time>2026-04-26T08:45:46.203Z</time></trkpt><trkpt lat="37.6370767" lon="15.0873583"><ele>526.3333333333334</ele><time>2026-04-26T08:45:47.204Z</time></trkpt><trkpt lat="37.63691" lon="15.087235"><ele>526.6666666666666</ele><time>2026-04-26T08:45:48.204Z</time></trkpt><trkpt lat="37.636755" lon="15.0871067"><ele>527.0</ele><time>2026-04-26T08:45:49.203Z</time></trkpt><trkpt lat="37.6365917" lon="15.0869767"><ele>527.0</ele><time>2026-04-26T08:45:50.204Z</time></trkpt><trkpt lat="37.6364367" lon="15.086855"><ele>527.0</ele><time>2026-04-26T08:45:51.203Z</time></trkpt><trkpt lat="37.6362817" lon="15.0867333"><ele>527.0</ele><time>2026-04-26T08:45:52.203Z</time></trkpt><trkpt lat="37.6361217" lon="15.0866"><ele>532.0</ele><time>2026-04-26T08:45:53.203Z</time></trkpt><trkpt lat="37.635965" lon="15.086465"><ele>537.0</ele><time>2026-04-26T08:45:54.202Z</time></trkpt><trkpt lat="37.63579" lon="15.0863233"><ele>542.0</ele><time>2026-04-26T08:45:55.203Z</time></trkpt><trkpt lat="37.6356283" lon="15.0861933"><ele>542.0</ele><time>2026-04-26T08:45:56.202Z</time></trkpt><trkpt lat="37.63547" lon="15.086065"><ele>542.0</ele><time>2026-04-26T08:45:57.202Z</time></trkpt><trkpt lat="37.6353067" lon="15.0859383"><ele>542.0</ele><time>2026-04-26T08:45:58.202Z</time></trkpt><trkpt lat="37.6351767" lon="15.0858217"><ele>546.3333333333333</ele><time>2026-04-26T08:45:59.202Z</time></trkpt><trkpt lat="37.6350283" lon="15.0857217"><ele>550.6666666666666</ele><time>2026-04-26T08:46:00.202Z</time></trkpt><trkpt lat="37.6348617" lon="15.0856367"><ele>555.0</ele><time>2026-04-26T08:46:01.202Z</time></trkpt><trkpt lat="37.6346917" lon="15.0855683"><ele>555.0</ele><time>2026-04-26T08:46:02.202Z</time></trkpt><trkpt lat="37.634515" lon="15.08552"><ele>555.0</ele><time>2026-04-26T08:46:03.202Z</time></trkpt><trkpt lat="37.634335" lon="15.085475"><ele>555.0</ele><time>2026-04-26T08:46:04.202Z</time></trkpt><trkpt lat="37.63416" lon="15.0854383"><ele>555.6666666666666</ele><time>2026-04-26T08:46:05.202Z</time></trkpt><trkpt lat="37.6339833" lon="15.0854217"><ele>556.3333333333333</ele><time>2026-04-26T08:46:06.202Z</time></trkpt><trkpt lat="37.6338183" lon="15.08541"><ele>557.0</ele><time>2026-04-26T08:46:07.202Z</time></trkpt><trkpt lat="37.6336733" lon="15.08541"><ele>556.25</ele><time>2026-04-26T08:46:08.202Z</time></trkpt><trkpt lat="37.63354" lon="15.0854117"><ele>555.5</ele><time>2026-04-26T08:46:09.203Z</time></trkpt><trkpt lat="37.6334167" lon="15.085415"><ele>554.75</ele><time>2026-04-26T08:46:10.202Z</time></trkpt><trkpt lat="37.63331" lon="15.0854133"><ele>554.0</ele><time>2026-04-26T08:46:11.203Z</time></trkpt><trkpt lat="37.6332183" lon="15.0854117"><ele>554.0</ele><time>2026-04-26T08:46:12.202Z</time></trkpt><trkpt lat="37.633155" lon="15.0854117"><ele>554.0</ele><time>2026-04-26T08:46:13.202Z</time></trkpt><trkpt lat="37.63304" lon="15.08541"><ele>554.0</ele><time>2026-04-26T08:46:15.203Z</time></trkpt><trkpt lat="37.63294" lon="15.0853917"><ele>554.0</ele><time>2026-04-26T08:46:17.202Z</time></trkpt><trkpt lat="37.6328417" lon="15.08534"><ele>554.0</ele><time>2026-04-26T08:46:19.202Z</time></trkpt><trkpt lat="37.632755" lon="15.0852883"><ele>553.25</ele><time>2026-04-26T08:46:21.203Z</time></trkpt><trkpt lat="37.6326467" lon="15.0852267"><ele>552.5</ele><time>2026-04-26T08:46:23.202Z</time></trkpt><trkpt lat="37.6325633" lon="15.0851683"><ele>551.75</ele><time>2026-04-26T08:46:24.202Z</time></trkpt><trkpt lat="37.6324567" lon="15.0850883"><ele>551.0</ele><time>2026-04-26T08:46:25.202Z</time></trkpt><trkpt lat="37.6323317" lon="15.0849967"><ele>552.0</ele><time>2026-04-26T08:46:26.202Z</time></trkpt><trkpt lat="37.6321967" lon="15.0848917"><ele>553.0</ele><time>2026-04-26T08:46:27.202Z</time></trkpt><trkpt lat="37.6320533" lon="15.0847733"><ele>554.0</ele><time>2026-04-26T08:46:28.203Z</time></trkpt><trkpt lat="37.63191" lon="15.0846533"><ele>552.5</ele><time>2026-04-26T08:46:29.203Z</time></trkpt><trkpt lat="37.6317767" lon="15.084535"><ele>551.0</ele><time>2026-04-26T08:46:30.202Z</time></trkpt><trkpt lat="37.63165" lon="15.0844283"><ele>549.5</ele><time>2026-04-26T08:46:31.203Z</time></trkpt><trkpt lat="37.63154" lon="15.0843383"><ele>548.0</ele><time>2026-04-26T08:46:32.202Z</time></trkpt><trkpt lat="37.6314317" lon="15.084255"><ele>548.0</ele><time>2026-04-26T08:46:33.203Z</time></trkpt><trkpt lat="37.6313317" lon="15.0841733"><ele>548.0</ele><time>2026-04-26T08:46:34.202Z</time></trkpt><trkpt lat="37.6312417" lon="15.0840817"><ele>548.0</ele><time>2026-04-26T08:46:35.202Z</time></trkpt><trkpt lat="37.63115" lon="15.0839983"><ele>548.0</ele><time>2026-04-26T08:46:36.202Z</time></trkpt><trkpt lat="37.63106" lon="15.08391"><ele>547.4</ele><time>2026-04-26T08:46:37.202Z</time></trkpt><trkpt lat="37.6309717" lon="15.0838317"><ele>546.8</ele><time>2026-04-26T08:46:38.202Z</time></trkpt><trkpt lat="37.63089" lon="15.08376"><ele>546.2</ele><time>2026-04-26T08:46:39.202Z</time></trkpt><trkpt lat="37.63081" lon="15.0836933"><ele>545.6</ele><time>2026-04-26T08:46:40.202Z</time></trkpt><trkpt lat="37.6307383" lon="15.0836283"><ele>545.0</ele><time>2026-04-26T08:46:41.202Z</time></trkpt><trkpt lat="37.6306617" lon="15.083555"><ele>545.0</ele><time>2026-04-26T08:46:42.202Z</time></trkpt><trkpt lat="37.6305817" lon="15.0834833"><ele>545.0</ele><time>2026-04-26T08:46:43.202Z</time></trkpt><trkpt lat="37.6305" lon="15.08341"><ele>545.0</ele><time>2026-04-26T08:46:44.202Z</time></trkpt><trkpt lat="37.6304183" lon="15.0833283"><ele>545.0</ele><time>2026-04-26T08:46:45.202Z</time></trkpt><trkpt lat="37.6303367" lon="15.0832533"><ele>545.0</ele><time>2026-04-26T08:46:46.202Z</time></trkpt><trkpt lat="37.63025" lon="15.0831883"><ele>545.8</ele><time>2026-04-26T08:46:47.202Z</time></trkpt><trkpt lat="37.630165" lon="15.0831317"><ele>546.6</ele><time>2026-04-26T08:46:48.202Z</time></trkpt><trkpt lat="37.6300767" lon="15.0830617"><ele>547.4</ele><time>2026-04-26T08:46:49.202Z</time></trkpt><trkpt lat="37.62999" lon="15.0829883"><ele>548.2</ele><time>2026-04-26T08:46:50.202Z</time></trkpt><trkpt lat="37.6299167" lon="15.0829167"><ele>549.0</ele><time>2026-04-26T08:46:51.203Z</time></trkpt><trkpt lat="37.6298433" lon="15.0828483"><ele>549.0</ele><time>2026-04-26T08:46:52.202Z</time></trkpt><trkpt lat="37.629775" lon="15.082785"><ele>549.0</ele><time>2026-04-26T08:46:53.203Z</time></trkpt><trkpt lat="37.6297" lon="15.0827167"><ele>549.0</ele><time>2026-04-26T08:46:54.202Z</time></trkpt><trkpt lat="37.6296217" lon="15.0826533"><ele>549.0</ele><time>2026-04-26T08:46:55.203Z</time></trkpt><trkpt lat="37.6295417" lon="15.0825767"><ele>549.0</ele><time>2026-04-26T08:46:56.202Z</time></trkpt><trkpt lat="37.6294567" lon="15.0824967"><ele>549.6</ele><time>2026-04-26T08:46:57.202Z</time></trkpt><trkpt lat="37.629375" lon="15.082415"><ele>550.2</ele><time>2026-04-26T08:46:58.202Z</time></trkpt><trkpt lat="37.6292867" lon="15.0823233"><ele>550.8000000000001</ele><time>2026-04-26T08:46:59.202Z</time></trkpt><trkpt lat="37.6292017" lon="15.08224"><ele>551.4</ele><time>2026-04-26T08:47:00.202Z</time></trkpt><trkpt lat="37.6291233" lon="15.0821683"><ele>552.0</ele><time>2026-04-26T08:47:01.202Z</time></trkpt><trkpt lat="37.6290467" lon="15.0820967"><ele>552.0</ele><time>2026-04-26T08:47:02.202Z</time></trkpt><trkpt lat="37.628955" lon="15.08203"><ele>552.0</ele><time>2026-04-26T08:47:03.202Z</time></trkpt><trkpt lat="37.62887" lon="15.0819533"><ele>552.0</ele><time>2026-04-26T08:47:04.202Z</time></trkpt><trkpt lat="37.6287717" lon="15.08187"><ele>552.0</ele><time>2026-04-26T08:47:05.202Z</time></trkpt><trkpt lat="37.628685" lon="15.081805"><ele>552.0</ele><time>2026-04-26T08:47:06.202Z</time></trkpt><trkpt lat="37.6286017" lon="15.0817283"><ele>552.6</ele><time>2026-04-26T08:47:07.203Z</time></trkpt><trkpt lat="37.6285183" lon="15.0816483"><ele>553.2</ele><time>2026-04-26T08:47:08.202Z</time></trkpt><trkpt lat="37.6284433" lon="15.08158"><ele>553.8</ele><time>2026-04-26T08:47:09.202Z</time></trkpt><trkpt lat="37.62837" lon="15.0814933"><ele>554.4</ele><time>2026-04-26T08:47:10.202Z</time></trkpt><trkpt lat="37.6283083" lon="15.0814067"><ele>555.0</ele><time>2026-04-26T08:47:11.202Z</time></trkpt><trkpt lat="37.6282483" lon="15.0813117"><ele>555.6</ele><time>2026-04-26T08:47:12.203Z</time></trkpt><trkpt lat="37.6281783" lon="15.0812083"><ele>556.2</ele><time>2026-04-26T08:47:13.202Z</time></trkpt><trkpt lat="37.6281117" lon="15.0811167"><ele>556.8</ele><time>2026-04-26T08:47:14.203Z</time></trkpt><trkpt lat="37.628045" lon="15.0810283"><ele>557.4</ele><time>2026-04-26T08:47:15.202Z</time></trkpt><trkpt lat="37.627975" lon="15.0809267"><ele>558.0</ele><time>2026-04-26T08:47:16.202Z</time></trkpt><trkpt lat="37.6278917" lon="15.080805"><ele>559.6666666666666</ele><time>2026-04-26T08:47:17.202Z</time></trkpt><trkpt lat="37.6278" lon="15.0806367"><ele>561.3333333333333</ele><time>2026-04-26T08:47:18.203Z</time></trkpt><trkpt lat="37.6276933" lon="15.0804583"><ele>563.0</ele><time>2026-04-26T08:47:19.203Z</time></trkpt><trkpt lat="37.6275767" lon="15.0802667"><ele>563.0</ele><time>2026-04-26T08:47:20.203Z</time></trkpt><trkpt lat="37.6274633" lon="15.0800433"><ele>563.0</ele><time>2026-04-26T08:47:21.202Z</time></trkpt><trkpt lat="37.62735" lon="15.0797933"><ele>563.0</ele><time>2026-04-26T08:47:22.202Z</time></trkpt><trkpt lat="37.627245" lon="15.0795683"><ele>564.6666666666666</ele><time>2026-04-26T08:47:23.203Z</time></trkpt><trkpt lat="37.6271467" lon="15.0793617"><ele>566.3333333333334</ele><time>2026-04-26T08:47:24.202Z</time></trkpt><trkpt lat="37.6270617" lon="15.0791683"><ele>568.0</ele><time>2026-04-26T08:47:25.202Z</time></trkpt><trkpt lat="37.6269817" lon="15.07899"><ele>569.75</ele><time>2026-04-26T08:47:26.202Z</time></trkpt><trkpt lat="37.6269083" lon="15.078835"><ele>571.5</ele><time>2026-04-26T08:47:27.202Z</time></trkpt><trkpt lat="37.6268417" lon="15.078695"><ele>573.25</ele><time>2026-04-26T08:47:28.202Z</time></trkpt><trkpt lat="37.6268" lon="15.0785667"><ele>575.0</ele><time>2026-04-26T08:47:29.202Z</time></trkpt><trkpt lat="37.6267567" lon="15.07847"><ele>575.0</ele><time>2026-04-26T08:47:30.202Z</time></trkpt><trkpt lat="37.62672" lon="15.0784"><ele>575.0</ele><time>2026-04-26T08:47:31.202Z</time></trkpt><trkpt lat="37.626695" lon="15.0782567"><ele>575.0</ele><time>2026-04-26T08:47:33.202Z</time></trkpt><trkpt lat="37.626695" lon="15.0781633"><ele>575.0</ele><time>2026-04-26T08:47:34.202Z</time></trkpt><trkpt lat="37.6266817" lon="15.0780583"><ele>575.0</ele><time>2026-04-26T08:47:35.202Z</time></trkpt><trkpt lat="37.6266533" lon="15.07794"><ele>575.0</ele><time>2026-04-26T08:47:36.202Z</time></trkpt><trkpt lat="37.626635" lon="15.07781"><ele>576.0</ele><time>2026-04-26T08:47:37.203Z</time></trkpt><trkpt lat="37.6266317" lon="15.0776733"><ele>577.0</ele><time>2026-04-26T08:47:38.202Z</time></trkpt><trkpt lat="37.6266533" lon="15.07752"><ele>578.0</ele><time>2026-04-26T08:47:39.203Z</time></trkpt><trkpt lat="37.6266683" lon="15.0773483"><ele>579.0</ele><time>2026-04-26T08:47:40.202Z</time></trkpt><trkpt lat="37.6266517" lon="15.077185"><ele>579.75</ele><time>2026-04-26T08:47:41.202Z</time></trkpt><trkpt lat="37.6266067" lon="15.0770183"><ele>580.5</ele><time>2026-04-26T08:47:42.203Z</time></trkpt><trkpt lat="37.6265367" lon="15.076855"><ele>581.25</ele><time>2026-04-26T08:47:43.203Z</time></trkpt><trkpt lat="37.6264533" lon="15.07668"><ele>582.0</ele><time>2026-04-26T08:47:44.202Z</time></trkpt><trkpt lat="37.6263633" lon="15.076505"><ele>583.0</ele><time>2026-04-26T08:47:45.202Z</time></trkpt><trkpt lat="37.62627" lon="15.076305"><ele>584.0</ele><time>2026-04-26T08:47:46.202Z</time></trkpt><trkpt lat="37.6261783" lon="15.0761233"><ele>585.0</ele><time>2026-04-26T08:47:47.202Z</time></trkpt><trkpt lat="37.6260967" lon="15.0759567"><ele>585.75</ele><time>2026-04-26T08:47:48.203Z</time></trkpt><trkpt lat="37.6260267" lon="15.0758067"><ele>586.5</ele><time>2026-04-26T08:47:49.202Z</time></trkpt><trkpt lat="37.6259633" lon="15.0756733"><ele>587.25</ele><time>2026-04-26T08:47:50.202Z</time></trkpt><trkpt lat="37.6259067" lon="15.07557"><ele>588.0</ele><time>2026-04-26T08:47:51.202Z</time></trkpt><trkpt lat="37.6258433" lon="15.0754783"><ele>588.4</ele><time>2026-04-26T08:47:52.202Z</time></trkpt><trkpt lat="37.6257717" lon="15.075415"><ele>588.8</ele><time>2026-04-26T08:47:53.202Z</time></trkpt><trkpt lat="37.625685" lon="15.0753967"><ele>589.2</ele><time>2026-04-26T08:47:54.202Z</time></trkpt><trkpt lat="37.6255783" lon="15.0754267"><ele>589.6</ele><time>2026-04-26T08:47:55.202Z</time></trkpt><trkpt lat="37.6254533" lon="15.0754783"><ele>590.0</ele><time>2026-04-26T08:47:56.202Z</time></trkpt><trkpt lat="37.6253183" lon="15.0755183"><ele>590.6666666666666</ele><time>2026-04-26T08:47:57.203Z</time></trkpt><trkpt lat="37.62518" lon="15.0755517"><ele>591.3333333333334</ele><time>2026-04-26T08:47:58.202Z</time></trkpt><trkpt lat="37.6250267" lon="15.0755833"><ele>592.0</ele><time>2026-04-26T08:47:59.203Z</time></trkpt><trkpt lat="37.624865" lon="15.0756033"><ele>592.0</ele><time>2026-04-26T08:48:00.203Z</time></trkpt><trkpt lat="37.6247" lon="15.0756133"><ele>592.0</ele><time>2026-04-26T08:48:01.202Z</time></trkpt><trkpt lat="37.624525" lon="15.075605"><ele>592.0</ele><time>2026-04-26T08:48:02.202Z</time></trkpt><trkpt lat="37.6243467" lon="15.0755833"><ele>593.6666666666667</ele><time>2026-04-26T08:48:03.203Z</time></trkpt><trkpt lat="37.62417" lon="15.07556"><ele>595.3333333333334</ele><time>2026-04-26T08:48:04.202Z</time></trkpt><trkpt lat="37.6239967" lon="15.0755333"><ele>597.0</ele><time>2026-04-26T08:48:05.202Z</time></trkpt><trkpt lat="37.6238167" lon="15.0754967"><ele>598.0</ele><time>2026-04-26T08:48:06.202Z</time></trkpt><trkpt lat="37.6236317" lon="15.0754633"><ele>599.0</ele><time>2026-04-26T08:48:07.202Z</time></trkpt><trkpt lat="37.6234383" lon="15.0754317"><ele>600.0</ele><time>2026-04-26T08:48:08.203Z</time></trkpt><trkpt lat="37.6232383" lon="15.0753967"><ele>600.0</ele><time>2026-04-26T08:48:09.202Z</time></trkpt><trkpt lat="37.6230533" lon="15.075375"><ele>600.0</ele><time>2026-04-26T08:48:10.202Z</time></trkpt><trkpt lat="37.6228783" lon="15.0753433"><ele>600.0</ele><time>2026-04-26T08:48:11.202Z</time></trkpt><trkpt lat="37.6227117" lon="15.0752883"><ele>600.0</ele><time>2026-04-26T08:48:12.202Z</time></trkpt><trkpt lat="37.62256" lon="15.075215"><ele>600.0</ele><time>2026-04-26T08:48:13.202Z</time></trkpt><trkpt lat="37.6224217" lon="15.0751383"><ele>600.0</ele><time>2026-04-26T08:48:14.202Z</time></trkpt><trkpt lat="37.622295" lon="15.0750733"><ele>600.0</ele><time>2026-04-26T08:48:15.202Z</time></trkpt><trkpt lat="37.6221717" lon="15.0749917"><ele>600.0</ele><time>2026-04-26T08:48:16.202Z</time></trkpt><trkpt lat="37.62205" lon="15.074925"><ele>600.0</ele><time>2026-04-26T08:48:17.202Z</time></trkpt><trkpt lat="37.621945" lon="15.0748633"><ele>600.0</ele><time>2026-04-26T08:48:18.203Z</time></trkpt><trkpt lat="37.6218517" lon="15.0748167"><ele>600.8333333333334</ele><time>2026-04-26T08:48:19.203Z</time></trkpt><trkpt lat="37.6217683" lon="15.07477"><ele>601.6666666666666</ele><time>2026-04-26T08:48:20.202Z</time></trkpt><trkpt lat="37.621695" lon="15.0747267"><ele>602.5</ele><time>2026-04-26T08:48:21.202Z</time></trkpt><trkpt lat="37.621615" lon="15.0746833"><ele>603.3333333333333</ele><time>2026-04-26T08:48:22.203Z</time></trkpt><trkpt lat="37.6215517" lon="15.0746417"><ele>604.1666666666666</ele><time>2026-04-26T08:48:23.202Z</time></trkpt><trkpt lat="37.6214883" lon="15.0745983"><ele>605.0</ele><time>2026-04-26T08:48:24.202Z</time></trkpt><trkpt lat="37.6214233" lon="15.0745533"><ele>605.0</ele><time>2026-04-26T08:48:25.203Z</time></trkpt><trkpt lat="37.621355" lon="15.07451"><ele>605.0</ele><time>2026-04-26T08:48:26.202Z</time></trkpt><trkpt lat="37.6212867" lon="15.0744683"><ele>605.0</ele><time>2026-04-26T08:48:27.202Z</time></trkpt><trkpt lat="37.6212117" lon="15.0744267"><ele>605.0</ele><time>2026-04-26T08:48:28.202Z</time></trkpt><trkpt lat="37.6211217" lon="15.0743817"><ele>605.0</ele><time>2026-04-26T08:48:29.202Z</time></trkpt><trkpt lat="37.6210367" lon="15.0743317"><ele>605.0</ele><time>2026-04-26T08:48:30.202Z</time></trkpt><trkpt lat="37.62097" lon="15.074285"><ele>604.5</ele><time>2026-04-26T08:48:31.203Z</time></trkpt><trkpt lat="37.6208967" lon="15.0742467"><ele>604.0</ele><time>2026-04-26T08:48:32.203Z</time></trkpt><trkpt lat="37.620825" lon="15.074205"><ele>603.5</ele><time>2026-04-26T08:48:33.203Z</time></trkpt><trkpt lat="37.6207517" lon="15.0741667"><ele>603.0</ele><time>2026-04-26T08:48:34.202Z</time></trkpt><trkpt lat="37.6206767" lon="15.074125"><ele>602.5</ele><time>2026-04-26T08:48:35.202Z</time></trkpt><trkpt lat="37.6205983" lon="15.0740833"><ele>602.0</ele><time>2026-04-26T08:48:36.202Z</time></trkpt><trkpt lat="37.6205233" lon="15.0740383"><ele>601.8333333333333</ele><time>2026-04-26T08:48:37.203Z</time></trkpt><trkpt lat="37.6204483" lon="15.0739967"><ele>601.6666666666666</ele><time>2026-04-26T08:48:38.202Z</time></trkpt><trkpt lat="37.6203733" lon="15.073955"><ele>601.5</ele><time>2026-04-26T08:48:39.202Z</time></trkpt><trkpt lat="37.6203" lon="15.0739183"><ele>601.3333333333334</ele><time>2026-04-26T08:48:40.202Z</time></trkpt><trkpt lat="37.6202283" lon="15.073885"><ele>601.1666666666667</ele><time>2026-04-26T08:48:41.202Z</time></trkpt><trkpt lat="37.6201517" lon="15.0738567"><ele>601.0</ele><time>2026-04-26T08:48:42.202Z</time></trkpt><trkpt lat="37.6200767" lon="15.0738417"><ele>600.3333333333334</ele><time>2026-04-26T08:48:43.203Z</time></trkpt><trkpt lat="37.62" lon="15.0738317"><ele>599.6666666666667</ele><time>2026-04-26T08:48:44.202Z</time></trkpt><trkpt lat="37.619925" lon="15.0738267"><ele>599.0</ele><time>2026-04-26T08:48:45.203Z</time></trkpt><trkpt lat="37.6198483" lon="15.0738183"><ele>598.3333333333334</ele><time>2026-04-26T08:48:46.202Z</time></trkpt><trkpt lat="37.6197817" lon="15.0738133"><ele>597.6666666666666</ele><time>2026-04-26T08:48:47.202Z</time></trkpt><trkpt lat="37.6196883" lon="15.0738017"><ele>597.0</ele><time>2026-04-26T08:48:49.202Z</time></trkpt><trkpt lat="37.6196183" lon="15.0737717"><ele>597.0</ele><time>2026-04-26T08:48:52.202Z</time></trkpt><trkpt lat="37.61955" lon="15.0737267"><ele>597.0</ele><time>2026-04-26T08:48:55.202Z</time></trkpt><trkpt lat="37.6194817" lon="15.0737117"><ele>597.0</ele><time>2026-04-26T08:48:57.202Z</time></trkpt><trkpt lat="37.619365" lon="15.0737583"><ele>597.0</ele><time>2026-04-26T08:48:59.203Z</time></trkpt><trkpt lat="37.619295" lon="15.07378"><ele>597.0</ele><time>2026-04-26T08:49:00.203Z</time></trkpt><trkpt lat="37.6192183" lon="15.07379"><ele>597.0</ele><time>2026-04-26T08:49:01.202Z</time></trkpt><trkpt lat="37.6191383" lon="15.0737883"><ele>596.4</ele><time>2026-04-26T08:49:02.203Z</time></trkpt><trkpt lat="37.619055" lon="15.0737867"><ele>595.8000000000001</ele><time>2026-04-26T08:49:03.202Z</time></trkpt><trkpt lat="37.6189683" lon="15.0737717"><ele>595.2</ele><time>2026-04-26T08:49:04.202Z</time></trkpt><trkpt lat="37.6188683" lon="15.07374"><ele>594.6</ele><time>2026-04-26T08:49:05.202Z</time></trkpt><trkpt lat="37.6187583" lon="15.0737017"><ele>594.0</ele><time>2026-04-26T08:49:06.202Z</time></trkpt><trkpt lat="37.6186417" lon="15.073635"><ele>593.6</ele><time>2026-04-26T08:49:07.202Z</time></trkpt><trkpt lat="37.6185217" lon="15.073595"><ele>593.2</ele><time>2026-04-26T08:49:08.202Z</time></trkpt><trkpt lat="37.61841" lon="15.07357"><ele>592.8000000000001</ele><time>2026-04-26T08:49:09.203Z</time></trkpt><trkpt lat="37.6183033" lon="15.0735533"><ele>592.4</ele><time>2026-04-26T08:49:10.202Z</time></trkpt><trkpt lat="37.6182083" lon="15.0735433"><ele>592.0</ele><time>2026-04-26T08:49:11.202Z</time></trkpt><trkpt lat="37.6181217" lon="15.073535"><ele>592.0</ele><time>2026-04-26T08:49:12.202Z</time></trkpt><trkpt lat="37.6180433" lon="15.0735167"><ele>592.0</ele><time>2026-04-26T08:49:13.202Z</time></trkpt><trkpt lat="37.6179767" lon="15.0735067"><ele>592.0</ele><time>2026-04-26T08:49:14.202Z</time></trkpt><trkpt lat="37.6178833" lon="15.073445"><ele>592.0</ele><time>2026-04-26T08:49:16.203Z</time></trkpt><trkpt lat="37.617825" lon="15.07329"><ele>592.0</ele><time>2026-04-26T08:49:18.202Z</time></trkpt><trkpt lat="37.617815" lon="15.07318"><ele>591.6666666666667</ele><time>2026-04-26T08:49:19.202Z</time></trkpt><trkpt lat="37.6178083" lon="15.0730667"><ele>591.3333333333334</ele><time>2026-04-26T08:49:20.202Z</time></trkpt><trkpt lat="37.6177933" lon="15.0729667"><ele>591.0</ele><time>2026-04-26T08:49:21.202Z</time></trkpt><trkpt lat="37.61777" lon="15.0728717"><ele>590.6666666666666</ele><time>2026-04-26T08:49:22.203Z</time></trkpt><trkpt lat="37.6177483" lon="15.07278"><ele>590.3333333333333</ele><time>2026-04-26T08:49:23.202Z</time></trkpt><trkpt lat="37.6177267" lon="15.0726967"><ele>590.0</ele><time>2026-04-26T08:49:24.203Z</time></trkpt><trkpt lat="37.6177" lon="15.0726183"><ele>590.0</ele><time>2026-04-26T08:49:25.202Z</time></trkpt><trkpt lat="37.6176767" lon="15.0725317"><ele>590.0</ele><time>2026-04-26T08:49:26.203Z</time></trkpt><trkpt lat="37.617655" lon="15.0724433"><ele>590.0</ele><time>2026-04-26T08:49:27.202Z</time></trkpt><trkpt lat="37.6176317" lon="15.0723517"><ele>590.0</ele><time>2026-04-26T08:49:28.202Z</time></trkpt><trkpt lat="37.6176067" lon="15.072255"><ele>590.0</ele><time>2026-04-26T08:49:29.202Z</time></trkpt><trkpt lat="37.6175833" lon="15.0721583"><ele>590.0</ele><time>2026-04-26T08:49:30.202Z</time></trkpt><trkpt lat="37.6175617" lon="15.0720583"><ele>590.6666666666666</ele><time>2026-04-26T08:49:31.202Z</time></trkpt><trkpt lat="37.6175433" lon="15.0719633"><ele>591.3333333333333</ele><time>2026-04-26T08:49:32.202Z</time></trkpt><trkpt lat="37.6175383" lon="15.0718667"><ele>592.0</ele><time>2026-04-26T08:49:33.202Z</time></trkpt><trkpt lat="37.61753" lon="15.0717733"><ele>592.6666666666666</ele><time>2026-04-26T08:49:34.203Z</time></trkpt><trkpt lat="37.6175267" lon="15.0716817"><ele>593.3333333333334</ele><time>2026-04-26T08:49:35.202Z</time></trkpt><trkpt lat="37.6175267" lon="15.0715983"><ele>594.0</ele><time>2026-04-26T08:49:36.202Z</time></trkpt><trkpt lat="37.6175083" lon="15.0714617"><ele>594.4</ele><time>2026-04-26T08:49:38.202Z</time></trkpt><trkpt lat="37.61749" lon="15.071345"><ele>594.8</ele><time>2026-04-26T08:49:40.202Z</time></trkpt><trkpt lat="37.6174633" lon="15.071215"><ele>595.2</ele><time>2026-04-26T08:49:42.202Z</time></trkpt><trkpt lat="37.617425" lon="15.0710667"><ele>595.6</ele><time>2026-04-26T08:49:44.202Z</time></trkpt><trkpt lat="37.617395" lon="15.0709683"><ele>596.0</ele><time>2026-04-26T08:49:45.202Z</time></trkpt><trkpt lat="37.617365" lon="15.0708533"><ele>595.8333333333333</ele><time>2026-04-26T08:49:46.202Z</time></trkpt><trkpt lat="37.6173417" lon="15.070735"><ele>595.6666666666666</ele><time>2026-04-26T08:49:47.202Z</time></trkpt><trkpt lat="37.6173083" lon="15.070635"><ele>595.5</ele><time>2026-04-26T08:49:48.202Z</time></trkpt><trkpt lat="37.6172933" lon="15.070545"><ele>595.3333333333334</ele><time>2026-04-26T08:49:49.202Z</time></trkpt><trkpt lat="37.6172717" lon="15.0704617"><ele>595.1666666666667</ele><time>2026-04-26T08:49:50.202Z</time></trkpt><trkpt lat="37.6172467" lon="15.0703867"><ele>595.0</ele><time>2026-04-26T08:49:51.202Z</time></trkpt><trkpt lat="37.61722" lon="15.0703117"><ele>595.0</ele><time>2026-04-26T08:49:52.202Z</time></trkpt><trkpt lat="37.6171933" lon="15.0702183"><ele>595.0</ele><time>2026-04-26T08:49:53.202Z</time></trkpt><trkpt lat="37.6171817" lon="15.0701183"><ele>595.0</ele><time>2026-04-26T08:49:54.202Z</time></trkpt><trkpt lat="37.6171683" lon="15.07002"><ele>595.0</ele><time>2026-04-26T08:49:55.202Z</time></trkpt><trkpt lat="37.6171617" lon="15.069915"><ele>595.0</ele><time>2026-04-26T08:49:56.202Z</time></trkpt><trkpt lat="37.61716" lon="15.0697983"><ele>595.0</ele><time>2026-04-26T08:49:57.202Z</time></trkpt><trkpt lat="37.617165" lon="15.0696967"><ele>594.3333333333334</ele><time>2026-04-26T08:49:58.202Z</time></trkpt><trkpt lat="37.6171733" lon="15.0695883"><ele>593.6666666666667</ele><time>2026-04-26T08:49:59.202Z</time></trkpt><trkpt lat="37.6171817" lon="15.0694767"><ele>593.0</ele><time>2026-04-26T08:50:00.202Z</time></trkpt><trkpt lat="37.6171833" lon="15.0693667"><ele>592.3333333333334</ele><time>2026-04-26T08:50:01.202Z</time></trkpt><trkpt lat="37.6171867" lon="15.0692467"><ele>591.6666666666666</ele><time>2026-04-26T08:50:02.202Z</time></trkpt><trkpt lat="37.6171833" lon="15.0691383"><ele>591.0</ele><time>2026-04-26T08:50:03.202Z</time></trkpt><trkpt lat="37.6171917" lon="15.0690217"><ele>590.3333333333334</ele><time>2026-04-26T08:50:04.202Z</time></trkpt><trkpt lat="37.6171933" lon="15.0689117"><ele>589.6666666666666</ele><time>2026-04-26T08:50:05.202Z</time></trkpt><trkpt lat="37.61719" lon="15.0688083"><ele>589.0</ele><time>2026-04-26T08:50:06.202Z</time></trkpt><trkpt lat="37.6171867" lon="15.0687183"><ele>588.3333333333333</ele><time>2026-04-26T08:50:07.202Z</time></trkpt><trkpt lat="37.61718" lon="15.068575"><ele>587.6666666666666</ele><time>2026-04-26T08:50:09.202Z</time></trkpt><trkpt lat="37.617165" lon="15.0684567"><ele>587.0</ele><time>2026-04-26T08:50:11.202Z</time></trkpt><trkpt lat="37.61716" lon="15.0683533"><ele>586.8000000000001</ele><time>2026-04-26T08:50:13.202Z</time></trkpt><trkpt lat="37.617195" lon="15.0682083"><ele>586.6</ele><time>2026-04-26T08:50:15.202Z</time></trkpt><trkpt lat="37.6172283" lon="15.068125"><ele>586.4000000000001</ele><time>2026-04-26T08:50:16.202Z</time></trkpt><trkpt lat="37.6172783" lon="15.0680167"><ele>586.2</ele><time>2026-04-26T08:50:17.202Z</time></trkpt><trkpt lat="37.6173233" lon="15.0678983"><ele>586.0</ele><time>2026-04-26T08:50:18.203Z</time></trkpt><trkpt lat="37.6173683" lon="15.0677733"><ele>586.0</ele><time>2026-04-26T08:50:19.202Z</time></trkpt><trkpt lat="37.6174183" lon="15.0676433"><ele>586.0</ele><time>2026-04-26T08:50:20.202Z</time></trkpt><trkpt lat="37.6174683" lon="15.0675083"><ele>586.0</ele><time>2026-04-26T08:50:21.203Z</time></trkpt><trkpt lat="37.6175117" lon="15.0673717"><ele>586.0</ele><time>2026-04-26T08:50:22.203Z</time></trkpt><trkpt lat="37.6175633" lon="15.0672333"><ele>586.8</ele><time>2026-04-26T08:50:23.202Z</time></trkpt><trkpt lat="37.61761" lon="15.067115"><ele>587.6</ele><time>2026-04-26T08:50:24.202Z</time></trkpt><trkpt lat="37.6176533" lon="15.06701"><ele>588.4</ele><time>2026-04-26T08:50:25.203Z</time></trkpt><trkpt lat="37.6177033" lon="15.0669017"><ele>589.2</ele><time>2026-04-26T08:50:26.202Z</time></trkpt><trkpt lat="37.617745" lon="15.0668033"><ele>590.0</ele><time>2026-04-26T08:50:27.202Z</time></trkpt><trkpt lat="37.617785" lon="15.06671"><ele>590.0</ele><time>2026-04-26T08:50:28.202Z</time></trkpt><trkpt lat="37.6178183" lon="15.0666267"><ele>590.0</ele><time>2026-04-26T08:50:29.202Z</time></trkpt><trkpt lat="37.6178467" lon="15.0665367"><ele>590.0</ele><time>2026-04-26T08:50:30.202Z</time></trkpt><trkpt lat="37.6178717" lon="15.0664517"><ele>590.0</ele><time>2026-04-26T08:50:31.203Z</time></trkpt><trkpt lat="37.6178967" lon="15.0663783"><ele>590.0</ele><time>2026-04-26T08:50:32.202Z</time></trkpt><trkpt lat="37.61794" lon="15.0662567"><ele>590.0</ele><time>2026-04-26T08:50:34.203Z</time></trkpt><trkpt lat="37.6179733" lon="15.0661583"><ele>590.8333333333333</ele><time>2026-04-26T08:50:36.202Z</time></trkpt><trkpt lat="37.6180167" lon="15.0660633"><ele>591.6666666666666</ele><time>2026-04-26T08:50:38.202Z</time></trkpt><trkpt lat="37.618065" lon="15.0659867"><ele>592.5</ele><time>2026-04-26T08:50:40.203Z</time></trkpt><trkpt lat="37.6181033" lon="15.06591"><ele>593.3333333333334</ele><time>2026-04-26T08:50:43.203Z</time></trkpt><trkpt lat="37.6181283" lon="15.0658033"><ele>594.1666666666667</ele><time>2026-04-26T08:50:46.202Z</time></trkpt><trkpt lat="37.6181533" lon="15.0657167"><ele>595.0</ele><time>2026-04-26T08:50:48.203Z</time></trkpt><trkpt lat="37.6182" lon="15.06558"><ele>595.1666666666667</ele><time>2026-04-26T08:50:50.202Z</time></trkpt><trkpt lat="37.6182383" lon="15.065495"><ele>595.3333333333334</ele><time>2026-04-26T08:50:51.202Z</time></trkpt><trkpt lat="37.618275" lon="15.0654033"><ele>595.5</ele><time>2026-04-26T08:50:52.203Z</time></trkpt><trkpt lat="37.6183083" lon="15.065315"><ele>595.6666666666666</ele><time>2026-04-26T08:50:53.202Z</time></trkpt><trkpt lat="37.6183417" lon="15.0652317"><ele>595.8333333333333</ele><time>2026-04-26T08:50:54.203Z</time></trkpt><trkpt lat="37.61837" lon="15.0651517"><ele>596.0</ele><time>2026-04-26T08:50:55.202Z</time></trkpt><trkpt lat="37.6184133" lon="15.0650083"><ele>596.3333333333333</ele><time>2026-04-26T08:50:57.203Z</time></trkpt><trkpt lat="37.61846" lon="15.0648783"><ele>596.6666666666666</ele><time>2026-04-26T08:50:59.202Z</time></trkpt><trkpt lat="37.61849" lon="15.0648017"><ele>597.0</ele><time>2026-04-26T08:51:02.202Z</time></trkpt><trkpt lat="37.6185167" lon="15.0647133"><ele>597.3333333333334</ele><time>2026-04-26T08:51:06.203Z</time></trkpt><trkpt lat="37.6185533" lon="15.0646017"><ele>597.6666666666667</ele><time>2026-04-26T08:51:08.202Z</time></trkpt><trkpt lat="37.6185833" lon="15.0645317"><ele>598.0</ele><time>2026-04-26T08:51:09.202Z</time></trkpt><trkpt lat="37.6186117" lon="15.0644583"><ele>598.0</ele><time>2026-04-26T08:51:10.202Z</time></trkpt><trkpt lat="37.6186383" lon="15.0643833"><ele>598.0</ele><time>2026-04-26T08:51:11.202Z</time></trkpt><trkpt lat="37.618685" lon="15.064255"><ele>598.0</ele><time>2026-04-26T08:51:13.202Z</time></trkpt><trkpt lat="37.6187317" lon="15.0641433"><ele>598.0</ele><time>2026-04-26T08:51:15.202Z</time></trkpt><trkpt lat="37.6187933" lon="15.064015"><ele>598.0</ele><time>2026-04-26T08:51:17.202Z</time></trkpt><trkpt lat="37.6188483" lon="15.0638683"><ele>599.4</ele><time>2026-04-26T08:51:19.202Z</time></trkpt><trkpt lat="37.6188917" lon="15.0637633"><ele>600.8</ele><time>2026-04-26T08:51:21.202Z</time></trkpt><trkpt lat="37.6189117" lon="15.06367"><ele>602.2</ele><time>2026-04-26T08:51:24.202Z</time></trkpt><trkpt lat="37.6189567" lon="15.06356"><ele>603.6</ele><time>2026-04-26T08:51:27.202Z</time></trkpt><trkpt lat="37.619" lon="15.0634533"><ele>605.0</ele><time>2026-04-26T08:51:29.202Z</time></trkpt><trkpt lat="37.6190183" lon="15.063335"><ele>606.0</ele><time>2026-04-26T08:51:31.202Z</time></trkpt><trkpt lat="37.6190083" lon="15.063195"><ele>607.0</ele><time>2026-04-26T08:51:33.202Z</time></trkpt><trkpt lat="37.6189583" lon="15.06306"><ele>608.0</ele><time>2026-04-26T08:51:35.202Z</time></trkpt><trkpt lat="37.6189317" lon="15.0629833"><ele>609.0</ele><time>2026-04-26T08:51:36.202Z</time></trkpt><trkpt lat="37.6189167" lon="15.062905"><ele>610.0</ele><time>2026-04-26T08:51:37.202Z</time></trkpt><trkpt lat="37.6189033" lon="15.0627483"><ele>610.0</ele><time>2026-04-26T08:51:39.202Z</time></trkpt><trkpt lat="37.618885" lon="15.0626717"><ele>610.0</ele><time>2026-04-26T08:51:40.202Z</time></trkpt><trkpt lat="37.6188717" lon="15.062585"><ele>610.0</ele><time>2026-04-26T08:51:41.202Z</time></trkpt><trkpt lat="37.6188633" lon="15.062505"><ele>610.0</ele><time>2026-04-26T08:51:42.202Z</time></trkpt><trkpt lat="37.618855" lon="15.0624183"><ele>610.0</ele><time>2026-04-26T08:51:43.202Z</time></trkpt><trkpt lat="37.6188317" lon="15.0622733"><ele>610.0</ele><time>2026-04-26T08:51:45.202Z</time></trkpt><trkpt lat="37.6188183" lon="15.062145"><ele>610.3333333333334</ele><time>2026-04-26T08:51:47.202Z</time></trkpt><trkpt lat="37.6188167" lon="15.0620333"><ele>610.6666666666667</ele><time>2026-04-26T08:51:49.202Z</time></trkpt><trkpt lat="37.6188217" lon="15.0619317"><ele>611.0</ele><time>2026-04-26T08:51:51.203Z</time></trkpt><trkpt lat="37.6188133" lon="15.06183"><ele>611.3333333333334</ele><time>2026-04-26T08:51:53.202Z</time></trkpt><trkpt lat="37.6188183" lon="15.0617317"><ele>611.6666666666666</ele><time>2026-04-26T08:51:55.202Z</time></trkpt><trkpt lat="37.6188117" lon="15.0616517"><ele>612.0</ele><time>2026-04-26T08:51:57.202Z</time></trkpt><trkpt lat="37.6187817" lon="15.0615433"><ele>612.3333333333334</ele><time>2026-04-26T08:52:00.202Z</time></trkpt><trkpt lat="37.6187683" lon="15.0614617"><ele>612.6666666666666</ele><time>2026-04-26T08:52:02.203Z</time></trkpt><trkpt lat="37.6187383" lon="15.061365"><ele>613.0</ele><time>2026-04-26T08:52:05.202Z</time></trkpt><trkpt lat="37.6186983" lon="15.0612833"><ele>613.3333333333333</ele><time>2026-04-26T08:52:09.203Z</time></trkpt><trkpt lat="37.6186467" lon="15.0612017"><ele>613.6666666666666</ele><time>2026-04-26T08:52:12.202Z</time></trkpt><trkpt lat="37.6186" lon="15.0611267"><ele>614.0</ele><time>2026-04-26T08:52:14.202Z</time></trkpt><trkpt lat="37.6185633" lon="15.0610533"><ele>613.2857142857142</ele><time>2026-04-26T08:52:17.202Z</time></trkpt><trkpt lat="37.6185017" lon="15.0609833"><ele>612.5714285714286</ele><time>2026-04-26T08:52:20.202Z</time></trkpt><trkpt lat="37.6184367" lon="15.0609383"><ele>611.8571428571429</ele><time>2026-04-26T08:52:24.203Z</time></trkpt><trkpt lat="37.6183783" lon="15.0609067"><ele>611.1428571428571</ele><time>2026-04-26T08:52:27.202Z</time></trkpt><trkpt lat="37.6183117" lon="15.0608733"><ele>610.4285714285714</ele><time>2026-04-26T08:52:30.202Z</time></trkpt><trkpt lat="37.6182433" lon="15.0608433"><ele>609.7142857142857</ele><time>2026-04-26T08:52:33.202Z</time></trkpt><trkpt lat="37.6181667" lon="15.0608267"><ele>609.0</ele><time>2026-04-26T08:52:36.203Z</time></trkpt><trkpt lat="37.61808" lon="15.0608"><ele>609.1666666666666</ele><time>2026-04-26T08:52:39.203Z</time></trkpt><trkpt lat="37.6180183" lon="15.0607767"><ele>609.3333333333334</ele><time>2026-04-26T08:52:41.202Z</time></trkpt><trkpt lat="37.6179417" lon="15.060745"><ele>609.5</ele><time>2026-04-26T08:52:43.202Z</time></trkpt><trkpt lat="37.6178733" lon="15.0606967"><ele>609.6666666666667</ele><time>2026-04-26T08:52:45.202Z</time></trkpt><trkpt lat="37.6178" lon="15.06064"><ele>609.8333333333334</ele><time>2026-04-26T08:52:47.202Z</time></trkpt><trkpt lat="37.6177317" lon="15.0605683"><ele>610.0</ele><time>2026-04-26T08:52:49.202Z</time></trkpt><trkpt lat="37.6176783" lon="15.0604933"><ele>609.6666666666667</ele><time>2026-04-26T08:52:52.203Z</time></trkpt><trkpt lat="37.61762" lon="15.060395"><ele>609.3333333333334</ele><time>2026-04-26T08:52:59.202Z</time></trkpt><trkpt lat="37.6175567" lon="15.0602983"><ele>609.0</ele><time>2026-04-26T08:53:01.202Z</time></trkpt><trkpt lat="37.6175167" lon="15.0602367"><ele>608.6666666666666</ele><time>2026-04-26T08:53:02.202Z</time></trkpt><trkpt lat="37.6174667" lon="15.0601617"><ele>608.3333333333333</ele><time>2026-04-26T08:53:03.202Z</time></trkpt><trkpt lat="37.6174117" lon="15.060085"><ele>608.0</ele><time>2026-04-26T08:53:04.202Z</time></trkpt><trkpt lat="37.61736" lon="15.0600067"><ele>608.1666666666666</ele><time>2026-04-26T08:53:05.203Z</time></trkpt><trkpt lat="37.6173133" lon="15.0599317"><ele>608.3333333333333</ele><time>2026-04-26T08:53:06.203Z</time></trkpt><trkpt lat="37.61727" lon="15.0598733"><ele>608.5</ele><time>2026-04-26T08:53:07.202Z</time></trkpt><trkpt lat="37.6172083" lon="15.059795"><ele>608.6666666666666</ele><time>2026-04-26T08:53:09.202Z</time></trkpt><trkpt lat="37.61715" lon="15.0596783"><ele>608.8333333333334</ele><time>2026-04-26T08:53:11.202Z</time></trkpt><trkpt lat="37.6171117" lon="15.0595967"><ele>609.0</ele><time>2026-04-26T08:53:12.202Z</time></trkpt><trkpt lat="37.61707" lon="15.059505"><ele>609.0</ele><time>2026-04-26T08:53:13.202Z</time></trkpt><trkpt lat="37.6170317" lon="15.0594083"><ele>609.0</ele><time>2026-04-26T08:53:14.202Z</time></trkpt><trkpt lat="37.617" lon="15.059315"><ele>609.0</ele><time>2026-04-26T08:53:15.202Z</time></trkpt><trkpt lat="37.6169783" lon="15.0592233"><ele>609.0</ele><time>2026-04-26T08:53:16.202Z</time></trkpt><trkpt lat="37.616965" lon="15.059145"><ele>609.0</ele><time>2026-04-26T08:53:17.202Z</time></trkpt><trkpt lat="37.6169483" lon="15.0590283"><ele>609.0</ele><time>2026-04-26T08:53:19.202Z</time></trkpt><trkpt lat="37.6169233" lon="15.05893"><ele>609.3333333333334</ele><time>2026-04-26T08:53:21.202Z</time></trkpt><trkpt lat="37.6168983" lon="15.0588317"><ele>609.6666666666666</ele><time>2026-04-26T08:53:23.202Z</time></trkpt><trkpt lat="37.616875" lon="15.058735"><ele>610.0</ele><time>2026-04-26T08:53:25.202Z</time></trkpt><trkpt lat="37.6168467" lon="15.05862"><ele>610.3333333333333</ele><time>2026-04-26T08:53:27.202Z</time></trkpt><trkpt lat="37.6168317" lon="15.0585067"><ele>610.6666666666666</ele><time>2026-04-26T08:53:29.203Z</time></trkpt><trkpt lat="37.616825" lon="15.0584067"><ele>611.0</ele><time>2026-04-26T08:53:31.202Z</time></trkpt><trkpt lat="37.6168" lon="15.0583117"><ele>611.0</ele><time>2026-04-26T08:53:33.202Z</time></trkpt><trkpt lat="37.616765" lon="15.0582017"><ele>611.0</ele><time>2026-04-26T08:53:35.202Z</time></trkpt><trkpt lat="37.6167367" lon="15.0580933"><ele>611.0</ele><time>2026-04-26T08:53:37.202Z</time></trkpt><trkpt lat="37.6167167" lon="15.0579667"><ele>611.0</ele><time>2026-04-26T08:53:39.202Z</time></trkpt><trkpt lat="37.6167017" lon="15.057845"><ele>611.0</ele><time>2026-04-26T08:53:41.202Z</time></trkpt><trkpt lat="37.6166967" lon="15.0577317"><ele>611.0</ele><time>2026-04-26T08:53:43.203Z</time></trkpt><trkpt lat="37.6166933" lon="15.057595"><ele>611.0</ele><time>2026-04-26T08:53:45.202Z</time></trkpt><trkpt lat="37.6166933" lon="15.0574583"><ele>611.0</ele><time>2026-04-26T08:53:47.202Z</time></trkpt><trkpt lat="37.6166733" lon="15.0573417"><ele>611.0</ele><time>2026-04-26T08:53:49.202Z</time></trkpt><trkpt lat="37.6166517" lon="15.0572117"><ele>611.0</ele><time>2026-04-26T08:53:51.203Z</time></trkpt><trkpt lat="37.6166283" lon="15.0570817"><ele>611.8</ele><time>2026-04-26T08:53:53.202Z</time></trkpt><trkpt lat="37.6166083" lon="15.0569583"><ele>612.6</ele><time>2026-04-26T08:53:55.203Z</time></trkpt><trkpt lat="37.6165883" lon="15.0568167"><ele>613.4</ele><time>2026-04-26T08:53:57.202Z</time></trkpt><trkpt lat="37.6165683" lon="15.0566933"><ele>614.2</ele><time>2026-04-26T08:53:59.202Z</time></trkpt><trkpt lat="37.61654" lon="15.0565867"><ele>615.0</ele><time>2026-04-26T08:54:01.202Z</time></trkpt><trkpt lat="37.616515" lon="15.0564983"><ele>615.8333333333334</ele><time>2026-04-26T08:54:03.202Z</time></trkpt><trkpt lat="37.6164883" lon="15.05642"><ele>616.6666666666666</ele><time>2026-04-26T08:54:05.202Z</time></trkpt><trkpt lat="37.6164683" lon="15.0563233"><ele>617.5</ele><time>2026-04-26T08:54:07.203Z</time></trkpt><trkpt lat="37.6164517" lon="15.0562217"><ele>618.3333333333333</ele><time>2026-04-26T08:54:09.201Z</time></trkpt><trkpt lat="37.6164283" lon="15.0561267"><ele>619.1666666666666</ele><time>2026-04-26T08:54:11.202Z</time></trkpt><trkpt lat="37.6164067" lon="15.0560217"><ele>620.0</ele><time>2026-04-26T08:54:13.201Z</time></trkpt><trkpt lat="37.616385" lon="15.0559067"><ele>620.0</ele><time>2026-04-26T08:54:15.201Z</time></trkpt><trkpt lat="37.6163683" lon="15.0557967"><ele>620.0</ele><time>2026-04-26T08:54:17.201Z</time></trkpt><trkpt lat="37.61634" lon="15.055685"><ele>620.0</ele><time>2026-04-26T08:54:19.201Z</time></trkpt><trkpt lat="37.6163133" lon="15.0555733"><ele>620.0</ele><time>2026-04-26T08:54:21.201Z</time></trkpt><trkpt lat="37.6162683" lon="15.0554617"><ele>620.0</ele><time>2026-04-26T08:54:23.201Z</time></trkpt><trkpt lat="37.6162533" lon="15.05538"><ele>620.0</ele><time>2026-04-26T08:54:25.201Z</time></trkpt><trkpt lat="37.6162333" lon="15.0552583"><ele>620.6</ele><time>2026-04-26T08:54:32.202Z</time></trkpt><trkpt lat="37.61621" lon="15.0551567"><ele>621.2</ele><time>2026-04-26T08:54:34.201Z</time></trkpt><trkpt lat="37.616195" lon="15.055025"><ele>621.8</ele><time>2026-04-26T08:54:36.201Z</time></trkpt><trkpt lat="37.616205" lon="15.05487"><ele>622.4</ele><time>2026-04-26T08:54:38.201Z</time></trkpt><trkpt lat="37.616185" lon="15.05472"><ele>623.0</ele><time>2026-04-26T08:54:40.201Z</time></trkpt><trkpt lat="37.6161767" lon="15.0545717"><ele>622.6</ele><time>2026-04-26T08:54:42.202Z</time></trkpt><trkpt lat="37.6161517" lon="15.0544217"><ele>622.1999999999999</ele><time>2026-04-26T08:54:44.201Z</time></trkpt><trkpt lat="37.61612" lon="15.0542983"><ele>621.8</ele><time>2026-04-26T08:54:46.201Z</time></trkpt><trkpt lat="37.616085" lon="15.0541933"><ele>621.4</ele><time>2026-04-26T08:54:48.201Z</time></trkpt><trkpt lat="37.6160633" lon="15.0540883"><ele>621.0</ele><time>2026-04-26T08:54:50.201Z</time></trkpt><trkpt lat="37.6160317" lon="15.05396"><ele>622.0</ele><time>2026-04-26T08:54:52.202Z</time></trkpt><trkpt lat="37.61602" lon="15.0538117"><ele>623.0</ele><time>2026-04-26T08:54:54.201Z</time></trkpt><trkpt lat="37.6160033" lon="15.0536633"><ele>624.0</ele><time>2026-04-26T08:54:56.202Z</time></trkpt><trkpt lat="37.615995" lon="15.05351"><ele>625.0</ele><time>2026-04-26T08:54:58.201Z</time></trkpt><trkpt lat="37.6159783" lon="15.05336"><ele>626.0</ele><time>2026-04-26T08:55:00.201Z</time></trkpt><trkpt lat="37.6159633" lon="15.0532783"><ele>627.0</ele><time>2026-04-26T08:55:01.201Z</time></trkpt><trkpt lat="37.61597" lon="15.0531183"><ele>628.0</ele><time>2026-04-26T08:55:03.201Z</time></trkpt><trkpt lat="37.615955" lon="15.0529583"><ele>629.0</ele><time>2026-04-26T08:55:05.201Z</time></trkpt><trkpt lat="37.6159383" lon="15.0528683"><ele>630.0</ele><time>2026-04-26T08:55:06.201Z</time></trkpt><trkpt lat="37.6159233" lon="15.0527767"><ele>630.0</ele><time>2026-04-26T08:55:07.201Z</time></trkpt><trkpt lat="37.6159083" lon="15.052685"><ele>630.0</ele><time>2026-04-26T08:55:08.201Z</time></trkpt><trkpt lat="37.6158967" lon="15.052595"><ele>630.0</ele><time>2026-04-26T08:55:09.201Z</time></trkpt><trkpt lat="37.6158817" lon="15.05251"><ele>630.0</ele><time>2026-04-26T08:55:10.201Z</time></trkpt><trkpt lat="37.6158717" lon="15.052425"><ele>630.0</ele><time>2026-04-26T08:55:11.201Z</time></trkpt><trkpt lat="37.6158583" lon="15.052345"><ele>630.0</ele><time>2026-04-26T08:55:12.201Z</time></trkpt><trkpt lat="37.61585" lon="15.05226"><ele>630.0</ele><time>2026-04-26T08:55:13.201Z</time></trkpt><trkpt lat="37.61583" lon="15.05212"><ele>631.4</ele><time>2026-04-26T08:55:15.201Z</time></trkpt><trkpt lat="37.6158067" lon="15.05199"><ele>632.8</ele><time>2026-04-26T08:55:17.201Z</time></trkpt><trkpt lat="37.6157983" lon="15.0518417"><ele>634.2</ele><time>2026-04-26T08:55:19.202Z</time></trkpt><trkpt lat="37.6158" lon="15.051685"><ele>635.6</ele><time>2026-04-26T08:55:21.202Z</time></trkpt><trkpt lat="37.6158017" lon="15.0516033"><ele>637.0</ele><time>2026-04-26T08:55:22.201Z</time></trkpt><trkpt lat="37.6158017" lon="15.0515133"><ele>637.1666666666667</ele><time>2026-04-26T08:55:23.202Z</time></trkpt><trkpt lat="37.615805" lon="15.05141"><ele>637.3333333333334</ele><time>2026-04-26T08:55:24.202Z</time></trkpt><trkpt lat="37.6158017" lon="15.0513033"><ele>637.5</ele><time>2026-04-26T08:55:25.201Z</time></trkpt><trkpt lat="37.6157983" lon="15.0512017"><ele>637.6666666666666</ele><time>2026-04-26T08:55:26.201Z</time></trkpt><trkpt lat="37.6157967" lon="15.0510917"><ele>637.8333333333333</ele><time>2026-04-26T08:55:27.201Z</time></trkpt><trkpt lat="37.6157817" lon="15.051"><ele>638.0</ele><time>2026-04-26T08:55:28.201Z</time></trkpt><trkpt lat="37.615775" lon="15.0508883"><ele>638.4</ele><time>2026-04-26T08:55:29.202Z</time></trkpt><trkpt lat="37.6157633" lon="15.0507783"><ele>638.8</ele><time>2026-04-26T08:55:30.201Z</time></trkpt><trkpt lat="37.6157583" lon="15.0506617"><ele>639.2</ele><time>2026-04-26T08:55:31.201Z</time></trkpt><trkpt lat="37.615755" lon="15.050545"><ele>639.6</ele><time>2026-04-26T08:55:32.202Z</time></trkpt><trkpt lat="37.61575" lon="15.0504267"><ele>640.0</ele><time>2026-04-26T08:55:33.201Z</time></trkpt><trkpt lat="37.6157483" lon="15.0503"><ele>640.0</ele><time>2026-04-26T08:55:34.201Z</time></trkpt><trkpt lat="37.6157367" lon="15.0501717"><ele>640.0</ele><time>2026-04-26T08:55:35.202Z</time></trkpt><trkpt lat="37.6157233" lon="15.0500417"><ele>640.0</ele><time>2026-04-26T08:55:36.201Z</time></trkpt><trkpt lat="37.6157083" lon="15.04991"><ele>640.0</ele><time>2026-04-26T08:55:37.201Z</time></trkpt><trkpt lat="37.61569" lon="15.04978"><ele>640.0</ele><time>2026-04-26T08:55:38.201Z</time></trkpt><trkpt lat="37.6156783" lon="15.0496333"><ele>640.6</ele><time>2026-04-26T08:55:39.201Z</time></trkpt><trkpt lat="37.615665" lon="15.0495083"><ele>641.2</ele><time>2026-04-26T08:55:40.201Z</time></trkpt><trkpt lat="37.61565" lon="15.049385"><ele>641.8</ele><time>2026-04-26T08:55:41.202Z</time></trkpt><trkpt lat="37.6156367" lon="15.0492483"><ele>642.4</ele><time>2026-04-26T08:55:42.201Z</time></trkpt><trkpt lat="37.61563" lon="15.0491083"><ele>643.0</ele><time>2026-04-26T08:55:43.201Z</time></trkpt><trkpt lat="37.6156117" lon="15.0489733"><ele>643.25</ele><time>2026-04-26T08:55:44.201Z</time></trkpt><trkpt lat="37.6156" lon="15.0488283"><ele>643.5</ele><time>2026-04-26T08:55:45.201Z</time></trkpt><trkpt lat="37.6155833" lon="15.0486833"><ele>643.75</ele><time>2026-04-26T08:55:46.201Z</time></trkpt><trkpt lat="37.6155683" lon="15.048535"><ele>644.0</ele><time>2026-04-26T08:55:47.201Z</time></trkpt><trkpt lat="37.615555" lon="15.04839"><ele>645.5</ele><time>2026-04-26T08:55:48.201Z</time></trkpt><trkpt lat="37.6155417" lon="15.04825"><ele>647.0</ele><time>2026-04-26T08:55:49.201Z</time></trkpt><trkpt lat="37.61553" lon="15.0481017"><ele>648.5</ele><time>2026-04-26T08:55:50.202Z</time></trkpt><trkpt lat="37.615515" lon="15.0479433"><ele>650.0</ele><time>2026-04-26T08:55:51.201Z</time></trkpt><trkpt lat="37.6154983" lon="15.0477883"><ele>650.0</ele><time>2026-04-26T08:55:52.201Z</time></trkpt><trkpt lat="37.615495" lon="15.047635"><ele>650.0</ele><time>2026-04-26T08:55:53.202Z</time></trkpt><trkpt lat="37.61548" lon="15.0474883"><ele>650.0</ele><time>2026-04-26T08:55:54.202Z</time></trkpt><trkpt lat="37.6154633" lon="15.0473317"><ele>650.0</ele><time>2026-04-26T08:55:55.202Z</time></trkpt><trkpt lat="37.6154517" lon="15.0471733"><ele>651.0</ele><time>2026-04-26T08:55:56.201Z</time></trkpt><trkpt lat="37.615445" lon="15.0470167"><ele>652.0</ele><time>2026-04-26T08:55:57.201Z</time></trkpt><trkpt lat="37.6154317" lon="15.0468767"><ele>653.0</ele><time>2026-04-26T08:55:58.201Z</time></trkpt><trkpt lat="37.6154183" lon="15.046725"><ele>654.0</ele><time>2026-04-26T08:55:59.201Z</time></trkpt><trkpt lat="37.6154183" lon="15.0465633"><ele>654.5</ele><time>2026-04-26T08:56:00.201Z</time></trkpt><trkpt lat="37.6154067" lon="15.046405"><ele>655.0</ele><time>2026-04-26T08:56:01.201Z</time></trkpt><trkpt lat="37.61541" lon="15.0462417"><ele>655.5</ele><time>2026-04-26T08:56:02.201Z</time></trkpt><trkpt lat="37.61541" lon="15.046075"><ele>656.0</ele><time>2026-04-26T08:56:03.201Z</time></trkpt><trkpt lat="37.6154117" lon="15.0459117"><ele>656.25</ele><time>2026-04-26T08:56:04.201Z</time></trkpt><trkpt lat="37.6154117" lon="15.0457417"><ele>656.5</ele><time>2026-04-26T08:56:05.201Z</time></trkpt><trkpt lat="37.61541" lon="15.0455717"><ele>656.75</ele><time>2026-04-26T08:56:06.201Z</time></trkpt><trkpt lat="37.6154067" lon="15.0454033"><ele>657.0</ele><time>2026-04-26T08:56:07.201Z</time></trkpt><trkpt lat="37.615405" lon="15.0452383"><ele>657.0</ele><time>2026-04-26T08:56:08.202Z</time></trkpt><trkpt lat="37.6154017" lon="15.0450817"><ele>657.0</ele><time>2026-04-26T08:56:09.201Z</time></trkpt><trkpt lat="37.615395" lon="15.04493"><ele>657.0</ele><time>2026-04-26T08:56:10.201Z</time></trkpt><trkpt lat="37.6154017" lon="15.0447817"><ele>657.0</ele><time>2026-04-26T08:56:11.201Z</time></trkpt><trkpt lat="37.6154067" lon="15.0446367"><ele>658.25</ele><time>2026-04-26T08:56:12.201Z</time></trkpt><trkpt lat="37.6154033" lon="15.0444967"><ele>659.5</ele><time>2026-04-26T08:56:13.201Z</time></trkpt><trkpt lat="37.6153983" lon="15.0443517"><ele>660.75</ele><time>2026-04-26T08:56:14.201Z</time></trkpt><trkpt lat="37.6154" lon="15.0441983"><ele>662.0</ele><time>2026-04-26T08:56:15.202Z</time></trkpt><trkpt lat="37.6153983" lon="15.044045"><ele>662.75</ele><time>2026-04-26T08:56:16.201Z</time></trkpt><trkpt lat="37.615385" lon="15.0438983"><ele>663.5</ele><time>2026-04-26T08:56:17.201Z</time></trkpt><trkpt lat="37.6153767" lon="15.043745"><ele>664.25</ele><time>2026-04-26T08:56:18.201Z</time></trkpt><trkpt lat="37.6153767" lon="15.043585"><ele>665.0</ele><time>2026-04-26T08:56:19.201Z</time></trkpt><trkpt lat="37.6153617" lon="15.0434433"><ele>665.6</ele><time>2026-04-26T08:56:20.201Z</time></trkpt><trkpt lat="37.6153533" lon="15.0432933"><ele>666.2</ele><time>2026-04-26T08:56:21.201Z</time></trkpt><trkpt lat="37.615345" lon="15.0431567"><ele>666.8</ele><time>2026-04-26T08:56:22.201Z</time></trkpt><trkpt lat="37.6153183" lon="15.0430283"><ele>667.4</ele><time>2026-04-26T08:56:23.202Z</time></trkpt><trkpt lat="37.6152983" lon="15.0428917"><ele>668.0</ele><time>2026-04-26T08:56:24.201Z</time></trkpt><trkpt lat="37.6152783" lon="15.042745"><ele>666.75</ele><time>2026-04-26T08:56:25.202Z</time></trkpt><trkpt lat="37.6152533" lon="15.0425983"><ele>665.5</ele><time>2026-04-26T08:56:26.201Z</time></trkpt><trkpt lat="37.6152333" lon="15.0424433"><ele>664.25</ele><time>2026-04-26T08:56:27.201Z</time></trkpt><trkpt lat="37.6152117" lon="15.0422883"><ele>663.0</ele><time>2026-04-26T08:56:28.201Z</time></trkpt><trkpt lat="37.6151883" lon="15.0421317"><ele>663.0</ele><time>2026-04-26T08:56:29.202Z</time></trkpt><trkpt lat="37.615165" lon="15.04196"><ele>663.0</ele><time>2026-04-26T08:56:30.201Z</time></trkpt><trkpt lat="37.6151367" lon="15.0417717"><ele>663.0</ele><time>2026-04-26T08:56:31.201Z</time></trkpt><trkpt lat="37.6151067" lon="15.0416"><ele>663.0</ele><time>2026-04-26T08:56:32.201Z</time></trkpt><trkpt lat="37.615095" lon="15.041435"><ele>664.25</ele><time>2026-04-26T08:56:33.201Z</time></trkpt><trkpt lat="37.61508" lon="15.0412783"><ele>665.5</ele><time>2026-04-26T08:56:34.201Z</time></trkpt><trkpt lat="37.6150683" lon="15.0411317"><ele>666.75</ele><time>2026-04-26T08:56:35.201Z</time></trkpt><trkpt lat="37.6150467" lon="15.041"><ele>668.0</ele><time>2026-04-26T08:56:36.201Z</time></trkpt><trkpt lat="37.615035" lon="15.0408717"><ele>668.25</ele><time>2026-04-26T08:56:37.201Z</time></trkpt><trkpt lat="37.61502" lon="15.0407283"><ele>668.5</ele><time>2026-04-26T08:56:38.201Z</time></trkpt><trkpt lat="37.615" lon="15.04058"><ele>668.75</ele><time>2026-04-26T08:56:39.202Z</time></trkpt><trkpt lat="37.61498" lon="15.0404267"><ele>669.0</ele><time>2026-04-26T08:56:40.202Z</time></trkpt><trkpt lat="37.6149617" lon="15.0402767"><ele>669.0</ele><time>2026-04-26T08:56:41.201Z</time></trkpt><trkpt lat="37.6149433" lon="15.0401333"><ele>669.0</ele><time>2026-04-26T08:56:42.201Z</time></trkpt><trkpt lat="37.61493" lon="15.0399867"><ele>669.0</ele><time>2026-04-26T08:56:43.201Z</time></trkpt><trkpt lat="37.6149117" lon="15.0398283"><ele>669.0</ele><time>2026-04-26T08:56:44.201Z</time></trkpt><trkpt lat="37.6148883" lon="15.0396817"><ele>669.5</ele><time>2026-04-26T08:56:45.202Z</time></trkpt><trkpt lat="37.6148617" lon="15.0395333"><ele>670.0</ele><time>2026-04-26T08:56:46.202Z</time></trkpt><trkpt lat="37.6148433" lon="15.0393867"><ele>670.5</ele><time>2026-04-26T08:56:47.201Z</time></trkpt><trkpt lat="37.6148267" lon="15.0392367"><ele>671.0</ele><time>2026-04-26T08:56:48.201Z</time></trkpt><trkpt lat="37.6148033" lon="15.0390867"><ele>671.5</ele><time>2026-04-26T08:56:49.201Z</time></trkpt><trkpt lat="37.6147833" lon="15.038935"><ele>672.0</ele><time>2026-04-26T08:56:50.202Z</time></trkpt><trkpt lat="37.6147667" lon="15.03878"><ele>672.5</ele><time>2026-04-26T08:56:51.201Z</time></trkpt><trkpt lat="37.6147517" lon="15.0386283"><ele>673.0</ele><time>2026-04-26T08:56:52.201Z</time></trkpt><trkpt lat="37.6147367" lon="15.0384767"><ele>673.0</ele><time>2026-04-26T08:56:53.201Z</time></trkpt><trkpt lat="37.61473" lon="15.038335"><ele>673.0</ele><time>2026-04-26T08:56:54.201Z</time></trkpt><trkpt lat="37.6147033" lon="15.0381917"><ele>673.0</ele><time>2026-04-26T08:56:55.201Z</time></trkpt><trkpt lat="37.6146833" lon="15.0380433"><ele>673.0</ele><time>2026-04-26T08:56:56.201Z</time></trkpt><trkpt lat="37.6146533" lon="15.0378933"><ele>672.8</ele><time>2026-04-26T08:56:57.201Z</time></trkpt><trkpt lat="37.6146367" lon="15.0377467"><ele>672.5999999999999</ele><time>2026-04-26T08:56:58.201Z</time></trkpt><trkpt lat="37.6146117" lon="15.0376167"><ele>672.4000000000001</ele><time>2026-04-26T08:56:59.201Z</time></trkpt><trkpt lat="37.6145967" lon="15.0374867"><ele>672.2</ele><time>2026-04-26T08:57:00.201Z</time></trkpt><trkpt lat="37.6145783" lon="15.03737"><ele>672.0</ele><time>2026-04-26T08:57:01.201Z</time></trkpt><trkpt lat="37.6145633" lon="15.0372567"><ele>672.0</ele><time>2026-04-26T08:57:02.201Z</time></trkpt><trkpt lat="37.6145533" lon="15.0371383"><ele>672.0</ele><time>2026-04-26T08:57:03.201Z</time></trkpt><trkpt lat="37.61455" lon="15.037015"><ele>672.0</ele><time>2026-04-26T08:57:04.201Z</time></trkpt><trkpt lat="37.614535" lon="15.0368983"><ele>672.0</ele><time>2026-04-26T08:57:05.201Z</time></trkpt><trkpt lat="37.6145233" lon="15.0367883"><ele>672.0</ele><time>2026-04-26T08:57:06.201Z</time></trkpt><trkpt lat="37.6145167" lon="15.036695"><ele>672.0</ele><time>2026-04-26T08:57:07.202Z</time></trkpt><trkpt lat="37.6145183" lon="15.0366033"><ele>672.4000000000001</ele><time>2026-04-26T08:57:08.201Z</time></trkpt><trkpt lat="37.6145267" lon="15.0365233"><ele>672.8000000000001</ele><time>2026-04-26T08:57:09.201Z</time></trkpt><trkpt lat="37.6146" lon="15.0364033"><ele>673.2</ele><time>2026-04-26T08:57:11.201Z</time></trkpt><trkpt lat="37.6146933" lon="15.0362733"><ele>673.6</ele><time>2026-04-26T08:57:13.201Z</time></trkpt><trkpt lat="37.61475" lon="15.0361883"><ele>674.0</ele><time>2026-04-26T08:57:14.201Z</time></trkpt><trkpt lat="37.6148167" lon="15.03608"><ele>674.0</ele><time>2026-04-26T08:57:15.202Z</time></trkpt><trkpt lat="37.6148783" lon="15.0359483"><ele>674.0</ele><time>2026-04-26T08:57:16.201Z</time></trkpt><trkpt lat="37.61495" lon="15.0358033"><ele>674.0</ele><time>2026-04-26T08:57:17.201Z</time></trkpt><trkpt lat="37.615025" lon="15.0356517"><ele>674.0</ele><time>2026-04-26T08:57:18.201Z</time></trkpt><trkpt lat="37.6151017" lon="15.0354867"><ele>675.0</ele><time>2026-04-26T08:57:19.201Z</time></trkpt><trkpt lat="37.6151867" lon="15.03531"><ele>676.0</ele><time>2026-04-26T08:57:20.201Z</time></trkpt><trkpt lat="37.6152733" lon="15.0351417"><ele>677.0</ele><time>2026-04-26T08:57:21.201Z</time></trkpt><trkpt lat="37.6153617" lon="15.0349733"><ele>679.5</ele><time>2026-04-26T08:57:22.201Z</time></trkpt><trkpt lat="37.6154517" lon="15.0348"><ele>682.0</ele><time>2026-04-26T08:57:23.201Z</time></trkpt><trkpt lat="37.6155267" lon="15.034655"><ele>684.5</ele><time>2026-04-26T08:57:24.201Z</time></trkpt><trkpt lat="37.6156" lon="15.0345283"><ele>687.0</ele><time>2026-04-26T08:57:25.202Z</time></trkpt><trkpt lat="37.6156617" lon="15.0344133"><ele>687.0</ele><time>2026-04-26T08:57:26.201Z</time></trkpt><trkpt lat="37.61572" lon="15.0343067"><ele>687.0</ele><time>2026-04-26T08:57:27.201Z</time></trkpt><trkpt lat="37.6157767" lon="15.03421"><ele>687.0</ele><time>2026-04-26T08:57:28.201Z</time></trkpt><trkpt lat="37.615825" lon="15.034115"><ele>687.0</ele><time>2026-04-26T08:57:29.201Z</time></trkpt><trkpt lat="37.6158717" lon="15.03402"><ele>687.0</ele><time>2026-04-26T08:57:30.201Z</time></trkpt><trkpt lat="37.6159233" lon="15.03392"><ele>688.6</ele><time>2026-04-26T08:57:31.201Z</time></trkpt><trkpt lat="37.6159783" lon="15.0338167"><ele>690.2</ele><time>2026-04-26T08:57:32.201Z</time></trkpt><trkpt lat="37.6160267" lon="15.0337167"><ele>691.8</ele><time>2026-04-26T08:57:33.201Z</time></trkpt><trkpt lat="37.616075" lon="15.03362"><ele>693.4</ele><time>2026-04-26T08:57:34.201Z</time></trkpt><trkpt lat="37.616115" lon="15.0335217"><ele>695.0</ele><time>2026-04-26T08:57:35.201Z</time></trkpt><trkpt lat="37.6161633" lon="15.0334033"><ele>698.0</ele><time>2026-04-26T08:57:36.201Z</time></trkpt><trkpt lat="37.61621" lon="15.033275"><ele>701.0</ele><time>2026-04-26T08:57:37.201Z</time></trkpt><trkpt lat="37.6162483" lon="15.0331383"><ele>704.0</ele><time>2026-04-26T08:57:38.201Z</time></trkpt><trkpt lat="37.6163" lon="15.0329717"><ele>707.0</ele><time>2026-04-26T08:57:39.201Z</time></trkpt><trkpt lat="37.616355" lon="15.032795"><ele>707.0</ele><time>2026-04-26T08:57:40.201Z</time></trkpt><trkpt lat="37.6164083" lon="15.0326083"><ele>707.0</ele><time>2026-04-26T08:57:41.201Z</time></trkpt><trkpt lat="37.6164633" lon="15.032415"><ele>707.0</ele><time>2026-04-26T08:57:42.201Z</time></trkpt><trkpt lat="37.616515" lon="15.0322317"><ele>707.3333333333333</ele><time>2026-04-26T08:57:43.201Z</time></trkpt><trkpt lat="37.616555" lon="15.0320467"><ele>707.6666666666666</ele><time>2026-04-26T08:57:44.201Z</time></trkpt><trkpt lat="37.6165983" lon="15.031855"><ele>708.0</ele><time>2026-04-26T08:57:45.201Z</time></trkpt><trkpt lat="37.6166383" lon="15.031665"><ele>708.0</ele><time>2026-04-26T08:57:46.201Z</time></trkpt><trkpt lat="37.616685" lon="15.0314767"><ele>708.0</ele><time>2026-04-26T08:57:47.201Z</time></trkpt><trkpt lat="37.61674" lon="15.031285"><ele>708.0</ele><time>2026-04-26T08:57:48.201Z</time></trkpt><trkpt lat="37.6167867" lon="15.031095"><ele>708.0</ele><time>2026-04-26T08:57:49.202Z</time></trkpt><trkpt lat="37.6168317" lon="15.0309133"><ele>708.0</ele><time>2026-04-26T08:57:50.201Z</time></trkpt><trkpt lat="37.6168683" lon="15.0307417"><ele>708.0</ele><time>2026-04-26T08:57:51.201Z</time></trkpt><trkpt lat="37.616915" lon="15.0305717"><ele>708.0</ele><time>2026-04-26T08:57:52.201Z</time></trkpt><trkpt lat="37.6169533" lon="15.0304167"><ele>711.0</ele><time>2026-04-26T08:57:53.201Z</time></trkpt><trkpt lat="37.61699" lon="15.0302733"><ele>714.0</ele><time>2026-04-26T08:57:54.201Z</time></trkpt><trkpt lat="37.617025" lon="15.0301433"><ele>717.0</ele><time>2026-04-26T08:57:55.202Z</time></trkpt><trkpt lat="37.6170617" lon="15.0300117"><ele>720.0</ele><time>2026-04-26T08:57:56.201Z</time></trkpt><trkpt lat="37.617095" lon="15.0298717"><ele>720.0</ele><time>2026-04-26T08:57:57.201Z</time></trkpt><trkpt lat="37.617125" lon="15.0297167"><ele>720.0</ele><time>2026-04-26T08:57:58.201Z</time></trkpt><trkpt lat="37.6171517" lon="15.0295467"><ele>720.0</ele><time>2026-04-26T08:57:59.201Z</time></trkpt><trkpt lat="37.6171683" lon="15.0293683"><ele>720.0</ele><time>2026-04-26T08:58:00.201Z</time></trkpt><trkpt lat="37.6171683" lon="15.029185"><ele>721.0</ele><time>2026-04-26T08:58:01.201Z</time></trkpt><trkpt lat="37.6171567" lon="15.029015"><ele>722.0</ele><time>2026-04-26T08:58:02.201Z</time></trkpt><trkpt lat="37.6171483" lon="15.028855"><ele>723.0</ele><time>2026-04-26T08:58:03.201Z</time></trkpt><trkpt lat="37.6171367" lon="15.02871"><ele>724.0</ele><time>2026-04-26T08:58:04.201Z</time></trkpt><trkpt lat="37.6171217" lon="15.02858"><ele>724.0</ele><time>2026-04-26T08:58:05.201Z</time></trkpt><trkpt lat="37.6171017" lon="15.028455"><ele>724.0</ele><time>2026-04-26T08:58:06.201Z</time></trkpt><trkpt lat="37.6171" lon="15.0283333"><ele>724.0</ele><time>2026-04-26T08:58:07.202Z</time></trkpt><trkpt lat="37.6171083" lon="15.0282117"><ele>724.0</ele><time>2026-04-26T08:58:08.201Z</time></trkpt><trkpt lat="37.6171333" lon="15.02809"><ele>724.0</ele><time>2026-04-26T08:58:09.202Z</time></trkpt><trkpt lat="37.617155" lon="15.0279783"><ele>724.4000000000001</ele><time>2026-04-26T08:58:10.201Z</time></trkpt><trkpt lat="37.6171833" lon="15.0278683"><ele>724.8</ele><time>2026-04-26T08:58:11.201Z</time></trkpt><trkpt lat="37.61721" lon="15.0277567"><ele>725.2</ele><time>2026-04-26T08:58:12.202Z</time></trkpt><trkpt lat="37.6172483" lon="15.0276433"><ele>725.5999999999999</ele><time>2026-04-26T08:58:13.201Z</time></trkpt><trkpt lat="37.6172817" lon="15.027525"><ele>726.0</ele><time>2026-04-26T08:58:14.202Z</time></trkpt><trkpt lat="37.6173167" lon="15.02742"><ele>726.0</ele><time>2026-04-26T08:58:15.201Z</time></trkpt><trkpt lat="37.6173483" lon="15.0273133"><ele>726.0</ele><time>2026-04-26T08:58:16.201Z</time></trkpt><trkpt lat="37.6173783" lon="15.02722"><ele>726.0</ele><time>2026-04-26T08:58:17.202Z</time></trkpt><trkpt lat="37.6174117" lon="15.0271233"><ele>726.0</ele><time>2026-04-26T08:58:18.201Z</time></trkpt><trkpt lat="37.6174533" lon="15.0270433"><ele>726.0</ele><time>2026-04-26T08:58:19.201Z</time></trkpt><trkpt lat="37.6175" lon="15.0269667"><ele>726.0</ele><time>2026-04-26T08:58:20.201Z</time></trkpt><trkpt lat="37.6175567" lon="15.026895"><ele>726.0</ele><time>2026-04-26T08:58:21.201Z</time></trkpt><trkpt lat="37.6176067" lon="15.0268217"><ele>726.0</ele><time>2026-04-26T08:58:22.201Z</time></trkpt><trkpt lat="37.6176667" lon="15.0267467"><ele>726.0</ele><time>2026-04-26T08:58:23.201Z</time></trkpt><trkpt lat="37.617725" lon="15.0266817"><ele>726.0</ele><time>2026-04-26T08:58:24.201Z</time></trkpt><trkpt lat="37.617785" lon="15.026605"><ele>726.0</ele><time>2026-04-26T08:58:25.201Z</time></trkpt><trkpt lat="37.6178383" lon="15.026525"><ele>726.0</ele><time>2026-04-26T08:58:26.202Z</time></trkpt><trkpt lat="37.6178867" lon="15.026455"><ele>726.5714285714286</ele><time>2026-04-26T08:58:27.202Z</time></trkpt><trkpt lat="37.6179283" lon="15.0263817"><ele>727.1428571428571</ele><time>2026-04-26T08:58:28.202Z</time></trkpt><trkpt lat="37.61797" lon="15.026315"><ele>727.7142857142858</ele><time>2026-04-26T08:58:29.201Z</time></trkpt><trkpt lat="37.61801" lon="15.0262517"><ele>728.2857142857142</ele><time>2026-04-26T08:58:30.201Z</time></trkpt><trkpt lat="37.618055" lon="15.0261817"><ele>728.8571428571429</ele><time>2026-04-26T08:58:31.202Z</time></trkpt><trkpt lat="37.6181017" lon="15.0261"><ele>729.4285714285714</ele><time>2026-04-26T08:58:32.201Z</time></trkpt><trkpt lat="37.6181417" lon="15.0260267"><ele>730.0</ele><time>2026-04-26T08:58:33.201Z</time></trkpt><trkpt lat="37.6182" lon="15.0259033"><ele>730.4</ele><time>2026-04-26T08:58:35.201Z</time></trkpt><trkpt lat="37.618225" lon="15.0257767"><ele>730.8</ele><time>2026-04-26T08:58:37.201Z</time></trkpt><trkpt lat="37.61819" lon="15.0256733"><ele>731.2</ele><time>2026-04-26T08:58:39.201Z</time></trkpt><trkpt lat="37.618115" lon="15.0256183"><ele>731.6</ele><time>2026-04-26T08:58:41.201Z</time></trkpt><trkpt lat="37.6180333" lon="15.0255633"><ele>732.0</ele><time>2026-04-26T08:58:43.201Z</time></trkpt><trkpt lat="37.6179633" lon="15.0254467"><ele>732.0</ele><time>2026-04-26T08:58:45.201Z</time></trkpt><trkpt lat="37.6178983" lon="15.025295"><ele>732.0</ele><time>2026-04-26T08:58:47.202Z</time></trkpt><trkpt lat="37.6178583" lon="15.02521"><ele>732.0</ele><time>2026-04-26T08:58:48.202Z</time></trkpt><trkpt lat="37.6178133" lon="15.02512"><ele>732.0</ele><time>2026-04-26T08:58:49.201Z</time></trkpt><trkpt lat="37.6177717" lon="15.02503"><ele>732.0</ele><time>2026-04-26T08:58:50.201Z</time></trkpt><trkpt lat="37.6177183" lon="15.024945"><ele>731.4000000000001</ele><time>2026-04-26T08:58:51.201Z</time></trkpt><trkpt lat="37.6176717" lon="15.0248533"><ele>730.8000000000001</ele><time>2026-04-26T08:58:52.201Z</time></trkpt><trkpt lat="37.6176283" lon="15.0247667"><ele>730.2</ele><time>2026-04-26T08:58:53.201Z</time></trkpt><trkpt lat="37.6175967" lon="15.024685"><ele>729.6</ele><time>2026-04-26T08:58:54.202Z</time></trkpt><trkpt lat="37.61754" lon="15.02457"><ele>729.0</ele><time>2026-04-26T08:58:56.201Z</time></trkpt><trkpt lat="37.617485" lon="15.024435"><ele>729.0</ele><time>2026-04-26T08:58:58.201Z</time></trkpt><trkpt lat="37.6174483" lon="15.0243133"><ele>729.0</ele><time>2026-04-26T08:59:00.201Z</time></trkpt><trkpt lat="37.6173883" lon="15.0241983"><ele>729.0</ele><time>2026-04-26T08:59:02.201Z</time></trkpt><trkpt lat="37.6173183" lon="15.0240967"><ele>729.0</ele><time>2026-04-26T08:59:04.201Z</time></trkpt><trkpt lat="37.6172717" lon="15.0239767"><ele>729.0</ele><time>2026-04-26T08:59:06.202Z</time></trkpt><trkpt lat="37.617205" lon="15.0239083"><ele>729.4000000000001</ele><time>2026-04-26T08:59:08.202Z</time></trkpt><trkpt lat="37.61714" lon="15.0238517"><ele>729.8</ele><time>2026-04-26T08:59:10.201Z</time></trkpt><trkpt lat="37.6171083" lon="15.0237483"><ele>730.2</ele><time>2026-04-26T08:59:14.201Z</time></trkpt><trkpt lat="37.617045" lon="15.0236433"><ele>730.5999999999999</ele><time>2026-04-26T08:59:17.201Z</time></trkpt><trkpt lat="37.616985" lon="15.0235267"><ele>731.0</ele><time>2026-04-26T08:59:19.201Z</time></trkpt><trkpt lat="37.6169283" lon="15.0233917"><ele>730.1666666666666</ele><time>2026-04-26T08:59:21.201Z</time></trkpt><trkpt lat="37.6168933" lon="15.0233217"><ele>729.3333333333333</ele><time>2026-04-26T08:59:22.201Z</time></trkpt><trkpt lat="37.6168183" lon="15.0231867"><ele>728.5</ele><time>2026-04-26T08:59:24.202Z</time></trkpt><trkpt lat="37.6167717" lon="15.0231017"><ele>727.6666666666666</ele><time>2026-04-26T08:59:25.201Z</time></trkpt><trkpt lat="37.616725" lon="15.0230117"><ele>726.8333333333334</ele><time>2026-04-26T08:59:26.201Z</time></trkpt><trkpt lat="37.61668" lon="15.0229233"><ele>726.0</ele><time>2026-04-26T08:59:27.201Z</time></trkpt><trkpt lat="37.6166333" lon="15.022835"><ele>726.0</ele><time>2026-04-26T08:59:28.201Z</time></trkpt><trkpt lat="37.6165867" lon="15.0227333"><ele>726.0</ele><time>2026-04-26T08:59:29.201Z</time></trkpt><trkpt lat="37.6165417" lon="15.0226417"><ele>726.0</ele><time>2026-04-26T08:59:30.201Z</time></trkpt><trkpt lat="37.6164817" lon="15.0225417"><ele>726.0</ele><time>2026-04-26T08:59:31.201Z</time></trkpt><trkpt lat="37.616425" lon="15.0224483"><ele>726.0</ele><time>2026-04-26T08:59:32.201Z</time></trkpt><trkpt lat="37.6163633" lon="15.0223367"><ele>726.0</ele><time>2026-04-26T08:59:33.202Z</time></trkpt><trkpt lat="37.6162983" lon="15.0222167"><ele>726.0</ele><time>2026-04-26T08:59:34.201Z</time></trkpt><trkpt lat="37.616245" lon="15.0221033"><ele>726.0</ele><time>2026-04-26T08:59:35.201Z</time></trkpt><trkpt lat="37.6161883" lon="15.02199"><ele>726.0</ele><time>2026-04-26T08:59:36.201Z</time></trkpt><trkpt lat="37.6161267" lon="15.02189"><ele>726.0</ele><time>2026-04-26T08:59:37.201Z</time></trkpt><trkpt lat="37.61607" lon="15.0217917"><ele>726.0</ele><time>2026-04-26T08:59:38.201Z</time></trkpt><trkpt lat="37.6160233" lon="15.0216883"><ele>726.0</ele><time>2026-04-26T08:59:39.201Z</time></trkpt><trkpt lat="37.61598" lon="15.0215883"><ele>726.0</ele><time>2026-04-26T08:59:40.201Z</time></trkpt><trkpt lat="37.615925" lon="15.0214867"><ele>726.0</ele><time>2026-04-26T08:59:41.201Z</time></trkpt><trkpt lat="37.6158767" lon="15.0213867"><ele>726.0</ele><time>2026-04-26T08:59:42.201Z</time></trkpt><trkpt lat="37.6158367" lon="15.0212917"><ele>726.6666666666666</ele><time>2026-04-26T08:59:43.201Z</time></trkpt><trkpt lat="37.6157883" lon="15.02121"><ele>727.3333333333334</ele><time>2026-04-26T08:59:44.201Z</time></trkpt><trkpt lat="37.61575" lon="15.0211367"><ele>728.0</ele><time>2026-04-26T08:59:45.201Z</time></trkpt><trkpt lat="37.615695" lon="15.0210117"><ele>728.6666666666667</ele><time>2026-04-26T08:59:47.201Z</time></trkpt><trkpt lat="37.6156467" lon="15.020915"><ele>729.3333333333334</ele><time>2026-04-26T08:59:49.201Z</time></trkpt><trkpt lat="37.6156067" lon="15.02081"><ele>730.0</ele><time>2026-04-26T08:59:51.201Z</time></trkpt><trkpt lat="37.61555" lon="15.02068"><ele>730.2</ele><time>2026-04-26T08:59:53.202Z</time></trkpt><trkpt lat="37.615505" lon="15.0206183"><ele>730.4</ele><time>2026-04-26T08:59:54.202Z</time></trkpt><trkpt lat="37.6154533" lon="15.0205383"><ele>730.5999999999999</ele><time>2026-04-26T08:59:55.201Z</time></trkpt><trkpt lat="37.6153917" lon="15.0204433"><ele>730.8</ele><time>2026-04-26T08:59:56.202Z</time></trkpt><trkpt lat="37.6153233" lon="15.0203183"><ele>731.0</ele><time>2026-04-26T08:59:57.201Z</time></trkpt><trkpt lat="37.61525" lon="15.02018"><ele>731.0</ele><time>2026-04-26T08:59:58.201Z</time></trkpt><trkpt lat="37.6151683" lon="15.02002"><ele>731.0</ele><time>2026-04-26T08:59:59.201Z</time></trkpt><trkpt lat="37.61508" lon="15.019875"><ele>731.0</ele><time>2026-04-26T09:00:00.201Z</time></trkpt><trkpt lat="37.615" lon="15.019725"><ele>731.0</ele><time>2026-04-26T09:00:01.202Z</time></trkpt><trkpt lat="37.6149333" lon="15.0195717"><ele>733.0</ele><time>2026-04-26T09:00:02.201Z</time></trkpt><trkpt lat="37.6148683" lon="15.0194067"><ele>735.0</ele><time>2026-04-26T09:00:03.202Z</time></trkpt><trkpt lat="37.61482" lon="15.0192417"><ele>737.0</ele><time>2026-04-26T09:00:04.201Z</time></trkpt><trkpt lat="37.614785" lon="15.0190617"><ele>739.0</ele><time>2026-04-26T09:00:05.201Z</time></trkpt><trkpt lat="37.6147917" lon="15.0188967"><ele>740.5</ele><time>2026-04-26T09:00:06.201Z</time></trkpt><trkpt lat="37.614825" lon="15.01873"><ele>742.0</ele><time>2026-04-26T09:00:07.201Z</time></trkpt><trkpt lat="37.6148767" lon="15.0185667"><ele>743.5</ele><time>2026-04-26T09:00:08.201Z</time></trkpt><trkpt lat="37.6149433" lon="15.0183817"><ele>745.0</ele><time>2026-04-26T09:00:09.201Z</time></trkpt><trkpt lat="37.615035" lon="15.0181883"><ele>746.3333333333334</ele><time>2026-04-26T09:00:10.201Z</time></trkpt><trkpt lat="37.615115" lon="15.0179983"><ele>747.6666666666666</ele><time>2026-04-26T09:00:11.201Z</time></trkpt><trkpt lat="37.6151933" lon="15.0178133"><ele>749.0</ele><time>2026-04-26T09:00:12.201Z</time></trkpt><trkpt lat="37.6152617" lon="15.0176367"><ele>751.75</ele><time>2026-04-26T09:00:13.201Z</time></trkpt><trkpt lat="37.6153283" lon="15.0174833"><ele>754.5</ele><time>2026-04-26T09:00:14.201Z</time></trkpt><trkpt lat="37.615385" lon="15.0173367"><ele>757.25</ele><time>2026-04-26T09:00:15.201Z</time></trkpt><trkpt lat="37.61543" lon="15.0171983"><ele>760.0</ele><time>2026-04-26T09:00:16.201Z</time></trkpt><trkpt lat="37.6154583" lon="15.017075"><ele>760.0</ele><time>2026-04-26T09:00:17.201Z</time></trkpt><trkpt lat="37.6154817" lon="15.0169633"><ele>760.0</ele><time>2026-04-26T09:00:18.202Z</time></trkpt><trkpt lat="37.61551" lon="15.0168867"><ele>760.0</ele><time>2026-04-26T09:00:19.201Z</time></trkpt><trkpt lat="37.61559" lon="15.0167883"><ele>760.0</ele><time>2026-04-26T09:00:21.202Z</time></trkpt><trkpt lat="37.615665" lon="15.016695"><ele>760.0</ele><time>2026-04-26T09:00:23.201Z</time></trkpt><trkpt lat="37.6156483" lon="15.0165283"><ele>760.0</ele><time>2026-04-26T09:00:25.201Z</time></trkpt><trkpt lat="37.615615" lon="15.01641"><ele>760.0</ele><time>2026-04-26T09:00:26.202Z</time></trkpt><trkpt lat="37.615605" lon="15.016265"><ele>760.0</ele><time>2026-04-26T09:00:27.201Z</time></trkpt><trkpt lat="37.6155983" lon="15.0161017"><ele>760.0</ele><time>2026-04-26T09:00:28.201Z</time></trkpt><trkpt lat="37.6155967" lon="15.0159167"><ele>761.0</ele><time>2026-04-26T09:00:29.201Z</time></trkpt><trkpt lat="37.6155967" lon="15.0156967"><ele>762.0</ele><time>2026-04-26T09:00:30.201Z</time></trkpt><trkpt lat="37.6155983" lon="15.0154583"><ele>763.0</ele><time>2026-04-26T09:00:31.201Z</time></trkpt><trkpt lat="37.615595" lon="15.0151967"><ele>763.3333333333334</ele><time>2026-04-26T09:00:32.202Z</time></trkpt><trkpt lat="37.6155917" lon="15.0149217"><ele>763.6666666666666</ele><time>2026-04-26T09:00:33.201Z</time></trkpt><trkpt lat="37.6155933" lon="15.0146367"><ele>764.0</ele><time>2026-04-26T09:00:34.201Z</time></trkpt><trkpt lat="37.61559" lon="15.0143367"><ele>764.5</ele><time>2026-04-26T09:00:35.201Z</time></trkpt><trkpt lat="37.6155867" lon="15.0140417"><ele>765.0</ele><time>2026-04-26T09:00:36.201Z</time></trkpt><trkpt lat="37.61558" lon="15.0137533"><ele>765.0</ele><time>2026-04-26T09:00:37.201Z</time></trkpt><trkpt lat="37.6155733" lon="15.0134683"><ele>765.0</ele><time>2026-04-26T09:00:38.202Z</time></trkpt><trkpt lat="37.61557" lon="15.0132017"><ele>765.0</ele><time>2026-04-26T09:00:39.201Z</time></trkpt><trkpt lat="37.6155683" lon="15.0129333"><ele>765.3333333333334</ele><time>2026-04-26T09:00:40.201Z</time></trkpt><trkpt lat="37.615565" lon="15.0126733"><ele>765.6666666666667</ele><time>2026-04-26T09:00:41.201Z</time></trkpt><trkpt lat="37.61555" lon="15.0124233"><ele>766.0</ele><time>2026-04-26T09:00:42.202Z</time></trkpt><trkpt lat="37.61556" lon="15.0121617"><ele>766.0</ele><time>2026-04-26T09:00:43.202Z</time></trkpt><trkpt lat="37.615565" lon="15.01191"><ele>766.0</ele><time>2026-04-26T09:00:44.201Z</time></trkpt><trkpt lat="37.615565" lon="15.01167"><ele>766.0</ele><time>2026-04-26T09:00:45.201Z</time></trkpt><trkpt lat="37.6155617" lon="15.0114383"><ele>764.3333333333334</ele><time>2026-04-26T09:00:46.202Z</time></trkpt><trkpt lat="37.6155567" lon="15.01122"><ele>762.6666666666666</ele><time>2026-04-26T09:00:47.201Z</time></trkpt><trkpt lat="37.6155533" lon="15.0110017"><ele>761.0</ele><time>2026-04-26T09:00:48.201Z</time></trkpt><trkpt lat="37.6155567" lon="15.0107867"><ele>756.3333333333333</ele><time>2026-04-26T09:00:49.201Z</time></trkpt><trkpt lat="37.6155717" lon="15.0105733"><ele>751.6666666666666</ele><time>2026-04-26T09:00:50.201Z</time></trkpt><trkpt lat="37.6156017" lon="15.0103667"><ele>747.0</ele><time>2026-04-26T09:00:51.201Z</time></trkpt><trkpt lat="37.6156467" lon="15.0101583"><ele>741.0</ele><time>2026-04-26T09:00:52.202Z</time></trkpt><trkpt lat="37.6157167" lon="15.0099417"><ele>735.0</ele><time>2026-04-26T09:00:53.201Z</time></trkpt><trkpt lat="37.61581" lon="15.00974"><ele>729.0</ele><time>2026-04-26T09:00:54.201Z</time></trkpt><trkpt lat="37.615905" lon="15.0095433"><ele>729.0</ele><time>2026-04-26T09:00:55.202Z</time></trkpt><trkpt lat="37.6160033" lon="15.0093433"><ele>729.0</ele><time>2026-04-26T09:00:56.202Z</time></trkpt><trkpt lat="37.61611" lon="15.0091517"><ele>729.0</ele><time>2026-04-26T09:00:57.201Z</time></trkpt><trkpt lat="37.6162083" lon="15.0089517"><ele>733.0</ele><time>2026-04-26T09:00:58.201Z</time></trkpt><trkpt lat="37.6163067" lon="15.008755"><ele>737.0</ele><time>2026-04-26T09:00:59.201Z</time></trkpt><trkpt lat="37.6164033" lon="15.008555"><ele>741.0</ele><time>2026-04-26T09:01:00.201Z</time></trkpt><trkpt lat="37.6165" lon="15.008355"><ele>736.6666666666666</ele><time>2026-04-26T09:01:01.201Z</time></trkpt><trkpt lat="37.6165917" lon="15.0081583"><ele>732.3333333333333</ele><time>2026-04-26T09:01:02.201Z</time></trkpt><trkpt lat="37.61668" lon="15.00795"><ele>728.0</ele><time>2026-04-26T09:01:03.201Z</time></trkpt><trkpt lat="37.6167583" lon="15.00774"><ele>728.0</ele><time>2026-04-26T09:01:04.201Z</time></trkpt><trkpt lat="37.616825" lon="15.00753"><ele>728.0</ele><time>2026-04-26T09:01:05.201Z</time></trkpt><trkpt lat="37.6168667" lon="15.0073083"><ele>728.0</ele><time>2026-04-26T09:01:06.201Z</time></trkpt><trkpt lat="37.6169017" lon="15.00707"><ele>727.6666666666666</ele><time>2026-04-26T09:01:07.201Z</time></trkpt><trkpt lat="37.6169283" lon="15.0068267"><ele>727.3333333333334</ele><time>2026-04-26T09:01:08.202Z</time></trkpt><trkpt lat="37.6169433" lon="15.0065917"><ele>727.0</ele><time>2026-04-26T09:01:09.201Z</time></trkpt><trkpt lat="37.6169683" lon="15.0063517"><ele>729.0</ele><time>2026-04-26T09:01:10.201Z</time></trkpt><trkpt lat="37.6169833" lon="15.006125"><ele>731.0</ele><time>2026-04-26T09:01:11.201Z</time></trkpt><trkpt lat="37.616995" lon="15.005895"><ele>733.0</ele><time>2026-04-26T09:01:12.201Z</time></trkpt><trkpt lat="37.6170083" lon="15.00567"><ele>737.6666666666667</ele><time>2026-04-26T09:01:13.201Z</time></trkpt><trkpt lat="37.61702" lon="15.0054517"><ele>742.3333333333334</ele><time>2026-04-26T09:01:14.2Z</time></trkpt><trkpt lat="37.617035" lon="15.0052283"><ele>747.0</ele><time>2026-04-26T09:01:15.201Z</time></trkpt><trkpt lat="37.6170533" lon="15.0050117"><ele>748.3333333333334</ele><time>2026-04-26T09:01:16.2Z</time></trkpt><trkpt lat="37.617065" lon="15.0048033"><ele>749.6666666666667</ele><time>2026-04-26T09:01:17.2Z</time></trkpt><trkpt lat="37.6170767" lon="15.0046067"><ele>751.0</ele><time>2026-04-26T09:01:18.2Z</time></trkpt><trkpt lat="37.61709" lon="15.0044217"><ele>751.0</ele><time>2026-04-26T09:01:19.2Z</time></trkpt><trkpt lat="37.617105" lon="15.00424"><ele>751.0</ele><time>2026-04-26T09:01:20.2Z</time></trkpt><trkpt lat="37.6171417" lon="15.0040667"><ele>751.0</ele><time>2026-04-26T09:01:21.2Z</time></trkpt><trkpt lat="37.6172067" lon="15.0039"><ele>751.0</ele><time>2026-04-26T09:01:22.2Z</time></trkpt><trkpt lat="37.6172933" lon="15.0037417"><ele>750.6666666666667</ele><time>2026-04-26T09:01:23.2Z</time></trkpt><trkpt lat="37.6174067" lon="15.003595"><ele>750.3333333333334</ele><time>2026-04-26T09:01:24.2Z</time></trkpt><trkpt lat="37.6175383" lon="15.0034517"><ele>750.0</ele><time>2026-04-26T09:01:25.2Z</time></trkpt><trkpt lat="37.6176717" lon="15.0032983"><ele>747.3333333333334</ele><time>2026-04-26T09:01:26.2Z</time></trkpt><trkpt lat="37.6178033" lon="15.0031433"><ele>744.6666666666667</ele><time>2026-04-26T09:01:27.2Z</time></trkpt><trkpt lat="37.6179367" lon="15.00299"><ele>742.0</ele><time>2026-04-26T09:01:28.2Z</time></trkpt><trkpt lat="37.618055" lon="15.00285"><ele>746.3333333333334</ele><time>2026-04-26T09:01:29.2Z</time></trkpt><trkpt lat="37.61817" lon="15.0027"><ele>750.6666666666666</ele><time>2026-04-26T09:01:30.2Z</time></trkpt><trkpt lat="37.618285" lon="15.0025483"><ele>755.0</ele><time>2026-04-26T09:01:31.2Z</time></trkpt><trkpt lat="37.6183783" lon="15.0023783"><ele>755.0</ele><time>2026-04-26T09:01:32.2Z</time></trkpt><trkpt lat="37.6184583" lon="15.00219"><ele>755.0</ele><time>2026-04-26T09:01:33.2Z</time></trkpt><trkpt lat="37.618525" lon="15.001995"><ele>755.0</ele><time>2026-04-26T09:01:34.2Z</time></trkpt><trkpt lat="37.6185717" lon="15.0017933"><ele>755.0</ele><time>2026-04-26T09:01:35.2Z</time></trkpt><trkpt lat="37.6186217" lon="15.0015917"><ele>755.0</ele><time>2026-04-26T09:01:36.2Z</time></trkpt><trkpt lat="37.6186717" lon="15.0013917"><ele>755.0</ele><time>2026-04-26T09:01:37.2Z</time></trkpt><trkpt lat="37.6187317" lon="15.0011883"><ele>759.0</ele><time>2026-04-26T09:01:38.2Z</time></trkpt><trkpt lat="37.618785" lon="15.000985"><ele>763.0</ele><time>2026-04-26T09:01:39.2Z</time></trkpt><trkpt lat="37.618835" lon="15.0007867"><ele>767.0</ele><time>2026-04-26T09:01:40.2Z</time></trkpt><trkpt lat="37.61889" lon="15.0005883"><ele>767.6666666666666</ele><time>2026-04-26T09:01:41.2Z</time></trkpt><trkpt lat="37.618935" lon="15.00039"><ele>768.3333333333333</ele><time>2026-04-26T09:01:42.2Z</time></trkpt><trkpt lat="37.618995" lon="15.0001917"><ele>769.0</ele><time>2026-04-26T09:01:43.2Z</time></trkpt><trkpt lat="37.61905" lon="14.9999917"><ele>769.0</ele><time>2026-04-26T09:01:44.2Z</time></trkpt><trkpt lat="37.6190967" lon="14.9997933"><ele>769.0</ele><time>2026-04-26T09:01:45.2Z</time></trkpt><trkpt lat="37.6191467" lon="14.9995933"><ele>769.0</ele><time>2026-04-26T09:01:46.2Z</time></trkpt><trkpt lat="37.6191967" lon="14.9993883"><ele>769.0</ele><time>2026-04-26T09:01:47.2Z</time></trkpt><trkpt lat="37.619245" lon="14.9991983"><ele>769.0</ele><time>2026-04-26T09:01:48.2Z</time></trkpt><trkpt lat="37.6192983" lon="14.9990117"><ele>769.0</ele><time>2026-04-26T09:01:49.2Z</time></trkpt><trkpt lat="37.6193533" lon="14.9988317"><ele>769.0</ele><time>2026-04-26T09:01:50.2Z</time></trkpt><trkpt lat="37.6194033" lon="14.9986567"><ele>769.0</ele><time>2026-04-26T09:01:51.2Z</time></trkpt><trkpt lat="37.61945" lon="14.9984783"><ele>769.0</ele><time>2026-04-26T09:01:52.2Z</time></trkpt><trkpt lat="37.6194967" lon="14.998305"><ele>769.0</ele><time>2026-04-26T09:01:53.201Z</time></trkpt><trkpt lat="37.619545" lon="14.9981233"><ele>771.75</ele><time>2026-04-26T09:01:54.2Z</time></trkpt><trkpt lat="37.6195933" lon="14.9979467"><ele>774.5</ele><time>2026-04-26T09:01:55.2Z</time></trkpt><trkpt lat="37.6196417" lon="14.9977633"><ele>777.25</ele><time>2026-04-26T09:01:56.2Z</time></trkpt><trkpt lat="37.6196933" lon="14.9975883"><ele>780.0</ele><time>2026-04-26T09:01:57.201Z</time></trkpt><trkpt lat="37.6197417" lon="14.9974033"><ele>781.3333333333333</ele><time>2026-04-26T09:01:58.2Z</time></trkpt><trkpt lat="37.6197883" lon="14.9972183"><ele>782.6666666666666</ele><time>2026-04-26T09:01:59.2Z</time></trkpt><trkpt lat="37.619845" lon="14.9970283"><ele>784.0</ele><time>2026-04-26T09:02:00.201Z</time></trkpt><trkpt lat="37.6198967" lon="14.996835"><ele>784.0</ele><time>2026-04-26T09:02:01.201Z</time></trkpt><trkpt lat="37.6199483" lon="14.9966467"><ele>784.0</ele><time>2026-04-26T09:02:02.201Z</time></trkpt><trkpt lat="37.6199933" lon="14.99646"><ele>784.0</ele><time>2026-04-26T09:02:03.2Z</time></trkpt><trkpt lat="37.6200433" lon="14.9962833"><ele>784.0</ele><time>2026-04-26T09:02:04.2Z</time></trkpt><trkpt lat="37.620085" lon="14.996105"><ele>784.0</ele><time>2026-04-26T09:02:05.2Z</time></trkpt><trkpt lat="37.6201117" lon="14.9959217"><ele>784.0</ele><time>2026-04-26T09:02:06.2Z</time></trkpt><trkpt lat="37.6201233" lon="14.995735"><ele>784.0</ele><time>2026-04-26T09:02:07.2Z</time></trkpt><trkpt lat="37.6201283" lon="14.9955417"><ele>783.6666666666666</ele><time>2026-04-26T09:02:08.2Z</time></trkpt><trkpt lat="37.6201217" lon="14.9953483"><ele>783.3333333333333</ele><time>2026-04-26T09:02:09.2Z</time></trkpt><trkpt lat="37.6201" lon="14.9951583"><ele>783.0</ele><time>2026-04-26T09:02:10.2Z</time></trkpt><trkpt lat="37.6200583" lon="14.9949683"><ele>784.0</ele><time>2026-04-26T09:02:11.2Z</time></trkpt><trkpt lat="37.6200083" lon="14.9947833"><ele>785.0</ele><time>2026-04-26T09:02:12.2Z</time></trkpt><trkpt lat="37.6199517" lon="14.994605"><ele>786.0</ele><time>2026-04-26T09:02:13.2Z</time></trkpt><trkpt lat="37.619895" lon="14.9944217"><ele>786.0</ele><time>2026-04-26T09:02:14.201Z</time></trkpt><trkpt lat="37.6198383" lon="14.9942333"><ele>786.0</ele><time>2026-04-26T09:02:15.2Z</time></trkpt><trkpt lat="37.6197867" lon="14.9940483"><ele>786.0</ele><time>2026-04-26T09:02:16.201Z</time></trkpt><trkpt lat="37.6197317" lon="14.99387"><ele>786.0</ele><time>2026-04-26T09:02:17.201Z</time></trkpt><trkpt lat="37.6196833" lon="14.993685"><ele>786.0</ele><time>2026-04-26T09:02:18.2Z</time></trkpt><trkpt lat="37.6196333" lon="14.9935133"><ele>786.0</ele><time>2026-04-26T09:02:19.2Z</time></trkpt><trkpt lat="37.6195833" lon="14.9933467"><ele>786.0</ele><time>2026-04-26T09:02:20.2Z</time></trkpt><trkpt lat="37.6195467" lon="14.9931767"><ele>786.75</ele><time>2026-04-26T09:02:21.2Z</time></trkpt><trkpt lat="37.61953" lon="14.9930033"><ele>787.5</ele><time>2026-04-26T09:02:22.201Z</time></trkpt><trkpt lat="37.6195317" lon="14.9928117"><ele>788.25</ele><time>2026-04-26T09:02:23.2Z</time></trkpt><trkpt lat="37.61956" lon="14.992615"><ele>789.0</ele><time>2026-04-26T09:02:24.201Z</time></trkpt><trkpt lat="37.6195983" lon="14.9924167"><ele>789.0</ele><time>2026-04-26T09:02:25.201Z</time></trkpt><trkpt lat="37.61965" lon="14.9922133"><ele>789.0</ele><time>2026-04-26T09:02:26.2Z</time></trkpt><trkpt lat="37.6197117" lon="14.99201"><ele>789.0</ele><time>2026-04-26T09:02:27.2Z</time></trkpt><trkpt lat="37.6197683" lon="14.9918067"><ele>789.0</ele><time>2026-04-26T09:02:28.2Z</time></trkpt><trkpt lat="37.6198283" lon="14.9916117"><ele>789.0</ele><time>2026-04-26T09:02:29.2Z</time></trkpt><trkpt lat="37.6198833" lon="14.9914283"><ele>789.0</ele><time>2026-04-26T09:02:30.2Z</time></trkpt><trkpt lat="37.6199383" lon="14.9912417"><ele>789.0</ele><time>2026-04-26T09:02:31.201Z</time></trkpt><trkpt lat="37.6199917" lon="14.99106"><ele>789.0</ele><time>2026-04-26T09:02:32.2Z</time></trkpt><trkpt lat="37.6200417" lon="14.9908933"><ele>789.0</ele><time>2026-04-26T09:02:33.2Z</time></trkpt><trkpt lat="37.6200933" lon="14.9907133"><ele>789.0</ele><time>2026-04-26T09:02:34.2Z</time></trkpt><trkpt lat="37.62015" lon="14.9905317"><ele>789.6666666666667</ele><time>2026-04-26T09:02:35.2Z</time></trkpt><trkpt lat="37.6202117" lon="14.9903483"><ele>790.3333333333334</ele><time>2026-04-26T09:02:36.201Z</time></trkpt><trkpt lat="37.6202633" lon="14.9901667"><ele>791.0</ele><time>2026-04-26T09:02:37.2Z</time></trkpt><trkpt lat="37.6203183" lon="14.9899883"><ele>792.0</ele><time>2026-04-26T09:02:38.2Z</time></trkpt><trkpt lat="37.6203667" lon="14.9898167"><ele>793.0</ele><time>2026-04-26T09:02:39.2Z</time></trkpt><trkpt lat="37.6204167" lon="14.98964"><ele>794.0</ele><time>2026-04-26T09:02:40.2Z</time></trkpt><trkpt lat="37.62046" lon="14.9894633"><ele>795.0</ele><time>2026-04-26T09:02:41.2Z</time></trkpt><trkpt lat="37.6205133" lon="14.9892833"><ele>794.0</ele><time>2026-04-26T09:02:42.2Z</time></trkpt><trkpt lat="37.6205733" lon="14.9891133"><ele>793.0</ele><time>2026-04-26T09:02:43.2Z</time></trkpt><trkpt lat="37.6206217" lon="14.9889467"><ele>792.0</ele><time>2026-04-26T09:02:44.2Z</time></trkpt><trkpt lat="37.6206617" lon="14.9887633"><ele>791.0</ele><time>2026-04-26T09:02:45.2Z</time></trkpt><trkpt lat="37.6206833" lon="14.9885867"><ele>791.0</ele><time>2026-04-26T09:02:46.2Z</time></trkpt><trkpt lat="37.6206867" lon="14.9884083"><ele>791.0</ele><time>2026-04-26T09:02:47.2Z</time></trkpt><trkpt lat="37.62067" lon="14.9882317"><ele>791.0</ele><time>2026-04-26T09:02:48.2Z</time></trkpt><trkpt lat="37.6206367" lon="14.9880583"><ele>791.0</ele><time>2026-04-26T09:02:49.2Z</time></trkpt><trkpt lat="37.6205683" lon="14.987895"><ele>790.3333333333334</ele><time>2026-04-26T09:02:50.2Z</time></trkpt><trkpt lat="37.6204817" lon="14.9877367"><ele>789.6666666666667</ele><time>2026-04-26T09:02:51.2Z</time></trkpt><trkpt lat="37.620395" lon="14.9875783"><ele>789.0</ele><time>2026-04-26T09:02:52.201Z</time></trkpt><trkpt lat="37.6203167" lon="14.9874083"><ele>787.0</ele><time>2026-04-26T09:02:53.201Z</time></trkpt><trkpt lat="37.6202533" lon="14.98723"><ele>785.0</ele><time>2026-04-26T09:02:54.2Z</time></trkpt><trkpt lat="37.6201983" lon="14.9870433"><ele>783.0</ele><time>2026-04-26T09:02:55.2Z</time></trkpt><trkpt lat="37.6201533" lon="14.9868567"><ele>782.6666666666667</ele><time>2026-04-26T09:02:56.2Z</time></trkpt><trkpt lat="37.62014" lon="14.9866617"><ele>782.3333333333334</ele><time>2026-04-26T09:02:57.2Z</time></trkpt><trkpt lat="37.62014" lon="14.9864683"><ele>782.0</ele><time>2026-04-26T09:02:58.2Z</time></trkpt><trkpt lat="37.62015" lon="14.9862833"><ele>782.0</ele><time>2026-04-26T09:02:59.2Z</time></trkpt><trkpt lat="37.6201667" lon="14.98612"><ele>782.0</ele><time>2026-04-26T09:03:00.2Z</time></trkpt><trkpt lat="37.6201817" lon="14.9859817"><ele>782.0</ele><time>2026-04-26T09:03:01.2Z</time></trkpt><trkpt lat="37.620195" lon="14.9858633"><ele>782.0</ele><time>2026-04-26T09:03:02.2Z</time></trkpt><trkpt lat="37.620215" lon="14.98576"><ele>782.0</ele><time>2026-04-26T09:03:03.2Z</time></trkpt><trkpt lat="37.620235" lon="14.985665"><ele>781.8333333333334</ele><time>2026-04-26T09:03:04.201Z</time></trkpt><trkpt lat="37.6202617" lon="14.98557"><ele>781.6666666666667</ele><time>2026-04-26T09:03:05.2Z</time></trkpt><trkpt lat="37.6202833" lon="14.9854733"><ele>781.5</ele><time>2026-04-26T09:03:06.201Z</time></trkpt><trkpt lat="37.6202867" lon="14.9853783"><ele>781.3333333333333</ele><time>2026-04-26T09:03:07.2Z</time></trkpt><trkpt lat="37.62026" lon="14.985275"><ele>781.1666666666666</ele><time>2026-04-26T09:03:08.2Z</time></trkpt><trkpt lat="37.620235" lon="14.985175"><ele>781.0</ele><time>2026-04-26T09:03:09.2Z</time></trkpt><trkpt lat="37.62023" lon="14.98504"><ele>781.0</ele><time>2026-04-26T09:03:10.2Z</time></trkpt><trkpt lat="37.6202383" lon="14.98487"><ele>781.0</ele><time>2026-04-26T09:03:11.2Z</time></trkpt><trkpt lat="37.62025" lon="14.9846667"><ele>781.0</ele><time>2026-04-26T09:03:12.2Z</time></trkpt><trkpt lat="37.62026" lon="14.98443"><ele>781.0</ele><time>2026-04-26T09:03:13.2Z</time></trkpt><trkpt lat="37.6202833" lon="14.9841567"><ele>781.0</ele><time>2026-04-26T09:03:14.2Z</time></trkpt><trkpt lat="37.6203083" lon="14.9838983"><ele>781.0</ele><time>2026-04-26T09:03:15.2Z</time></trkpt><trkpt lat="37.6203217" lon="14.9836383"><ele>781.0</ele><time>2026-04-26T09:03:16.2Z</time></trkpt><trkpt lat="37.62031" lon="14.9833733"><ele>781.0</ele><time>2026-04-26T09:03:17.2Z</time></trkpt><trkpt lat="37.6202867" lon="14.9831067"><ele>781.0</ele><time>2026-04-26T09:03:18.2Z</time></trkpt><trkpt lat="37.6202633" lon="14.9828517"><ele>781.0</ele><time>2026-04-26T09:03:19.2Z</time></trkpt><trkpt lat="37.62024" lon="14.98261"><ele>781.0</ele><time>2026-04-26T09:03:20.2Z</time></trkpt><trkpt lat="37.6202217" lon="14.9823683"><ele>781.0</ele><time>2026-04-26T09:03:21.2Z</time></trkpt><trkpt lat="37.6202067" lon="14.982125"><ele>780.6666666666666</ele><time>2026-04-26T09:03:22.2Z</time></trkpt><trkpt lat="37.6202067" lon="14.9818733"><ele>780.3333333333333</ele><time>2026-04-26T09:03:23.2Z</time></trkpt><trkpt lat="37.620215" lon="14.981625"><ele>780.0</ele><time>2026-04-26T09:03:24.2Z</time></trkpt><trkpt lat="37.6202367" lon="14.9813683"><ele>779.0</ele><time>2026-04-26T09:03:25.2Z</time></trkpt><trkpt lat="37.62027" lon="14.9811117"><ele>778.0</ele><time>2026-04-26T09:03:26.2Z</time></trkpt><trkpt lat="37.6202983" lon="14.9808483"><ele>777.0</ele><time>2026-04-26T09:03:27.201Z</time></trkpt><trkpt lat="37.6203183" lon="14.9805883"><ele>778.6666666666667</ele><time>2026-04-26T09:03:28.2Z</time></trkpt><trkpt lat="37.6203433" lon="14.98032"><ele>780.3333333333334</ele><time>2026-04-26T09:03:29.2Z</time></trkpt><trkpt lat="37.62037" lon="14.98005"><ele>782.0</ele><time>2026-04-26T09:03:30.2Z</time></trkpt><trkpt lat="37.6203933" lon="14.979775"><ele>782.0</ele><time>2026-04-26T09:03:31.2Z</time></trkpt><trkpt lat="37.6204183" lon="14.9795033"><ele>782.0</ele><time>2026-04-26T09:03:32.2Z</time></trkpt><trkpt lat="37.620445" lon="14.9792317"><ele>782.0</ele><time>2026-04-26T09:03:33.2Z</time></trkpt><trkpt lat="37.6204717" lon="14.9789633"><ele>780.6666666666667</ele><time>2026-04-26T09:03:34.2Z</time></trkpt><trkpt lat="37.6205" lon="14.97871"><ele>779.3333333333333</ele><time>2026-04-26T09:03:35.2Z</time></trkpt><trkpt lat="37.62053" lon="14.978455"><ele>778.0</ele><time>2026-04-26T09:03:36.201Z</time></trkpt><trkpt lat="37.62056" lon="14.9782067"><ele>777.6666666666666</ele><time>2026-04-26T09:03:37.2Z</time></trkpt><trkpt lat="37.620595" lon="14.977975"><ele>777.3333333333333</ele><time>2026-04-26T09:03:38.2Z</time></trkpt><trkpt lat="37.620655" lon="14.97775"><ele>777.0</ele><time>2026-04-26T09:03:39.2Z</time></trkpt><trkpt lat="37.6207367" lon="14.9775317"><ele>778.0</ele><time>2026-04-26T09:03:40.2Z</time></trkpt><trkpt lat="37.6208433" lon="14.97732"><ele>779.0</ele><time>2026-04-26T09:03:41.2Z</time></trkpt><trkpt lat="37.620945" lon="14.9771167"><ele>780.0</ele><time>2026-04-26T09:03:42.2Z</time></trkpt><trkpt lat="37.6210467" lon="14.976915"><ele>780.0</ele><time>2026-04-26T09:03:43.2Z</time></trkpt><trkpt lat="37.6211483" lon="14.9767067"><ele>780.0</ele><time>2026-04-26T09:03:44.2Z</time></trkpt><trkpt lat="37.6212267" lon="14.9764883"><ele>780.0</ele><time>2026-04-26T09:03:45.2Z</time></trkpt><trkpt lat="37.6213067" lon="14.9762633"><ele>783.6666666666667</ele><time>2026-04-26T09:03:46.2Z</time></trkpt><trkpt lat="37.62138" lon="14.9760383"><ele>787.3333333333334</ele><time>2026-04-26T09:03:47.201Z</time></trkpt><trkpt lat="37.6214517" lon="14.975815"><ele>791.0</ele><time>2026-04-26T09:03:48.2Z</time></trkpt><trkpt lat="37.6215333" lon="14.975585"><ele>792.0</ele><time>2026-04-26T09:03:49.2Z</time></trkpt><trkpt lat="37.62161" lon="14.9753617"><ele>793.0</ele><time>2026-04-26T09:03:50.2Z</time></trkpt><trkpt lat="37.6216967" lon="14.9751417"><ele>794.0</ele><time>2026-04-26T09:03:51.2Z</time></trkpt><trkpt lat="37.6217883" lon="14.9749283"><ele>794.0</ele><time>2026-04-26T09:03:52.2Z</time></trkpt><trkpt lat="37.6218933" lon="14.9747217"><ele>794.0</ele><time>2026-04-26T09:03:53.201Z</time></trkpt><trkpt lat="37.6220033" lon="14.9745083"><ele>794.0</ele><time>2026-04-26T09:03:54.2Z</time></trkpt><trkpt lat="37.6221167" lon="14.9742933"><ele>794.6666666666667</ele><time>2026-04-26T09:03:55.201Z</time></trkpt><trkpt lat="37.6222317" lon="14.9740867"><ele>795.3333333333333</ele><time>2026-04-26T09:03:56.2Z</time></trkpt><trkpt lat="37.6223383" lon="14.97388"><ele>796.0</ele><time>2026-04-26T09:03:57.2Z</time></trkpt><trkpt lat="37.6224467" lon="14.9736767"><ele>796.0</ele><time>2026-04-26T09:03:58.201Z</time></trkpt><trkpt lat="37.622545" lon="14.9734767"><ele>796.0</ele><time>2026-04-26T09:03:59.2Z</time></trkpt><trkpt lat="37.6226283" lon="14.9732717"><ele>796.0</ele><time>2026-04-26T09:04:00.2Z</time></trkpt><trkpt lat="37.6226817" lon="14.9730517"><ele>793.6666666666666</ele><time>2026-04-26T09:04:01.201Z</time></trkpt><trkpt lat="37.6227133" lon="14.9728167"><ele>791.3333333333333</ele><time>2026-04-26T09:04:02.2Z</time></trkpt><trkpt lat="37.6227333" lon="14.9725733"><ele>789.0</ele><time>2026-04-26T09:04:03.2Z</time></trkpt><trkpt lat="37.6227467" lon="14.9723133"><ele>787.6666666666667</ele><time>2026-04-26T09:04:04.2Z</time></trkpt><trkpt lat="37.62276" lon="14.9720717"><ele>786.3333333333334</ele><time>2026-04-26T09:04:05.2Z</time></trkpt><trkpt lat="37.6227883" lon="14.9718283"><ele>785.0</ele><time>2026-04-26T09:04:06.2Z</time></trkpt><trkpt lat="37.6228367" lon="14.9715933"><ele>788.0</ele><time>2026-04-26T09:04:07.2Z</time></trkpt><trkpt lat="37.6228967" lon="14.9713633"><ele>791.0</ele><time>2026-04-26T09:04:08.2Z</time></trkpt><trkpt lat="37.6229733" lon="14.97114"><ele>794.0</ele><time>2026-04-26T09:04:09.2Z</time></trkpt><trkpt lat="37.623065" lon="14.9709267"><ele>792.6666666666667</ele><time>2026-04-26T09:04:10.2Z</time></trkpt><trkpt lat="37.62316" lon="14.970705"><ele>791.3333333333333</ele><time>2026-04-26T09:04:11.2Z</time></trkpt><trkpt lat="37.62326" lon="14.9704883"><ele>790.0</ele><time>2026-04-26T09:04:12.2Z</time></trkpt><trkpt lat="37.6233667" lon="14.970275"><ele>790.0</ele><time>2026-04-26T09:04:13.2Z</time></trkpt><trkpt lat="37.6234717" lon="14.97006"><ele>790.0</ele><time>2026-04-26T09:04:14.2Z</time></trkpt><trkpt lat="37.62359" lon="14.9698533"><ele>790.0</ele><time>2026-04-26T09:04:15.2Z</time></trkpt><trkpt lat="37.62372" lon="14.96965"><ele>791.0</ele><time>2026-04-26T09:04:16.2Z</time></trkpt><trkpt lat="37.62386" lon="14.9694533"><ele>792.0</ele><time>2026-04-26T09:04:17.2Z</time></trkpt><trkpt lat="37.6240033" lon="14.9692583"><ele>793.0</ele><time>2026-04-26T09:04:18.201Z</time></trkpt><trkpt lat="37.6241467" lon="14.9690617"><ele>793.0</ele><time>2026-04-26T09:04:19.201Z</time></trkpt><trkpt lat="37.6242967" lon="14.968865"><ele>793.0</ele><time>2026-04-26T09:04:20.2Z</time></trkpt><trkpt lat="37.6244483" lon="14.9686617"><ele>793.0</ele><time>2026-04-26T09:04:21.201Z</time></trkpt><trkpt lat="37.6245917" lon="14.968455"><ele>794.3333333333333</ele><time>2026-04-26T09:04:22.201Z</time></trkpt><trkpt lat="37.6247433" lon="14.9682433"><ele>795.6666666666667</ele><time>2026-04-26T09:04:23.2Z</time></trkpt><trkpt lat="37.6248917" lon="14.9680333"><ele>797.0</ele><time>2026-04-26T09:04:24.2Z</time></trkpt><trkpt lat="37.625045" lon="14.96782"><ele>797.0</ele><time>2026-04-26T09:04:25.2Z</time></trkpt><trkpt lat="37.6251933" lon="14.9676117"><ele>797.0</ele><time>2026-04-26T09:04:26.2Z</time></trkpt><trkpt lat="37.62534" lon="14.9674083"><ele>797.0</ele><time>2026-04-26T09:04:27.201Z</time></trkpt><trkpt lat="37.6254833" lon="14.9672117"><ele>797.0</ele><time>2026-04-26T09:04:28.2Z</time></trkpt><trkpt lat="37.62562" lon="14.9670267"><ele>797.0</ele><time>2026-04-26T09:04:29.2Z</time></trkpt><trkpt lat="37.6257467" lon="14.966845"><ele>797.0</ele><time>2026-04-26T09:04:30.2Z</time></trkpt><trkpt lat="37.6258617" lon="14.9666717"><ele>797.0</ele><time>2026-04-26T09:04:31.2Z</time></trkpt><trkpt lat="37.6259767" lon="14.96652"><ele>797.0</ele><time>2026-04-26T09:04:32.201Z</time></trkpt><trkpt lat="37.6261117" lon="14.9664083"><ele>797.0</ele><time>2026-04-26T09:04:33.2Z</time></trkpt><trkpt lat="37.62626" lon="14.9663417"><ele>800.0</ele><time>2026-04-26T09:04:34.2Z</time></trkpt><trkpt lat="37.6264283" lon="14.966305"><ele>803.0</ele><time>2026-04-26T09:04:35.201Z</time></trkpt><trkpt lat="37.6266017" lon="14.9662917"><ele>806.0</ele><time>2026-04-26T09:04:36.2Z</time></trkpt><trkpt lat="37.6267833" lon="14.9662783"><ele>806.0</ele><time>2026-04-26T09:04:37.2Z</time></trkpt><trkpt lat="37.6269567" lon="14.9662767"><ele>806.0</ele><time>2026-04-26T09:04:38.201Z</time></trkpt><trkpt lat="37.6271233" lon="14.9662767"><ele>806.0</ele><time>2026-04-26T09:04:39.2Z</time></trkpt><trkpt lat="37.627285" lon="14.9662483"><ele>806.6666666666667</ele><time>2026-04-26T09:04:40.2Z</time></trkpt><trkpt lat="37.62743" lon="14.9661867"><ele>807.3333333333333</ele><time>2026-04-26T09:04:41.201Z</time></trkpt><trkpt lat="37.6275517" lon="14.9660883"><ele>808.0</ele><time>2026-04-26T09:04:42.201Z</time></trkpt><trkpt lat="37.6276567" lon="14.96594"><ele>808.6666666666666</ele><time>2026-04-26T09:04:43.2Z</time></trkpt><trkpt lat="37.6277467" lon="14.965745"><ele>809.3333333333333</ele><time>2026-04-26T09:04:44.2Z</time></trkpt><trkpt lat="37.627845" lon="14.96554"><ele>810.0</ele><time>2026-04-26T09:04:45.201Z</time></trkpt><trkpt lat="37.6279533" lon="14.9653217"><ele>810.0</ele><time>2026-04-26T09:04:46.2Z</time></trkpt><trkpt lat="37.6280767" lon="14.9651083"><ele>810.0</ele><time>2026-04-26T09:04:47.2Z</time></trkpt><trkpt lat="37.6282017" lon="14.96489"><ele>810.0</ele><time>2026-04-26T09:04:48.2Z</time></trkpt><trkpt lat="37.6283217" lon="14.9646683"><ele>808.3333333333333</ele><time>2026-04-26T09:04:49.2Z</time></trkpt><trkpt lat="37.6284417" lon="14.9644433"><ele>806.6666666666666</ele><time>2026-04-26T09:04:50.2Z</time></trkpt><trkpt lat="37.6285517" lon="14.9642283"><ele>805.0</ele><time>2026-04-26T09:04:51.2Z</time></trkpt><trkpt lat="37.6286533" lon="14.9640083"><ele>805.0</ele><time>2026-04-26T09:04:52.2Z</time></trkpt><trkpt lat="37.62874" lon="14.9637917"><ele>805.0</ele><time>2026-04-26T09:04:53.2Z</time></trkpt><trkpt lat="37.6288267" lon="14.9635517"><ele>805.0</ele><time>2026-04-26T09:04:54.2Z</time></trkpt><trkpt lat="37.6289017" lon="14.9633167"><ele>804.3333333333333</ele><time>2026-04-26T09:04:55.2Z</time></trkpt><trkpt lat="37.628965" lon="14.9630717"><ele>803.6666666666667</ele><time>2026-04-26T09:04:56.2Z</time></trkpt><trkpt lat="37.6290317" lon="14.962825"><ele>803.0</ele><time>2026-04-26T09:04:57.2Z</time></trkpt><trkpt lat="37.6290933" lon="14.9625733"><ele>801.3333333333334</ele><time>2026-04-26T09:04:58.201Z</time></trkpt><trkpt lat="37.6291533" lon="14.9623317"><ele>799.6666666666667</ele><time>2026-04-26T09:04:59.2Z</time></trkpt><trkpt lat="37.6292083" lon="14.9621033"><ele>798.0</ele><time>2026-04-26T09:05:00.2Z</time></trkpt><trkpt lat="37.6292617" lon="14.9618817"><ele>796.3333333333333</ele><time>2026-04-26T09:05:01.2Z</time></trkpt><trkpt lat="37.6293183" lon="14.9616717"><ele>794.6666666666666</ele><time>2026-04-26T09:05:02.2Z</time></trkpt><trkpt lat="37.6293767" lon="14.9614667"><ele>793.0</ele><time>2026-04-26T09:05:03.2Z</time></trkpt><trkpt lat="37.6294517" lon="14.96128"><ele>792.3333333333333</ele><time>2026-04-26T09:05:04.2Z</time></trkpt><trkpt lat="37.6295417" lon="14.9611133"><ele>791.6666666666667</ele><time>2026-04-26T09:05:05.2Z</time></trkpt><trkpt lat="37.6296583" lon="14.960965"><ele>791.0</ele><time>2026-04-26T09:05:06.2Z</time></trkpt><trkpt lat="37.629795" lon="14.9608383"><ele>791.0</ele><time>2026-04-26T09:05:07.2Z</time></trkpt><trkpt lat="37.6299433" lon="14.9607083"><ele>791.0</ele><time>2026-04-26T09:05:08.2Z</time></trkpt><trkpt lat="37.6301033" lon="14.9605767"><ele>791.0</ele><time>2026-04-26T09:05:09.2Z</time></trkpt><trkpt lat="37.6302567" lon="14.9604333"><ele>791.0</ele><time>2026-04-26T09:05:10.2Z</time></trkpt><trkpt lat="37.6304283" lon="14.9602917"><ele>791.0</ele><time>2026-04-26T09:05:11.2Z</time></trkpt><trkpt lat="37.6305933" lon="14.96015"><ele>791.0</ele><time>2026-04-26T09:05:12.2Z</time></trkpt><trkpt lat="37.63076" lon="14.960005"><ele>791.0</ele><time>2026-04-26T09:05:13.2Z</time></trkpt><trkpt lat="37.630925" lon="14.9598533"><ele>791.0</ele><time>2026-04-26T09:05:14.2Z</time></trkpt><trkpt lat="37.631095" lon="14.9596967"><ele>791.0</ele><time>2026-04-26T09:05:15.2Z</time></trkpt><trkpt lat="37.6312583" lon="14.9595383"><ele>790.3333333333334</ele><time>2026-04-26T09:05:16.2Z</time></trkpt><trkpt lat="37.6314133" lon="14.95937"><ele>789.6666666666667</ele><time>2026-04-26T09:05:17.201Z</time></trkpt><trkpt lat="37.6315583" lon="14.9591867"><ele>789.0</ele><time>2026-04-26T09:05:18.2Z</time></trkpt><trkpt lat="37.63169" lon="14.958995"><ele>789.0</ele><time>2026-04-26T09:05:19.201Z</time></trkpt><trkpt lat="37.6318183" lon="14.9587917"><ele>789.0</ele><time>2026-04-26T09:05:20.201Z</time></trkpt><trkpt lat="37.631935" lon="14.95859"><ele>789.0</ele><time>2026-04-26T09:05:21.2Z</time></trkpt><trkpt lat="37.6320383" lon="14.9583683"><ele>790.6666666666667</ele><time>2026-04-26T09:05:22.2Z</time></trkpt><trkpt lat="37.6321433" lon="14.958145"><ele>792.3333333333334</ele><time>2026-04-26T09:05:23.201Z</time></trkpt><trkpt lat="37.6322483" lon="14.9579183"><ele>794.0</ele><time>2026-04-26T09:05:24.2Z</time></trkpt><trkpt lat="37.6323567" lon="14.9576933"><ele>791.3333333333334</ele><time>2026-04-26T09:05:25.2Z</time></trkpt><trkpt lat="37.63246" lon="14.9574667"><ele>788.6666666666667</ele><time>2026-04-26T09:05:26.2Z</time></trkpt><trkpt lat="37.6325717" lon="14.95724"><ele>786.0</ele><time>2026-04-26T09:05:27.2Z</time></trkpt><trkpt lat="37.632685" lon="14.9570317"><ele>787.3333333333333</ele><time>2026-04-26T09:05:28.2Z</time></trkpt><trkpt lat="37.632815" lon="14.95684"><ele>788.6666666666666</ele><time>2026-04-26T09:05:29.2Z</time></trkpt><trkpt lat="37.632955" lon="14.9566583"><ele>790.0</ele><time>2026-04-26T09:05:30.201Z</time></trkpt><trkpt lat="37.6331" lon="14.9565067"><ele>790.0</ele><time>2026-04-26T09:05:31.2Z</time></trkpt><trkpt lat="37.633255" lon="14.9563833"><ele>790.0</ele><time>2026-04-26T09:05:32.2Z</time></trkpt><trkpt lat="37.6334317" lon="14.9562717"><ele>790.0</ele><time>2026-04-26T09:05:33.2Z</time></trkpt><trkpt lat="37.6336083" lon="14.9561633"><ele>792.0</ele><time>2026-04-26T09:05:34.2Z</time></trkpt><trkpt lat="37.6337917" lon="14.956055"><ele>794.0</ele><time>2026-04-26T09:05:35.2Z</time></trkpt><trkpt lat="37.633975" lon="14.955945"><ele>796.0</ele><time>2026-04-26T09:05:36.2Z</time></trkpt><trkpt lat="37.6341583" lon="14.9558333"><ele>796.0</ele><time>2026-04-26T09:05:37.201Z</time></trkpt><trkpt lat="37.6343417" lon="14.9557267"><ele>796.0</ele><time>2026-04-26T09:05:38.2Z</time></trkpt><trkpt lat="37.6345117" lon="14.95563"><ele>796.0</ele><time>2026-04-26T09:05:39.2Z</time></trkpt><trkpt lat="37.63466" lon="14.9555333"><ele>798.25</ele><time>2026-04-26T09:05:40.2Z</time></trkpt><trkpt lat="37.6347933" lon="14.9554317"><ele>800.5</ele><time>2026-04-26T09:05:41.2Z</time></trkpt><trkpt lat="37.6348917" lon="14.9552933"><ele>802.75</ele><time>2026-04-26T09:05:42.201Z</time></trkpt><trkpt lat="37.634965" lon="14.9551333"><ele>805.0</ele><time>2026-04-26T09:05:43.2Z</time></trkpt><trkpt lat="37.63502" lon="14.9549517"><ele>805.0</ele><time>2026-04-26T09:05:44.2Z</time></trkpt><trkpt lat="37.6350483" lon="14.95475"><ele>805.0</ele><time>2026-04-26T09:05:45.2Z</time></trkpt><trkpt lat="37.6350517" lon="14.9545333"><ele>805.0</ele><time>2026-04-26T09:05:46.2Z</time></trkpt><trkpt lat="37.63504" lon="14.9543233"><ele>806.0</ele><time>2026-04-26T09:05:47.2Z</time></trkpt><trkpt lat="37.6350233" lon="14.95411"><ele>807.0</ele><time>2026-04-26T09:05:48.2Z</time></trkpt><trkpt lat="37.634995" lon="14.9539117"><ele>808.0</ele><time>2026-04-26T09:05:49.201Z</time></trkpt><trkpt lat="37.6349483" lon="14.9537267"><ele>808.0</ele><time>2026-04-26T09:05:50.2Z</time></trkpt><trkpt lat="37.6348967" lon="14.9535567"><ele>808.0</ele><time>2026-04-26T09:05:51.2Z</time></trkpt><trkpt lat="37.634875" lon="14.9533967"><ele>808.0</ele><time>2026-04-26T09:05:52.2Z</time></trkpt><trkpt lat="37.634895" lon="14.953235"><ele>808.0</ele><time>2026-04-26T09:05:53.2Z</time></trkpt><trkpt lat="37.6349417" lon="14.9530667"><ele>808.75</ele><time>2026-04-26T09:05:54.201Z</time></trkpt><trkpt lat="37.635" lon="14.952895"><ele>809.5</ele><time>2026-04-26T09:05:55.2Z</time></trkpt><trkpt lat="37.6350617" lon="14.9527183"><ele>810.25</ele><time>2026-04-26T09:05:56.201Z</time></trkpt><trkpt lat="37.6351233" lon="14.9525533"><ele>811.0</ele><time>2026-04-26T09:05:57.2Z</time></trkpt><trkpt lat="37.6351833" lon="14.9524083"><ele>810.9999999999999</ele><time>2026-04-26T09:05:58.2Z</time></trkpt><trkpt lat="37.6352333" lon="14.9522817"><ele>811.0</ele><time>2026-04-26T09:05:59.2Z</time></trkpt><trkpt lat="37.6352833" lon="14.95218"><ele>811.0</ele><time>2026-04-26T09:06:00.201Z</time></trkpt><trkpt lat="37.6353367" lon="14.9521117"><ele>811.0</ele><time>2026-04-26T09:06:01.2Z</time></trkpt><trkpt lat="37.6353867" lon="14.9520483"><ele>810.9999999999999</ele><time>2026-04-26T09:06:02.2Z</time></trkpt><trkpt lat="37.6354383" lon="14.9519883"><ele>811.0</ele><time>2026-04-26T09:06:03.2Z</time></trkpt><trkpt lat="37.635495" lon="14.9519183"><ele>813.0</ele><time>2026-04-26T09:06:04.201Z</time></trkpt><trkpt lat="37.6355483" lon="14.9518267"><ele>815.0</ele><time>2026-04-26T09:06:05.2Z</time></trkpt><trkpt lat="37.635615" lon="14.9517433"><ele>817.0</ele><time>2026-04-26T09:06:06.2Z</time></trkpt><trkpt lat="37.6356717" lon="14.951655"><ele>819.0</ele><time>2026-04-26T09:06:07.2Z</time></trkpt><trkpt lat="37.6357333" lon="14.95157"><ele>821.0</ele><time>2026-04-26T09:06:08.2Z</time></trkpt><trkpt lat="37.6357917" lon="14.95148"><ele>821.1666666666667</ele><time>2026-04-26T09:06:09.2Z</time></trkpt><trkpt lat="37.63586" lon="14.951395"><ele>821.3333333333334</ele><time>2026-04-26T09:06:10.201Z</time></trkpt><trkpt lat="37.6359217" lon="14.95132"><ele>821.5</ele><time>2026-04-26T09:06:11.2Z</time></trkpt><trkpt lat="37.6359783" lon="14.9512483"><ele>821.6666666666667</ele><time>2026-04-26T09:06:12.2Z</time></trkpt><trkpt lat="37.636035" lon="14.9511867"><ele>821.8333333333334</ele><time>2026-04-26T09:06:13.2Z</time></trkpt><trkpt lat="37.63608" lon="14.9511283"><ele>822.0</ele><time>2026-04-26T09:06:14.2Z</time></trkpt><trkpt lat="37.63611" lon="14.9510383"><ele>822.0</ele><time>2026-04-26T09:06:16.2Z</time></trkpt><trkpt lat="37.6360683" lon="14.9509233"><ele>822.0</ele><time>2026-04-26T09:06:19.2Z</time></trkpt><trkpt lat="37.6359867" lon="14.9508483"><ele>822.0</ele><time>2026-04-26T09:06:21.2Z</time></trkpt><trkpt lat="37.635875" lon="14.9507783"><ele>822.0</ele><time>2026-04-26T09:06:23.201Z</time></trkpt><trkpt lat="37.63575" lon="14.95071"><ele>822.0</ele><time>2026-04-26T09:06:25.2Z</time></trkpt><trkpt lat="37.635625" lon="14.9506167"><ele>822.0</ele><time>2026-04-26T09:06:27.201Z</time></trkpt><trkpt lat="37.6355433" lon="14.9505667"><ele>822.0</ele><time>2026-04-26T09:06:28.2Z</time></trkpt><trkpt lat="37.63546" lon="14.9505"><ele>822.0</ele><time>2026-04-26T09:06:29.201Z</time></trkpt><trkpt lat="37.635375" lon="14.9504433"><ele>822.0</ele><time>2026-04-26T09:06:30.2Z</time></trkpt><trkpt lat="37.6352833" lon="14.950385"><ele>820.4285714285714</ele><time>2026-04-26T09:06:31.201Z</time></trkpt><trkpt lat="37.63521" lon="14.9503417"><ele>818.8571428571429</ele><time>2026-04-26T09:06:32.2Z</time></trkpt><trkpt lat="37.6351433" lon="14.950295"><ele>817.2857142857142</ele><time>2026-04-26T09:06:33.2Z</time></trkpt><trkpt lat="37.6350783" lon="14.9502683"><ele>815.7142857142858</ele><time>2026-04-26T09:06:34.2Z</time></trkpt><trkpt lat="37.63501" lon="14.9502483"><ele>814.1428571428572</ele><time>2026-04-26T09:06:35.2Z</time></trkpt><trkpt lat="37.6349367" lon="14.9502267"><ele>812.5714285714286</ele><time>2026-04-26T09:06:36.2Z</time></trkpt><trkpt lat="37.6348667" lon="14.950205"><ele>811.0</ele><time>2026-04-26T09:06:37.201Z</time></trkpt><trkpt lat="37.6347567" lon="14.950185"><ele>810.9999999999999</ele><time>2026-04-26T09:06:39.201Z</time></trkpt><trkpt lat="37.6346817" lon="14.9501867"><ele>811.0</ele><time>2026-04-26T09:06:41.2Z</time></trkpt><trkpt lat="37.6346267" lon="14.95013"><ele>811.0</ele><time>2026-04-26T09:06:45.2Z</time></trkpt><trkpt lat="37.6345317" lon="14.950085"><ele>811.0</ele><time>2026-04-26T09:06:47.2Z</time></trkpt><trkpt lat="37.634455" lon="14.9500817"><ele>810.9999999999999</ele><time>2026-04-26T09:06:48.2Z</time></trkpt><trkpt lat="37.634375" lon="14.9500717"><ele>811.0</ele><time>2026-04-26T09:06:49.2Z</time></trkpt><trkpt lat="37.6342783" lon="14.95005"><ele>808.4</ele><time>2026-04-26T09:06:50.2Z</time></trkpt><trkpt lat="37.6341917" lon="14.95002"><ele>805.8</ele><time>2026-04-26T09:06:51.201Z</time></trkpt><trkpt lat="37.6341083" lon="14.9499783"><ele>803.1999999999999</ele><time>2026-04-26T09:06:52.2Z</time></trkpt><trkpt lat="37.6340267" lon="14.9499133"><ele>800.5999999999999</ele><time>2026-04-26T09:06:53.2Z</time></trkpt><trkpt lat="37.633945" lon="14.949855"><ele>798.0</ele><time>2026-04-26T09:06:54.2Z</time></trkpt><trkpt lat="37.63387" lon="14.9497917"><ele>798.0</ele><time>2026-04-26T09:06:55.2Z</time></trkpt><trkpt lat="37.6338017" lon="14.9497167"><ele>798.0</ele><time>2026-04-26T09:06:56.2Z</time></trkpt><trkpt lat="37.6337333" lon="14.9496333"><ele>798.0</ele><time>2026-04-26T09:06:57.2Z</time></trkpt><trkpt lat="37.6336783" lon="14.9495283"><ele>798.0</ele><time>2026-04-26T09:06:58.2Z</time></trkpt><trkpt lat="37.6336267" lon="14.9494117"><ele>798.0</ele><time>2026-04-26T09:06:59.2Z</time></trkpt><trkpt lat="37.6335683" lon="14.9492883"><ele>792.75</ele><time>2026-04-26T09:07:00.2Z</time></trkpt><trkpt lat="37.633505" lon="14.9491783"><ele>787.5</ele><time>2026-04-26T09:07:01.2Z</time></trkpt><trkpt lat="37.6334317" lon="14.9490667"><ele>782.25</ele><time>2026-04-26T09:07:02.2Z</time></trkpt><trkpt lat="37.63335" lon="14.948945"><ele>777.0</ele><time>2026-04-26T09:07:03.201Z</time></trkpt><trkpt lat="37.633275" lon="14.94882"><ele>777.0</ele><time>2026-04-26T09:07:04.201Z</time></trkpt><trkpt lat="37.633185" lon="14.9486917"><ele>777.0</ele><time>2026-04-26T09:07:05.2Z</time></trkpt><trkpt lat="37.6330933" lon="14.94856"><ele>777.0</ele><time>2026-04-26T09:07:06.2Z</time></trkpt><trkpt lat="37.633005" lon="14.9484367"><ele>777.0</ele><time>2026-04-26T09:07:07.2Z</time></trkpt><trkpt lat="37.6329067" lon="14.948315"><ele>775.75</ele><time>2026-04-26T09:07:08.2Z</time></trkpt><trkpt lat="37.6328133" lon="14.9481933"><ele>774.5</ele><time>2026-04-26T09:07:09.2Z</time></trkpt><trkpt lat="37.6327317" lon="14.948085"><ele>773.25</ele><time>2026-04-26T09:07:10.2Z</time></trkpt><trkpt lat="37.63264" lon="14.94797"><ele>772.0</ele><time>2026-04-26T09:07:11.2Z</time></trkpt><trkpt lat="37.6325383" lon="14.947865"><ele>768.75</ele><time>2026-04-26T09:07:12.2Z</time></trkpt><trkpt lat="37.63243" lon="14.94776"><ele>765.5</ele><time>2026-04-26T09:07:13.2Z</time></trkpt><trkpt lat="37.63232" lon="14.9476683"><ele>762.25</ele><time>2026-04-26T09:07:14.2Z</time></trkpt><trkpt lat="37.6322017" lon="14.9475867"><ele>759.0</ele><time>2026-04-26T09:07:15.2Z</time></trkpt><trkpt lat="37.6320783" lon="14.9475117"><ele>755.5</ele><time>2026-04-26T09:07:16.2Z</time></trkpt><trkpt lat="37.6319417" lon="14.9474483"><ele>752.0</ele><time>2026-04-26T09:07:17.2Z</time></trkpt><trkpt lat="37.6317967" lon="14.9473967"><ele>748.5</ele><time>2026-04-26T09:07:18.2Z</time></trkpt><trkpt lat="37.6316617" lon="14.9473533"><ele>745.0</ele><time>2026-04-26T09:07:19.2Z</time></trkpt><trkpt lat="37.6315233" lon="14.94731"><ele>745.0</ele><time>2026-04-26T09:07:20.2Z</time></trkpt><trkpt lat="37.63139" lon="14.947265"><ele>745.0</ele><time>2026-04-26T09:07:21.2Z</time></trkpt><trkpt lat="37.6312567" lon="14.94721"><ele>745.0</ele><time>2026-04-26T09:07:22.2Z</time></trkpt><trkpt lat="37.6311317" lon="14.947155"><ele>745.0</ele><time>2026-04-26T09:07:23.2Z</time></trkpt><trkpt lat="37.6310133" lon="14.9470933"><ele>742.25</ele><time>2026-04-26T09:07:24.2Z</time></trkpt><trkpt lat="37.6309017" lon="14.9470367"><ele>739.5</ele><time>2026-04-26T09:07:25.2Z</time></trkpt><trkpt lat="37.6307917" lon="14.9469733"><ele>736.75</ele><time>2026-04-26T09:07:26.2Z</time></trkpt><trkpt lat="37.6306783" lon="14.9469017"><ele>734.0</ele><time>2026-04-26T09:07:27.2Z</time></trkpt><trkpt lat="37.6305767" lon="14.9468383"><ele>734.0</ele><time>2026-04-26T09:07:28.2Z</time></trkpt><trkpt lat="37.6304733" lon="14.9467767"><ele>734.0</ele><time>2026-04-26T09:07:29.201Z</time></trkpt><trkpt lat="37.6303767" lon="14.9467"><ele>734.0</ele><time>2026-04-26T09:07:30.2Z</time></trkpt><trkpt lat="37.630285" lon="14.94663"><ele>734.0</ele><time>2026-04-26T09:07:31.2Z</time></trkpt><trkpt lat="37.6301967" lon="14.9465433"><ele>734.0</ele><time>2026-04-26T09:07:32.2Z</time></trkpt><trkpt lat="37.6301133" lon="14.9464483"><ele>732.4000000000001</ele><time>2026-04-26T09:07:33.2Z</time></trkpt><trkpt lat="37.63003" lon="14.9463517"><ele>730.8</ele><time>2026-04-26T09:07:34.2Z</time></trkpt><trkpt lat="37.6299533" lon="14.9462583"><ele>729.2</ele><time>2026-04-26T09:07:35.2Z</time></trkpt><trkpt lat="37.6298817" lon="14.94617"><ele>727.5999999999999</ele><time>2026-04-26T09:07:36.2Z</time></trkpt><trkpt lat="37.6298167" lon="14.9460917"><ele>726.0</ele><time>2026-04-26T09:07:37.2Z</time></trkpt><trkpt lat="37.6297533" lon="14.9460083"><ele>726.0</ele><time>2026-04-26T09:07:38.2Z</time></trkpt><trkpt lat="37.6296783" lon="14.9459267"><ele>726.0</ele><time>2026-04-26T09:07:39.2Z</time></trkpt><trkpt lat="37.629595" lon="14.9458433"><ele>726.0</ele><time>2026-04-26T09:07:40.2Z</time></trkpt><trkpt lat="37.629505" lon="14.9457583"><ele>726.0</ele><time>2026-04-26T09:07:41.2Z</time></trkpt><trkpt lat="37.629405" lon="14.9456483"><ele>722.75</ele><time>2026-04-26T09:07:42.2Z</time></trkpt><trkpt lat="37.629295" lon="14.9455433"><ele>719.5</ele><time>2026-04-26T09:07:43.2Z</time></trkpt><trkpt lat="37.6291833" lon="14.9454317"><ele>716.25</ele><time>2026-04-26T09:07:44.2Z</time></trkpt><trkpt lat="37.6290717" lon="14.9453267"><ele>713.0</ele><time>2026-04-26T09:07:45.2Z</time></trkpt><trkpt lat="37.628965" lon="14.9452133"><ele>713.0</ele><time>2026-04-26T09:07:46.2Z</time></trkpt><trkpt lat="37.62886" lon="14.9451017"><ele>713.0</ele><time>2026-04-26T09:07:47.2Z</time></trkpt><trkpt lat="37.6287533" lon="14.944995"><ele>713.0</ele><time>2026-04-26T09:07:48.2Z</time></trkpt><trkpt lat="37.6286417" lon="14.9448867"><ele>713.0</ele><time>2026-04-26T09:07:49.2Z</time></trkpt><trkpt lat="37.628535" lon="14.9447683"><ele>708.5</ele><time>2026-04-26T09:07:50.2Z</time></trkpt><trkpt lat="37.6284233" lon="14.9446583"><ele>704.0</ele><time>2026-04-26T09:07:51.2Z</time></trkpt><trkpt lat="37.62832" lon="14.9445533"><ele>699.5</ele><time>2026-04-26T09:07:52.201Z</time></trkpt><trkpt lat="37.6282117" lon="14.944445"><ele>695.0</ele><time>2026-04-26T09:07:53.2Z</time></trkpt><trkpt lat="37.6281083" lon="14.944325"><ele>695.0</ele><time>2026-04-26T09:07:54.2Z</time></trkpt><trkpt lat="37.6280117" lon="14.9442217"><ele>695.0</ele><time>2026-04-26T09:07:55.2Z</time></trkpt><trkpt lat="37.6279133" lon="14.94412"><ele>695.0</ele><time>2026-04-26T09:07:56.201Z</time></trkpt><trkpt lat="37.6278183" lon="14.944025"><ele>695.0</ele><time>2026-04-26T09:07:57.2Z</time></trkpt><trkpt lat="37.6277167" lon="14.943945"><ele>691.25</ele><time>2026-04-26T09:07:58.201Z</time></trkpt><trkpt lat="37.62761" lon="14.9438817"><ele>687.5</ele><time>2026-04-26T09:07:59.2Z</time></trkpt><trkpt lat="37.6275" lon="14.9438267"><ele>683.75</ele><time>2026-04-26T09:08:00.2Z</time></trkpt><trkpt lat="37.6273917" lon="14.9437683"><ele>680.0</ele><time>2026-04-26T09:08:01.2Z</time></trkpt><trkpt lat="37.62728" lon="14.94372"><ele>680.0</ele><time>2026-04-26T09:08:02.2Z</time></trkpt><trkpt lat="37.6271733" lon="14.94367"><ele>680.0</ele><time>2026-04-26T09:08:03.2Z</time></trkpt><trkpt lat="37.62706" lon="14.943625"><ele>680.0</ele><time>2026-04-26T09:08:04.2Z</time></trkpt><trkpt lat="37.6269333" lon="14.94358"><ele>680.0</ele><time>2026-04-26T09:08:05.2Z</time></trkpt><trkpt lat="37.6268083" lon="14.94354"><ele>677.25</ele><time>2026-04-26T09:08:06.2Z</time></trkpt><trkpt lat="37.626675" lon="14.9435017"><ele>674.5</ele><time>2026-04-26T09:08:07.201Z</time></trkpt><trkpt lat="37.62655" lon="14.94346"><ele>671.75</ele><time>2026-04-26T09:08:08.2Z</time></trkpt><trkpt lat="37.62643" lon="14.94342"><ele>669.0</ele><time>2026-04-26T09:08:09.2Z</time></trkpt><trkpt lat="37.6263183" lon="14.9433767"><ele>669.0</ele><time>2026-04-26T09:08:10.2Z</time></trkpt><trkpt lat="37.626205" lon="14.9433267"><ele>669.0</ele><time>2026-04-26T09:08:11.2Z</time></trkpt><trkpt lat="37.6261017" lon="14.94328"><ele>669.0</ele><time>2026-04-26T09:08:12.2Z</time></trkpt><trkpt lat="37.6260167" lon="14.943225"><ele>669.0</ele><time>2026-04-26T09:08:13.2Z</time></trkpt><trkpt lat="37.62595" lon="14.9431783"><ele>669.0</ele><time>2026-04-26T09:08:14.2Z</time></trkpt><trkpt lat="37.62589" lon="14.9431133"><ele>667.4000000000001</ele><time>2026-04-26T09:08:15.2Z</time></trkpt><trkpt lat="37.6258467" lon="14.9430417"><ele>665.8</ele><time>2026-04-26T09:08:16.2Z</time></trkpt><trkpt lat="37.6258" lon="14.9429267"><ele>664.2</ele><time>2026-04-26T09:08:18.2Z</time></trkpt><trkpt lat="37.6256817" lon="14.94287"><ele>662.5999999999999</ele><time>2026-04-26T09:08:20.201Z</time></trkpt><trkpt lat="37.6256017" lon="14.94286"><ele>661.0</ele><time>2026-04-26T09:08:21.2Z</time></trkpt><trkpt lat="37.6255083" lon="14.942845"><ele>661.0</ele><time>2026-04-26T09:08:22.2Z</time></trkpt><trkpt lat="37.6254017" lon="14.9428267"><ele>661.0</ele><time>2026-04-26T09:08:23.2Z</time></trkpt><trkpt lat="37.6252917" lon="14.9427967"><ele>661.0</ele><time>2026-04-26T09:08:24.2Z</time></trkpt><trkpt lat="37.6251883" lon="14.942765"><ele>661.0</ele><time>2026-04-26T09:08:25.2Z</time></trkpt><trkpt lat="37.62509" lon="14.9427367"><ele>661.0</ele><time>2026-04-26T09:08:26.2Z</time></trkpt><trkpt lat="37.62501" lon="14.9427233"><ele>659.8</ele><time>2026-04-26T09:08:27.201Z</time></trkpt><trkpt lat="37.6249117" lon="14.942705"><ele>658.5999999999999</ele><time>2026-04-26T09:08:29.2Z</time></trkpt><trkpt lat="37.6248167" lon="14.9426667"><ele>657.4</ele><time>2026-04-26T09:08:32.2Z</time></trkpt><trkpt lat="37.6247533" lon="14.9426483"><ele>656.2</ele><time>2026-04-26T09:08:33.2Z</time></trkpt><trkpt lat="37.6246683" lon="14.9426267"><ele>655.0</ele><time>2026-04-26T09:08:34.2Z</time></trkpt><trkpt lat="37.62457" lon="14.942605"><ele>653.8</ele><time>2026-04-26T09:08:35.2Z</time></trkpt><trkpt lat="37.62446" lon="14.9425567"><ele>652.6</ele><time>2026-04-26T09:08:36.2Z</time></trkpt><trkpt lat="37.6243633" lon="14.9424917"><ele>651.4000000000001</ele><time>2026-04-26T09:08:37.2Z</time></trkpt><trkpt lat="37.6242667" lon="14.9424167"><ele>650.2</ele><time>2026-04-26T09:08:38.2Z</time></trkpt><trkpt lat="37.62418" lon="14.9423383"><ele>649.0</ele><time>2026-04-26T09:08:39.2Z</time></trkpt><trkpt lat="37.6241033" lon="14.9422433"><ele>648.75</ele><time>2026-04-26T09:08:40.2Z</time></trkpt><trkpt lat="37.6240183" lon="14.9421417"><ele>648.5</ele><time>2026-04-26T09:08:41.2Z</time></trkpt><trkpt lat="37.623935" lon="14.94202"><ele>648.25</ele><time>2026-04-26T09:08:42.2Z</time></trkpt><trkpt lat="37.6238433" lon="14.9418967"><ele>648.0</ele><time>2026-04-26T09:08:43.201Z</time></trkpt><trkpt lat="37.62376" lon="14.9417767"><ele>648.75</ele><time>2026-04-26T09:08:44.2Z</time></trkpt><trkpt lat="37.62368" lon="14.941665"><ele>649.5</ele><time>2026-04-26T09:08:45.2Z</time></trkpt><trkpt lat="37.6236017" lon="14.9415567"><ele>650.25</ele><time>2026-04-26T09:08:46.2Z</time></trkpt><trkpt lat="37.6235167" lon="14.94145"><ele>651.0</ele><time>2026-04-26T09:08:47.2Z</time></trkpt><trkpt lat="37.62342" lon="14.9413467"><ele>647.5</ele><time>2026-04-26T09:08:48.2Z</time></trkpt><trkpt lat="37.62332" lon="14.9412417"><ele>644.0</ele><time>2026-04-26T09:08:49.2Z</time></trkpt><trkpt lat="37.6232283" lon="14.9411467"><ele>640.5</ele><time>2026-04-26T09:08:50.2Z</time></trkpt><trkpt lat="37.62314" lon="14.9410517"><ele>637.0</ele><time>2026-04-26T09:08:51.201Z</time></trkpt><trkpt lat="37.6230617" lon="14.9409483"><ele>637.75</ele><time>2026-04-26T09:08:52.201Z</time></trkpt><trkpt lat="37.6229867" lon="14.9408367"><ele>638.5</ele><time>2026-04-26T09:08:53.201Z</time></trkpt><trkpt lat="37.6229283" lon="14.9406933"><ele>639.25</ele><time>2026-04-26T09:08:54.2Z</time></trkpt><trkpt lat="37.6228683" lon="14.9405617"><ele>640.0</ele><time>2026-04-26T09:08:55.2Z</time></trkpt><trkpt lat="37.6228083" lon="14.9404367"><ele>638.6</ele><time>2026-04-26T09:08:56.2Z</time></trkpt><trkpt lat="37.6227533" lon="14.94031"><ele>637.2</ele><time>2026-04-26T09:08:57.2Z</time></trkpt><trkpt lat="37.622705" lon="14.9401983"><ele>635.8</ele><time>2026-04-26T09:08:58.2Z</time></trkpt><trkpt lat="37.62268" lon="14.9400717"><ele>634.4</ele><time>2026-04-26T09:08:59.2Z</time></trkpt><trkpt lat="37.6226517" lon="14.9399483"><ele>633.0</ele><time>2026-04-26T09:09:00.2Z</time></trkpt><trkpt lat="37.62262" lon="14.9398367"><ele>633.0</ele><time>2026-04-26T09:09:01.2Z</time></trkpt><trkpt lat="37.6225667" lon="14.93973"><ele>633.0</ele><time>2026-04-26T09:09:02.2Z</time></trkpt><trkpt lat="37.6224867" lon="14.9396367"><ele>633.0</ele><time>2026-04-26T09:09:03.201Z</time></trkpt><trkpt lat="37.6223967" lon="14.9395533"><ele>633.0</ele><time>2026-04-26T09:09:04.201Z</time></trkpt><trkpt lat="37.6223033" lon="14.9394733"><ele>633.0</ele><time>2026-04-26T09:09:05.2Z</time></trkpt><trkpt lat="37.622205" lon="14.9393883"><ele>633.0</ele><time>2026-04-26T09:09:06.2Z</time></trkpt><trkpt lat="37.622105" lon="14.9393217"><ele>633.0</ele><time>2026-04-26T09:09:07.201Z</time></trkpt><trkpt lat="37.622005" lon="14.9392617"><ele>633.0</ele><time>2026-04-26T09:09:08.2Z</time></trkpt><trkpt lat="37.6218967" lon="14.9392133"><ele>633.0</ele><time>2026-04-26T09:09:09.2Z</time></trkpt><trkpt lat="37.621805" lon="14.93918"><ele>633.0</ele><time>2026-04-26T09:09:10.2Z</time></trkpt><trkpt lat="37.621705" lon="14.9391483"><ele>631.6</ele><time>2026-04-26T09:09:11.2Z</time></trkpt><trkpt lat="37.621605" lon="14.9391133"><ele>630.1999999999999</ele><time>2026-04-26T09:09:12.2Z</time></trkpt><trkpt lat="37.6215117" lon="14.9390683"><ele>628.8</ele><time>2026-04-26T09:09:13.2Z</time></trkpt><trkpt lat="37.62143" lon="14.9390033"><ele>627.4</ele><time>2026-04-26T09:09:14.201Z</time></trkpt><trkpt lat="37.6213533" lon="14.9389217"><ele>626.0</ele><time>2026-04-26T09:09:15.2Z</time></trkpt><trkpt lat="37.6212817" lon="14.9388233"><ele>626.0</ele><time>2026-04-26T09:09:16.2Z</time></trkpt><trkpt lat="37.621215" lon="14.9387183"><ele>626.0</ele><time>2026-04-26T09:09:17.201Z</time></trkpt><trkpt lat="37.6211417" lon="14.9386167"><ele>626.0</ele><time>2026-04-26T09:09:18.2Z</time></trkpt><trkpt lat="37.6210567" lon="14.93852"><ele>626.0</ele><time>2026-04-26T09:09:19.2Z</time></trkpt><trkpt lat="37.6209717" lon="14.9384233"><ele>626.0</ele><time>2026-04-26T09:09:20.2Z</time></trkpt><trkpt lat="37.6208933" lon="14.9383417"><ele>624.8333333333333</ele><time>2026-04-26T09:09:21.2Z</time></trkpt><trkpt lat="37.6208083" lon="14.9382683"><ele>623.6666666666666</ele><time>2026-04-26T09:09:22.2Z</time></trkpt><trkpt lat="37.6207317" lon="14.9382017"><ele>622.5</ele><time>2026-04-26T09:09:23.2Z</time></trkpt><trkpt lat="37.6206633" lon="14.9381467"><ele>621.3333333333334</ele><time>2026-04-26T09:09:24.2Z</time></trkpt><trkpt lat="37.6206117" lon="14.938095"><ele>620.1666666666667</ele><time>2026-04-26T09:09:25.2Z</time></trkpt><trkpt lat="37.6205633" lon="14.9380333"><ele>619.0</ele><time>2026-04-26T09:09:26.2Z</time></trkpt><trkpt lat="37.6205083" lon="14.9379583"><ele>619.0</ele><time>2026-04-26T09:09:27.2Z</time></trkpt><trkpt lat="37.6204533" lon="14.9378617"><ele>619.0</ele><time>2026-04-26T09:09:28.2Z</time></trkpt><trkpt lat="37.620395" lon="14.9377517"><ele>619.0</ele><time>2026-04-26T09:09:29.2Z</time></trkpt><trkpt lat="37.62033" lon="14.937635"><ele>619.0</ele><time>2026-04-26T09:09:30.2Z</time></trkpt><trkpt lat="37.62025" lon="14.9375167"><ele>619.0</ele><time>2026-04-26T09:09:31.2Z</time></trkpt><trkpt lat="37.6201733" lon="14.9373933"><ele>617.75</ele><time>2026-04-26T09:09:32.2Z</time></trkpt><trkpt lat="37.620095" lon="14.9372717"><ele>616.5</ele><time>2026-04-26T09:09:33.2Z</time></trkpt><trkpt lat="37.6200167" lon="14.93716"><ele>615.25</ele><time>2026-04-26T09:09:34.2Z</time></trkpt><trkpt lat="37.6199417" lon="14.9370583"><ele>614.0</ele><time>2026-04-26T09:09:35.2Z</time></trkpt><trkpt lat="37.61986" lon="14.93696"><ele>614.0</ele><time>2026-04-26T09:09:36.2Z</time></trkpt><trkpt lat="37.6197817" lon="14.93687"><ele>614.0</ele><time>2026-04-26T09:09:37.2Z</time></trkpt><trkpt lat="37.6197" lon="14.936775"><ele>614.0</ele><time>2026-04-26T09:09:38.2Z</time></trkpt><trkpt lat="37.6196233" lon="14.9366733"><ele>614.0</ele><time>2026-04-26T09:09:39.201Z</time></trkpt><trkpt lat="37.61956" lon="14.9365583"><ele>614.0</ele><time>2026-04-26T09:09:40.201Z</time></trkpt><trkpt lat="37.6194967" lon="14.936425"><ele>612.0</ele><time>2026-04-26T09:09:41.2Z</time></trkpt><trkpt lat="37.6194467" lon="14.9362883"><ele>610.0</ele><time>2026-04-26T09:09:42.2Z</time></trkpt><trkpt lat="37.6194283" lon="14.9361533"><ele>608.0</ele><time>2026-04-26T09:09:43.201Z</time></trkpt><trkpt lat="37.6194183" lon="14.9360083"><ele>606.0</ele><time>2026-04-26T09:09:44.2Z</time></trkpt><trkpt lat="37.6194367" lon="14.9358567"><ele>606.0</ele><time>2026-04-26T09:09:45.2Z</time></trkpt><trkpt lat="37.6194633" lon="14.9357083"><ele>606.0</ele><time>2026-04-26T09:09:46.2Z</time></trkpt><trkpt lat="37.6195117" lon="14.9355633"><ele>606.0</ele><time>2026-04-26T09:09:47.2Z</time></trkpt><trkpt lat="37.6195683" lon="14.9354217"><ele>606.0</ele><time>2026-04-26T09:09:48.2Z</time></trkpt><trkpt lat="37.6196267" lon="14.9352867"><ele>606.5</ele><time>2026-04-26T09:09:49.201Z</time></trkpt><trkpt lat="37.619675" lon="14.9351533"><ele>607.0</ele><time>2026-04-26T09:09:50.201Z</time></trkpt><trkpt lat="37.6197283" lon="14.93502"><ele>607.5</ele><time>2026-04-26T09:09:51.2Z</time></trkpt><trkpt lat="37.619785" lon="14.9348783"><ele>608.0</ele><time>2026-04-26T09:09:52.2Z</time></trkpt><trkpt lat="37.6198417" lon="14.93474"><ele>606.75</ele><time>2026-04-26T09:09:53.199Z</time></trkpt><trkpt lat="37.6198833" lon="14.9345983"><ele>605.5</ele><time>2026-04-26T09:09:54.199Z</time></trkpt><trkpt lat="37.6199333" lon="14.9344683"><ele>604.25</ele><time>2026-04-26T09:09:55.199Z</time></trkpt><trkpt lat="37.6199817" lon="14.934345"><ele>603.0</ele><time>2026-04-26T09:09:56.199Z</time></trkpt><trkpt lat="37.6200367" lon="14.9342133"><ele>601.25</ele><time>2026-04-26T09:09:57.199Z</time></trkpt><trkpt lat="37.62008" lon="14.9340767"><ele>599.5</ele><time>2026-04-26T09:09:58.2Z</time></trkpt><trkpt lat="37.6201117" lon="14.93394"><ele>597.75</ele><time>2026-04-26T09:09:59.199Z</time></trkpt><trkpt lat="37.6201267" lon="14.9338"><ele>596.0</ele><time>2026-04-26T09:10:00.199Z</time></trkpt><trkpt lat="37.6201333" lon="14.93366"><ele>596.0</ele><time>2026-04-26T09:10:01.199Z</time></trkpt><trkpt lat="37.6201267" lon="14.933525"><ele>596.0</ele><time>2026-04-26T09:10:02.199Z</time></trkpt><trkpt lat="37.62011" lon="14.9334017"><ele>596.0</ele><time>2026-04-26T09:10:03.199Z</time></trkpt><trkpt lat="37.6200717" lon="14.9332917"><ele>596.0</ele><time>2026-04-26T09:10:04.199Z</time></trkpt><trkpt lat="37.62001" lon="14.93318"><ele>596.0</ele><time>2026-04-26T09:10:05.199Z</time></trkpt><trkpt lat="37.6199333" lon="14.93309"><ele>594.6</ele><time>2026-04-26T09:10:06.199Z</time></trkpt><trkpt lat="37.6198433" lon="14.9330283"><ele>593.2</ele><time>2026-04-26T09:10:07.199Z</time></trkpt><trkpt lat="37.619745" lon="14.9329767"><ele>591.8</ele><time>2026-04-26T09:10:08.199Z</time></trkpt><trkpt lat="37.619645" lon="14.9329267"><ele>590.4</ele><time>2026-04-26T09:10:09.199Z</time></trkpt><trkpt lat="37.6195333" lon="14.9328833"><ele>589.0</ele><time>2026-04-26T09:10:10.199Z</time></trkpt><trkpt lat="37.619425" lon="14.932855"><ele>586.25</ele><time>2026-04-26T09:10:11.199Z</time></trkpt><trkpt lat="37.6193117" lon="14.9328217"><ele>583.5</ele><time>2026-04-26T09:10:12.199Z</time></trkpt><trkpt lat="37.6192" lon="14.9327867"><ele>580.75</ele><time>2026-04-26T09:10:13.199Z</time></trkpt><trkpt lat="37.6190867" lon="14.9327467"><ele>578.0</ele><time>2026-04-26T09:10:14.199Z</time></trkpt><trkpt lat="37.61897" lon="14.932705"><ele>578.0</ele><time>2026-04-26T09:10:15.199Z</time></trkpt><trkpt lat="37.6188583" lon="14.9326717"><ele>578.0</ele><time>2026-04-26T09:10:16.2Z</time></trkpt><trkpt lat="37.61875" lon="14.9326383"><ele>578.0</ele><time>2026-04-26T09:10:17.199Z</time></trkpt><trkpt lat="37.61864" lon="14.9326133"><ele>578.0</ele><time>2026-04-26T09:10:18.199Z</time></trkpt><trkpt lat="37.618535" lon="14.9326083"><ele>578.0</ele><time>2026-04-26T09:10:19.199Z</time></trkpt><trkpt lat="37.618435" lon="14.9326233"><ele>576.0</ele><time>2026-04-26T09:10:20.199Z</time></trkpt><trkpt lat="37.6183367" lon="14.9326633"><ele>574.0</ele><time>2026-04-26T09:10:21.199Z</time></trkpt><trkpt lat="37.6182417" lon="14.932735"><ele>572.0</ele><time>2026-04-26T09:10:22.199Z</time></trkpt><trkpt lat="37.61815" lon="14.9328333"><ele>570.0</ele><time>2026-04-26T09:10:23.199Z</time></trkpt><trkpt lat="37.6180767" lon="14.93295"><ele>570.0</ele><time>2026-04-26T09:10:24.199Z</time></trkpt><trkpt lat="37.6180133" lon="14.9330683"><ele>570.0</ele><time>2026-04-26T09:10:25.199Z</time></trkpt><trkpt lat="37.6179467" lon="14.9331917"><ele>570.0</ele><time>2026-04-26T09:10:26.199Z</time></trkpt><trkpt lat="37.6178733" lon="14.9332917"><ele>570.0</ele><time>2026-04-26T09:10:27.199Z</time></trkpt><trkpt lat="37.6177983" lon="14.9333917"><ele>570.0</ele><time>2026-04-26T09:10:28.199Z</time></trkpt><trkpt lat="37.6177133" lon="14.9334733"><ele>570.25</ele><time>2026-04-26T09:10:29.199Z</time></trkpt><trkpt lat="37.617615" lon="14.9335283"><ele>570.5</ele><time>2026-04-26T09:10:30.199Z</time></trkpt><trkpt lat="37.617505" lon="14.9335583"><ele>570.75</ele><time>2026-04-26T09:10:31.199Z</time></trkpt><trkpt lat="37.61739" lon="14.933555"><ele>571.0</ele><time>2026-04-26T09:10:32.199Z</time></trkpt><trkpt lat="37.6172667" lon="14.9335433"><ele>571.0</ele><time>2026-04-26T09:10:33.199Z</time></trkpt><trkpt lat="37.6171483" lon="14.93353"><ele>571.0</ele><time>2026-04-26T09:10:34.199Z</time></trkpt><trkpt lat="37.6170267" lon="14.9335167"><ele>571.0</ele><time>2026-04-26T09:10:35.199Z</time></trkpt><trkpt lat="37.6169033" lon="14.9334933"><ele>571.0</ele><time>2026-04-26T09:10:36.199Z</time></trkpt><trkpt lat="37.61678" lon="14.9334683"><ele>569.75</ele><time>2026-04-26T09:10:37.199Z</time></trkpt><trkpt lat="37.61666" lon="14.933425"><ele>568.5</ele><time>2026-04-26T09:10:38.199Z</time></trkpt><trkpt lat="37.61654" lon="14.9333767"><ele>567.25</ele><time>2026-04-26T09:10:39.199Z</time></trkpt><trkpt lat="37.6164267" lon="14.9333183"><ele>566.0</ele><time>2026-04-26T09:10:40.2Z</time></trkpt><trkpt lat="37.6163133" lon="14.933255"><ele>563.75</ele><time>2026-04-26T09:10:41.199Z</time></trkpt><trkpt lat="37.616205" lon="14.9331933"><ele>561.5</ele><time>2026-04-26T09:10:42.199Z</time></trkpt><trkpt lat="37.6160983" lon="14.9331283"><ele>559.25</ele><time>2026-04-26T09:10:43.199Z</time></trkpt><trkpt lat="37.6159917" lon="14.9330617"><ele>557.0</ele><time>2026-04-26T09:10:44.2Z</time></trkpt><trkpt lat="37.6158833" lon="14.933"><ele>556.6</ele><time>2026-04-26T09:10:45.2Z</time></trkpt><trkpt lat="37.6157967" lon="14.9329517"><ele>556.2</ele><time>2026-04-26T09:10:46.199Z</time></trkpt><trkpt lat="37.61573" lon="14.93291"><ele>555.8</ele><time>2026-04-26T09:10:47.199Z</time></trkpt><trkpt lat="37.6156433" lon="14.932855"><ele>555.4</ele><time>2026-04-26T09:10:49.199Z</time></trkpt><trkpt lat="37.6155333" lon="14.93281"><ele>555.0</ele><time>2026-04-26T09:10:51.199Z</time></trkpt><trkpt lat="37.6154583" lon="14.932785"><ele>555.0</ele><time>2026-04-26T09:10:52.199Z</time></trkpt><trkpt lat="37.6153767" lon="14.9327667"><ele>555.0</ele><time>2026-04-26T09:10:53.199Z</time></trkpt><trkpt lat="37.615285" lon="14.9327567"><ele>555.0</ele><time>2026-04-26T09:10:54.199Z</time></trkpt><trkpt lat="37.615185" lon="14.9327617"><ele>555.0</ele><time>2026-04-26T09:10:55.199Z</time></trkpt><trkpt lat="37.6150767" lon="14.9327767"><ele>555.0</ele><time>2026-04-26T09:10:56.199Z</time></trkpt><trkpt lat="37.6149633" lon="14.9327833"><ele>554.8</ele><time>2026-04-26T09:10:57.199Z</time></trkpt><trkpt lat="37.61485" lon="14.9328033"><ele>554.6</ele><time>2026-04-26T09:10:58.199Z</time></trkpt><trkpt lat="37.6147417" lon="14.9328283"><ele>554.4</ele><time>2026-04-26T09:10:59.199Z</time></trkpt><trkpt lat="37.61463" lon="14.9328517"><ele>554.2</ele><time>2026-04-26T09:11:00.199Z</time></trkpt><trkpt lat="37.6145217" lon="14.9328683"><ele>554.0</ele><time>2026-04-26T09:11:01.199Z</time></trkpt><trkpt lat="37.6144167" lon="14.9328883"><ele>552.6</ele><time>2026-04-26T09:11:02.199Z</time></trkpt><trkpt lat="37.6143083" lon="14.9329117"><ele>551.2</ele><time>2026-04-26T09:11:03.199Z</time></trkpt><trkpt lat="37.6141967" lon="14.9329233"><ele>549.8000000000001</ele><time>2026-04-26T09:11:04.199Z</time></trkpt><trkpt lat="37.6140833" lon="14.9329283"><ele>548.4</ele><time>2026-04-26T09:11:05.2Z</time></trkpt><trkpt lat="37.61398" lon="14.9329117"><ele>547.0</ele><time>2026-04-26T09:11:06.199Z</time></trkpt><trkpt lat="37.6138783" lon="14.93286"><ele>547.0</ele><time>2026-04-26T09:11:07.199Z</time></trkpt><trkpt lat="37.6137683" lon="14.9327817"><ele>547.0</ele><time>2026-04-26T09:11:08.199Z</time></trkpt><trkpt lat="37.613655" lon="14.9326817"><ele>547.0</ele><time>2026-04-26T09:11:09.199Z</time></trkpt><trkpt lat="37.6135467" lon="14.9325667"><ele>547.0</ele><time>2026-04-26T09:11:10.199Z</time></trkpt><trkpt lat="37.6134383" lon="14.932445"><ele>543.25</ele><time>2026-04-26T09:11:11.2Z</time></trkpt><trkpt lat="37.6133267" lon="14.93232"><ele>539.5</ele><time>2026-04-26T09:11:12.199Z</time></trkpt><trkpt lat="37.6132183" lon="14.9322017"><ele>535.75</ele><time>2026-04-26T09:11:13.199Z</time></trkpt><trkpt lat="37.61311" lon="14.932085"><ele>532.0</ele><time>2026-04-26T09:11:14.199Z</time></trkpt><trkpt lat="37.6130017" lon="14.9319783"><ele>532.0</ele><time>2026-04-26T09:11:15.199Z</time></trkpt><trkpt lat="37.6128967" lon="14.93187"><ele>532.0</ele><time>2026-04-26T09:11:16.199Z</time></trkpt><trkpt lat="37.6127833" lon="14.9317717"><ele>532.0</ele><time>2026-04-26T09:11:17.2Z</time></trkpt><trkpt lat="37.612665" lon="14.93168"><ele>532.0</ele><time>2026-04-26T09:11:18.199Z</time></trkpt><trkpt lat="37.6125283" lon="14.931595"><ele>529.3333333333334</ele><time>2026-04-26T09:11:19.199Z</time></trkpt><trkpt lat="37.61238" lon="14.9315133"><ele>526.6666666666666</ele><time>2026-04-26T09:11:20.199Z</time></trkpt><trkpt lat="37.6122333" lon="14.9314317"><ele>524.0</ele><time>2026-04-26T09:11:21.199Z</time></trkpt><trkpt lat="37.6120883" lon="14.931355"><ele>523.0</ele><time>2026-04-26T09:11:22.199Z</time></trkpt><trkpt lat="37.6119467" lon="14.9312767"><ele>522.0</ele><time>2026-04-26T09:11:23.199Z</time></trkpt><trkpt lat="37.6118017" lon="14.931195"><ele>521.0</ele><time>2026-04-26T09:11:24.2Z</time></trkpt><trkpt lat="37.611665" lon="14.9311017"><ele>521.0</ele><time>2026-04-26T09:11:25.2Z</time></trkpt><trkpt lat="37.611545" lon="14.9309983"><ele>521.0</ele><time>2026-04-26T09:11:26.199Z</time></trkpt><trkpt lat="37.6114183" lon="14.9308817"><ele>521.0</ele><time>2026-04-26T09:11:27.199Z</time></trkpt><trkpt lat="37.6112967" lon="14.93077"><ele>519.0</ele><time>2026-04-26T09:11:28.199Z</time></trkpt><trkpt lat="37.6111833" lon="14.93065"><ele>517.0</ele><time>2026-04-26T09:11:29.2Z</time></trkpt><trkpt lat="37.61107" lon="14.9305217"><ele>515.0</ele><time>2026-04-26T09:11:30.2Z</time></trkpt><trkpt lat="37.61097" lon="14.93039"><ele>513.0</ele><time>2026-04-26T09:11:31.199Z</time></trkpt><trkpt lat="37.61087" lon="14.9302433"><ele>512.3333333333334</ele><time>2026-04-26T09:11:32.199Z</time></trkpt><trkpt lat="37.610765" lon="14.9300933"><ele>511.6666666666667</ele><time>2026-04-26T09:11:33.199Z</time></trkpt><trkpt lat="37.610655" lon="14.9299567"><ele>511.0</ele><time>2026-04-26T09:11:34.199Z</time></trkpt><trkpt lat="37.610545" lon="14.929825"><ele>509.33333333333337</ele><time>2026-04-26T09:11:35.199Z</time></trkpt><trkpt lat="37.6104333" lon="14.9296917"><ele>507.66666666666663</ele><time>2026-04-26T09:11:36.199Z</time></trkpt><trkpt lat="37.61032" lon="14.929565"><ele>506.0</ele><time>2026-04-26T09:11:37.199Z</time></trkpt><trkpt lat="37.6101933" lon="14.9294433"><ele>506.0</ele><time>2026-04-26T09:11:38.2Z</time></trkpt><trkpt lat="37.6100583" lon="14.9293333"><ele>506.0</ele><time>2026-04-26T09:11:39.199Z</time></trkpt><trkpt lat="37.60992" lon="14.9292183"><ele>506.0</ele><time>2026-04-26T09:11:40.2Z</time></trkpt><trkpt lat="37.6097767" lon="14.929105"><ele>503.66666666666663</ele><time>2026-04-26T09:11:41.199Z</time></trkpt><trkpt lat="37.60964" lon="14.9289917"><ele>501.33333333333337</ele><time>2026-04-26T09:11:42.2Z</time></trkpt><trkpt lat="37.6095033" lon="14.9288733"><ele>499.0</ele><time>2026-04-26T09:11:43.199Z</time></trkpt><trkpt lat="37.6093683" lon="14.9287683"><ele>499.0</ele><time>2026-04-26T09:11:44.2Z</time></trkpt><trkpt lat="37.6092283" lon="14.928655"><ele>499.0</ele><time>2026-04-26T09:11:45.199Z</time></trkpt><trkpt lat="37.6091" lon="14.9285533"><ele>499.0</ele><time>2026-04-26T09:11:46.2Z</time></trkpt><trkpt lat="37.6089717" lon="14.92844"><ele>497.0</ele><time>2026-04-26T09:11:47.2Z</time></trkpt><trkpt lat="37.6088383" lon="14.928335"><ele>495.0</ele><time>2026-04-26T09:11:48.199Z</time></trkpt><trkpt lat="37.6086983" lon="14.928235"><ele>493.0</ele><time>2026-04-26T09:11:49.199Z</time></trkpt><trkpt lat="37.6085567" lon="14.928135"><ele>492.0</ele><time>2026-04-26T09:11:50.199Z</time></trkpt><trkpt lat="37.60841" lon="14.9280533"><ele>491.0</ele><time>2026-04-26T09:11:51.199Z</time></trkpt><trkpt lat="37.6082567" lon="14.927975"><ele>490.0</ele><time>2026-04-26T09:11:52.199Z</time></trkpt><trkpt lat="37.6081017" lon="14.9279033"><ele>490.0</ele><time>2026-04-26T09:11:53.199Z</time></trkpt><trkpt lat="37.6079433" lon="14.9278333"><ele>490.0</ele><time>2026-04-26T09:11:54.199Z</time></trkpt><trkpt lat="37.6077917" lon="14.9277567"><ele>490.0</ele><time>2026-04-26T09:11:55.199Z</time></trkpt><trkpt lat="37.6076383" lon="14.9276883"><ele>489.6666666666667</ele><time>2026-04-26T09:11:56.199Z</time></trkpt><trkpt lat="37.6074833" lon="14.9276183"><ele>489.33333333333337</ele><time>2026-04-26T09:11:57.199Z</time></trkpt><trkpt lat="37.6073317" lon="14.9275533"><ele>489.0</ele><time>2026-04-26T09:11:58.199Z</time></trkpt><trkpt lat="37.60718" lon="14.9274867"><ele>488.0</ele><time>2026-04-26T09:11:59.199Z</time></trkpt><trkpt lat="37.6070317" lon="14.9274167"><ele>487.0</ele><time>2026-04-26T09:12:00.2Z</time></trkpt><trkpt lat="37.606885" lon="14.9273417"><ele>486.0</ele><time>2026-04-26T09:12:01.199Z</time></trkpt><trkpt lat="37.606735" lon="14.9272667"><ele>484.0</ele><time>2026-04-26T09:12:02.2Z</time></trkpt><trkpt lat="37.6065833" lon="14.9271917"><ele>482.0</ele><time>2026-04-26T09:12:03.2Z</time></trkpt><trkpt lat="37.6064317" lon="14.9271133"><ele>480.0</ele><time>2026-04-26T09:12:04.2Z</time></trkpt><trkpt lat="37.6062817" lon="14.9270383"><ele>478.66666666666663</ele><time>2026-04-26T09:12:05.199Z</time></trkpt><trkpt lat="37.606135" lon="14.9269583"><ele>477.3333333333333</ele><time>2026-04-26T09:12:06.199Z</time></trkpt><trkpt lat="37.6059867" lon="14.9268783"><ele>476.0</ele><time>2026-04-26T09:12:07.199Z</time></trkpt><trkpt lat="37.6058367" lon="14.9268067"><ele>476.0</ele><time>2026-04-26T09:12:08.199Z</time></trkpt><trkpt lat="37.6056933" lon="14.9267333"><ele>476.0</ele><time>2026-04-26T09:12:09.199Z</time></trkpt><trkpt lat="37.6055467" lon="14.9266683"><ele>476.0</ele><time>2026-04-26T09:12:10.199Z</time></trkpt><trkpt lat="37.6054067" lon="14.926595"><ele>474.66666666666663</ele><time>2026-04-26T09:12:11.199Z</time></trkpt><trkpt lat="37.6052717" lon="14.9265233"><ele>473.33333333333337</ele><time>2026-04-26T09:12:12.199Z</time></trkpt><trkpt lat="37.605125" lon="14.9264533"><ele>472.0</ele><time>2026-04-26T09:12:13.199Z</time></trkpt><trkpt lat="37.60498" lon="14.92638"><ele>472.0</ele><time>2026-04-26T09:12:14.2Z</time></trkpt><trkpt lat="37.6048433" lon="14.926305"><ele>472.0</ele><time>2026-04-26T09:12:15.2Z</time></trkpt><trkpt lat="37.6047117" lon="14.9262317"><ele>472.0</ele><time>2026-04-26T09:12:16.199Z</time></trkpt><trkpt lat="37.6045733" lon="14.9261583"><ele>472.0</ele><time>2026-04-26T09:12:17.2Z</time></trkpt><trkpt lat="37.604435" lon="14.9260883"><ele>470.33333333333337</ele><time>2026-04-26T09:12:18.2Z</time></trkpt><trkpt lat="37.6042867" lon="14.9260233"><ele>468.66666666666663</ele><time>2026-04-26T09:12:19.199Z</time></trkpt><trkpt lat="37.6041367" lon="14.9259783"><ele>467.0</ele><time>2026-04-26T09:12:20.199Z</time></trkpt><trkpt lat="37.603985" lon="14.925945"><ele>467.0</ele><time>2026-04-26T09:12:21.2Z</time></trkpt><trkpt lat="37.6038367" lon="14.9259133"><ele>467.0</ele><time>2026-04-26T09:12:22.199Z</time></trkpt><trkpt lat="37.6036883" lon="14.92589"><ele>467.0</ele><time>2026-04-26T09:12:23.199Z</time></trkpt><trkpt lat="37.6035367" lon="14.925865"><ele>463.3333333333333</ele><time>2026-04-26T09:12:24.199Z</time></trkpt><trkpt lat="37.6033817" lon="14.9258383"><ele>459.66666666666663</ele><time>2026-04-26T09:12:25.199Z</time></trkpt><trkpt lat="37.603235" lon="14.9258117"><ele>456.0</ele><time>2026-04-26T09:12:26.2Z</time></trkpt><trkpt lat="37.60309" lon="14.9257917"><ele>456.0</ele><time>2026-04-26T09:12:27.2Z</time></trkpt><trkpt lat="37.6029367" lon="14.9257633"><ele>456.0</ele><time>2026-04-26T09:12:28.199Z</time></trkpt><trkpt lat="37.6027933" lon="14.925745"><ele>456.0</ele><time>2026-04-26T09:12:29.199Z</time></trkpt><trkpt lat="37.60264" lon="14.9257283"><ele>454.66666666666663</ele><time>2026-04-26T09:12:30.199Z</time></trkpt><trkpt lat="37.60249" lon="14.9257117"><ele>453.3333333333333</ele><time>2026-04-26T09:12:31.199Z</time></trkpt><trkpt lat="37.6023333" lon="14.9256983"><ele>452.0</ele><time>2026-04-26T09:12:32.199Z</time></trkpt><trkpt lat="37.6021833" lon="14.925695"><ele>452.0</ele><time>2026-04-26T09:12:33.199Z</time></trkpt><trkpt lat="37.6020317" lon="14.9256967"><ele>452.0</ele><time>2026-04-26T09:12:34.199Z</time></trkpt><trkpt lat="37.6018817" lon="14.9257133"><ele>452.0</ele><time>2026-04-26T09:12:35.199Z</time></trkpt><trkpt lat="37.601735" lon="14.92573"><ele>452.0</ele><time>2026-04-26T09:12:36.199Z</time></trkpt><trkpt lat="37.6015933" lon="14.92576"><ele>451.3333333333333</ele><time>2026-04-26T09:12:37.199Z</time></trkpt><trkpt lat="37.60145" lon="14.925795"><ele>450.66666666666663</ele><time>2026-04-26T09:12:38.199Z</time></trkpt><trkpt lat="37.6012967" lon="14.9258367"><ele>450.0</ele><time>2026-04-26T09:12:39.199Z</time></trkpt><trkpt lat="37.60115" lon="14.9258817"><ele>449.66666666666663</ele><time>2026-04-26T09:12:40.199Z</time></trkpt><trkpt lat="37.6009967" lon="14.9259167"><ele>449.3333333333333</ele><time>2026-04-26T09:12:41.2Z</time></trkpt><trkpt lat="37.6008433" lon="14.9259567"><ele>449.0</ele><time>2026-04-26T09:12:42.199Z</time></trkpt><trkpt lat="37.6006933" lon="14.9259967"><ele>449.0</ele><time>2026-04-26T09:12:43.2Z</time></trkpt><trkpt lat="37.600545" lon="14.92604"><ele>449.0</ele><time>2026-04-26T09:12:44.199Z</time></trkpt><trkpt lat="37.6003867" lon="14.9260867"><ele>449.0</ele><time>2026-04-26T09:12:45.199Z</time></trkpt><trkpt lat="37.60023" lon="14.9261333"><ele>448.3333333333333</ele><time>2026-04-26T09:12:46.2Z</time></trkpt><trkpt lat="37.6000733" lon="14.926175"><ele>447.66666666666663</ele><time>2026-04-26T09:12:47.199Z</time></trkpt><trkpt lat="37.59992" lon="14.9262033"><ele>447.0</ele><time>2026-04-26T09:12:48.2Z</time></trkpt><trkpt lat="37.5997667" lon="14.9262267"><ele>447.0</ele><time>2026-04-26T09:12:49.2Z</time></trkpt><trkpt lat="37.5996133" lon="14.9262417"><ele>447.0</ele><time>2026-04-26T09:12:50.199Z</time></trkpt><trkpt lat="37.5994633" lon="14.92625"><ele>447.0</ele><time>2026-04-26T09:12:51.2Z</time></trkpt><trkpt lat="37.5993067" lon="14.9262533"><ele>445.66666666666663</ele><time>2026-04-26T09:12:52.199Z</time></trkpt><trkpt lat="37.5991533" lon="14.926265"><ele>444.3333333333333</ele><time>2026-04-26T09:12:53.2Z</time></trkpt><trkpt lat="37.599005" lon="14.9262733"><ele>443.0</ele><time>2026-04-26T09:12:54.2Z</time></trkpt><trkpt lat="37.5988533" lon="14.92628"><ele>443.0</ele><time>2026-04-26T09:12:55.199Z</time></trkpt><trkpt lat="37.598695" lon="14.9262883"><ele>443.0</ele><time>2026-04-26T09:12:56.199Z</time></trkpt><trkpt lat="37.5985217" lon="14.9263017"><ele>443.0</ele><time>2026-04-26T09:12:57.199Z</time></trkpt><trkpt lat="37.59833" lon="14.92632"><ele>442.66666666666663</ele><time>2026-04-26T09:12:58.199Z</time></trkpt><trkpt lat="37.5981333" lon="14.9263367"><ele>442.33333333333337</ele><time>2026-04-26T09:12:59.199Z</time></trkpt><trkpt lat="37.597925" lon="14.92634"><ele>442.0</ele><time>2026-04-26T09:13:00.2Z</time></trkpt><trkpt lat="37.597705" lon="14.9263383"><ele>441.6666666666667</ele><time>2026-04-26T09:13:01.199Z</time></trkpt><trkpt lat="37.5974933" lon="14.9263283"><ele>441.33333333333337</ele><time>2026-04-26T09:13:02.2Z</time></trkpt><trkpt lat="37.5972883" lon="14.926325"><ele>441.0</ele><time>2026-04-26T09:13:03.199Z</time></trkpt><trkpt lat="37.597085" lon="14.9263183"><ele>440.33333333333337</ele><time>2026-04-26T09:13:04.199Z</time></trkpt><trkpt lat="37.5968817" lon="14.926315"><ele>439.6666666666667</ele><time>2026-04-26T09:13:05.199Z</time></trkpt><trkpt lat="37.5966883" lon="14.9263167"><ele>439.0</ele><time>2026-04-26T09:13:06.2Z</time></trkpt><trkpt lat="37.5965017" lon="14.9263167"><ele>439.0</ele><time>2026-04-26T09:13:07.199Z</time></trkpt><trkpt lat="37.5963233" lon="14.9263217"><ele>439.0</ele><time>2026-04-26T09:13:08.199Z</time></trkpt><trkpt lat="37.5961533" lon="14.9263183"><ele>439.0</ele><time>2026-04-26T09:13:09.199Z</time></trkpt><trkpt lat="37.5959833" lon="14.9263217"><ele>438.25</ele><time>2026-04-26T09:13:10.199Z</time></trkpt><trkpt lat="37.595825" lon="14.9263217"><ele>437.5</ele><time>2026-04-26T09:13:11.2Z</time></trkpt><trkpt lat="37.595675" lon="14.9263233"><ele>436.75</ele><time>2026-04-26T09:13:12.2Z</time></trkpt><trkpt lat="37.595535" lon="14.92631"><ele>436.0</ele><time>2026-04-26T09:13:13.199Z</time></trkpt><trkpt lat="37.5954017" lon="14.926295"><ele>433.75</ele><time>2026-04-26T09:13:14.2Z</time></trkpt><trkpt lat="37.5952733" lon="14.92625"><ele>431.5</ele><time>2026-04-26T09:13:15.199Z</time></trkpt><trkpt lat="37.595145" lon="14.9261733"><ele>429.25</ele><time>2026-04-26T09:13:16.199Z</time></trkpt><trkpt lat="37.5950217" lon="14.9260783"><ele>427.0</ele><time>2026-04-26T09:13:17.199Z</time></trkpt><trkpt lat="37.5948983" lon="14.92595"><ele>425.6666666666667</ele><time>2026-04-26T09:13:18.199Z</time></trkpt><trkpt lat="37.5947867" lon="14.9258167"><ele>424.33333333333337</ele><time>2026-04-26T09:13:19.199Z</time></trkpt><trkpt lat="37.5946867" lon="14.925665"><ele>423.0</ele><time>2026-04-26T09:13:20.199Z</time></trkpt><trkpt lat="37.5946033" lon="14.925505"><ele>423.0</ele><time>2026-04-26T09:13:21.199Z</time></trkpt><trkpt lat="37.5945317" lon="14.92532"><ele>423.0</ele><time>2026-04-26T09:13:22.199Z</time></trkpt><trkpt lat="37.5944767" lon="14.9251217"><ele>423.0</ele><time>2026-04-26T09:13:23.199Z</time></trkpt><trkpt lat="37.594435" lon="14.9249067"><ele>420.66666666666663</ele><time>2026-04-26T09:13:24.2Z</time></trkpt><trkpt lat="37.5944117" lon="14.9246883"><ele>418.3333333333333</ele><time>2026-04-26T09:13:25.199Z</time></trkpt><trkpt lat="37.5944" lon="14.9244567"><ele>416.0</ele><time>2026-04-26T09:13:26.199Z</time></trkpt><trkpt lat="37.5943867" lon="14.9242217"><ele>413.3333333333333</ele><time>2026-04-26T09:13:27.199Z</time></trkpt><trkpt lat="37.59437" lon="14.92398"><ele>410.66666666666663</ele><time>2026-04-26T09:13:28.199Z</time></trkpt><trkpt lat="37.5943517" lon="14.923745"><ele>408.0</ele><time>2026-04-26T09:13:29.199Z</time></trkpt><trkpt lat="37.5943317" lon="14.9235167"><ele>406.0</ele><time>2026-04-26T09:13:30.199Z</time></trkpt><trkpt lat="37.594315" lon="14.9232983"><ele>404.0</ele><time>2026-04-26T09:13:31.199Z</time></trkpt><trkpt lat="37.5943" lon="14.9230883"><ele>402.0</ele><time>2026-04-26T09:13:32.199Z</time></trkpt><trkpt lat="37.594285" lon="14.9228817"><ele>402.0</ele><time>2026-04-26T09:13:33.199Z</time></trkpt><trkpt lat="37.5942667" lon="14.92267"><ele>402.0</ele><time>2026-04-26T09:13:34.199Z</time></trkpt><trkpt lat="37.5942483" lon="14.922485"><ele>402.0</ele><time>2026-04-26T09:13:35.199Z</time></trkpt><trkpt lat="37.5942117" lon="14.922305"><ele>400.66666666666663</ele><time>2026-04-26T09:13:36.199Z</time></trkpt><trkpt lat="37.5941533" lon="14.9221217"><ele>399.3333333333333</ele><time>2026-04-26T09:13:37.199Z</time></trkpt><trkpt lat="37.5940833" lon="14.9219567"><ele>398.0</ele><time>2026-04-26T09:13:38.2Z</time></trkpt><trkpt lat="37.59398" lon="14.921805"><ele>397.0</ele><time>2026-04-26T09:13:39.2Z</time></trkpt><trkpt lat="37.5938583" lon="14.9216667"><ele>396.0</ele><time>2026-04-26T09:13:40.199Z</time></trkpt><trkpt lat="37.593725" lon="14.9215383"><ele>395.0</ele><time>2026-04-26T09:13:41.199Z</time></trkpt><trkpt lat="37.5935883" lon="14.9214033"><ele>395.0</ele><time>2026-04-26T09:13:42.199Z</time></trkpt><trkpt lat="37.5934433" lon="14.9212683"><ele>395.0</ele><time>2026-04-26T09:13:43.199Z</time></trkpt><trkpt lat="37.593285" lon="14.9211283"><ele>395.0</ele><time>2026-04-26T09:13:44.2Z</time></trkpt><trkpt lat="37.593135" lon="14.92098"><ele>393.66666666666663</ele><time>2026-04-26T09:13:45.199Z</time></trkpt><trkpt lat="37.592985" lon="14.9208417"><ele>392.33333333333337</ele><time>2026-04-26T09:13:46.199Z</time></trkpt><trkpt lat="37.5928433" lon="14.9207083"><ele>391.0</ele><time>2026-04-26T09:13:47.199Z</time></trkpt><trkpt lat="37.592695" lon="14.92057"><ele>390.33333333333337</ele><time>2026-04-26T09:13:48.199Z</time></trkpt><trkpt lat="37.592555" lon="14.92044"><ele>389.66666666666663</ele><time>2026-04-26T09:13:49.199Z</time></trkpt><trkpt lat="37.592415" lon="14.9203083"><ele>389.0</ele><time>2026-04-26T09:13:50.199Z</time></trkpt><trkpt lat="37.592285" lon="14.9201867"><ele>387.3333333333333</ele><time>2026-04-26T09:13:51.199Z</time></trkpt><trkpt lat="37.59214" lon="14.9200617"><ele>385.66666666666663</ele><time>2026-04-26T09:13:52.199Z</time></trkpt><trkpt lat="37.59201" lon="14.9199417"><ele>384.0</ele><time>2026-04-26T09:13:53.199Z</time></trkpt><trkpt lat="37.5918767" lon="14.9198133"><ele>383.3333333333333</ele><time>2026-04-26T09:13:54.199Z</time></trkpt><trkpt lat="37.591745" lon="14.9196817"><ele>382.66666666666663</ele><time>2026-04-26T09:13:55.199Z</time></trkpt><trkpt lat="37.5916117" lon="14.9195617"><ele>382.0</ele><time>2026-04-26T09:13:56.2Z</time></trkpt><trkpt lat="37.5914783" lon="14.91945"><ele>382.0</ele><time>2026-04-26T09:13:57.199Z</time></trkpt><trkpt lat="37.591335" lon="14.9193483"><ele>382.0</ele><time>2026-04-26T09:13:58.199Z</time></trkpt><trkpt lat="37.5911833" lon="14.91926"><ele>382.0</ele><time>2026-04-26T09:13:59.199Z</time></trkpt><trkpt lat="37.5910167" lon="14.9191817"><ele>377.66666666666663</ele><time>2026-04-26T09:14:00.199Z</time></trkpt><trkpt lat="37.59085" lon="14.9191133"><ele>373.3333333333333</ele><time>2026-04-26T09:14:01.199Z</time></trkpt><trkpt lat="37.590685" lon="14.9190517"><ele>369.0</ele><time>2026-04-26T09:14:02.199Z</time></trkpt><trkpt lat="37.59052" lon="14.91899"><ele>369.0</ele><time>2026-04-26T09:14:03.199Z</time></trkpt><trkpt lat="37.59035" lon="14.9189117"><ele>369.0</ele><time>2026-04-26T09:14:04.199Z</time></trkpt><trkpt lat="37.5901783" lon="14.9188217"><ele>369.0</ele><time>2026-04-26T09:14:05.199Z</time></trkpt><trkpt lat="37.59001" lon="14.9187333"><ele>368.3333333333333</ele><time>2026-04-26T09:14:06.199Z</time></trkpt><trkpt lat="37.5898333" lon="14.918645"><ele>367.66666666666663</ele><time>2026-04-26T09:14:07.199Z</time></trkpt><trkpt lat="37.5896683" lon="14.9185617"><ele>367.0</ele><time>2026-04-26T09:14:08.199Z</time></trkpt><trkpt lat="37.5895033" lon="14.91848"><ele>363.3333333333333</ele><time>2026-04-26T09:14:09.199Z</time></trkpt><trkpt lat="37.5893433" lon="14.9183967"><ele>359.6666666666667</ele><time>2026-04-26T09:14:10.199Z</time></trkpt><trkpt lat="37.5891933" lon="14.9183183"><ele>356.0</ele><time>2026-04-26T09:14:11.199Z</time></trkpt><trkpt lat="37.5890417" lon="14.9182417"><ele>356.0</ele><time>2026-04-26T09:14:12.2Z</time></trkpt><trkpt lat="37.5888867" lon="14.918165"><ele>356.0</ele><time>2026-04-26T09:14:13.199Z</time></trkpt><trkpt lat="37.5887317" lon="14.91809"><ele>356.0</ele><time>2026-04-26T09:14:14.199Z</time></trkpt><trkpt lat="37.5885867" lon="14.91801"><ele>355.0</ele><time>2026-04-26T09:14:15.2Z</time></trkpt><trkpt lat="37.5884417" lon="14.917925"><ele>354.0</ele><time>2026-04-26T09:14:16.199Z</time></trkpt><trkpt lat="37.5882933" lon="14.9178433"><ele>353.0</ele><time>2026-04-26T09:14:17.199Z</time></trkpt><trkpt lat="37.58815" lon="14.9177517"><ele>353.0</ele><time>2026-04-26T09:14:18.199Z</time></trkpt><trkpt lat="37.5880133" lon="14.917655"><ele>353.0</ele><time>2026-04-26T09:14:19.2Z</time></trkpt><trkpt lat="37.58788" lon="14.9175483"><ele>353.0</ele><time>2026-04-26T09:14:20.2Z</time></trkpt><trkpt lat="37.58774" lon="14.917445"><ele>350.0</ele><time>2026-04-26T09:14:21.199Z</time></trkpt><trkpt lat="37.587605" lon="14.9173317"><ele>347.0</ele><time>2026-04-26T09:14:22.199Z</time></trkpt><trkpt lat="37.5874617" lon="14.917225"><ele>344.0</ele><time>2026-04-26T09:14:23.2Z</time></trkpt><trkpt lat="37.5873183" lon="14.917125"><ele>344.0</ele><time>2026-04-26T09:14:24.2Z</time></trkpt><trkpt lat="37.5871633" lon="14.9170367"><ele>344.0</ele><time>2026-04-26T09:14:25.199Z</time></trkpt><trkpt lat="37.5870083" lon="14.91697"><ele>344.0</ele><time>2026-04-26T09:14:26.199Z</time></trkpt><trkpt lat="37.586855" lon="14.9169033"><ele>343.0</ele><time>2026-04-26T09:14:27.199Z</time></trkpt><trkpt lat="37.5867067" lon="14.9168417"><ele>342.0</ele><time>2026-04-26T09:14:28.199Z</time></trkpt><trkpt lat="37.5865717" lon="14.91678"><ele>341.0</ele><time>2026-04-26T09:14:29.199Z</time></trkpt><trkpt lat="37.58645" lon="14.91672"><ele>340.0</ele><time>2026-04-26T09:14:30.199Z</time></trkpt><trkpt lat="37.58633" lon="14.9166567"><ele>339.0</ele><time>2026-04-26T09:14:31.2Z</time></trkpt><trkpt lat="37.5862267" lon="14.9165733"><ele>338.0</ele><time>2026-04-26T09:14:32.2Z</time></trkpt><trkpt lat="37.5861217" lon="14.916475"><ele>337.0</ele><time>2026-04-26T09:14:33.199Z</time></trkpt><trkpt lat="37.5860233" lon="14.9163817"><ele>336.0</ele><time>2026-04-26T09:14:34.199Z</time></trkpt><trkpt lat="37.5859467" lon="14.9162633"><ele>334.5</ele><time>2026-04-26T09:14:35.199Z</time></trkpt><trkpt lat="37.5858567" lon="14.9161333"><ele>333.0</ele><time>2026-04-26T09:14:36.2Z</time></trkpt><trkpt lat="37.5857733" lon="14.916"><ele>331.5</ele><time>2026-04-26T09:14:37.199Z</time></trkpt><trkpt lat="37.58568" lon="14.91587"><ele>330.0</ele><time>2026-04-26T09:14:38.199Z</time></trkpt><trkpt lat="37.585595" lon="14.91573"><ele>329.75</ele><time>2026-04-26T09:14:39.199Z</time></trkpt><trkpt lat="37.5855067" lon="14.9156033"><ele>329.5</ele><time>2026-04-26T09:14:40.199Z</time></trkpt><trkpt lat="37.585415" lon="14.9154817"><ele>329.25</ele><time>2026-04-26T09:14:41.199Z</time></trkpt><trkpt lat="37.585335" lon="14.915365"><ele>329.0</ele><time>2026-04-26T09:14:42.199Z</time></trkpt><trkpt lat="37.585235" lon="14.91526"><ele>327.75</ele><time>2026-04-26T09:14:43.199Z</time></trkpt><trkpt lat="37.5851083" lon="14.9151633"><ele>326.5</ele><time>2026-04-26T09:14:44.199Z</time></trkpt><trkpt lat="37.5849833" lon="14.9150967"><ele>325.25</ele><time>2026-04-26T09:14:45.199Z</time></trkpt><trkpt lat="37.5848567" lon="14.9150383"><ele>324.0</ele><time>2026-04-26T09:14:46.199Z</time></trkpt><trkpt lat="37.5847433" lon="14.91498"><ele>323.5</ele><time>2026-04-26T09:14:47.199Z</time></trkpt><trkpt lat="37.5846367" lon="14.9149133"><ele>323.0</ele><time>2026-04-26T09:14:48.199Z</time></trkpt><trkpt lat="37.58454" lon="14.9148133"><ele>322.5</ele><time>2026-04-26T09:14:49.199Z</time></trkpt><trkpt lat="37.5844383" lon="14.9147167"><ele>322.0</ele><time>2026-04-26T09:14:50.199Z</time></trkpt><trkpt lat="37.584335" lon="14.9146217"><ele>321.0</ele><time>2026-04-26T09:14:51.2Z</time></trkpt><trkpt lat="37.5842317" lon="14.9145383"><ele>320.0</ele><time>2026-04-26T09:14:52.2Z</time></trkpt><trkpt lat="37.584115" lon="14.9144633"><ele>319.0</ele><time>2026-04-26T09:14:53.199Z</time></trkpt><trkpt lat="37.58399" lon="14.9144133"><ele>318.0</ele><time>2026-04-26T09:14:54.199Z</time></trkpt><trkpt lat="37.5838733" lon="14.9143883"><ele>318.0</ele><time>2026-04-26T09:14:55.199Z</time></trkpt><trkpt lat="37.5837633" lon="14.9143683"><ele>318.0</ele><time>2026-04-26T09:14:56.199Z</time></trkpt><trkpt lat="37.5836683" lon="14.9143317"><ele>318.0</ele><time>2026-04-26T09:14:57.199Z</time></trkpt><trkpt lat="37.5835883" lon="14.914295"><ele>318.0</ele><time>2026-04-26T09:14:58.199Z</time></trkpt><trkpt lat="37.5835133" lon="14.914225"><ele>318.0</ele><time>2026-04-26T09:14:59.2Z</time></trkpt><trkpt lat="37.583455" lon="14.914135"><ele>316.4</ele><time>2026-04-26T09:15:00.199Z</time></trkpt><trkpt lat="37.583405" lon="14.9140417"><ele>314.8</ele><time>2026-04-26T09:15:01.199Z</time></trkpt><trkpt lat="37.5833533" lon="14.9139317"><ele>313.2</ele><time>2026-04-26T09:15:02.199Z</time></trkpt><trkpt lat="37.5833067" lon="14.9138233"><ele>311.6</ele><time>2026-04-26T09:15:03.2Z</time></trkpt><trkpt lat="37.58327" lon="14.9137183"><ele>310.0</ele><time>2026-04-26T09:15:04.199Z</time></trkpt><trkpt lat="37.583235" lon="14.913625"><ele>310.0</ele><time>2026-04-26T09:15:05.199Z</time></trkpt><trkpt lat="37.5831983" lon="14.913535"><ele>310.0</ele><time>2026-04-26T09:15:06.199Z</time></trkpt><trkpt lat="37.5831617" lon="14.9134383"><ele>310.0</ele><time>2026-04-26T09:15:07.199Z</time></trkpt><trkpt lat="37.5831283" lon="14.91334"><ele>310.0</ele><time>2026-04-26T09:15:08.199Z</time></trkpt><trkpt lat="37.5830933" lon="14.91325"><ele>310.0</ele><time>2026-04-26T09:15:09.199Z</time></trkpt><trkpt lat="37.5830583" lon="14.9131417"><ele>310.0</ele><time>2026-04-26T09:15:10.199Z</time></trkpt><trkpt lat="37.583015" lon="14.9130317"><ele>308.8</ele><time>2026-04-26T09:15:11.2Z</time></trkpt><trkpt lat="37.5829783" lon="14.9129233"><ele>307.6</ele><time>2026-04-26T09:15:12.2Z</time></trkpt><trkpt lat="37.5829333" lon="14.91281"><ele>306.4</ele><time>2026-04-26T09:15:13.199Z</time></trkpt><trkpt lat="37.5828817" lon="14.9126983"><ele>305.2</ele><time>2026-04-26T09:15:14.199Z</time></trkpt><trkpt lat="37.5828167" lon="14.9125767"><ele>304.0</ele><time>2026-04-26T09:15:15.199Z</time></trkpt><trkpt lat="37.5827383" lon="14.91246"><ele>301.5</ele><time>2026-04-26T09:15:16.199Z</time></trkpt><trkpt lat="37.58265" lon="14.912335"><ele>299.0</ele><time>2026-04-26T09:15:17.199Z</time></trkpt><trkpt lat="37.5825517" lon="14.91221"><ele>296.5</ele><time>2026-04-26T09:15:18.199Z</time></trkpt><trkpt lat="37.5824517" lon="14.9120933"><ele>294.0</ele><time>2026-04-26T09:15:19.199Z</time></trkpt><trkpt lat="37.5823433" lon="14.911985"><ele>294.0</ele><time>2026-04-26T09:15:20.199Z</time></trkpt><trkpt lat="37.5822267" lon="14.9118783"><ele>294.0</ele><time>2026-04-26T09:15:21.199Z</time></trkpt><trkpt lat="37.582115" lon="14.9117717"><ele>294.0</ele><time>2026-04-26T09:15:22.199Z</time></trkpt><trkpt lat="37.5820167" lon="14.9116667"><ele>294.0</ele><time>2026-04-26T09:15:23.199Z</time></trkpt><trkpt lat="37.5819083" lon="14.9115583"><ele>293.75</ele><time>2026-04-26T09:15:24.2Z</time></trkpt><trkpt lat="37.5818083" lon="14.9114517"><ele>293.5</ele><time>2026-04-26T09:15:25.199Z</time></trkpt><trkpt lat="37.581715" lon="14.9113583"><ele>293.25</ele><time>2026-04-26T09:15:26.199Z</time></trkpt><trkpt lat="37.5816167" lon="14.9112483"><ele>293.0</ele><time>2026-04-26T09:15:27.2Z</time></trkpt><trkpt lat="37.581515" lon="14.9111367"><ele>293.0</ele><time>2026-04-26T09:15:28.199Z</time></trkpt><trkpt lat="37.5814233" lon="14.9110283"><ele>293.0</ele><time>2026-04-26T09:15:29.199Z</time></trkpt><trkpt lat="37.581325" lon="14.91092"><ele>293.0</ele><time>2026-04-26T09:15:30.199Z</time></trkpt><trkpt lat="37.5812283" lon="14.9108067"><ele>293.0</ele><time>2026-04-26T09:15:31.199Z</time></trkpt><trkpt lat="37.5811317" lon="14.9106983"><ele>292.0</ele><time>2026-04-26T09:15:32.199Z</time></trkpt><trkpt lat="37.5810517" lon="14.910595"><ele>291.0</ele><time>2026-04-26T09:15:33.199Z</time></trkpt><trkpt lat="37.5809633" lon="14.9104783"><ele>290.0</ele><time>2026-04-26T09:15:34.199Z</time></trkpt><trkpt lat="37.5808833" lon="14.9103617"><ele>289.0</ele><time>2026-04-26T09:15:35.2Z</time></trkpt><trkpt lat="37.5808067" lon="14.9102483"><ele>289.0</ele><time>2026-04-26T09:15:36.199Z</time></trkpt><trkpt lat="37.5807333" lon="14.910135"><ele>289.0</ele><time>2026-04-26T09:15:37.199Z</time></trkpt><trkpt lat="37.5806567" lon="14.91001"><ele>289.0</ele><time>2026-04-26T09:15:38.199Z</time></trkpt><trkpt lat="37.5805867" lon="14.9098767"><ele>289.0</ele><time>2026-04-26T09:15:39.199Z</time></trkpt><trkpt lat="37.58053" lon="14.909735"><ele>288.75</ele><time>2026-04-26T09:15:40.2Z</time></trkpt><trkpt lat="37.5804733" lon="14.9095883"><ele>288.5</ele><time>2026-04-26T09:15:41.2Z</time></trkpt><trkpt lat="37.5804217" lon="14.9094367"><ele>288.25</ele><time>2026-04-26T09:15:42.199Z</time></trkpt><trkpt lat="37.58037" lon="14.9092867"><ele>288.0</ele><time>2026-04-26T09:15:43.199Z</time></trkpt><trkpt lat="37.58032" lon="14.9091367"><ele>287.0</ele><time>2026-04-26T09:15:44.199Z</time></trkpt><trkpt lat="37.5802667" lon="14.9089917"><ele>286.0</ele><time>2026-04-26T09:15:45.199Z</time></trkpt><trkpt lat="37.5802083" lon="14.908855"><ele>285.0</ele><time>2026-04-26T09:15:46.199Z</time></trkpt><trkpt lat="37.58014" lon="14.9087233"><ele>284.0</ele><time>2026-04-26T09:15:47.2Z</time></trkpt><trkpt lat="37.5800683" lon="14.9086"><ele>284.0</ele><time>2026-04-26T09:15:48.199Z</time></trkpt><trkpt lat="37.5800033" lon="14.908485"><ele>284.0</ele><time>2026-04-26T09:15:49.199Z</time></trkpt><trkpt lat="37.579935" lon="14.908365"><ele>284.0</ele><time>2026-04-26T09:15:50.199Z</time></trkpt><trkpt lat="37.579865" lon="14.9082533"><ele>284.0</ele><time>2026-04-26T09:15:51.199Z</time></trkpt><trkpt lat="37.5797917" lon="14.9081533"><ele>283.2</ele><time>2026-04-26T09:15:52.199Z</time></trkpt><trkpt lat="37.5797167" lon="14.9080667"><ele>282.4</ele><time>2026-04-26T09:15:53.2Z</time></trkpt><trkpt lat="37.57964" lon="14.9079833"><ele>281.6</ele><time>2026-04-26T09:15:54.199Z</time></trkpt><trkpt lat="37.5795533" lon="14.907915"><ele>280.8</ele><time>2026-04-26T09:15:55.2Z</time></trkpt><trkpt lat="37.579465" lon="14.9078583"><ele>280.0</ele><time>2026-04-26T09:15:56.199Z</time></trkpt><trkpt lat="37.5793867" lon="14.9078183"><ele>280.0</ele><time>2026-04-26T09:15:57.199Z</time></trkpt><trkpt lat="37.579305" lon="14.907785"><ele>280.0</ele><time>2026-04-26T09:15:58.199Z</time></trkpt><trkpt lat="37.5792417" lon="14.907765"><ele>280.0</ele><time>2026-04-26T09:15:59.199Z</time></trkpt><trkpt lat="37.5791783" lon="14.9077367"><ele>280.0</ele><time>2026-04-26T09:16:00.199Z</time></trkpt><trkpt lat="37.5791117" lon="14.9077083"><ele>280.0</ele><time>2026-04-26T09:16:01.2Z</time></trkpt><trkpt lat="37.57899" lon="14.9076733"><ele>280.0</ele><time>2026-04-26T09:16:03.199Z</time></trkpt><trkpt lat="37.57888" lon="14.90763"><ele>280.0</ele><time>2026-04-26T09:16:05.199Z</time></trkpt><trkpt lat="37.5787983" lon="14.9076"><ele>280.0</ele><time>2026-04-26T09:16:07.199Z</time></trkpt><trkpt lat="37.5787267" lon="14.9075517"><ele>280.0</ele><time>2026-04-26T09:16:09.199Z</time></trkpt><trkpt lat="37.5786533" lon="14.9074733"><ele>280.0</ele><time>2026-04-26T09:16:11.199Z</time></trkpt><trkpt lat="37.57858" lon="14.907395"><ele>280.0</ele><time>2026-04-26T09:16:13.199Z</time></trkpt><trkpt lat="37.5784883" lon="14.9073"><ele>279.42857142857144</ele><time>2026-04-26T09:16:15.199Z</time></trkpt><trkpt lat="37.57844" lon="14.907245"><ele>278.8571428571429</ele><time>2026-04-26T09:16:16.199Z</time></trkpt><trkpt lat="37.5783967" lon="14.9071867"><ele>278.2857142857143</ele><time>2026-04-26T09:16:17.199Z</time></trkpt><trkpt lat="37.5783467" lon="14.907125"><ele>277.7142857142857</ele><time>2026-04-26T09:16:18.2Z</time></trkpt><trkpt lat="37.5782967" lon="14.9070717"><ele>277.14285714285717</ele><time>2026-04-26T09:16:19.199Z</time></trkpt><trkpt lat="37.578245" lon="14.9070133"><ele>276.57142857142856</ele><time>2026-04-26T09:16:20.199Z</time></trkpt><trkpt lat="37.5781917" lon="14.9069517"><ele>276.0</ele><time>2026-04-26T09:16:21.199Z</time></trkpt><trkpt lat="37.5781483" lon="14.9068867"><ele>276.0</ele><time>2026-04-26T09:16:22.199Z</time></trkpt><trkpt lat="37.578085" lon="14.9068333"><ele>276.0</ele><time>2026-04-26T09:16:24.199Z</time></trkpt><trkpt lat="37.5780483" lon="14.906765"><ele>276.0</ele><time>2026-04-26T09:16:30.199Z</time></trkpt><trkpt lat="37.5780133" lon="14.9066883"><ele>276.0</ele><time>2026-04-26T09:16:34.2Z</time></trkpt><trkpt lat="37.5780367" lon="14.9065783"><ele>276.0</ele><time>2026-04-26T09:16:36.199Z</time></trkpt><trkpt lat="37.578065" lon="14.9065067"><ele>276.0</ele><time>2026-04-26T09:16:37.199Z</time></trkpt><trkpt lat="37.5781083" lon="14.9064233"><ele>276.0</ele><time>2026-04-26T09:16:38.199Z</time></trkpt><trkpt lat="37.5781517" lon="14.906325"><ele>274.75</ele><time>2026-04-26T09:16:39.199Z</time></trkpt><trkpt lat="37.5782" lon="14.9062117"><ele>273.5</ele><time>2026-04-26T09:16:40.199Z</time></trkpt><trkpt lat="37.57825" lon="14.9060767"><ele>272.25</ele><time>2026-04-26T09:16:41.199Z</time></trkpt><trkpt lat="37.578305" lon="14.9059367"><ele>271.0</ele><time>2026-04-26T09:16:42.2Z</time></trkpt><trkpt lat="37.5783667" lon="14.9057917"><ele>269.5</ele><time>2026-04-26T09:16:43.199Z</time></trkpt><trkpt lat="37.57842" lon="14.905645"><ele>268.0</ele><time>2026-04-26T09:16:44.199Z</time></trkpt><trkpt lat="37.578475" lon="14.9055"><ele>266.5</ele><time>2026-04-26T09:16:45.199Z</time></trkpt><trkpt lat="37.57854" lon="14.9053467"><ele>265.0</ele><time>2026-04-26T09:16:46.199Z</time></trkpt><trkpt lat="37.5786033" lon="14.9051833"><ele>264.5</ele><time>2026-04-26T09:16:47.199Z</time></trkpt><trkpt lat="37.5786617" lon="14.90502"><ele>264.0</ele><time>2026-04-26T09:16:48.199Z</time></trkpt><trkpt lat="37.57872" lon="14.9048533"><ele>263.5</ele><time>2026-04-26T09:16:49.2Z</time></trkpt><trkpt lat="37.5787717" lon="14.9046983"><ele>263.0</ele><time>2026-04-26T09:16:50.199Z</time></trkpt><trkpt lat="37.578825" lon="14.9045533"><ele>264.0</ele><time>2026-04-26T09:16:51.2Z</time></trkpt><trkpt lat="37.5788767" lon="14.90442"><ele>265.0</ele><time>2026-04-26T09:16:52.2Z</time></trkpt><trkpt lat="37.5789283" lon="14.90429"><ele>266.0</ele><time>2026-04-26T09:16:53.199Z</time></trkpt><trkpt lat="37.5789767" lon="14.90416"><ele>267.0</ele><time>2026-04-26T09:16:54.199Z</time></trkpt><trkpt lat="37.5790267" lon="14.90403"><ele>267.0</ele><time>2026-04-26T09:16:55.199Z</time></trkpt><trkpt lat="37.5790767" lon="14.9038917"><ele>267.0</ele><time>2026-04-26T09:16:56.199Z</time></trkpt><trkpt lat="37.5791333" lon="14.9037467"><ele>267.0</ele><time>2026-04-26T09:16:57.199Z</time></trkpt><trkpt lat="37.5791917" lon="14.9036017"><ele>267.0</ele><time>2026-04-26T09:16:58.199Z</time></trkpt><trkpt lat="37.5792533" lon="14.903465"><ele>265.25</ele><time>2026-04-26T09:16:59.199Z</time></trkpt><trkpt lat="37.5793167" lon="14.903325"><ele>263.5</ele><time>2026-04-26T09:17:00.199Z</time></trkpt><trkpt lat="37.5793833" lon="14.903185"><ele>261.75</ele><time>2026-04-26T09:17:01.2Z</time></trkpt><trkpt lat="37.5794417" lon="14.90305"><ele>260.0</ele><time>2026-04-26T09:17:02.199Z</time></trkpt><trkpt lat="37.5794867" lon="14.9029267"><ele>258.8</ele><time>2026-04-26T09:17:03.199Z</time></trkpt><trkpt lat="37.57953" lon="14.9028083"><ele>257.6</ele><time>2026-04-26T09:17:04.199Z</time></trkpt><trkpt lat="37.5795683" lon="14.902695"><ele>256.4</ele><time>2026-04-26T09:17:05.2Z</time></trkpt><trkpt lat="37.5796083" lon="14.90259"><ele>255.2</ele><time>2026-04-26T09:17:06.2Z</time></trkpt><trkpt lat="37.579655" lon="14.9024833"><ele>254.0</ele><time>2026-04-26T09:17:07.199Z</time></trkpt><trkpt lat="37.5796967" lon="14.9023783"><ele>253.6</ele><time>2026-04-26T09:17:08.199Z</time></trkpt><trkpt lat="37.5797417" lon="14.9022733"><ele>253.2</ele><time>2026-04-26T09:17:09.199Z</time></trkpt><trkpt lat="37.5797817" lon="14.9021683"><ele>252.79999999999998</ele><time>2026-04-26T09:17:10.199Z</time></trkpt><trkpt lat="37.5798267" lon="14.90207"><ele>252.39999999999998</ele><time>2026-04-26T09:17:11.199Z</time></trkpt><trkpt lat="37.57987" lon="14.9019683"><ele>252.0</ele><time>2026-04-26T09:17:12.199Z</time></trkpt><trkpt lat="37.5799" lon="14.901865"><ele>252.0</ele><time>2026-04-26T09:17:13.199Z</time></trkpt><trkpt lat="37.579905" lon="14.9017617"><ele>252.0</ele><time>2026-04-26T09:17:14.199Z</time></trkpt><trkpt lat="37.5798917" lon="14.9016533"><ele>252.0</ele><time>2026-04-26T09:17:15.199Z</time></trkpt><trkpt lat="37.579875" lon="14.90157"><ele>252.0</ele><time>2026-04-26T09:17:16.199Z</time></trkpt><trkpt lat="37.5798133" lon="14.901455"><ele>252.0</ele><time>2026-04-26T09:17:18.199Z</time></trkpt><trkpt lat="37.5797617" lon="14.901355"><ele>252.0</ele><time>2026-04-26T09:17:20.199Z</time></trkpt><trkpt lat="37.57974" lon="14.9012633"><ele>251.2</ele><time>2026-04-26T09:17:22.2Z</time></trkpt><trkpt lat="37.5797017" lon="14.9011567"><ele>250.39999999999998</ele><time>2026-04-26T09:17:24.199Z</time></trkpt><trkpt lat="37.5796283" lon="14.90104"><ele>249.60000000000002</ele><time>2026-04-26T09:17:26.199Z</time></trkpt><trkpt lat="37.5795533" lon="14.9009717"><ele>248.8</ele><time>2026-04-26T09:17:27.199Z</time></trkpt><trkpt lat="37.5794617" lon="14.9008783"><ele>248.0</ele><time>2026-04-26T09:17:28.199Z</time></trkpt><trkpt lat="37.5793633" lon="14.9007617"><ele>246.33333333333334</ele><time>2026-04-26T09:17:29.199Z</time></trkpt><trkpt lat="37.579245" lon="14.9006167"><ele>244.66666666666669</ele><time>2026-04-26T09:17:30.199Z</time></trkpt><trkpt lat="37.579135" lon="14.9004717"><ele>243.0</ele><time>2026-04-26T09:17:31.2Z</time></trkpt><trkpt lat="37.5790267" lon="14.9003417"><ele>243.0</ele><time>2026-04-26T09:17:32.199Z</time></trkpt><trkpt lat="37.5789267" lon="14.9002233"><ele>243.0</ele><time>2026-04-26T09:17:33.2Z</time></trkpt><trkpt lat="37.578835" lon="14.9001117"><ele>243.0</ele><time>2026-04-26T09:17:34.199Z</time></trkpt><trkpt lat="37.5787367" lon="14.900005"><ele>243.0</ele><time>2026-04-26T09:17:35.199Z</time></trkpt><trkpt lat="37.5786467" lon="14.899895"><ele>242.0</ele><time>2026-04-26T09:17:36.199Z</time></trkpt><trkpt lat="37.578565" lon="14.8997917"><ele>241.0</ele><time>2026-04-26T09:17:37.199Z</time></trkpt><trkpt lat="37.578485" lon="14.8996933"><ele>240.0</ele><time>2026-04-26T09:17:38.199Z</time></trkpt><trkpt lat="37.578405" lon="14.8995917"><ele>239.0</ele><time>2026-04-26T09:17:39.2Z</time></trkpt><trkpt lat="37.5783267" lon="14.8994933"><ele>239.00000000000003</ele><time>2026-04-26T09:17:40.199Z</time></trkpt><trkpt lat="37.5782533" lon="14.8994"><ele>239.0</ele><time>2026-04-26T09:17:41.199Z</time></trkpt><trkpt lat="37.578185" lon="14.899315"><ele>239.0</ele><time>2026-04-26T09:17:42.199Z</time></trkpt><trkpt lat="37.5781267" lon="14.899235"><ele>239.0</ele><time>2026-04-26T09:17:43.199Z</time></trkpt><trkpt lat="37.5780683" lon="14.89917"><ele>239.00000000000003</ele><time>2026-04-26T09:17:44.199Z</time></trkpt><trkpt lat="37.57802" lon="14.89911"><ele>239.0</ele><time>2026-04-26T09:17:45.199Z</time></trkpt><trkpt lat="37.57797" lon="14.8990583"><ele>238.0</ele><time>2026-04-26T09:17:46.199Z</time></trkpt><trkpt lat="37.57786" lon="14.8989417"><ele>237.0</ele><time>2026-04-26T09:17:48.199Z</time></trkpt><trkpt lat="37.577785" lon="14.8988733"><ele>236.0</ele><time>2026-04-26T09:17:49.199Z</time></trkpt><trkpt lat="37.5776933" lon="14.8987967"><ele>235.0</ele><time>2026-04-26T09:17:50.199Z</time></trkpt><trkpt lat="37.577595" lon="14.8987133"><ele>234.75</ele><time>2026-04-26T09:17:51.199Z</time></trkpt><trkpt lat="37.5774883" lon="14.8986317"><ele>234.5</ele><time>2026-04-26T09:17:52.199Z</time></trkpt><trkpt lat="37.5773733" lon="14.89854"><ele>234.25</ele><time>2026-04-26T09:17:53.2Z</time></trkpt><trkpt lat="37.577255" lon="14.89844"><ele>234.0</ele><time>2026-04-26T09:17:54.2Z</time></trkpt><trkpt lat="37.5771283" lon="14.89832"><ele>232.33333333333331</ele><time>2026-04-26T09:17:55.199Z</time></trkpt><trkpt lat="37.5770117" lon="14.8981883"><ele>230.66666666666666</ele><time>2026-04-26T09:17:56.199Z</time></trkpt><trkpt lat="37.5769017" lon="14.898045"><ele>229.0</ele><time>2026-04-26T09:17:57.199Z</time></trkpt><trkpt lat="37.5767983" lon="14.8979083"><ele>229.0</ele><time>2026-04-26T09:17:58.2Z</time></trkpt><trkpt lat="37.5766867" lon="14.8977767"><ele>229.0</ele><time>2026-04-26T09:17:59.2Z</time></trkpt><trkpt lat="37.57657" lon="14.89764"><ele>229.0</ele><time>2026-04-26T09:18:00.199Z</time></trkpt><trkpt lat="37.576465" lon="14.8974983"><ele>228.25</ele><time>2026-04-26T09:18:01.199Z</time></trkpt><trkpt lat="37.5763533" lon="14.8973617"><ele>227.5</ele><time>2026-04-26T09:18:02.199Z</time></trkpt><trkpt lat="37.5762567" lon="14.8972217"><ele>226.75</ele><time>2026-04-26T09:18:03.199Z</time></trkpt><trkpt lat="37.5761567" lon="14.8970867"><ele>226.0</ele><time>2026-04-26T09:18:04.199Z</time></trkpt><trkpt lat="37.576055" lon="14.8969633"><ele>226.0</ele><time>2026-04-26T09:18:05.199Z</time></trkpt><trkpt lat="37.5759733" lon="14.8968467"><ele>226.00000000000003</ele><time>2026-04-26T09:18:06.199Z</time></trkpt><trkpt lat="37.5758967" lon="14.89674"><ele>226.00000000000003</ele><time>2026-04-26T09:18:07.199Z</time></trkpt><trkpt lat="37.5758317" lon="14.8966467"><ele>226.0</ele><time>2026-04-26T09:18:08.199Z</time></trkpt><trkpt lat="37.5757667" lon="14.8965717"><ele>226.0</ele><time>2026-04-26T09:18:09.199Z</time></trkpt><trkpt lat="37.5757033" lon="14.896515"><ele>225.49999999999997</ele><time>2026-04-26T09:18:10.2Z</time></trkpt><trkpt lat="37.5756367" lon="14.8964783"><ele>225.0</ele><time>2026-04-26T09:18:11.199Z</time></trkpt><trkpt lat="37.5755217" lon="14.8964467"><ele>224.5</ele><time>2026-04-26T09:18:13.199Z</time></trkpt><trkpt lat="37.5754483" lon="14.8964317"><ele>224.0</ele><time>2026-04-26T09:18:15.199Z</time></trkpt><trkpt lat="37.5753767" lon="14.8963983"><ele>223.49999999999997</ele><time>2026-04-26T09:18:18.199Z</time></trkpt><trkpt lat="37.5753033" lon="14.8963217"><ele>223.0</ele><time>2026-04-26T09:18:22.199Z</time></trkpt><trkpt lat="37.5753167" lon="14.8962367"><ele>223.0</ele><time>2026-04-26T09:18:24.199Z</time></trkpt><trkpt lat="37.5754083" lon="14.89619"><ele>223.0</ele><time>2026-04-26T09:18:26.199Z</time></trkpt><trkpt lat="37.575485" lon="14.8962033"><ele>223.0</ele><time>2026-04-26T09:18:27.199Z</time></trkpt><trkpt lat="37.5755717" lon="14.8962217"><ele>223.0</ele><time>2026-04-26T09:18:28.199Z</time></trkpt><trkpt lat="37.5756733" lon="14.8962483"><ele>223.0</ele><time>2026-04-26T09:18:29.199Z</time></trkpt><trkpt lat="37.575775" lon="14.8962767"><ele>223.0</ele><time>2026-04-26T09:18:30.199Z</time></trkpt><trkpt lat="37.575885" lon="14.8963"><ele>223.0</ele><time>2026-04-26T09:18:31.2Z</time></trkpt><trkpt lat="37.5760067" lon="14.896325"><ele>223.0</ele><time>2026-04-26T09:18:32.2Z</time></trkpt><trkpt lat="37.5761417" lon="14.8963133"><ele>223.0</ele><time>2026-04-26T09:18:33.199Z</time></trkpt><trkpt lat="37.5762833" lon="14.8962733"><ele>222.33333333333331</ele><time>2026-04-26T09:18:34.2Z</time></trkpt><trkpt lat="37.5764233" lon="14.8962"><ele>221.66666666666669</ele><time>2026-04-26T09:18:35.199Z</time></trkpt><trkpt lat="37.57657" lon="14.8961217"><ele>221.0</ele><time>2026-04-26T09:18:36.2Z</time></trkpt><trkpt lat="37.576715" lon="14.8960433"><ele>221.0</ele><time>2026-04-26T09:18:37.199Z</time></trkpt><trkpt lat="37.5768667" lon="14.8959533"><ele>221.0</ele><time>2026-04-26T09:18:38.199Z</time></trkpt><trkpt lat="37.577" lon="14.89585"><ele>221.0</ele><time>2026-04-26T09:18:39.2Z</time></trkpt><trkpt lat="37.577125" lon="14.8957317"><ele>220.66666666666669</ele><time>2026-04-26T09:18:40.199Z</time></trkpt><trkpt lat="37.5772483" lon="14.8956017"><ele>220.33333333333331</ele><time>2026-04-26T09:18:41.199Z</time></trkpt><trkpt lat="37.5773583" lon="14.895445"><ele>220.0</ele><time>2026-04-26T09:18:42.199Z</time></trkpt><trkpt lat="37.5774617" lon="14.8952733"><ele>220.0</ele><time>2026-04-26T09:18:43.199Z</time></trkpt><trkpt lat="37.5775767" lon="14.895095"><ele>220.0</ele><time>2026-04-26T09:18:44.199Z</time></trkpt><trkpt lat="37.5776967" lon="14.8949283"><ele>220.0</ele><time>2026-04-26T09:18:45.199Z</time></trkpt><trkpt lat="37.5777983" lon="14.8947683"><ele>220.33333333333331</ele><time>2026-04-26T09:18:46.199Z</time></trkpt><trkpt lat="37.577905" lon="14.8946067"><ele>220.66666666666669</ele><time>2026-04-26T09:18:47.199Z</time></trkpt><trkpt lat="37.5779883" lon="14.89443"><ele>221.0</ele><time>2026-04-26T09:18:48.199Z</time></trkpt><trkpt lat="37.5780533" lon="14.8942367"><ele>221.0</ele><time>2026-04-26T09:18:49.199Z</time></trkpt><trkpt lat="37.5780983" lon="14.894025"><ele>221.0</ele><time>2026-04-26T09:18:50.199Z</time></trkpt><trkpt lat="37.5781133" lon="14.893805"><ele>221.0</ele><time>2026-04-26T09:18:51.199Z</time></trkpt><trkpt lat="37.578125" lon="14.8935833"><ele>221.33333333333334</ele><time>2026-04-26T09:18:52.199Z</time></trkpt><trkpt lat="37.57816" lon="14.89337"><ele>221.66666666666669</ele><time>2026-04-26T09:18:53.199Z</time></trkpt><trkpt lat="37.5782133" lon="14.8931633"><ele>222.0</ele><time>2026-04-26T09:18:54.2Z</time></trkpt><trkpt lat="37.5782783" lon="14.8929617"><ele>222.0</ele><time>2026-04-26T09:18:55.199Z</time></trkpt><trkpt lat="37.578375" lon="14.89278"><ele>222.0</ele><time>2026-04-26T09:18:56.2Z</time></trkpt><trkpt lat="37.57849" lon="14.8926233"><ele>222.0</ele><time>2026-04-26T09:18:57.199Z</time></trkpt><trkpt lat="37.5786383" lon="14.8924817"><ele>221.33333333333331</ele><time>2026-04-26T09:18:58.199Z</time></trkpt><trkpt lat="37.578805" lon="14.8923567"><ele>220.66666666666666</ele><time>2026-04-26T09:18:59.2Z</time></trkpt><trkpt lat="37.5789817" lon="14.89225"><ele>220.0</ele><time>2026-04-26T09:19:00.2Z</time></trkpt><trkpt lat="37.5791667" lon="14.892155"><ele>220.0</ele><time>2026-04-26T09:19:01.199Z</time></trkpt><trkpt lat="37.5793467" lon="14.8920633"><ele>220.0</ele><time>2026-04-26T09:19:02.2Z</time></trkpt><trkpt lat="37.5795217" lon="14.8919733"><ele>220.0</ele><time>2026-04-26T09:19:03.199Z</time></trkpt><trkpt lat="37.579705" lon="14.8918833"><ele>221.33333333333331</ele><time>2026-04-26T09:19:04.199Z</time></trkpt><trkpt lat="37.5798767" lon="14.8917983"><ele>222.66666666666669</ele><time>2026-04-26T09:19:05.199Z</time></trkpt><trkpt lat="37.5800583" lon="14.8917067"><ele>224.0</ele><time>2026-04-26T09:19:06.2Z</time></trkpt><trkpt lat="37.5802383" lon="14.8916217"><ele>225.66666666666669</ele><time>2026-04-26T09:19:07.2Z</time></trkpt><trkpt lat="37.5804183" lon="14.891535"><ele>227.33333333333331</ele><time>2026-04-26T09:19:08.199Z</time></trkpt><trkpt lat="37.58059" lon="14.8914467"><ele>229.0</ele><time>2026-04-26T09:19:09.2Z</time></trkpt><trkpt lat="37.5807667" lon="14.89136"><ele>229.0</ele><time>2026-04-26T09:19:10.2Z</time></trkpt><trkpt lat="37.5809383" lon="14.8912683"><ele>229.0</ele><time>2026-04-26T09:19:11.199Z</time></trkpt><trkpt lat="37.5811017" lon="14.8911833"><ele>229.0</ele><time>2026-04-26T09:19:12.199Z</time></trkpt><trkpt lat="37.5812583" lon="14.89111"><ele>229.33333333333331</ele><time>2026-04-26T09:19:13.199Z</time></trkpt><trkpt lat="37.58142" lon="14.8910417"><ele>229.66666666666669</ele><time>2026-04-26T09:19:14.199Z</time></trkpt><trkpt lat="37.581565" lon="14.8909633"><ele>230.0</ele><time>2026-04-26T09:19:15.199Z</time></trkpt><trkpt lat="37.581705" lon="14.89089"><ele>228.25</ele><time>2026-04-26T09:19:16.199Z</time></trkpt><trkpt lat="37.5818483" lon="14.8908167"><ele>226.5</ele><time>2026-04-26T09:19:17.199Z</time></trkpt><trkpt lat="37.58199" lon="14.890755"><ele>224.75</ele><time>2026-04-26T09:19:18.199Z</time></trkpt><trkpt lat="37.5821233" lon="14.890685"><ele>223.0</ele><time>2026-04-26T09:19:19.199Z</time></trkpt><trkpt lat="37.5822583" lon="14.89061"><ele>223.0</ele><time>2026-04-26T09:19:20.199Z</time></trkpt><trkpt lat="37.5823833" lon="14.890535"><ele>223.0</ele><time>2026-04-26T09:19:21.2Z</time></trkpt><trkpt lat="37.5825017" lon="14.890445"><ele>223.0</ele><time>2026-04-26T09:19:22.199Z</time></trkpt><trkpt lat="37.5825983" lon="14.8903433"><ele>223.0</ele><time>2026-04-26T09:19:23.2Z</time></trkpt><trkpt lat="37.5826917" lon="14.89023"><ele>223.0</ele><time>2026-04-26T09:19:24.198Z</time></trkpt><trkpt lat="37.5827767" lon="14.8901067"><ele>223.0</ele><time>2026-04-26T09:19:25.198Z</time></trkpt><trkpt lat="37.5828433" lon="14.889975"><ele>223.0</ele><time>2026-04-26T09:19:26.198Z</time></trkpt><trkpt lat="37.5829117" lon="14.8898383"><ele>223.0</ele><time>2026-04-26T09:19:27.198Z</time></trkpt><trkpt lat="37.5829767" lon="14.8897017"><ele>221.0</ele><time>2026-04-26T09:19:28.198Z</time></trkpt><trkpt lat="37.5830317" lon="14.88956"><ele>219.0</ele><time>2026-04-26T09:19:29.198Z</time></trkpt><trkpt lat="37.5830717" lon="14.8894167"><ele>217.0</ele><time>2026-04-26T09:19:30.199Z</time></trkpt><trkpt lat="37.5830967" lon="14.8892633"><ele>215.0</ele><time>2026-04-26T09:19:31.199Z</time></trkpt><trkpt lat="37.5831083" lon="14.8891133"><ele>213.5</ele><time>2026-04-26T09:19:32.198Z</time></trkpt><trkpt lat="37.5831117" lon="14.88896"><ele>212.0</ele><time>2026-04-26T09:19:33.198Z</time></trkpt><trkpt lat="37.583105" lon="14.88881"><ele>210.5</ele><time>2026-04-26T09:19:34.198Z</time></trkpt><trkpt lat="37.5831017" lon="14.888665"><ele>209.0</ele><time>2026-04-26T09:19:35.198Z</time></trkpt><trkpt lat="37.5830983" lon="14.8885133"><ele>207.75</ele><time>2026-04-26T09:19:36.199Z</time></trkpt><trkpt lat="37.5830983" lon="14.888365"><ele>206.5</ele><time>2026-04-26T09:19:37.198Z</time></trkpt><trkpt lat="37.5831017" lon="14.8882183"><ele>205.25</ele><time>2026-04-26T09:19:38.199Z</time></trkpt><trkpt lat="37.5831017" lon="14.888075"><ele>204.0</ele><time>2026-04-26T09:19:39.198Z</time></trkpt><trkpt lat="37.5831067" lon="14.88794"><ele>204.0</ele><time>2026-04-26T09:19:40.198Z</time></trkpt><trkpt lat="37.5831167" lon="14.8877967"><ele>204.0</ele><time>2026-04-26T09:19:41.198Z</time></trkpt><trkpt lat="37.5831233" lon="14.8876483"><ele>204.0</ele><time>2026-04-26T09:19:42.199Z</time></trkpt><trkpt lat="37.5831217" lon="14.8875067"><ele>204.0</ele><time>2026-04-26T09:19:43.198Z</time></trkpt><trkpt lat="37.5831233" lon="14.8873633"><ele>204.0</ele><time>2026-04-26T09:19:44.198Z</time></trkpt><trkpt lat="37.5831217" lon="14.8872233"><ele>204.0</ele><time>2026-04-26T09:19:45.198Z</time></trkpt><trkpt lat="37.58311" lon="14.8870833"><ele>204.0</ele><time>2026-04-26T09:19:46.198Z</time></trkpt><trkpt lat="37.58309" lon="14.88693"><ele>204.0</ele><time>2026-04-26T09:19:47.198Z</time></trkpt><trkpt lat="37.58307" lon="14.8867783"><ele>203.0</ele><time>2026-04-26T09:19:48.198Z</time></trkpt><trkpt lat="37.58306" lon="14.8866217"><ele>202.0</ele><time>2026-04-26T09:19:49.198Z</time></trkpt><trkpt lat="37.5830633" lon="14.8864633"><ele>201.0</ele><time>2026-04-26T09:19:50.198Z</time></trkpt><trkpt lat="37.5830983" lon="14.8863133"><ele>200.0</ele><time>2026-04-26T09:19:51.198Z</time></trkpt><trkpt lat="37.58316" lon="14.8861617"><ele>200.0</ele><time>2026-04-26T09:19:52.198Z</time></trkpt><trkpt lat="37.5832383" lon="14.8860133"><ele>200.0</ele><time>2026-04-26T09:19:53.198Z</time></trkpt><trkpt lat="37.583325" lon="14.8858867"><ele>200.0</ele><time>2026-04-26T09:19:54.198Z</time></trkpt><trkpt lat="37.5834217" lon="14.8857667"><ele>200.0</ele><time>2026-04-26T09:19:55.199Z</time></trkpt><trkpt lat="37.583535" lon="14.88564"><ele>199.66666666666669</ele><time>2026-04-26T09:19:56.198Z</time></trkpt><trkpt lat="37.58365" lon="14.8855033"><ele>199.33333333333331</ele><time>2026-04-26T09:19:57.198Z</time></trkpt><trkpt lat="37.5837717" lon="14.8853667"><ele>199.0</ele><time>2026-04-26T09:19:58.198Z</time></trkpt><trkpt lat="37.583905" lon="14.8852383"><ele>199.0</ele><time>2026-04-26T09:19:59.198Z</time></trkpt><trkpt lat="37.5840533" lon="14.885125"><ele>199.0</ele><time>2026-04-26T09:20:00.198Z</time></trkpt><trkpt lat="37.58421" lon="14.8850417"><ele>199.0</ele><time>2026-04-26T09:20:01.198Z</time></trkpt><trkpt lat="37.5843783" lon="14.884975"><ele>202.33333333333331</ele><time>2026-04-26T09:20:02.198Z</time></trkpt><trkpt lat="37.5845567" lon="14.8849133"><ele>205.66666666666669</ele><time>2026-04-26T09:20:03.198Z</time></trkpt><trkpt lat="37.5847333" lon="14.8848533"><ele>209.0</ele><time>2026-04-26T09:20:04.198Z</time></trkpt><trkpt lat="37.5849" lon="14.8847783"><ele>209.0</ele><time>2026-04-26T09:20:05.199Z</time></trkpt><trkpt lat="37.5850567" lon="14.8847017"><ele>209.0</ele><time>2026-04-26T09:20:06.198Z</time></trkpt><trkpt lat="37.585205" lon="14.8846"><ele>209.0</ele><time>2026-04-26T09:20:07.198Z</time></trkpt><trkpt lat="37.5853317" lon="14.8844917"><ele>208.75</ele><time>2026-04-26T09:20:08.199Z</time></trkpt><trkpt lat="37.585455" lon="14.8843783"><ele>208.5</ele><time>2026-04-26T09:20:09.198Z</time></trkpt><trkpt lat="37.58556" lon="14.8842733"><ele>208.25</ele><time>2026-04-26T09:20:10.198Z</time></trkpt><trkpt lat="37.585645" lon="14.884175"><ele>208.0</ele><time>2026-04-26T09:20:11.198Z</time></trkpt><trkpt lat="37.58572" lon="14.8840917"><ele>208.0</ele><time>2026-04-26T09:20:12.198Z</time></trkpt><trkpt lat="37.58578" lon="14.88402"><ele>208.0</ele><time>2026-04-26T09:20:13.198Z</time></trkpt><trkpt lat="37.5858283" lon="14.8839667"><ele>208.0</ele><time>2026-04-26T09:20:14.198Z</time></trkpt><trkpt lat="37.5858967" lon="14.88384"><ele>208.0</ele><time>2026-04-26T09:22:25.198Z</time></trkpt><trkpt lat="37.5859867" lon="14.8837067"><ele>208.0</ele><time>2026-04-26T09:22:27.198Z</time></trkpt><trkpt lat="37.58606" lon="14.8836133"><ele>208.0</ele><time>2026-04-26T09:22:28.198Z</time></trkpt><trkpt lat="37.5861417" lon="14.8835033"><ele>208.0</ele><time>2026-04-26T09:22:29.198Z</time></trkpt><trkpt lat="37.5862317" lon="14.8833867"><ele>208.0</ele><time>2026-04-26T09:22:30.198Z</time></trkpt><trkpt lat="37.5863283" lon="14.883265"><ele>208.0</ele><time>2026-04-26T09:22:31.199Z</time></trkpt><trkpt lat="37.58643" lon="14.8831333"><ele>208.33333333333331</ele><time>2026-04-26T09:22:32.198Z</time></trkpt><trkpt lat="37.58654" lon="14.883"><ele>208.66666666666669</ele><time>2026-04-26T09:22:33.199Z</time></trkpt><trkpt lat="37.5866567" lon="14.8828783"><ele>209.0</ele><time>2026-04-26T09:22:34.198Z</time></trkpt><trkpt lat="37.5867917" lon="14.8827667"><ele>209.0</ele><time>2026-04-26T09:22:35.199Z</time></trkpt><trkpt lat="37.5869267" lon="14.8826817"><ele>209.0</ele><time>2026-04-26T09:22:36.198Z</time></trkpt><trkpt lat="37.5870617" lon="14.8826"><ele>209.0</ele><time>2026-04-26T09:22:37.199Z</time></trkpt><trkpt lat="37.58719" lon="14.882525"><ele>209.0</ele><time>2026-04-26T09:22:38.198Z</time></trkpt><trkpt lat="37.587305" lon="14.882445"><ele>209.25</ele><time>2026-04-26T09:22:39.198Z</time></trkpt><trkpt lat="37.58742" lon="14.8823583"><ele>209.5</ele><time>2026-04-26T09:22:40.198Z</time></trkpt><trkpt lat="37.58753" lon="14.882285"><ele>209.75</ele><time>2026-04-26T09:22:41.198Z</time></trkpt><trkpt lat="37.587635" lon="14.88221"><ele>210.0</ele><time>2026-04-26T09:22:42.198Z</time></trkpt><trkpt lat="37.58774" lon="14.8821283"><ele>210.0</ele><time>2026-04-26T09:22:43.198Z</time></trkpt><trkpt lat="37.5878433" lon="14.8820367"><ele>210.0</ele><time>2026-04-26T09:22:44.198Z</time></trkpt><trkpt lat="37.58794" lon="14.8819333"><ele>210.0</ele><time>2026-04-26T09:22:45.198Z</time></trkpt><trkpt lat="37.5880333" lon="14.88183"><ele>210.0</ele><time>2026-04-26T09:22:46.198Z</time></trkpt><trkpt lat="37.5881217" lon="14.8817133"><ele>207.75</ele><time>2026-04-26T09:22:47.198Z</time></trkpt><trkpt lat="37.5882017" lon="14.881595"><ele>205.5</ele><time>2026-04-26T09:22:48.199Z</time></trkpt><trkpt lat="37.588275" lon="14.8814733"><ele>203.25</ele><time>2026-04-26T09:22:49.198Z</time></trkpt><trkpt lat="37.58834" lon="14.8813583"><ele>201.0</ele><time>2026-04-26T09:22:50.198Z</time></trkpt><trkpt lat="37.5884017" lon="14.8812367"><ele>201.0</ele><time>2026-04-26T09:22:51.198Z</time></trkpt><trkpt lat="37.5884617" lon="14.8811133"><ele>201.0</ele><time>2026-04-26T09:22:52.198Z</time></trkpt><trkpt lat="37.5885083" lon="14.8809933"><ele>201.0</ele><time>2026-04-26T09:22:53.198Z</time></trkpt><trkpt lat="37.5885583" lon="14.8808733"><ele>201.0</ele><time>2026-04-26T09:22:54.198Z</time></trkpt><trkpt lat="37.5886117" lon="14.8807483"><ele>201.0</ele><time>2026-04-26T09:22:55.198Z</time></trkpt><trkpt lat="37.5886633" lon="14.8806183"><ele>199.25</ele><time>2026-04-26T09:22:56.198Z</time></trkpt><trkpt lat="37.58872" lon="14.880495"><ele>197.5</ele><time>2026-04-26T09:22:57.198Z</time></trkpt><trkpt lat="37.588775" lon="14.88037"><ele>195.75</ele><time>2026-04-26T09:22:58.198Z</time></trkpt><trkpt lat="37.5888283" lon="14.8802417"><ele>194.0</ele><time>2026-04-26T09:22:59.198Z</time></trkpt><trkpt lat="37.5888833" lon="14.8801117"><ele>193.25</ele><time>2026-04-26T09:23:00.198Z</time></trkpt><trkpt lat="37.5889367" lon="14.8799833"><ele>192.5</ele><time>2026-04-26T09:23:01.199Z</time></trkpt><trkpt lat="37.5889967" lon="14.879855"><ele>191.75</ele><time>2026-04-26T09:23:02.198Z</time></trkpt><trkpt lat="37.589055" lon="14.879715"><ele>191.0</ele><time>2026-04-26T09:23:03.198Z</time></trkpt><trkpt lat="37.5891133" lon="14.8795783"><ele>191.0</ele><time>2026-04-26T09:23:04.198Z</time></trkpt><trkpt lat="37.589175" lon="14.8794367"><ele>191.0</ele><time>2026-04-26T09:23:05.198Z</time></trkpt><trkpt lat="37.5892383" lon="14.879285"><ele>191.0</ele><time>2026-04-26T09:23:06.198Z</time></trkpt><trkpt lat="37.5893017" lon="14.8791317"><ele>191.0</ele><time>2026-04-26T09:23:07.198Z</time></trkpt><trkpt lat="37.58937" lon="14.878975"><ele>190.5</ele><time>2026-04-26T09:23:08.198Z</time></trkpt><trkpt lat="37.5894433" lon="14.8788117"><ele>190.0</ele><time>2026-04-26T09:23:09.199Z</time></trkpt><trkpt lat="37.5895117" lon="14.8786467"><ele>189.5</ele><time>2026-04-26T09:23:10.198Z</time></trkpt><trkpt lat="37.58958" lon="14.8784783"><ele>189.0</ele><time>2026-04-26T09:23:11.198Z</time></trkpt><trkpt lat="37.5896483" lon="14.8783083"><ele>188.0</ele><time>2026-04-26T09:23:12.198Z</time></trkpt><trkpt lat="37.5897217" lon="14.87814"><ele>187.0</ele><time>2026-04-26T09:23:13.198Z</time></trkpt><trkpt lat="37.589795" lon="14.8779717"><ele>186.0</ele><time>2026-04-26T09:23:14.198Z</time></trkpt><trkpt lat="37.5898667" lon="14.877805"><ele>186.0</ele><time>2026-04-26T09:23:15.198Z</time></trkpt><trkpt lat="37.5899383" lon="14.8776383"><ele>186.0</ele><time>2026-04-26T09:23:16.198Z</time></trkpt><trkpt lat="37.5900133" lon="14.8774767"><ele>186.0</ele><time>2026-04-26T09:23:17.198Z</time></trkpt><trkpt lat="37.5900883" lon="14.87731"><ele>186.0</ele><time>2026-04-26T09:23:18.198Z</time></trkpt><trkpt lat="37.5901633" lon="14.877145"><ele>186.0</ele><time>2026-04-26T09:23:19.198Z</time></trkpt><trkpt lat="37.5902483" lon="14.8769833"><ele>186.0</ele><time>2026-04-26T09:23:20.198Z</time></trkpt><trkpt lat="37.5903367" lon="14.8768233"><ele>186.25</ele><time>2026-04-26T09:23:21.198Z</time></trkpt><trkpt lat="37.59044" lon="14.87668"><ele>186.5</ele><time>2026-04-26T09:23:22.198Z</time></trkpt><trkpt lat="37.5905433" lon="14.8765483"><ele>186.75</ele><time>2026-04-26T09:23:23.199Z</time></trkpt><trkpt lat="37.59064" lon="14.876425"><ele>187.0</ele><time>2026-04-26T09:23:24.198Z</time></trkpt><trkpt lat="37.590745" lon="14.8763133"><ele>187.0</ele><time>2026-04-26T09:23:25.198Z</time></trkpt><trkpt lat="37.5908367" lon="14.8762167"><ele>187.0</ele><time>2026-04-26T09:23:26.198Z</time></trkpt><trkpt lat="37.59093" lon="14.8761267"><ele>187.0</ele><time>2026-04-26T09:23:27.198Z</time></trkpt><trkpt lat="37.5910167" lon="14.8760417"><ele>187.0</ele><time>2026-04-26T09:23:28.198Z</time></trkpt><trkpt lat="37.5910967" lon="14.8759567"><ele>187.0</ele><time>2026-04-26T09:23:29.198Z</time></trkpt><trkpt lat="37.5911733" lon="14.8758767"><ele>187.0</ele><time>2026-04-26T09:23:30.198Z</time></trkpt><trkpt lat="37.591245" lon="14.8758067"><ele>187.0</ele><time>2026-04-26T09:23:31.198Z</time></trkpt><trkpt lat="37.59132" lon="14.875735"><ele>187.0</ele><time>2026-04-26T09:23:32.198Z</time></trkpt><trkpt lat="37.5913833" lon="14.8756617"><ele>187.0</ele><time>2026-04-26T09:23:33.198Z</time></trkpt><trkpt lat="37.5914433" lon="14.8755967"><ele>187.0</ele><time>2026-04-26T09:23:34.198Z</time></trkpt><trkpt lat="37.591505" lon="14.8755317"><ele>187.0</ele><time>2026-04-26T09:23:35.198Z</time></trkpt><trkpt lat="37.59157" lon="14.875465"><ele>187.0</ele><time>2026-04-26T09:23:36.198Z</time></trkpt><trkpt lat="37.59164" lon="14.8753883"><ele>187.0</ele><time>2026-04-26T09:23:37.198Z</time></trkpt><trkpt lat="37.5917133" lon="14.8753067"><ele>187.0</ele><time>2026-04-26T09:23:38.198Z</time></trkpt><trkpt lat="37.5917983" lon="14.8752267"><ele>187.0</ele><time>2026-04-26T09:23:39.199Z</time></trkpt><trkpt lat="37.5918817" lon="14.8751383"><ele>187.0</ele><time>2026-04-26T09:23:40.198Z</time></trkpt><trkpt lat="37.591955" lon="14.8750433"><ele>187.0</ele><time>2026-04-26T09:23:41.198Z</time></trkpt><trkpt lat="37.59204" lon="14.8749433"><ele>187.0</ele><time>2026-04-26T09:23:42.198Z</time></trkpt><trkpt lat="37.59213" lon="14.8748483"><ele>187.0</ele><time>2026-04-26T09:23:43.199Z</time></trkpt><trkpt lat="37.5922217" lon="14.8747517"><ele>187.0</ele><time>2026-04-26T09:23:44.198Z</time></trkpt><trkpt lat="37.592305" lon="14.8746383"><ele>187.0</ele><time>2026-04-26T09:23:45.198Z</time></trkpt><trkpt lat="37.592385" lon="14.8745217"><ele>187.0</ele><time>2026-04-26T09:23:46.198Z</time></trkpt><trkpt lat="37.5924717" lon="14.87439"><ele>187.0</ele><time>2026-04-26T09:23:47.198Z</time></trkpt><trkpt lat="37.5925583" lon="14.87427"><ele>186.75</ele><time>2026-04-26T09:23:48.198Z</time></trkpt><trkpt lat="37.592635" lon="14.874145"><ele>186.5</ele><time>2026-04-26T09:23:49.198Z</time></trkpt><trkpt lat="37.5927067" lon="14.8740183"><ele>186.25</ele><time>2026-04-26T09:23:50.198Z</time></trkpt><trkpt lat="37.5927733" lon="14.873885"><ele>186.0</ele><time>2026-04-26T09:23:51.198Z</time></trkpt><trkpt lat="37.592845" lon="14.873765"><ele>186.0</ele><time>2026-04-26T09:23:52.198Z</time></trkpt><trkpt lat="37.5929267" lon="14.8736467"><ele>186.0</ele><time>2026-04-26T09:23:53.198Z</time></trkpt><trkpt lat="37.593015" lon="14.8735283"><ele>186.0</ele><time>2026-04-26T09:23:54.198Z</time></trkpt><trkpt lat="37.5930883" lon="14.8733983"><ele>186.0</ele><time>2026-04-26T09:23:55.198Z</time></trkpt><trkpt lat="37.593165" lon="14.8732533"><ele>185.0</ele><time>2026-04-26T09:23:56.198Z</time></trkpt><trkpt lat="37.5932467" lon="14.8731283"><ele>184.0</ele><time>2026-04-26T09:23:57.198Z</time></trkpt><trkpt lat="37.593345" lon="14.8730183"><ele>183.0</ele><time>2026-04-26T09:23:58.199Z</time></trkpt><trkpt lat="37.5934383" lon="14.8728967"><ele>182.0</ele><time>2026-04-26T09:23:59.198Z</time></trkpt><trkpt lat="37.5935183" lon="14.8727733"><ele>182.0</ele><time>2026-04-26T09:24:00.198Z</time></trkpt><trkpt lat="37.5935967" lon="14.8726533"><ele>182.0</ele><time>2026-04-26T09:24:01.199Z</time></trkpt><trkpt lat="37.5936783" lon="14.87253"><ele>182.0</ele><time>2026-04-26T09:24:02.199Z</time></trkpt><trkpt lat="37.5937517" lon="14.8723967"><ele>182.0</ele><time>2026-04-26T09:24:03.199Z</time></trkpt><trkpt lat="37.5938333" lon="14.8722667"><ele>182.5</ele><time>2026-04-26T09:24:04.198Z</time></trkpt><trkpt lat="37.59391" lon="14.8721283"><ele>183.0</ele><time>2026-04-26T09:24:05.199Z</time></trkpt><trkpt lat="37.59398" lon="14.8719817"><ele>183.5</ele><time>2026-04-26T09:24:06.198Z</time></trkpt><trkpt lat="37.5940617" lon="14.8718333"><ele>184.0</ele><time>2026-04-26T09:24:07.198Z</time></trkpt><trkpt lat="37.5941567" lon="14.8716767"><ele>181.33333333333334</ele><time>2026-04-26T09:24:08.198Z</time></trkpt><trkpt lat="37.5942683" lon="14.8715117"><ele>178.66666666666666</ele><time>2026-04-26T09:24:09.198Z</time></trkpt><trkpt lat="37.5943783" lon="14.8713417"><ele>176.0</ele><time>2026-04-26T09:24:10.198Z</time></trkpt><trkpt lat="37.5944917" lon="14.8711733"><ele>176.0</ele><time>2026-04-26T09:24:11.198Z</time></trkpt><trkpt lat="37.5946117" lon="14.87101"><ele>176.0</ele><time>2026-04-26T09:24:12.199Z</time></trkpt><trkpt lat="37.594745" lon="14.87086"><ele>176.0</ele><time>2026-04-26T09:24:13.198Z</time></trkpt><trkpt lat="37.5948817" lon="14.8707167"><ele>176.0</ele><time>2026-04-26T09:24:14.198Z</time></trkpt><trkpt lat="37.5950117" lon="14.8705783"><ele>176.0</ele><time>2026-04-26T09:24:15.198Z</time></trkpt><trkpt lat="37.5951433" lon="14.8704467"><ele>176.0</ele><time>2026-04-26T09:24:16.198Z</time></trkpt><trkpt lat="37.595265" lon="14.8703217"><ele>176.66666666666666</ele><time>2026-04-26T09:24:17.198Z</time></trkpt><trkpt lat="37.5953817" lon="14.8702033"><ele>177.33333333333334</ele><time>2026-04-26T09:24:18.198Z</time></trkpt><trkpt lat="37.59549" lon="14.8700717"><ele>178.0</ele><time>2026-04-26T09:24:19.198Z</time></trkpt><trkpt lat="37.5955983" lon="14.86994"><ele>178.0</ele><time>2026-04-26T09:24:20.198Z</time></trkpt><trkpt lat="37.5956867" lon="14.86979"><ele>178.0</ele><time>2026-04-26T09:24:21.198Z</time></trkpt><trkpt lat="37.5957717" lon="14.8696233"><ele>178.0</ele><time>2026-04-26T09:24:22.198Z</time></trkpt><trkpt lat="37.5958367" lon="14.8694517"><ele>178.0</ele><time>2026-04-26T09:24:23.198Z</time></trkpt><trkpt lat="37.5958867" lon="14.8692833"><ele>178.0</ele><time>2026-04-26T09:24:24.198Z</time></trkpt><trkpt lat="37.5959117" lon="14.869115"><ele>178.0</ele><time>2026-04-26T09:24:25.198Z</time></trkpt><trkpt lat="37.5959267" lon="14.8689383"><ele>178.0</ele><time>2026-04-26T09:24:26.198Z</time></trkpt><trkpt lat="37.5959317" lon="14.8687617"><ele>178.33333333333334</ele><time>2026-04-26T09:24:27.198Z</time></trkpt><trkpt lat="37.595935" lon="14.868575"><ele>178.66666666666666</ele><time>2026-04-26T09:24:28.198Z</time></trkpt><trkpt lat="37.5959233" lon="14.8683717"><ele>179.0</ele><time>2026-04-26T09:24:29.198Z</time></trkpt><trkpt lat="37.5959183" lon="14.8681583"><ele>180.0</ele><time>2026-04-26T09:24:30.199Z</time></trkpt><trkpt lat="37.5959067" lon="14.8679283"><ele>181.0</ele><time>2026-04-26T09:24:31.198Z</time></trkpt><trkpt lat="37.5959033" lon="14.86768"><ele>182.0</ele><time>2026-04-26T09:24:32.199Z</time></trkpt><trkpt lat="37.5959" lon="14.8674183"><ele>182.33333333333331</ele><time>2026-04-26T09:24:33.198Z</time></trkpt><trkpt lat="37.595905" lon="14.8671517"><ele>182.66666666666666</ele><time>2026-04-26T09:24:34.198Z</time></trkpt><trkpt lat="37.5959167" lon="14.86689"><ele>183.0</ele><time>2026-04-26T09:24:35.199Z</time></trkpt><trkpt lat="37.5959233" lon="14.86663"><ele>183.0</ele><time>2026-04-26T09:24:36.198Z</time></trkpt><trkpt lat="37.5959317" lon="14.86637"><ele>183.0</ele><time>2026-04-26T09:24:37.198Z</time></trkpt><trkpt lat="37.5959467" lon="14.8661217"><ele>183.0</ele><time>2026-04-26T09:24:38.198Z</time></trkpt><trkpt lat="37.595975" lon="14.8658783"><ele>183.33333333333334</ele><time>2026-04-26T09:24:39.198Z</time></trkpt><trkpt lat="37.5960133" lon="14.86564"><ele>183.66666666666669</ele><time>2026-04-26T09:24:40.198Z</time></trkpt><trkpt lat="37.5960617" lon="14.8654117"><ele>184.0</ele><time>2026-04-26T09:24:41.198Z</time></trkpt><trkpt lat="37.596115" lon="14.8651817"><ele>184.33333333333334</ele><time>2026-04-26T09:24:42.198Z</time></trkpt><trkpt lat="37.5961417" lon="14.8649567"><ele>184.66666666666666</ele><time>2026-04-26T09:24:43.198Z</time></trkpt><trkpt lat="37.596155" lon="14.864735"><ele>185.0</ele><time>2026-04-26T09:24:44.198Z</time></trkpt><trkpt lat="37.5961617" lon="14.86453"><ele>188.66666666666666</ele><time>2026-04-26T09:24:45.198Z</time></trkpt><trkpt lat="37.5961933" lon="14.86433"><ele>192.33333333333331</ele><time>2026-04-26T09:24:46.198Z</time></trkpt><trkpt lat="37.5962517" lon="14.8641267"><ele>196.0</ele><time>2026-04-26T09:24:47.198Z</time></trkpt><trkpt lat="37.5963383" lon="14.86392"><ele>196.0</ele><time>2026-04-26T09:24:48.198Z</time></trkpt><trkpt lat="37.59644" lon="14.863705"><ele>196.0</ele><time>2026-04-26T09:24:49.198Z</time></trkpt><trkpt lat="37.59654" lon="14.8634883"><ele>196.0</ele><time>2026-04-26T09:24:50.198Z</time></trkpt><trkpt lat="37.59664" lon="14.8632583"><ele>193.0</ele><time>2026-04-26T09:24:51.198Z</time></trkpt><trkpt lat="37.5967417" lon="14.8630233"><ele>190.0</ele><time>2026-04-26T09:24:52.198Z</time></trkpt><trkpt lat="37.596835" lon="14.862785"><ele>187.0</ele><time>2026-04-26T09:24:53.198Z</time></trkpt><trkpt lat="37.5969283" lon="14.8625417"><ele>186.66666666666669</ele><time>2026-04-26T09:24:54.198Z</time></trkpt><trkpt lat="37.59702" lon="14.86231"><ele>186.33333333333334</ele><time>2026-04-26T09:24:55.198Z</time></trkpt><trkpt lat="37.5971067" lon="14.8620917"><ele>186.0</ele><time>2026-04-26T09:24:56.198Z</time></trkpt><trkpt lat="37.5971983" lon="14.861885"><ele>185.33333333333334</ele><time>2026-04-26T09:24:57.198Z</time></trkpt><trkpt lat="37.5972917" lon="14.8616917"><ele>184.66666666666669</ele><time>2026-04-26T09:24:58.198Z</time></trkpt><trkpt lat="37.5973883" lon="14.861515"><ele>184.0</ele><time>2026-04-26T09:24:59.198Z</time></trkpt><trkpt lat="37.5974867" lon="14.8613533"><ele>184.0</ele><time>2026-04-26T09:25:00.198Z</time></trkpt><trkpt lat="37.597585" lon="14.8612017"><ele>184.0</ele><time>2026-04-26T09:25:01.198Z</time></trkpt><trkpt lat="37.597695" lon="14.86105"><ele>184.0</ele><time>2026-04-26T09:25:02.198Z</time></trkpt><trkpt lat="37.5978083" lon="14.8609"><ele>184.0</ele><time>2026-04-26T09:25:03.198Z</time></trkpt><trkpt lat="37.5979217" lon="14.8607433"><ele>184.0</ele><time>2026-04-26T09:25:04.199Z</time></trkpt><trkpt lat="37.598035" lon="14.86059"><ele>184.0</ele><time>2026-04-26T09:25:05.198Z</time></trkpt><trkpt lat="37.5981417" lon="14.860425"><ele>184.0</ele><time>2026-04-26T09:25:06.198Z</time></trkpt><trkpt lat="37.5982417" lon="14.8602433"><ele>184.0</ele><time>2026-04-26T09:25:07.198Z</time></trkpt><trkpt lat="37.5983333" lon="14.8600417"><ele>184.0</ele><time>2026-04-26T09:25:08.199Z</time></trkpt><trkpt lat="37.59842" lon="14.8598383"><ele>183.33333333333334</ele><time>2026-04-26T09:25:09.198Z</time></trkpt><trkpt lat="37.5985017" lon="14.8596317"><ele>182.66666666666666</ele><time>2026-04-26T09:25:10.198Z</time></trkpt><trkpt lat="37.5985883" lon="14.8594167"><ele>182.0</ele><time>2026-04-26T09:25:11.198Z</time></trkpt><trkpt lat="37.5986683" lon="14.8592083"><ele>183.66666666666666</ele><time>2026-04-26T09:25:12.198Z</time></trkpt><trkpt lat="37.59876" lon="14.8590017"><ele>185.33333333333334</ele><time>2026-04-26T09:25:13.198Z</time></trkpt><trkpt lat="37.5988517" lon="14.8588033"><ele>187.0</ele><time>2026-04-26T09:25:14.198Z</time></trkpt><trkpt lat="37.5989483" lon="14.8586083"><ele>185.33333333333334</ele><time>2026-04-26T09:25:15.198Z</time></trkpt><trkpt lat="37.599045" lon="14.858415"><ele>183.66666666666666</ele><time>2026-04-26T09:25:16.198Z</time></trkpt><trkpt lat="37.5991517" lon="14.85823"><ele>182.0</ele><time>2026-04-26T09:25:17.198Z</time></trkpt><trkpt lat="37.599265" lon="14.8580567"><ele>182.0</ele><time>2026-04-26T09:25:18.199Z</time></trkpt><trkpt lat="37.5993783" lon="14.8578817"><ele>182.0</ele><time>2026-04-26T09:25:19.198Z</time></trkpt><trkpt lat="37.599505" lon="14.8577133"><ele>182.0</ele><time>2026-04-26T09:25:20.198Z</time></trkpt><trkpt lat="37.5996333" lon="14.8575433"><ele>183.33333333333331</ele><time>2026-04-26T09:25:21.198Z</time></trkpt><trkpt lat="37.5997717" lon="14.857375"><ele>184.66666666666666</ele><time>2026-04-26T09:25:22.198Z</time></trkpt><trkpt lat="37.5999083" lon="14.8572"><ele>186.0</ele><time>2026-04-26T09:25:23.198Z</time></trkpt><trkpt lat="37.6000417" lon="14.8570133"><ele>186.0</ele><time>2026-04-26T09:25:24.198Z</time></trkpt><trkpt lat="37.6001733" lon="14.856835"><ele>186.0</ele><time>2026-04-26T09:25:25.198Z</time></trkpt><trkpt lat="37.6003017" lon="14.8566717"><ele>186.0</ele><time>2026-04-26T09:25:26.199Z</time></trkpt><trkpt lat="37.600425" lon="14.856505"><ele>185.0</ele><time>2026-04-26T09:25:27.198Z</time></trkpt><trkpt lat="37.60055" lon="14.8563417"><ele>184.0</ele><time>2026-04-26T09:25:28.198Z</time></trkpt><trkpt lat="37.6006867" lon="14.8561917"><ele>183.0</ele><time>2026-04-26T09:25:29.198Z</time></trkpt><trkpt lat="37.6008517" lon="14.8560533"><ele>183.33333333333334</ele><time>2026-04-26T09:25:30.198Z</time></trkpt><trkpt lat="37.60102" lon="14.8559333"><ele>183.66666666666669</ele><time>2026-04-26T09:25:31.199Z</time></trkpt><trkpt lat="37.6011867" lon="14.8558417"><ele>184.0</ele><time>2026-04-26T09:25:32.198Z</time></trkpt><trkpt lat="37.6013567" lon="14.8557617"><ele>184.0</ele><time>2026-04-26T09:25:33.198Z</time></trkpt><trkpt lat="37.601525" lon="14.8556633"><ele>184.0</ele><time>2026-04-26T09:25:34.198Z</time></trkpt><trkpt lat="37.6016883" lon="14.8555467"><ele>184.0</ele><time>2026-04-26T09:25:35.198Z</time></trkpt><trkpt lat="37.6018317" lon="14.8553933"><ele>184.0</ele><time>2026-04-26T09:25:36.198Z</time></trkpt><trkpt lat="37.6019417" lon="14.8552167"><ele>184.0</ele><time>2026-04-26T09:25:37.198Z</time></trkpt><trkpt lat="37.6020283" lon="14.8550233"><ele>184.0</ele><time>2026-04-26T09:25:38.199Z</time></trkpt><trkpt lat="37.602095" lon="14.8548283"><ele>185.33333333333334</ele><time>2026-04-26T09:25:39.198Z</time></trkpt><trkpt lat="37.60216" lon="14.8546333"><ele>186.66666666666666</ele><time>2026-04-26T09:25:40.198Z</time></trkpt><trkpt lat="37.60224" lon="14.8544433"><ele>188.0</ele><time>2026-04-26T09:25:41.198Z</time></trkpt><trkpt lat="37.60234" lon="14.85427"><ele>188.0</ele><time>2026-04-26T09:25:42.198Z</time></trkpt><trkpt lat="37.602455" lon="14.8541083"><ele>188.0</ele><time>2026-04-26T09:25:43.198Z</time></trkpt><trkpt lat="37.6025817" lon="14.853965"><ele>188.0</ele><time>2026-04-26T09:25:44.198Z</time></trkpt><trkpt lat="37.6027183" lon="14.85383"><ele>189.0</ele><time>2026-04-26T09:25:45.197Z</time></trkpt><trkpt lat="37.6028783" lon="14.85369"><ele>190.0</ele><time>2026-04-26T09:25:46.197Z</time></trkpt><trkpt lat="37.603065" lon="14.8535467"><ele>191.0</ele><time>2026-04-26T09:25:47.197Z</time></trkpt><trkpt lat="37.603265" lon="14.853395"><ele>191.0</ele><time>2026-04-26T09:25:48.197Z</time></trkpt><trkpt lat="37.6034717" lon="14.8532317"><ele>191.0</ele><time>2026-04-26T09:25:49.197Z</time></trkpt><trkpt lat="37.6036833" lon="14.8530667"><ele>190.0</ele><time>2026-04-26T09:25:50.197Z</time></trkpt><trkpt lat="37.6039017" lon="14.852905"><ele>189.0</ele><time>2026-04-26T09:25:51.197Z</time></trkpt><trkpt lat="37.60411" lon="14.85275"><ele>189.0</ele><time>2026-04-26T09:25:52.197Z</time></trkpt><trkpt lat="37.60431" lon="14.8525917"><ele>189.0</ele><time>2026-04-26T09:25:53.198Z</time></trkpt><trkpt lat="37.6045117" lon="14.852435"><ele>189.0</ele><time>2026-04-26T09:25:54.197Z</time></trkpt><trkpt lat="37.6047067" lon="14.8522833"><ele>189.0</ele><time>2026-04-26T09:25:55.197Z</time></trkpt><trkpt lat="37.6049" lon="14.8521317"><ele>189.0</ele><time>2026-04-26T09:25:56.197Z</time></trkpt><trkpt lat="37.6051033" lon="14.8519783"><ele>189.0</ele><time>2026-04-26T09:25:57.197Z</time></trkpt><trkpt lat="37.6053033" lon="14.8518267"><ele>189.5</ele><time>2026-04-26T09:25:58.198Z</time></trkpt><trkpt lat="37.605495" lon="14.8516767"><ele>190.0</ele><time>2026-04-26T09:25:59.198Z</time></trkpt><trkpt lat="37.6056883" lon="14.8515233"><ele>190.0</ele><time>2026-04-26T09:26:00.198Z</time></trkpt><trkpt lat="37.6058783" lon="14.85136"><ele>190.0</ele><time>2026-04-26T09:26:01.198Z</time></trkpt><trkpt lat="37.60605" lon="14.8511933"><ele>190.0</ele><time>2026-04-26T09:26:02.197Z</time></trkpt><trkpt lat="37.60621" lon="14.8510217"><ele>191.0</ele><time>2026-04-26T09:26:03.197Z</time></trkpt><trkpt lat="37.6063633" lon="14.85085"><ele>192.0</ele><time>2026-04-26T09:26:04.197Z</time></trkpt><trkpt lat="37.6065083" lon="14.8506867"><ele>193.0</ele><time>2026-04-26T09:26:05.198Z</time></trkpt><trkpt lat="37.60665" lon="14.850515"><ele>193.0</ele><time>2026-04-26T09:26:06.197Z</time></trkpt><trkpt lat="37.6067867" lon="14.8503483"><ele>193.0</ele><time>2026-04-26T09:26:07.197Z</time></trkpt><trkpt lat="37.6069167" lon="14.8501933"><ele>193.0</ele><time>2026-04-26T09:26:08.197Z</time></trkpt><trkpt lat="37.6070533" lon="14.850055"><ele>193.66666666666666</ele><time>2026-04-26T09:26:09.197Z</time></trkpt><trkpt lat="37.607215" lon="14.8499267"><ele>194.33333333333331</ele><time>2026-04-26T09:26:10.198Z</time></trkpt><trkpt lat="37.6073883" lon="14.8498233"><ele>195.0</ele><time>2026-04-26T09:26:11.198Z</time></trkpt><trkpt lat="37.6075617" lon="14.8497217"><ele>195.0</ele><time>2026-04-26T09:26:12.197Z</time></trkpt><trkpt lat="37.607745" lon="14.8496167"><ele>195.0</ele><time>2026-04-26T09:26:13.197Z</time></trkpt><trkpt lat="37.6079383" lon="14.8495133"><ele>195.0</ele><time>2026-04-26T09:26:14.198Z</time></trkpt><trkpt lat="37.6081333" lon="14.8494017"><ele>194.66666666666669</ele><time>2026-04-26T09:26:15.197Z</time></trkpt><trkpt lat="37.6083267" lon="14.8492867"><ele>194.33333333333334</ele><time>2026-04-26T09:26:16.197Z</time></trkpt><trkpt lat="37.6085233" lon="14.8491683"><ele>194.0</ele><time>2026-04-26T09:26:17.198Z</time></trkpt><trkpt lat="37.6087233" lon="14.84905"><ele>196.0</ele><time>2026-04-26T09:26:18.197Z</time></trkpt><trkpt lat="37.6089333" lon="14.84893"><ele>198.0</ele><time>2026-04-26T09:26:19.197Z</time></trkpt><trkpt lat="37.6091383" lon="14.8488167"><ele>198.0</ele><time>2026-04-26T09:26:20.197Z</time></trkpt><trkpt lat="37.60935" lon="14.8486983"><ele>198.0</ele><time>2026-04-26T09:26:21.197Z</time></trkpt><trkpt lat="37.6095617" lon="14.848575"><ele>199.0</ele><time>2026-04-26T09:26:22.197Z</time></trkpt><trkpt lat="37.6097683" lon="14.8484583"><ele>200.0</ele><time>2026-04-26T09:26:23.197Z</time></trkpt><trkpt lat="37.6099783" lon="14.8483317"><ele>200.0</ele><time>2026-04-26T09:26:24.197Z</time></trkpt><trkpt lat="37.6101883" lon="14.8482167"><ele>200.0</ele><time>2026-04-26T09:26:25.197Z</time></trkpt><trkpt lat="37.610405" lon="14.848095"><ele>201.5</ele><time>2026-04-26T09:26:26.197Z</time></trkpt><trkpt lat="37.6106233" lon="14.8479783"><ele>203.0</ele><time>2026-04-26T09:26:27.197Z</time></trkpt><trkpt lat="37.6108367" lon="14.8478567"><ele>203.0</ele><time>2026-04-26T09:26:28.198Z</time></trkpt><trkpt lat="37.6110467" lon="14.8477367"><ele>203.0</ele><time>2026-04-26T09:26:29.197Z</time></trkpt><trkpt lat="37.6112583" lon="14.8476067"><ele>205.0</ele><time>2026-04-26T09:26:30.197Z</time></trkpt><trkpt lat="37.6114583" lon="14.84746"><ele>207.0</ele><time>2026-04-26T09:26:31.197Z</time></trkpt><trkpt lat="37.611655" lon="14.847305"><ele>207.0</ele><time>2026-04-26T09:26:32.197Z</time></trkpt><trkpt lat="37.611835" lon="14.847135"><ele>207.0</ele><time>2026-04-26T09:26:33.198Z</time></trkpt><trkpt lat="37.6120117" lon="14.84695"><ele>208.0</ele><time>2026-04-26T09:26:34.197Z</time></trkpt><trkpt lat="37.6121983" lon="14.8467617"><ele>209.0</ele><time>2026-04-26T09:26:35.197Z</time></trkpt><trkpt lat="37.6123817" lon="14.8465717"><ele>209.0</ele><time>2026-04-26T09:26:36.197Z</time></trkpt><trkpt lat="37.6125667" lon="14.8463833"><ele>209.0</ele><time>2026-04-26T09:26:37.197Z</time></trkpt><trkpt lat="37.61275" lon="14.8461933"><ele>210.0</ele><time>2026-04-26T09:26:38.197Z</time></trkpt><trkpt lat="37.612935" lon="14.8460033"><ele>211.0</ele><time>2026-04-26T09:26:39.198Z</time></trkpt><trkpt lat="37.61312" lon="14.8458183"><ele>211.5</ele><time>2026-04-26T09:26:40.197Z</time></trkpt><trkpt lat="37.6133017" lon="14.8456317"><ele>212.0</ele><time>2026-04-26T09:26:41.197Z</time></trkpt><trkpt lat="37.61348" lon="14.84544"><ele>212.0</ele><time>2026-04-26T09:26:42.198Z</time></trkpt><trkpt lat="37.6136517" lon="14.8452433"><ele>212.0</ele><time>2026-04-26T09:26:43.197Z</time></trkpt><trkpt lat="37.6138183" lon="14.845035"><ele>213.5</ele><time>2026-04-26T09:26:44.197Z</time></trkpt><trkpt lat="37.6139767" lon="14.8448133"><ele>215.0</ele><time>2026-04-26T09:26:45.198Z</time></trkpt><trkpt lat="37.614135" lon="14.8445783"><ele>215.0</ele><time>2026-04-26T09:26:46.198Z</time></trkpt><trkpt lat="37.614295" lon="14.84434"><ele>215.0</ele><time>2026-04-26T09:26:47.197Z</time></trkpt><trkpt lat="37.6144467" lon="14.8440967"><ele>217.0</ele><time>2026-04-26T09:26:48.197Z</time></trkpt><trkpt lat="37.6146033" lon="14.8438517"><ele>219.0</ele><time>2026-04-26T09:26:49.197Z</time></trkpt><trkpt lat="37.614755" lon="14.84361"><ele>218.5</ele><time>2026-04-26T09:26:50.197Z</time></trkpt><trkpt lat="37.6149133" lon="14.84337"><ele>218.0</ele><time>2026-04-26T09:26:51.197Z</time></trkpt><trkpt lat="37.6150683" lon="14.8431333"><ele>218.0</ele><time>2026-04-26T09:26:52.198Z</time></trkpt><trkpt lat="37.6152233" lon="14.8428917"><ele>218.0</ele><time>2026-04-26T09:26:53.197Z</time></trkpt><trkpt lat="37.615375" lon="14.84265"><ele>217.0</ele><time>2026-04-26T09:26:54.198Z</time></trkpt><trkpt lat="37.6155367" lon="14.842405"><ele>216.0</ele><time>2026-04-26T09:26:55.197Z</time></trkpt><trkpt lat="37.615695" lon="14.8421617"><ele>216.0</ele><time>2026-04-26T09:26:56.197Z</time></trkpt><trkpt lat="37.6158483" lon="14.84192"><ele>216.0</ele><time>2026-04-26T09:26:57.197Z</time></trkpt><trkpt lat="37.6160083" lon="14.8416833"><ele>216.0</ele><time>2026-04-26T09:26:58.197Z</time></trkpt><trkpt lat="37.6161667" lon="14.841445"><ele>216.0</ele><time>2026-04-26T09:26:59.197Z</time></trkpt><trkpt lat="37.616315" lon="14.8412133"><ele>216.0</ele><time>2026-04-26T09:27:00.198Z</time></trkpt><trkpt lat="37.616465" lon="14.8409883"><ele>216.0</ele><time>2026-04-26T09:27:01.197Z</time></trkpt><trkpt lat="37.6166133" lon="14.84076"><ele>215.33333333333331</ele><time>2026-04-26T09:27:02.197Z</time></trkpt><trkpt lat="37.616755" lon="14.8405383"><ele>214.66666666666666</ele><time>2026-04-26T09:27:03.197Z</time></trkpt><trkpt lat="37.6168933" lon="14.8403233"><ele>214.0</ele><time>2026-04-26T09:27:04.197Z</time></trkpt><trkpt lat="37.6170317" lon="14.8401083"><ele>213.33333333333331</ele><time>2026-04-26T09:27:05.197Z</time></trkpt><trkpt lat="37.6171717" lon="14.839895"><ele>212.66666666666669</ele><time>2026-04-26T09:27:06.197Z</time></trkpt><trkpt lat="37.617315" lon="14.8396817"><ele>212.0</ele><time>2026-04-26T09:27:07.197Z</time></trkpt><trkpt lat="37.6174517" lon="14.8394733"><ele>210.66666666666669</ele><time>2026-04-26T09:27:08.197Z</time></trkpt><trkpt lat="37.6175867" lon="14.8392633"><ele>209.33333333333331</ele><time>2026-04-26T09:27:09.197Z</time></trkpt><trkpt lat="37.6177267" lon="14.8390567"><ele>208.0</ele><time>2026-04-26T09:27:10.197Z</time></trkpt><trkpt lat="37.61787" lon="14.8388583"><ele>208.0</ele><time>2026-04-26T09:27:11.197Z</time></trkpt><trkpt lat="37.6180183" lon="14.83868"><ele>208.0</ele><time>2026-04-26T09:27:12.197Z</time></trkpt><trkpt lat="37.6181833" lon="14.8385217"><ele>208.0</ele><time>2026-04-26T09:27:13.197Z</time></trkpt><trkpt lat="37.6183683" lon="14.83838"><ele>207.0</ele><time>2026-04-26T09:27:14.197Z</time></trkpt><trkpt lat="37.61857" lon="14.8382467"><ele>206.0</ele><time>2026-04-26T09:27:15.197Z</time></trkpt><trkpt lat="37.6187683" lon="14.8381167"><ele>205.0</ele><time>2026-04-26T09:27:16.197Z</time></trkpt><trkpt lat="37.61897" lon="14.8379817"><ele>204.0</ele><time>2026-04-26T09:27:17.197Z</time></trkpt><trkpt lat="37.6191717" lon="14.8378433"><ele>204.0</ele><time>2026-04-26T09:27:18.197Z</time></trkpt><trkpt lat="37.619375" lon="14.8377033"><ele>204.0</ele><time>2026-04-26T09:27:19.197Z</time></trkpt><trkpt lat="37.61958" lon="14.837565"><ele>202.0</ele><time>2026-04-26T09:27:20.197Z</time></trkpt><trkpt lat="37.6197833" lon="14.837425"><ele>200.0</ele><time>2026-04-26T09:27:21.197Z</time></trkpt><trkpt lat="37.6199883" lon="14.8372917"><ele>200.0</ele><time>2026-04-26T09:27:22.197Z</time></trkpt><trkpt lat="37.620185" lon="14.837155"><ele>200.0</ele><time>2026-04-26T09:27:23.198Z</time></trkpt><trkpt lat="37.62038" lon="14.8370183"><ele>200.0</ele><time>2026-04-26T09:27:24.198Z</time></trkpt><trkpt lat="37.6205733" lon="14.83688"><ele>200.66666666666669</ele><time>2026-04-26T09:27:25.197Z</time></trkpt><trkpt lat="37.6207667" lon="14.83674"><ele>201.33333333333331</ele><time>2026-04-26T09:27:26.197Z</time></trkpt><trkpt lat="37.6209633" lon="14.8366067"><ele>202.0</ele><time>2026-04-26T09:27:27.197Z</time></trkpt><trkpt lat="37.6211617" lon="14.8364733"><ele>202.66666666666666</ele><time>2026-04-26T09:27:28.197Z</time></trkpt><trkpt lat="37.6213583" lon="14.8363433"><ele>203.33333333333331</ele><time>2026-04-26T09:27:29.197Z</time></trkpt><trkpt lat="37.62156" lon="14.83623"><ele>204.0</ele><time>2026-04-26T09:27:30.197Z</time></trkpt><trkpt lat="37.6217617" lon="14.836135"><ele>204.0</ele><time>2026-04-26T09:27:31.197Z</time></trkpt><trkpt lat="37.6219783" lon="14.8360583"><ele>204.0</ele><time>2026-04-26T09:27:32.197Z</time></trkpt><trkpt lat="37.622195" lon="14.83599"><ele>204.0</ele><time>2026-04-26T09:27:33.197Z</time></trkpt><trkpt lat="37.6224033" lon="14.8359283"><ele>204.66666666666669</ele><time>2026-04-26T09:27:34.197Z</time></trkpt><trkpt lat="37.6226033" lon="14.8358733"><ele>205.33333333333334</ele><time>2026-04-26T09:27:35.198Z</time></trkpt><trkpt lat="37.6228083" lon="14.8358167"><ele>206.0</ele><time>2026-04-26T09:27:36.197Z</time></trkpt><trkpt lat="37.623015" lon="14.835785"><ele>206.33333333333334</ele><time>2026-04-26T09:27:37.198Z</time></trkpt><trkpt lat="37.6232167" lon="14.8357717"><ele>206.66666666666669</ele><time>2026-04-26T09:27:38.197Z</time></trkpt><trkpt lat="37.623415" lon="14.8357567"><ele>207.0</ele><time>2026-04-26T09:27:39.197Z</time></trkpt><trkpt lat="37.6236133" lon="14.835725"><ele>207.33333333333331</ele><time>2026-04-26T09:27:40.197Z</time></trkpt><trkpt lat="37.6238083" lon="14.8356717"><ele>207.66666666666666</ele><time>2026-04-26T09:27:41.197Z</time></trkpt><trkpt lat="37.6240033" lon="14.8355783"><ele>208.0</ele><time>2026-04-26T09:27:42.197Z</time></trkpt><trkpt lat="37.6242017" lon="14.8354617"><ele>208.0</ele><time>2026-04-26T09:27:43.197Z</time></trkpt><trkpt lat="37.624405" lon="14.8353267"><ele>208.0</ele><time>2026-04-26T09:27:44.197Z</time></trkpt><trkpt lat="37.6246133" lon="14.8351917"><ele>208.0</ele><time>2026-04-26T09:27:45.197Z</time></trkpt><trkpt lat="37.6248267" lon="14.8350583"><ele>208.0</ele><time>2026-04-26T09:27:46.197Z</time></trkpt><trkpt lat="37.6250383" lon="14.8349167"><ele>208.0</ele><time>2026-04-26T09:27:47.197Z</time></trkpt><trkpt lat="37.625255" lon="14.8347733"><ele>208.0</ele><time>2026-04-26T09:27:48.197Z</time></trkpt><trkpt lat="37.6254733" lon="14.8346333"><ele>208.5</ele><time>2026-04-26T09:27:49.198Z</time></trkpt><trkpt lat="37.6256967" lon="14.83449"><ele>209.0</ele><time>2026-04-26T09:27:50.197Z</time></trkpt><trkpt lat="37.6259167" lon="14.83435"><ele>209.0</ele><time>2026-04-26T09:27:51.197Z</time></trkpt><trkpt lat="37.626145" lon="14.8342033"><ele>209.0</ele><time>2026-04-26T09:27:52.198Z</time></trkpt><trkpt lat="37.6263717" lon="14.83406"><ele>209.0</ele><time>2026-04-26T09:27:53.197Z</time></trkpt><trkpt lat="37.6266017" lon="14.8339133"><ele>209.0</ele><time>2026-04-26T09:27:54.197Z</time></trkpt><trkpt lat="37.626825" lon="14.8337683"><ele>210.0</ele><time>2026-04-26T09:27:55.197Z</time></trkpt><trkpt lat="37.627045" lon="14.8336233"><ele>211.0</ele><time>2026-04-26T09:27:56.197Z</time></trkpt><trkpt lat="37.6272733" lon="14.833475"><ele>211.0</ele><time>2026-04-26T09:27:57.198Z</time></trkpt><trkpt lat="37.6275017" lon="14.8333333"><ele>211.0</ele><time>2026-04-26T09:27:58.197Z</time></trkpt><trkpt lat="37.6277267" lon="14.83319"><ele>211.5</ele><time>2026-04-26T09:27:59.197Z</time></trkpt><trkpt lat="37.6279533" lon="14.8330467"><ele>212.0</ele><time>2026-04-26T09:28:00.197Z</time></trkpt><trkpt lat="37.62818" lon="14.8329067"><ele>212.0</ele><time>2026-04-26T09:28:01.197Z</time></trkpt><trkpt lat="37.6284083" lon="14.8327617"><ele>212.0</ele><time>2026-04-26T09:28:02.197Z</time></trkpt><trkpt lat="37.62864" lon="14.832625"><ele>213.0</ele><time>2026-04-26T09:28:03.197Z</time></trkpt><trkpt lat="37.6288617" lon="14.8324917"><ele>214.0</ele><time>2026-04-26T09:28:04.197Z</time></trkpt><trkpt lat="37.6290867" lon="14.8323567"><ele>214.0</ele><time>2026-04-26T09:28:05.198Z</time></trkpt><trkpt lat="37.6293067" lon="14.83222"><ele>214.0</ele><time>2026-04-26T09:28:06.198Z</time></trkpt><trkpt lat="37.62953" lon="14.8320883"><ele>214.5</ele><time>2026-04-26T09:28:07.197Z</time></trkpt><trkpt lat="37.6297517" lon="14.8319517"><ele>215.0</ele><time>2026-04-26T09:28:08.197Z</time></trkpt><trkpt lat="37.6299783" lon="14.831815"><ele>215.0</ele><time>2026-04-26T09:28:09.197Z</time></trkpt><trkpt lat="37.630195" lon="14.8316817"><ele>215.0</ele><time>2026-04-26T09:28:10.197Z</time></trkpt><trkpt lat="37.6304167" lon="14.8315533"><ele>215.0</ele><time>2026-04-26T09:28:11.197Z</time></trkpt><trkpt lat="37.63064" lon="14.831415"><ele>215.0</ele><time>2026-04-26T09:28:12.197Z</time></trkpt><trkpt lat="37.63086" lon="14.83128"><ele>215.0</ele><time>2026-04-26T09:28:13.197Z</time></trkpt><trkpt lat="37.6310783" lon="14.8311567"><ele>215.0</ele><time>2026-04-26T09:28:14.197Z</time></trkpt><trkpt lat="37.6312933" lon="14.83104"><ele>215.0</ele><time>2026-04-26T09:28:15.197Z</time></trkpt><trkpt lat="37.6315083" lon="14.8309317"><ele>215.0</ele><time>2026-04-26T09:28:16.197Z</time></trkpt><trkpt lat="37.6317233" lon="14.8308333"><ele>215.0</ele><time>2026-04-26T09:28:17.197Z</time></trkpt><trkpt lat="37.63194" lon="14.8307567"><ele>215.0</ele><time>2026-04-26T09:28:18.197Z</time></trkpt><trkpt lat="37.6321467" lon="14.8306833"><ele>215.0</ele><time>2026-04-26T09:28:19.197Z</time></trkpt><trkpt lat="37.6323533" lon="14.8306067"><ele>215.33333333333334</ele><time>2026-04-26T09:28:20.197Z</time></trkpt><trkpt lat="37.632565" lon="14.8305333"><ele>215.66666666666669</ele><time>2026-04-26T09:28:21.198Z</time></trkpt><trkpt lat="37.6327817" lon="14.830465"><ele>216.0</ele><time>2026-04-26T09:28:22.197Z</time></trkpt><trkpt lat="37.6329867" lon="14.830405"><ele>215.33333333333331</ele><time>2026-04-26T09:28:23.197Z</time></trkpt><trkpt lat="37.6331817" lon="14.8303683"><ele>214.66666666666666</ele><time>2026-04-26T09:28:24.197Z</time></trkpt><trkpt lat="37.6333783" lon="14.83034"><ele>214.0</ele><time>2026-04-26T09:28:25.197Z</time></trkpt><trkpt lat="37.6335717" lon="14.8302967"><ele>214.0</ele><time>2026-04-26T09:28:26.197Z</time></trkpt><trkpt lat="37.63376" lon="14.830235"><ele>214.0</ele><time>2026-04-26T09:28:27.197Z</time></trkpt><trkpt lat="37.6339483" lon="14.8301417"><ele>214.0</ele><time>2026-04-26T09:28:28.197Z</time></trkpt><trkpt lat="37.63413" lon="14.830015"><ele>212.66666666666666</ele><time>2026-04-26T09:28:29.198Z</time></trkpt><trkpt lat="37.6343117" lon="14.8298817"><ele>211.33333333333331</ele><time>2026-04-26T09:28:30.197Z</time></trkpt><trkpt lat="37.6344883" lon="14.82975"><ele>210.0</ele><time>2026-04-26T09:28:31.198Z</time></trkpt><trkpt lat="37.634665" lon="14.8296217"><ele>209.66666666666669</ele><time>2026-04-26T09:28:32.198Z</time></trkpt><trkpt lat="37.6348317" lon="14.829485"><ele>209.33333333333334</ele><time>2026-04-26T09:28:33.197Z</time></trkpt><trkpt lat="37.63498" lon="14.8293167"><ele>209.0</ele><time>2026-04-26T09:28:34.197Z</time></trkpt><trkpt lat="37.6351083" lon="14.8291283"><ele>210.33333333333334</ele><time>2026-04-26T09:28:35.197Z</time></trkpt><trkpt lat="37.6352283" lon="14.8289317"><ele>211.66666666666669</ele><time>2026-04-26T09:28:36.198Z</time></trkpt><trkpt lat="37.635345" lon="14.8287367"><ele>213.0</ele><time>2026-04-26T09:28:37.197Z</time></trkpt><trkpt lat="37.6354717" lon="14.8285483"><ele>211.0</ele><time>2026-04-26T09:28:38.197Z</time></trkpt><trkpt lat="37.6356017" lon="14.8283767"><ele>209.0</ele><time>2026-04-26T09:28:39.197Z</time></trkpt><trkpt lat="37.63576" lon="14.82822"><ele>207.0</ele><time>2026-04-26T09:28:40.197Z</time></trkpt><trkpt lat="37.6359333" lon="14.8281017"><ele>207.0</ele><time>2026-04-26T09:28:41.197Z</time></trkpt><trkpt lat="37.6361133" lon="14.828"><ele>207.0</ele><time>2026-04-26T09:28:42.197Z</time></trkpt><trkpt lat="37.636295" lon="14.8279267"><ele>207.0</ele><time>2026-04-26T09:28:43.197Z</time></trkpt><trkpt lat="37.6364833" lon="14.8278833"><ele>211.0</ele><time>2026-04-26T09:28:44.197Z</time></trkpt><trkpt lat="37.6366767" lon="14.8278683"><ele>215.0</ele><time>2026-04-26T09:28:45.197Z</time></trkpt><trkpt lat="37.63687" lon="14.8278783"><ele>219.0</ele><time>2026-04-26T09:28:46.198Z</time></trkpt><trkpt lat="37.6370583" lon="14.827895"><ele>221.33333333333331</ele><time>2026-04-26T09:28:47.197Z</time></trkpt><trkpt lat="37.6372517" lon="14.8278833"><ele>223.66666666666666</ele><time>2026-04-26T09:28:48.197Z</time></trkpt><trkpt lat="37.637435" lon="14.8278483"><ele>226.0</ele><time>2026-04-26T09:28:49.198Z</time></trkpt><trkpt lat="37.6376217" lon="14.8278067"><ele>226.33333333333331</ele><time>2026-04-26T09:28:50.197Z</time></trkpt><trkpt lat="37.6378067" lon="14.8277567"><ele>226.66666666666669</ele><time>2026-04-26T09:28:51.197Z</time></trkpt><trkpt lat="37.6379767" lon="14.8277"><ele>227.0</ele><time>2026-04-26T09:28:52.197Z</time></trkpt><trkpt lat="37.6381367" lon="14.8276617"><ele>227.0</ele><time>2026-04-26T09:28:53.198Z</time></trkpt><trkpt lat="37.63829" lon="14.8276383"><ele>227.0</ele><time>2026-04-26T09:28:54.197Z</time></trkpt><trkpt lat="37.63845" lon="14.8276417"><ele>227.0</ele><time>2026-04-26T09:28:55.197Z</time></trkpt><trkpt lat="37.6386017" lon="14.8276783"><ele>225.0</ele><time>2026-04-26T09:28:56.197Z</time></trkpt><trkpt lat="37.6387567" lon="14.827745"><ele>223.0</ele><time>2026-04-26T09:28:57.198Z</time></trkpt><trkpt lat="37.6388933" lon="14.827825"><ele>221.0</ele><time>2026-04-26T09:28:58.197Z</time></trkpt><trkpt lat="37.6390333" lon="14.8279017"><ele>221.0</ele><time>2026-04-26T09:28:59.197Z</time></trkpt><trkpt lat="37.6391783" lon="14.8279483"><ele>221.0</ele><time>2026-04-26T09:29:00.197Z</time></trkpt><trkpt lat="37.6393333" lon="14.8279517"><ele>221.0</ele><time>2026-04-26T09:29:01.198Z</time></trkpt><trkpt lat="37.6394733" lon="14.8279183"><ele>221.0</ele><time>2026-04-26T09:29:02.198Z</time></trkpt><trkpt lat="37.6396183" lon="14.8278467"><ele>219.66666666666669</ele><time>2026-04-26T09:29:03.197Z</time></trkpt><trkpt lat="37.63975" lon="14.8277517"><ele>218.33333333333331</ele><time>2026-04-26T09:29:04.197Z</time></trkpt><trkpt lat="37.639875" lon="14.8276317"><ele>217.0</ele><time>2026-04-26T09:29:05.197Z</time></trkpt><trkpt lat="37.6399833" lon="14.82749"><ele>215.33333333333331</ele><time>2026-04-26T09:29:06.197Z</time></trkpt><trkpt lat="37.6400567" lon="14.8273167"><ele>213.66666666666669</ele><time>2026-04-26T09:29:07.198Z</time></trkpt><trkpt lat="37.6401067" lon="14.827125"><ele>212.0</ele><time>2026-04-26T09:29:08.198Z</time></trkpt><trkpt lat="37.6401317" lon="14.8269183"><ele>211.0</ele><time>2026-04-26T09:29:09.198Z</time></trkpt><trkpt lat="37.6401433" lon="14.8267"><ele>210.0</ele><time>2026-04-26T09:29:10.197Z</time></trkpt><trkpt lat="37.6401467" lon="14.8264767"><ele>209.0</ele><time>2026-04-26T09:29:11.197Z</time></trkpt><trkpt lat="37.6401483" lon="14.8262433"><ele>209.0</ele><time>2026-04-26T09:29:12.197Z</time></trkpt><trkpt lat="37.6401533" lon="14.8260033"><ele>209.0</ele><time>2026-04-26T09:29:13.198Z</time></trkpt><trkpt lat="37.64016" lon="14.8257567"><ele>209.0</ele><time>2026-04-26T09:29:14.197Z</time></trkpt><trkpt lat="37.6401633" lon="14.8255067"><ele>208.66666666666669</ele><time>2026-04-26T09:29:15.198Z</time></trkpt><trkpt lat="37.6401683" lon="14.825255"><ele>208.33333333333331</ele><time>2026-04-26T09:29:16.197Z</time></trkpt><trkpt lat="37.64017" lon="14.8250017"><ele>208.0</ele><time>2026-04-26T09:29:17.197Z</time></trkpt><trkpt lat="37.640175" lon="14.8247433"><ele>208.0</ele><time>2026-04-26T09:29:18.197Z</time></trkpt><trkpt lat="37.6401833" lon="14.8244883"><ele>208.0</ele><time>2026-04-26T09:29:19.197Z</time></trkpt><trkpt lat="37.64019" lon="14.824245"><ele>208.0</ele><time>2026-04-26T09:29:20.197Z</time></trkpt><trkpt lat="37.6401983" lon="14.82401"><ele>207.0</ele><time>2026-04-26T09:29:21.197Z</time></trkpt><trkpt lat="37.6402133" lon="14.82377"><ele>206.0</ele><time>2026-04-26T09:29:22.197Z</time></trkpt><trkpt lat="37.640235" lon="14.8235233"><ele>205.0</ele><time>2026-04-26T09:29:23.198Z</time></trkpt><trkpt lat="37.6402667" lon="14.82328"><ele>206.66666666666666</ele><time>2026-04-26T09:29:24.197Z</time></trkpt><trkpt lat="37.640315" lon="14.823035"><ele>208.33333333333331</ele><time>2026-04-26T09:29:25.197Z</time></trkpt><trkpt lat="37.640375" lon="14.8227883"><ele>210.0</ele><time>2026-04-26T09:29:26.197Z</time></trkpt><trkpt lat="37.6404383" lon="14.8225433"><ele>210.0</ele><time>2026-04-26T09:29:27.197Z</time></trkpt><trkpt lat="37.6404983" lon="14.8223"><ele>210.0</ele><time>2026-04-26T09:29:28.197Z</time></trkpt><trkpt lat="37.6405617" lon="14.8220567"><ele>210.0</ele><time>2026-04-26T09:29:29.197Z</time></trkpt><trkpt lat="37.6406233" lon="14.82181"><ele>209.33333333333331</ele><time>2026-04-26T09:29:30.198Z</time></trkpt><trkpt lat="37.6406833" lon="14.8215667"><ele>208.66666666666666</ele><time>2026-04-26T09:29:31.197Z</time></trkpt><trkpt lat="37.64074" lon="14.82132"><ele>208.0</ele><time>2026-04-26T09:29:32.197Z</time></trkpt><trkpt lat="37.6407983" lon="14.82108"><ele>207.0</ele><time>2026-04-26T09:29:33.198Z</time></trkpt><trkpt lat="37.6408617" lon="14.8208383"><ele>206.0</ele><time>2026-04-26T09:29:34.197Z</time></trkpt><trkpt lat="37.64092" lon="14.8205983"><ele>205.0</ele><time>2026-04-26T09:29:35.197Z</time></trkpt><trkpt lat="37.6409833" lon="14.8203783"><ele>205.0</ele><time>2026-04-26T09:29:36.198Z</time></trkpt><trkpt lat="37.6410533" lon="14.8201567"><ele>205.0</ele><time>2026-04-26T09:29:37.197Z</time></trkpt><trkpt lat="37.6411367" lon="14.81994"><ele>205.0</ele><time>2026-04-26T09:29:38.197Z</time></trkpt><trkpt lat="37.6412417" lon="14.81973"><ele>205.0</ele><time>2026-04-26T09:29:39.197Z</time></trkpt><trkpt lat="37.6413667" lon="14.8195383"><ele>205.0</ele><time>2026-04-26T09:29:40.197Z</time></trkpt><trkpt lat="37.6415117" lon="14.819355"><ele>205.0</ele><time>2026-04-26T09:29:41.197Z</time></trkpt><trkpt lat="37.6416833" lon="14.8192"><ele>205.0</ele><time>2026-04-26T09:29:42.197Z</time></trkpt><trkpt lat="37.6418717" lon="14.8190683"><ele>205.0</ele><time>2026-04-26T09:29:43.197Z</time></trkpt><trkpt lat="37.6420633" lon="14.8189483"><ele>205.0</ele><time>2026-04-26T09:29:44.197Z</time></trkpt><trkpt lat="37.6422633" lon="14.8188483"><ele>207.33333333333331</ele><time>2026-04-26T09:29:45.197Z</time></trkpt><trkpt lat="37.642465" lon="14.8187467"><ele>209.66666666666669</ele><time>2026-04-26T09:29:46.197Z</time></trkpt><trkpt lat="37.642665" lon="14.818645"><ele>212.0</ele><time>2026-04-26T09:29:47.197Z</time></trkpt><trkpt lat="37.64287" lon="14.8185483"><ele>210.0</ele><time>2026-04-26T09:29:48.197Z</time></trkpt><trkpt lat="37.64308" lon="14.818455"><ele>208.0</ele><time>2026-04-26T09:29:49.197Z</time></trkpt><trkpt lat="37.64328" lon="14.81837"><ele>206.0</ele><time>2026-04-26T09:29:50.197Z</time></trkpt><trkpt lat="37.643465" lon="14.8182833"><ele>207.66666666666669</ele><time>2026-04-26T09:29:51.197Z</time></trkpt><trkpt lat="37.6436383" lon="14.8182033"><ele>209.33333333333331</ele><time>2026-04-26T09:29:52.197Z</time></trkpt><trkpt lat="37.643795" lon="14.8181317"><ele>211.0</ele><time>2026-04-26T09:29:53.197Z</time></trkpt><trkpt lat="37.64394" lon="14.81806"><ele>211.0</ele><time>2026-04-26T09:29:54.197Z</time></trkpt><trkpt lat="37.6440683" lon="14.8179733"><ele>211.0</ele><time>2026-04-26T09:29:55.197Z</time></trkpt><trkpt lat="37.644175" lon="14.81787"><ele>211.0</ele><time>2026-04-26T09:29:56.197Z</time></trkpt><trkpt lat="37.64426" lon="14.8177183"><ele>211.0</ele><time>2026-04-26T09:29:57.197Z</time></trkpt><trkpt lat="37.64432" lon="14.81753"><ele>210.33333333333331</ele><time>2026-04-26T09:29:58.197Z</time></trkpt><trkpt lat="37.644355" lon="14.8173317"><ele>209.66666666666669</ele><time>2026-04-26T09:29:59.197Z</time></trkpt><trkpt lat="37.6443617" lon="14.8171417"><ele>209.0</ele><time>2026-04-26T09:30:00.197Z</time></trkpt><trkpt lat="37.6443617" lon="14.8169533"><ele>206.33333333333334</ele><time>2026-04-26T09:30:01.197Z</time></trkpt><trkpt lat="37.6443867" lon="14.8167567"><ele>203.66666666666669</ele><time>2026-04-26T09:30:02.197Z</time></trkpt><trkpt lat="37.6444417" lon="14.8165633"><ele>201.0</ele><time>2026-04-26T09:30:03.197Z</time></trkpt><trkpt lat="37.6445167" lon="14.8163817"><ele>205.33333333333331</ele><time>2026-04-26T09:30:04.198Z</time></trkpt><trkpt lat="37.6446317" lon="14.8162133"><ele>209.66666666666666</ele><time>2026-04-26T09:30:05.198Z</time></trkpt><trkpt lat="37.64477" lon="14.8160583"><ele>214.0</ele><time>2026-04-26T09:30:06.197Z</time></trkpt><trkpt lat="37.6449217" lon="14.8158983"><ele>214.0</ele><time>2026-04-26T09:30:07.197Z</time></trkpt><trkpt lat="37.6450633" lon="14.8157267"><ele>214.0</ele><time>2026-04-26T09:30:08.198Z</time></trkpt><trkpt lat="37.6452067" lon="14.8155417"><ele>214.0</ele><time>2026-04-26T09:30:09.197Z</time></trkpt><trkpt lat="37.6453367" lon="14.8153333"><ele>216.33333333333331</ele><time>2026-04-26T09:30:10.198Z</time></trkpt><trkpt lat="37.645455" lon="14.8151117"><ele>218.66666666666669</ele><time>2026-04-26T09:30:11.197Z</time></trkpt><trkpt lat="37.6455583" lon="14.8148817"><ele>221.0</ele><time>2026-04-26T09:30:12.197Z</time></trkpt><trkpt lat="37.6456517" lon="14.8146533"><ele>221.0</ele><time>2026-04-26T09:30:13.197Z</time></trkpt><trkpt lat="37.6457383" lon="14.81442"><ele>221.0</ele><time>2026-04-26T09:30:14.197Z</time></trkpt><trkpt lat="37.6458133" lon="14.81418"><ele>221.0</ele><time>2026-04-26T09:30:15.197Z</time></trkpt><trkpt lat="37.645865" lon="14.81393"><ele>219.33333333333334</ele><time>2026-04-26T09:30:16.198Z</time></trkpt><trkpt lat="37.6458983" lon="14.813665"><ele>217.66666666666669</ele><time>2026-04-26T09:30:17.198Z</time></trkpt><trkpt lat="37.64591" lon="14.8134117"><ele>216.0</ele><time>2026-04-26T09:30:18.197Z</time></trkpt><trkpt lat="37.6459217" lon="14.8131767"><ele>216.0</ele><time>2026-04-26T09:30:19.197Z</time></trkpt><trkpt lat="37.6459333" lon="14.812945"><ele>216.0</ele><time>2026-04-26T09:30:20.197Z</time></trkpt><trkpt lat="37.6459633" lon="14.8127067"><ele>216.0</ele><time>2026-04-26T09:30:21.197Z</time></trkpt><trkpt lat="37.64602" lon="14.8124583"><ele>215.0</ele><time>2026-04-26T09:30:22.197Z</time></trkpt><trkpt lat="37.6461033" lon="14.8122067"><ele>214.0</ele><time>2026-04-26T09:30:23.198Z</time></trkpt><trkpt lat="37.6462067" lon="14.81196"><ele>213.0</ele><time>2026-04-26T09:30:24.197Z</time></trkpt><trkpt lat="37.646325" lon="14.81172"><ele>217.0</ele><time>2026-04-26T09:30:25.197Z</time></trkpt><trkpt lat="37.6464433" lon="14.8114783"><ele>221.0</ele><time>2026-04-26T09:30:26.197Z</time></trkpt><trkpt lat="37.6465683" lon="14.8112267"><ele>220.0</ele><time>2026-04-26T09:30:27.198Z</time></trkpt><trkpt lat="37.6466917" lon="14.8109733"><ele>219.0</ele><time>2026-04-26T09:30:28.197Z</time></trkpt><trkpt lat="37.6468183" lon="14.81072"><ele>219.0</ele><time>2026-04-26T09:30:29.197Z</time></trkpt><trkpt lat="37.646945" lon="14.810455"><ele>219.0</ele><time>2026-04-26T09:30:30.197Z</time></trkpt><trkpt lat="37.6470767" lon="14.8101933"><ele>220.0</ele><time>2026-04-26T09:30:31.197Z</time></trkpt><trkpt lat="37.647205" lon="14.809935"><ele>221.0</ele><time>2026-04-26T09:30:32.197Z</time></trkpt><trkpt lat="37.6473317" lon="14.8096717"><ele>221.0</ele><time>2026-04-26T09:30:33.197Z</time></trkpt><trkpt lat="37.6474567" lon="14.8094117"><ele>221.0</ele><time>2026-04-26T09:30:34.198Z</time></trkpt><trkpt lat="37.6475883" lon="14.8091517"><ele>220.0</ele><time>2026-04-26T09:30:35.197Z</time></trkpt><trkpt lat="37.6477167" lon="14.80889"><ele>219.0</ele><time>2026-04-26T09:30:36.197Z</time></trkpt><trkpt lat="37.6478467" lon="14.8086333"><ele>222.5</ele><time>2026-04-26T09:30:37.197Z</time></trkpt><trkpt lat="37.64798" lon="14.8083783"><ele>226.0</ele><time>2026-04-26T09:30:38.197Z</time></trkpt><trkpt lat="37.64811" lon="14.8081183"><ele>226.0</ele><time>2026-04-26T09:30:39.197Z</time></trkpt><trkpt lat="37.6482317" lon="14.8078633"><ele>226.0</ele><time>2026-04-26T09:30:40.197Z</time></trkpt><trkpt lat="37.6483567" lon="14.807605"><ele>225.0</ele><time>2026-04-26T09:30:41.197Z</time></trkpt><trkpt lat="37.64848" lon="14.8073433"><ele>224.0</ele><time>2026-04-26T09:30:42.197Z</time></trkpt><trkpt lat="37.6486067" lon="14.80708"><ele>226.5</ele><time>2026-04-26T09:30:43.197Z</time></trkpt><trkpt lat="37.648735" lon="14.8068183"><ele>229.0</ele><time>2026-04-26T09:30:44.197Z</time></trkpt><trkpt lat="37.6488583" lon="14.806555"><ele>229.0</ele><time>2026-04-26T09:30:45.197Z</time></trkpt><trkpt lat="37.6489817" lon="14.8062967"><ele>229.0</ele><time>2026-04-26T09:30:46.197Z</time></trkpt><trkpt lat="37.6491083" lon="14.80604"><ele>228.0</ele><time>2026-04-26T09:30:47.197Z</time></trkpt><trkpt lat="37.64923" lon="14.8057917"><ele>227.0</ele><time>2026-04-26T09:30:48.197Z</time></trkpt><trkpt lat="37.6493533" lon="14.8055467"><ele>228.0</ele><time>2026-04-26T09:30:49.198Z</time></trkpt><trkpt lat="37.649485" lon="14.8053017"><ele>229.0</ele><time>2026-04-26T09:30:50.197Z</time></trkpt><trkpt lat="37.64962" lon="14.8050583"><ele>229.0</ele><time>2026-04-26T09:30:51.197Z</time></trkpt><trkpt lat="37.649765" lon="14.8048233"><ele>229.0</ele><time>2026-04-26T09:30:52.197Z</time></trkpt><trkpt lat="37.6499283" lon="14.8046083"><ele>229.0</ele><time>2026-04-26T09:30:53.197Z</time></trkpt><trkpt lat="37.6500983" lon="14.8044"><ele>229.0</ele><time>2026-04-26T09:30:54.197Z</time></trkpt><trkpt lat="37.6502733" lon="14.8041867"><ele>229.5</ele><time>2026-04-26T09:30:55.197Z</time></trkpt><trkpt lat="37.6504467" lon="14.8039667"><ele>230.0</ele><time>2026-04-26T09:30:56.197Z</time></trkpt><trkpt lat="37.65062" lon="14.8037533"><ele>230.0</ele><time>2026-04-26T09:30:57.197Z</time></trkpt><trkpt lat="37.6507917" lon="14.8035417"><ele>230.0</ele><time>2026-04-26T09:30:58.198Z</time></trkpt><trkpt lat="37.650965" lon="14.8033217"><ele>231.5</ele><time>2026-04-26T09:30:59.197Z</time></trkpt><trkpt lat="37.6511383" lon="14.8031067"><ele>233.0</ele><time>2026-04-26T09:31:00.197Z</time></trkpt><trkpt lat="37.65131" lon="14.8028933"><ele>233.0</ele><time>2026-04-26T09:31:01.197Z</time></trkpt><trkpt lat="37.6514817" lon="14.8026817"><ele>233.0</ele><time>2026-04-26T09:31:02.198Z</time></trkpt><trkpt lat="37.65165" lon="14.802465"><ele>233.0</ele><time>2026-04-26T09:31:03.197Z</time></trkpt><trkpt lat="37.65182" lon="14.8022533"><ele>233.0</ele><time>2026-04-26T09:31:04.198Z</time></trkpt><trkpt lat="37.6519933" lon="14.802045"><ele>233.0</ele><time>2026-04-26T09:31:05.197Z</time></trkpt><trkpt lat="37.652165" lon="14.801835"><ele>233.0</ele><time>2026-04-26T09:31:06.197Z</time></trkpt><trkpt lat="37.6523267" lon="14.8016283"><ele>234.5</ele><time>2026-04-26T09:31:07.197Z</time></trkpt><trkpt lat="37.6524867" lon="14.8014233"><ele>236.0</ele><time>2026-04-26T09:31:08.197Z</time></trkpt><trkpt lat="37.6526467" lon="14.801215"><ele>236.0</ele><time>2026-04-26T09:31:09.197Z</time></trkpt><trkpt lat="37.652805" lon="14.8010117"><ele>236.0</ele><time>2026-04-26T09:31:10.197Z</time></trkpt><trkpt lat="37.652965" lon="14.8008117"><ele>236.0</ele><time>2026-04-26T09:31:11.197Z</time></trkpt><trkpt lat="37.6531183" lon="14.80062"><ele>236.0</ele><time>2026-04-26T09:31:12.197Z</time></trkpt><trkpt lat="37.65326" lon="14.8004417"><ele>236.0</ele><time>2026-04-26T09:31:13.197Z</time></trkpt><trkpt lat="37.6533983" lon="14.80027"><ele>235.66666666666669</ele><time>2026-04-26T09:31:14.197Z</time></trkpt><trkpt lat="37.6535317" lon="14.8001"><ele>235.33333333333331</ele><time>2026-04-26T09:31:15.197Z</time></trkpt><trkpt lat="37.6536517" lon="14.79995"><ele>235.0</ele><time>2026-04-26T09:31:16.197Z</time></trkpt><trkpt lat="37.6537683" lon="14.7998083"><ele>234.75</ele><time>2026-04-26T09:31:17.197Z</time></trkpt><trkpt lat="37.6538683" lon="14.79968"><ele>234.5</ele><time>2026-04-26T09:31:18.197Z</time></trkpt><trkpt lat="37.6539617" lon="14.7995633"><ele>234.25</ele><time>2026-04-26T09:31:19.197Z</time></trkpt><trkpt lat="37.6540483" lon="14.7994633"><ele>234.0</ele><time>2026-04-26T09:31:20.197Z</time></trkpt><trkpt lat="37.65413" lon="14.7993867"><ele>234.16666666666666</ele><time>2026-04-26T09:31:21.197Z</time></trkpt><trkpt lat="37.6541967" lon="14.7993217"><ele>234.33333333333331</ele><time>2026-04-26T09:31:22.197Z</time></trkpt><trkpt lat="37.6542483" lon="14.7992683"><ele>234.5</ele><time>2026-04-26T09:31:23.197Z</time></trkpt><trkpt lat="37.6543" lon="14.7991783"><ele>234.66666666666666</ele><time>2026-04-26T09:31:25.197Z</time></trkpt><trkpt lat="37.654305" lon="14.7990867"><ele>234.83333333333331</ele><time>2026-04-26T09:31:30.197Z</time></trkpt><trkpt lat="37.6542583" lon="14.798955"><ele>235.0</ele><time>2026-04-26T09:31:32.197Z</time></trkpt><trkpt lat="37.6542167" lon="14.7988717"><ele>235.0</ele><time>2026-04-26T09:31:33.198Z</time></trkpt><trkpt lat="37.6541783" lon="14.79878"><ele>235.0</ele><time>2026-04-26T09:31:34.197Z</time></trkpt><trkpt lat="37.654145" lon="14.7986633"><ele>235.0</ele><time>2026-04-26T09:31:35.197Z</time></trkpt><trkpt lat="37.65412" lon="14.79852"><ele>235.0</ele><time>2026-04-26T09:31:36.197Z</time></trkpt><trkpt lat="37.6541233" lon="14.798365"><ele>235.0</ele><time>2026-04-26T09:31:37.198Z</time></trkpt><trkpt lat="37.6541483" lon="14.7981967"><ele>234.66666666666666</ele><time>2026-04-26T09:31:38.198Z</time></trkpt><trkpt lat="37.65419" lon="14.7980167"><ele>234.33333333333331</ele><time>2026-04-26T09:31:39.197Z</time></trkpt><trkpt lat="37.6542417" lon="14.797835"><ele>234.0</ele><time>2026-04-26T09:31:40.197Z</time></trkpt><trkpt lat="37.6543" lon="14.7976567"><ele>233.25</ele><time>2026-04-26T09:31:41.197Z</time></trkpt><trkpt lat="37.6543517" lon="14.797495"><ele>232.5</ele><time>2026-04-26T09:31:42.197Z</time></trkpt><trkpt lat="37.6543933" lon="14.797345"><ele>231.75</ele><time>2026-04-26T09:31:43.197Z</time></trkpt><trkpt lat="37.65443" lon="14.7971983"><ele>231.0</ele><time>2026-04-26T09:31:44.197Z</time></trkpt><trkpt lat="37.65447" lon="14.79707"><ele>231.20000000000002</ele><time>2026-04-26T09:31:45.197Z</time></trkpt><trkpt lat="37.654505" lon="14.7969633"><ele>231.40000000000003</ele><time>2026-04-26T09:31:46.197Z</time></trkpt><trkpt lat="37.6545317" lon="14.7968717"><ele>231.6</ele><time>2026-04-26T09:31:47.197Z</time></trkpt><trkpt lat="37.6545567" lon="14.7967933"><ele>231.8</ele><time>2026-04-26T09:31:48.197Z</time></trkpt><trkpt lat="37.6545883" lon="14.796665"><ele>232.0</ele><time>2026-04-26T09:31:50.197Z</time></trkpt><trkpt lat="37.6546267" lon="14.7964933"><ele>232.0</ele><time>2026-04-26T09:31:52.197Z</time></trkpt><trkpt lat="37.6546533" lon="14.796395"><ele>232.0</ele><time>2026-04-26T09:31:53.197Z</time></trkpt><trkpt lat="37.65469" lon="14.7962733"><ele>232.0</ele><time>2026-04-26T09:31:54.197Z</time></trkpt><trkpt lat="37.654735" lon="14.79613"><ele>232.0</ele><time>2026-04-26T09:31:55.197Z</time></trkpt><trkpt lat="37.6547767" lon="14.7959567"><ele>231.25</ele><time>2026-04-26T09:31:56.197Z</time></trkpt><trkpt lat="37.6548133" lon="14.7957733"><ele>230.5</ele><time>2026-04-26T09:31:57.197Z</time></trkpt><trkpt lat="37.6548433" lon="14.795585"><ele>229.75</ele><time>2026-04-26T09:31:58.197Z</time></trkpt><trkpt lat="37.6548767" lon="14.7954067"><ele>229.0</ele><time>2026-04-26T09:31:59.197Z</time></trkpt><trkpt lat="37.6549033" lon="14.79524"><ele>227.0</ele><time>2026-04-26T09:32:00.197Z</time></trkpt><trkpt lat="37.6549317" lon="14.7950817"><ele>225.0</ele><time>2026-04-26T09:32:01.198Z</time></trkpt><trkpt lat="37.6549667" lon="14.7949383"><ele>223.0</ele><time>2026-04-26T09:32:02.197Z</time></trkpt><trkpt lat="37.65502" lon="14.7948167"><ele>221.0</ele><time>2026-04-26T09:32:03.197Z</time></trkpt><trkpt lat="37.6550967" lon="14.7947183"><ele>221.0</ele><time>2026-04-26T09:32:04.198Z</time></trkpt><trkpt lat="37.6551883" lon="14.7946433"><ele>221.0</ele><time>2026-04-26T09:32:05.197Z</time></trkpt><trkpt lat="37.6553083" lon="14.7946017"><ele>221.0</ele><time>2026-04-26T09:32:06.197Z</time></trkpt><trkpt lat="37.65543" lon="14.79456"><ele>221.0</ele><time>2026-04-26T09:32:07.197Z</time></trkpt><trkpt lat="37.6555483" lon="14.7945333"><ele>221.4</ele><time>2026-04-26T09:32:08.197Z</time></trkpt><trkpt lat="37.6556583" lon="14.79449"><ele>221.8</ele><time>2026-04-26T09:32:09.198Z</time></trkpt><trkpt lat="37.655755" lon="14.7944267"><ele>222.20000000000002</ele><time>2026-04-26T09:32:10.198Z</time></trkpt><trkpt lat="37.6558367" lon="14.79434"><ele>222.60000000000002</ele><time>2026-04-26T09:32:11.197Z</time></trkpt><trkpt lat="37.6559017" lon="14.79422"><ele>223.0</ele><time>2026-04-26T09:32:12.197Z</time></trkpt><trkpt lat="37.6559517" lon="14.7940767"><ele>219.5</ele><time>2026-04-26T09:32:13.197Z</time></trkpt><trkpt lat="37.656005" lon="14.7939283"><ele>216.0</ele><time>2026-04-26T09:32:14.197Z</time></trkpt><trkpt lat="37.65606" lon="14.79377"><ele>212.5</ele><time>2026-04-26T09:32:15.197Z</time></trkpt><trkpt lat="37.656115" lon="14.79362"><ele>209.0</ele><time>2026-04-26T09:32:16.197Z</time></trkpt><trkpt lat="37.6561683" lon="14.7934717"><ele>209.0</ele><time>2026-04-26T09:32:17.198Z</time></trkpt><trkpt lat="37.6562183" lon="14.793325"><ele>209.0</ele><time>2026-04-26T09:32:18.197Z</time></trkpt><trkpt lat="37.65626" lon="14.79319"><ele>209.0</ele><time>2026-04-26T09:32:19.197Z</time></trkpt><trkpt lat="37.6563017" lon="14.7930683"><ele>209.0</ele><time>2026-04-26T09:32:20.197Z</time></trkpt><trkpt lat="37.65635" lon="14.7929533"><ele>209.0</ele><time>2026-04-26T09:32:21.197Z</time></trkpt><trkpt lat="37.6564067" lon="14.792855"><ele>209.00000000000003</ele><time>2026-04-26T09:32:22.197Z</time></trkpt><trkpt lat="37.6564683" lon="14.7927867"><ele>209.0</ele><time>2026-04-26T09:32:23.197Z</time></trkpt><trkpt lat="37.6565367" lon="14.7927517"><ele>209.0</ele><time>2026-04-26T09:32:24.197Z</time></trkpt><trkpt lat="37.6566183" lon="14.792725"><ele>209.0</ele><time>2026-04-26T09:32:25.197Z</time></trkpt><trkpt lat="37.6567083" lon="14.792715"><ele>209.00000000000003</ele><time>2026-04-26T09:32:26.197Z</time></trkpt><trkpt lat="37.6568167" lon="14.7927017"><ele>209.0</ele><time>2026-04-26T09:32:27.197Z</time></trkpt><trkpt lat="37.656935" lon="14.792675"><ele>211.39999999999998</ele><time>2026-04-26T09:32:28.197Z</time></trkpt><trkpt lat="37.657055" lon="14.792645"><ele>213.8</ele><time>2026-04-26T09:32:29.197Z</time></trkpt><trkpt lat="37.6571667" lon="14.7926167"><ele>216.20000000000002</ele><time>2026-04-26T09:32:30.198Z</time></trkpt><trkpt lat="37.6572533" lon="14.7925783"><ele>218.60000000000002</ele><time>2026-04-26T09:32:31.198Z</time></trkpt><trkpt lat="37.65731" lon="14.7925083"><ele>221.0</ele><time>2026-04-26T09:32:32.197Z</time></trkpt><trkpt lat="37.6573383" lon="14.7924183"><ele>221.0</ele><time>2026-04-26T09:32:33.197Z</time></trkpt><trkpt lat="37.65733" lon="14.7923117"><ele>221.0</ele><time>2026-04-26T09:32:34.197Z</time></trkpt><trkpt lat="37.6572883" lon="14.7921933"><ele>221.0</ele><time>2026-04-26T09:32:35.197Z</time></trkpt><trkpt lat="37.6572083" lon="14.7920667"><ele>221.0</ele><time>2026-04-26T09:32:36.197Z</time></trkpt><trkpt lat="37.6571017" lon="14.7919517"><ele>221.0</ele><time>2026-04-26T09:32:37.197Z</time></trkpt><trkpt lat="37.6569883" lon="14.791845"><ele>221.0</ele><time>2026-04-26T09:32:38.197Z</time></trkpt><trkpt lat="37.656865" lon="14.7917683"><ele>221.0</ele><time>2026-04-26T09:32:39.197Z</time></trkpt><trkpt lat="37.656725" lon="14.7917183"><ele>221.0</ele><time>2026-04-26T09:32:40.197Z</time></trkpt><trkpt lat="37.6565733" lon="14.79168"><ele>225.33333333333334</ele><time>2026-04-26T09:32:41.197Z</time></trkpt><trkpt lat="37.6564167" lon="14.791645"><ele>229.66666666666669</ele><time>2026-04-26T09:32:42.197Z</time></trkpt><trkpt lat="37.656265" lon="14.7916"><ele>234.0</ele><time>2026-04-26T09:32:43.197Z</time></trkpt><trkpt lat="37.65612" lon="14.7915417"><ele>232.25</ele><time>2026-04-26T09:32:44.198Z</time></trkpt><trkpt lat="37.6559967" lon="14.7914683"><ele>230.5</ele><time>2026-04-26T09:32:45.198Z</time></trkpt><trkpt lat="37.655895" lon="14.7913717"><ele>228.75</ele><time>2026-04-26T09:32:46.197Z</time></trkpt><trkpt lat="37.6558217" lon="14.7912283"><ele>227.0</ele><time>2026-04-26T09:32:47.197Z</time></trkpt><trkpt lat="37.655775" lon="14.7910567"><ele>229.75</ele><time>2026-04-26T09:32:48.197Z</time></trkpt><trkpt lat="37.6557267" lon="14.7908933"><ele>232.5</ele><time>2026-04-26T09:32:49.197Z</time></trkpt><trkpt lat="37.655665" lon="14.79075"><ele>235.25</ele><time>2026-04-26T09:32:50.196Z</time></trkpt><trkpt lat="37.6555733" lon="14.7906417"><ele>238.0</ele><time>2026-04-26T09:32:51.196Z</time></trkpt><trkpt lat="37.65545" lon="14.7905833"><ele>238.0</ele><time>2026-04-26T09:32:52.196Z</time></trkpt><trkpt lat="37.6553217" lon="14.7905633"><ele>238.0</ele><time>2026-04-26T09:32:53.196Z</time></trkpt><trkpt lat="37.6551933" lon="14.790565"><ele>238.0</ele><time>2026-04-26T09:32:54.196Z</time></trkpt><trkpt lat="37.6550767" lon="14.790565"><ele>238.0</ele><time>2026-04-26T09:32:55.196Z</time></trkpt><trkpt lat="37.65497" lon="14.7905367"><ele>237.0</ele><time>2026-04-26T09:32:56.196Z</time></trkpt><trkpt lat="37.6548933" lon="14.7904767"><ele>236.0</ele><time>2026-04-26T09:32:57.196Z</time></trkpt><trkpt lat="37.6548233" lon="14.7903717"><ele>235.0</ele><time>2026-04-26T09:32:58.196Z</time></trkpt><trkpt lat="37.6547517" lon="14.7902417"><ele>234.0</ele><time>2026-04-26T09:32:59.196Z</time></trkpt><trkpt lat="37.6546883" lon="14.7900817"><ele>237.66666666666669</ele><time>2026-04-26T09:33:00.196Z</time></trkpt><trkpt lat="37.654625" lon="14.78988"><ele>241.33333333333334</ele><time>2026-04-26T09:33:01.196Z</time></trkpt><trkpt lat="37.6545517" lon="14.7896583"><ele>245.0</ele><time>2026-04-26T09:33:02.196Z</time></trkpt><trkpt lat="37.6544767" lon="14.7894217"><ele>244.33333333333334</ele><time>2026-04-26T09:33:03.196Z</time></trkpt><trkpt lat="37.6543917" lon="14.789175"><ele>243.66666666666669</ele><time>2026-04-26T09:33:04.196Z</time></trkpt><trkpt lat="37.6543" lon="14.7889217"><ele>243.0</ele><time>2026-04-26T09:33:05.196Z</time></trkpt><trkpt lat="37.6542067" lon="14.7886717"><ele>243.0</ele><time>2026-04-26T09:33:06.197Z</time></trkpt><trkpt lat="37.6541183" lon="14.7884133"><ele>243.0</ele><time>2026-04-26T09:33:07.197Z</time></trkpt><trkpt lat="37.6540283" lon="14.7881483"><ele>243.0</ele><time>2026-04-26T09:33:08.196Z</time></trkpt><trkpt lat="37.6539417" lon="14.7878833"><ele>243.0</ele><time>2026-04-26T09:33:09.196Z</time></trkpt><trkpt lat="37.653855" lon="14.78763"><ele>243.0</ele><time>2026-04-26T09:33:10.196Z</time></trkpt><trkpt lat="37.6537783" lon="14.78738"><ele>243.0</ele><time>2026-04-26T09:33:11.196Z</time></trkpt><trkpt lat="37.6536983" lon="14.7871467"><ele>243.0</ele><time>2026-04-26T09:33:12.197Z</time></trkpt><trkpt lat="37.6536183" lon="14.7869067"><ele>243.0</ele><time>2026-04-26T09:33:13.196Z</time></trkpt><trkpt lat="37.653525" lon="14.7866583"><ele>243.0</ele><time>2026-04-26T09:33:14.196Z</time></trkpt><trkpt lat="37.6534367" lon="14.7863967"><ele>243.0</ele><time>2026-04-26T09:33:15.197Z</time></trkpt><trkpt lat="37.6533567" lon="14.7861433"><ele>243.0</ele><time>2026-04-26T09:33:16.197Z</time></trkpt><trkpt lat="37.6532717" lon="14.7858933"><ele>243.33333333333331</ele><time>2026-04-26T09:33:17.196Z</time></trkpt><trkpt lat="37.6531783" lon="14.7856383"><ele>243.66666666666666</ele><time>2026-04-26T09:33:18.196Z</time></trkpt><trkpt lat="37.6530883" lon="14.78538"><ele>244.0</ele><time>2026-04-26T09:33:19.196Z</time></trkpt><trkpt lat="37.6530017" lon="14.785125"><ele>243.66666666666666</ele><time>2026-04-26T09:33:20.196Z</time></trkpt><trkpt lat="37.6529117" lon="14.784865"><ele>243.33333333333331</ele><time>2026-04-26T09:33:21.196Z</time></trkpt><trkpt lat="37.6528233" lon="14.7846117"><ele>243.0</ele><time>2026-04-26T09:33:22.197Z</time></trkpt><trkpt lat="37.652735" lon="14.7843567"><ele>242.5</ele><time>2026-04-26T09:33:23.196Z</time></trkpt><trkpt lat="37.65264" lon="14.7840933"><ele>242.0</ele><time>2026-04-26T09:33:24.196Z</time></trkpt><trkpt lat="37.6525533" lon="14.7838283"><ele>242.0</ele><time>2026-04-26T09:33:25.196Z</time></trkpt><trkpt lat="37.6524633" lon="14.7835567"><ele>242.0</ele><time>2026-04-26T09:33:26.196Z</time></trkpt><trkpt lat="37.652365" lon="14.783285"><ele>241.0</ele><time>2026-04-26T09:33:27.196Z</time></trkpt><trkpt lat="37.6522683" lon="14.7830067"><ele>240.0</ele><time>2026-04-26T09:33:28.196Z</time></trkpt><trkpt lat="37.6521717" lon="14.7827233"><ele>240.5</ele><time>2026-04-26T09:33:29.196Z</time></trkpt><trkpt lat="37.652075" lon="14.7824417"><ele>241.0</ele><time>2026-04-26T09:33:30.197Z</time></trkpt><trkpt lat="37.651975" lon="14.7821633"><ele>240.0</ele><time>2026-04-26T09:33:31.196Z</time></trkpt><trkpt lat="37.6518867" lon="14.7819"><ele>239.0</ele><time>2026-04-26T09:33:32.197Z</time></trkpt><trkpt lat="37.6517933" lon="14.7816433"><ele>238.66666666666669</ele><time>2026-04-26T09:33:33.196Z</time></trkpt><trkpt lat="37.6517067" lon="14.7813917"><ele>238.33333333333331</ele><time>2026-04-26T09:33:34.196Z</time></trkpt><trkpt lat="37.65162" lon="14.78114"><ele>238.0</ele><time>2026-04-26T09:33:35.196Z</time></trkpt><trkpt lat="37.6515383" lon="14.78089"><ele>237.66666666666666</ele><time>2026-04-26T09:33:36.196Z</time></trkpt><trkpt lat="37.6514467" lon="14.7806483"><ele>237.33333333333331</ele><time>2026-04-26T09:33:37.196Z</time></trkpt><trkpt lat="37.65134" lon="14.7804133"><ele>237.0</ele><time>2026-04-26T09:33:38.196Z</time></trkpt><trkpt lat="37.6512233" lon="14.78018"><ele>236.5</ele><time>2026-04-26T09:33:39.196Z</time></trkpt><trkpt lat="37.6510933" lon="14.7799517"><ele>236.0</ele><time>2026-04-26T09:33:40.196Z</time></trkpt><trkpt lat="37.6509567" lon="14.7797183"><ele>236.0</ele><time>2026-04-26T09:33:41.196Z</time></trkpt><trkpt lat="37.6508233" lon="14.77949"><ele>236.0</ele><time>2026-04-26T09:33:42.196Z</time></trkpt><trkpt lat="37.650685" lon="14.7792567"><ele>235.5</ele><time>2026-04-26T09:33:43.197Z</time></trkpt><trkpt lat="37.65055" lon="14.779025"><ele>235.0</ele><time>2026-04-26T09:33:44.196Z</time></trkpt><trkpt lat="37.6504167" lon="14.7787917"><ele>234.5</ele><time>2026-04-26T09:33:45.196Z</time></trkpt><trkpt lat="37.6502817" lon="14.7785583"><ele>234.0</ele><time>2026-04-26T09:33:46.196Z</time></trkpt><trkpt lat="37.6501433" lon="14.77832"><ele>231.5</ele><time>2026-04-26T09:33:47.196Z</time></trkpt><trkpt lat="37.6500117" lon="14.778075"><ele>229.0</ele><time>2026-04-26T09:33:48.196Z</time></trkpt><trkpt lat="37.6498783" lon="14.7778333"><ele>227.5</ele><time>2026-04-26T09:33:49.196Z</time></trkpt><trkpt lat="37.6497383" lon="14.77759"><ele>226.0</ele><time>2026-04-26T09:33:50.196Z</time></trkpt><trkpt lat="37.6496017" lon="14.77735"><ele>226.0</ele><time>2026-04-26T09:33:51.196Z</time></trkpt><trkpt lat="37.649465" lon="14.777115"><ele>226.0</ele><time>2026-04-26T09:33:52.197Z</time></trkpt><trkpt lat="37.649325" lon="14.77687"><ele>224.0</ele><time>2026-04-26T09:33:53.196Z</time></trkpt><trkpt lat="37.6491883" lon="14.7766367"><ele>222.0</ele><time>2026-04-26T09:33:54.196Z</time></trkpt><trkpt lat="37.649055" lon="14.7764083"><ele>222.0</ele><time>2026-04-26T09:33:55.196Z</time></trkpt><trkpt lat="37.6489233" lon="14.776185"><ele>222.0</ele><time>2026-04-26T09:33:56.196Z</time></trkpt><trkpt lat="37.648795" lon="14.7759567"><ele>222.0</ele><time>2026-04-26T09:33:57.196Z</time></trkpt><trkpt lat="37.6486617" lon="14.7757317"><ele>220.66666666666669</ele><time>2026-04-26T09:33:58.196Z</time></trkpt><trkpt lat="37.6485283" lon="14.7755033"><ele>219.33333333333334</ele><time>2026-04-26T09:33:59.197Z</time></trkpt><trkpt lat="37.6484" lon="14.775275"><ele>218.0</ele><time>2026-04-26T09:34:00.196Z</time></trkpt><trkpt lat="37.6482767" lon="14.775045"><ele>217.66666666666669</ele><time>2026-04-26T09:34:01.196Z</time></trkpt><trkpt lat="37.6481517" lon="14.77482"><ele>217.33333333333331</ele><time>2026-04-26T09:34:02.197Z</time></trkpt><trkpt lat="37.64803" lon="14.7745867"><ele>217.0</ele><time>2026-04-26T09:34:03.196Z</time></trkpt><trkpt lat="37.647915" lon="14.7743483"><ele>215.66666666666666</ele><time>2026-04-26T09:34:04.196Z</time></trkpt><trkpt lat="37.6478183" lon="14.7741017"><ele>214.33333333333331</ele><time>2026-04-26T09:34:05.196Z</time></trkpt><trkpt lat="37.6477233" lon="14.77385"><ele>213.0</ele><time>2026-04-26T09:34:06.196Z</time></trkpt><trkpt lat="37.647635" lon="14.7736017"><ele>210.33333333333331</ele><time>2026-04-26T09:34:07.196Z</time></trkpt><trkpt lat="37.6475417" lon="14.7733533"><ele>207.66666666666666</ele><time>2026-04-26T09:34:08.196Z</time></trkpt><trkpt lat="37.647455" lon="14.7731033"><ele>205.0</ele><time>2026-04-26T09:34:09.197Z</time></trkpt><trkpt lat="37.64737" lon="14.7728567"><ele>203.66666666666666</ele><time>2026-04-26T09:34:10.196Z</time></trkpt><trkpt lat="37.6472817" lon="14.7726233"><ele>202.33333333333331</ele><time>2026-04-26T09:34:11.196Z</time></trkpt><trkpt lat="37.6472" lon="14.77239"><ele>201.0</ele><time>2026-04-26T09:34:12.196Z</time></trkpt><trkpt lat="37.6471183" lon="14.7721733"><ele>201.0</ele><time>2026-04-26T09:34:13.196Z</time></trkpt><trkpt lat="37.6470483" lon="14.7719667"><ele>201.0</ele><time>2026-04-26T09:34:14.196Z</time></trkpt><trkpt lat="37.64698" lon="14.7717683"><ele>201.0</ele><time>2026-04-26T09:34:15.196Z</time></trkpt><trkpt lat="37.646905" lon="14.77157"><ele>203.33333333333331</ele><time>2026-04-26T09:34:16.197Z</time></trkpt><trkpt lat="37.6468317" lon="14.771365"><ele>205.66666666666666</ele><time>2026-04-26T09:34:17.196Z</time></trkpt><trkpt lat="37.6467567" lon="14.7711567"><ele>208.0</ele><time>2026-04-26T09:34:18.196Z</time></trkpt><trkpt lat="37.6466967" lon="14.770935"><ele>210.33333333333331</ele><time>2026-04-26T09:34:19.196Z</time></trkpt><trkpt lat="37.6466383" lon="14.7707"><ele>212.66666666666669</ele><time>2026-04-26T09:34:20.196Z</time></trkpt><trkpt lat="37.6465983" lon="14.7704583"><ele>215.0</ele><time>2026-04-26T09:34:21.196Z</time></trkpt><trkpt lat="37.6465567" lon="14.770205"><ele>216.0</ele><time>2026-04-26T09:34:22.196Z</time></trkpt><trkpt lat="37.6465267" lon="14.769945"><ele>217.0</ele><time>2026-04-26T09:34:23.196Z</time></trkpt><trkpt lat="37.6464967" lon="14.769685"><ele>218.0</ele><time>2026-04-26T09:34:24.197Z</time></trkpt><trkpt lat="37.6464633" lon="14.7694283"><ele>219.33333333333334</ele><time>2026-04-26T09:34:25.196Z</time></trkpt><trkpt lat="37.64643" lon="14.7691667"><ele>220.66666666666669</ele><time>2026-04-26T09:34:26.197Z</time></trkpt><trkpt lat="37.6463983" lon="14.7689083"><ele>222.0</ele><time>2026-04-26T09:34:27.196Z</time></trkpt><trkpt lat="37.6463617" lon="14.76866"><ele>223.33333333333331</ele><time>2026-04-26T09:34:28.196Z</time></trkpt><trkpt lat="37.6463067" lon="14.7684183"><ele>224.66666666666666</ele><time>2026-04-26T09:34:29.197Z</time></trkpt><trkpt lat="37.6462417" lon="14.7681717"><ele>226.0</ele><time>2026-04-26T09:34:30.196Z</time></trkpt><trkpt lat="37.6461583" lon="14.767935"><ele>228.66666666666666</ele><time>2026-04-26T09:34:31.196Z</time></trkpt><trkpt lat="37.6460833" lon="14.7676883"><ele>231.33333333333331</ele><time>2026-04-26T09:34:32.196Z</time></trkpt><trkpt lat="37.6460167" lon="14.767435"><ele>234.0</ele><time>2026-04-26T09:34:33.196Z</time></trkpt><trkpt lat="37.6459667" lon="14.76717"><ele>234.0</ele><time>2026-04-26T09:34:34.197Z</time></trkpt><trkpt lat="37.64593" lon="14.7668967"><ele>234.0</ele><time>2026-04-26T09:34:35.196Z</time></trkpt><trkpt lat="37.6459117" lon="14.7666233"><ele>234.0</ele><time>2026-04-26T09:34:36.196Z</time></trkpt><trkpt lat="37.645905" lon="14.7663417"><ele>234.33333333333331</ele><time>2026-04-26T09:34:37.196Z</time></trkpt><trkpt lat="37.6459083" lon="14.7660717"><ele>234.66666666666666</ele><time>2026-04-26T09:34:38.196Z</time></trkpt><trkpt lat="37.6459133" lon="14.7658017"><ele>235.0</ele><time>2026-04-26T09:34:39.196Z</time></trkpt><trkpt lat="37.6459117" lon="14.7655383"><ele>235.0</ele><time>2026-04-26T09:34:40.196Z</time></trkpt><trkpt lat="37.6459117" lon="14.765275"><ele>235.0</ele><time>2026-04-26T09:34:41.196Z</time></trkpt><trkpt lat="37.6459067" lon="14.76501"><ele>235.0</ele><time>2026-04-26T09:34:42.196Z</time></trkpt><trkpt lat="37.64589" lon="14.7647417"><ele>236.66666666666666</ele><time>2026-04-26T09:34:43.196Z</time></trkpt><trkpt lat="37.64586" lon="14.7644667"><ele>238.33333333333331</ele><time>2026-04-26T09:34:44.196Z</time></trkpt><trkpt lat="37.645815" lon="14.764195"><ele>240.0</ele><time>2026-04-26T09:34:45.196Z</time></trkpt><trkpt lat="37.6457733" lon="14.7639217"><ele>240.0</ele><time>2026-04-26T09:34:46.196Z</time></trkpt><trkpt lat="37.645735" lon="14.7636583"><ele>240.0</ele><time>2026-04-26T09:34:47.196Z</time></trkpt><trkpt lat="37.6457017" lon="14.7634033"><ele>240.0</ele><time>2026-04-26T09:34:48.196Z</time></trkpt><trkpt lat="37.645665" lon="14.7631617"><ele>239.33333333333331</ele><time>2026-04-26T09:34:49.196Z</time></trkpt><trkpt lat="37.6456133" lon="14.76293"><ele>238.66666666666666</ele><time>2026-04-26T09:34:50.196Z</time></trkpt><trkpt lat="37.64556" lon="14.7627117"><ele>238.0</ele><time>2026-04-26T09:34:51.196Z</time></trkpt><trkpt lat="37.645525" lon="14.76251"><ele>236.66666666666666</ele><time>2026-04-26T09:34:52.196Z</time></trkpt><trkpt lat="37.645485" lon="14.762305"><ele>235.33333333333331</ele><time>2026-04-26T09:34:53.196Z</time></trkpt><trkpt lat="37.6454683" lon="14.76209"><ele>234.0</ele><time>2026-04-26T09:34:54.197Z</time></trkpt><trkpt lat="37.6454817" lon="14.761875"><ele>233.0</ele><time>2026-04-26T09:34:55.196Z</time></trkpt><trkpt lat="37.645495" lon="14.7616683"><ele>232.0</ele><time>2026-04-26T09:34:56.196Z</time></trkpt><trkpt lat="37.6454867" lon="14.761475"><ele>231.0</ele><time>2026-04-26T09:34:57.197Z</time></trkpt><trkpt lat="37.6454933" lon="14.7612933"><ele>231.0</ele><time>2026-04-26T09:34:58.196Z</time></trkpt><trkpt lat="37.6455267" lon="14.76112"><ele>231.0</ele><time>2026-04-26T09:34:59.196Z</time></trkpt><trkpt lat="37.6456067" lon="14.7609617"><ele>231.0</ele><time>2026-04-26T09:35:00.196Z</time></trkpt><trkpt lat="37.6457317" lon="14.76081"><ele>231.33333333333331</ele><time>2026-04-26T09:35:01.197Z</time></trkpt><trkpt lat="37.645845" lon="14.7606467"><ele>231.66666666666666</ele><time>2026-04-26T09:35:02.197Z</time></trkpt><trkpt lat="37.6459317" lon="14.7604533"><ele>232.0</ele><time>2026-04-26T09:35:03.196Z</time></trkpt><trkpt lat="37.6460083" lon="14.7602367"><ele>233.0</ele><time>2026-04-26T09:35:04.196Z</time></trkpt><trkpt lat="37.6460917" lon="14.76001"><ele>234.0</ele><time>2026-04-26T09:35:05.196Z</time></trkpt><trkpt lat="37.6462083" lon="14.7598033"><ele>235.0</ele><time>2026-04-26T09:35:06.196Z</time></trkpt><trkpt lat="37.646335" lon="14.7596167"><ele>234.66666666666666</ele><time>2026-04-26T09:35:07.197Z</time></trkpt><trkpt lat="37.646445" lon="14.7594217"><ele>234.33333333333331</ele><time>2026-04-26T09:35:08.196Z</time></trkpt><trkpt lat="37.6465383" lon="14.759205"><ele>234.0</ele><time>2026-04-26T09:35:09.196Z</time></trkpt><trkpt lat="37.6466233" lon="14.75896"><ele>234.0</ele><time>2026-04-26T09:35:10.196Z</time></trkpt><trkpt lat="37.6467083" lon="14.7587"><ele>234.0</ele><time>2026-04-26T09:35:11.196Z</time></trkpt><trkpt lat="37.6467967" lon="14.7584367"><ele>234.0</ele><time>2026-04-26T09:35:12.197Z</time></trkpt><trkpt lat="37.6468817" lon="14.7581833"><ele>234.66666666666669</ele><time>2026-04-26T09:35:13.196Z</time></trkpt><trkpt lat="37.646965" lon="14.7579283"><ele>235.33333333333334</ele><time>2026-04-26T09:35:14.196Z</time></trkpt><trkpt lat="37.6470433" lon="14.7576833"><ele>236.0</ele><time>2026-04-26T09:35:15.197Z</time></trkpt><trkpt lat="37.6471433" lon="14.7574383"><ele>236.66666666666669</ele><time>2026-04-26T09:35:16.196Z</time></trkpt><trkpt lat="37.6472383" lon="14.757205"><ele>237.33333333333331</ele><time>2026-04-26T09:35:17.196Z</time></trkpt><trkpt lat="37.64734" lon="14.7569683"><ele>238.0</ele><time>2026-04-26T09:35:18.196Z</time></trkpt><trkpt lat="37.6474433" lon="14.75673"><ele>238.0</ele><time>2026-04-26T09:35:19.196Z</time></trkpt><trkpt lat="37.6475433" lon="14.7564933"><ele>238.0</ele><time>2026-04-26T09:35:20.196Z</time></trkpt><trkpt lat="37.647645" lon="14.75625"><ele>238.0</ele><time>2026-04-26T09:35:21.196Z</time></trkpt><trkpt lat="37.6477467" lon="14.7560083"><ele>236.66666666666666</ele><time>2026-04-26T09:35:22.197Z</time></trkpt><trkpt lat="37.6478483" lon="14.7557717"><ele>235.33333333333331</ele><time>2026-04-26T09:35:23.196Z</time></trkpt><trkpt lat="37.6479567" lon="14.7555333"><ele>234.0</ele><time>2026-04-26T09:35:24.197Z</time></trkpt><trkpt lat="37.6480633" lon="14.7552917"><ele>233.66666666666669</ele><time>2026-04-26T09:35:25.196Z</time></trkpt><trkpt lat="37.648175" lon="14.7550483"><ele>233.33333333333334</ele><time>2026-04-26T09:35:26.196Z</time></trkpt><trkpt lat="37.648285" lon="14.7548017"><ele>233.0</ele><time>2026-04-26T09:35:27.196Z</time></trkpt><trkpt lat="37.6483967" lon="14.7545483"><ele>234.0</ele><time>2026-04-26T09:35:28.197Z</time></trkpt><trkpt lat="37.648505" lon="14.7542983"><ele>235.0</ele><time>2026-04-26T09:35:29.196Z</time></trkpt><trkpt lat="37.648615" lon="14.75405"><ele>233.66666666666666</ele><time>2026-04-26T09:35:30.196Z</time></trkpt><trkpt lat="37.6487217" lon="14.7538083"><ele>232.33333333333331</ele><time>2026-04-26T09:35:31.196Z</time></trkpt><trkpt lat="37.64883" lon="14.7535683"><ele>231.0</ele><time>2026-04-26T09:35:32.196Z</time></trkpt><trkpt lat="37.6489383" lon="14.7533267"><ele>231.0</ele><time>2026-04-26T09:35:33.196Z</time></trkpt><trkpt lat="37.6490467" lon="14.7530933"><ele>231.0</ele><time>2026-04-26T09:35:34.196Z</time></trkpt><trkpt lat="37.6491517" lon="14.7528533"><ele>231.0</ele><time>2026-04-26T09:35:35.196Z</time></trkpt><trkpt lat="37.6492567" lon="14.7526133"><ele>230.33333333333331</ele><time>2026-04-26T09:35:36.196Z</time></trkpt><trkpt lat="37.6493567" lon="14.7523667"><ele>229.66666666666666</ele><time>2026-04-26T09:35:37.196Z</time></trkpt><trkpt lat="37.6494717" lon="14.7521183"><ele>229.0</ele><time>2026-04-26T09:35:38.196Z</time></trkpt><trkpt lat="37.649585" lon="14.7518717"><ele>227.5</ele><time>2026-04-26T09:35:39.197Z</time></trkpt><trkpt lat="37.6496967" lon="14.751625"><ele>226.0</ele><time>2026-04-26T09:35:40.196Z</time></trkpt><trkpt lat="37.6498083" lon="14.7513733"><ele>226.0</ele><time>2026-04-26T09:35:41.196Z</time></trkpt><trkpt lat="37.64992" lon="14.7511267"><ele>226.0</ele><time>2026-04-26T09:35:42.196Z</time></trkpt><trkpt lat="37.65003" lon="14.7508817"><ele>226.0</ele><time>2026-04-26T09:35:43.196Z</time></trkpt><trkpt lat="37.6501367" lon="14.7506317"><ele>225.5</ele><time>2026-04-26T09:35:44.196Z</time></trkpt><trkpt lat="37.6502433" lon="14.7503833"><ele>225.0</ele><time>2026-04-26T09:35:45.196Z</time></trkpt><trkpt lat="37.6503533" lon="14.7501317"><ele>223.5</ele><time>2026-04-26T09:35:46.197Z</time></trkpt><trkpt lat="37.6504667" lon="14.7498783"><ele>222.0</ele><time>2026-04-26T09:35:47.196Z</time></trkpt><trkpt lat="37.6505767" lon="14.749625"><ele>223.0</ele><time>2026-04-26T09:35:48.196Z</time></trkpt><trkpt lat="37.6506733" lon="14.7493667"><ele>224.0</ele><time>2026-04-26T09:35:49.196Z</time></trkpt><trkpt lat="37.6507517" lon="14.74911"><ele>225.0</ele><time>2026-04-26T09:35:50.196Z</time></trkpt><trkpt lat="37.6508267" lon="14.748855"><ele>225.0</ele><time>2026-04-26T09:35:51.196Z</time></trkpt><trkpt lat="37.650905" lon="14.748605"><ele>225.0</ele><time>2026-04-26T09:35:52.196Z</time></trkpt><trkpt lat="37.6509883" lon="14.74836"><ele>225.0</ele><time>2026-04-26T09:35:53.196Z</time></trkpt><trkpt lat="37.651085" lon="14.7481233"><ele>224.33333333333331</ele><time>2026-04-26T09:35:54.196Z</time></trkpt><trkpt lat="37.6512" lon="14.7479"><ele>223.66666666666666</ele><time>2026-04-26T09:35:55.196Z</time></trkpt><trkpt lat="37.65133" lon="14.7476767"><ele>223.0</ele><time>2026-04-26T09:35:56.196Z</time></trkpt><trkpt lat="37.65146" lon="14.7474483"><ele>223.0</ele><time>2026-04-26T09:35:57.196Z</time></trkpt><trkpt lat="37.6515883" lon="14.74722"><ele>223.0</ele><time>2026-04-26T09:35:58.196Z</time></trkpt><trkpt lat="37.6517083" lon="14.7469883"><ele>223.0</ele><time>2026-04-26T09:35:59.196Z</time></trkpt><trkpt lat="37.6518333" lon="14.74675"><ele>221.0</ele><time>2026-04-26T09:36:00.197Z</time></trkpt><trkpt lat="37.65195" lon="14.7465033"><ele>219.0</ele><time>2026-04-26T09:36:01.196Z</time></trkpt><trkpt lat="37.65206" lon="14.7462517"><ele>221.66666666666669</ele><time>2026-04-26T09:36:02.196Z</time></trkpt><trkpt lat="37.6521683" lon="14.7460017"><ele>224.33333333333334</ele><time>2026-04-26T09:36:03.196Z</time></trkpt><trkpt lat="37.652275" lon="14.745755"><ele>227.0</ele><time>2026-04-26T09:36:04.196Z</time></trkpt><trkpt lat="37.6523833" lon="14.7455117"><ele>227.0</ele><time>2026-04-26T09:36:05.196Z</time></trkpt><trkpt lat="37.6524917" lon="14.7452733"><ele>227.0</ele><time>2026-04-26T09:36:06.196Z</time></trkpt><trkpt lat="37.6525883" lon="14.74506"><ele>227.0</ele><time>2026-04-26T09:36:07.197Z</time></trkpt><trkpt lat="37.6526817" lon="14.7448567"><ele>226.66666666666669</ele><time>2026-04-26T09:36:08.196Z</time></trkpt><trkpt lat="37.6527617" lon="14.7446617"><ele>226.33333333333331</ele><time>2026-04-26T09:36:09.196Z</time></trkpt><trkpt lat="37.65283" lon="14.7444633"><ele>226.0</ele><time>2026-04-26T09:36:10.196Z</time></trkpt><trkpt lat="37.652865" lon="14.7442467"><ele>226.0</ele><time>2026-04-26T09:36:11.196Z</time></trkpt><trkpt lat="37.65288" lon="14.74401"><ele>226.0</ele><time>2026-04-26T09:36:12.197Z</time></trkpt><trkpt lat="37.6528817" lon="14.743765"><ele>226.0</ele><time>2026-04-26T09:36:13.197Z</time></trkpt><trkpt lat="37.6528883" lon="14.7435083"><ele>226.66666666666666</ele><time>2026-04-26T09:36:14.196Z</time></trkpt><trkpt lat="37.6528933" lon="14.74326"><ele>227.33333333333331</ele><time>2026-04-26T09:36:15.196Z</time></trkpt><trkpt lat="37.6528983" lon="14.743025"><ele>228.0</ele><time>2026-04-26T09:36:16.196Z</time></trkpt><trkpt lat="37.6529083" lon="14.7427983"><ele>228.25</ele><time>2026-04-26T09:36:17.196Z</time></trkpt><trkpt lat="37.652915" lon="14.74259"><ele>228.5</ele><time>2026-04-26T09:36:18.197Z</time></trkpt><trkpt lat="37.652915" lon="14.7424083"><ele>228.75</ele><time>2026-04-26T09:36:19.196Z</time></trkpt><trkpt lat="37.6528917" lon="14.7422733"><ele>229.0</ele><time>2026-04-26T09:36:20.196Z</time></trkpt><trkpt lat="37.65285" lon="14.7421583"><ele>228.99999999999997</ele><time>2026-04-26T09:36:21.196Z</time></trkpt><trkpt lat="37.6527983" lon="14.74208"><ele>229.0</ele><time>2026-04-26T09:36:22.196Z</time></trkpt><trkpt lat="37.6527283" lon="14.742065"><ele>229.0</ele><time>2026-04-26T09:36:23.197Z</time></trkpt><trkpt lat="37.65265" lon="14.7421033"><ele>229.0</ele><time>2026-04-26T09:36:24.196Z</time></trkpt><trkpt lat="37.6525767" lon="14.742175"><ele>228.99999999999997</ele><time>2026-04-26T09:36:25.196Z</time></trkpt><trkpt lat="37.6525133" lon="14.7422833"><ele>229.0</ele><time>2026-04-26T09:36:26.197Z</time></trkpt><trkpt lat="37.65245" lon="14.7424283"><ele>231.6</ele><time>2026-04-26T09:36:27.196Z</time></trkpt><trkpt lat="37.6523867" lon="14.7425817"><ele>234.2</ele><time>2026-04-26T09:36:28.196Z</time></trkpt><trkpt lat="37.652325" lon="14.742715"><ele>236.79999999999998</ele><time>2026-04-26T09:36:29.196Z</time></trkpt><trkpt lat="37.6522633" lon="14.7428183"><ele>239.39999999999998</ele><time>2026-04-26T09:36:30.197Z</time></trkpt><trkpt lat="37.6521967" lon="14.7428833"><ele>242.0</ele><time>2026-04-26T09:36:31.196Z</time></trkpt><trkpt lat="37.6521183" lon="14.7429083"><ele>242.0</ele><time>2026-04-26T09:36:32.196Z</time></trkpt><trkpt lat="37.6520467" lon="14.7428933"><ele>242.0</ele><time>2026-04-26T09:36:33.196Z</time></trkpt><trkpt lat="37.6519867" lon="14.7428317"><ele>242.0</ele><time>2026-04-26T09:36:34.196Z</time></trkpt><trkpt lat="37.651935" lon="14.7427283"><ele>242.0</ele><time>2026-04-26T09:36:35.196Z</time></trkpt><trkpt lat="37.6518983" lon="14.7425783"><ele>242.0</ele><time>2026-04-26T09:36:36.196Z</time></trkpt><trkpt lat="37.65189" lon="14.7423817"><ele>248.0</ele><time>2026-04-26T09:36:37.196Z</time></trkpt><trkpt lat="37.65187" lon="14.74219"><ele>254.0</ele><time>2026-04-26T09:36:38.197Z</time></trkpt><trkpt lat="37.65185" lon="14.741985"><ele>260.0</ele><time>2026-04-26T09:36:39.197Z</time></trkpt><trkpt lat="37.651825" lon="14.7417833"><ele>261.0</ele><time>2026-04-26T09:36:40.196Z</time></trkpt><trkpt lat="37.6517967" lon="14.7415783"><ele>262.0</ele><time>2026-04-26T09:36:41.196Z</time></trkpt><trkpt lat="37.6517733" lon="14.741365"><ele>263.0</ele><time>2026-04-26T09:36:42.196Z</time></trkpt><trkpt lat="37.6517417" lon="14.74114"><ele>264.33333333333337</ele><time>2026-04-26T09:36:43.197Z</time></trkpt><trkpt lat="37.65171" lon="14.7408967"><ele>265.6666666666667</ele><time>2026-04-26T09:36:44.196Z</time></trkpt><trkpt lat="37.65167" lon="14.7406417"><ele>267.0</ele><time>2026-04-26T09:36:45.196Z</time></trkpt><trkpt lat="37.6516283" lon="14.7403867"><ele>265.6666666666667</ele><time>2026-04-26T09:36:46.197Z</time></trkpt><trkpt lat="37.6515883" lon="14.7401367"><ele>264.33333333333337</ele><time>2026-04-26T09:36:47.197Z</time></trkpt><trkpt lat="37.6515433" lon="14.7398867"><ele>263.0</ele><time>2026-04-26T09:36:48.196Z</time></trkpt><trkpt lat="37.651505" lon="14.7396233"><ele>262.6666666666667</ele><time>2026-04-26T09:36:49.196Z</time></trkpt><trkpt lat="37.65147" lon="14.7393617"><ele>262.3333333333333</ele><time>2026-04-26T09:36:50.196Z</time></trkpt><trkpt lat="37.6514433" lon="14.7391033"><ele>262.0</ele><time>2026-04-26T09:36:51.197Z</time></trkpt><trkpt lat="37.65142" lon="14.73885"><ele>262.0</ele><time>2026-04-26T09:36:52.196Z</time></trkpt><trkpt lat="37.651395" lon="14.738605"><ele>262.0</ele><time>2026-04-26T09:36:53.196Z</time></trkpt><trkpt lat="37.651365" lon="14.73837"><ele>262.0</ele><time>2026-04-26T09:36:54.196Z</time></trkpt><trkpt lat="37.65134" lon="14.73813"><ele>262.3333333333333</ele><time>2026-04-26T09:36:55.196Z</time></trkpt><trkpt lat="37.6513067" lon="14.7379033"><ele>262.6666666666667</ele><time>2026-04-26T09:36:56.197Z</time></trkpt><trkpt lat="37.6512767" lon="14.737685"><ele>263.0</ele><time>2026-04-26T09:36:57.197Z</time></trkpt><trkpt lat="37.651245" lon="14.7374817"><ele>263.0</ele><time>2026-04-26T09:36:58.196Z</time></trkpt><trkpt lat="37.6512133" lon="14.7372817"><ele>263.0</ele><time>2026-04-26T09:36:59.197Z</time></trkpt><trkpt lat="37.6511933" lon="14.7370767"><ele>263.0</ele><time>2026-04-26T09:37:00.196Z</time></trkpt><trkpt lat="37.6511883" lon="14.7368683"><ele>263.0</ele><time>2026-04-26T09:37:01.196Z</time></trkpt><trkpt lat="37.6512017" lon="14.736665"><ele>263.0</ele><time>2026-04-26T09:37:02.196Z</time></trkpt><trkpt lat="37.65125" lon="14.73645"><ele>263.0</ele><time>2026-04-26T09:37:03.197Z</time></trkpt><trkpt lat="37.6513033" lon="14.736235"><ele>264.33333333333337</ele><time>2026-04-26T09:37:04.196Z</time></trkpt><trkpt lat="37.6513617" lon="14.7360267"><ele>265.6666666666667</ele><time>2026-04-26T09:37:05.196Z</time></trkpt><trkpt lat="37.65142" lon="14.73583"><ele>267.0</ele><time>2026-04-26T09:37:06.196Z</time></trkpt><trkpt lat="37.6514767" lon="14.7356483"><ele>267.0</ele><time>2026-04-26T09:37:07.196Z</time></trkpt><trkpt lat="37.6515483" lon="14.735475"><ele>267.0</ele><time>2026-04-26T09:37:08.197Z</time></trkpt><trkpt lat="37.6516333" lon="14.7353217"><ele>267.0</ele><time>2026-04-26T09:37:09.196Z</time></trkpt><trkpt lat="37.6517333" lon="14.7351817"><ele>269.0</ele><time>2026-04-26T09:37:10.197Z</time></trkpt><trkpt lat="37.651815" lon="14.7350383"><ele>271.0</ele><time>2026-04-26T09:37:11.196Z</time></trkpt><trkpt lat="37.6518683" lon="14.73488"><ele>273.0</ele><time>2026-04-26T09:37:12.196Z</time></trkpt><trkpt lat="37.6518817" lon="14.7347283"><ele>275.0</ele><time>2026-04-26T09:37:13.197Z</time></trkpt><trkpt lat="37.65185" lon="14.7345667"><ele>275.0</ele><time>2026-04-26T09:37:14.196Z</time></trkpt><trkpt lat="37.6518133" lon="14.73442"><ele>275.0</ele><time>2026-04-26T09:37:15.197Z</time></trkpt><trkpt lat="37.6518183" lon="14.73428"><ele>275.0</ele><time>2026-04-26T09:37:16.196Z</time></trkpt><trkpt lat="37.6518583" lon="14.7341367"><ele>275.0</ele><time>2026-04-26T09:37:17.197Z</time></trkpt><trkpt lat="37.651915" lon="14.73398"><ele>275.0</ele><time>2026-04-26T09:37:18.197Z</time></trkpt><trkpt lat="37.651945" lon="14.7338083"><ele>275.0</ele><time>2026-04-26T09:37:19.197Z</time></trkpt><trkpt lat="37.651935" lon="14.7336233"><ele>275.0</ele><time>2026-04-26T09:37:20.196Z</time></trkpt><trkpt lat="37.6519067" lon="14.7334433"><ele>275.0</ele><time>2026-04-26T09:37:21.196Z</time></trkpt><trkpt lat="37.6518767" lon="14.7332767"><ele>275.5</ele><time>2026-04-26T09:37:22.196Z</time></trkpt><trkpt lat="37.651855" lon="14.7331283"><ele>276.0</ele><time>2026-04-26T09:37:23.196Z</time></trkpt><trkpt lat="37.65187" lon="14.732985"><ele>276.5</ele><time>2026-04-26T09:37:24.196Z</time></trkpt><trkpt lat="37.6519367" lon="14.7328567"><ele>277.0</ele><time>2026-04-26T09:37:25.196Z</time></trkpt><trkpt lat="37.6520417" lon="14.7327517"><ele>275.0</ele><time>2026-04-26T09:37:26.196Z</time></trkpt><trkpt lat="37.6521667" lon="14.732655"><ele>273.0</ele><time>2026-04-26T09:37:27.196Z</time></trkpt><trkpt lat="37.6523017" lon="14.732545"><ele>271.0</ele><time>2026-04-26T09:37:28.197Z</time></trkpt><trkpt lat="37.652455" lon="14.732465"><ele>271.0</ele><time>2026-04-26T09:37:29.196Z</time></trkpt><trkpt lat="37.6526133" lon="14.7324133"><ele>271.0</ele><time>2026-04-26T09:37:30.196Z</time></trkpt><trkpt lat="37.65276" lon="14.732365"><ele>271.0</ele><time>2026-04-26T09:37:31.196Z</time></trkpt><trkpt lat="37.652895" lon="14.7322817"><ele>269.3333333333333</ele><time>2026-04-26T09:37:32.196Z</time></trkpt><trkpt lat="37.653" lon="14.7321517"><ele>267.6666666666667</ele><time>2026-04-26T09:37:33.196Z</time></trkpt><trkpt lat="37.6530817" lon="14.7319867"><ele>266.0</ele><time>2026-04-26T09:37:34.196Z</time></trkpt><trkpt lat="37.6531433" lon="14.7317883"><ele>266.0</ele><time>2026-04-26T09:37:35.196Z</time></trkpt><trkpt lat="37.653165" lon="14.7315633"><ele>266.0</ele><time>2026-04-26T09:37:36.196Z</time></trkpt><trkpt lat="37.6531817" lon="14.7313217"><ele>266.0</ele><time>2026-04-26T09:37:37.196Z</time></trkpt><trkpt lat="37.6532067" lon="14.7310683"><ele>267.33333333333337</ele><time>2026-04-26T09:37:38.196Z</time></trkpt><trkpt lat="37.6532367" lon="14.73081"><ele>268.6666666666667</ele><time>2026-04-26T09:37:39.196Z</time></trkpt><trkpt lat="37.653265" lon="14.730555"><ele>270.0</ele><time>2026-04-26T09:37:40.196Z</time></trkpt><trkpt lat="37.6532933" lon="14.7303083"><ele>271.0</ele><time>2026-04-26T09:37:41.196Z</time></trkpt><trkpt lat="37.653325" lon="14.7300683"><ele>272.0</ele><time>2026-04-26T09:37:42.196Z</time></trkpt><trkpt lat="37.6533533" lon="14.7298483"><ele>273.0</ele><time>2026-04-26T09:37:43.196Z</time></trkpt><trkpt lat="37.653375" lon="14.7296433"><ele>273.0</ele><time>2026-04-26T09:37:44.196Z</time></trkpt><trkpt lat="37.6533883" lon="14.72945"><ele>273.0</ele><time>2026-04-26T09:37:45.196Z</time></trkpt><trkpt lat="37.6534067" lon="14.7292783"><ele>273.0</ele><time>2026-04-26T09:37:46.196Z</time></trkpt><trkpt lat="37.6534283" lon="14.7291167"><ele>273.0</ele><time>2026-04-26T09:37:47.196Z</time></trkpt><trkpt lat="37.65346" lon="14.7289733"><ele>272.75</ele><time>2026-04-26T09:37:48.196Z</time></trkpt><trkpt lat="37.6535267" lon="14.728855"><ele>272.5</ele><time>2026-04-26T09:37:49.196Z</time></trkpt><trkpt lat="37.6536267" lon="14.7287733"><ele>272.25</ele><time>2026-04-26T09:37:50.197Z</time></trkpt><trkpt lat="37.6537617" lon="14.7287217"><ele>272.0</ele><time>2026-04-26T09:37:51.196Z</time></trkpt><trkpt lat="37.653905" lon="14.7286717"><ele>271.33333333333337</ele><time>2026-04-26T09:37:52.196Z</time></trkpt><trkpt lat="37.65405" lon="14.7285917"><ele>270.6666666666667</ele><time>2026-04-26T09:37:53.197Z</time></trkpt><trkpt lat="37.65419" lon="14.7284817"><ele>270.0</ele><time>2026-04-26T09:37:54.196Z</time></trkpt><trkpt lat="37.6543283" lon="14.7283467"><ele>270.0</ele><time>2026-04-26T09:37:55.197Z</time></trkpt><trkpt lat="37.6544533" lon="14.7282083"><ele>270.0</ele><time>2026-04-26T09:37:56.196Z</time></trkpt><trkpt lat="37.65455" lon="14.728085"><ele>270.0</ele><time>2026-04-26T09:37:57.196Z</time></trkpt><trkpt lat="37.6546283" lon="14.7279667"><ele>270.0</ele><time>2026-04-26T09:37:58.197Z</time></trkpt><trkpt lat="37.65468" lon="14.72783"><ele>273.25</ele><time>2026-04-26T09:37:59.196Z</time></trkpt><trkpt lat="37.654705" lon="14.7276783"><ele>276.5</ele><time>2026-04-26T09:38:00.197Z</time></trkpt><trkpt lat="37.654685" lon="14.727515"><ele>279.75</ele><time>2026-04-26T09:38:01.196Z</time></trkpt><trkpt lat="37.6546417" lon="14.727345"><ele>283.0</ele><time>2026-04-26T09:38:02.196Z</time></trkpt><trkpt lat="37.6545717" lon="14.72717"><ele>283.0</ele><time>2026-04-26T09:38:03.196Z</time></trkpt><trkpt lat="37.6544867" lon="14.7269967"><ele>283.0</ele><time>2026-04-26T09:38:04.196Z</time></trkpt><trkpt lat="37.654385" lon="14.7268533"><ele>283.0</ele><time>2026-04-26T09:38:05.196Z</time></trkpt><trkpt lat="37.65427" lon="14.7267183"><ele>283.0</ele><time>2026-04-26T09:38:06.196Z</time></trkpt><trkpt lat="37.6541783" lon="14.7265683"><ele>283.0</ele><time>2026-04-26T09:38:07.196Z</time></trkpt><trkpt lat="37.6541167" lon="14.726405"><ele>283.0</ele><time>2026-04-26T09:38:08.196Z</time></trkpt><trkpt lat="37.654065" lon="14.7262233"><ele>283.0</ele><time>2026-04-26T09:38:09.196Z</time></trkpt><trkpt lat="37.6540367" lon="14.7260333"><ele>282.3333333333333</ele><time>2026-04-26T09:38:10.196Z</time></trkpt><trkpt lat="37.6540267" lon="14.72584"><ele>281.6666666666667</ele><time>2026-04-26T09:38:11.196Z</time></trkpt><trkpt lat="37.6540333" lon="14.7256283"><ele>281.0</ele><time>2026-04-26T09:38:12.196Z</time></trkpt><trkpt lat="37.65406" lon="14.725405"><ele>281.6666666666667</ele><time>2026-04-26T09:38:13.196Z</time></trkpt><trkpt lat="37.6540933" lon="14.725175"><ele>282.3333333333333</ele><time>2026-04-26T09:38:14.196Z</time></trkpt><trkpt lat="37.6541267" lon="14.724945"><ele>283.0</ele><time>2026-04-26T09:38:15.196Z</time></trkpt><trkpt lat="37.65416" lon="14.7247167"><ele>283.0</ele><time>2026-04-26T09:38:16.197Z</time></trkpt><trkpt lat="37.6542017" lon="14.7244883"><ele>283.0</ele><time>2026-04-26T09:38:17.196Z</time></trkpt><trkpt lat="37.6542667" lon="14.7242733"><ele>283.0</ele><time>2026-04-26T09:38:18.197Z</time></trkpt><trkpt lat="37.6543583" lon="14.7240633"><ele>284.3333333333333</ele><time>2026-04-26T09:38:19.197Z</time></trkpt><trkpt lat="37.6544767" lon="14.7238567"><ele>285.6666666666667</ele><time>2026-04-26T09:38:20.196Z</time></trkpt><trkpt lat="37.6546033" lon="14.723655"><ele>287.0</ele><time>2026-04-26T09:38:21.196Z</time></trkpt><trkpt lat="37.6547283" lon="14.7234667"><ele>289.0</ele><time>2026-04-26T09:38:22.196Z</time></trkpt><trkpt lat="37.6548583" lon="14.7232867"><ele>291.0</ele><time>2026-04-26T09:38:23.197Z</time></trkpt><trkpt lat="37.6549917" lon="14.72313"><ele>293.0</ele><time>2026-04-26T09:38:24.197Z</time></trkpt><trkpt lat="37.6551167" lon="14.722985"><ele>293.0</ele><time>2026-04-26T09:38:25.197Z</time></trkpt><trkpt lat="37.6552333" lon="14.72283"><ele>293.0</ele><time>2026-04-26T09:38:26.196Z</time></trkpt><trkpt lat="37.655345" lon="14.722655"><ele>293.0</ele><time>2026-04-26T09:38:27.197Z</time></trkpt><trkpt lat="37.655465" lon="14.722465"><ele>291.0</ele><time>2026-04-26T09:38:28.197Z</time></trkpt><trkpt lat="37.655585" lon="14.722285"><ele>289.0</ele><time>2026-04-26T09:38:29.196Z</time></trkpt><trkpt lat="37.6556883" lon="14.7221167"><ele>287.0</ele><time>2026-04-26T09:38:30.196Z</time></trkpt><trkpt lat="37.65578" lon="14.7219617"><ele>287.5</ele><time>2026-04-26T09:38:31.196Z</time></trkpt><trkpt lat="37.65586" lon="14.721805"><ele>288.0</ele><time>2026-04-26T09:38:32.196Z</time></trkpt><trkpt lat="37.655915" lon="14.721635"><ele>288.5</ele><time>2026-04-26T09:38:33.196Z</time></trkpt><trkpt lat="37.65594" lon="14.72144"><ele>289.0</ele><time>2026-04-26T09:38:34.196Z</time></trkpt><trkpt lat="37.65594" lon="14.7212333"><ele>288.3333333333333</ele><time>2026-04-26T09:38:35.196Z</time></trkpt><trkpt lat="37.6559317" lon="14.72103"><ele>287.6666666666667</ele><time>2026-04-26T09:38:36.196Z</time></trkpt><trkpt lat="37.655915" lon="14.7208467"><ele>287.0</ele><time>2026-04-26T09:38:37.196Z</time></trkpt><trkpt lat="37.6558767" lon="14.720655"><ele>287.0</ele><time>2026-04-26T09:38:38.197Z</time></trkpt><trkpt lat="37.6558167" lon="14.7204633"><ele>287.0</ele><time>2026-04-26T09:38:39.196Z</time></trkpt><trkpt lat="37.6557417" lon="14.7202633"><ele>287.0</ele><time>2026-04-26T09:38:40.196Z</time></trkpt><trkpt lat="37.6556567" lon="14.72006"><ele>284.33333333333337</ele><time>2026-04-26T09:38:41.197Z</time></trkpt><trkpt lat="37.65558" lon="14.7198733"><ele>281.6666666666667</ele><time>2026-04-26T09:38:42.196Z</time></trkpt><trkpt lat="37.655505" lon="14.7197"><ele>279.0</ele><time>2026-04-26T09:38:43.196Z</time></trkpt><trkpt lat="37.65543" lon="14.7195283"><ele>279.25</ele><time>2026-04-26T09:38:44.196Z</time></trkpt><trkpt lat="37.65536" lon="14.7193633"><ele>279.5</ele><time>2026-04-26T09:38:45.196Z</time></trkpt><trkpt lat="37.6552983" lon="14.719215"><ele>279.75</ele><time>2026-04-26T09:38:46.196Z</time></trkpt><trkpt lat="37.65524" lon="14.7190767"><ele>280.0</ele><time>2026-04-26T09:38:47.196Z</time></trkpt><trkpt lat="37.6551867" lon="14.7189533"><ele>280.0</ele><time>2026-04-26T09:38:48.196Z</time></trkpt><trkpt lat="37.655145" lon="14.7188583"><ele>280.0</ele><time>2026-04-26T09:38:49.196Z</time></trkpt><trkpt lat="37.655105" lon="14.71879"><ele>280.0</ele><time>2026-04-26T09:38:50.196Z</time></trkpt><trkpt lat="37.6550733" lon="14.7186967"><ele>280.0</ele><time>2026-04-26T09:43:09.196Z</time></trkpt><trkpt lat="37.6550133" lon="14.7185717"><ele>280.0</ele><time>2026-04-26T09:43:11.195Z</time></trkpt><trkpt lat="37.65497" lon="14.7184683"><ele>280.0</ele><time>2026-04-26T09:43:12.195Z</time></trkpt><trkpt lat="37.6549267" lon="14.7183583"><ele>279.0</ele><time>2026-04-26T09:43:13.195Z</time></trkpt><trkpt lat="37.654875" lon="14.7182417"><ele>278.0</ele><time>2026-04-26T09:43:14.195Z</time></trkpt><trkpt lat="37.6548217" lon="14.71811"><ele>277.0</ele><time>2026-04-26T09:43:15.196Z</time></trkpt><trkpt lat="37.65476" lon="14.7179733"><ele>276.0</ele><time>2026-04-26T09:43:16.195Z</time></trkpt><trkpt lat="37.654695" lon="14.7178267"><ele>275.0</ele><time>2026-04-26T09:43:17.195Z</time></trkpt><trkpt lat="37.6546233" lon="14.7176683"><ele>274.0</ele><time>2026-04-26T09:43:18.196Z</time></trkpt><trkpt lat="37.65456" lon="14.71752"><ele>273.0</ele><time>2026-04-26T09:43:19.195Z</time></trkpt><trkpt lat="37.65451" lon="14.717375"><ele>272.0</ele><time>2026-04-26T09:43:20.195Z</time></trkpt><trkpt lat="37.6544683" lon="14.71722"><ele>272.0</ele><time>2026-04-26T09:43:21.195Z</time></trkpt><trkpt lat="37.65445" lon="14.717075"><ele>272.0</ele><time>2026-04-26T09:43:22.195Z</time></trkpt><trkpt lat="37.6544617" lon="14.7169333"><ele>272.0</ele><time>2026-04-26T09:43:23.195Z</time></trkpt><trkpt lat="37.6544983" lon="14.716785"><ele>272.0</ele><time>2026-04-26T09:43:24.195Z</time></trkpt><trkpt lat="37.6545767" lon="14.7166483"><ele>272.6666666666667</ele><time>2026-04-26T09:43:25.196Z</time></trkpt><trkpt lat="37.6546783" lon="14.7165233"><ele>273.3333333333333</ele><time>2026-04-26T09:43:26.195Z</time></trkpt><trkpt lat="37.6547933" lon="14.71638"><ele>274.0</ele><time>2026-04-26T09:43:27.195Z</time></trkpt><trkpt lat="37.6548983" lon="14.7162233"><ele>275.0</ele><time>2026-04-26T09:43:28.195Z</time></trkpt><trkpt lat="37.6549883" lon="14.7160517"><ele>276.0</ele><time>2026-04-26T09:43:29.195Z</time></trkpt><trkpt lat="37.65508" lon="14.7158633"><ele>277.0</ele><time>2026-04-26T09:43:30.195Z</time></trkpt><trkpt lat="37.65518" lon="14.7156667"><ele>277.0</ele><time>2026-04-26T09:43:31.195Z</time></trkpt><trkpt lat="37.6552867" lon="14.7154617"><ele>277.0</ele><time>2026-04-26T09:43:32.195Z</time></trkpt><trkpt lat="37.6553933" lon="14.7152617"><ele>277.0</ele><time>2026-04-26T09:43:33.195Z</time></trkpt><trkpt lat="37.655495" lon="14.7150617"><ele>278.66666666666663</ele><time>2026-04-26T09:43:34.195Z</time></trkpt><trkpt lat="37.65559" lon="14.7148567"><ele>280.3333333333333</ele><time>2026-04-26T09:43:35.195Z</time></trkpt><trkpt lat="37.6556733" lon="14.7146433"><ele>282.0</ele><time>2026-04-26T09:43:36.195Z</time></trkpt><trkpt lat="37.6557567" lon="14.7144233"><ele>282.6666666666667</ele><time>2026-04-26T09:43:37.195Z</time></trkpt><trkpt lat="37.6558333" lon="14.714195"><ele>283.33333333333337</ele><time>2026-04-26T09:43:38.195Z</time></trkpt><trkpt lat="37.6559017" lon="14.7139583"><ele>284.0</ele><time>2026-04-26T09:43:39.195Z</time></trkpt><trkpt lat="37.65597" lon="14.7137117"><ele>284.6666666666667</ele><time>2026-04-26T09:43:40.195Z</time></trkpt><trkpt lat="37.6560317" lon="14.7134583"><ele>285.3333333333333</ele><time>2026-04-26T09:43:41.195Z</time></trkpt><trkpt lat="37.65609" lon="14.713205"><ele>286.0</ele><time>2026-04-26T09:43:42.195Z</time></trkpt><trkpt lat="37.65615" lon="14.7129533"><ele>286.0</ele><time>2026-04-26T09:43:43.195Z</time></trkpt><trkpt lat="37.6562117" lon="14.7127067"><ele>286.0</ele><time>2026-04-26T09:43:44.195Z</time></trkpt><trkpt lat="37.6562683" lon="14.712465"><ele>286.0</ele><time>2026-04-26T09:43:45.195Z</time></trkpt><trkpt lat="37.65632" lon="14.7122267"><ele>286.0</ele><time>2026-04-26T09:43:46.195Z</time></trkpt><trkpt lat="37.6563767" lon="14.7119883"><ele>286.0</ele><time>2026-04-26T09:43:47.195Z</time></trkpt><trkpt lat="37.6564383" lon="14.7117567"><ele>286.0</ele><time>2026-04-26T09:43:48.195Z</time></trkpt><trkpt lat="37.6565" lon="14.7115267"><ele>286.0</ele><time>2026-04-26T09:43:49.195Z</time></trkpt><trkpt lat="37.6565583" lon="14.7112967"><ele>286.0</ele><time>2026-04-26T09:43:50.195Z</time></trkpt><trkpt lat="37.6566167" lon="14.71107"><ele>286.0</ele><time>2026-04-26T09:43:51.196Z</time></trkpt><trkpt lat="37.6566717" lon="14.7108417"><ele>287.0</ele><time>2026-04-26T09:43:52.195Z</time></trkpt><trkpt lat="37.6567233" lon="14.7106133"><ele>288.0</ele><time>2026-04-26T09:43:53.195Z</time></trkpt><trkpt lat="37.65678" lon="14.7103833"><ele>289.0</ele><time>2026-04-26T09:43:54.195Z</time></trkpt><trkpt lat="37.65684" lon="14.71015"><ele>289.3333333333333</ele><time>2026-04-26T09:43:55.195Z</time></trkpt><trkpt lat="37.6568983" lon="14.7099183"><ele>289.6666666666667</ele><time>2026-04-26T09:43:56.196Z</time></trkpt><trkpt lat="37.656955" lon="14.70969"><ele>290.0</ele><time>2026-04-26T09:43:57.195Z</time></trkpt><trkpt lat="37.6570133" lon="14.7094567"><ele>291.0</ele><time>2026-04-26T09:43:58.195Z</time></trkpt><trkpt lat="37.6570733" lon="14.7092283"><ele>292.0</ele><time>2026-04-26T09:43:59.195Z</time></trkpt><trkpt lat="37.6571283" lon="14.709"><ele>293.0</ele><time>2026-04-26T09:44:00.196Z</time></trkpt><trkpt lat="37.657185" lon="14.7087783"><ele>293.0</ele><time>2026-04-26T09:44:01.195Z</time></trkpt><trkpt lat="37.6572383" lon="14.7085533"><ele>293.0</ele><time>2026-04-26T09:44:02.196Z</time></trkpt><trkpt lat="37.6572933" lon="14.70833"><ele>293.0</ele><time>2026-04-26T09:44:03.195Z</time></trkpt><trkpt lat="37.657355" lon="14.7081067"><ele>293.0</ele><time>2026-04-26T09:44:04.195Z</time></trkpt><trkpt lat="37.6574117" lon="14.70788"><ele>293.0</ele><time>2026-04-26T09:44:05.195Z</time></trkpt><trkpt lat="37.6574667" lon="14.7076533"><ele>293.0</ele><time>2026-04-26T09:44:06.195Z</time></trkpt><trkpt lat="37.657525" lon="14.70742"><ele>294.0</ele><time>2026-04-26T09:44:07.195Z</time></trkpt><trkpt lat="37.6575833" lon="14.7071833"><ele>295.0</ele><time>2026-04-26T09:44:08.195Z</time></trkpt><trkpt lat="37.6576467" lon="14.7069483"><ele>296.0</ele><time>2026-04-26T09:44:09.195Z</time></trkpt><trkpt lat="37.657705" lon="14.7067083"><ele>296.0</ele><time>2026-04-26T09:44:10.195Z</time></trkpt><trkpt lat="37.65776" lon="14.7064683"><ele>296.0</ele><time>2026-04-26T09:44:11.195Z</time></trkpt><trkpt lat="37.657825" lon="14.7062233"><ele>296.0</ele><time>2026-04-26T09:44:12.196Z</time></trkpt><trkpt lat="37.6578817" lon="14.705985"><ele>296.6666666666667</ele><time>2026-04-26T09:44:13.195Z</time></trkpt><trkpt lat="37.6579333" lon="14.7057417"><ele>297.3333333333333</ele><time>2026-04-26T09:44:14.195Z</time></trkpt><trkpt lat="37.6579933" lon="14.7055033"><ele>298.0</ele><time>2026-04-26T09:44:15.195Z</time></trkpt><trkpt lat="37.65805" lon="14.7052733"><ele>298.3333333333333</ele><time>2026-04-26T09:44:16.195Z</time></trkpt><trkpt lat="37.658105" lon="14.7050517"><ele>298.6666666666667</ele><time>2026-04-26T09:44:17.195Z</time></trkpt><trkpt lat="37.6581583" lon="14.7048417"><ele>299.0</ele><time>2026-04-26T09:44:18.195Z</time></trkpt><trkpt lat="37.6581983" lon="14.7046483"><ele>299.0</ele><time>2026-04-26T09:44:19.195Z</time></trkpt><trkpt lat="37.6582433" lon="14.70446"><ele>299.0</ele><time>2026-04-26T09:44:20.195Z</time></trkpt><trkpt lat="37.6582967" lon="14.7042817"><ele>299.0</ele><time>2026-04-26T09:44:21.195Z</time></trkpt><trkpt lat="37.6583683" lon="14.704115"><ele>298.6666666666667</ele><time>2026-04-26T09:44:22.195Z</time></trkpt><trkpt lat="37.65847" lon="14.7039667"><ele>298.3333333333333</ele><time>2026-04-26T09:44:23.195Z</time></trkpt><trkpt lat="37.658585" lon="14.7038317"><ele>298.0</ele><time>2026-04-26T09:44:24.195Z</time></trkpt><trkpt lat="37.6587183" lon="14.7037"><ele>300.66666666666663</ele><time>2026-04-26T09:44:25.196Z</time></trkpt><trkpt lat="37.6588567" lon="14.7035567"><ele>303.3333333333333</ele><time>2026-04-26T09:44:26.195Z</time></trkpt><trkpt lat="37.6589933" lon="14.7034083"><ele>306.0</ele><time>2026-04-26T09:44:27.195Z</time></trkpt><trkpt lat="37.6591367" lon="14.7032517"><ele>306.0</ele><time>2026-04-26T09:44:28.196Z</time></trkpt><trkpt lat="37.65928" lon="14.7031017"><ele>306.0</ele><time>2026-04-26T09:44:29.195Z</time></trkpt><trkpt lat="37.6594417" lon="14.7029767"><ele>306.0</ele><time>2026-04-26T09:44:30.196Z</time></trkpt><trkpt lat="37.6596083" lon="14.7028683"><ele>305.0</ele><time>2026-04-26T09:44:31.195Z</time></trkpt><trkpt lat="37.6597717" lon="14.7027767"><ele>304.0</ele><time>2026-04-26T09:44:32.196Z</time></trkpt><trkpt lat="37.65992" lon="14.702685"><ele>303.0</ele><time>2026-04-26T09:44:33.196Z</time></trkpt><trkpt lat="37.6600483" lon="14.7025783"><ele>305.5</ele><time>2026-04-26T09:44:34.196Z</time></trkpt><trkpt lat="37.6601467" lon="14.702455"><ele>308.0</ele><time>2026-04-26T09:44:35.195Z</time></trkpt><trkpt lat="37.6602183" lon="14.70231"><ele>310.5</ele><time>2026-04-26T09:44:36.195Z</time></trkpt><trkpt lat="37.6602567" lon="14.7021483"><ele>313.0</ele><time>2026-04-26T09:44:37.195Z</time></trkpt><trkpt lat="37.6602633" lon="14.7019583"><ele>314.66666666666663</ele><time>2026-04-26T09:44:38.195Z</time></trkpt><trkpt lat="37.660245" lon="14.7017633"><ele>316.3333333333333</ele><time>2026-04-26T09:44:39.195Z</time></trkpt><trkpt lat="37.6602217" lon="14.7015583"><ele>318.0</ele><time>2026-04-26T09:44:40.195Z</time></trkpt><trkpt lat="37.6602017" lon="14.70134"><ele>318.0</ele><time>2026-04-26T09:44:41.195Z</time></trkpt><trkpt lat="37.66017" lon="14.7011167"><ele>318.0</ele><time>2026-04-26T09:44:42.195Z</time></trkpt><trkpt lat="37.66014" lon="14.700885"><ele>318.0</ele><time>2026-04-26T09:44:43.195Z</time></trkpt><trkpt lat="37.660115" lon="14.7006467"><ele>319.6666666666667</ele><time>2026-04-26T09:44:44.195Z</time></trkpt><trkpt lat="37.660085" lon="14.7004117"><ele>321.33333333333337</ele><time>2026-04-26T09:44:45.195Z</time></trkpt><trkpt lat="37.6600567" lon="14.7001717"><ele>323.0</ele><time>2026-04-26T09:44:46.195Z</time></trkpt><trkpt lat="37.6600267" lon="14.69994"><ele>323.0</ele><time>2026-04-26T09:44:47.195Z</time></trkpt><trkpt lat="37.6600017" lon="14.6997217"><ele>323.0</ele><time>2026-04-26T09:44:48.195Z</time></trkpt><trkpt lat="37.6599733" lon="14.6995333"><ele>323.0</ele><time>2026-04-26T09:44:49.195Z</time></trkpt><trkpt lat="37.6599417" lon="14.6993767"><ele>322.79999999999995</ele><time>2026-04-26T09:44:50.195Z</time></trkpt><trkpt lat="37.6598983" lon="14.69924"><ele>322.6</ele><time>2026-04-26T09:44:51.195Z</time></trkpt><trkpt lat="37.6598317" lon="14.6991383"><ele>322.4</ele><time>2026-04-26T09:44:52.195Z</time></trkpt><trkpt lat="37.6597583" lon="14.69904"><ele>322.20000000000005</ele><time>2026-04-26T09:44:53.195Z</time></trkpt><trkpt lat="37.6597083" lon="14.6989267"><ele>322.0</ele><time>2026-04-26T09:44:54.196Z</time></trkpt><trkpt lat="37.6597017" lon="14.6988133"><ele>322.0</ele><time>2026-04-26T09:44:55.196Z</time></trkpt><trkpt lat="37.6597317" lon="14.6987083"><ele>322.0</ele><time>2026-04-26T09:44:56.195Z</time></trkpt><trkpt lat="37.65979" lon="14.6985917"><ele>322.0</ele><time>2026-04-26T09:44:57.196Z</time></trkpt><trkpt lat="37.6598567" lon="14.698455"><ele>322.0</ele><time>2026-04-26T09:44:58.195Z</time></trkpt><trkpt lat="37.6599" lon="14.6982867"><ele>324.3333333333333</ele><time>2026-04-26T09:44:59.195Z</time></trkpt><trkpt lat="37.659925" lon="14.6981"><ele>326.6666666666667</ele><time>2026-04-26T09:45:00.195Z</time></trkpt><trkpt lat="37.6599517" lon="14.6978983"><ele>329.0</ele><time>2026-04-26T09:45:01.195Z</time></trkpt><trkpt lat="37.6599733" lon="14.697695"><ele>330.0</ele><time>2026-04-26T09:45:02.195Z</time></trkpt><trkpt lat="37.6599817" lon="14.6974867"><ele>331.0</ele><time>2026-04-26T09:45:03.195Z</time></trkpt><trkpt lat="37.6600067" lon="14.697295"><ele>332.0</ele><time>2026-04-26T09:45:04.195Z</time></trkpt><trkpt lat="37.6600367" lon="14.6971083"><ele>332.0</ele><time>2026-04-26T09:45:05.195Z</time></trkpt><trkpt lat="37.6600983" lon="14.6969317"><ele>332.0</ele><time>2026-04-26T09:45:06.195Z</time></trkpt><trkpt lat="37.6601967" lon="14.6967817"><ele>332.0</ele><time>2026-04-26T09:45:07.195Z</time></trkpt><trkpt lat="37.66033" lon="14.6966383"><ele>332.33333333333337</ele><time>2026-04-26T09:45:08.195Z</time></trkpt><trkpt lat="37.660455" lon="14.69649"><ele>332.6666666666667</ele><time>2026-04-26T09:45:09.195Z</time></trkpt><trkpt lat="37.6605783" lon="14.6963383"><ele>333.0</ele><time>2026-04-26T09:45:10.195Z</time></trkpt><trkpt lat="37.660695" lon="14.6961767"><ele>336.3333333333333</ele><time>2026-04-26T09:45:11.196Z</time></trkpt><trkpt lat="37.660805" lon="14.6959983"><ele>339.66666666666663</ele><time>2026-04-26T09:45:12.196Z</time></trkpt><trkpt lat="37.6609" lon="14.6957917"><ele>343.0</ele><time>2026-04-26T09:45:13.195Z</time></trkpt><trkpt lat="37.6609817" lon="14.695565"><ele>343.0</ele><time>2026-04-26T09:45:14.196Z</time></trkpt><trkpt lat="37.6610533" lon="14.6953283"><ele>343.0</ele><time>2026-04-26T09:45:15.195Z</time></trkpt><trkpt lat="37.6611167" lon="14.695095"><ele>343.0</ele><time>2026-04-26T09:45:16.195Z</time></trkpt><trkpt lat="37.6611883" lon="14.6948817"><ele>341.66666666666663</ele><time>2026-04-26T09:45:17.195Z</time></trkpt><trkpt lat="37.661285" lon="14.6946983"><ele>340.3333333333333</ele><time>2026-04-26T09:45:18.195Z</time></trkpt><trkpt lat="37.6613917" lon="14.6945517"><ele>339.0</ele><time>2026-04-26T09:45:19.195Z</time></trkpt><trkpt lat="37.661495" lon="14.694425"><ele>342.0</ele><time>2026-04-26T09:45:20.195Z</time></trkpt><trkpt lat="37.6615683" lon="14.69428"><ele>345.0</ele><time>2026-04-26T09:45:21.195Z</time></trkpt><trkpt lat="37.6616233" lon="14.6941133"><ele>348.0</ele><time>2026-04-26T09:45:22.195Z</time></trkpt><trkpt lat="37.6616517" lon="14.6939417"><ele>351.0</ele><time>2026-04-26T09:45:23.195Z</time></trkpt><trkpt lat="37.66164" lon="14.6937717"><ele>351.0</ele><time>2026-04-26T09:45:24.196Z</time></trkpt><trkpt lat="37.6615917" lon="14.693595"><ele>351.0</ele><time>2026-04-26T09:45:25.195Z</time></trkpt><trkpt lat="37.6615167" lon="14.693425"><ele>351.0</ele><time>2026-04-26T09:45:26.195Z</time></trkpt><trkpt lat="37.6614317" lon="14.6932517"><ele>352.3333333333333</ele><time>2026-04-26T09:45:27.196Z</time></trkpt><trkpt lat="37.6613467" lon="14.6930633"><ele>353.66666666666663</ele><time>2026-04-26T09:45:28.195Z</time></trkpt><trkpt lat="37.6612667" lon="14.69287"><ele>355.0</ele><time>2026-04-26T09:45:29.195Z</time></trkpt><trkpt lat="37.6611783" lon="14.69267"><ele>360.0</ele><time>2026-04-26T09:45:30.195Z</time></trkpt><trkpt lat="37.6610867" lon="14.69247"><ele>365.0</ele><time>2026-04-26T09:45:31.195Z</time></trkpt><trkpt lat="37.66099" lon="14.6922733"><ele>370.0</ele><time>2026-04-26T09:45:32.195Z</time></trkpt><trkpt lat="37.660905" lon="14.692085"><ele>370.3333333333333</ele><time>2026-04-26T09:45:33.195Z</time></trkpt><trkpt lat="37.6608333" lon="14.6919067"><ele>370.6666666666667</ele><time>2026-04-26T09:45:34.195Z</time></trkpt><trkpt lat="37.6607833" lon="14.6917083"><ele>371.0</ele><time>2026-04-26T09:45:35.195Z</time></trkpt><trkpt lat="37.6607583" lon="14.6915"><ele>371.0</ele><time>2026-04-26T09:45:36.195Z</time></trkpt><trkpt lat="37.6607533" lon="14.6912817"><ele>371.0</ele><time>2026-04-26T09:45:37.195Z</time></trkpt><trkpt lat="37.6607583" lon="14.691055"><ele>371.0</ele><time>2026-04-26T09:45:38.196Z</time></trkpt><trkpt lat="37.6607717" lon="14.690825"><ele>372.33333333333337</ele><time>2026-04-26T09:45:39.195Z</time></trkpt><trkpt lat="37.6607867" lon="14.6905983"><ele>373.6666666666667</ele><time>2026-04-26T09:45:40.196Z</time></trkpt><trkpt lat="37.6607883" lon="14.69039"><ele>375.0</ele><time>2026-04-26T09:45:41.196Z</time></trkpt><trkpt lat="37.6607883" lon="14.690205"><ele>376.4</ele><time>2026-04-26T09:45:42.195Z</time></trkpt><trkpt lat="37.6607883" lon="14.6900417"><ele>377.8</ele><time>2026-04-26T09:45:43.195Z</time></trkpt><trkpt lat="37.6607983" lon="14.6899067"><ele>379.20000000000005</ele><time>2026-04-26T09:45:44.195Z</time></trkpt><trkpt lat="37.66083" lon="14.6897917"><ele>380.6</ele><time>2026-04-26T09:45:45.195Z</time></trkpt><trkpt lat="37.6609" lon="14.6896967"><ele>382.0</ele><time>2026-04-26T09:45:46.195Z</time></trkpt><trkpt lat="37.6610033" lon="14.6896283"><ele>383.0</ele><time>2026-04-26T09:45:47.195Z</time></trkpt><trkpt lat="37.6611217" lon="14.68955"><ele>384.0</ele><time>2026-04-26T09:45:48.195Z</time></trkpt><trkpt lat="37.661245" lon="14.6894583"><ele>385.0</ele><time>2026-04-26T09:45:49.195Z</time></trkpt><trkpt lat="37.6613683" lon="14.689355"><ele>386.0</ele><time>2026-04-26T09:45:50.195Z</time></trkpt><trkpt lat="37.66148" lon="14.68924"><ele>386.0</ele><time>2026-04-26T09:45:51.195Z</time></trkpt><trkpt lat="37.66158" lon="14.6891017"><ele>386.0</ele><time>2026-04-26T09:45:52.195Z</time></trkpt><trkpt lat="37.6616633" lon="14.688935"><ele>386.0</ele><time>2026-04-26T09:45:53.195Z</time></trkpt><trkpt lat="37.6617317" lon="14.6887417"><ele>390.0</ele><time>2026-04-26T09:45:54.195Z</time></trkpt><trkpt lat="37.6617717" lon="14.6885317"><ele>394.0</ele><time>2026-04-26T09:45:55.196Z</time></trkpt><trkpt lat="37.661815" lon="14.6883067"><ele>398.0</ele><time>2026-04-26T09:45:56.195Z</time></trkpt><trkpt lat="37.66186" lon="14.6880883"><ele>398.0</ele><time>2026-04-26T09:45:57.195Z</time></trkpt><trkpt lat="37.661895" lon="14.68789"><ele>398.0</ele><time>2026-04-26T09:45:58.195Z</time></trkpt><trkpt lat="37.6619267" lon="14.6877167"><ele>398.0</ele><time>2026-04-26T09:45:59.195Z</time></trkpt><trkpt lat="37.6619533" lon="14.6875633"><ele>398.0</ele><time>2026-04-26T09:46:00.195Z</time></trkpt><trkpt lat="37.6620033" lon="14.687425"><ele>396.5</ele><time>2026-04-26T09:46:01.196Z</time></trkpt><trkpt lat="37.6620867" lon="14.687295"><ele>395.0</ele><time>2026-04-26T09:46:02.195Z</time></trkpt><trkpt lat="37.6621917" lon="14.687185"><ele>393.5</ele><time>2026-04-26T09:46:03.196Z</time></trkpt><trkpt lat="37.6623117" lon="14.687095"><ele>392.0</ele><time>2026-04-26T09:46:04.195Z</time></trkpt><trkpt lat="37.6623967" lon="14.6870083"><ele>395.0</ele><time>2026-04-26T09:46:05.196Z</time></trkpt><trkpt lat="37.66246" lon="14.6868833"><ele>398.0</ele><time>2026-04-26T09:46:06.195Z</time></trkpt><trkpt lat="37.662505" lon="14.6867383"><ele>401.0</ele><time>2026-04-26T09:46:07.195Z</time></trkpt><trkpt lat="37.66252" lon="14.6865733"><ele>404.0</ele><time>2026-04-26T09:46:08.196Z</time></trkpt><trkpt lat="37.6625167" lon="14.6863917"><ele>404.0</ele><time>2026-04-26T09:46:09.195Z</time></trkpt><trkpt lat="37.6625017" lon="14.6862033"><ele>404.0</ele><time>2026-04-26T09:46:10.195Z</time></trkpt><trkpt lat="37.6624767" lon="14.6860117"><ele>404.0</ele><time>2026-04-26T09:46:11.195Z</time></trkpt><trkpt lat="37.662445" lon="14.685835"><ele>404.0</ele><time>2026-04-26T09:46:12.195Z</time></trkpt><trkpt lat="37.6624" lon="14.68566"><ele>404.3333333333333</ele><time>2026-04-26T09:46:13.195Z</time></trkpt><trkpt lat="37.6623283" lon="14.6854883"><ele>404.66666666666663</ele><time>2026-04-26T09:46:14.195Z</time></trkpt><trkpt lat="37.6622383" lon="14.6853083"><ele>405.0</ele><time>2026-04-26T09:46:15.196Z</time></trkpt><trkpt lat="37.66213" lon="14.6851267"><ele>404.0</ele><time>2026-04-26T09:46:16.195Z</time></trkpt><trkpt lat="37.6620183" lon="14.684935"><ele>403.0</ele><time>2026-04-26T09:46:17.195Z</time></trkpt><trkpt lat="37.661905" lon="14.6847333"><ele>402.0</ele><time>2026-04-26T09:46:18.196Z</time></trkpt><trkpt lat="37.66179" lon="14.68454"><ele>404.66666666666663</ele><time>2026-04-26T09:46:19.195Z</time></trkpt><trkpt lat="37.6616767" lon="14.684355"><ele>407.3333333333333</ele><time>2026-04-26T09:46:20.195Z</time></trkpt><trkpt lat="37.6615683" lon="14.6841817"><ele>410.0</ele><time>2026-04-26T09:46:21.195Z</time></trkpt><trkpt lat="37.66147" lon="14.6840067"><ele>410.0</ele><time>2026-04-26T09:46:22.195Z</time></trkpt><trkpt lat="37.661385" lon="14.6838133"><ele>410.0</ele><time>2026-04-26T09:46:23.196Z</time></trkpt><trkpt lat="37.6613167" lon="14.6836033"><ele>410.0</ele><time>2026-04-26T09:46:24.195Z</time></trkpt><trkpt lat="37.6612583" lon="14.68339"><ele>409.3333333333333</ele><time>2026-04-26T09:46:25.196Z</time></trkpt><trkpt lat="37.6612083" lon="14.6831733"><ele>408.66666666666663</ele><time>2026-04-26T09:46:26.195Z</time></trkpt><trkpt lat="37.6611783" lon="14.6829633"><ele>408.0</ele><time>2026-04-26T09:46:27.195Z</time></trkpt><trkpt lat="37.6611717" lon="14.6827633"><ele>408.0</ele><time>2026-04-26T09:46:28.195Z</time></trkpt><trkpt lat="37.6611617" lon="14.68258"><ele>408.0</ele><time>2026-04-26T09:46:29.195Z</time></trkpt><trkpt lat="37.6611483" lon="14.6824017"><ele>408.0</ele><time>2026-04-26T09:46:30.196Z</time></trkpt><trkpt lat="37.6611" lon="14.6822233"><ele>408.0</ele><time>2026-04-26T09:46:31.195Z</time></trkpt><trkpt lat="37.66103" lon="14.682055"><ele>411.0</ele><time>2026-04-26T09:46:32.195Z</time></trkpt><trkpt lat="37.6609583" lon="14.6818933"><ele>414.0</ele><time>2026-04-26T09:46:33.196Z</time></trkpt><trkpt lat="37.6608933" lon="14.6817433"><ele>417.0</ele><time>2026-04-26T09:46:34.195Z</time></trkpt><trkpt lat="37.6608467" lon="14.6816033"><ele>420.0</ele><time>2026-04-26T09:46:35.195Z</time></trkpt><trkpt lat="37.6608267" lon="14.6814667"><ele>420.0</ele><time>2026-04-26T09:46:36.195Z</time></trkpt><trkpt lat="37.6608333" lon="14.6813383"><ele>420.0</ele><time>2026-04-26T09:46:37.195Z</time></trkpt><trkpt lat="37.6608833" lon="14.6812133"><ele>420.0</ele><time>2026-04-26T09:46:38.195Z</time></trkpt><trkpt lat="37.6609633" lon="14.6811017"><ele>420.0</ele><time>2026-04-26T09:46:39.194Z</time></trkpt><trkpt lat="37.66106" lon="14.6809833"><ele>416.5</ele><time>2026-04-26T09:46:40.194Z</time></trkpt><trkpt lat="37.6611467" lon="14.6808467"><ele>413.0</ele><time>2026-04-26T09:46:41.194Z</time></trkpt><trkpt lat="37.66122" lon="14.6806883"><ele>409.5</ele><time>2026-04-26T09:46:42.194Z</time></trkpt><trkpt lat="37.66127" lon="14.6805167"><ele>406.0</ele><time>2026-04-26T09:46:43.194Z</time></trkpt><trkpt lat="37.6613033" lon="14.68032"><ele>408.33333333333337</ele><time>2026-04-26T09:46:44.194Z</time></trkpt><trkpt lat="37.6613167" lon="14.680115"><ele>410.66666666666663</ele><time>2026-04-26T09:46:45.194Z</time></trkpt><trkpt lat="37.661325" lon="14.6799067"><ele>413.0</ele><time>2026-04-26T09:46:46.194Z</time></trkpt><trkpt lat="37.6613317" lon="14.6797167"><ele>413.0</ele><time>2026-04-26T09:46:47.194Z</time></trkpt><trkpt lat="37.6613383" lon="14.6795433"><ele>413.0</ele><time>2026-04-26T09:46:48.194Z</time></trkpt><trkpt lat="37.661345" lon="14.6793783"><ele>413.0</ele><time>2026-04-26T09:46:49.194Z</time></trkpt><trkpt lat="37.6613317" lon="14.6792367"><ele>413.0</ele><time>2026-04-26T09:46:50.194Z</time></trkpt><trkpt lat="37.6612917" lon="14.679105"><ele>413.25</ele><time>2026-04-26T09:46:51.194Z</time></trkpt><trkpt lat="37.66121" lon="14.67899"><ele>413.5</ele><time>2026-04-26T09:46:52.194Z</time></trkpt><trkpt lat="37.6610933" lon="14.6788917"><ele>413.75</ele><time>2026-04-26T09:46:53.194Z</time></trkpt><trkpt lat="37.660945" lon="14.6788117"><ele>414.0</ele><time>2026-04-26T09:46:54.194Z</time></trkpt><trkpt lat="37.6607817" lon="14.6787467"><ele>417.0</ele><time>2026-04-26T09:46:55.194Z</time></trkpt><trkpt lat="37.6606233" lon="14.6786883"><ele>420.0</ele><time>2026-04-26T09:46:56.194Z</time></trkpt><trkpt lat="37.6604767" lon="14.6786267"><ele>423.0</ele><time>2026-04-26T09:46:57.194Z</time></trkpt><trkpt lat="37.660335" lon="14.6785717"><ele>426.25</ele><time>2026-04-26T09:46:58.194Z</time></trkpt><trkpt lat="37.6602167" lon="14.6785067"><ele>429.5</ele><time>2026-04-26T09:46:59.194Z</time></trkpt><trkpt lat="37.6601033" lon="14.6784117"><ele>432.75</ele><time>2026-04-26T09:47:00.194Z</time></trkpt><trkpt lat="37.6599983" lon="14.6782933"><ele>436.0</ele><time>2026-04-26T09:47:01.194Z</time></trkpt><trkpt lat="37.6599" lon="14.6781583"><ele>436.0</ele><time>2026-04-26T09:47:02.194Z</time></trkpt><trkpt lat="37.6598" lon="14.6780233"><ele>436.0</ele><time>2026-04-26T09:47:03.194Z</time></trkpt><trkpt lat="37.6597017" lon="14.67789"><ele>436.0</ele><time>2026-04-26T09:47:04.194Z</time></trkpt><trkpt lat="37.6596067" lon="14.6777567"><ele>436.0</ele><time>2026-04-26T09:47:05.194Z</time></trkpt><trkpt lat="37.6595233" lon="14.6776383"><ele>436.20000000000005</ele><time>2026-04-26T09:47:06.194Z</time></trkpt><trkpt lat="37.6594617" lon="14.67751"><ele>436.40000000000003</ele><time>2026-04-26T09:47:07.195Z</time></trkpt><trkpt lat="37.65941" lon="14.6773783"><ele>436.6</ele><time>2026-04-26T09:47:08.194Z</time></trkpt><trkpt lat="37.6593883" lon="14.6772567"><ele>436.8</ele><time>2026-04-26T09:47:09.194Z</time></trkpt><trkpt lat="37.6594083" lon="14.6771467"><ele>437.0</ele><time>2026-04-26T09:47:10.194Z</time></trkpt><trkpt lat="37.6594483" lon="14.6770467"><ele>437.0</ele><time>2026-04-26T09:47:11.195Z</time></trkpt><trkpt lat="37.6595283" lon="14.67696"><ele>437.00000000000006</ele><time>2026-04-26T09:47:12.195Z</time></trkpt><trkpt lat="37.6596267" lon="14.6768967"><ele>437.00000000000006</ele><time>2026-04-26T09:47:13.195Z</time></trkpt><trkpt lat="37.65972" lon="14.6768283"><ele>437.0</ele><time>2026-04-26T09:47:14.194Z</time></trkpt><trkpt lat="37.6597883" lon="14.6767233"><ele>437.0</ele><time>2026-04-26T09:47:15.194Z</time></trkpt><trkpt lat="37.6598117" lon="14.6766067"><ele>438.49999999999994</ele><time>2026-04-26T09:47:16.194Z</time></trkpt><trkpt lat="37.6597817" lon="14.676495"><ele>440.0</ele><time>2026-04-26T09:47:17.194Z</time></trkpt><trkpt lat="37.6597133" lon="14.676415"><ele>441.5</ele><time>2026-04-26T09:47:18.194Z</time></trkpt><trkpt lat="37.6596367" lon="14.6763833"><ele>443.0</ele><time>2026-04-26T09:47:19.194Z</time></trkpt><trkpt lat="37.6595417" lon="14.6763767"><ele>444.49999999999994</ele><time>2026-04-26T09:47:20.194Z</time></trkpt><trkpt lat="37.659465" lon="14.6763717"><ele>446.0</ele><time>2026-04-26T09:47:21.194Z</time></trkpt><trkpt lat="37.6594067" lon="14.6763167"><ele>448.0</ele><time>2026-04-26T09:47:22.194Z</time></trkpt><trkpt lat="37.6593633" lon="14.6762183"><ele>450.0</ele><time>2026-04-26T09:47:23.194Z</time></trkpt><trkpt lat="37.6593267" lon="14.6760817"><ele>452.0</ele><time>2026-04-26T09:47:24.194Z</time></trkpt><trkpt lat="37.6592967" lon="14.67591"><ele>454.0</ele><time>2026-04-26T09:47:25.194Z</time></trkpt><trkpt lat="37.659245" lon="14.67572"><ele>456.0</ele><time>2026-04-26T09:47:26.194Z</time></trkpt><trkpt lat="37.659185" lon="14.6755117"><ele>458.0</ele><time>2026-04-26T09:47:27.194Z</time></trkpt><trkpt lat="37.6591267" lon="14.6752817"><ele>460.0</ele><time>2026-04-26T09:47:28.194Z</time></trkpt><trkpt lat="37.6590567" lon="14.6750483"><ele>461.0</ele><time>2026-04-26T09:47:29.194Z</time></trkpt><trkpt lat="37.6589867" lon="14.6748017"><ele>462.0</ele><time>2026-04-26T09:47:30.194Z</time></trkpt><trkpt lat="37.6589167" lon="14.6745483"><ele>463.0</ele><time>2026-04-26T09:47:31.194Z</time></trkpt><trkpt lat="37.658845" lon="14.6743033"><ele>463.33333333333337</ele><time>2026-04-26T09:47:32.195Z</time></trkpt><trkpt lat="37.6587683" lon="14.6740567"><ele>463.66666666666663</ele><time>2026-04-26T09:47:33.194Z</time></trkpt><trkpt lat="37.6587083" lon="14.67381"><ele>464.0</ele><time>2026-04-26T09:47:34.194Z</time></trkpt><trkpt lat="37.6586533" lon="14.67356"><ele>469.66666666666663</ele><time>2026-04-26T09:47:35.194Z</time></trkpt><trkpt lat="37.6586117" lon="14.6733083"><ele>475.33333333333337</ele><time>2026-04-26T09:47:36.194Z</time></trkpt><trkpt lat="37.65858" lon="14.6730567"><ele>481.0</ele><time>2026-04-26T09:47:37.194Z</time></trkpt><trkpt lat="37.65855" lon="14.6728133"><ele>481.6666666666667</ele><time>2026-04-26T09:47:38.194Z</time></trkpt><trkpt lat="37.65853" lon="14.67256"><ele>482.33333333333337</ele><time>2026-04-26T09:47:39.194Z</time></trkpt><trkpt lat="37.658515" lon="14.6723117"><ele>483.0</ele><time>2026-04-26T09:47:40.194Z</time></trkpt><trkpt lat="37.65851" lon="14.6720833"><ele>484.25</ele><time>2026-04-26T09:47:41.194Z</time></trkpt><trkpt lat="37.6584983" lon="14.6718883"><ele>485.5</ele><time>2026-04-26T09:47:42.194Z</time></trkpt><trkpt lat="37.6584783" lon="14.671725"><ele>486.75</ele><time>2026-04-26T09:47:43.194Z</time></trkpt><trkpt lat="37.6584283" lon="14.67158"><ele>488.0</ele><time>2026-04-26T09:47:44.194Z</time></trkpt><trkpt lat="37.6583433" lon="14.6714517"><ele>488.0</ele><time>2026-04-26T09:47:45.194Z</time></trkpt><trkpt lat="37.6582233" lon="14.67135"><ele>488.0</ele><time>2026-04-26T09:47:46.195Z</time></trkpt><trkpt lat="37.6580783" lon="14.6712933"><ele>488.0</ele><time>2026-04-26T09:47:47.194Z</time></trkpt><trkpt lat="37.6579317" lon="14.671255"><ele>488.0</ele><time>2026-04-26T09:47:48.194Z</time></trkpt><trkpt lat="37.6577933" lon="14.67123"><ele>487.75</ele><time>2026-04-26T09:47:49.194Z</time></trkpt><trkpt lat="37.657675" lon="14.6711833"><ele>487.5</ele><time>2026-04-26T09:47:50.195Z</time></trkpt><trkpt lat="37.65757" lon="14.6711"><ele>487.25</ele><time>2026-04-26T09:47:51.195Z</time></trkpt><trkpt lat="37.6574783" lon="14.6709783"><ele>487.0</ele><time>2026-04-26T09:47:52.194Z</time></trkpt><trkpt lat="37.6573933" lon="14.6708417"><ele>487.0</ele><time>2026-04-26T09:47:53.194Z</time></trkpt><trkpt lat="37.6573333" lon="14.6706767"><ele>487.0</ele><time>2026-04-26T09:47:54.194Z</time></trkpt><trkpt lat="37.6572917" lon="14.6704967"><ele>487.0</ele><time>2026-04-26T09:47:55.194Z</time></trkpt><trkpt lat="37.6572867" lon="14.6703017"><ele>487.0</ele><time>2026-04-26T09:47:56.194Z</time></trkpt><trkpt lat="37.6572883" lon="14.6701033"><ele>486.0</ele><time>2026-04-26T09:47:57.194Z</time></trkpt><trkpt lat="37.657295" lon="14.6699217"><ele>485.0</ele><time>2026-04-26T09:47:58.195Z</time></trkpt><trkpt lat="37.657285" lon="14.6697517"><ele>484.0</ele><time>2026-04-26T09:47:59.194Z</time></trkpt><trkpt lat="37.6572367" lon="14.6695833"><ele>483.0</ele><time>2026-04-26T09:48:00.194Z</time></trkpt><trkpt lat="37.657155" lon="14.6694467"><ele>480.33333333333337</ele><time>2026-04-26T09:48:01.194Z</time></trkpt><trkpt lat="37.6570367" lon="14.6693183"><ele>477.6666666666667</ele><time>2026-04-26T09:48:02.194Z</time></trkpt><trkpt lat="37.6569133" lon="14.6691933"><ele>475.0</ele><time>2026-04-26T09:48:03.194Z</time></trkpt><trkpt lat="37.6568067" lon="14.66903"><ele>476.6666666666667</ele><time>2026-04-26T09:48:04.194Z</time></trkpt><trkpt lat="37.6567083" lon="14.668845"><ele>478.33333333333337</ele><time>2026-04-26T09:48:05.194Z</time></trkpt><trkpt lat="37.656605" lon="14.6686583"><ele>480.0</ele><time>2026-04-26T09:48:06.195Z</time></trkpt><trkpt lat="37.6564867" lon="14.6684867"><ele>480.0</ele><time>2026-04-26T09:48:07.195Z</time></trkpt><trkpt lat="37.6563483" lon="14.6683217"><ele>480.0</ele><time>2026-04-26T09:48:08.194Z</time></trkpt><trkpt lat="37.6562" lon="14.6681667"><ele>480.0</ele><time>2026-04-26T09:48:09.194Z</time></trkpt><trkpt lat="37.6560583" lon="14.6680233"><ele>480.0</ele><time>2026-04-26T09:48:10.194Z</time></trkpt><trkpt lat="37.655905" lon="14.6678967"><ele>480.0</ele><time>2026-04-26T09:48:11.194Z</time></trkpt><trkpt lat="37.6557467" lon="14.6677883"><ele>480.0</ele><time>2026-04-26T09:48:12.194Z</time></trkpt><trkpt lat="37.6555833" lon="14.6677"><ele>480.0</ele><time>2026-04-26T09:48:13.194Z</time></trkpt><trkpt lat="37.6554333" lon="14.667615"><ele>480.0</ele><time>2026-04-26T09:48:14.194Z</time></trkpt><trkpt lat="37.65529" lon="14.667535"><ele>480.0</ele><time>2026-04-26T09:48:15.194Z</time></trkpt><trkpt lat="37.6551683" lon="14.667465"><ele>482.5</ele><time>2026-04-26T09:48:16.195Z</time></trkpt><trkpt lat="37.655065" lon="14.6673833"><ele>485.0</ele><time>2026-04-26T09:48:17.194Z</time></trkpt><trkpt lat="37.65499" lon="14.6672733"><ele>487.5</ele><time>2026-04-26T09:48:18.194Z</time></trkpt><trkpt lat="37.6549483" lon="14.6671367"><ele>490.0</ele><time>2026-04-26T09:48:19.194Z</time></trkpt><trkpt lat="37.6549483" lon="14.66699"><ele>488.75</ele><time>2026-04-26T09:48:20.195Z</time></trkpt><trkpt lat="37.654965" lon="14.6668317"><ele>487.5</ele><time>2026-04-26T09:48:21.194Z</time></trkpt><trkpt lat="37.6549783" lon="14.66668"><ele>486.25</ele><time>2026-04-26T09:48:22.194Z</time></trkpt><trkpt lat="37.65495" lon="14.6665283"><ele>485.0</ele><time>2026-04-26T09:48:23.194Z</time></trkpt><trkpt lat="37.6548717" lon="14.6664017"><ele>485.0</ele><time>2026-04-26T09:48:24.194Z</time></trkpt><trkpt lat="37.6547583" lon="14.6662983"><ele>485.0</ele><time>2026-04-26T09:48:25.195Z</time></trkpt><trkpt lat="37.654625" lon="14.6662233"><ele>485.0</ele><time>2026-04-26T09:48:26.194Z</time></trkpt><trkpt lat="37.654495" lon="14.6661783"><ele>485.0</ele><time>2026-04-26T09:48:27.194Z</time></trkpt><trkpt lat="37.6543833" lon="14.6661433"><ele>486.4</ele><time>2026-04-26T09:48:28.194Z</time></trkpt><trkpt lat="37.6542983" lon="14.6660783"><ele>487.8</ele><time>2026-04-26T09:48:29.194Z</time></trkpt><trkpt lat="37.6542433" lon="14.6659667"><ele>489.20000000000005</ele><time>2026-04-26T09:48:30.194Z</time></trkpt><trkpt lat="37.65421" lon="14.665825"><ele>490.6</ele><time>2026-04-26T09:48:31.194Z</time></trkpt><trkpt lat="37.6541867" lon="14.6656783"><ele>492.0</ele><time>2026-04-26T09:48:32.194Z</time></trkpt><trkpt lat="37.6541333" lon="14.6655267"><ele>492.0</ele><time>2026-04-26T09:48:33.194Z</time></trkpt><trkpt lat="37.6540583" lon="14.665375"><ele>492.0</ele><time>2026-04-26T09:48:34.195Z</time></trkpt><trkpt lat="37.6539517" lon="14.6652167"><ele>492.0</ele><time>2026-04-26T09:48:35.195Z</time></trkpt><trkpt lat="37.653845" lon="14.6650467"><ele>494.66666666666663</ele><time>2026-04-26T09:48:36.194Z</time></trkpt><trkpt lat="37.6537417" lon="14.6648917"><ele>497.3333333333333</ele><time>2026-04-26T09:48:37.194Z</time></trkpt><trkpt lat="37.65364" lon="14.66476"><ele>500.0</ele><time>2026-04-26T09:48:38.194Z</time></trkpt><trkpt lat="37.653525" lon="14.6646467"><ele>500.0</ele><time>2026-04-26T09:48:39.194Z</time></trkpt><trkpt lat="37.65337" lon="14.6645533"><ele>500.0</ele><time>2026-04-26T09:48:40.194Z</time></trkpt><trkpt lat="37.6532067" lon="14.6644667"><ele>500.0</ele><time>2026-04-26T09:48:41.195Z</time></trkpt><trkpt lat="37.653055" lon="14.664375"><ele>500.25</ele><time>2026-04-26T09:48:42.194Z</time></trkpt><trkpt lat="37.6529117" lon="14.6642917"><ele>500.5</ele><time>2026-04-26T09:48:43.194Z</time></trkpt><trkpt lat="37.652775" lon="14.664225"><ele>500.75</ele><time>2026-04-26T09:48:44.195Z</time></trkpt><trkpt lat="37.652655" lon="14.6641633"><ele>501.0</ele><time>2026-04-26T09:48:45.194Z</time></trkpt><trkpt lat="37.6525567" lon="14.6640883"><ele>501.0</ele><time>2026-04-26T09:48:46.194Z</time></trkpt><trkpt lat="37.652475" lon="14.663985"><ele>501.0</ele><time>2026-04-26T09:48:47.194Z</time></trkpt><trkpt lat="37.65242" lon="14.6638433"><ele>501.0</ele><time>2026-04-26T09:48:48.194Z</time></trkpt><trkpt lat="37.6523783" lon="14.6636933"><ele>501.0</ele><time>2026-04-26T09:48:49.194Z</time></trkpt><trkpt lat="37.6523283" lon="14.6635217"><ele>499.75</ele><time>2026-04-26T09:48:50.194Z</time></trkpt><trkpt lat="37.652265" lon="14.663355"><ele>498.5</ele><time>2026-04-26T09:48:51.194Z</time></trkpt><trkpt lat="37.6521883" lon="14.66319"><ele>497.25</ele><time>2026-04-26T09:48:52.194Z</time></trkpt><trkpt lat="37.6521117" lon="14.66304"><ele>496.0</ele><time>2026-04-26T09:48:53.194Z</time></trkpt><trkpt lat="37.6520333" lon="14.6629067"><ele>497.25</ele><time>2026-04-26T09:48:54.194Z</time></trkpt><trkpt lat="37.65193" lon="14.6627967"><ele>498.5</ele><time>2026-04-26T09:48:55.194Z</time></trkpt><trkpt lat="37.6518033" lon="14.662715"><ele>499.75</ele><time>2026-04-26T09:48:56.194Z</time></trkpt><trkpt lat="37.6516467" lon="14.66266"><ele>501.0</ele><time>2026-04-26T09:48:57.194Z</time></trkpt><trkpt lat="37.6514917" lon="14.662625"><ele>501.0</ele><time>2026-04-26T09:48:58.194Z</time></trkpt><trkpt lat="37.6513383" lon="14.6625917"><ele>501.0</ele><time>2026-04-26T09:48:59.194Z</time></trkpt><trkpt lat="37.6511967" lon="14.6625483"><ele>501.0</ele><time>2026-04-26T09:49:00.195Z</time></trkpt><trkpt lat="37.6510817" lon="14.6624617"><ele>501.0</ele><time>2026-04-26T09:49:01.194Z</time></trkpt><trkpt lat="37.65097" lon="14.6623317"><ele>501.33333333333337</ele><time>2026-04-26T09:49:02.194Z</time></trkpt><trkpt lat="37.6508667" lon="14.662175"><ele>501.6666666666667</ele><time>2026-04-26T09:49:03.194Z</time></trkpt><trkpt lat="37.65077" lon="14.6620133"><ele>502.0</ele><time>2026-04-26T09:49:04.194Z</time></trkpt><trkpt lat="37.6506683" lon="14.6618433"><ele>502.0</ele><time>2026-04-26T09:49:05.194Z</time></trkpt><trkpt lat="37.6505633" lon="14.66167"><ele>502.0</ele><time>2026-04-26T09:49:06.194Z</time></trkpt><trkpt lat="37.6504633" lon="14.6614983"><ele>502.0</ele><time>2026-04-26T09:49:07.195Z</time></trkpt><trkpt lat="37.650365" lon="14.6613283"><ele>504.0</ele><time>2026-04-26T09:49:08.194Z</time></trkpt><trkpt lat="37.6502667" lon="14.6611667"><ele>506.0</ele><time>2026-04-26T09:49:09.194Z</time></trkpt><trkpt lat="37.65018" lon="14.661015"><ele>508.0</ele><time>2026-04-26T09:49:10.194Z</time></trkpt><trkpt lat="37.6501" lon="14.6608717"><ele>510.0</ele><time>2026-04-26T09:49:11.194Z</time></trkpt><trkpt lat="37.650015" lon="14.6607367"><ele>510.0</ele><time>2026-04-26T09:49:12.194Z</time></trkpt><trkpt lat="37.6499483" lon="14.660595"><ele>510.0</ele><time>2026-04-26T09:49:13.194Z</time></trkpt><trkpt lat="37.6499183" lon="14.6604517"><ele>510.0</ele><time>2026-04-26T09:49:14.194Z</time></trkpt><trkpt lat="37.64993" lon="14.6602917"><ele>510.0</ele><time>2026-04-26T09:49:15.194Z</time></trkpt><trkpt lat="37.6499733" lon="14.6601283"><ele>508.33333333333337</ele><time>2026-04-26T09:49:16.194Z</time></trkpt><trkpt lat="37.6500317" lon="14.6599483"><ele>506.6666666666667</ele><time>2026-04-26T09:49:17.194Z</time></trkpt><trkpt lat="37.6500917" lon="14.6597517"><ele>505.0</ele><time>2026-04-26T09:49:18.195Z</time></trkpt><trkpt lat="37.6501533" lon="14.6595483"><ele>508.0</ele><time>2026-04-26T09:49:19.194Z</time></trkpt><trkpt lat="37.650225" lon="14.6593433"><ele>511.0</ele><time>2026-04-26T09:49:20.194Z</time></trkpt><trkpt lat="37.6503083" lon="14.6591467"><ele>514.0</ele><time>2026-04-26T09:49:21.194Z</time></trkpt><trkpt lat="37.650405" lon="14.6589683"><ele>512.0</ele><time>2026-04-26T09:49:22.194Z</time></trkpt><trkpt lat="37.6505" lon="14.6587967"><ele>510.0</ele><time>2026-04-26T09:49:23.194Z</time></trkpt><trkpt lat="37.6505817" lon="14.6586183"><ele>508.0</ele><time>2026-04-26T09:49:24.194Z</time></trkpt><trkpt lat="37.6506517" lon="14.65844"><ele>508.0</ele><time>2026-04-26T09:49:25.194Z</time></trkpt><trkpt lat="37.65071" lon="14.6582667"><ele>508.0</ele><time>2026-04-26T09:49:26.195Z</time></trkpt><trkpt lat="37.65076" lon="14.6581117"><ele>508.0</ele><time>2026-04-26T09:49:27.194Z</time></trkpt><trkpt lat="37.65082" lon="14.6579633"><ele>508.0</ele><time>2026-04-26T09:49:28.195Z</time></trkpt><trkpt lat="37.6508633" lon="14.6578183"><ele>509.2</ele><time>2026-04-26T09:49:29.194Z</time></trkpt><trkpt lat="37.650895" lon="14.65768"><ele>510.4</ele><time>2026-04-26T09:49:30.194Z</time></trkpt><trkpt lat="37.6509117" lon="14.6575483"><ele>511.59999999999997</ele><time>2026-04-26T09:49:31.195Z</time></trkpt><trkpt lat="37.6509167" lon="14.65742"><ele>512.8</ele><time>2026-04-26T09:49:32.194Z</time></trkpt><trkpt lat="37.650915" lon="14.65729"><ele>514.0</ele><time>2026-04-26T09:49:33.195Z</time></trkpt><trkpt lat="37.6509" lon="14.6571617"><ele>514.0</ele><time>2026-04-26T09:49:34.194Z</time></trkpt><trkpt lat="37.6508867" lon="14.657035"><ele>514.0</ele><time>2026-04-26T09:49:35.194Z</time></trkpt><trkpt lat="37.6508833" lon="14.65692"><ele>514.0</ele><time>2026-04-26T09:49:36.195Z</time></trkpt><trkpt lat="37.6508867" lon="14.6568233"><ele>514.0</ele><time>2026-04-26T09:49:37.194Z</time></trkpt><trkpt lat="37.6508933" lon="14.6567033"><ele>514.0</ele><time>2026-04-26T09:49:39.194Z</time></trkpt><trkpt lat="37.6508817" lon="14.656605"><ele>514.0</ele><time>2026-04-26T09:51:51.194Z</time></trkpt><trkpt lat="37.6508867" lon="14.6564483"><ele>514.1666666666667</ele><time>2026-04-26T09:51:53.194Z</time></trkpt><trkpt lat="37.65089" lon="14.6563583"><ele>514.3333333333334</ele><time>2026-04-26T09:51:54.194Z</time></trkpt><trkpt lat="37.6508967" lon="14.65626"><ele>514.5</ele><time>2026-04-26T09:51:55.194Z</time></trkpt><trkpt lat="37.6509017" lon="14.6561583"><ele>514.6666666666666</ele><time>2026-04-26T09:51:56.194Z</time></trkpt><trkpt lat="37.6509033" lon="14.656045"><ele>514.8333333333333</ele><time>2026-04-26T09:51:57.194Z</time></trkpt><trkpt lat="37.6509083" lon="14.6559283"><ele>515.0</ele><time>2026-04-26T09:51:58.195Z</time></trkpt><trkpt lat="37.6509117" lon="14.65581"><ele>516.0</ele><time>2026-04-26T09:51:59.194Z</time></trkpt><trkpt lat="37.6509183" lon="14.6556817"><ele>517.0</ele><time>2026-04-26T09:52:00.194Z</time></trkpt><trkpt lat="37.650905" lon="14.6555567"><ele>518.0</ele><time>2026-04-26T09:52:01.194Z</time></trkpt><trkpt lat="37.6508883" lon="14.6554367"><ele>519.0</ele><time>2026-04-26T09:52:02.195Z</time></trkpt><trkpt lat="37.65086" lon="14.6553167"><ele>520.0</ele><time>2026-04-26T09:52:03.194Z</time></trkpt><trkpt lat="37.6508233" lon="14.6551983"><ele>521.0</ele><time>2026-04-26T09:52:04.194Z</time></trkpt><trkpt lat="37.6507917" lon="14.6550717"><ele>522.0</ele><time>2026-04-26T09:52:05.194Z</time></trkpt><trkpt lat="37.6507717" lon="14.654935"><ele>523.0</ele><time>2026-04-26T09:52:06.194Z</time></trkpt><trkpt lat="37.6507683" lon="14.6547933"><ele>524.0</ele><time>2026-04-26T09:52:07.194Z</time></trkpt><trkpt lat="37.6507833" lon="14.6546467"><ele>525.0</ele><time>2026-04-26T09:52:08.194Z</time></trkpt><trkpt lat="37.6508" lon="14.654495"><ele>525.5</ele><time>2026-04-26T09:52:09.195Z</time></trkpt><trkpt lat="37.6508283" lon="14.6543617"><ele>526.0</ele><time>2026-04-26T09:52:10.195Z</time></trkpt><trkpt lat="37.650845" lon="14.6542417"><ele>526.5</ele><time>2026-04-26T09:52:11.194Z</time></trkpt><trkpt lat="37.6508717" lon="14.6541367"><ele>527.0</ele><time>2026-04-26T09:52:12.194Z</time></trkpt><trkpt lat="37.650895" lon="14.6540517"><ele>527.5</ele><time>2026-04-26T09:52:13.194Z</time></trkpt><trkpt lat="37.6509283" lon="14.6539533"><ele>528.0</ele><time>2026-04-26T09:52:15.194Z</time></trkpt><trkpt lat="37.650925" lon="14.6538283"><ele>528.0</ele><time>2026-04-26T09:55:53.193Z</time></trkpt><trkpt lat="37.6509317" lon="14.65374"><ele>528.0</ele><time>2026-04-26T09:55:54.193Z</time></trkpt><trkpt lat="37.6509567" lon="14.653635"><ele>528.0</ele><time>2026-04-26T09:55:55.193Z</time></trkpt><trkpt lat="37.6509833" lon="14.6535217"><ele>528.0</ele><time>2026-04-26T09:55:56.193Z</time></trkpt><trkpt lat="37.6510183" lon="14.6534017"><ele>528.0</ele><time>2026-04-26T09:55:57.193Z</time></trkpt><trkpt lat="37.6510617" lon="14.65326"><ele>527.5</ele><time>2026-04-26T09:55:58.193Z</time></trkpt><trkpt lat="37.6511083" lon="14.6531267"><ele>527.0</ele><time>2026-04-26T09:55:59.193Z</time></trkpt><trkpt lat="37.65117" lon="14.652985"><ele>526.5</ele><time>2026-04-26T09:56:00.193Z</time></trkpt><trkpt lat="37.6512417" lon="14.6528283"><ele>526.0</ele><time>2026-04-26T09:56:01.193Z</time></trkpt><trkpt lat="37.6513217" lon="14.6526633"><ele>526.0</ele><time>2026-04-26T09:56:02.193Z</time></trkpt><trkpt lat="37.6513983" lon="14.6524983"><ele>526.0</ele><time>2026-04-26T09:56:03.194Z</time></trkpt><trkpt lat="37.651465" lon="14.65234"><ele>526.0</ele><time>2026-04-26T09:56:04.193Z</time></trkpt><trkpt lat="37.6515167" lon="14.6521733"><ele>526.0</ele><time>2026-04-26T09:56:05.193Z</time></trkpt><trkpt lat="37.6515467" lon="14.6519967"><ele>527.3333333333334</ele><time>2026-04-26T09:56:06.194Z</time></trkpt><trkpt lat="37.651555" lon="14.6518017"><ele>528.6666666666666</ele><time>2026-04-26T09:56:07.193Z</time></trkpt><trkpt lat="37.65155" lon="14.6515967"><ele>530.0</ele><time>2026-04-26T09:56:08.194Z</time></trkpt><trkpt lat="37.651545" lon="14.6514017"><ele>530.0</ele><time>2026-04-26T09:56:09.193Z</time></trkpt><trkpt lat="37.6515417" lon="14.6512167"><ele>530.0</ele><time>2026-04-26T09:56:10.193Z</time></trkpt><trkpt lat="37.6515433" lon="14.651045"><ele>530.0</ele><time>2026-04-26T09:56:11.194Z</time></trkpt><trkpt lat="37.6515533" lon="14.6508783"><ele>530.0</ele><time>2026-04-26T09:56:12.193Z</time></trkpt><trkpt lat="37.6515767" lon="14.6507083"><ele>530.75</ele><time>2026-04-26T09:56:13.194Z</time></trkpt><trkpt lat="37.651605" lon="14.6505383"><ele>531.5</ele><time>2026-04-26T09:56:14.193Z</time></trkpt><trkpt lat="37.6516183" lon="14.6503617"><ele>532.25</ele><time>2026-04-26T09:56:15.193Z</time></trkpt><trkpt lat="37.6516233" lon="14.650185"><ele>533.0</ele><time>2026-04-26T09:56:16.193Z</time></trkpt><trkpt lat="37.651605" lon="14.6500183"><ele>533.25</ele><time>2026-04-26T09:56:17.193Z</time></trkpt><trkpt lat="37.65156" lon="14.64985"><ele>533.5</ele><time>2026-04-26T09:56:18.194Z</time></trkpt><trkpt lat="37.651495" lon="14.64968"><ele>533.75</ele><time>2026-04-26T09:56:19.193Z</time></trkpt><trkpt lat="37.6514283" lon="14.649505"><ele>534.0</ele><time>2026-04-26T09:56:20.193Z</time></trkpt><trkpt lat="37.6513617" lon="14.6493267"><ele>534.0</ele><time>2026-04-26T09:56:21.193Z</time></trkpt><trkpt lat="37.6513" lon="14.649155"><ele>534.0</ele><time>2026-04-26T09:56:22.193Z</time></trkpt><trkpt lat="37.65125" lon="14.6489733"><ele>534.0</ele><time>2026-04-26T09:56:23.193Z</time></trkpt><trkpt lat="37.6512033" lon="14.6487967"><ele>534.0</ele><time>2026-04-26T09:56:24.193Z</time></trkpt><trkpt lat="37.65117" lon="14.64862"><ele>531.75</ele><time>2026-04-26T09:56:25.193Z</time></trkpt><trkpt lat="37.65115" lon="14.6484467"><ele>529.5</ele><time>2026-04-26T09:56:26.193Z</time></trkpt><trkpt lat="37.6511533" lon="14.6482767"><ele>527.25</ele><time>2026-04-26T09:56:27.193Z</time></trkpt><trkpt lat="37.6511717" lon="14.6481083"><ele>525.0</ele><time>2026-04-26T09:56:28.193Z</time></trkpt><trkpt lat="37.6512067" lon="14.6479367"><ele>526.25</ele><time>2026-04-26T09:56:29.193Z</time></trkpt><trkpt lat="37.6512383" lon="14.6477767"><ele>527.5</ele><time>2026-04-26T09:56:30.193Z</time></trkpt><trkpt lat="37.6512683" lon="14.64762"><ele>528.75</ele><time>2026-04-26T09:56:31.193Z</time></trkpt><trkpt lat="37.6512983" lon="14.647475"><ele>530.0</ele><time>2026-04-26T09:56:32.193Z</time></trkpt><trkpt lat="37.6513183" lon="14.6473267"><ele>530.0</ele><time>2026-04-26T09:56:33.193Z</time></trkpt><trkpt lat="37.6513367" lon="14.647175"><ele>530.0</ele><time>2026-04-26T09:56:34.193Z</time></trkpt><trkpt lat="37.6513483" lon="14.647035"><ele>530.0</ele><time>2026-04-26T09:56:35.193Z</time></trkpt><trkpt lat="37.65135" lon="14.6468933"><ele>530.0</ele><time>2026-04-26T09:56:36.194Z</time></trkpt><trkpt lat="37.6513467" lon="14.6467617"><ele>530.0</ele><time>2026-04-26T09:56:37.193Z</time></trkpt><trkpt lat="37.6513383" lon="14.64664"><ele>530.1666666666666</ele><time>2026-04-26T09:56:38.193Z</time></trkpt><trkpt lat="37.65133" lon="14.6465183"><ele>530.3333333333333</ele><time>2026-04-26T09:56:39.193Z</time></trkpt><trkpt lat="37.6513267" lon="14.6464067"><ele>530.5</ele><time>2026-04-26T09:56:40.194Z</time></trkpt><trkpt lat="37.6513167" lon="14.64631"><ele>530.6666666666666</ele><time>2026-04-26T09:56:41.193Z</time></trkpt><trkpt lat="37.651305" lon="14.6462233"><ele>530.8333333333334</ele><time>2026-04-26T09:56:42.193Z</time></trkpt><trkpt lat="37.651295" lon="14.6461333"><ele>531.0</ele><time>2026-04-26T09:56:43.193Z</time></trkpt><trkpt lat="37.65128" lon="14.6460067"><ele>531.0</ele><time>2026-04-26T09:56:45.193Z</time></trkpt><trkpt lat="37.651275" lon="14.645905"><ele>531.0</ele><time>2026-04-26T09:56:47.193Z</time></trkpt><trkpt lat="37.65127" lon="14.645815"><ele>531.0</ele><time>2026-04-26T09:56:49.194Z</time></trkpt><trkpt lat="37.65127" lon="14.645685"><ele>531.0</ele><time>2026-04-26T09:56:51.193Z</time></trkpt><trkpt lat="37.6512683" lon="14.6455983"><ele>531.0</ele><time>2026-04-26T09:56:52.194Z</time></trkpt><trkpt lat="37.6512533" lon="14.6455033"><ele>531.0</ele><time>2026-04-26T09:56:53.193Z</time></trkpt><trkpt lat="37.6512333" lon="14.6453967"><ele>531.0</ele><time>2026-04-26T09:56:54.193Z</time></trkpt><trkpt lat="37.6512083" lon="14.6452983"><ele>531.0</ele><time>2026-04-26T09:56:55.194Z</time></trkpt><trkpt lat="37.6511817" lon="14.6452083"><ele>531.0</ele><time>2026-04-26T09:56:56.193Z</time></trkpt><trkpt lat="37.6511567" lon="14.64513"><ele>531.0</ele><time>2026-04-26T09:56:57.194Z</time></trkpt><trkpt lat="37.651105" lon="14.6449833"><ele>531.0</ele><time>2026-04-26T09:56:59.193Z</time></trkpt><trkpt lat="37.651065" lon="14.6449067"><ele>531.0</ele><time>2026-04-26T09:57:00.193Z</time></trkpt><trkpt lat="37.6510233" lon="14.6448267"><ele>533.5</ele><time>2026-04-26T09:57:01.194Z</time></trkpt><trkpt lat="37.6509733" lon="14.6447433"><ele>536.0</ele><time>2026-04-26T09:57:02.193Z</time></trkpt><trkpt lat="37.6509267" lon="14.6446483"><ele>538.5</ele><time>2026-04-26T09:57:03.193Z</time></trkpt><trkpt lat="37.65089" lon="14.6445583"><ele>541.0</ele><time>2026-04-26T09:57:04.194Z</time></trkpt><trkpt lat="37.650855" lon="14.6444767"><ele>543.5</ele><time>2026-04-26T09:57:05.193Z</time></trkpt><trkpt lat="37.6508283" lon="14.6443967"><ele>546.0</ele><time>2026-04-26T09:57:06.193Z</time></trkpt><trkpt lat="37.65078" lon="14.644275"><ele>546.1666666666666</ele><time>2026-04-26T09:57:08.193Z</time></trkpt><trkpt lat="37.6507267" lon="14.6441867"><ele>546.3333333333334</ele><time>2026-04-26T09:57:10.194Z</time></trkpt><trkpt lat="37.6506233" lon="14.6441533"><ele>546.5</ele><time>2026-04-26T09:57:12.193Z</time></trkpt><trkpt lat="37.650555" lon="14.6441433"><ele>546.6666666666667</ele><time>2026-04-26T09:57:13.193Z</time></trkpt><trkpt lat="37.6504917" lon="14.6441317"><ele>546.8333333333334</ele><time>2026-04-26T09:57:14.193Z</time></trkpt><trkpt lat="37.6504217" lon="14.6441083"><ele>547.0</ele><time>2026-04-26T09:57:15.193Z</time></trkpt><trkpt lat="37.6503583" lon="14.6440767"><ele>547.0</ele><time>2026-04-26T09:57:16.193Z</time></trkpt><trkpt lat="37.6503" lon="14.6440317"><ele>547.0</ele><time>2026-04-26T09:57:17.193Z</time></trkpt><trkpt lat="37.65024" lon="14.6439683"><ele>547.0</ele><time>2026-04-26T09:57:18.193Z</time></trkpt><trkpt lat="37.6501833" lon="14.6439133"><ele>547.0</ele><time>2026-04-26T09:57:19.193Z</time></trkpt><trkpt lat="37.6501317" lon="14.643855"><ele>547.0</ele><time>2026-04-26T09:57:20.193Z</time></trkpt><trkpt lat="37.650095" lon="14.64379"><ele>547.0</ele><time>2026-04-26T09:57:21.193Z</time></trkpt><trkpt lat="37.65007" lon="14.6437083"><ele>547.0</ele><time>2026-04-26T09:57:22.193Z</time></trkpt><trkpt lat="37.650055" lon="14.643615"><ele>545.4</ele><time>2026-04-26T09:57:23.194Z</time></trkpt><trkpt lat="37.65004" lon="14.6435"><ele>543.8000000000001</ele><time>2026-04-26T09:57:24.193Z</time></trkpt><trkpt lat="37.6500217" lon="14.6433817"><ele>542.2</ele><time>2026-04-26T09:57:25.193Z</time></trkpt><trkpt lat="37.6500133" lon="14.64326"><ele>540.6</ele><time>2026-04-26T09:57:26.193Z</time></trkpt><trkpt lat="37.6500067" lon="14.643155"><ele>539.0</ele><time>2026-04-26T09:57:27.193Z</time></trkpt><trkpt lat="37.6500017" lon="14.64305"><ele>539.0</ele><time>2026-04-26T09:57:28.194Z</time></trkpt><trkpt lat="37.6499867" lon="14.6429517"><ele>539.0</ele><time>2026-04-26T09:57:29.193Z</time></trkpt><trkpt lat="37.6499617" lon="14.64286"><ele>539.0</ele><time>2026-04-26T09:57:30.193Z</time></trkpt><trkpt lat="37.6499367" lon="14.642765"><ele>539.0</ele><time>2026-04-26T09:57:31.193Z</time></trkpt><trkpt lat="37.649915" lon="14.6426483"><ele>539.0</ele><time>2026-04-26T09:57:32.193Z</time></trkpt><trkpt lat="37.649905" lon="14.6425417"><ele>539.0</ele><time>2026-04-26T09:57:33.193Z</time></trkpt><trkpt lat="37.6498817" lon="14.6424367"><ele>539.0</ele><time>2026-04-26T09:57:34.194Z</time></trkpt><trkpt lat="37.6498617" lon="14.642335"><ele>539.0</ele><time>2026-04-26T09:57:35.193Z</time></trkpt><trkpt lat="37.6498433" lon="14.6422317"><ele>539.0</ele><time>2026-04-26T09:57:36.193Z</time></trkpt><trkpt lat="37.6498367" lon="14.6421283"><ele>539.0</ele><time>2026-04-26T09:57:37.193Z</time></trkpt><trkpt lat="37.6498283" lon="14.6420333"><ele>539.0</ele><time>2026-04-26T09:57:38.193Z</time></trkpt><trkpt lat="37.64982" lon="14.6419333"><ele>539.0</ele><time>2026-04-26T09:57:39.193Z</time></trkpt><trkpt lat="37.6498067" lon="14.6418383"><ele>538.8333333333333</ele><time>2026-04-26T09:57:40.194Z</time></trkpt><trkpt lat="37.6497883" lon="14.6417483"><ele>538.6666666666666</ele><time>2026-04-26T09:57:41.193Z</time></trkpt><trkpt lat="37.6497583" lon="14.6416683"><ele>538.5</ele><time>2026-04-26T09:57:42.193Z</time></trkpt><trkpt lat="37.649725" lon="14.6415933"><ele>538.3333333333334</ele><time>2026-04-26T09:57:43.193Z</time></trkpt><trkpt lat="37.649695" lon="14.6414517"><ele>538.1666666666667</ele><time>2026-04-26T09:57:45.193Z</time></trkpt><trkpt lat="37.6496783" lon="14.64133"><ele>538.0</ele><time>2026-04-26T09:57:47.193Z</time></trkpt><trkpt lat="37.6496333" lon="14.641135"><ele>537.1666666666667</ele><time>2026-04-26T09:58:17.193Z</time></trkpt><trkpt lat="37.649615" lon="14.641045"><ele>536.3333333333334</ele><time>2026-04-26T09:58:19.193Z</time></trkpt><trkpt lat="37.6496317" lon="14.6409633"><ele>535.5</ele><time>2026-04-26T09:58:23.193Z</time></trkpt><trkpt lat="37.6496967" lon="14.6409067"><ele>534.6666666666666</ele><time>2026-04-26T09:58:26.193Z</time></trkpt><trkpt lat="37.6497167" lon="14.64082"><ele>533.8333333333333</ele><time>2026-04-26T09:58:28.194Z</time></trkpt><trkpt lat="37.6497017" lon="14.6407167"><ele>533.0</ele><time>2026-04-26T09:58:30.193Z</time></trkpt><trkpt lat="37.6496767" lon="14.6406183"><ele>533.0</ele><time>2026-04-26T09:58:33.193Z</time></trkpt><trkpt lat="37.6497267" lon="14.6405683"><ele>533.0</ele><time>2026-04-26T09:58:36.193Z</time></trkpt><trkpt lat="37.649815" lon="14.6405183"><ele>533.0</ele><time>2026-04-26T09:58:38.194Z</time></trkpt><trkpt lat="37.6498683" lon="14.6404733"><ele>533.0</ele><time>2026-04-26T09:58:39.193Z</time></trkpt><trkpt lat="37.6499567" lon="14.640395"><ele>533.0</ele><time>2026-04-26T09:58:41.193Z</time></trkpt><trkpt lat="37.6500183" lon="14.6403683"><ele>533.0</ele><time>2026-04-26T09:58:42.192Z</time></trkpt><trkpt lat="37.6500983" lon="14.6403433"><ele>533.0</ele><time>2026-04-26T09:58:43.193Z</time></trkpt><trkpt lat="37.6501983" lon="14.64032"><ele>533.0</ele><time>2026-04-26T09:58:44.192Z</time></trkpt><trkpt lat="37.6503233" lon="14.6403133"><ele>533.0</ele><time>2026-04-26T09:58:45.192Z</time></trkpt><trkpt lat="37.6504333" lon="14.6403017"><ele>533.0</ele><time>2026-04-26T09:58:46.193Z</time></trkpt><trkpt lat="37.650535" lon="14.64027"><ele>533.0</ele><time>2026-04-26T09:58:47.192Z</time></trkpt><trkpt lat="37.65065" lon="14.6402617"><ele>529.8</ele><time>2026-04-26T09:58:48.193Z</time></trkpt><trkpt lat="37.6507417" lon="14.64023"><ele>526.5999999999999</ele><time>2026-04-26T09:58:49.193Z</time></trkpt><trkpt lat="37.650845" lon="14.6401967"><ele>523.4000000000001</ele><time>2026-04-26T09:58:50.192Z</time></trkpt><trkpt lat="37.6509333" lon="14.6401583"><ele>520.2</ele><time>2026-04-26T09:58:51.193Z</time></trkpt><trkpt lat="37.6510167" lon="14.6401217"><ele>517.0</ele><time>2026-04-26T09:58:52.192Z</time></trkpt><trkpt lat="37.6510917" lon="14.6400933"><ele>517.0</ele><time>2026-04-26T09:58:53.192Z</time></trkpt><trkpt lat="37.65117" lon="14.6400783"><ele>517.0</ele><time>2026-04-26T09:58:54.192Z</time></trkpt><trkpt lat="37.65125" lon="14.6400633"><ele>517.0</ele><time>2026-04-26T09:58:55.192Z</time></trkpt><trkpt lat="37.65134" lon="14.6400833"><ele>517.0</ele><time>2026-04-26T09:58:56.192Z</time></trkpt><trkpt lat="37.6514367" lon="14.6401133"><ele>517.0</ele><time>2026-04-26T09:58:57.192Z</time></trkpt><trkpt lat="37.6515533" lon="14.6401367"><ele>517.0</ele><time>2026-04-26T09:58:58.193Z</time></trkpt><trkpt lat="37.6516567" lon="14.6401583"><ele>517.0</ele><time>2026-04-26T09:58:59.192Z</time></trkpt><trkpt lat="37.6517567" lon="14.6401717"><ele>517.0</ele><time>2026-04-26T09:59:00.192Z</time></trkpt><trkpt lat="37.6518433" lon="14.6401817"><ele>517.0</ele><time>2026-04-26T09:59:01.192Z</time></trkpt><trkpt lat="37.6519233" lon="14.6401783"><ele>517.0</ele><time>2026-04-26T09:59:02.193Z</time></trkpt><trkpt lat="37.6520083" lon="14.640155"><ele>517.4</ele><time>2026-04-26T09:59:03.192Z</time></trkpt><trkpt lat="37.6520867" lon="14.640085"><ele>517.8000000000001</ele><time>2026-04-26T09:59:04.193Z</time></trkpt><trkpt lat="37.6521567" lon="14.6399817"><ele>518.2</ele><time>2026-04-26T09:59:05.192Z</time></trkpt><trkpt lat="37.652235" lon="14.6398833"><ele>518.6</ele><time>2026-04-26T09:59:06.192Z</time></trkpt><trkpt lat="37.652315" lon="14.6398"><ele>519.0</ele><time>2026-04-26T09:59:07.192Z</time></trkpt><trkpt lat="37.6523783" lon="14.6397217"><ele>519.0</ele><time>2026-04-26T09:59:08.193Z</time></trkpt><trkpt lat="37.65244" lon="14.6396683"><ele>519.0</ele><time>2026-04-26T09:59:09.192Z</time></trkpt><trkpt lat="37.65248" lon="14.6396067"><ele>519.0</ele><time>2026-04-26T09:59:10.193Z</time></trkpt><trkpt lat="37.6525233" lon="14.639535"><ele>519.0</ele><time>2026-04-26T09:59:11.192Z</time></trkpt><trkpt lat="37.652575" lon="14.639465"><ele>519.0</ele><time>2026-04-26T09:59:12.192Z</time></trkpt><trkpt lat="37.6526483" lon="14.6393867"><ele>519.0</ele><time>2026-04-26T09:59:13.192Z</time></trkpt><trkpt lat="37.6527033" lon="14.6392833"><ele>519.2</ele><time>2026-04-26T09:59:14.192Z</time></trkpt><trkpt lat="37.65276" lon="14.63917"><ele>519.4</ele><time>2026-04-26T09:59:15.192Z</time></trkpt><trkpt lat="37.6528133" lon="14.6390617"><ele>519.6</ele><time>2026-04-26T09:59:16.193Z</time></trkpt><trkpt lat="37.65287" lon="14.6389533"><ele>519.8</ele><time>2026-04-26T09:59:17.192Z</time></trkpt><trkpt lat="37.652925" lon="14.6388433"><ele>520.0</ele><time>2026-04-26T09:59:18.193Z</time></trkpt><trkpt lat="37.652985" lon="14.638735"><ele>518.4</ele><time>2026-04-26T09:59:19.192Z</time></trkpt><trkpt lat="37.6530333" lon="14.6386267"><ele>516.8</ele><time>2026-04-26T09:59:20.192Z</time></trkpt><trkpt lat="37.65308" lon="14.63852"><ele>515.2</ele><time>2026-04-26T09:59:21.192Z</time></trkpt><trkpt lat="37.65311" lon="14.638405"><ele>513.6</ele><time>2026-04-26T09:59:22.193Z</time></trkpt><trkpt lat="37.6531383" lon="14.638295"><ele>512.0</ele><time>2026-04-26T09:59:23.192Z</time></trkpt><trkpt lat="37.6531633" lon="14.6381883"><ele>511.99999999999994</ele><time>2026-04-26T09:59:24.192Z</time></trkpt><trkpt lat="37.6531817" lon="14.63809"><ele>512.0</ele><time>2026-04-26T09:59:25.192Z</time></trkpt><trkpt lat="37.6532017" lon="14.637995"><ele>512.0</ele><time>2026-04-26T09:59:26.192Z</time></trkpt><trkpt lat="37.6532167" lon="14.6379083"><ele>512.0</ele><time>2026-04-26T09:59:27.192Z</time></trkpt><trkpt lat="37.6532317" lon="14.63781"><ele>511.99999999999994</ele><time>2026-04-26T09:59:28.192Z</time></trkpt><trkpt lat="37.6532467" lon="14.6377117"><ele>512.0</ele><time>2026-04-26T09:59:29.192Z</time></trkpt><trkpt lat="37.6532517" lon="14.6376217"><ele>511.0</ele><time>2026-04-26T09:59:30.192Z</time></trkpt><trkpt lat="37.6532617" lon="14.63754"><ele>510.00000000000006</ele><time>2026-04-26T09:59:31.192Z</time></trkpt><trkpt lat="37.6532717" lon="14.6373933"><ele>509.00000000000006</ele><time>2026-04-26T09:59:33.192Z</time></trkpt><trkpt lat="37.6532833" lon="14.6372567"><ele>508.0</ele><time>2026-04-26T09:59:35.192Z</time></trkpt><trkpt lat="37.6533083" lon="14.63714"><ele>507.0</ele><time>2026-04-26T09:59:37.192Z</time></trkpt><trkpt lat="37.6533583" lon="14.637045"><ele>505.1666666666667</ele><time>2026-04-26T09:59:39.192Z</time></trkpt><trkpt lat="37.6534033" lon="14.6369567"><ele>503.33333333333337</ele><time>2026-04-26T09:59:41.192Z</time></trkpt><trkpt lat="37.6534517" lon="14.6368783"><ele>501.5</ele><time>2026-04-26T09:59:43.192Z</time></trkpt><trkpt lat="37.653495" lon="14.636775"><ele>499.6666666666667</ele><time>2026-04-26T09:59:45.192Z</time></trkpt><trkpt lat="37.6535167" lon="14.6366233"><ele>497.83333333333337</ele><time>2026-04-26T09:59:47.192Z</time></trkpt><trkpt lat="37.653525" lon="14.6365333"><ele>496.0</ele><time>2026-04-26T09:59:48.192Z</time></trkpt><trkpt lat="37.65354" lon="14.63643"><ele>496.00000000000006</ele><time>2026-04-26T09:59:49.193Z</time></trkpt><trkpt lat="37.6535617" lon="14.636325"><ele>496.0</ele><time>2026-04-26T09:59:50.193Z</time></trkpt><trkpt lat="37.653575" lon="14.63622"><ele>496.0</ele><time>2026-04-26T09:59:51.192Z</time></trkpt><trkpt lat="37.653585" lon="14.6361117"><ele>496.0</ele><time>2026-04-26T09:59:52.192Z</time></trkpt><trkpt lat="37.6535967" lon="14.63601"><ele>496.00000000000006</ele><time>2026-04-26T09:59:53.192Z</time></trkpt><trkpt lat="37.6535983" lon="14.6359083"><ele>496.0</ele><time>2026-04-26T09:59:54.192Z</time></trkpt><trkpt lat="37.6536" lon="14.6358183"><ele>495.33333333333337</ele><time>2026-04-26T09:59:55.192Z</time></trkpt><trkpt lat="37.6536017" lon="14.6357283"><ele>494.6666666666667</ele><time>2026-04-26T09:59:56.192Z</time></trkpt><trkpt lat="37.6536083" lon="14.6356033"><ele>494.0</ele><time>2026-04-26T09:59:58.192Z</time></trkpt><trkpt lat="37.6536383" lon="14.6354917"><ele>493.33333333333337</ele><time>2026-04-26T10:00:00.192Z</time></trkpt><trkpt lat="37.6536133" lon="14.6353583"><ele>492.6666666666667</ele><time>2026-04-26T10:00:02.192Z</time></trkpt><trkpt lat="37.6536083" lon="14.6352783"><ele>492.0</ele><time>2026-04-26T10:00:03.192Z</time></trkpt><trkpt lat="37.65361" lon="14.635185"><ele>494.6</ele><time>2026-04-26T10:00:04.192Z</time></trkpt><trkpt lat="37.653625" lon="14.63508"><ele>497.20000000000005</ele><time>2026-04-26T10:00:05.192Z</time></trkpt><trkpt lat="37.6536383" lon="14.6349717"><ele>499.8</ele><time>2026-04-26T10:00:06.192Z</time></trkpt><trkpt lat="37.6536567" lon="14.634855"><ele>502.4</ele><time>2026-04-26T10:00:07.192Z</time></trkpt><trkpt lat="37.653675" lon="14.6347333"><ele>505.0</ele><time>2026-04-26T10:00:08.192Z</time></trkpt><trkpt lat="37.6536933" lon="14.6346017"><ele>502.5</ele><time>2026-04-26T10:00:09.192Z</time></trkpt><trkpt lat="37.653725" lon="14.63447"><ele>500.0</ele><time>2026-04-26T10:00:10.192Z</time></trkpt><trkpt lat="37.6537583" lon="14.6343283"><ele>497.5</ele><time>2026-04-26T10:00:11.192Z</time></trkpt><trkpt lat="37.653805" lon="14.6342033"><ele>495.0</ele><time>2026-04-26T10:00:12.192Z</time></trkpt><trkpt lat="37.6538633" lon="14.6340783"><ele>495.0</ele><time>2026-04-26T10:00:13.192Z</time></trkpt><trkpt lat="37.65392" lon="14.6339483"><ele>495.0</ele><time>2026-04-26T10:00:14.192Z</time></trkpt><trkpt lat="37.6539783" lon="14.6338117"><ele>495.0</ele><time>2026-04-26T10:00:15.192Z</time></trkpt><trkpt lat="37.65404" lon="14.6336833"><ele>495.0</ele><time>2026-04-26T10:00:16.193Z</time></trkpt><trkpt lat="37.6541167" lon="14.6335567"><ele>492.5</ele><time>2026-04-26T10:00:17.192Z</time></trkpt><trkpt lat="37.654185" lon="14.6334417"><ele>490.0</ele><time>2026-04-26T10:00:18.193Z</time></trkpt><trkpt lat="37.654255" lon="14.633335"><ele>487.5</ele><time>2026-04-26T10:00:19.193Z</time></trkpt><trkpt lat="37.6543333" lon="14.6332283"><ele>485.0</ele><time>2026-04-26T10:00:20.193Z</time></trkpt><trkpt lat="37.6544117" lon="14.6331267"><ele>484.6</ele><time>2026-04-26T10:00:21.192Z</time></trkpt><trkpt lat="37.6544783" lon="14.6330417"><ele>484.2</ele><time>2026-04-26T10:00:22.193Z</time></trkpt><trkpt lat="37.6545567" lon="14.6329683"><ele>483.79999999999995</ele><time>2026-04-26T10:00:23.192Z</time></trkpt><trkpt lat="37.6546333" lon="14.632895"><ele>483.4</ele><time>2026-04-26T10:00:24.193Z</time></trkpt><trkpt lat="37.6547117" lon="14.6328183"><ele>483.0</ele><time>2026-04-26T10:00:25.192Z</time></trkpt><trkpt lat="37.6547883" lon="14.6327467"><ele>481.2</ele><time>2026-04-26T10:00:26.192Z</time></trkpt><trkpt lat="37.6548633" lon="14.632665"><ele>479.4</ele><time>2026-04-26T10:00:27.192Z</time></trkpt><trkpt lat="37.6549367" lon="14.63257"><ele>477.59999999999997</ele><time>2026-04-26T10:00:28.192Z</time></trkpt><trkpt lat="37.6549983" lon="14.632465"><ele>475.79999999999995</ele><time>2026-04-26T10:00:29.192Z</time></trkpt><trkpt lat="37.6550483" lon="14.6323467"><ele>474.0</ele><time>2026-04-26T10:00:30.192Z</time></trkpt><trkpt lat="37.6550883" lon="14.6322233"><ele>474.0</ele><time>2026-04-26T10:00:31.192Z</time></trkpt><trkpt lat="37.6551117" lon="14.6321017"><ele>474.0</ele><time>2026-04-26T10:00:32.193Z</time></trkpt><trkpt lat="37.6551117" lon="14.6319783"><ele>474.0</ele><time>2026-04-26T10:00:33.192Z</time></trkpt><trkpt lat="37.6551017" lon="14.6318567"><ele>474.0</ele><time>2026-04-26T10:00:34.193Z</time></trkpt><trkpt lat="37.6550917" lon="14.6317233"><ele>474.0</ele><time>2026-04-26T10:00:35.192Z</time></trkpt><trkpt lat="37.6550733" lon="14.6315933"><ele>473.4</ele><time>2026-04-26T10:00:36.192Z</time></trkpt><trkpt lat="37.6550583" lon="14.6314533"><ele>472.79999999999995</ele><time>2026-04-26T10:00:37.192Z</time></trkpt><trkpt lat="37.6550433" lon="14.6313167"><ele>472.20000000000005</ele><time>2026-04-26T10:00:38.192Z</time></trkpt><trkpt lat="37.6550283" lon="14.6311817"><ele>471.6</ele><time>2026-04-26T10:00:39.192Z</time></trkpt><trkpt lat="37.6550117" lon="14.631065"><ele>471.0</ele><time>2026-04-26T10:00:40.192Z</time></trkpt><trkpt lat="37.6549983" lon="14.63096"><ele>470.4</ele><time>2026-04-26T10:00:41.192Z</time></trkpt><trkpt lat="37.6549883" lon="14.630875"><ele>469.8</ele><time>2026-04-26T10:00:42.192Z</time></trkpt><trkpt lat="37.6550067" lon="14.6307383"><ele>469.19999999999993</ele><time>2026-04-26T10:00:44.193Z</time></trkpt><trkpt lat="37.6550867" lon="14.63066"><ele>468.59999999999997</ele><time>2026-04-26T10:00:46.192Z</time></trkpt><trkpt lat="37.65517" lon="14.6307367"><ele>468.0</ele><time>2026-04-26T10:00:48.193Z</time></trkpt><trkpt lat="37.6552083" lon="14.63089"><ele>468.0</ele><time>2026-04-26T10:00:50.193Z</time></trkpt><trkpt lat="37.6552267" lon="14.6309983"><ele>467.99999999999994</ele><time>2026-04-26T10:00:51.192Z</time></trkpt><trkpt lat="37.65525" lon="14.6311"><ele>467.99999999999994</ele><time>2026-04-26T10:00:52.193Z</time></trkpt><trkpt lat="37.6552833" lon="14.631185"><ele>468.0</ele><time>2026-04-26T10:00:53.193Z</time></trkpt><trkpt lat="37.6553817" lon="14.6312683"><ele>468.0</ele><time>2026-04-26T10:00:55.192Z</time></trkpt><trkpt lat="37.655495" lon="14.63125"><ele>465.4</ele><time>2026-04-26T10:00:57.192Z</time></trkpt><trkpt lat="37.655545" lon="14.6311917"><ele>462.79999999999995</ele><time>2026-04-26T10:00:58.192Z</time></trkpt><trkpt lat="37.6555783" lon="14.631105"><ele>460.2</ele><time>2026-04-26T10:00:59.192Z</time></trkpt><trkpt lat="37.6555933" lon="14.6309867"><ele>457.6</ele><time>2026-04-26T10:01:00.193Z</time></trkpt><trkpt lat="37.655605" lon="14.6308483"><ele>455.0</ele><time>2026-04-26T10:01:01.192Z</time></trkpt><trkpt lat="37.65562" lon="14.6306867"><ele>454.0</ele><time>2026-04-26T10:01:02.193Z</time></trkpt><trkpt lat="37.6556483" lon="14.6305117"><ele>453.0</ele><time>2026-04-26T10:01:03.192Z</time></trkpt><trkpt lat="37.6556867" lon="14.6303383"><ele>452.0</ele><time>2026-04-26T10:01:04.192Z</time></trkpt><trkpt lat="37.6557167" lon="14.63016"><ele>451.0</ele><time>2026-04-26T10:01:05.192Z</time></trkpt><trkpt lat="37.6557367" lon="14.6299883"><ele>450.0</ele><time>2026-04-26T10:01:06.192Z</time></trkpt><trkpt lat="37.655755" lon="14.6298233"><ele>449.0</ele><time>2026-04-26T10:01:07.192Z</time></trkpt><trkpt lat="37.6557667" lon="14.6296567"><ele>448.0</ele><time>2026-04-26T10:01:08.193Z</time></trkpt><trkpt lat="37.6557783" lon="14.6294917"><ele>447.0</ele><time>2026-04-26T10:01:09.192Z</time></trkpt><trkpt lat="37.6557933" lon="14.62932"><ele>445.0</ele><time>2026-04-26T10:01:10.192Z</time></trkpt><trkpt lat="37.6558067" lon="14.6291517"><ele>443.0</ele><time>2026-04-26T10:01:11.192Z</time></trkpt><trkpt lat="37.6558233" lon="14.62899"><ele>441.0</ele><time>2026-04-26T10:01:12.193Z</time></trkpt><trkpt lat="37.655845" lon="14.6288383"><ele>439.0</ele><time>2026-04-26T10:01:13.192Z</time></trkpt><trkpt lat="37.6558617" lon="14.6286883"><ele>438.2</ele><time>2026-04-26T10:01:14.193Z</time></trkpt><trkpt lat="37.655875" lon="14.62855"><ele>437.4</ele><time>2026-04-26T10:01:15.192Z</time></trkpt><trkpt lat="37.6558833" lon="14.6284267"><ele>436.6</ele><time>2026-04-26T10:01:16.192Z</time></trkpt><trkpt lat="37.6558917" lon="14.6283183"><ele>435.8</ele><time>2026-04-26T10:01:17.192Z</time></trkpt><trkpt lat="37.6559033" lon="14.6281783"><ele>435.0</ele><time>2026-04-26T10:01:19.192Z</time></trkpt><trkpt lat="37.655935" lon="14.6281067"><ele>435.0</ele><time>2026-04-26T10:01:21.192Z</time></trkpt><trkpt lat="37.6560167" lon="14.6280817"><ele>435.0</ele><time>2026-04-26T10:01:24.192Z</time></trkpt><trkpt lat="37.65613" lon="14.6281667"><ele>435.0</ele><time>2026-04-26T10:01:54.192Z</time></trkpt><trkpt lat="37.65623" lon="14.6282783"><ele>435.0</ele><time>2026-04-26T10:01:56.192Z</time></trkpt><trkpt lat="37.6563067" lon="14.6283533"><ele>435.0</ele><time>2026-04-26T10:01:57.192Z</time></trkpt><trkpt lat="37.656395" lon="14.6284483"><ele>433.75</ele><time>2026-04-26T10:01:58.192Z</time></trkpt><trkpt lat="37.6565033" lon="14.6285467"><ele>432.5</ele><time>2026-04-26T10:01:59.192Z</time></trkpt><trkpt lat="37.6566133" lon="14.6286333"><ele>431.25</ele><time>2026-04-26T10:02:00.192Z</time></trkpt><trkpt lat="37.6567083" lon="14.6287183"><ele>430.0</ele><time>2026-04-26T10:02:01.192Z</time></trkpt><trkpt lat="37.6568017" lon="14.6288017"><ele>430.0</ele><time>2026-04-26T10:02:02.192Z</time></trkpt><trkpt lat="37.6568883" lon="14.6288933"><ele>430.0</ele><time>2026-04-26T10:02:03.192Z</time></trkpt><trkpt lat="37.6569767" lon="14.6289867"><ele>430.0</ele><time>2026-04-26T10:02:04.193Z</time></trkpt><trkpt lat="37.6570417" lon="14.6290883"><ele>430.0</ele><time>2026-04-26T10:02:05.193Z</time></trkpt><trkpt lat="37.6570883" lon="14.6292033"><ele>430.0</ele><time>2026-04-26T10:02:06.192Z</time></trkpt><trkpt lat="37.657125" lon="14.6293133"><ele>429.1666666666667</ele><time>2026-04-26T10:02:07.192Z</time></trkpt><trkpt lat="37.657165" lon="14.6294117"><ele>428.33333333333337</ele><time>2026-04-26T10:02:08.193Z</time></trkpt><trkpt lat="37.6572183" lon="14.629495"><ele>427.5</ele><time>2026-04-26T10:02:09.192Z</time></trkpt><trkpt lat="37.6572783" lon="14.629555"><ele>426.66666666666663</ele><time>2026-04-26T10:02:10.192Z</time></trkpt><trkpt lat="37.6573433" lon="14.62958"><ele>425.8333333333333</ele><time>2026-04-26T10:02:11.193Z</time></trkpt><trkpt lat="37.6574183" lon="14.6295567"><ele>425.0</ele><time>2026-04-26T10:02:12.192Z</time></trkpt><trkpt lat="37.6574817" lon="14.6295017"><ele>424.16666666666663</ele><time>2026-04-26T10:02:13.192Z</time></trkpt><trkpt lat="37.65754" lon="14.6294517"><ele>423.3333333333333</ele><time>2026-04-26T10:02:14.192Z</time></trkpt><trkpt lat="37.6576" lon="14.629385"><ele>422.5</ele><time>2026-04-26T10:02:15.192Z</time></trkpt><trkpt lat="37.6576433" lon="14.6293083"><ele>421.66666666666663</ele><time>2026-04-26T10:02:16.193Z</time></trkpt><trkpt lat="37.6576633" lon="14.629225"><ele>420.8333333333333</ele><time>2026-04-26T10:02:17.192Z</time></trkpt><trkpt lat="37.657665" lon="14.629065"><ele>420.0</ele><time>2026-04-26T10:02:19.192Z</time></trkpt><trkpt lat="37.65764" lon="14.6289783"><ele>420.0</ele><time>2026-04-26T10:02:20.192Z</time></trkpt><trkpt lat="37.657595" lon="14.628895"><ele>420.0</ele><time>2026-04-26T10:02:21.193Z</time></trkpt><trkpt lat="37.6575383" lon="14.62881"><ele>420.0</ele><time>2026-04-26T10:02:22.192Z</time></trkpt><trkpt lat="37.6574767" lon="14.6287367"><ele>420.0</ele><time>2026-04-26T10:02:23.192Z</time></trkpt><trkpt lat="37.657425" lon="14.6286533"><ele>420.0</ele><time>2026-04-26T10:02:24.192Z</time></trkpt><trkpt lat="37.6573733" lon="14.6285583"><ele>420.0</ele><time>2026-04-26T10:02:25.192Z</time></trkpt><trkpt lat="37.6573183" lon="14.6284783"><ele>419.6</ele><time>2026-04-26T10:02:26.193Z</time></trkpt><trkpt lat="37.6572583" lon="14.6283817"><ele>419.2</ele><time>2026-04-26T10:02:27.192Z</time></trkpt><trkpt lat="37.65721" lon="14.6282733"><ele>418.79999999999995</ele><time>2026-04-26T10:02:28.192Z</time></trkpt><trkpt lat="37.6571583" lon="14.6281683"><ele>418.4</ele><time>2026-04-26T10:02:29.192Z</time></trkpt><trkpt lat="37.6571017" lon="14.6280683"><ele>418.0</ele><time>2026-04-26T10:02:30.192Z</time></trkpt><trkpt lat="37.657035" lon="14.6279667"><ele>418.0</ele><time>2026-04-26T10:02:31.192Z</time></trkpt><trkpt lat="37.6569683" lon="14.6278533"><ele>418.0</ele><time>2026-04-26T10:02:32.192Z</time></trkpt><trkpt lat="37.6569" lon="14.6277483"><ele>418.0</ele><time>2026-04-26T10:02:33.192Z</time></trkpt><trkpt lat="37.65683" lon="14.6276467"><ele>418.0</ele><time>2026-04-26T10:02:34.192Z</time></trkpt><trkpt lat="37.6567617" lon="14.62755"><ele>418.0</ele><time>2026-04-26T10:02:35.193Z</time></trkpt><trkpt lat="37.65669" lon="14.6274617"><ele>418.2</ele><time>2026-04-26T10:02:36.192Z</time></trkpt><trkpt lat="37.6566267" lon="14.6273583"><ele>418.4</ele><time>2026-04-26T10:02:37.193Z</time></trkpt><trkpt lat="37.6565617" lon="14.6272583"><ele>418.59999999999997</ele><time>2026-04-26T10:02:38.192Z</time></trkpt><trkpt lat="37.656495" lon="14.6271567"><ele>418.79999999999995</ele><time>2026-04-26T10:02:39.192Z</time></trkpt><trkpt lat="37.656425" lon="14.6270567"><ele>419.0</ele><time>2026-04-26T10:02:40.192Z</time></trkpt><trkpt lat="37.6563633" lon="14.6269633"><ele>419.4</ele><time>2026-04-26T10:02:41.192Z</time></trkpt><trkpt lat="37.6563067" lon="14.626875"><ele>419.79999999999995</ele><time>2026-04-26T10:02:42.192Z</time></trkpt><trkpt lat="37.6562483" lon="14.6267817"><ele>420.20000000000005</ele><time>2026-04-26T10:02:43.192Z</time></trkpt><trkpt lat="37.6561883" lon="14.6266883"><ele>420.6</ele><time>2026-04-26T10:02:44.192Z</time></trkpt><trkpt lat="37.6561417" lon="14.6265817"><ele>421.0</ele><time>2026-04-26T10:02:45.192Z</time></trkpt><trkpt lat="37.656105" lon="14.6264667"><ele>421.0</ele><time>2026-04-26T10:02:46.192Z</time></trkpt><trkpt lat="37.65609" lon="14.6263417"><ele>421.0</ele><time>2026-04-26T10:02:47.192Z</time></trkpt><trkpt lat="37.6560833" lon="14.6262183"><ele>421.0</ele><time>2026-04-26T10:02:48.193Z</time></trkpt><trkpt lat="37.656105" lon="14.6260917"><ele>421.0</ele><time>2026-04-26T10:02:49.192Z</time></trkpt><trkpt lat="37.65614" lon="14.6259783"><ele>421.0</ele><time>2026-04-26T10:02:50.193Z</time></trkpt><trkpt lat="37.656195" lon="14.6258817"><ele>417.6</ele><time>2026-04-26T10:02:51.193Z</time></trkpt><trkpt lat="37.6562617" lon="14.62578"><ele>414.20000000000005</ele><time>2026-04-26T10:02:52.192Z</time></trkpt><trkpt lat="37.6563267" lon="14.6256867"><ele>410.79999999999995</ele><time>2026-04-26T10:02:53.192Z</time></trkpt><trkpt lat="37.6563933" lon="14.625585"><ele>407.4</ele><time>2026-04-26T10:02:54.192Z</time></trkpt><trkpt lat="37.6564633" lon="14.6254867"><ele>404.0</ele><time>2026-04-26T10:02:55.192Z</time></trkpt><trkpt lat="37.6565317" lon="14.625395"><ele>402.8333333333333</ele><time>2026-04-26T10:02:56.192Z</time></trkpt><trkpt lat="37.65659" lon="14.6253083"><ele>401.66666666666663</ele><time>2026-04-26T10:02:57.192Z</time></trkpt><trkpt lat="37.6566417" lon="14.6252283"><ele>400.5</ele><time>2026-04-26T10:02:58.192Z</time></trkpt><trkpt lat="37.6566833" lon="14.625145"><ele>399.33333333333337</ele><time>2026-04-26T10:02:59.192Z</time></trkpt><trkpt lat="37.65672" lon="14.6250567"><ele>398.1666666666667</ele><time>2026-04-26T10:03:00.192Z</time></trkpt><trkpt lat="37.6567517" lon="14.62497"><ele>397.0</ele><time>2026-04-26T10:03:01.192Z</time></trkpt><trkpt lat="37.656785" lon="14.6248783"><ele>397.00000000000006</ele><time>2026-04-26T10:03:02.193Z</time></trkpt><trkpt lat="37.65682" lon="14.6247867"><ele>397.0</ele><time>2026-04-26T10:03:03.192Z</time></trkpt><trkpt lat="37.6568567" lon="14.6247"><ele>397.0</ele><time>2026-04-26T10:03:04.192Z</time></trkpt><trkpt lat="37.6568917" lon="14.624605"><ele>397.0</ele><time>2026-04-26T10:03:05.192Z</time></trkpt><trkpt lat="37.6569233" lon="14.624515"><ele>397.00000000000006</ele><time>2026-04-26T10:03:06.192Z</time></trkpt><trkpt lat="37.6569567" lon="14.6244217"><ele>397.0</ele><time>2026-04-26T10:03:07.193Z</time></trkpt><trkpt lat="37.65699" lon="14.6243383"><ele>395.83333333333337</ele><time>2026-04-26T10:03:08.192Z</time></trkpt><trkpt lat="37.6570183" lon="14.62426"><ele>394.6666666666667</ele><time>2026-04-26T10:03:09.193Z</time></trkpt><trkpt lat="37.6570633" lon="14.6241383"><ele>393.5</ele><time>2026-04-26T10:03:11.192Z</time></trkpt><trkpt lat="37.6571017" lon="14.6240483"><ele>392.33333333333337</ele><time>2026-04-26T10:03:13.192Z</time></trkpt><trkpt lat="37.65713" lon="14.623975"><ele>391.1666666666667</ele><time>2026-04-26T10:03:15.192Z</time></trkpt><trkpt lat="37.65717" lon="14.6238867"><ele>390.0</ele><time>2026-04-26T10:03:19.192Z</time></trkpt><trkpt lat="37.6572183" lon="14.623795"><ele>390.0</ele><time>2026-04-26T10:03:32.192Z</time></trkpt><trkpt lat="37.6571333" lon="14.6238917"><ele>390.0</ele><time>2026-04-26T10:04:41.191Z</time></trkpt><trkpt lat="37.6571017" lon="14.62397"><ele>390.0</ele><time>2026-04-26T10:04:42.191Z</time></trkpt><trkpt lat="37.65707" lon="14.6240533"><ele>390.0</ele><time>2026-04-26T10:04:43.191Z</time></trkpt><trkpt lat="37.6570283" lon="14.6241617"><ele>390.0</ele><time>2026-04-26T10:04:44.191Z</time></trkpt><trkpt lat="37.656975" lon="14.6242967"><ele>390.5</ele><time>2026-04-26T10:04:45.191Z</time></trkpt><trkpt lat="37.6569267" lon="14.6244467"><ele>391.0</ele><time>2026-04-26T10:04:46.192Z</time></trkpt><trkpt lat="37.65688" lon="14.6245967"><ele>391.5</ele><time>2026-04-26T10:04:47.191Z</time></trkpt><trkpt lat="37.6568217" lon="14.6247383"><ele>392.0</ele><time>2026-04-26T10:04:48.191Z</time></trkpt><trkpt lat="37.65677" lon="14.6248867"><ele>393.25</ele><time>2026-04-26T10:04:49.191Z</time></trkpt><trkpt lat="37.6567067" lon="14.62503"><ele>394.5</ele><time>2026-04-26T10:04:50.192Z</time></trkpt><trkpt lat="37.656645" lon="14.625165"><ele>395.75</ele><time>2026-04-26T10:04:51.191Z</time></trkpt><trkpt lat="37.6565717" lon="14.6253017"><ele>397.0</ele><time>2026-04-26T10:04:52.191Z</time></trkpt><trkpt lat="37.6564817" lon="14.625425"><ele>398.75</ele><time>2026-04-26T10:04:53.191Z</time></trkpt><trkpt lat="37.65639" lon="14.6255517"><ele>400.5</ele><time>2026-04-26T10:04:54.191Z</time></trkpt><trkpt lat="37.656285" lon="14.625675"><ele>402.25</ele><time>2026-04-26T10:04:55.192Z</time></trkpt><trkpt lat="37.6561983" lon="14.625795"><ele>404.0</ele><time>2026-04-26T10:04:56.192Z</time></trkpt><trkpt lat="37.6561283" lon="14.6258983"><ele>405.6</ele><time>2026-04-26T10:04:57.191Z</time></trkpt><trkpt lat="37.6560817" lon="14.6260183"><ele>407.2</ele><time>2026-04-26T10:04:58.191Z</time></trkpt><trkpt lat="37.656055" lon="14.6261517"><ele>408.8</ele><time>2026-04-26T10:04:59.192Z</time></trkpt><trkpt lat="37.656055" lon="14.6262917"><ele>410.40000000000003</ele><time>2026-04-26T10:05:00.191Z</time></trkpt><trkpt lat="37.656075" lon="14.62644"><ele>412.0</ele><time>2026-04-26T10:05:01.191Z</time></trkpt><trkpt lat="37.6561117" lon="14.6265783"><ele>412.0</ele><time>2026-04-26T10:05:02.192Z</time></trkpt><trkpt lat="37.6561733" lon="14.6267083"><ele>412.0</ele><time>2026-04-26T10:05:03.192Z</time></trkpt><trkpt lat="37.6562517" lon="14.6268333"><ele>412.0</ele><time>2026-04-26T10:05:04.192Z</time></trkpt><trkpt lat="37.65633" lon="14.6269567"><ele>412.0</ele><time>2026-04-26T10:05:05.191Z</time></trkpt><trkpt lat="37.65641" lon="14.6270733"><ele>413.40000000000003</ele><time>2026-04-26T10:05:06.192Z</time></trkpt><trkpt lat="37.6564867" lon="14.627175"><ele>414.8</ele><time>2026-04-26T10:05:07.191Z</time></trkpt><trkpt lat="37.6565583" lon="14.6272817"><ele>416.2</ele><time>2026-04-26T10:05:08.191Z</time></trkpt><trkpt lat="37.65663" lon="14.627385"><ele>417.6</ele><time>2026-04-26T10:05:09.192Z</time></trkpt><trkpt lat="37.656705" lon="14.627495"><ele>419.0</ele><time>2026-04-26T10:05:10.191Z</time></trkpt><trkpt lat="37.6567683" lon="14.6275967"><ele>418.99999999999994</ele><time>2026-04-26T10:05:11.191Z</time></trkpt><trkpt lat="37.6568317" lon="14.6276883"><ele>419.0</ele><time>2026-04-26T10:05:12.191Z</time></trkpt><trkpt lat="37.656885" lon="14.6277717"><ele>419.0</ele><time>2026-04-26T10:05:13.191Z</time></trkpt><trkpt lat="37.6569317" lon="14.6278433"><ele>419.0</ele><time>2026-04-26T10:05:14.192Z</time></trkpt><trkpt lat="37.6569717" lon="14.62791"><ele>418.99999999999994</ele><time>2026-04-26T10:05:15.191Z</time></trkpt><trkpt lat="37.65701" lon="14.6279733"><ele>419.0</ele><time>2026-04-26T10:05:16.191Z</time></trkpt><trkpt lat="37.657085" lon="14.6280867"><ele>418.79999999999995</ele><time>2026-04-26T10:05:18.191Z</time></trkpt><trkpt lat="37.65715" lon="14.6282"><ele>418.59999999999997</ele><time>2026-04-26T10:05:20.192Z</time></trkpt><trkpt lat="37.6572067" lon="14.62831"><ele>418.4</ele><time>2026-04-26T10:05:22.191Z</time></trkpt><trkpt lat="37.6572533" lon="14.6284117"><ele>418.2</ele><time>2026-04-26T10:05:24.191Z</time></trkpt><trkpt lat="37.657305" lon="14.6285067"><ele>418.0</ele><time>2026-04-26T10:05:26.191Z</time></trkpt><trkpt lat="37.6573483" lon="14.62859"><ele>418.33333333333337</ele><time>2026-04-26T10:05:28.191Z</time></trkpt><trkpt lat="37.6573883" lon="14.6286733"><ele>418.6666666666667</ele><time>2026-04-26T10:05:31.191Z</time></trkpt><trkpt lat="37.657435" lon="14.6287317"><ele>419.0</ele><time>2026-04-26T10:06:30.191Z</time></trkpt><trkpt lat="37.6575183" lon="14.62886"><ele>419.33333333333337</ele><time>2026-04-26T10:06:32.191Z</time></trkpt><trkpt lat="37.6575717" lon="14.6289483"><ele>419.6666666666667</ele><time>2026-04-26T10:06:33.191Z</time></trkpt><trkpt lat="37.65761" lon="14.6290367"><ele>420.0</ele><time>2026-04-26T10:06:34.191Z</time></trkpt><trkpt lat="37.6576383" lon="14.6291217"><ele>420.0</ele><time>2026-04-26T10:06:35.191Z</time></trkpt><trkpt lat="37.6576567" lon="14.6292083"><ele>420.0</ele><time>2026-04-26T10:06:36.191Z</time></trkpt><trkpt lat="37.6576817" lon="14.6293467"><ele>420.0</ele><time>2026-04-26T10:06:38.191Z</time></trkpt><trkpt lat="37.65755" lon="14.62951"><ele>420.0</ele><time>2026-04-26T10:06:40.191Z</time></trkpt><trkpt lat="37.6574883" lon="14.6295433"><ele>420.0</ele><time>2026-04-26T10:06:41.191Z</time></trkpt><trkpt lat="37.6574083" lon="14.62957"><ele>420.0</ele><time>2026-04-26T10:06:42.191Z</time></trkpt><trkpt lat="37.657315" lon="14.62955"><ele>420.0</ele><time>2026-04-26T10:06:43.191Z</time></trkpt><trkpt lat="37.6572283" lon="14.6294917"><ele>420.0</ele><time>2026-04-26T10:06:44.191Z</time></trkpt><trkpt lat="37.6571667" lon="14.6293933"><ele>420.0</ele><time>2026-04-26T10:06:45.191Z</time></trkpt><trkpt lat="37.6571283" lon="14.6292633"><ele>420.0</ele><time>2026-04-26T10:06:46.191Z</time></trkpt><trkpt lat="37.6570933" lon="14.6291433"><ele>420.0</ele><time>2026-04-26T10:06:47.191Z</time></trkpt><trkpt lat="37.6570467" lon="14.6290217"><ele>420.0</ele><time>2026-04-26T10:06:48.191Z</time></trkpt><trkpt lat="37.6569783" lon="14.628915"><ele>420.0</ele><time>2026-04-26T10:06:49.191Z</time></trkpt><trkpt lat="37.6568833" lon="14.6288167"><ele>420.0</ele><time>2026-04-26T10:06:50.191Z</time></trkpt><trkpt lat="37.6567833" lon="14.6287233"><ele>421.0</ele><time>2026-04-26T10:06:51.191Z</time></trkpt><trkpt lat="37.65668" lon="14.6286233"><ele>422.0</ele><time>2026-04-26T10:06:52.191Z</time></trkpt><trkpt lat="37.6565633" lon="14.6285267"><ele>423.0</ele><time>2026-04-26T10:06:53.191Z</time></trkpt><trkpt lat="37.6564433" lon="14.6284367"><ele>424.0</ele><time>2026-04-26T10:06:54.191Z</time></trkpt><trkpt lat="37.6563283" lon="14.6283567"><ele>424.0</ele><time>2026-04-26T10:06:55.191Z</time></trkpt><trkpt lat="37.6562333" lon="14.62828"><ele>424.0</ele><time>2026-04-26T10:06:56.192Z</time></trkpt><trkpt lat="37.656155" lon="14.6282033"><ele>424.0</ele><time>2026-04-26T10:06:57.191Z</time></trkpt><trkpt lat="37.6560867" lon="14.6281433"><ele>424.0</ele><time>2026-04-26T10:06:58.192Z</time></trkpt><trkpt lat="37.655975" lon="14.6281017"><ele>424.0</ele><time>2026-04-26T10:07:00.191Z</time></trkpt><trkpt lat="37.6558917" lon="14.6281567"><ele>426.75</ele><time>2026-04-26T10:07:02.192Z</time></trkpt><trkpt lat="37.6558483" lon="14.6283217"><ele>429.5</ele><time>2026-04-26T10:07:04.191Z</time></trkpt><trkpt lat="37.6558417" lon="14.6284483"><ele>432.25</ele><time>2026-04-26T10:07:05.191Z</time></trkpt><trkpt lat="37.6558283" lon="14.62859"><ele>435.0</ele><time>2026-04-26T10:07:06.191Z</time></trkpt><trkpt lat="37.6558133" lon="14.6287483"><ele>436.0</ele><time>2026-04-26T10:07:07.191Z</time></trkpt><trkpt lat="37.6557967" lon="14.6289117"><ele>437.0</ele><time>2026-04-26T10:07:08.191Z</time></trkpt><trkpt lat="37.6557783" lon="14.629075"><ele>438.0</ele><time>2026-04-26T10:07:09.191Z</time></trkpt><trkpt lat="37.6557683" lon="14.629255"><ele>439.0</ele><time>2026-04-26T10:07:10.192Z</time></trkpt><trkpt lat="37.6557533" lon="14.6294367"><ele>441.6666666666667</ele><time>2026-04-26T10:07:11.191Z</time></trkpt><trkpt lat="37.6557383" lon="14.629635"><ele>444.33333333333337</ele><time>2026-04-26T10:07:12.191Z</time></trkpt><trkpt lat="37.6557183" lon="14.6298317"><ele>447.0</ele><time>2026-04-26T10:07:13.192Z</time></trkpt><trkpt lat="37.6556983" lon="14.6300283"><ele>447.0</ele><time>2026-04-26T10:07:14.191Z</time></trkpt><trkpt lat="37.6556767" lon="14.6302167"><ele>447.0</ele><time>2026-04-26T10:07:15.191Z</time></trkpt><trkpt lat="37.6556517" lon="14.630405"><ele>447.0</ele><time>2026-04-26T10:07:16.191Z</time></trkpt><trkpt lat="37.6556267" lon="14.6305767"><ele>447.0</ele><time>2026-04-26T10:07:17.191Z</time></trkpt><trkpt lat="37.6556083" lon="14.6307267"><ele>447.6666666666667</ele><time>2026-04-26T10:07:18.191Z</time></trkpt><trkpt lat="37.6555817" lon="14.6308617"><ele>448.33333333333337</ele><time>2026-04-26T10:07:19.191Z</time></trkpt><trkpt lat="37.6555567" lon="14.63098"><ele>449.0</ele><time>2026-04-26T10:07:20.191Z</time></trkpt><trkpt lat="37.6555367" lon="14.63108"><ele>449.6666666666667</ele><time>2026-04-26T10:07:21.191Z</time></trkpt><trkpt lat="37.6555167" lon="14.63116"><ele>450.33333333333337</ele><time>2026-04-26T10:07:22.191Z</time></trkpt><trkpt lat="37.6554783" lon="14.631225"><ele>451.0</ele><time>2026-04-26T10:07:23.191Z</time></trkpt><trkpt lat="37.6554217" lon="14.6312633"><ele>451.8</ele><time>2026-04-26T10:07:24.191Z</time></trkpt><trkpt lat="37.6553083" lon="14.6312217"><ele>452.6</ele><time>2026-04-26T10:07:26.192Z</time></trkpt><trkpt lat="37.6552583" lon="14.6311383"><ele>453.4</ele><time>2026-04-26T10:07:27.191Z</time></trkpt><trkpt lat="37.65524" lon="14.6310333"><ele>454.2</ele><time>2026-04-26T10:07:28.191Z</time></trkpt><trkpt lat="37.655235" lon="14.6309233"><ele>455.0</ele><time>2026-04-26T10:07:29.192Z</time></trkpt><trkpt lat="37.6552233" lon="14.6308167"><ele>456.8571428571429</ele><time>2026-04-26T10:07:30.191Z</time></trkpt><trkpt lat="37.6551867" lon="14.6307283"><ele>458.7142857142857</ele><time>2026-04-26T10:07:31.191Z</time></trkpt><trkpt lat="37.6551333" lon="14.6306733"><ele>460.57142857142856</ele><time>2026-04-26T10:07:32.191Z</time></trkpt><trkpt lat="37.6550683" lon="14.6306583"><ele>462.42857142857144</ele><time>2026-04-26T10:07:33.192Z</time></trkpt><trkpt lat="37.6550067" lon="14.630705"><ele>464.28571428571433</ele><time>2026-04-26T10:07:34.191Z</time></trkpt><trkpt lat="37.6549683" lon="14.6307783"><ele>466.14285714285717</ele><time>2026-04-26T10:07:35.191Z</time></trkpt><trkpt lat="37.654955" lon="14.630875"><ele>468.0</ele><time>2026-04-26T10:07:36.192Z</time></trkpt><trkpt lat="37.6549667" lon="14.6309867"><ele>468.0</ele><time>2026-04-26T10:07:37.191Z</time></trkpt><trkpt lat="37.654985" lon="14.6311167"><ele>468.0</ele><time>2026-04-26T10:07:38.191Z</time></trkpt><trkpt lat="37.6550033" lon="14.6312617"><ele>468.0</ele><time>2026-04-26T10:07:39.191Z</time></trkpt><trkpt lat="37.655025" lon="14.6314167"><ele>468.0</ele><time>2026-04-26T10:07:40.191Z</time></trkpt><trkpt lat="37.6550367" lon="14.6315717"><ele>468.75</ele><time>2026-04-26T10:07:41.191Z</time></trkpt><trkpt lat="37.655055" lon="14.6317233"><ele>469.5</ele><time>2026-04-26T10:07:42.191Z</time></trkpt><trkpt lat="37.655075" lon="14.63187"><ele>470.25</ele><time>2026-04-26T10:07:43.191Z</time></trkpt><trkpt lat="37.6550817" lon="14.63201"><ele>471.0</ele><time>2026-04-26T10:07:44.191Z</time></trkpt><trkpt lat="37.6550667" lon="14.63214"><ele>471.6</ele><time>2026-04-26T10:07:45.191Z</time></trkpt><trkpt lat="37.655035" lon="14.63226"><ele>472.20000000000005</ele><time>2026-04-26T10:07:46.191Z</time></trkpt><trkpt lat="37.655005" lon="14.63237"><ele>472.79999999999995</ele><time>2026-04-26T10:07:47.191Z</time></trkpt><trkpt lat="37.6549667" lon="14.6324717"><ele>473.4</ele><time>2026-04-26T10:07:48.191Z</time></trkpt><trkpt lat="37.65492" lon="14.6325617"><ele>474.0</ele><time>2026-04-26T10:07:49.191Z</time></trkpt><trkpt lat="37.6548667" lon="14.6326433"><ele>474.0</ele><time>2026-04-26T10:07:50.191Z</time></trkpt><trkpt lat="37.6548217" lon="14.63271"><ele>474.0</ele><time>2026-04-26T10:07:51.192Z</time></trkpt><trkpt lat="37.6547967" lon="14.6328217"><ele>474.0</ele><time>2026-04-26T10:07:53.191Z</time></trkpt><trkpt lat="37.65484" lon="14.63288"><ele>474.0</ele><time>2026-04-26T10:07:56.191Z</time></trkpt><trkpt lat="37.6549167" lon="14.6329233"><ele>474.0</ele><time>2026-04-26T10:07:59.191Z</time></trkpt><trkpt lat="37.6550217" lon="14.63303"><ele>474.0</ele><time>2026-04-26T10:08:01.191Z</time></trkpt><trkpt lat="37.6550833" lon="14.6331183"><ele>476.25</ele><time>2026-04-26T10:08:02.192Z</time></trkpt><trkpt lat="37.65515" lon="14.6332233"><ele>478.5</ele><time>2026-04-26T10:08:03.191Z</time></trkpt><trkpt lat="37.6552183" lon="14.633345"><ele>480.75</ele><time>2026-04-26T10:08:04.192Z</time></trkpt><trkpt lat="37.6552867" lon="14.633475"><ele>483.0</ele><time>2026-04-26T10:08:05.191Z</time></trkpt><trkpt lat="37.6553517" lon="14.6336133"><ele>481.0</ele><time>2026-04-26T10:08:06.191Z</time></trkpt><trkpt lat="37.65542" lon="14.6337533"><ele>479.0</ele><time>2026-04-26T10:08:07.191Z</time></trkpt><trkpt lat="37.6554933" lon="14.63389"><ele>477.0</ele><time>2026-04-26T10:08:08.191Z</time></trkpt><trkpt lat="37.6555617" lon="14.63402"><ele>475.0</ele><time>2026-04-26T10:08:09.191Z</time></trkpt><trkpt lat="37.6556433" lon="14.634135"><ele>475.0</ele><time>2026-04-26T10:08:10.191Z</time></trkpt><trkpt lat="37.6557317" lon="14.6342433"><ele>475.0</ele><time>2026-04-26T10:08:11.191Z</time></trkpt><trkpt lat="37.655825" lon="14.6343383"><ele>475.0</ele><time>2026-04-26T10:08:12.191Z</time></trkpt><trkpt lat="37.6559183" lon="14.6344367"><ele>475.0</ele><time>2026-04-26T10:08:13.191Z</time></trkpt><trkpt lat="37.6560017" lon="14.6345283"><ele>474.6</ele><time>2026-04-26T10:08:14.191Z</time></trkpt><trkpt lat="37.6560717" lon="14.634615"><ele>474.2</ele><time>2026-04-26T10:08:15.191Z</time></trkpt><trkpt lat="37.6561467" lon="14.6347083"><ele>473.79999999999995</ele><time>2026-04-26T10:08:16.191Z</time></trkpt><trkpt lat="37.6562417" lon="14.6348017"><ele>473.4</ele><time>2026-04-26T10:08:17.192Z</time></trkpt><trkpt lat="37.656335" lon="14.634905"><ele>473.0</ele><time>2026-04-26T10:08:18.191Z</time></trkpt><trkpt lat="37.6564333" lon="14.6350117"><ele>473.0</ele><time>2026-04-26T10:08:19.191Z</time></trkpt><trkpt lat="37.6565383" lon="14.6351117"><ele>473.0</ele><time>2026-04-26T10:08:20.191Z</time></trkpt><trkpt lat="37.6566467" lon="14.63521"><ele>473.0</ele><time>2026-04-26T10:08:21.191Z</time></trkpt><trkpt lat="37.65676" lon="14.6353067"><ele>473.0</ele><time>2026-04-26T10:08:22.191Z</time></trkpt><trkpt lat="37.6568717" lon="14.6353933"><ele>473.0</ele><time>2026-04-26T10:08:23.191Z</time></trkpt><trkpt lat="37.6569967" lon="14.6354733"><ele>473.0</ele><time>2026-04-26T10:08:24.191Z</time></trkpt><trkpt lat="37.6571217" lon="14.6355483"><ele>473.0</ele><time>2026-04-26T10:08:25.192Z</time></trkpt><trkpt lat="37.6572567" lon="14.6356183"><ele>473.0</ele><time>2026-04-26T10:08:26.191Z</time></trkpt><trkpt lat="37.6573833" lon="14.6356883"><ele>473.0</ele><time>2026-04-26T10:08:27.191Z</time></trkpt><trkpt lat="37.6575217" lon="14.6357533"><ele>473.0</ele><time>2026-04-26T10:08:28.191Z</time></trkpt><trkpt lat="37.657675" lon="14.635815"><ele>473.0</ele><time>2026-04-26T10:08:29.191Z</time></trkpt><trkpt lat="37.6578283" lon="14.6358667"><ele>470.3333333333333</ele><time>2026-04-26T10:08:30.192Z</time></trkpt><trkpt lat="37.65798" lon="14.6359283"><ele>467.66666666666663</ele><time>2026-04-26T10:08:31.191Z</time></trkpt><trkpt lat="37.6581333" lon="14.63597"><ele>465.0</ele><time>2026-04-26T10:08:32.191Z</time></trkpt><trkpt lat="37.6582817" lon="14.6360183"><ele>465.0</ele><time>2026-04-26T10:08:33.191Z</time></trkpt><trkpt lat="37.6584317" lon="14.636065"><ele>465.0</ele><time>2026-04-26T10:08:34.191Z</time></trkpt><trkpt lat="37.65858" lon="14.636115"><ele>465.0</ele><time>2026-04-26T10:08:35.192Z</time></trkpt><trkpt lat="37.6587333" lon="14.6361733"><ele>466.0</ele><time>2026-04-26T10:08:36.192Z</time></trkpt><trkpt lat="37.65888" lon="14.6362283"><ele>467.0</ele><time>2026-04-26T10:08:37.191Z</time></trkpt><trkpt lat="37.6590283" lon="14.6362733"><ele>468.0</ele><time>2026-04-26T10:08:38.191Z</time></trkpt><trkpt lat="37.65917" lon="14.636325"><ele>468.0</ele><time>2026-04-26T10:08:39.192Z</time></trkpt><trkpt lat="37.65931" lon="14.636375"><ele>468.0</ele><time>2026-04-26T10:08:40.191Z</time></trkpt><trkpt lat="37.6594517" lon="14.6364233"><ele>468.0</ele><time>2026-04-26T10:08:41.191Z</time></trkpt><trkpt lat="37.659585" lon="14.63647"><ele>468.0</ele><time>2026-04-26T10:08:42.191Z</time></trkpt><trkpt lat="37.6597233" lon="14.63652"><ele>465.75</ele><time>2026-04-26T10:08:43.191Z</time></trkpt><trkpt lat="37.6598617" lon="14.63657"><ele>463.5</ele><time>2026-04-26T10:08:44.191Z</time></trkpt><trkpt lat="37.6599833" lon="14.636615"><ele>461.25</ele><time>2026-04-26T10:08:45.192Z</time></trkpt><trkpt lat="37.6601133" lon="14.63667"><ele>459.0</ele><time>2026-04-26T10:08:46.191Z</time></trkpt><trkpt lat="37.660245" lon="14.6367367"><ele>458.75</ele><time>2026-04-26T10:08:47.191Z</time></trkpt><trkpt lat="37.660375" lon="14.63681"><ele>458.5</ele><time>2026-04-26T10:08:48.191Z</time></trkpt><trkpt lat="37.6605" lon="14.63688"><ele>458.25</ele><time>2026-04-26T10:08:49.191Z</time></trkpt><trkpt lat="37.6606167" lon="14.6369583"><ele>458.0</ele><time>2026-04-26T10:08:50.191Z</time></trkpt><trkpt lat="37.660725" lon="14.637035"><ele>458.0</ele><time>2026-04-26T10:08:51.191Z</time></trkpt><trkpt lat="37.6608433" lon="14.63711"><ele>458.0</ele><time>2026-04-26T10:08:52.191Z</time></trkpt><trkpt lat="37.6609517" lon="14.6371867"><ele>458.0</ele><time>2026-04-26T10:08:53.191Z</time></trkpt><trkpt lat="37.6610567" lon="14.6372683"><ele>458.0</ele><time>2026-04-26T10:08:54.191Z</time></trkpt><trkpt lat="37.66115" lon="14.6373483"><ele>456.8333333333333</ele><time>2026-04-26T10:08:55.192Z</time></trkpt><trkpt lat="37.6612267" lon="14.63742"><ele>455.66666666666663</ele><time>2026-04-26T10:08:56.191Z</time></trkpt><trkpt lat="37.6613033" lon="14.6374833"><ele>454.5</ele><time>2026-04-26T10:08:57.191Z</time></trkpt><trkpt lat="37.6613767" lon="14.6375217"><ele>453.33333333333337</ele><time>2026-04-26T10:08:58.191Z</time></trkpt><trkpt lat="37.661465" lon="14.6375433"><ele>452.1666666666667</ele><time>2026-04-26T10:08:59.191Z</time></trkpt><trkpt lat="37.661555" lon="14.6375467"><ele>451.0</ele><time>2026-04-26T10:09:00.191Z</time></trkpt><trkpt lat="37.6616467" lon="14.6375483"><ele>451.00000000000006</ele><time>2026-04-26T10:09:01.191Z</time></trkpt><trkpt lat="37.661735" lon="14.637545"><ele>451.0</ele><time>2026-04-26T10:09:02.191Z</time></trkpt><trkpt lat="37.66182" lon="14.6375383"><ele>451.0</ele><time>2026-04-26T10:09:03.192Z</time></trkpt><trkpt lat="37.6619067" lon="14.637525"><ele>451.0</ele><time>2026-04-26T10:09:04.191Z</time></trkpt><trkpt lat="37.6619867" lon="14.6375183"><ele>451.00000000000006</ele><time>2026-04-26T10:09:05.192Z</time></trkpt><trkpt lat="37.6620717" lon="14.6375017"><ele>451.0</ele><time>2026-04-26T10:09:06.191Z</time></trkpt><trkpt lat="37.6621617" lon="14.6374633"><ele>451.8</ele><time>2026-04-26T10:09:07.191Z</time></trkpt><trkpt lat="37.66226" lon="14.6374167"><ele>452.6</ele><time>2026-04-26T10:09:08.191Z</time></trkpt><trkpt lat="37.6623583" lon="14.6373533"><ele>453.4</ele><time>2026-04-26T10:09:09.191Z</time></trkpt><trkpt lat="37.662445" lon="14.637285"><ele>454.2</ele><time>2026-04-26T10:09:10.191Z</time></trkpt><trkpt lat="37.6625267" lon="14.6372033"><ele>455.0</ele><time>2026-04-26T10:09:11.191Z</time></trkpt><trkpt lat="37.6626033" lon="14.6371"><ele>455.0</ele><time>2026-04-26T10:09:12.192Z</time></trkpt><trkpt lat="37.6626533" lon="14.63698"><ele>455.0</ele><time>2026-04-26T10:09:13.191Z</time></trkpt><trkpt lat="37.6626867" lon="14.6368317"><ele>455.0</ele><time>2026-04-26T10:09:14.191Z</time></trkpt><trkpt lat="37.6626967" lon="14.6366767"><ele>455.0</ele><time>2026-04-26T10:09:15.192Z</time></trkpt><trkpt lat="37.6627067" lon="14.6365167"><ele>454.5</ele><time>2026-04-26T10:09:16.191Z</time></trkpt><trkpt lat="37.66272" lon="14.6363467"><ele>454.0</ele><time>2026-04-26T10:09:17.191Z</time></trkpt><trkpt lat="37.6627483" lon="14.63618"><ele>453.5</ele><time>2026-04-26T10:09:18.191Z</time></trkpt><trkpt lat="37.66277" lon="14.6360133"><ele>453.0</ele><time>2026-04-26T10:09:19.191Z</time></trkpt><trkpt lat="37.6627833" lon="14.6358417"><ele>454.75</ele><time>2026-04-26T10:09:20.191Z</time></trkpt><trkpt lat="37.662795" lon="14.6356633"><ele>456.5</ele><time>2026-04-26T10:09:21.191Z</time></trkpt><trkpt lat="37.662815" lon="14.6354833"><ele>458.25</ele><time>2026-04-26T10:09:22.19Z</time></trkpt><trkpt lat="37.6628267" lon="14.6353033"><ele>460.0</ele><time>2026-04-26T10:09:23.19Z</time></trkpt><trkpt lat="37.6628383" lon="14.635135"><ele>460.0</ele><time>2026-04-26T10:09:24.19Z</time></trkpt><trkpt lat="37.66284" lon="14.6349567"><ele>460.0</ele><time>2026-04-26T10:09:25.191Z</time></trkpt><trkpt lat="37.6628267" lon="14.6347683"><ele>460.0</ele><time>2026-04-26T10:09:26.19Z</time></trkpt><trkpt lat="37.662815" lon="14.6345883"><ele>460.0</ele><time>2026-04-26T10:09:27.19Z</time></trkpt><trkpt lat="37.6628067" lon="14.6344117"><ele>460.0</ele><time>2026-04-26T10:09:28.19Z</time></trkpt><trkpt lat="37.6628133" lon="14.6342467"><ele>460.0</ele><time>2026-04-26T10:09:29.19Z</time></trkpt><trkpt lat="37.66283" lon="14.6340883"><ele>460.0</ele><time>2026-04-26T10:09:30.19Z</time></trkpt><trkpt lat="37.6628467" lon="14.6339317"><ele>460.0</ele><time>2026-04-26T10:09:31.191Z</time></trkpt><trkpt lat="37.662875" lon="14.633785"><ele>460.0</ele><time>2026-04-26T10:09:32.19Z</time></trkpt><trkpt lat="37.66292" lon="14.6336533"><ele>460.0</ele><time>2026-04-26T10:09:33.19Z</time></trkpt><trkpt lat="37.6629783" lon="14.6335283"><ele>460.0</ele><time>2026-04-26T10:09:34.19Z</time></trkpt><trkpt lat="37.6630583" lon="14.633405"><ele>460.0</ele><time>2026-04-26T10:09:35.19Z</time></trkpt><trkpt lat="37.66316" lon="14.6332817"><ele>459.6666666666667</ele><time>2026-04-26T10:09:36.19Z</time></trkpt><trkpt lat="37.6632683" lon="14.633165"><ele>459.33333333333337</ele><time>2026-04-26T10:09:37.19Z</time></trkpt><trkpt lat="37.6633883" lon="14.6330467"><ele>459.0</ele><time>2026-04-26T10:09:38.19Z</time></trkpt><trkpt lat="37.6635117" lon="14.63292"><ele>458.33333333333337</ele><time>2026-04-26T10:09:39.19Z</time></trkpt><trkpt lat="37.6636333" lon="14.6327933"><ele>457.6666666666667</ele><time>2026-04-26T10:09:40.191Z</time></trkpt><trkpt lat="37.66376" lon="14.6326733"><ele>457.0</ele><time>2026-04-26T10:09:41.19Z</time></trkpt><trkpt lat="37.6638783" lon="14.632555"><ele>457.0</ele><time>2026-04-26T10:09:42.19Z</time></trkpt><trkpt lat="37.6639983" lon="14.6324283"><ele>457.0</ele><time>2026-04-26T10:09:43.19Z</time></trkpt><trkpt lat="37.6641" lon="14.6322833"><ele>457.0</ele><time>2026-04-26T10:09:44.19Z</time></trkpt><trkpt lat="37.6642" lon="14.6321333"><ele>457.0</ele><time>2026-04-26T10:09:45.19Z</time></trkpt><trkpt lat="37.6643017" lon="14.6319767"><ele>457.0</ele><time>2026-04-26T10:09:46.19Z</time></trkpt><trkpt lat="37.664415" lon="14.63182"><ele>457.0</ele><time>2026-04-26T10:09:47.19Z</time></trkpt><trkpt lat="37.6645217" lon="14.631665"><ele>459.0</ele><time>2026-04-26T10:09:48.19Z</time></trkpt><trkpt lat="37.6646283" lon="14.6315083"><ele>461.0</ele><time>2026-04-26T10:09:49.19Z</time></trkpt><trkpt lat="37.6647267" lon="14.631355"><ele>463.0</ele><time>2026-04-26T10:09:50.19Z</time></trkpt><trkpt lat="37.6648233" lon="14.6311967"><ele>462.5</ele><time>2026-04-26T10:09:51.19Z</time></trkpt><trkpt lat="37.664915" lon="14.6310467"><ele>462.0</ele><time>2026-04-26T10:09:52.19Z</time></trkpt><trkpt lat="37.6650083" lon="14.6309067"><ele>461.5</ele><time>2026-04-26T10:09:53.191Z</time></trkpt><trkpt lat="37.6651117" lon="14.630765"><ele>461.0</ele><time>2026-04-26T10:09:54.19Z</time></trkpt><trkpt lat="37.665225" lon="14.63063"><ele>464.66666666666663</ele><time>2026-04-26T10:09:55.19Z</time></trkpt><trkpt lat="37.6653433" lon="14.6305083"><ele>468.33333333333337</ele><time>2026-04-26T10:09:56.191Z</time></trkpt><trkpt lat="37.66547" lon="14.63038"><ele>472.0</ele><time>2026-04-26T10:09:57.19Z</time></trkpt><trkpt lat="37.6655967" lon="14.6302517"><ele>472.0</ele><time>2026-04-26T10:09:58.19Z</time></trkpt><trkpt lat="37.665715" lon="14.630115"><ele>472.0</ele><time>2026-04-26T10:09:59.19Z</time></trkpt><trkpt lat="37.665835" lon="14.629975"><ele>472.0</ele><time>2026-04-26T10:10:00.19Z</time></trkpt><trkpt lat="37.665955" lon="14.6298267"><ele>472.0</ele><time>2026-04-26T10:10:01.19Z</time></trkpt><trkpt lat="37.6660733" lon="14.6296767"><ele>472.0</ele><time>2026-04-26T10:10:02.19Z</time></trkpt><trkpt lat="37.6661833" lon="14.6295183"><ele>472.0</ele><time>2026-04-26T10:10:03.19Z</time></trkpt><trkpt lat="37.66629" lon="14.6293667"><ele>474.5</ele><time>2026-04-26T10:10:04.191Z</time></trkpt><trkpt lat="37.66639" lon="14.6292233"><ele>477.0</ele><time>2026-04-26T10:10:05.191Z</time></trkpt><trkpt lat="37.6664783" lon="14.6290883"><ele>479.5</ele><time>2026-04-26T10:10:06.19Z</time></trkpt><trkpt lat="37.6665583" lon="14.628955"><ele>482.0</ele><time>2026-04-26T10:10:07.19Z</time></trkpt><trkpt lat="37.666625" lon="14.6288167"><ele>482.0</ele><time>2026-04-26T10:10:08.19Z</time></trkpt><trkpt lat="37.66666" lon="14.628675"><ele>482.0</ele><time>2026-04-26T10:10:09.19Z</time></trkpt><trkpt lat="37.6666683" lon="14.6285167"><ele>482.0</ele><time>2026-04-26T10:10:10.19Z</time></trkpt><trkpt lat="37.66666" lon="14.6283417"><ele>482.0</ele><time>2026-04-26T10:10:11.19Z</time></trkpt><trkpt lat="37.6666333" lon="14.6281617"><ele>481.25</ele><time>2026-04-26T10:10:12.19Z</time></trkpt><trkpt lat="37.666605" lon="14.62798"><ele>480.5</ele><time>2026-04-26T10:10:13.191Z</time></trkpt><trkpt lat="37.6665683" lon="14.6278083"><ele>479.75</ele><time>2026-04-26T10:10:14.19Z</time></trkpt><trkpt lat="37.6665317" lon="14.6276533"><ele>479.0</ele><time>2026-04-26T10:10:15.19Z</time></trkpt><trkpt lat="37.6664817" lon="14.6275017"><ele>479.0</ele><time>2026-04-26T10:10:16.19Z</time></trkpt><trkpt lat="37.6664183" lon="14.6273683"><ele>479.0</ele><time>2026-04-26T10:10:17.19Z</time></trkpt><trkpt lat="37.6663283" lon="14.62724"><ele>479.0</ele><time>2026-04-26T10:10:18.19Z</time></trkpt><trkpt lat="37.6662383" lon="14.627105"><ele>479.0</ele><time>2026-04-26T10:10:19.19Z</time></trkpt><trkpt lat="37.66614" lon="14.626975"><ele>477.25</ele><time>2026-04-26T10:10:20.19Z</time></trkpt><trkpt lat="37.666045" lon="14.62684"><ele>475.5</ele><time>2026-04-26T10:10:21.19Z</time></trkpt><trkpt lat="37.665955" lon="14.6267"><ele>473.75</ele><time>2026-04-26T10:10:22.19Z</time></trkpt><trkpt lat="37.6658683" lon="14.626575"><ele>472.0</ele><time>2026-04-26T10:10:23.19Z</time></trkpt><trkpt lat="37.6657883" lon="14.626455"><ele>472.0</ele><time>2026-04-26T10:10:24.191Z</time></trkpt><trkpt lat="37.6657283" lon="14.6263217"><ele>472.0</ele><time>2026-04-26T10:10:25.19Z</time></trkpt><trkpt lat="37.6656983" lon="14.6261833"><ele>472.0</ele><time>2026-04-26T10:10:26.19Z</time></trkpt><trkpt lat="37.66569" lon="14.62603"><ele>472.0</ele><time>2026-04-26T10:10:27.191Z</time></trkpt><trkpt lat="37.6657133" lon="14.625875"><ele>470.33333333333337</ele><time>2026-04-26T10:10:28.19Z</time></trkpt><trkpt lat="37.6657467" lon="14.625695"><ele>468.66666666666663</ele><time>2026-04-26T10:10:29.19Z</time></trkpt><trkpt lat="37.6657817" lon="14.6255117"><ele>467.0</ele><time>2026-04-26T10:10:30.19Z</time></trkpt><trkpt lat="37.66582" lon="14.6253133"><ele>465.0</ele><time>2026-04-26T10:10:31.19Z</time></trkpt><trkpt lat="37.6658583" lon="14.6251183"><ele>463.0</ele><time>2026-04-26T10:10:32.19Z</time></trkpt><trkpt lat="37.66589" lon="14.62493"><ele>461.0</ele><time>2026-04-26T10:10:33.19Z</time></trkpt><trkpt lat="37.6659167" lon="14.6247467"><ele>461.0</ele><time>2026-04-26T10:10:34.19Z</time></trkpt><trkpt lat="37.6659417" lon="14.6245583"><ele>461.0</ele><time>2026-04-26T10:10:35.19Z</time></trkpt><trkpt lat="37.6659733" lon="14.6243767"><ele>461.0</ele><time>2026-04-26T10:10:36.19Z</time></trkpt><trkpt lat="37.6660067" lon="14.6241983"><ele>461.0</ele><time>2026-04-26T10:10:37.191Z</time></trkpt><trkpt lat="37.6660433" lon="14.62403"><ele>462.0</ele><time>2026-04-26T10:10:38.191Z</time></trkpt><trkpt lat="37.6660867" lon="14.623875"><ele>463.0</ele><time>2026-04-26T10:10:39.19Z</time></trkpt><trkpt lat="37.66615" lon="14.6237317"><ele>464.0</ele><time>2026-04-26T10:10:40.19Z</time></trkpt><trkpt lat="37.666235" lon="14.6235967"><ele>465.0</ele><time>2026-04-26T10:10:41.19Z</time></trkpt><trkpt lat="37.6663217" lon="14.6234717"><ele>463.4</ele><time>2026-04-26T10:10:42.19Z</time></trkpt><trkpt lat="37.666405" lon="14.623355"><ele>461.8</ele><time>2026-04-26T10:10:43.19Z</time></trkpt><trkpt lat="37.6664833" lon="14.6232433"><ele>460.20000000000005</ele><time>2026-04-26T10:10:44.191Z</time></trkpt><trkpt lat="37.6665483" lon="14.62314"><ele>458.6</ele><time>2026-04-26T10:10:45.19Z</time></trkpt><trkpt lat="37.6666067" lon="14.6230483"><ele>457.0</ele><time>2026-04-26T10:10:46.19Z</time></trkpt><trkpt lat="37.6666467" lon="14.6229667"><ele>457.00000000000006</ele><time>2026-04-26T10:10:47.19Z</time></trkpt><trkpt lat="37.666675" lon="14.62288"><ele>457.0</ele><time>2026-04-26T10:10:48.191Z</time></trkpt><trkpt lat="37.666685" lon="14.6227867"><ele>457.0</ele><time>2026-04-26T10:10:49.19Z</time></trkpt><trkpt lat="37.6666867" lon="14.6226917"><ele>457.0</ele><time>2026-04-26T10:10:50.19Z</time></trkpt><trkpt lat="37.66667" lon="14.62258"><ele>457.00000000000006</ele><time>2026-04-26T10:10:51.191Z</time></trkpt><trkpt lat="37.6666467" lon="14.6224633"><ele>457.0</ele><time>2026-04-26T10:10:52.191Z</time></trkpt><trkpt lat="37.6666117" lon="14.62234"><ele>455.5</ele><time>2026-04-26T10:10:53.19Z</time></trkpt><trkpt lat="37.666575" lon="14.6222017"><ele>454.0</ele><time>2026-04-26T10:10:54.19Z</time></trkpt><trkpt lat="37.6665367" lon="14.6220583"><ele>452.5</ele><time>2026-04-26T10:10:55.19Z</time></trkpt><trkpt lat="37.6664983" lon="14.6219167"><ele>451.0</ele><time>2026-04-26T10:10:56.19Z</time></trkpt><trkpt lat="37.6664633" lon="14.6217733"><ele>450.20000000000005</ele><time>2026-04-26T10:10:57.191Z</time></trkpt><trkpt lat="37.666425" lon="14.6216367"><ele>449.40000000000003</ele><time>2026-04-26T10:10:58.19Z</time></trkpt><trkpt lat="37.6663917" lon="14.6215017"><ele>448.6</ele><time>2026-04-26T10:10:59.191Z</time></trkpt><trkpt lat="37.66636" lon="14.6213733"><ele>447.8</ele><time>2026-04-26T10:11:00.19Z</time></trkpt><trkpt lat="37.6663283" lon="14.6212433"><ele>447.0</ele><time>2026-04-26T10:11:01.191Z</time></trkpt><trkpt lat="37.6663083" lon="14.6211067"><ele>445.5</ele><time>2026-04-26T10:11:02.19Z</time></trkpt><trkpt lat="37.6663033" lon="14.6209617"><ele>444.0</ele><time>2026-04-26T10:11:03.19Z</time></trkpt><trkpt lat="37.6663117" lon="14.6208217"><ele>442.5</ele><time>2026-04-26T10:11:04.19Z</time></trkpt><trkpt lat="37.6663483" lon="14.620675"><ele>441.0</ele><time>2026-04-26T10:11:05.191Z</time></trkpt><trkpt lat="37.6664" lon="14.6205367"><ele>441.0</ele><time>2026-04-26T10:11:06.19Z</time></trkpt><trkpt lat="37.6664683" lon="14.620405"><ele>441.0</ele><time>2026-04-26T10:11:07.19Z</time></trkpt><trkpt lat="37.6665467" lon="14.6202767"><ele>441.0</ele><time>2026-04-26T10:11:08.19Z</time></trkpt><trkpt lat="37.6666233" lon="14.6201533"><ele>441.0</ele><time>2026-04-26T10:11:09.19Z</time></trkpt><trkpt lat="37.6666917" lon="14.62003"><ele>439.4</ele><time>2026-04-26T10:11:10.19Z</time></trkpt><trkpt lat="37.6667567" lon="14.6199133"><ele>437.8</ele><time>2026-04-26T10:11:11.19Z</time></trkpt><trkpt lat="37.666815" lon="14.6197933"><ele>436.19999999999993</ele><time>2026-04-26T10:11:12.19Z</time></trkpt><trkpt lat="37.666875" lon="14.6196767"><ele>434.59999999999997</ele><time>2026-04-26T10:11:13.19Z</time></trkpt><trkpt lat="37.6669333" lon="14.61956"><ele>433.0</ele><time>2026-04-26T10:11:14.19Z</time></trkpt><trkpt lat="37.666995" lon="14.61944"><ele>433.0</ele><time>2026-04-26T10:11:15.19Z</time></trkpt><trkpt lat="37.667055" lon="14.619325"><ele>432.99999999999994</ele><time>2026-04-26T10:11:16.19Z</time></trkpt><trkpt lat="37.66711" lon="14.6192167"><ele>432.99999999999994</ele><time>2026-04-26T10:11:17.191Z</time></trkpt><trkpt lat="37.6671717" lon="14.6191017"><ele>433.0</ele><time>2026-04-26T10:11:18.19Z</time></trkpt><trkpt lat="37.6672417" lon="14.6189817"><ele>433.0</ele><time>2026-04-26T10:11:19.19Z</time></trkpt><trkpt lat="37.6673083" lon="14.6188583"><ele>433.0</ele><time>2026-04-26T10:11:20.19Z</time></trkpt><trkpt lat="37.6673783" lon="14.6187333"><ele>433.0</ele><time>2026-04-26T10:11:21.191Z</time></trkpt><trkpt lat="37.6674483" lon="14.618615"><ele>433.0</ele><time>2026-04-26T10:11:22.19Z</time></trkpt><trkpt lat="37.6675133" lon="14.6184933"><ele>433.0</ele><time>2026-04-26T10:11:23.19Z</time></trkpt><trkpt lat="37.6675717" lon="14.6183717"><ele>431.0</ele><time>2026-04-26T10:11:24.19Z</time></trkpt><trkpt lat="37.6675983" lon="14.6182367"><ele>429.0</ele><time>2026-04-26T10:11:25.19Z</time></trkpt><trkpt lat="37.6676017" lon="14.618095"><ele>427.0</ele><time>2026-04-26T10:11:26.19Z</time></trkpt><trkpt lat="37.66758" lon="14.6179533"><ele>425.0</ele><time>2026-04-26T10:11:27.19Z</time></trkpt><trkpt lat="37.6675433" lon="14.617805"><ele>423.0</ele><time>2026-04-26T10:11:28.19Z</time></trkpt><trkpt lat="37.6674967" lon="14.6176567"><ele>421.0</ele><time>2026-04-26T10:11:29.19Z</time></trkpt><trkpt lat="37.6674667" lon="14.617495"><ele>419.0</ele><time>2026-04-26T10:11:30.19Z</time></trkpt><trkpt lat="37.66744" lon="14.6173417"><ele>417.0</ele><time>2026-04-26T10:11:31.191Z</time></trkpt><trkpt lat="37.66741" lon="14.6171883"><ele>417.0</ele><time>2026-04-26T10:11:32.19Z</time></trkpt><trkpt lat="37.6673817" lon="14.6170433"><ele>417.0</ele><time>2026-04-26T10:11:33.19Z</time></trkpt><trkpt lat="37.6673583" lon="14.6169017"><ele>417.0</ele><time>2026-04-26T10:11:34.19Z</time></trkpt><trkpt lat="37.667335" lon="14.6167633"><ele>417.0</ele><time>2026-04-26T10:11:35.19Z</time></trkpt><trkpt lat="37.66731" lon="14.6166233"><ele>416.0</ele><time>2026-04-26T10:11:36.19Z</time></trkpt><trkpt lat="37.6673017" lon="14.6164883"><ele>415.0</ele><time>2026-04-26T10:11:37.19Z</time></trkpt><trkpt lat="37.6673017" lon="14.6163583"><ele>414.0</ele><time>2026-04-26T10:11:38.19Z</time></trkpt><trkpt lat="37.667315" lon="14.6162317"><ele>413.0</ele><time>2026-04-26T10:11:39.19Z</time></trkpt><trkpt lat="37.6673517" lon="14.616105"><ele>412.0</ele><time>2026-04-26T10:11:40.19Z</time></trkpt><trkpt lat="37.6674" lon="14.61598"><ele>410.5</ele><time>2026-04-26T10:11:41.19Z</time></trkpt><trkpt lat="37.6674633" lon="14.61585"><ele>409.0</ele><time>2026-04-26T10:11:42.19Z</time></trkpt><trkpt lat="37.66754" lon="14.6157183"><ele>407.5</ele><time>2026-04-26T10:11:43.19Z</time></trkpt><trkpt lat="37.6676283" lon="14.61558"><ele>406.0</ele><time>2026-04-26T10:11:44.19Z</time></trkpt><trkpt lat="37.66771" lon="14.6154467"><ele>404.75</ele><time>2026-04-26T10:11:45.191Z</time></trkpt><trkpt lat="37.6677867" lon="14.6153183"><ele>403.5</ele><time>2026-04-26T10:11:46.19Z</time></trkpt><trkpt lat="37.6678583" lon="14.6151983"><ele>402.25</ele><time>2026-04-26T10:11:47.19Z</time></trkpt><trkpt lat="37.667935" lon="14.615095"><ele>401.0</ele><time>2026-04-26T10:11:48.19Z</time></trkpt><trkpt lat="37.6680267" lon="14.61501"><ele>401.0</ele><time>2026-04-26T10:11:49.19Z</time></trkpt><trkpt lat="37.668125" lon="14.6149567"><ele>401.0</ele><time>2026-04-26T10:11:50.19Z</time></trkpt><trkpt lat="37.668225" lon="14.614925"><ele>401.0</ele><time>2026-04-26T10:11:51.19Z</time></trkpt><trkpt lat="37.6683017" lon="14.6149067"><ele>401.0</ele><time>2026-04-26T10:11:52.19Z</time></trkpt><trkpt lat="37.6683683" lon="14.6148883"><ele>401.0</ele><time>2026-04-26T10:11:53.19Z</time></trkpt><trkpt lat="37.6684683" lon="14.614885"><ele>400.99999999999994</ele><time>2026-04-26T10:11:55.19Z</time></trkpt><trkpt lat="37.6685567" lon="14.6148767"><ele>401.0</ele><time>2026-04-26T10:11:57.191Z</time></trkpt><trkpt lat="37.6686217" lon="14.614865"><ele>401.0</ele><time>2026-04-26T10:11:59.19Z</time></trkpt><trkpt lat="37.6687183" lon="14.6148633"><ele>401.0</ele><time>2026-04-26T10:12:02.19Z</time></trkpt><trkpt lat="37.6688267" lon="14.614855"><ele>400.99999999999994</ele><time>2026-04-26T10:12:04.19Z</time></trkpt><trkpt lat="37.6689067" lon="14.6148617"><ele>401.0</ele><time>2026-04-26T10:12:05.191Z</time></trkpt><trkpt lat="37.6689917" lon="14.6148717"><ele>400.8</ele><time>2026-04-26T10:12:06.19Z</time></trkpt><trkpt lat="37.66909" lon="14.614885"><ele>400.6</ele><time>2026-04-26T10:12:07.19Z</time></trkpt><trkpt lat="37.669195" lon="14.6148967"><ele>400.4</ele><time>2026-04-26T10:12:08.191Z</time></trkpt><trkpt lat="37.6692983" lon="14.6149183"><ele>400.2</ele><time>2026-04-26T10:12:09.19Z</time></trkpt><trkpt lat="37.6694033" lon="14.61492"><ele>400.0</ele><time>2026-04-26T10:12:10.19Z</time></trkpt><trkpt lat="37.6694983" lon="14.6148917"><ele>401.0</ele><time>2026-04-26T10:12:11.19Z</time></trkpt><trkpt lat="37.669585" lon="14.6148267"><ele>402.0</ele><time>2026-04-26T10:12:12.19Z</time></trkpt><trkpt lat="37.66965" lon="14.61473"><ele>403.0</ele><time>2026-04-26T10:12:13.19Z</time></trkpt><trkpt lat="37.6697083" lon="14.614605"><ele>404.0</ele><time>2026-04-26T10:12:14.19Z</time></trkpt><trkpt lat="37.6697583" lon="14.614465"><ele>405.0</ele><time>2026-04-26T10:12:15.19Z</time></trkpt><trkpt lat="37.6698133" lon="14.6143333"><ele>405.0</ele><time>2026-04-26T10:12:16.191Z</time></trkpt><trkpt lat="37.6698633" lon="14.6142033"><ele>405.0</ele><time>2026-04-26T10:12:17.19Z</time></trkpt><trkpt lat="37.6699" lon="14.6140683"><ele>405.0</ele><time>2026-04-26T10:12:18.19Z</time></trkpt><trkpt lat="37.669915" lon="14.6139317"><ele>405.0</ele><time>2026-04-26T10:12:19.19Z</time></trkpt><trkpt lat="37.6699183" lon="14.6137933"><ele>405.0</ele><time>2026-04-26T10:12:20.19Z</time></trkpt><trkpt lat="37.6699117" lon="14.6136433"><ele>404.75</ele><time>2026-04-26T10:12:21.191Z</time></trkpt><trkpt lat="37.6698967" lon="14.6134833"><ele>404.5</ele><time>2026-04-26T10:12:22.19Z</time></trkpt><trkpt lat="37.66989" lon="14.6133217"><ele>404.25</ele><time>2026-04-26T10:12:23.19Z</time></trkpt><trkpt lat="37.6699" lon="14.61316"><ele>404.0</ele><time>2026-04-26T10:12:24.19Z</time></trkpt><trkpt lat="37.66992" lon="14.6129983"><ele>404.0</ele><time>2026-04-26T10:12:25.19Z</time></trkpt><trkpt lat="37.6699433" lon="14.6128333"><ele>404.0</ele><time>2026-04-26T10:12:26.19Z</time></trkpt><trkpt lat="37.669975" lon="14.6126767"><ele>404.0</ele><time>2026-04-26T10:12:27.19Z</time></trkpt><trkpt lat="37.6700067" lon="14.6125233"><ele>404.0</ele><time>2026-04-26T10:12:28.19Z</time></trkpt><trkpt lat="37.67003" lon="14.6123767"><ele>400.6</ele><time>2026-04-26T10:12:29.19Z</time></trkpt><trkpt lat="37.67006" lon="14.612235"><ele>397.2</ele><time>2026-04-26T10:12:30.19Z</time></trkpt><trkpt lat="37.6700917" lon="14.6120983"><ele>393.8</ele><time>2026-04-26T10:12:31.19Z</time></trkpt><trkpt lat="37.670125" lon="14.611975"><ele>390.40000000000003</ele><time>2026-04-26T10:12:32.19Z</time></trkpt><trkpt lat="37.670165" lon="14.6118717"><ele>387.0</ele><time>2026-04-26T10:12:33.19Z</time></trkpt><trkpt lat="37.6702167" lon="14.6117883"><ele>385.6</ele><time>2026-04-26T10:12:34.191Z</time></trkpt><trkpt lat="37.670285" lon="14.6117433"><ele>384.20000000000005</ele><time>2026-04-26T10:12:35.191Z</time></trkpt><trkpt lat="37.6703617" lon="14.61172"><ele>382.8</ele><time>2026-04-26T10:12:36.19Z</time></trkpt><trkpt lat="37.67044" lon="14.61174"><ele>381.4</ele><time>2026-04-26T10:12:37.191Z</time></trkpt><trkpt lat="37.670535" lon="14.6118"><ele>380.0</ele><time>2026-04-26T10:12:38.19Z</time></trkpt><trkpt lat="37.670635" lon="14.6118833"><ele>383.0</ele><time>2026-04-26T10:12:39.19Z</time></trkpt><trkpt lat="37.6707367" lon="14.6119933"><ele>386.0</ele><time>2026-04-26T10:12:40.19Z</time></trkpt><trkpt lat="37.6708317" lon="14.6120817"><ele>389.0</ele><time>2026-04-26T10:12:41.19Z</time></trkpt><trkpt lat="37.6709283" lon="14.6121483"><ele>392.0</ele><time>2026-04-26T10:12:42.191Z</time></trkpt><trkpt lat="37.6710383" lon="14.6122083"><ele>390.0</ele><time>2026-04-26T10:12:43.19Z</time></trkpt><trkpt lat="37.6711617" lon="14.6122617"><ele>388.0</ele><time>2026-04-26T10:12:44.19Z</time></trkpt><trkpt lat="37.6712867" lon="14.6123033"><ele>386.0</ele><time>2026-04-26T10:12:45.19Z</time></trkpt><trkpt lat="37.6714083" lon="14.61235"><ele>384.0</ele><time>2026-04-26T10:12:46.19Z</time></trkpt><trkpt lat="37.6715233" lon="14.612395"><ele>384.0</ele><time>2026-04-26T10:12:47.19Z</time></trkpt><trkpt lat="37.6716267" lon="14.6124517"><ele>384.0</ele><time>2026-04-26T10:12:48.19Z</time></trkpt><trkpt lat="37.671725" lon="14.6125267"><ele>384.0</ele><time>2026-04-26T10:12:49.19Z</time></trkpt><trkpt lat="37.6718133" lon="14.6126133"><ele>384.0</ele><time>2026-04-26T10:12:50.191Z</time></trkpt><trkpt lat="37.6719117" lon="14.6126983"><ele>383.4</ele><time>2026-04-26T10:12:51.19Z</time></trkpt><trkpt lat="37.6720183" lon="14.6127817"><ele>382.79999999999995</ele><time>2026-04-26T10:12:52.191Z</time></trkpt><trkpt lat="37.6721233" lon="14.61285"><ele>382.20000000000005</ele><time>2026-04-26T10:12:53.19Z</time></trkpt><trkpt lat="37.6722183" lon="14.6129067"><ele>381.6</ele><time>2026-04-26T10:12:54.19Z</time></trkpt><trkpt lat="37.6723033" lon="14.612955"><ele>381.0</ele><time>2026-04-26T10:12:55.19Z</time></trkpt><trkpt lat="37.6723867" lon="14.6129683"><ele>381.0</ele><time>2026-04-26T10:12:56.19Z</time></trkpt><trkpt lat="37.6724683" lon="14.61295"><ele>381.0</ele><time>2026-04-26T10:12:57.191Z</time></trkpt><trkpt lat="37.6725433" lon="14.612895"><ele>381.0</ele><time>2026-04-26T10:12:58.19Z</time></trkpt><trkpt lat="37.67261" lon="14.6128367"><ele>381.0</ele><time>2026-04-26T10:12:59.19Z</time></trkpt><trkpt lat="37.67267" lon="14.6127683"><ele>381.0</ele><time>2026-04-26T10:13:00.19Z</time></trkpt><trkpt lat="37.672725" lon="14.6127033"><ele>381.0</ele><time>2026-04-26T10:13:01.19Z</time></trkpt><trkpt lat="37.6728217" lon="14.61262"><ele>378.0</ele><time>2026-04-26T10:13:03.191Z</time></trkpt><trkpt lat="37.672925" lon="14.61259"><ele>375.0</ele><time>2026-04-26T10:13:05.19Z</time></trkpt><trkpt lat="37.6730517" lon="14.61263"><ele>372.0</ele><time>2026-04-26T10:13:07.191Z</time></trkpt><trkpt lat="37.67312" lon="14.6126417"><ele>369.0</ele><time>2026-04-26T10:13:08.19Z</time></trkpt><trkpt lat="37.673185" lon="14.6126417"><ele>366.0</ele><time>2026-04-26T10:13:09.19Z</time></trkpt><trkpt lat="37.6732883" lon="14.612635"><ele>366.0</ele><time>2026-04-26T10:13:11.19Z</time></trkpt><trkpt lat="37.6733533" lon="14.612645"><ele>366.0</ele><time>2026-04-26T10:13:14.19Z</time></trkpt><trkpt lat="37.6733967" lon="14.6125767"><ele>366.0</ele><time>2026-04-26T10:13:40.19Z</time></trkpt><trkpt lat="37.6733867" lon="14.6124233"><ele>366.0</ele><time>2026-04-26T10:13:42.19Z</time></trkpt><trkpt lat="37.6733833" lon="14.612325"><ele>366.0</ele><time>2026-04-26T10:13:43.19Z</time></trkpt><trkpt lat="37.6733767" lon="14.61222"><ele>366.0</ele><time>2026-04-26T10:13:44.19Z</time></trkpt><trkpt lat="37.6733617" lon="14.612125"><ele>366.0</ele><time>2026-04-26T10:13:45.19Z</time></trkpt><trkpt lat="37.6733333" lon="14.6120317"><ele>366.0</ele><time>2026-04-26T10:13:46.19Z</time></trkpt><trkpt lat="37.6732967" lon="14.6119383"><ele>366.0</ele><time>2026-04-26T10:13:47.19Z</time></trkpt><trkpt lat="37.67326" lon="14.6118433"><ele>366.0</ele><time>2026-04-26T10:13:48.191Z</time></trkpt><trkpt lat="37.67323" lon="14.611745"><ele>366.0</ele><time>2026-04-26T10:13:49.19Z</time></trkpt><trkpt lat="37.6732067" lon="14.6116483"><ele>366.0</ele><time>2026-04-26T10:13:50.19Z</time></trkpt><trkpt lat="37.6731817" lon="14.611545"><ele>364.6</ele><time>2026-04-26T10:13:51.19Z</time></trkpt><trkpt lat="37.6731617" lon="14.6114533"><ele>363.20000000000005</ele><time>2026-04-26T10:13:52.19Z</time></trkpt><trkpt lat="37.6731483" lon="14.6113733"><ele>361.79999999999995</ele><time>2026-04-26T10:13:53.19Z</time></trkpt><trkpt lat="37.6731317" lon="14.611295"><ele>360.4</ele><time>2026-04-26T10:13:54.19Z</time></trkpt><trkpt lat="37.673125" lon="14.61115"><ele>359.0</ele><time>2026-04-26T10:13:56.19Z</time></trkpt><trkpt lat="37.673185" lon="14.6109917"><ele>358.33333333333337</ele><time>2026-04-26T10:13:58.19Z</time></trkpt><trkpt lat="37.67323" lon="14.6109"><ele>357.6666666666667</ele><time>2026-04-26T10:13:59.19Z</time></trkpt><trkpt lat="37.6732733" lon="14.6108017"><ele>357.0</ele><time>2026-04-26T10:14:00.19Z</time></trkpt><trkpt lat="37.6733183" lon="14.610705"><ele>356.3333333333333</ele><time>2026-04-26T10:14:01.19Z</time></trkpt><trkpt lat="37.673365" lon="14.6106033"><ele>355.66666666666663</ele><time>2026-04-26T10:14:02.19Z</time></trkpt><trkpt lat="37.6734133" lon="14.6105033"><ele>355.0</ele><time>2026-04-26T10:14:03.19Z</time></trkpt><trkpt lat="37.6734633" lon="14.6103983"><ele>354.8</ele><time>2026-04-26T10:14:04.19Z</time></trkpt><trkpt lat="37.6735117" lon="14.6102967"><ele>354.6</ele><time>2026-04-26T10:14:05.191Z</time></trkpt><trkpt lat="37.6735567" lon="14.6102017"><ele>354.4</ele><time>2026-04-26T10:14:06.19Z</time></trkpt><trkpt lat="37.673595" lon="14.610095"><ele>354.2</ele><time>2026-04-26T10:14:07.19Z</time></trkpt><trkpt lat="37.673625" lon="14.6099833"><ele>354.0</ele><time>2026-04-26T10:14:08.19Z</time></trkpt><trkpt lat="37.6736433" lon="14.6098717"><ele>354.0</ele><time>2026-04-26T10:14:09.19Z</time></trkpt><trkpt lat="37.6736467" lon="14.6097617"><ele>354.0</ele><time>2026-04-26T10:14:10.19Z</time></trkpt><trkpt lat="37.6736433" lon="14.6096517"><ele>354.0</ele><time>2026-04-26T10:14:11.19Z</time></trkpt><trkpt lat="37.6736317" lon="14.6095383"><ele>354.0</ele><time>2026-04-26T10:14:12.19Z</time></trkpt><trkpt lat="37.6736133" lon="14.6094317"><ele>354.0</ele><time>2026-04-26T10:14:13.19Z</time></trkpt><trkpt lat="37.6735917" lon="14.60933"><ele>354.0</ele><time>2026-04-26T10:14:14.19Z</time></trkpt><trkpt lat="37.6735767" lon="14.60923"><ele>354.0</ele><time>2026-04-26T10:14:15.19Z</time></trkpt><trkpt lat="37.67356" lon="14.6091383"><ele>354.0</ele><time>2026-04-26T10:14:16.19Z</time></trkpt><trkpt lat="37.67355" lon="14.6090517"><ele>354.0</ele><time>2026-04-26T10:14:17.19Z</time></trkpt><trkpt lat="37.67355" lon="14.608905"><ele>354.0</ele><time>2026-04-26T10:14:19.19Z</time></trkpt><trkpt lat="37.6736133" lon="14.6087833"><ele>354.0</ele><time>2026-04-26T10:14:21.19Z</time></trkpt><trkpt lat="37.6736567" lon="14.60872"><ele>354.0</ele><time>2026-04-26T10:14:22.19Z</time></trkpt><trkpt lat="37.6737167" lon="14.6086017"><ele>356.6666666666667</ele><time>2026-04-26T10:14:24.19Z</time></trkpt><trkpt lat="37.67375" lon="14.60851"><ele>359.3333333333333</ele><time>2026-04-26T10:14:26.191Z</time></trkpt><trkpt lat="37.6736817" lon="14.608415"><ele>362.0</ele><time>2026-04-26T10:14:28.19Z</time></trkpt><trkpt lat="37.6736183" lon="14.6083667"><ele>364.66666666666663</ele><time>2026-04-26T10:14:29.19Z</time></trkpt><trkpt lat="37.6735517" lon="14.60831"><ele>367.3333333333333</ele><time>2026-04-26T10:14:30.191Z</time></trkpt><trkpt lat="37.673485" lon="14.60826"><ele>370.0</ele><time>2026-04-26T10:14:31.19Z</time></trkpt><trkpt lat="37.6734133" lon="14.6082183"><ele>369.99999999999994</ele><time>2026-04-26T10:14:32.19Z</time></trkpt><trkpt lat="37.67334" lon="14.608175"><ele>370.0</ele><time>2026-04-26T10:14:33.19Z</time></trkpt><trkpt lat="37.6732683" lon="14.6081383"><ele>370.0</ele><time>2026-04-26T10:14:34.191Z</time></trkpt><trkpt lat="37.673205" lon="14.6081"><ele>370.0</ele><time>2026-04-26T10:14:35.19Z</time></trkpt><trkpt lat="37.673145" lon="14.608055"><ele>370.0</ele><time>2026-04-26T10:14:36.19Z</time></trkpt><trkpt lat="37.673095" lon="14.6079983"><ele>369.99999999999994</ele><time>2026-04-26T10:14:37.19Z</time></trkpt><trkpt lat="37.673045" lon="14.6079317"><ele>370.0</ele><time>2026-04-26T10:14:38.191Z</time></trkpt><trkpt lat="37.6729983" lon="14.6078417"><ele>369.8</ele><time>2026-04-26T10:14:39.19Z</time></trkpt><trkpt lat="37.6729517" lon="14.6077433"><ele>369.6</ele><time>2026-04-26T10:14:40.19Z</time></trkpt><trkpt lat="37.67291" lon="14.6076417"><ele>369.4</ele><time>2026-04-26T10:14:41.19Z</time></trkpt><trkpt lat="37.6728667" lon="14.6075367"><ele>369.2</ele><time>2026-04-26T10:14:42.19Z</time></trkpt><trkpt lat="37.6728183" lon="14.607435"><ele>369.0</ele><time>2026-04-26T10:14:43.19Z</time></trkpt><trkpt lat="37.672765" lon="14.6073333"><ele>369.0</ele><time>2026-04-26T10:14:44.19Z</time></trkpt><trkpt lat="37.6727167" lon="14.6072483"><ele>369.0</ele><time>2026-04-26T10:14:45.19Z</time></trkpt><trkpt lat="37.6726633" lon="14.6071567"><ele>369.0</ele><time>2026-04-26T10:14:46.191Z</time></trkpt><trkpt lat="37.6726117" lon="14.6070717"><ele>369.0</ele><time>2026-04-26T10:14:47.191Z</time></trkpt><trkpt lat="37.6725517" lon="14.6069733"><ele>369.0</ele><time>2026-04-26T10:14:48.19Z</time></trkpt><trkpt lat="37.6724917" lon="14.6068633"><ele>371.2</ele><time>2026-04-26T10:14:49.19Z</time></trkpt><trkpt lat="37.672425" lon="14.6067617"><ele>373.4</ele><time>2026-04-26T10:14:50.191Z</time></trkpt><trkpt lat="37.6723567" lon="14.6066767"><ele>375.6</ele><time>2026-04-26T10:14:51.19Z</time></trkpt><trkpt lat="37.67228" lon="14.6065967"><ele>377.8</ele><time>2026-04-26T10:14:52.191Z</time></trkpt><trkpt lat="37.67221" lon="14.606515"><ele>380.0</ele><time>2026-04-26T10:14:53.191Z</time></trkpt><trkpt lat="37.6721333" lon="14.6064483"><ele>380.0</ele><time>2026-04-26T10:14:54.191Z</time></trkpt><trkpt lat="37.672065" lon="14.6063833"><ele>380.0</ele><time>2026-04-26T10:14:55.19Z</time></trkpt><trkpt lat="37.6719917" lon="14.60633"><ele>380.0</ele><time>2026-04-26T10:14:56.19Z</time></trkpt><trkpt lat="37.6719167" lon="14.60627"><ele>380.0</ele><time>2026-04-26T10:14:57.19Z</time></trkpt><trkpt lat="37.671845" lon="14.606215"><ele>380.0</ele><time>2026-04-26T10:14:58.191Z</time></trkpt><trkpt lat="37.6717683" lon="14.6061533"><ele>380.0</ele><time>2026-04-26T10:14:59.19Z</time></trkpt><trkpt lat="37.6716883" lon="14.60609"><ele>380.4</ele><time>2026-04-26T10:15:00.19Z</time></trkpt><trkpt lat="37.6716017" lon="14.6060267"><ele>380.8</ele><time>2026-04-26T10:15:01.19Z</time></trkpt><trkpt lat="37.6715167" lon="14.60597"><ele>381.20000000000005</ele><time>2026-04-26T10:15:02.19Z</time></trkpt><trkpt lat="37.6714367" lon="14.6059217"><ele>381.6</ele><time>2026-04-26T10:15:03.19Z</time></trkpt><trkpt lat="37.6713467" lon="14.6058617"><ele>382.0</ele><time>2026-04-26T10:15:04.19Z</time></trkpt><trkpt lat="37.6712583" lon="14.6057967"><ele>382.0</ele><time>2026-04-26T10:15:05.191Z</time></trkpt><trkpt lat="37.6711883" lon="14.6057333"><ele>382.0</ele><time>2026-04-26T10:15:06.19Z</time></trkpt><trkpt lat="37.671105" lon="14.6056483"><ele>382.0</ele><time>2026-04-26T10:15:08.19Z</time></trkpt><trkpt lat="37.67104" lon="14.6055983"><ele>382.0</ele><time>2026-04-26T10:15:10.19Z</time></trkpt><trkpt lat="37.6709617" lon="14.605525"><ele>382.0</ele><time>2026-04-26T10:15:12.19Z</time></trkpt><trkpt lat="37.670895" lon="14.6054133"><ele>382.66666666666663</ele><time>2026-04-26T10:15:14.19Z</time></trkpt><trkpt lat="37.670865" lon="14.6053417"><ele>383.3333333333333</ele><time>2026-04-26T10:15:15.19Z</time></trkpt><trkpt lat="37.6708467" lon="14.6052583"><ele>384.0</ele><time>2026-04-26T10:15:16.191Z</time></trkpt><trkpt lat="37.67084" lon="14.605165"><ele>384.66666666666663</ele><time>2026-04-26T10:15:17.19Z</time></trkpt><trkpt lat="37.67084" lon="14.6050533"><ele>385.3333333333333</ele><time>2026-04-26T10:15:18.19Z</time></trkpt><trkpt lat="37.6708417" lon="14.6049267"><ele>386.0</ele><time>2026-04-26T10:15:19.19Z</time></trkpt><trkpt lat="37.6708383" lon="14.6048067"><ele>386.0</ele><time>2026-04-26T10:15:20.191Z</time></trkpt><trkpt lat="37.6708383" lon="14.6047167"><ele>386.0</ele><time>2026-04-26T10:15:21.19Z</time></trkpt><trkpt lat="37.670835" lon="14.604575"><ele>386.0</ele><time>2026-04-26T10:15:23.19Z</time></trkpt><trkpt lat="37.6708433" lon="14.6044783"><ele>386.0</ele><time>2026-04-26T10:15:25.19Z</time></trkpt><trkpt lat="37.6707817" lon="14.6045517"><ele>386.0</ele><time>2026-04-26T10:15:38.19Z</time></trkpt><trkpt lat="37.6707783" lon="14.6046883"><ele>386.0</ele><time>2026-04-26T10:15:40.19Z</time></trkpt><trkpt lat="37.6707717" lon="14.604795"><ele>386.0</ele><time>2026-04-26T10:15:41.191Z</time></trkpt><trkpt lat="37.6707733" lon="14.604915"><ele>386.0</ele><time>2026-04-26T10:15:42.19Z</time></trkpt><trkpt lat="37.67078" lon="14.6050367"><ele>386.0</ele><time>2026-04-26T10:15:43.189Z</time></trkpt><trkpt lat="37.6707883" lon="14.6051517"><ele>386.0</ele><time>2026-04-26T10:15:44.189Z</time></trkpt><trkpt lat="37.6708067" lon="14.6052533"><ele>385.3333333333333</ele><time>2026-04-26T10:15:45.189Z</time></trkpt><trkpt lat="37.6708383" lon="14.6053517"><ele>384.66666666666663</ele><time>2026-04-26T10:15:46.189Z</time></trkpt><trkpt lat="37.6708733" lon="14.6054433"><ele>384.0</ele><time>2026-04-26T10:15:47.189Z</time></trkpt><trkpt lat="37.6709117" lon="14.6055233"><ele>383.3333333333333</ele><time>2026-04-26T10:15:48.189Z</time></trkpt><trkpt lat="37.6709567" lon="14.6055833"><ele>382.66666666666663</ele><time>2026-04-26T10:15:49.189Z</time></trkpt><trkpt lat="37.6710117" lon="14.605635"><ele>382.0</ele><time>2026-04-26T10:15:50.189Z</time></trkpt><trkpt lat="37.6711133" lon="14.605705"><ele>382.0</ele><time>2026-04-26T10:15:52.189Z</time></trkpt><trkpt lat="37.6711917" lon="14.6057433"><ele>382.0</ele><time>2026-04-26T10:15:54.189Z</time></trkpt><trkpt lat="37.6712417" lon="14.6057967"><ele>382.0</ele><time>2026-04-26T10:15:57.189Z</time></trkpt><trkpt lat="37.6713083" lon="14.6058633"><ele>382.0</ele><time>2026-04-26T10:16:00.189Z</time></trkpt><trkpt lat="37.6713867" lon="14.6059233"><ele>382.0</ele><time>2026-04-26T10:16:03.189Z</time></trkpt><trkpt lat="37.6714567" lon="14.6059733"><ele>382.0</ele><time>2026-04-26T10:16:05.189Z</time></trkpt><trkpt lat="37.6715367" lon="14.606035"><ele>382.0</ele><time>2026-04-26T10:16:07.189Z</time></trkpt><trkpt lat="37.6716133" lon="14.606095"><ele>382.0</ele><time>2026-04-26T10:16:09.189Z</time></trkpt><trkpt lat="37.6716833" lon="14.6061533"><ele>382.0</ele><time>2026-04-26T10:16:11.19Z</time></trkpt><trkpt lat="37.6717583" lon="14.6062217"><ele>382.0</ele><time>2026-04-26T10:16:25.19Z</time></trkpt><trkpt lat="37.6718367" lon="14.6062717"><ele>382.0</ele><time>2026-04-26T10:16:27.189Z</time></trkpt><trkpt lat="37.6718983" lon="14.6063117"><ele>382.0</ele><time>2026-04-26T10:16:29.19Z</time></trkpt><trkpt lat="37.6719317" lon="14.6062417"><ele>382.0</ele><time>2026-04-26T10:16:34.189Z</time></trkpt><trkpt lat="37.67183" lon="14.6062017"><ele>382.0</ele><time>2026-04-26T10:16:37.189Z</time></trkpt><trkpt lat="37.6717467" lon="14.6061517"><ele>382.0</ele><time>2026-04-26T10:16:39.19Z</time></trkpt><trkpt lat="37.6716533" lon="14.6060783"><ele>382.0</ele><time>2026-04-26T10:16:41.189Z</time></trkpt><trkpt lat="37.67156" lon="14.6060017"><ele>382.0</ele><time>2026-04-26T10:16:43.189Z</time></trkpt><trkpt lat="37.671465" lon="14.6059317"><ele>382.0</ele><time>2026-04-26T10:16:45.189Z</time></trkpt><trkpt lat="37.6713683" lon="14.6058717"><ele>382.0</ele><time>2026-04-26T10:16:47.189Z</time></trkpt><trkpt lat="37.671295" lon="14.6058333"><ele>382.0</ele><time>2026-04-26T10:16:49.189Z</time></trkpt><trkpt lat="37.6712067" lon="14.6058283"><ele>382.0</ele><time>2026-04-26T10:16:52.19Z</time></trkpt><trkpt lat="37.6711233" lon="14.605845"><ele>382.0</ele><time>2026-04-26T10:16:55.189Z</time></trkpt><trkpt lat="37.6710583" lon="14.60587"><ele>382.0</ele><time>2026-04-26T10:16:57.19Z</time></trkpt><trkpt lat="37.6709883" lon="14.6058917"><ele>380.6</ele><time>2026-04-26T10:16:59.19Z</time></trkpt><trkpt lat="37.6709117" lon="14.605945"><ele>379.20000000000005</ele><time>2026-04-26T10:17:01.189Z</time></trkpt><trkpt lat="37.6708183" lon="14.6059967"><ele>377.8</ele><time>2026-04-26T10:17:03.189Z</time></trkpt><trkpt lat="37.6707283" lon="14.6060267"><ele>376.4</ele><time>2026-04-26T10:17:05.189Z</time></trkpt><trkpt lat="37.6706333" lon="14.6060083"><ele>375.0</ele><time>2026-04-26T10:17:07.189Z</time></trkpt><trkpt lat="37.67056" lon="14.60595"><ele>375.0</ele><time>2026-04-26T10:17:09.189Z</time></trkpt><trkpt lat="37.6704867" lon="14.6058683"><ele>375.0</ele><time>2026-04-26T10:17:11.19Z</time></trkpt><trkpt lat="37.6704267" lon="14.6057983"><ele>375.0</ele><time>2026-04-26T10:17:13.189Z</time></trkpt><trkpt lat="37.6703833" lon="14.6057083"><ele>375.0</ele><time>2026-04-26T10:17:15.189Z</time></trkpt><trkpt lat="37.6703483" lon="14.6056083"><ele>375.0</ele><time>2026-04-26T10:17:17.189Z</time></trkpt><trkpt lat="37.6703033" lon="14.6055267"><ele>375.0</ele><time>2026-04-26T10:17:19.19Z</time></trkpt><trkpt lat="37.670285" lon="14.60544"><ele>374.0</ele><time>2026-04-26T10:17:21.189Z</time></trkpt><trkpt lat="37.6702667" lon="14.605355"><ele>373.0</ele><time>2026-04-26T10:17:23.189Z</time></trkpt><trkpt lat="37.67026" lon="14.6052733"><ele>372.0</ele><time>2026-04-26T10:17:25.189Z</time></trkpt><trkpt lat="37.6702683" lon="14.6051683"><ele>371.0</ele><time>2026-04-26T10:17:27.189Z</time></trkpt><trkpt lat="37.6703083" lon="14.6050783"><ele>370.0</ele><time>2026-04-26T10:17:29.19Z</time></trkpt><trkpt lat="37.6703683" lon="14.6050133"><ele>369.0</ele><time>2026-04-26T10:17:31.19Z</time></trkpt><trkpt lat="37.6704467" lon="14.604945"><ele>371.42857142857144</ele><time>2026-04-26T10:17:33.189Z</time></trkpt><trkpt lat="37.6705133" lon="14.6048633"><ele>373.85714285714283</ele><time>2026-04-26T10:17:35.189Z</time></trkpt><trkpt lat="37.6705483" lon="14.6047717"><ele>376.28571428571433</ele><time>2026-04-26T10:17:37.19Z</time></trkpt><trkpt lat="37.67056" lon="14.6046917"><ele>378.7142857142857</ele><time>2026-04-26T10:17:39.189Z</time></trkpt><trkpt lat="37.6705283" lon="14.6046117"><ele>381.14285714285717</ele><time>2026-04-26T10:17:41.189Z</time></trkpt><trkpt lat="37.6704717" lon="14.60457"><ele>383.5714285714286</ele><time>2026-04-26T10:17:43.189Z</time></trkpt><trkpt lat="37.67041" lon="14.604535"><ele>386.0</ele><time>2026-04-26T10:17:45.189Z</time></trkpt><trkpt lat="37.6704683" lon="14.60457"><ele>386.0</ele><time>2026-04-26T10:19:30.189Z</time></trkpt><trkpt lat="37.6705167" lon="14.6046417"><ele>386.0</ele><time>2026-04-26T10:19:32.19Z</time></trkpt><trkpt lat="37.6705117" lon="14.6047533"><ele>386.0</ele><time>2026-04-26T10:19:34.189Z</time></trkpt><trkpt lat="37.6704617" lon="14.604875"><ele>386.0</ele><time>2026-04-26T10:19:36.19Z</time></trkpt><trkpt lat="37.6703833" lon="14.60497"><ele>386.0</ele><time>2026-04-26T10:19:38.189Z</time></trkpt><trkpt lat="37.6703117" lon="14.605025"><ele>384.16666666666663</ele><time>2026-04-26T10:19:40.189Z</time></trkpt><trkpt lat="37.6702633" lon="14.605095"><ele>382.3333333333333</ele><time>2026-04-26T10:19:43.189Z</time></trkpt><trkpt lat="37.6702383" lon="14.605185"><ele>380.5</ele><time>2026-04-26T10:19:46.189Z</time></trkpt><trkpt lat="37.6702333" lon="14.605305"><ele>378.66666666666663</ele><time>2026-04-26T10:19:49.19Z</time></trkpt><trkpt lat="37.6702467" lon="14.6054117"><ele>376.8333333333333</ele><time>2026-04-26T10:19:51.189Z</time></trkpt><trkpt lat="37.6702567" lon="14.6054967"><ele>375.0</ele><time>2026-04-26T10:19:53.189Z</time></trkpt><trkpt lat="37.670285" lon="14.6055733"><ele>375.0</ele><time>2026-04-26T10:19:55.19Z</time></trkpt><trkpt lat="37.6703267" lon="14.6056417"><ele>375.0</ele><time>2026-04-26T10:19:58.189Z</time></trkpt><trkpt lat="37.6703767" lon="14.605715"><ele>375.0</ele><time>2026-04-26T10:20:00.189Z</time></trkpt><trkpt lat="37.6704167" lon="14.6057767"><ele>375.0</ele><time>2026-04-26T10:20:02.189Z</time></trkpt><trkpt lat="37.670455" lon="14.6058467"><ele>375.0</ele><time>2026-04-26T10:20:04.189Z</time></trkpt><trkpt lat="37.6705067" lon="14.6059033"><ele>375.0</ele><time>2026-04-26T10:20:06.19Z</time></trkpt><trkpt lat="37.6705533" lon="14.6059583"><ele>375.0</ele><time>2026-04-26T10:20:08.189Z</time></trkpt><trkpt lat="37.6706083" lon="14.606015"><ele>375.0</ele><time>2026-04-26T10:20:11.189Z</time></trkpt><trkpt lat="37.6707883" lon="14.6061917"><ele>375.0</ele><time>2026-04-26T11:34:47.7Z</time></trkpt><trkpt lat="37.670695" lon="14.6061167"><ele>375.0</ele><time>2026-04-26T11:34:48.7Z</time></trkpt><trkpt lat="37.67078" lon="14.606055"><ele>375.0</ele><time>2026-04-26T11:36:26.202Z</time></trkpt><trkpt lat="37.6708633" lon="14.6060067"><ele>375.0</ele><time>2026-04-26T11:36:28.202Z</time></trkpt><trkpt lat="37.67095" lon="14.60596"><ele>375.0</ele><time>2026-04-26T11:36:30.203Z</time></trkpt><trkpt lat="37.6710117" lon="14.605925"><ele>375.0</ele><time>2026-04-26T11:36:32.202Z</time></trkpt><trkpt lat="37.6710883" lon="14.6059"><ele>375.0</ele><time>2026-04-26T11:36:34.202Z</time></trkpt><trkpt lat="37.6711683" lon="14.6058717"><ele>375.0</ele><time>2026-04-26T11:36:36.202Z</time></trkpt><trkpt lat="37.6712367" lon="14.60588"><ele>375.0</ele><time>2026-04-26T11:36:39.202Z</time></trkpt><trkpt lat="37.6712983" lon="14.6058983"><ele>376.4</ele><time>2026-04-26T11:36:41.202Z</time></trkpt><trkpt lat="37.6713867" lon="14.6059483"><ele>377.8</ele><time>2026-04-26T11:36:43.202Z</time></trkpt><trkpt lat="37.6714967" lon="14.60602"><ele>379.20000000000005</ele><time>2026-04-26T11:36:45.202Z</time></trkpt><trkpt lat="37.6715533" lon="14.606055"><ele>380.6</ele><time>2026-04-26T11:36:46.202Z</time></trkpt><trkpt lat="37.6716517" lon="14.6061383"><ele>382.0</ele><time>2026-04-26T11:36:48.202Z</time></trkpt><trkpt lat="37.671735" lon="14.6062167"><ele>381.6</ele><time>2026-04-26T11:36:50.202Z</time></trkpt><trkpt lat="37.671835" lon="14.6062983"><ele>381.20000000000005</ele><time>2026-04-26T11:36:52.203Z</time></trkpt><trkpt lat="37.6719333" lon="14.6063767"><ele>380.8</ele><time>2026-04-26T11:36:54.202Z</time></trkpt><trkpt lat="37.67204" lon="14.6064583"><ele>380.4</ele><time>2026-04-26T11:36:56.202Z</time></trkpt><trkpt lat="37.6720967" lon="14.6064983"><ele>380.0</ele><time>2026-04-26T11:36:57.202Z</time></trkpt><trkpt lat="37.67216" lon="14.6065467"><ele>380.0</ele><time>2026-04-26T11:36:58.202Z</time></trkpt><trkpt lat="37.67222" lon="14.6065967"><ele>380.0</ele><time>2026-04-26T11:36:59.202Z</time></trkpt><trkpt lat="37.6722817" lon="14.6066583"><ele>380.0</ele><time>2026-04-26T11:37:00.202Z</time></trkpt><trkpt lat="37.67235" lon="14.6067167"><ele>380.0</ele><time>2026-04-26T11:37:01.202Z</time></trkpt><trkpt lat="37.6724167" lon="14.6067817"><ele>380.0</ele><time>2026-04-26T11:37:02.202Z</time></trkpt><trkpt lat="37.6724783" lon="14.6068717"><ele>380.0</ele><time>2026-04-26T11:37:03.202Z</time></trkpt><trkpt lat="37.6725367" lon="14.6069667"><ele>378.1666666666667</ele><time>2026-04-26T11:37:04.203Z</time></trkpt><trkpt lat="37.67259" lon="14.6070617"><ele>376.33333333333337</ele><time>2026-04-26T11:37:05.202Z</time></trkpt><trkpt lat="37.6726383" lon="14.6071467"><ele>374.5</ele><time>2026-04-26T11:37:06.203Z</time></trkpt><trkpt lat="37.67269" lon="14.60723"><ele>372.6666666666667</ele><time>2026-04-26T11:37:07.202Z</time></trkpt><trkpt lat="37.6727383" lon="14.6073217"><ele>370.8333333333333</ele><time>2026-04-26T11:37:08.202Z</time></trkpt><trkpt lat="37.6727833" lon="14.6073983"><ele>369.0</ele><time>2026-04-26T11:37:09.202Z</time></trkpt><trkpt lat="37.6728267" lon="14.6074767"><ele>369.2</ele><time>2026-04-26T11:37:10.202Z</time></trkpt><trkpt lat="37.672885" lon="14.6076"><ele>369.4</ele><time>2026-04-26T11:37:12.202Z</time></trkpt><trkpt lat="37.6729383" lon="14.6077133"><ele>369.6</ele><time>2026-04-26T11:37:14.202Z</time></trkpt><trkpt lat="37.6729967" lon="14.6078117"><ele>369.8</ele><time>2026-04-26T11:37:16.202Z</time></trkpt><trkpt lat="37.6730533" lon="14.6078983"><ele>370.0</ele><time>2026-04-26T11:37:18.202Z</time></trkpt><trkpt lat="37.6731133" lon="14.6080033"><ele>370.0</ele><time>2026-04-26T11:37:20.203Z</time></trkpt><trkpt lat="37.6731867" lon="14.6080933"><ele>370.0</ele><time>2026-04-26T11:37:22.202Z</time></trkpt><trkpt lat="37.6732667" lon="14.6081683"><ele>370.0</ele><time>2026-04-26T11:37:24.202Z</time></trkpt><trkpt lat="37.6733833" lon="14.6082317"><ele>370.0</ele><time>2026-04-26T11:37:26.202Z</time></trkpt><trkpt lat="37.67349" lon="14.6083133"><ele>370.0</ele><time>2026-04-26T11:37:28.202Z</time></trkpt><trkpt lat="37.6735883" lon="14.6083933"><ele>370.0</ele><time>2026-04-26T11:37:30.203Z</time></trkpt><trkpt lat="37.6736683" lon="14.608475"><ele>370.0</ele><time>2026-04-26T11:37:32.202Z</time></trkpt><trkpt lat="37.6737033" lon="14.608555"><ele>370.0</ele><time>2026-04-26T11:37:34.202Z</time></trkpt><trkpt lat="37.6736933" lon="14.6086367"><ele>370.0</ele><time>2026-04-26T11:37:36.203Z</time></trkpt><trkpt lat="37.6736583" lon="14.6087067"><ele>370.0</ele><time>2026-04-26T11:37:37.202Z</time></trkpt><trkpt lat="37.6736167" lon="14.6087867"><ele>367.5</ele><time>2026-04-26T11:37:38.203Z</time></trkpt><trkpt lat="37.6735783" lon="14.6088583"><ele>365.0</ele><time>2026-04-26T11:37:39.202Z</time></trkpt><trkpt lat="37.6735483" lon="14.609015"><ele>362.5</ele><time>2026-04-26T11:37:41.202Z</time></trkpt><trkpt lat="37.67356" lon="14.609115"><ele>360.0</ele><time>2026-04-26T11:37:42.202Z</time></trkpt><trkpt lat="37.673575" lon="14.609205"><ele>357.5</ele><time>2026-04-26T11:37:43.202Z</time></trkpt><trkpt lat="37.67359" lon="14.6092917"><ele>355.0</ele><time>2026-04-26T11:37:44.202Z</time></trkpt><trkpt lat="37.6736017" lon="14.609385"><ele>354.85714285714283</ele><time>2026-04-26T11:37:45.202Z</time></trkpt><trkpt lat="37.6736117" lon="14.6094783"><ele>354.7142857142857</ele><time>2026-04-26T11:37:46.202Z</time></trkpt><trkpt lat="37.67362" lon="14.60957"><ele>354.57142857142856</ele><time>2026-04-26T11:37:47.203Z</time></trkpt><trkpt lat="37.6736333" lon="14.6096617"><ele>354.42857142857144</ele><time>2026-04-26T11:37:48.202Z</time></trkpt><trkpt lat="37.6736383" lon="14.60975"><ele>354.2857142857143</ele><time>2026-04-26T11:37:49.202Z</time></trkpt><trkpt lat="37.6736383" lon="14.60984"><ele>354.14285714285717</ele><time>2026-04-26T11:37:50.202Z</time></trkpt><trkpt lat="37.6736333" lon="14.60993"><ele>354.0</ele><time>2026-04-26T11:37:51.202Z</time></trkpt><trkpt lat="37.673615" lon="14.61002"><ele>354.0</ele><time>2026-04-26T11:37:52.203Z</time></trkpt><trkpt lat="37.6735917" lon="14.6101017"><ele>354.0</ele><time>2026-04-26T11:37:53.202Z</time></trkpt><trkpt lat="37.67356" lon="14.61018"><ele>354.0</ele><time>2026-04-26T11:37:54.202Z</time></trkpt><trkpt lat="37.6735267" lon="14.6102583"><ele>354.0</ele><time>2026-04-26T11:37:55.202Z</time></trkpt><trkpt lat="37.6734867" lon="14.6103383"><ele>354.0</ele><time>2026-04-26T11:37:56.203Z</time></trkpt><trkpt lat="37.6734483" lon="14.6104167"><ele>354.0</ele><time>2026-04-26T11:37:57.202Z</time></trkpt><trkpt lat="37.6734117" lon="14.6104917"><ele>354.0</ele><time>2026-04-26T11:37:58.202Z</time></trkpt><trkpt lat="37.6733733" lon="14.6105733"><ele>354.1666666666667</ele><time>2026-04-26T11:37:59.202Z</time></trkpt><trkpt lat="37.6733333" lon="14.6106583"><ele>354.3333333333333</ele><time>2026-04-26T11:38:00.202Z</time></trkpt><trkpt lat="37.6732933" lon="14.6107417"><ele>354.5</ele><time>2026-04-26T11:38:01.202Z</time></trkpt><trkpt lat="37.67325" lon="14.6108283"><ele>354.66666666666663</ele><time>2026-04-26T11:38:02.202Z</time></trkpt><trkpt lat="37.6732167" lon="14.6109067"><ele>354.8333333333333</ele><time>2026-04-26T11:38:03.203Z</time></trkpt><trkpt lat="37.67318" lon="14.6109833"><ele>355.0</ele><time>2026-04-26T11:38:04.203Z</time></trkpt><trkpt lat="37.6731267" lon="14.6111083"><ele>355.66666666666663</ele><time>2026-04-26T11:38:06.202Z</time></trkpt><trkpt lat="37.6731067" lon="14.6112317"><ele>356.3333333333333</ele><time>2026-04-26T11:38:08.202Z</time></trkpt><trkpt lat="37.67313" lon="14.611385"><ele>357.0</ele><time>2026-04-26T11:38:10.202Z</time></trkpt><trkpt lat="37.67315" lon="14.6114617"><ele>357.6666666666667</ele><time>2026-04-26T11:38:11.203Z</time></trkpt><trkpt lat="37.673175" lon="14.61154"><ele>358.33333333333337</ele><time>2026-04-26T11:38:12.203Z</time></trkpt><trkpt lat="37.673195" lon="14.6116167"><ele>359.0</ele><time>2026-04-26T11:38:13.202Z</time></trkpt><trkpt lat="37.6732183" lon="14.6116967"><ele>359.0</ele><time>2026-04-26T11:38:14.202Z</time></trkpt><trkpt lat="37.673265" lon="14.61185"><ele>359.0</ele><time>2026-04-26T11:38:16.202Z</time></trkpt><trkpt lat="37.6732933" lon="14.611925"><ele>359.0</ele><time>2026-04-26T11:38:17.202Z</time></trkpt><trkpt lat="37.67332" lon="14.6119983"><ele>359.0</ele><time>2026-04-26T11:38:18.202Z</time></trkpt><trkpt lat="37.6733717" lon="14.6121467"><ele>359.0</ele><time>2026-04-26T11:38:20.202Z</time></trkpt><trkpt lat="37.673395" lon="14.6123033"><ele>360.4</ele><time>2026-04-26T11:38:22.203Z</time></trkpt><trkpt lat="37.6733917" lon="14.6124567"><ele>361.79999999999995</ele><time>2026-04-26T11:38:24.202Z</time></trkpt><trkpt lat="37.6733317" lon="14.612575"><ele>363.20000000000005</ele><time>2026-04-26T11:38:26.202Z</time></trkpt><trkpt lat="37.6732767" lon="14.61262"><ele>364.6</ele><time>2026-04-26T11:38:27.202Z</time></trkpt><trkpt lat="37.67315" lon="14.6126533"><ele>366.0</ele><time>2026-04-26T11:38:29.202Z</time></trkpt><trkpt lat="37.6730833" lon="14.61264"><ele>366.0</ele><time>2026-04-26T11:38:30.202Z</time></trkpt><trkpt lat="37.6730167" lon="14.61262"><ele>366.0</ele><time>2026-04-26T11:38:31.202Z</time></trkpt><trkpt lat="37.6729483" lon="14.612595"><ele>366.0</ele><time>2026-04-26T11:38:32.202Z</time></trkpt><trkpt lat="37.67288" lon="14.6125783"><ele>366.0</ele><time>2026-04-26T11:38:33.202Z</time></trkpt><trkpt lat="37.672815" lon="14.612595"><ele>366.0</ele><time>2026-04-26T11:38:34.202Z</time></trkpt><trkpt lat="37.6727483" lon="14.6126483"><ele>366.0</ele><time>2026-04-26T11:38:35.202Z</time></trkpt><trkpt lat="37.67268" lon="14.6127167"><ele>366.0</ele><time>2026-04-26T11:38:36.202Z</time></trkpt><trkpt lat="37.67261" lon="14.61279"><ele>368.5</ele><time>2026-04-26T11:38:37.202Z</time></trkpt><trkpt lat="37.6725383" lon="14.612855"><ele>371.0</ele><time>2026-04-26T11:38:38.202Z</time></trkpt><trkpt lat="37.672475" lon="14.6129083"><ele>373.5</ele><time>2026-04-26T11:38:39.202Z</time></trkpt><trkpt lat="37.67241" lon="14.612945"><ele>376.0</ele><time>2026-04-26T11:38:40.202Z</time></trkpt><trkpt lat="37.67233" lon="14.6129517"><ele>378.5</ele><time>2026-04-26T11:38:41.202Z</time></trkpt><trkpt lat="37.67225" lon="14.6129233"><ele>381.0</ele><time>2026-04-26T11:38:42.202Z</time></trkpt><trkpt lat="37.672165" lon="14.6128733"><ele>381.6</ele><time>2026-04-26T11:38:43.202Z</time></trkpt><trkpt lat="37.6720733" lon="14.612815"><ele>382.20000000000005</ele><time>2026-04-26T11:38:44.202Z</time></trkpt><trkpt lat="37.6719783" lon="14.61275"><ele>382.79999999999995</ele><time>2026-04-26T11:38:45.202Z</time></trkpt><trkpt lat="37.6718917" lon="14.6126767"><ele>383.4</ele><time>2026-04-26T11:38:46.202Z</time></trkpt><trkpt lat="37.6718017" lon="14.612595"><ele>384.0</ele><time>2026-04-26T11:38:47.202Z</time></trkpt><trkpt lat="37.6717167" lon="14.6125117"><ele>384.0</ele><time>2026-04-26T11:38:48.202Z</time></trkpt><trkpt lat="37.67162" lon="14.6124467"><ele>384.0</ele><time>2026-04-26T11:38:49.202Z</time></trkpt><trkpt lat="37.6715033" lon="14.6123917"><ele>384.0</ele><time>2026-04-26T11:38:50.202Z</time></trkpt><trkpt lat="37.6713817" lon="14.612345"><ele>384.0</ele><time>2026-04-26T11:38:51.202Z</time></trkpt><trkpt lat="37.6712583" lon="14.6123017"><ele>384.0</ele><time>2026-04-26T11:38:52.202Z</time></trkpt><trkpt lat="37.67113" lon="14.6122483"><ele>384.0</ele><time>2026-04-26T11:38:53.203Z</time></trkpt><trkpt lat="37.6710083" lon="14.61219"><ele>384.0</ele><time>2026-04-26T11:38:54.202Z</time></trkpt><trkpt lat="37.6709" lon="14.6121317"><ele>384.0</ele><time>2026-04-26T11:38:55.202Z</time></trkpt><trkpt lat="37.6707917" lon="14.6120667"><ele>383.2</ele><time>2026-04-26T11:38:56.203Z</time></trkpt><trkpt lat="37.6706983" lon="14.6119983"><ele>382.4</ele><time>2026-04-26T11:38:57.202Z</time></trkpt><trkpt lat="37.6706" lon="14.611915"><ele>381.6</ele><time>2026-04-26T11:38:58.202Z</time></trkpt><trkpt lat="37.6705117" lon="14.61184"><ele>380.8</ele><time>2026-04-26T11:38:59.202Z</time></trkpt><trkpt lat="37.6704317" lon="14.6117833"><ele>380.0</ele><time>2026-04-26T11:39:00.202Z</time></trkpt><trkpt lat="37.6703467" lon="14.61175"><ele>379.0</ele><time>2026-04-26T11:39:01.202Z</time></trkpt><trkpt lat="37.6702633" lon="14.6117517"><ele>378.0</ele><time>2026-04-26T11:39:02.202Z</time></trkpt><trkpt lat="37.6701883" lon="14.6117983"><ele>377.0</ele><time>2026-04-26T11:39:03.202Z</time></trkpt><trkpt lat="37.6701367" lon="14.6118933"><ele>376.0</ele><time>2026-04-26T11:39:04.203Z</time></trkpt><trkpt lat="37.670095" lon="14.6120117"><ele>375.0</ele><time>2026-04-26T11:39:05.202Z</time></trkpt><trkpt lat="37.6700567" lon="14.612145"><ele>378.0</ele><time>2026-04-26T11:39:06.202Z</time></trkpt><trkpt lat="37.670025" lon="14.6122883"><ele>381.0</ele><time>2026-04-26T11:39:07.202Z</time></trkpt><trkpt lat="37.6699933" lon="14.612445"><ele>384.0</ele><time>2026-04-26T11:39:08.203Z</time></trkpt><trkpt lat="37.6699583" lon="14.6126133"><ele>387.0</ele><time>2026-04-26T11:39:09.202Z</time></trkpt><trkpt lat="37.669925" lon="14.6127783"><ele>391.25</ele><time>2026-04-26T11:39:10.202Z</time></trkpt><trkpt lat="37.669895" lon="14.61295"><ele>395.5</ele><time>2026-04-26T11:39:11.202Z</time></trkpt><trkpt lat="37.6698817" lon="14.6131233"><ele>399.75</ele><time>2026-04-26T11:39:12.202Z</time></trkpt><trkpt lat="37.6698717" lon="14.6133"><ele>404.0</ele><time>2026-04-26T11:39:13.202Z</time></trkpt><trkpt lat="37.66987" lon="14.613475"><ele>404.0</ele><time>2026-04-26T11:39:14.202Z</time></trkpt><trkpt lat="37.6698817" lon="14.6136383"><ele>404.0</ele><time>2026-04-26T11:39:15.202Z</time></trkpt><trkpt lat="37.6698883" lon="14.613795"><ele>404.0</ele><time>2026-04-26T11:39:16.202Z</time></trkpt><trkpt lat="37.669885" lon="14.6139433"><ele>404.0</ele><time>2026-04-26T11:39:17.202Z</time></trkpt><trkpt lat="37.669865" lon="14.61409"><ele>404.25</ele><time>2026-04-26T11:39:18.202Z</time></trkpt><trkpt lat="37.6698283" lon="14.614235"><ele>404.5</ele><time>2026-04-26T11:39:19.202Z</time></trkpt><trkpt lat="37.6697733" lon="14.6143867"><ele>404.75</ele><time>2026-04-26T11:39:20.203Z</time></trkpt><trkpt lat="37.669715" lon="14.614525"><ele>405.0</ele><time>2026-04-26T11:39:21.202Z</time></trkpt><trkpt lat="37.669655" lon="14.6146517"><ele>404.0</ele><time>2026-04-26T11:39:22.202Z</time></trkpt><trkpt lat="37.669595" lon="14.6147667"><ele>403.0</ele><time>2026-04-26T11:39:23.202Z</time></trkpt><trkpt lat="37.66952" lon="14.6148483"><ele>402.0</ele><time>2026-04-26T11:39:24.202Z</time></trkpt><trkpt lat="37.66943" lon="14.6148933"><ele>401.0</ele><time>2026-04-26T11:39:25.202Z</time></trkpt><trkpt lat="37.6693233" lon="14.6149133"><ele>400.0</ele><time>2026-04-26T11:39:26.202Z</time></trkpt><trkpt lat="37.66921" lon="14.614905"><ele>400.0</ele><time>2026-04-26T11:39:27.202Z</time></trkpt><trkpt lat="37.6690883" lon="14.6148917"><ele>400.0</ele><time>2026-04-26T11:39:28.202Z</time></trkpt><trkpt lat="37.6689633" lon="14.614885"><ele>400.0</ele><time>2026-04-26T11:39:29.202Z</time></trkpt><trkpt lat="37.668845" lon="14.6148817"><ele>400.0</ele><time>2026-04-26T11:39:30.202Z</time></trkpt><trkpt lat="37.6687417" lon="14.61488"><ele>400.00000000000006</ele><time>2026-04-26T11:39:31.202Z</time></trkpt><trkpt lat="37.66865" lon="14.614875"><ele>400.0</ele><time>2026-04-26T11:39:32.202Z</time></trkpt><trkpt lat="37.6685617" lon="14.6148717"><ele>400.0</ele><time>2026-04-26T11:39:33.202Z</time></trkpt><trkpt lat="37.66848" lon="14.6148717"><ele>400.0</ele><time>2026-04-26T11:39:34.202Z</time></trkpt><trkpt lat="37.6683933" lon="14.6148783"><ele>400.00000000000006</ele><time>2026-04-26T11:39:35.202Z</time></trkpt><trkpt lat="37.6682983" lon="14.6149017"><ele>400.0</ele><time>2026-04-26T11:39:36.202Z</time></trkpt><trkpt lat="37.6682" lon="14.6149283"><ele>400.25</ele><time>2026-04-26T11:39:37.202Z</time></trkpt><trkpt lat="37.6681" lon="14.6149683"><ele>400.5</ele><time>2026-04-26T11:39:38.202Z</time></trkpt><trkpt lat="37.6679917" lon="14.61503"><ele>400.75</ele><time>2026-04-26T11:39:39.202Z</time></trkpt><trkpt lat="37.6678917" lon="14.6151167"><ele>401.0</ele><time>2026-04-26T11:39:40.202Z</time></trkpt><trkpt lat="37.667805" lon="14.6152433"><ele>402.25</ele><time>2026-04-26T11:39:41.203Z</time></trkpt><trkpt lat="37.6677267" lon="14.6153867"><ele>403.5</ele><time>2026-04-26T11:39:42.203Z</time></trkpt><trkpt lat="37.6676317" lon="14.615535"><ele>404.75</ele><time>2026-04-26T11:39:43.202Z</time></trkpt><trkpt lat="37.6675283" lon="14.61569"><ele>406.0</ele><time>2026-04-26T11:39:44.202Z</time></trkpt><trkpt lat="37.6674433" lon="14.615835"><ele>406.0</ele><time>2026-04-26T11:39:45.202Z</time></trkpt><trkpt lat="37.667365" lon="14.61598"><ele>406.0</ele><time>2026-04-26T11:39:46.203Z</time></trkpt><trkpt lat="37.6673083" lon="14.6161233"><ele>406.0</ele><time>2026-04-26T11:39:47.202Z</time></trkpt><trkpt lat="37.667275" lon="14.6162817"><ele>406.0</ele><time>2026-04-26T11:39:48.202Z</time></trkpt><trkpt lat="37.6672667" lon="14.6164333"><ele>407.5</ele><time>2026-04-26T11:39:49.203Z</time></trkpt><trkpt lat="37.6672783" lon="14.6165833"><ele>409.0</ele><time>2026-04-26T11:39:50.202Z</time></trkpt><trkpt lat="37.6673033" lon="14.6167283"><ele>410.5</ele><time>2026-04-26T11:39:51.202Z</time></trkpt><trkpt lat="37.6673333" lon="14.616895"><ele>412.0</ele><time>2026-04-26T11:39:52.202Z</time></trkpt><trkpt lat="37.6673633" lon="14.6170633"><ele>413.25</ele><time>2026-04-26T11:39:53.202Z</time></trkpt><trkpt lat="37.6673967" lon="14.61724"><ele>414.5</ele><time>2026-04-26T11:39:54.202Z</time></trkpt><trkpt lat="37.6674283" lon="14.61742"><ele>415.75</ele><time>2026-04-26T11:39:55.202Z</time></trkpt><trkpt lat="37.6674617" lon="14.617595"><ele>417.0</ele><time>2026-04-26T11:39:56.202Z</time></trkpt><trkpt lat="37.6674983" lon="14.6177583"><ele>419.0</ele><time>2026-04-26T11:39:57.203Z</time></trkpt><trkpt lat="37.6675283" lon="14.6179133"><ele>421.0</ele><time>2026-04-26T11:39:58.202Z</time></trkpt><trkpt lat="37.6675533" lon="14.61806"><ele>423.0</ele><time>2026-04-26T11:39:59.203Z</time></trkpt><trkpt lat="37.6675667" lon="14.6181967"><ele>425.0</ele><time>2026-04-26T11:40:00.202Z</time></trkpt><trkpt lat="37.66755" lon="14.6183233"><ele>425.0</ele><time>2026-04-26T11:40:01.202Z</time></trkpt><trkpt lat="37.6675117" lon="14.6184483"><ele>425.0</ele><time>2026-04-26T11:40:02.202Z</time></trkpt><trkpt lat="37.6674583" lon="14.61856"><ele>425.0</ele><time>2026-04-26T11:40:03.202Z</time></trkpt><trkpt lat="37.6673917" lon="14.6186717"><ele>425.0</ele><time>2026-04-26T11:40:04.202Z</time></trkpt><trkpt lat="37.6673217" lon="14.6187967"><ele>425.0</ele><time>2026-04-26T11:40:05.203Z</time></trkpt><trkpt lat="37.6672467" lon="14.61893"><ele>427.0</ele><time>2026-04-26T11:40:06.202Z</time></trkpt><trkpt lat="37.667175" lon="14.6190667"><ele>429.0</ele><time>2026-04-26T11:40:07.202Z</time></trkpt><trkpt lat="37.667105" lon="14.6192017"><ele>431.0</ele><time>2026-04-26T11:40:08.202Z</time></trkpt><trkpt lat="37.66704" lon="14.6193283"><ele>433.0</ele><time>2026-04-26T11:40:09.202Z</time></trkpt><trkpt lat="37.6669767" lon="14.619445"><ele>432.25</ele><time>2026-04-26T11:40:10.202Z</time></trkpt><trkpt lat="37.666915" lon="14.6195617"><ele>431.5</ele><time>2026-04-26T11:40:11.202Z</time></trkpt><trkpt lat="37.6668467" lon="14.6196817"><ele>430.75</ele><time>2026-04-26T11:40:12.202Z</time></trkpt><trkpt lat="37.666775" lon="14.6198067"><ele>430.0</ele><time>2026-04-26T11:40:13.202Z</time></trkpt><trkpt lat="37.6667133" lon="14.6199283"><ele>430.0</ele><time>2026-04-26T11:40:14.202Z</time></trkpt><trkpt lat="37.6666567" lon="14.6200333"><ele>430.0</ele><time>2026-04-26T11:40:15.202Z</time></trkpt><trkpt lat="37.6666033" lon="14.6201417"><ele>430.0</ele><time>2026-04-26T11:40:16.202Z</time></trkpt><trkpt lat="37.6665467" lon="14.6202533"><ele>430.0</ele><time>2026-04-26T11:40:17.203Z</time></trkpt><trkpt lat="37.6664833" lon="14.62037"><ele>430.0</ele><time>2026-04-26T11:40:18.202Z</time></trkpt><trkpt lat="37.6664133" lon="14.6204883"><ele>432.75</ele><time>2026-04-26T11:40:19.203Z</time></trkpt><trkpt lat="37.66635" lon="14.6206117"><ele>435.5</ele><time>2026-04-26T11:40:20.202Z</time></trkpt><trkpt lat="37.6663033" lon="14.6207467"><ele>438.25</ele><time>2026-04-26T11:40:21.202Z</time></trkpt><trkpt lat="37.666275" lon="14.6208917"><ele>441.0</ele><time>2026-04-26T11:40:22.202Z</time></trkpt><trkpt lat="37.666265" lon="14.6210483"><ele>442.5</ele><time>2026-04-26T11:40:23.202Z</time></trkpt><trkpt lat="37.6662767" lon="14.621205"><ele>444.0</ele><time>2026-04-26T11:40:24.203Z</time></trkpt><trkpt lat="37.6663117" lon="14.6213667"><ele>445.5</ele><time>2026-04-26T11:40:25.203Z</time></trkpt><trkpt lat="37.6663617" lon="14.62153"><ele>447.0</ele><time>2026-04-26T11:40:26.203Z</time></trkpt><trkpt lat="37.6664067" lon="14.6216917"><ele>447.0</ele><time>2026-04-26T11:40:27.203Z</time></trkpt><trkpt lat="37.6664517" lon="14.6218517"><ele>447.0</ele><time>2026-04-26T11:40:28.202Z</time></trkpt><trkpt lat="37.6664933" lon="14.6220167"><ele>447.0</ele><time>2026-04-26T11:40:29.202Z</time></trkpt><trkpt lat="37.6665333" lon="14.6221767"><ele>447.0</ele><time>2026-04-26T11:40:30.202Z</time></trkpt><trkpt lat="37.6665717" lon="14.6223133"><ele>447.6666666666667</ele><time>2026-04-26T11:40:31.202Z</time></trkpt><trkpt lat="37.66661" lon="14.6224317"><ele>448.33333333333337</ele><time>2026-04-26T11:40:32.202Z</time></trkpt><trkpt lat="37.666645" lon="14.62255"><ele>449.0</ele><time>2026-04-26T11:40:33.202Z</time></trkpt><trkpt lat="37.6666667" lon="14.6226567"><ele>449.6666666666667</ele><time>2026-04-26T11:40:34.202Z</time></trkpt><trkpt lat="37.666675" lon="14.6227533"><ele>450.33333333333337</ele><time>2026-04-26T11:40:35.202Z</time></trkpt><trkpt lat="37.6666683" lon="14.6228467"><ele>451.0</ele><time>2026-04-26T11:40:36.202Z</time></trkpt><trkpt lat="37.666645" lon="14.622935"><ele>452.00000000000006</ele><time>2026-04-26T11:40:37.202Z</time></trkpt><trkpt lat="37.6666117" lon="14.62302"><ele>453.0</ele><time>2026-04-26T11:40:38.203Z</time></trkpt><trkpt lat="37.6665667" lon="14.6231"><ele>454.0</ele><time>2026-04-26T11:40:39.203Z</time></trkpt><trkpt lat="37.6665167" lon="14.62318"><ele>455.0</ele><time>2026-04-26T11:40:40.203Z</time></trkpt><trkpt lat="37.6664567" lon="14.6232583"><ele>456.00000000000006</ele><time>2026-04-26T11:40:41.202Z</time></trkpt><trkpt lat="37.66638" lon="14.6233467"><ele>457.0</ele><time>2026-04-26T11:40:42.203Z</time></trkpt><trkpt lat="37.666295" lon="14.6234467"><ele>457.0</ele><time>2026-04-26T11:40:43.203Z</time></trkpt><trkpt lat="37.6662133" lon="14.6235567"><ele>457.0</ele><time>2026-04-26T11:40:44.202Z</time></trkpt><trkpt lat="37.66614" lon="14.6236833"><ele>457.0</ele><time>2026-04-26T11:40:45.202Z</time></trkpt><trkpt lat="37.6660767" lon="14.6238217"><ele>457.0</ele><time>2026-04-26T11:40:46.202Z</time></trkpt><trkpt lat="37.6660283" lon="14.6239783"><ele>456.25</ele><time>2026-04-26T11:40:47.202Z</time></trkpt><trkpt lat="37.6659983" lon="14.6241467"><ele>455.5</ele><time>2026-04-26T11:40:48.202Z</time></trkpt><trkpt lat="37.6659717" lon="14.624325"><ele>454.75</ele><time>2026-04-26T11:40:49.202Z</time></trkpt><trkpt lat="37.6659383" lon="14.624505"><ele>454.0</ele><time>2026-04-26T11:40:50.202Z</time></trkpt><trkpt lat="37.6659067" lon="14.6246867"><ele>455.75</ele><time>2026-04-26T11:40:51.201Z</time></trkpt><trkpt lat="37.6658833" lon="14.6248667"><ele>457.5</ele><time>2026-04-26T11:40:52.201Z</time></trkpt><trkpt lat="37.6658533" lon="14.6250467"><ele>459.25</ele><time>2026-04-26T11:40:53.201Z</time></trkpt><trkpt lat="37.6658217" lon="14.6252267"><ele>461.0</ele><time>2026-04-26T11:40:54.201Z</time></trkpt><trkpt lat="37.6657833" lon="14.6254083"><ele>462.5</ele><time>2026-04-26T11:40:55.201Z</time></trkpt><trkpt lat="37.66575" lon="14.6255917"><ele>464.0</ele><time>2026-04-26T11:40:56.201Z</time></trkpt><trkpt lat="37.6657217" lon="14.6257633"><ele>465.5</ele><time>2026-04-26T11:40:57.202Z</time></trkpt><trkpt lat="37.665695" lon="14.6259233"><ele>467.0</ele><time>2026-04-26T11:40:58.201Z</time></trkpt><trkpt lat="37.66568" lon="14.6260733"><ele>468.25</ele><time>2026-04-26T11:40:59.201Z</time></trkpt><trkpt lat="37.6656817" lon="14.6262283"><ele>469.5</ele><time>2026-04-26T11:41:00.201Z</time></trkpt><trkpt lat="37.6657167" lon="14.6263733"><ele>470.75</ele><time>2026-04-26T11:41:01.201Z</time></trkpt><trkpt lat="37.66578" lon="14.62651"><ele>472.0</ele><time>2026-04-26T11:41:02.201Z</time></trkpt><trkpt lat="37.665865" lon="14.6266433"><ele>472.0</ele><time>2026-04-26T11:41:03.202Z</time></trkpt><trkpt lat="37.6659567" lon="14.626775"><ele>472.0</ele><time>2026-04-26T11:41:04.201Z</time></trkpt><trkpt lat="37.6660517" lon="14.6269133"><ele>472.0</ele><time>2026-04-26T11:41:05.201Z</time></trkpt><trkpt lat="37.6661483" lon="14.6270467"><ele>472.0</ele><time>2026-04-26T11:41:06.201Z</time></trkpt><trkpt lat="37.6662417" lon="14.627185"><ele>473.75</ele><time>2026-04-26T11:41:07.201Z</time></trkpt><trkpt lat="37.6663367" lon="14.627315"><ele>475.5</ele><time>2026-04-26T11:41:08.202Z</time></trkpt><trkpt lat="37.6664183" lon="14.6274417"><ele>477.25</ele><time>2026-04-26T11:41:09.201Z</time></trkpt><trkpt lat="37.6664817" lon="14.6275767"><ele>479.0</ele><time>2026-04-26T11:41:10.201Z</time></trkpt><trkpt lat="37.666525" lon="14.62772"><ele>478.75</ele><time>2026-04-26T11:41:11.201Z</time></trkpt><trkpt lat="37.6665617" lon="14.6278833"><ele>478.5</ele><time>2026-04-26T11:41:12.202Z</time></trkpt><trkpt lat="37.66659" lon="14.628055"><ele>478.25</ele><time>2026-04-26T11:41:13.201Z</time></trkpt><trkpt lat="37.666615" lon="14.6282333"><ele>478.0</ele><time>2026-04-26T11:41:14.201Z</time></trkpt><trkpt lat="37.666635" lon="14.6284067"><ele>478.0</ele><time>2026-04-26T11:41:15.201Z</time></trkpt><trkpt lat="37.66664" lon="14.6285733"><ele>478.0</ele><time>2026-04-26T11:41:16.201Z</time></trkpt><trkpt lat="37.6666283" lon="14.6287183"><ele>478.0</ele><time>2026-04-26T11:41:17.201Z</time></trkpt><trkpt lat="37.666595" lon="14.6288567"><ele>478.0</ele><time>2026-04-26T11:41:18.201Z</time></trkpt><trkpt lat="37.6665267" lon="14.628985"><ele>479.0</ele><time>2026-04-26T11:41:19.202Z</time></trkpt><trkpt lat="37.6664417" lon="14.6291117"><ele>480.0</ele><time>2026-04-26T11:41:20.201Z</time></trkpt><trkpt lat="37.6663533" lon="14.629245"><ele>481.0</ele><time>2026-04-26T11:41:21.202Z</time></trkpt><trkpt lat="37.666265" lon="14.62938"><ele>482.0</ele><time>2026-04-26T11:41:22.201Z</time></trkpt><trkpt lat="37.6661717" lon="14.629505"><ele>479.5</ele><time>2026-04-26T11:41:23.201Z</time></trkpt><trkpt lat="37.666075" lon="14.6296317"><ele>477.0</ele><time>2026-04-26T11:41:24.201Z</time></trkpt><trkpt lat="37.6659817" lon="14.62976"><ele>474.5</ele><time>2026-04-26T11:41:25.201Z</time></trkpt><trkpt lat="37.6658833" lon="14.629885"><ele>472.0</ele><time>2026-04-26T11:41:26.202Z</time></trkpt><trkpt lat="37.6657883" lon="14.6300133"><ele>472.0</ele><time>2026-04-26T11:41:27.201Z</time></trkpt><trkpt lat="37.6656867" lon="14.6301367"><ele>472.0</ele><time>2026-04-26T11:41:28.202Z</time></trkpt><trkpt lat="37.66558" lon="14.6302583"><ele>472.0</ele><time>2026-04-26T11:41:29.201Z</time></trkpt><trkpt lat="37.665465" lon="14.6303733"><ele>472.0</ele><time>2026-04-26T11:41:30.201Z</time></trkpt><trkpt lat="37.66535" lon="14.63048"><ele>469.25</ele><time>2026-04-26T11:41:31.201Z</time></trkpt><trkpt lat="37.6652317" lon="14.630585"><ele>466.5</ele><time>2026-04-26T11:41:32.201Z</time></trkpt><trkpt lat="37.665115" lon="14.63071"><ele>463.75</ele><time>2026-04-26T11:41:33.201Z</time></trkpt><trkpt lat="37.6650117" lon="14.630845"><ele>461.0</ele><time>2026-04-26T11:41:34.201Z</time></trkpt><trkpt lat="37.6649117" lon="14.6310017"><ele>461.66666666666663</ele><time>2026-04-26T11:41:35.201Z</time></trkpt><trkpt lat="37.66482" lon="14.6311617"><ele>462.33333333333337</ele><time>2026-04-26T11:41:36.201Z</time></trkpt><trkpt lat="37.664725" lon="14.6313133"><ele>463.0</ele><time>2026-04-26T11:41:37.201Z</time></trkpt><trkpt lat="37.6646283" lon="14.631465"><ele>463.0</ele><time>2026-04-26T11:41:38.201Z</time></trkpt><trkpt lat="37.6645383" lon="14.6316033"><ele>463.0</ele><time>2026-04-26T11:41:39.201Z</time></trkpt><trkpt lat="37.664445" lon="14.63174"><ele>463.0</ele><time>2026-04-26T11:41:40.201Z</time></trkpt><trkpt lat="37.6643517" lon="14.6318667"><ele>463.0</ele><time>2026-04-26T11:41:41.201Z</time></trkpt><trkpt lat="37.6642583" lon="14.6319983"><ele>461.5</ele><time>2026-04-26T11:41:42.202Z</time></trkpt><trkpt lat="37.6641683" lon="14.6321383"><ele>460.0</ele><time>2026-04-26T11:41:43.201Z</time></trkpt><trkpt lat="37.66408" lon="14.6322833"><ele>458.5</ele><time>2026-04-26T11:41:44.201Z</time></trkpt><trkpt lat="37.66399" lon="14.6324217"><ele>457.0</ele><time>2026-04-26T11:41:45.201Z</time></trkpt><trkpt lat="37.6638833" lon="14.6325467"><ele>457.0</ele><time>2026-04-26T11:41:46.201Z</time></trkpt><trkpt lat="37.6637717" lon="14.6326467"><ele>457.0</ele><time>2026-04-26T11:41:47.201Z</time></trkpt><trkpt lat="37.663655" lon="14.63275"><ele>457.0</ele><time>2026-04-26T11:41:48.201Z</time></trkpt><trkpt lat="37.6635433" lon="14.63286"><ele>457.0</ele><time>2026-04-26T11:41:49.201Z</time></trkpt><trkpt lat="37.6634317" lon="14.6329817"><ele>457.5</ele><time>2026-04-26T11:41:50.201Z</time></trkpt><trkpt lat="37.6633167" lon="14.6331017"><ele>458.0</ele><time>2026-04-26T11:41:51.201Z</time></trkpt><trkpt lat="37.663205" lon="14.633215"><ele>458.5</ele><time>2026-04-26T11:41:52.201Z</time></trkpt><trkpt lat="37.663095" lon="14.6333217"><ele>459.0</ele><time>2026-04-26T11:41:53.201Z</time></trkpt><trkpt lat="37.6630083" lon="14.6334367"><ele>459.0</ele><time>2026-04-26T11:41:54.201Z</time></trkpt><trkpt lat="37.6629383" lon="14.633555"><ele>459.0</ele><time>2026-04-26T11:41:55.202Z</time></trkpt><trkpt lat="37.6628817" lon="14.6336867"><ele>459.0</ele><time>2026-04-26T11:41:56.201Z</time></trkpt><trkpt lat="37.662835" lon="14.6338317"><ele>459.0</ele><time>2026-04-26T11:41:57.201Z</time></trkpt><trkpt lat="37.6628067" lon="14.6339983"><ele>459.25</ele><time>2026-04-26T11:41:58.202Z</time></trkpt><trkpt lat="37.6627883" lon="14.63417"><ele>459.5</ele><time>2026-04-26T11:41:59.201Z</time></trkpt><trkpt lat="37.6627817" lon="14.6343433"><ele>459.75</ele><time>2026-04-26T11:42:00.201Z</time></trkpt><trkpt lat="37.6627817" lon="14.634525"><ele>460.0</ele><time>2026-04-26T11:42:01.201Z</time></trkpt><trkpt lat="37.6627917" lon="14.6347033"><ele>460.0</ele><time>2026-04-26T11:42:02.202Z</time></trkpt><trkpt lat="37.662805" lon="14.634885"><ele>460.0</ele><time>2026-04-26T11:42:03.201Z</time></trkpt><trkpt lat="37.66282" lon="14.635065"><ele>460.0</ele><time>2026-04-26T11:42:04.201Z</time></trkpt><trkpt lat="37.662815" lon="14.6352517"><ele>460.0</ele><time>2026-04-26T11:42:05.201Z</time></trkpt><trkpt lat="37.662795" lon="14.6354383"><ele>457.0</ele><time>2026-04-26T11:42:06.201Z</time></trkpt><trkpt lat="37.66278" lon="14.6356267"><ele>454.0</ele><time>2026-04-26T11:42:07.201Z</time></trkpt><trkpt lat="37.6627617" lon="14.6358183"><ele>451.0</ele><time>2026-04-26T11:42:08.202Z</time></trkpt><trkpt lat="37.6627483" lon="14.636015"><ele>451.5</ele><time>2026-04-26T11:42:09.201Z</time></trkpt><trkpt lat="37.662725" lon="14.6362133"><ele>452.0</ele><time>2026-04-26T11:42:10.201Z</time></trkpt><trkpt lat="37.6627017" lon="14.6363933"><ele>452.5</ele><time>2026-04-26T11:42:11.201Z</time></trkpt><trkpt lat="37.6626783" lon="14.6365683"><ele>453.0</ele><time>2026-04-26T11:42:12.201Z</time></trkpt><trkpt lat="37.6626533" lon="14.6367233"><ele>453.0</ele><time>2026-04-26T11:42:13.202Z</time></trkpt><trkpt lat="37.6626317" lon="14.6368683"><ele>452.99999999999994</ele><time>2026-04-26T11:42:14.201Z</time></trkpt><trkpt lat="37.66261" lon="14.6370017"><ele>452.99999999999994</ele><time>2026-04-26T11:42:15.201Z</time></trkpt><trkpt lat="37.66257" lon="14.6371233"><ele>453.0</ele><time>2026-04-26T11:42:16.201Z</time></trkpt><trkpt lat="37.6624983" lon="14.63722"><ele>453.0</ele><time>2026-04-26T11:42:17.201Z</time></trkpt><trkpt lat="37.66241" lon="14.6372967"><ele>453.5</ele><time>2026-04-26T11:42:18.201Z</time></trkpt><trkpt lat="37.662305" lon="14.6373683"><ele>454.0</ele><time>2026-04-26T11:42:19.201Z</time></trkpt><trkpt lat="37.6621867" lon="14.6374317"><ele>454.5</ele><time>2026-04-26T11:42:20.201Z</time></trkpt><trkpt lat="37.6620733" lon="14.6374767"><ele>455.0</ele><time>2026-04-26T11:42:21.202Z</time></trkpt><trkpt lat="37.66196" lon="14.6374967"><ele>454.2</ele><time>2026-04-26T11:42:22.201Z</time></trkpt><trkpt lat="37.6618533" lon="14.6375067"><ele>453.4</ele><time>2026-04-26T11:42:23.201Z</time></trkpt><trkpt lat="37.661755" lon="14.6375167"><ele>452.6</ele><time>2026-04-26T11:42:24.201Z</time></trkpt><trkpt lat="37.661665" lon="14.6375217"><ele>451.8</ele><time>2026-04-26T11:42:25.201Z</time></trkpt><trkpt lat="37.6615817" lon="14.6375233"><ele>451.0</ele><time>2026-04-26T11:42:26.201Z</time></trkpt><trkpt lat="37.6615033" lon="14.63752"><ele>451.00000000000006</ele><time>2026-04-26T11:42:27.201Z</time></trkpt><trkpt lat="37.66144" lon="14.6375133"><ele>451.0</ele><time>2026-04-26T11:42:28.202Z</time></trkpt><trkpt lat="37.6613567" lon="14.63749"><ele>451.0</ele><time>2026-04-26T11:42:30.201Z</time></trkpt><trkpt lat="37.66127" lon="14.6374383"><ele>451.0</ele><time>2026-04-26T11:42:32.201Z</time></trkpt><trkpt lat="37.6612067" lon="14.6373833"><ele>451.00000000000006</ele><time>2026-04-26T11:42:33.201Z</time></trkpt><trkpt lat="37.6611367" lon="14.637315"><ele>451.0</ele><time>2026-04-26T11:42:34.201Z</time></trkpt><trkpt lat="37.66106" lon="14.637245"><ele>451.0</ele><time>2026-04-26T11:42:35.201Z</time></trkpt><trkpt lat="37.6609683" lon="14.6371667"><ele>451.0</ele><time>2026-04-26T11:42:36.201Z</time></trkpt><trkpt lat="37.6608733" lon="14.63709"><ele>451.0</ele><time>2026-04-26T11:42:37.201Z</time></trkpt><trkpt lat="37.6607717" lon="14.63701"><ele>451.0</ele><time>2026-04-26T11:42:38.201Z</time></trkpt><trkpt lat="37.6606633" lon="14.6369383"><ele>451.0</ele><time>2026-04-26T11:42:39.201Z</time></trkpt><trkpt lat="37.6605483" lon="14.636865"><ele>451.0</ele><time>2026-04-26T11:42:40.201Z</time></trkpt><trkpt lat="37.66043" lon="14.63679"><ele>451.0</ele><time>2026-04-26T11:42:41.201Z</time></trkpt><trkpt lat="37.660305" lon="14.63673"><ele>451.0</ele><time>2026-04-26T11:42:42.201Z</time></trkpt><trkpt lat="37.66017" lon="14.63667"><ele>453.6666666666667</ele><time>2026-04-26T11:42:43.201Z</time></trkpt><trkpt lat="37.6600283" lon="14.6366067"><ele>456.33333333333337</ele><time>2026-04-26T11:42:44.201Z</time></trkpt><trkpt lat="37.6598867" lon="14.6365567"><ele>459.0</ele><time>2026-04-26T11:42:45.201Z</time></trkpt><trkpt lat="37.6597367" lon="14.6364983"><ele>459.0</ele><time>2026-04-26T11:42:46.201Z</time></trkpt><trkpt lat="37.65959" lon="14.6364417"><ele>459.0</ele><time>2026-04-26T11:42:47.201Z</time></trkpt><trkpt lat="37.65944" lon="14.6363833"><ele>459.0</ele><time>2026-04-26T11:42:48.201Z</time></trkpt><trkpt lat="37.6592833" lon="14.6363333"><ele>462.0</ele><time>2026-04-26T11:42:49.201Z</time></trkpt><trkpt lat="37.6591317" lon="14.6362733"><ele>465.0</ele><time>2026-04-26T11:42:50.201Z</time></trkpt><trkpt lat="37.658975" lon="14.6362133"><ele>468.0</ele><time>2026-04-26T11:42:51.201Z</time></trkpt><trkpt lat="37.6588167" lon="14.636155"><ele>467.25</ele><time>2026-04-26T11:42:52.201Z</time></trkpt><trkpt lat="37.658665" lon="14.6361033"><ele>466.5</ele><time>2026-04-26T11:42:53.202Z</time></trkpt><trkpt lat="37.6585267" lon="14.6360583"><ele>465.75</ele><time>2026-04-26T11:42:54.202Z</time></trkpt><trkpt lat="37.6584167" lon="14.6360167"><ele>465.0</ele><time>2026-04-26T11:42:55.201Z</time></trkpt><trkpt lat="37.6583333" lon="14.635975"><ele>465.0</ele><time>2026-04-26T11:42:56.201Z</time></trkpt><trkpt lat="37.6582717" lon="14.63595"><ele>465.0</ele><time>2026-04-26T11:42:57.201Z</time></trkpt><trkpt lat="37.6581717" lon="14.6359333"><ele>465.0</ele><time>2026-04-26T11:43:20.201Z</time></trkpt><trkpt lat="37.658045" lon="14.6359083"><ele>465.0</ele><time>2026-04-26T11:43:22.201Z</time></trkpt><trkpt lat="37.6579567" lon="14.6358833"><ele>465.0</ele><time>2026-04-26T11:43:23.201Z</time></trkpt><trkpt lat="37.6578583" lon="14.63585"><ele>467.0</ele><time>2026-04-26T11:43:24.201Z</time></trkpt><trkpt lat="37.6577517" lon="14.63582"><ele>469.0</ele><time>2026-04-26T11:43:25.201Z</time></trkpt><trkpt lat="37.6576433" lon="14.6357733"><ele>471.0</ele><time>2026-04-26T11:43:26.202Z</time></trkpt><trkpt lat="37.6575383" lon="14.6357267"><ele>473.0</ele><time>2026-04-26T11:43:27.201Z</time></trkpt><trkpt lat="37.6574233" lon="14.635675"><ele>473.0</ele><time>2026-04-26T11:43:28.201Z</time></trkpt><trkpt lat="37.6573017" lon="14.63561"><ele>473.0</ele><time>2026-04-26T11:43:29.201Z</time></trkpt><trkpt lat="37.657175" lon="14.6355367"><ele>473.0</ele><time>2026-04-26T11:43:30.201Z</time></trkpt><trkpt lat="37.65705" lon="14.6354567"><ele>473.0</ele><time>2026-04-26T11:43:31.201Z</time></trkpt><trkpt lat="37.6569283" lon="14.6353767"><ele>473.0</ele><time>2026-04-26T11:43:32.201Z</time></trkpt><trkpt lat="37.6568033" lon="14.6352867"><ele>473.0</ele><time>2026-04-26T11:43:33.201Z</time></trkpt><trkpt lat="37.6566833" lon="14.6351917"><ele>473.0</ele><time>2026-04-26T11:43:34.201Z</time></trkpt><trkpt lat="37.6565717" lon="14.6351017"><ele>473.0</ele><time>2026-04-26T11:43:35.201Z</time></trkpt><trkpt lat="37.656455" lon="14.6350017"><ele>473.0</ele><time>2026-04-26T11:43:36.201Z</time></trkpt><trkpt lat="37.6563467" lon="14.6348933"><ele>473.0</ele><time>2026-04-26T11:43:37.201Z</time></trkpt><trkpt lat="37.6562467" lon="14.6347783"><ele>473.0</ele><time>2026-04-26T11:43:38.201Z</time></trkpt><trkpt lat="37.6561417" lon="14.6346583"><ele>473.0</ele><time>2026-04-26T11:43:39.201Z</time></trkpt><trkpt lat="37.6560433" lon="14.634535"><ele>473.5</ele><time>2026-04-26T11:43:40.201Z</time></trkpt><trkpt lat="37.6559233" lon="14.6344117"><ele>474.0</ele><time>2026-04-26T11:43:41.201Z</time></trkpt><trkpt lat="37.6558133" lon="14.6342833"><ele>474.5</ele><time>2026-04-26T11:43:42.201Z</time></trkpt><trkpt lat="37.6557083" lon="14.6341617"><ele>475.0</ele><time>2026-04-26T11:43:43.201Z</time></trkpt><trkpt lat="37.65561" lon="14.6340317"><ele>475.0</ele><time>2026-04-26T11:43:44.202Z</time></trkpt><trkpt lat="37.6555267" lon="14.6338967"><ele>475.0</ele><time>2026-04-26T11:43:45.201Z</time></trkpt><trkpt lat="37.6554467" lon="14.6337517"><ele>475.0</ele><time>2026-04-26T11:43:46.201Z</time></trkpt><trkpt lat="37.65537" lon="14.6336017"><ele>475.0</ele><time>2026-04-26T11:43:47.202Z</time></trkpt><trkpt lat="37.6553017" lon="14.63346"><ele>476.6</ele><time>2026-04-26T11:43:48.201Z</time></trkpt><trkpt lat="37.6552317" lon="14.6333267"><ele>478.2</ele><time>2026-04-26T11:43:49.201Z</time></trkpt><trkpt lat="37.655175" lon="14.6332067"><ele>479.79999999999995</ele><time>2026-04-26T11:43:50.201Z</time></trkpt><trkpt lat="37.65512" lon="14.6330983"><ele>481.4</ele><time>2026-04-26T11:43:51.201Z</time></trkpt><trkpt lat="37.6550733" lon="14.6330017"><ele>483.0</ele><time>2026-04-26T11:43:52.201Z</time></trkpt><trkpt lat="37.6550267" lon="14.63291"><ele>483.0</ele><time>2026-04-26T11:43:53.201Z</time></trkpt><trkpt lat="37.6549817" lon="14.6328367"><ele>482.99999999999994</ele><time>2026-04-26T11:43:54.201Z</time></trkpt><trkpt lat="37.6549133" lon="14.6327383"><ele>482.99999999999994</ele><time>2026-04-26T11:43:56.201Z</time></trkpt><trkpt lat="37.6548417" lon="14.6326917"><ele>483.0</ele><time>2026-04-26T11:43:59.201Z</time></trkpt><trkpt lat="37.654775" lon="14.6327117"><ele>483.0</ele><time>2026-04-26T11:44:01.201Z</time></trkpt><trkpt lat="37.6546733" lon="14.6328"><ele>483.0</ele><time>2026-04-26T11:44:03.201Z</time></trkpt><trkpt lat="37.65461" lon="14.63286"><ele>482.99999999999994</ele><time>2026-04-26T11:44:04.201Z</time></trkpt><trkpt lat="37.6545417" lon="14.6329333"><ele>482.99999999999994</ele><time>2026-04-26T11:44:05.201Z</time></trkpt><trkpt lat="37.6544683" lon="14.633015"><ele>483.0</ele><time>2026-04-26T11:44:06.201Z</time></trkpt><trkpt lat="37.654385" lon="14.6331067"><ele>483.0</ele><time>2026-04-26T11:44:07.201Z</time></trkpt><trkpt lat="37.6542983" lon="14.6332133"><ele>483.5</ele><time>2026-04-26T11:44:08.201Z</time></trkpt><trkpt lat="37.6542133" lon="14.6333217"><ele>484.0</ele><time>2026-04-26T11:44:09.201Z</time></trkpt><trkpt lat="37.6541333" lon="14.633445"><ele>484.5</ele><time>2026-04-26T11:44:10.201Z</time></trkpt><trkpt lat="37.6540533" lon="14.63358"><ele>485.0</ele><time>2026-04-26T11:44:11.201Z</time></trkpt><trkpt lat="37.6539833" lon="14.633715"><ele>487.5</ele><time>2026-04-26T11:44:12.201Z</time></trkpt><trkpt lat="37.6539183" lon="14.633845"><ele>490.0</ele><time>2026-04-26T11:44:13.201Z</time></trkpt><trkpt lat="37.6538483" lon="14.6339767"><ele>492.5</ele><time>2026-04-26T11:44:14.201Z</time></trkpt><trkpt lat="37.6537917" lon="14.6341217"><ele>495.0</ele><time>2026-04-26T11:44:15.201Z</time></trkpt><trkpt lat="37.65374" lon="14.634265"><ele>495.0</ele><time>2026-04-26T11:44:16.201Z</time></trkpt><trkpt lat="37.6536917" lon="14.6344033"><ele>495.0</ele><time>2026-04-26T11:44:17.201Z</time></trkpt><trkpt lat="37.6536517" lon="14.6345417"><ele>495.0</ele><time>2026-04-26T11:44:18.202Z</time></trkpt><trkpt lat="37.653625" lon="14.6346767"><ele>495.0</ele><time>2026-04-26T11:44:19.202Z</time></trkpt><trkpt lat="37.6535983" lon="14.6348133"><ele>494.4</ele><time>2026-04-26T11:44:20.202Z</time></trkpt><trkpt lat="37.6535783" lon="14.6349483"><ele>493.8</ele><time>2026-04-26T11:44:21.201Z</time></trkpt><trkpt lat="37.6535633" lon="14.6350733"><ele>493.20000000000005</ele><time>2026-04-26T11:44:22.201Z</time></trkpt><trkpt lat="37.6535467" lon="14.635185"><ele>492.6</ele><time>2026-04-26T11:44:23.201Z</time></trkpt><trkpt lat="37.6535283" lon="14.635285"><ele>492.0</ele><time>2026-04-26T11:44:24.201Z</time></trkpt><trkpt lat="37.6535233" lon="14.6353733"><ele>491.6666666666667</ele><time>2026-04-26T11:44:25.201Z</time></trkpt><trkpt lat="37.6535267" lon="14.6354633"><ele>491.33333333333337</ele><time>2026-04-26T11:44:26.201Z</time></trkpt><trkpt lat="37.6535283" lon="14.6355517"><ele>491.0</ele><time>2026-04-26T11:44:27.201Z</time></trkpt><trkpt lat="37.653535" lon="14.63565"><ele>490.6666666666667</ele><time>2026-04-26T11:44:28.201Z</time></trkpt><trkpt lat="37.65354" lon="14.6357467"><ele>490.33333333333337</ele><time>2026-04-26T11:44:29.202Z</time></trkpt><trkpt lat="37.653545" lon="14.6358533"><ele>490.0</ele><time>2026-04-26T11:44:30.202Z</time></trkpt><trkpt lat="37.6535483" lon="14.635975"><ele>490.0</ele><time>2026-04-26T11:44:31.201Z</time></trkpt><trkpt lat="37.6535417" lon="14.636105"><ele>490.0</ele><time>2026-04-26T11:44:32.201Z</time></trkpt><trkpt lat="37.65353" lon="14.636235"><ele>490.0</ele><time>2026-04-26T11:44:33.201Z</time></trkpt><trkpt lat="37.6535133" lon="14.6363633"><ele>490.0</ele><time>2026-04-26T11:44:34.201Z</time></trkpt><trkpt lat="37.65349" lon="14.6364933"><ele>490.0</ele><time>2026-04-26T11:44:35.201Z</time></trkpt><trkpt lat="37.6534667" lon="14.636615"><ele>491.2</ele><time>2026-04-26T11:44:36.201Z</time></trkpt><trkpt lat="37.6534333" lon="14.636725"><ele>492.4</ele><time>2026-04-26T11:44:37.201Z</time></trkpt><trkpt lat="37.6534017" lon="14.636835"><ele>493.6</ele><time>2026-04-26T11:44:38.201Z</time></trkpt><trkpt lat="37.65336" lon="14.6369433"><ele>494.8</ele><time>2026-04-26T11:44:39.201Z</time></trkpt><trkpt lat="37.6533133" lon="14.63705"><ele>496.0</ele><time>2026-04-26T11:44:40.201Z</time></trkpt><trkpt lat="37.653275" lon="14.63716"><ele>498.20000000000005</ele><time>2026-04-26T11:44:41.201Z</time></trkpt><trkpt lat="37.6532433" lon="14.6372717"><ele>500.40000000000003</ele><time>2026-04-26T11:44:42.201Z</time></trkpt><trkpt lat="37.6532183" lon="14.637395"><ele>502.6</ele><time>2026-04-26T11:44:43.202Z</time></trkpt><trkpt lat="37.653205" lon="14.6375167"><ele>504.8</ele><time>2026-04-26T11:44:44.202Z</time></trkpt><trkpt lat="37.653195" lon="14.63763"><ele>507.0</ele><time>2026-04-26T11:44:45.201Z</time></trkpt><trkpt lat="37.65318" lon="14.6377267"><ele>507.8333333333333</ele><time>2026-04-26T11:44:46.201Z</time></trkpt><trkpt lat="37.65316" lon="14.6378167"><ele>508.66666666666663</ele><time>2026-04-26T11:44:47.201Z</time></trkpt><trkpt lat="37.6531533" lon="14.637915"><ele>509.5</ele><time>2026-04-26T11:44:48.201Z</time></trkpt><trkpt lat="37.6531433" lon="14.6380233"><ele>510.3333333333333</ele><time>2026-04-26T11:44:49.201Z</time></trkpt><trkpt lat="37.653125" lon="14.638145"><ele>511.16666666666663</ele><time>2026-04-26T11:44:50.202Z</time></trkpt><trkpt lat="37.653115" lon="14.6382767"><ele>512.0</ele><time>2026-04-26T11:44:51.201Z</time></trkpt><trkpt lat="37.6530967" lon="14.6383967"><ele>511.99999999999994</ele><time>2026-04-26T11:44:52.201Z</time></trkpt><trkpt lat="37.6530633" lon="14.6385"><ele>512.0</ele><time>2026-04-26T11:44:53.201Z</time></trkpt><trkpt lat="37.6530267" lon="14.6385967"><ele>512.0</ele><time>2026-04-26T11:44:54.201Z</time></trkpt><trkpt lat="37.652985" lon="14.63869"><ele>512.0</ele><time>2026-04-26T11:44:55.201Z</time></trkpt><trkpt lat="37.65294" lon="14.6387883"><ele>511.99999999999994</ele><time>2026-04-26T11:44:56.201Z</time></trkpt><trkpt lat="37.6528917" lon="14.6388867"><ele>512.0</ele><time>2026-04-26T11:44:57.201Z</time></trkpt><trkpt lat="37.65284" lon="14.6389883"><ele>511.6</ele><time>2026-04-26T11:44:58.201Z</time></trkpt><trkpt lat="37.6527867" lon="14.6390933"><ele>511.20000000000005</ele><time>2026-04-26T11:44:59.201Z</time></trkpt><trkpt lat="37.6527267" lon="14.6392"><ele>510.8</ele><time>2026-04-26T11:45:00.201Z</time></trkpt><trkpt lat="37.6526733" lon="14.6393033"><ele>510.4</ele><time>2026-04-26T11:45:01.201Z</time></trkpt><trkpt lat="37.652625" lon="14.6393983"><ele>510.0</ele><time>2026-04-26T11:45:02.201Z</time></trkpt><trkpt lat="37.6525633" lon="14.6394883"><ele>511.5</ele><time>2026-04-26T11:45:03.201Z</time></trkpt><trkpt lat="37.6525033" lon="14.63957"><ele>513.0</ele><time>2026-04-26T11:45:04.201Z</time></trkpt><trkpt lat="37.6524483" lon="14.6396533"><ele>514.5</ele><time>2026-04-26T11:45:05.201Z</time></trkpt><trkpt lat="37.6523717" lon="14.6397083"><ele>516.0</ele><time>2026-04-26T11:45:06.201Z</time></trkpt><trkpt lat="37.6523117" lon="14.639775"><ele>517.5</ele><time>2026-04-26T11:45:07.201Z</time></trkpt><trkpt lat="37.6522533" lon="14.6398483"><ele>519.0</ele><time>2026-04-26T11:45:08.201Z</time></trkpt><trkpt lat="37.6522083" lon="14.6399183"><ele>519.0</ele><time>2026-04-26T11:45:09.201Z</time></trkpt><trkpt lat="37.6521467" lon="14.639995"><ele>519.0</ele><time>2026-04-26T11:45:10.202Z</time></trkpt><trkpt lat="37.6520833" lon="14.6400417"><ele>519.0</ele><time>2026-04-26T11:45:11.201Z</time></trkpt><trkpt lat="37.6520317" lon="14.6400933"><ele>519.0</ele><time>2026-04-26T11:45:12.201Z</time></trkpt><trkpt lat="37.6519633" lon="14.64013"><ele>519.0</ele><time>2026-04-26T11:45:13.201Z</time></trkpt><trkpt lat="37.651885" lon="14.6401383"><ele>519.0</ele><time>2026-04-26T11:45:14.201Z</time></trkpt><trkpt lat="37.6518033" lon="14.6401483"><ele>518.6</ele><time>2026-04-26T11:45:15.201Z</time></trkpt><trkpt lat="37.6517083" lon="14.64013"><ele>518.2</ele><time>2026-04-26T11:45:16.201Z</time></trkpt><trkpt lat="37.651605" lon="14.64012"><ele>517.8000000000001</ele><time>2026-04-26T11:45:17.201Z</time></trkpt><trkpt lat="37.6515017" lon="14.6401133"><ele>517.4</ele><time>2026-04-26T11:45:18.201Z</time></trkpt><trkpt lat="37.651405" lon="14.6401067"><ele>517.0</ele><time>2026-04-26T11:45:19.201Z</time></trkpt><trkpt lat="37.65132" lon="14.6401083"><ele>517.0</ele><time>2026-04-26T11:45:20.202Z</time></trkpt><trkpt lat="37.6512417" lon="14.6400983"><ele>517.0</ele><time>2026-04-26T11:45:21.201Z</time></trkpt><trkpt lat="37.65117" lon="14.6401033"><ele>517.0</ele><time>2026-04-26T11:45:22.202Z</time></trkpt><trkpt lat="37.6510983" lon="14.6401017"><ele>517.0</ele><time>2026-04-26T11:45:23.201Z</time></trkpt><trkpt lat="37.6510167" lon="14.6401"><ele>517.0</ele><time>2026-04-26T11:45:25.201Z</time></trkpt><trkpt lat="37.6510233" lon="14.6402267"><ele>517.0</ele><time>2026-04-26T11:48:15.201Z</time></trkpt><trkpt lat="37.6508883" lon="14.6402367"><ele>517.0</ele><time>2026-04-26T11:50:04.2Z</time></trkpt><trkpt lat="37.6508117" lon="14.6402533"><ele>517.0</ele><time>2026-04-26T11:50:05.2Z</time></trkpt><trkpt lat="37.6507117" lon="14.64027"><ele>517.0</ele><time>2026-04-26T11:50:06.2Z</time></trkpt><trkpt lat="37.6506033" lon="14.6402833"><ele>517.0</ele><time>2026-04-26T11:50:07.2Z</time></trkpt><trkpt lat="37.6504867" lon="14.6402783"><ele>517.0</ele><time>2026-04-26T11:50:08.2Z</time></trkpt><trkpt lat="37.65038" lon="14.640295"><ele>520.2</ele><time>2026-04-26T11:50:09.2Z</time></trkpt><trkpt lat="37.650265" lon="14.6403233"><ele>523.4000000000001</ele><time>2026-04-26T11:50:10.2Z</time></trkpt><trkpt lat="37.6501667" lon="14.6403533"><ele>526.5999999999999</ele><time>2026-04-26T11:50:11.2Z</time></trkpt><trkpt lat="37.650065" lon="14.6403783"><ele>529.8</ele><time>2026-04-26T11:50:12.2Z</time></trkpt><trkpt lat="37.6499633" lon="14.6404083"><ele>533.0</ele><time>2026-04-26T11:50:13.2Z</time></trkpt><trkpt lat="37.6498767" lon="14.6404517"><ele>533.0</ele><time>2026-04-26T11:50:14.2Z</time></trkpt><trkpt lat="37.6497967" lon="14.6404917"><ele>533.0</ele><time>2026-04-26T11:50:15.2Z</time></trkpt><trkpt lat="37.6497233" lon="14.6405217"><ele>533.0</ele><time>2026-04-26T11:50:16.2Z</time></trkpt><trkpt lat="37.6496817" lon="14.6405983"><ele>533.0</ele><time>2026-04-26T11:50:17.2Z</time></trkpt><trkpt lat="37.6496133" lon="14.6406433"><ele>533.0</ele><time>2026-04-26T11:50:26.2Z</time></trkpt><trkpt lat="37.6496283" lon="14.6407433"><ele>533.0</ele><time>2026-04-26T11:50:28.201Z</time></trkpt><trkpt lat="37.6496233" lon="14.6408733"><ele>533.0</ele><time>2026-04-26T11:50:30.201Z</time></trkpt><trkpt lat="37.6495983" lon="14.64101"><ele>533.0</ele><time>2026-04-26T11:50:32.2Z</time></trkpt><trkpt lat="37.649615" lon="14.641165"><ele>533.0</ele><time>2026-04-26T11:50:34.201Z</time></trkpt><trkpt lat="37.64964" lon="14.6412567"><ele>533.0</ele><time>2026-04-26T11:50:35.2Z</time></trkpt><trkpt lat="37.64966" lon="14.64136"><ele>533.0</ele><time>2026-04-26T11:50:36.2Z</time></trkpt><trkpt lat="37.6496867" lon="14.64147"><ele>534.0</ele><time>2026-04-26T11:50:37.201Z</time></trkpt><trkpt lat="37.6497133" lon="14.641585"><ele>535.0</ele><time>2026-04-26T11:50:38.2Z</time></trkpt><trkpt lat="37.6497417" lon="14.6416983"><ele>536.0</ele><time>2026-04-26T11:50:39.2Z</time></trkpt><trkpt lat="37.6497717" lon="14.6418083"><ele>537.0</ele><time>2026-04-26T11:50:40.2Z</time></trkpt><trkpt lat="37.649805" lon="14.6419233"><ele>538.0</ele><time>2026-04-26T11:50:41.2Z</time></trkpt><trkpt lat="37.6498267" lon="14.6420417"><ele>538.1666666666667</ele><time>2026-04-26T11:50:42.2Z</time></trkpt><trkpt lat="37.64983" lon="14.6421717"><ele>538.3333333333334</ele><time>2026-04-26T11:50:43.2Z</time></trkpt><trkpt lat="37.6498333" lon="14.6422767"><ele>538.5</ele><time>2026-04-26T11:50:44.2Z</time></trkpt><trkpt lat="37.6498483" lon="14.642385"><ele>538.6666666666666</ele><time>2026-04-26T11:50:45.2Z</time></trkpt><trkpt lat="37.6498733" lon="14.64248"><ele>538.8333333333333</ele><time>2026-04-26T11:50:46.2Z</time></trkpt><trkpt lat="37.6498933" lon="14.6425817"><ele>539.0</ele><time>2026-04-26T11:50:47.2Z</time></trkpt><trkpt lat="37.64991" lon="14.6426817"><ele>539.0</ele><time>2026-04-26T11:50:48.2Z</time></trkpt><trkpt lat="37.6499283" lon="14.6427917"><ele>539.0</ele><time>2026-04-26T11:50:49.2Z</time></trkpt><trkpt lat="37.6499483" lon="14.6429117"><ele>539.0</ele><time>2026-04-26T11:50:50.2Z</time></trkpt><trkpt lat="37.6499633" lon="14.6430267"><ele>539.0</ele><time>2026-04-26T11:50:51.2Z</time></trkpt><trkpt lat="37.64999" lon="14.643145"><ele>539.0</ele><time>2026-04-26T11:50:52.2Z</time></trkpt><trkpt lat="37.6500183" lon="14.6432583"><ele>539.0</ele><time>2026-04-26T11:50:53.2Z</time></trkpt><trkpt lat="37.6500333" lon="14.6433967"><ele>539.0</ele><time>2026-04-26T11:50:54.2Z</time></trkpt><trkpt lat="37.65004" lon="14.6435367"><ele>539.0</ele><time>2026-04-26T11:50:55.2Z</time></trkpt><trkpt lat="37.65004" lon="14.6436583"><ele>539.0</ele><time>2026-04-26T11:50:56.2Z</time></trkpt><trkpt lat="37.65005" lon="14.6437717"><ele>539.0</ele><time>2026-04-26T11:50:57.2Z</time></trkpt><trkpt lat="37.65007" lon="14.6438767"><ele>539.5</ele><time>2026-04-26T11:50:58.201Z</time></trkpt><trkpt lat="37.650105" lon="14.6439733"><ele>540.0</ele><time>2026-04-26T11:50:59.2Z</time></trkpt><trkpt lat="37.6501567" lon="14.6440667"><ele>540.5</ele><time>2026-04-26T11:51:00.2Z</time></trkpt><trkpt lat="37.650225" lon="14.6441183"><ele>541.0</ele><time>2026-04-26T11:51:01.2Z</time></trkpt><trkpt lat="37.6502817" lon="14.6441767"><ele>541.5</ele><time>2026-04-26T11:51:02.2Z</time></trkpt><trkpt lat="37.650345" lon="14.6442017"><ele>542.0</ele><time>2026-04-26T11:51:03.2Z</time></trkpt><trkpt lat="37.65046" lon="14.64422"><ele>542.8000000000001</ele><time>2026-04-26T11:51:05.2Z</time></trkpt><trkpt lat="37.6505717" lon="14.6442683"><ele>543.6</ele><time>2026-04-26T11:51:07.2Z</time></trkpt><trkpt lat="37.65066" lon="14.6442633"><ele>544.4000000000001</ele><time>2026-04-26T11:51:09.2Z</time></trkpt><trkpt lat="37.6507283" lon="14.6443533"><ele>545.2</ele><time>2026-04-26T11:51:11.2Z</time></trkpt><trkpt lat="37.6507667" lon="14.6444367"><ele>546.0</ele><time>2026-04-26T11:51:12.2Z</time></trkpt><trkpt lat="37.65081" lon="14.6445467"><ele>546.0</ele><time>2026-04-26T11:51:13.2Z</time></trkpt><trkpt lat="37.6508667" lon="14.6446633"><ele>546.0</ele><time>2026-04-26T11:51:14.2Z</time></trkpt><trkpt lat="37.650925" lon="14.6447983"><ele>546.0</ele><time>2026-04-26T11:51:15.2Z</time></trkpt><trkpt lat="37.6509967" lon="14.6449483"><ele>546.0</ele><time>2026-04-26T11:51:16.2Z</time></trkpt><trkpt lat="37.6510617" lon="14.6451033"><ele>542.25</ele><time>2026-04-26T11:51:17.2Z</time></trkpt><trkpt lat="37.6511267" lon="14.6452433"><ele>538.5</ele><time>2026-04-26T11:51:18.2Z</time></trkpt><trkpt lat="37.6511833" lon="14.6453717"><ele>534.75</ele><time>2026-04-26T11:51:19.2Z</time></trkpt><trkpt lat="37.65122" lon="14.6455033"><ele>531.0</ele><time>2026-04-26T11:51:20.2Z</time></trkpt><trkpt lat="37.6512533" lon="14.6456383"><ele>531.0</ele><time>2026-04-26T11:51:21.201Z</time></trkpt><trkpt lat="37.6512567" lon="14.6457683"><ele>531.0</ele><time>2026-04-26T11:51:22.2Z</time></trkpt><trkpt lat="37.6512583" lon="14.6458967"><ele>531.0</ele><time>2026-04-26T11:51:23.201Z</time></trkpt><trkpt lat="37.6512567" lon="14.6460167"><ele>531.0</ele><time>2026-04-26T11:51:24.2Z</time></trkpt><trkpt lat="37.6512617" lon="14.6461483"><ele>531.0</ele><time>2026-04-26T11:51:25.2Z</time></trkpt><trkpt lat="37.65127" lon="14.6462817"><ele>531.5</ele><time>2026-04-26T11:51:26.2Z</time></trkpt><trkpt lat="37.65128" lon="14.6464183"><ele>532.0</ele><time>2026-04-26T11:51:27.2Z</time></trkpt><trkpt lat="37.6512833" lon="14.6465583"><ele>532.5</ele><time>2026-04-26T11:51:28.2Z</time></trkpt><trkpt lat="37.6512883" lon="14.6467083"><ele>533.0</ele><time>2026-04-26T11:51:29.201Z</time></trkpt><trkpt lat="37.651295" lon="14.646855"><ele>532.25</ele><time>2026-04-26T11:51:30.2Z</time></trkpt><trkpt lat="37.6512967" lon="14.647"><ele>531.5</ele><time>2026-04-26T11:51:31.2Z</time></trkpt><trkpt lat="37.6512917" lon="14.6471483"><ele>530.75</ele><time>2026-04-26T11:51:32.201Z</time></trkpt><trkpt lat="37.6512883" lon="14.6473083"><ele>530.0</ele><time>2026-04-26T11:51:33.2Z</time></trkpt><trkpt lat="37.6512617" lon="14.647475"><ele>530.0</ele><time>2026-04-26T11:51:34.2Z</time></trkpt><trkpt lat="37.6512183" lon="14.64764"><ele>530.0</ele><time>2026-04-26T11:51:35.2Z</time></trkpt><trkpt lat="37.6511767" lon="14.6478067"><ele>530.0</ele><time>2026-04-26T11:51:36.2Z</time></trkpt><trkpt lat="37.651135" lon="14.6479683"><ele>530.0</ele><time>2026-04-26T11:51:37.2Z</time></trkpt><trkpt lat="37.6511083" lon="14.6481467"><ele>531.0</ele><time>2026-04-26T11:51:38.2Z</time></trkpt><trkpt lat="37.6510867" lon="14.64833"><ele>532.0</ele><time>2026-04-26T11:51:39.2Z</time></trkpt><trkpt lat="37.651085" lon="14.6484983"><ele>533.0</ele><time>2026-04-26T11:51:40.2Z</time></trkpt><trkpt lat="37.65111" lon="14.6486633"><ele>534.0</ele><time>2026-04-26T11:51:41.2Z</time></trkpt><trkpt lat="37.6511433" lon="14.6488167"><ele>534.0</ele><time>2026-04-26T11:51:42.2Z</time></trkpt><trkpt lat="37.6511933" lon="14.6489717"><ele>534.0</ele><time>2026-04-26T11:51:43.2Z</time></trkpt><trkpt lat="37.651245" lon="14.649125"><ele>534.0</ele><time>2026-04-26T11:51:44.2Z</time></trkpt><trkpt lat="37.6512967" lon="14.649275"><ele>534.0</ele><time>2026-04-26T11:51:45.2Z</time></trkpt><trkpt lat="37.6513467" lon="14.6494317"><ele>534.5</ele><time>2026-04-26T11:51:46.2Z</time></trkpt><trkpt lat="37.6514067" lon="14.6495917"><ele>535.0</ele><time>2026-04-26T11:51:47.2Z</time></trkpt><trkpt lat="37.6514567" lon="14.6497467"><ele>535.5</ele><time>2026-04-26T11:51:48.2Z</time></trkpt><trkpt lat="37.6515033" lon="14.649905"><ele>536.0</ele><time>2026-04-26T11:51:49.201Z</time></trkpt><trkpt lat="37.65154" lon="14.650075"><ele>536.0</ele><time>2026-04-26T11:51:50.201Z</time></trkpt><trkpt lat="37.6515567" lon="14.6502617"><ele>536.0</ele><time>2026-04-26T11:51:51.2Z</time></trkpt><trkpt lat="37.65155" lon="14.6504483"><ele>536.0</ele><time>2026-04-26T11:51:52.2Z</time></trkpt><trkpt lat="37.6515267" lon="14.6506433"><ele>535.0</ele><time>2026-04-26T11:51:53.2Z</time></trkpt><trkpt lat="37.65151" lon="14.6508333"><ele>534.0</ele><time>2026-04-26T11:51:54.2Z</time></trkpt><trkpt lat="37.65149" lon="14.6510133"><ele>533.0</ele><time>2026-04-26T11:51:55.2Z</time></trkpt><trkpt lat="37.65149" lon="14.6512117"><ele>532.25</ele><time>2026-04-26T11:51:56.2Z</time></trkpt><trkpt lat="37.6514983" lon="14.6514083"><ele>531.5</ele><time>2026-04-26T11:51:57.2Z</time></trkpt><trkpt lat="37.6515017" lon="14.6515933"><ele>530.75</ele><time>2026-04-26T11:51:58.2Z</time></trkpt><trkpt lat="37.6514983" lon="14.6517767"><ele>530.0</ele><time>2026-04-26T11:51:59.201Z</time></trkpt><trkpt lat="37.6514883" lon="14.6519583"><ele>528.6666666666666</ele><time>2026-04-26T11:52:00.2Z</time></trkpt><trkpt lat="37.6514633" lon="14.6521467"><ele>527.3333333333334</ele><time>2026-04-26T11:52:01.2Z</time></trkpt><trkpt lat="37.6514133" lon="14.652335"><ele>526.0</ele><time>2026-04-26T11:52:02.201Z</time></trkpt><trkpt lat="37.65134" lon="14.6525183"><ele>526.0</ele><time>2026-04-26T11:52:03.2Z</time></trkpt><trkpt lat="37.65126" lon="14.6526983"><ele>526.0</ele><time>2026-04-26T11:52:04.2Z</time></trkpt><trkpt lat="37.651175" lon="14.6528683"><ele>526.0</ele><time>2026-04-26T11:52:05.2Z</time></trkpt><trkpt lat="37.65109" lon="14.6530467"><ele>526.6666666666667</ele><time>2026-04-26T11:52:06.2Z</time></trkpt><trkpt lat="37.651015" lon="14.65323"><ele>527.3333333333334</ele><time>2026-04-26T11:52:07.2Z</time></trkpt><trkpt lat="37.6509517" lon="14.65343"><ele>528.0</ele><time>2026-04-26T11:52:08.2Z</time></trkpt><trkpt lat="37.6509" lon="14.6536333"><ele>528.0</ele><time>2026-04-26T11:52:09.2Z</time></trkpt><trkpt lat="37.6508567" lon="14.6538483"><ele>528.0</ele><time>2026-04-26T11:52:10.2Z</time></trkpt><trkpt lat="37.6508133" lon="14.6540633"><ele>528.0</ele><time>2026-04-26T11:52:11.2Z</time></trkpt><trkpt lat="37.650785" lon="14.6542867"><ele>527.0</ele><time>2026-04-26T11:52:12.2Z</time></trkpt><trkpt lat="37.6507567" lon="14.6544917"><ele>526.0</ele><time>2026-04-26T11:52:13.2Z</time></trkpt><trkpt lat="37.6507333" lon="14.6546833"><ele>525.0</ele><time>2026-04-26T11:52:14.2Z</time></trkpt><trkpt lat="37.6507283" lon="14.6548783"><ele>525.0</ele><time>2026-04-26T11:52:15.2Z</time></trkpt><trkpt lat="37.6507517" lon="14.6550767"><ele>525.0</ele><time>2026-04-26T11:52:16.2Z</time></trkpt><trkpt lat="37.650795" lon="14.65526"><ele>525.0</ele><time>2026-04-26T11:52:17.2Z</time></trkpt><trkpt lat="37.6508383" lon="14.655435"><ele>523.3333333333334</ele><time>2026-04-26T11:52:18.2Z</time></trkpt><trkpt lat="37.650865" lon="14.6556267"><ele>521.6666666666667</ele><time>2026-04-26T11:52:19.2Z</time></trkpt><trkpt lat="37.6508733" lon="14.6558317"><ele>520.0</ele><time>2026-04-26T11:52:20.2Z</time></trkpt><trkpt lat="37.650855" lon="14.6560433"><ele>518.3333333333334</ele><time>2026-04-26T11:52:21.2Z</time></trkpt><trkpt lat="37.6508333" lon="14.6562633"><ele>516.6666666666666</ele><time>2026-04-26T11:52:22.201Z</time></trkpt><trkpt lat="37.6508217" lon="14.6564783"><ele>515.0</ele><time>2026-04-26T11:52:23.201Z</time></trkpt><trkpt lat="37.6508217" lon="14.6566933"><ele>515.0</ele><time>2026-04-26T11:52:24.2Z</time></trkpt><trkpt lat="37.6508267" lon="14.6569067"><ele>515.0</ele><time>2026-04-26T11:52:25.2Z</time></trkpt><trkpt lat="37.650845" lon="14.657105"><ele>515.0</ele><time>2026-04-26T11:52:26.201Z</time></trkpt><trkpt lat="37.6508583" lon="14.6572867"><ele>514.75</ele><time>2026-04-26T11:52:27.2Z</time></trkpt><trkpt lat="37.6508667" lon="14.65746"><ele>514.5</ele><time>2026-04-26T11:52:28.201Z</time></trkpt><trkpt lat="37.6508533" lon="14.6576383"><ele>514.25</ele><time>2026-04-26T11:52:29.201Z</time></trkpt><trkpt lat="37.65082" lon="14.65781"><ele>514.0</ele><time>2026-04-26T11:52:30.2Z</time></trkpt><trkpt lat="37.650765" lon="14.6579967"><ele>512.0</ele><time>2026-04-26T11:52:31.2Z</time></trkpt><trkpt lat="37.6507" lon="14.658185"><ele>510.0</ele><time>2026-04-26T11:52:32.201Z</time></trkpt><trkpt lat="37.6506333" lon="14.6583833"><ele>508.0</ele><time>2026-04-26T11:52:33.2Z</time></trkpt><trkpt lat="37.6505633" lon="14.6585733"><ele>504.0</ele><time>2026-04-26T11:52:34.201Z</time></trkpt><trkpt lat="37.65048" lon="14.6587483"><ele>500.0</ele><time>2026-04-26T11:52:35.2Z</time></trkpt><trkpt lat="37.6503883" lon="14.6589233"><ele>496.0</ele><time>2026-04-26T11:52:36.2Z</time></trkpt><trkpt lat="37.6503017" lon="14.65909"><ele>498.25</ele><time>2026-04-26T11:52:37.2Z</time></trkpt><trkpt lat="37.6502267" lon="14.6592617"><ele>500.5</ele><time>2026-04-26T11:52:38.201Z</time></trkpt><trkpt lat="37.6501617" lon="14.6594383"><ele>502.75</ele><time>2026-04-26T11:52:39.2Z</time></trkpt><trkpt lat="37.6501117" lon="14.6596033"><ele>505.0</ele><time>2026-04-26T11:52:40.2Z</time></trkpt><trkpt lat="37.6500583" lon="14.6597683"><ele>505.0</ele><time>2026-04-26T11:52:41.2Z</time></trkpt><trkpt lat="37.6500083" lon="14.6599317"><ele>505.0</ele><time>2026-04-26T11:52:42.2Z</time></trkpt><trkpt lat="37.6499583" lon="14.660095"><ele>505.0</ele><time>2026-04-26T11:52:43.2Z</time></trkpt><trkpt lat="37.6499083" lon="14.6602517"><ele>505.0</ele><time>2026-04-26T11:52:44.2Z</time></trkpt><trkpt lat="37.6498733" lon="14.6603883"><ele>506.25</ele><time>2026-04-26T11:52:45.2Z</time></trkpt><trkpt lat="37.6498683" lon="14.660525"><ele>507.5</ele><time>2026-04-26T11:52:46.2Z</time></trkpt><trkpt lat="37.6499133" lon="14.6606617"><ele>508.75</ele><time>2026-04-26T11:52:47.2Z</time></trkpt><trkpt lat="37.6499833" lon="14.6608067"><ele>510.0</ele><time>2026-04-26T11:52:48.2Z</time></trkpt><trkpt lat="37.6500783" lon="14.6609617"><ele>507.33333333333337</ele><time>2026-04-26T11:52:49.2Z</time></trkpt><trkpt lat="37.65018" lon="14.6611217"><ele>504.6666666666667</ele><time>2026-04-26T11:52:50.2Z</time></trkpt><trkpt lat="37.6502867" lon="14.6612967"><ele>502.0</ele><time>2026-04-26T11:52:51.2Z</time></trkpt><trkpt lat="37.6504" lon="14.6614867"><ele>502.0</ele><time>2026-04-26T11:52:52.2Z</time></trkpt><trkpt lat="37.6505167" lon="14.6616667"><ele>502.0</ele><time>2026-04-26T11:52:53.2Z</time></trkpt><trkpt lat="37.6506217" lon="14.661845"><ele>502.0</ele><time>2026-04-26T11:52:54.2Z</time></trkpt><trkpt lat="37.6507133" lon="14.6620133"><ele>504.75</ele><time>2026-04-26T11:52:55.2Z</time></trkpt><trkpt lat="37.65081" lon="14.66217"><ele>507.5</ele><time>2026-04-26T11:52:56.201Z</time></trkpt><trkpt lat="37.6508967" lon="14.6623167"><ele>510.25</ele><time>2026-04-26T11:52:57.2Z</time></trkpt><trkpt lat="37.650995" lon="14.6624483"><ele>513.0</ele><time>2026-04-26T11:52:58.2Z</time></trkpt><trkpt lat="37.6511233" lon="14.66255"><ele>510.0</ele><time>2026-04-26T11:52:59.2Z</time></trkpt><trkpt lat="37.6512683" lon="14.66262"><ele>507.0</ele><time>2026-04-26T11:53:00.2Z</time></trkpt><trkpt lat="37.6514167" lon="14.6626617"><ele>504.0</ele><time>2026-04-26T11:53:01.2Z</time></trkpt><trkpt lat="37.6515483" lon="14.6626867"><ele>501.0</ele><time>2026-04-26T11:53:02.2Z</time></trkpt><trkpt lat="37.6516683" lon="14.6627217"><ele>501.0</ele><time>2026-04-26T11:53:03.2Z</time></trkpt><trkpt lat="37.6517817" lon="14.6627683"><ele>501.0</ele><time>2026-04-26T11:53:04.2Z</time></trkpt><trkpt lat="37.6518833" lon="14.6628317"><ele>501.0</ele><time>2026-04-26T11:53:05.2Z</time></trkpt><trkpt lat="37.6519717" lon="14.6629183"><ele>501.0</ele><time>2026-04-26T11:53:06.201Z</time></trkpt><trkpt lat="37.652045" lon="14.6630217"><ele>500.0</ele><time>2026-04-26T11:53:07.2Z</time></trkpt><trkpt lat="37.6521083" lon="14.6631317"><ele>499.0</ele><time>2026-04-26T11:53:08.2Z</time></trkpt><trkpt lat="37.6521683" lon="14.6632533"><ele>498.0</ele><time>2026-04-26T11:53:09.2Z</time></trkpt><trkpt lat="37.6522283" lon="14.6633633"><ele>497.0</ele><time>2026-04-26T11:53:10.2Z</time></trkpt><trkpt lat="37.6522817" lon="14.6634817"><ele>496.0</ele><time>2026-04-26T11:53:11.2Z</time></trkpt><trkpt lat="37.6523233" lon="14.663605"><ele>497.0</ele><time>2026-04-26T11:53:12.2Z</time></trkpt><trkpt lat="37.6523567" lon="14.6637283"><ele>498.0</ele><time>2026-04-26T11:53:13.201Z</time></trkpt><trkpt lat="37.6523883" lon="14.6638467"><ele>499.0</ele><time>2026-04-26T11:53:14.2Z</time></trkpt><trkpt lat="37.6524283" lon="14.66396"><ele>500.0</ele><time>2026-04-26T11:53:15.2Z</time></trkpt><trkpt lat="37.6524817" lon="14.6640567"><ele>501.0</ele><time>2026-04-26T11:53:16.2Z</time></trkpt><trkpt lat="37.6525567" lon="14.66414"><ele>501.0</ele><time>2026-04-26T11:53:17.2Z</time></trkpt><trkpt lat="37.6526533" lon="14.6642067"><ele>501.0</ele><time>2026-04-26T11:53:18.201Z</time></trkpt><trkpt lat="37.6527583" lon="14.66426"><ele>501.0</ele><time>2026-04-26T11:53:19.2Z</time></trkpt><trkpt lat="37.6528683" lon="14.6643217"><ele>501.0</ele><time>2026-04-26T11:53:20.2Z</time></trkpt><trkpt lat="37.6529817" lon="14.6643867"><ele>500.75</ele><time>2026-04-26T11:53:21.2Z</time></trkpt><trkpt lat="37.653105" lon="14.664455"><ele>500.5</ele><time>2026-04-26T11:53:22.2Z</time></trkpt><trkpt lat="37.6532283" lon="14.6645317"><ele>500.25</ele><time>2026-04-26T11:53:23.201Z</time></trkpt><trkpt lat="37.65335" lon="14.6646117"><ele>500.0</ele><time>2026-04-26T11:53:24.2Z</time></trkpt><trkpt lat="37.6534633" lon="14.66469"><ele>500.0</ele><time>2026-04-26T11:53:25.2Z</time></trkpt><trkpt lat="37.65358" lon="14.6647833"><ele>500.0</ele><time>2026-04-26T11:53:26.2Z</time></trkpt><trkpt lat="37.65369" lon="14.6649117"><ele>500.0</ele><time>2026-04-26T11:53:27.201Z</time></trkpt><trkpt lat="37.6537933" lon="14.6650583"><ele>500.0</ele><time>2026-04-26T11:53:28.2Z</time></trkpt><trkpt lat="37.6539" lon="14.6652083"><ele>498.0</ele><time>2026-04-26T11:53:29.2Z</time></trkpt><trkpt lat="37.6540017" lon="14.6653533"><ele>496.0</ele><time>2026-04-26T11:53:30.2Z</time></trkpt><trkpt lat="37.6540833" lon="14.665505"><ele>494.0</ele><time>2026-04-26T11:53:31.2Z</time></trkpt><trkpt lat="37.65414" lon="14.6656533"><ele>492.0</ele><time>2026-04-26T11:53:32.2Z</time></trkpt><trkpt lat="37.65417" lon="14.6658183"><ele>492.0</ele><time>2026-04-26T11:53:33.2Z</time></trkpt><trkpt lat="37.6542033" lon="14.6659667"><ele>492.0</ele><time>2026-04-26T11:53:34.2Z</time></trkpt><trkpt lat="37.654255" lon="14.666085"><ele>492.0</ele><time>2026-04-26T11:53:35.201Z</time></trkpt><trkpt lat="37.654345" lon="14.6661733"><ele>492.0</ele><time>2026-04-26T11:53:36.201Z</time></trkpt><trkpt lat="37.6544583" lon="14.6662233"><ele>490.25</ele><time>2026-04-26T11:53:37.2Z</time></trkpt><trkpt lat="37.6545817" lon="14.666265"><ele>488.5</ele><time>2026-04-26T11:53:38.201Z</time></trkpt><trkpt lat="37.6547067" lon="14.666345"><ele>486.75</ele><time>2026-04-26T11:53:39.2Z</time></trkpt><trkpt lat="37.6548217" lon="14.6664483"><ele>485.0</ele><time>2026-04-26T11:53:40.2Z</time></trkpt><trkpt lat="37.6549067" lon="14.6665683"><ele>485.0</ele><time>2026-04-26T11:53:41.2Z</time></trkpt><trkpt lat="37.6549417" lon="14.666705"><ele>485.0</ele><time>2026-04-26T11:53:42.201Z</time></trkpt><trkpt lat="37.65494" lon="14.6668533"><ele>485.0</ele><time>2026-04-26T11:53:43.2Z</time></trkpt><trkpt lat="37.6549183" lon="14.66701"><ele>485.0</ele><time>2026-04-26T11:53:44.2Z</time></trkpt><trkpt lat="37.654915" lon="14.6671567"><ele>486.25</ele><time>2026-04-26T11:53:45.2Z</time></trkpt><trkpt lat="37.65495" lon="14.6673017"><ele>487.5</ele><time>2026-04-26T11:53:46.199Z</time></trkpt><trkpt lat="37.65504" lon="14.6674283"><ele>488.75</ele><time>2026-04-26T11:53:47.2Z</time></trkpt><trkpt lat="37.6551733" lon="14.6675267"><ele>490.0</ele><time>2026-04-26T11:53:48.199Z</time></trkpt><trkpt lat="37.6553317" lon="14.6676133"><ele>490.6666666666667</ele><time>2026-04-26T11:53:49.2Z</time></trkpt><trkpt lat="37.6554983" lon="14.667705"><ele>491.33333333333337</ele><time>2026-04-26T11:53:50.199Z</time></trkpt><trkpt lat="37.6556567" lon="14.6678217"><ele>492.0</ele><time>2026-04-26T11:53:51.2Z</time></trkpt><trkpt lat="37.6558417" lon="14.6679317"><ele>492.0</ele><time>2026-04-26T11:53:52.199Z</time></trkpt><trkpt lat="37.6560233" lon="14.668075"><ele>492.0</ele><time>2026-04-26T11:53:53.199Z</time></trkpt><trkpt lat="37.656175" lon="14.66823"><ele>492.0</ele><time>2026-04-26T11:53:54.199Z</time></trkpt><trkpt lat="37.6563217" lon="14.6683767"><ele>491.66666666666663</ele><time>2026-04-26T11:53:55.199Z</time></trkpt><trkpt lat="37.6564583" lon="14.66854"><ele>491.3333333333333</ele><time>2026-04-26T11:53:56.199Z</time></trkpt><trkpt lat="37.6565767" lon="14.6687317"><ele>491.0</ele><time>2026-04-26T11:53:57.199Z</time></trkpt><trkpt lat="37.656675" lon="14.668915"><ele>491.0</ele><time>2026-04-26T11:53:58.199Z</time></trkpt><trkpt lat="37.6567633" lon="14.6690867"><ele>491.0</ele><time>2026-04-26T11:53:59.199Z</time></trkpt><trkpt lat="37.6568667" lon="14.6692333"><ele>491.0</ele><time>2026-04-26T11:54:00.199Z</time></trkpt><trkpt lat="37.6569783" lon="14.6693567"><ele>489.0</ele><time>2026-04-26T11:54:01.199Z</time></trkpt><trkpt lat="37.6570867" lon="14.66948"><ele>487.0</ele><time>2026-04-26T11:54:02.199Z</time></trkpt><trkpt lat="37.6571683" lon="14.66962"><ele>485.0</ele><time>2026-04-26T11:54:03.199Z</time></trkpt><trkpt lat="37.6572217" lon="14.669785"><ele>483.0</ele><time>2026-04-26T11:54:04.199Z</time></trkpt><trkpt lat="37.6572467" lon="14.6699783"><ele>483.0</ele><time>2026-04-26T11:54:05.199Z</time></trkpt><trkpt lat="37.657245" lon="14.6701717"><ele>483.0</ele><time>2026-04-26T11:54:06.199Z</time></trkpt><trkpt lat="37.6572433" lon="14.6703567"><ele>483.0</ele><time>2026-04-26T11:54:07.199Z</time></trkpt><trkpt lat="37.6572517" lon="14.6705367"><ele>483.0</ele><time>2026-04-26T11:54:08.199Z</time></trkpt><trkpt lat="37.6572933" lon="14.6707067"><ele>484.0</ele><time>2026-04-26T11:54:09.199Z</time></trkpt><trkpt lat="37.6573583" lon="14.670875"><ele>485.0</ele><time>2026-04-26T11:54:10.2Z</time></trkpt><trkpt lat="37.657445" lon="14.6710233"><ele>486.0</ele><time>2026-04-26T11:54:11.199Z</time></trkpt><trkpt lat="37.6575333" lon="14.6711467"><ele>487.0</ele><time>2026-04-26T11:54:12.199Z</time></trkpt><trkpt lat="37.6576417" lon="14.6712367"><ele>487.25</ele><time>2026-04-26T11:54:13.199Z</time></trkpt><trkpt lat="37.6577817" lon="14.671285"><ele>487.5</ele><time>2026-04-26T11:54:14.199Z</time></trkpt><trkpt lat="37.6579267" lon="14.6713133"><ele>487.75</ele><time>2026-04-26T11:54:15.2Z</time></trkpt><trkpt lat="37.658065" lon="14.6713517"><ele>488.0</ele><time>2026-04-26T11:54:16.199Z</time></trkpt><trkpt lat="37.6581967" lon="14.6714167"><ele>488.0</ele><time>2026-04-26T11:54:17.199Z</time></trkpt><trkpt lat="37.6583117" lon="14.6715133"><ele>488.0</ele><time>2026-04-26T11:54:18.199Z</time></trkpt><trkpt lat="37.6584083" lon="14.671635"><ele>488.0</ele><time>2026-04-26T11:54:19.199Z</time></trkpt><trkpt lat="37.65846" lon="14.671795"><ele>488.0</ele><time>2026-04-26T11:54:20.199Z</time></trkpt><trkpt lat="37.658465" lon="14.6719983"><ele>486.3333333333333</ele><time>2026-04-26T11:54:21.199Z</time></trkpt><trkpt lat="37.65846" lon="14.67222"><ele>484.66666666666663</ele><time>2026-04-26T11:54:22.199Z</time></trkpt><trkpt lat="37.6584567" lon="14.67246"><ele>483.0</ele><time>2026-04-26T11:54:23.199Z</time></trkpt><trkpt lat="37.65848" lon="14.67271"><ele>482.33333333333337</ele><time>2026-04-26T11:54:24.199Z</time></trkpt><trkpt lat="37.6585167" lon="14.672975"><ele>481.6666666666667</ele><time>2026-04-26T11:54:25.199Z</time></trkpt><trkpt lat="37.658565" lon="14.673255"><ele>481.0</ele><time>2026-04-26T11:54:26.199Z</time></trkpt><trkpt lat="37.658625" lon="14.673545"><ele>472.5</ele><time>2026-04-26T11:54:27.199Z</time></trkpt><trkpt lat="37.6586883" lon="14.6738367"><ele>464.0</ele><time>2026-04-26T11:54:28.199Z</time></trkpt><trkpt lat="37.658755" lon="14.6741133"><ele>464.0</ele><time>2026-04-26T11:54:29.199Z</time></trkpt><trkpt lat="37.65883" lon="14.6743783"><ele>464.0</ele><time>2026-04-26T11:54:30.199Z</time></trkpt><trkpt lat="37.6589067" lon="14.67463"><ele>464.0</ele><time>2026-04-26T11:54:31.199Z</time></trkpt><trkpt lat="37.6589717" lon="14.6748717"><ele>463.66666666666663</ele><time>2026-04-26T11:54:32.199Z</time></trkpt><trkpt lat="37.659035" lon="14.6751167"><ele>463.33333333333337</ele><time>2026-04-26T11:54:33.199Z</time></trkpt><trkpt lat="37.6590983" lon="14.6753517"><ele>463.0</ele><time>2026-04-26T11:54:34.199Z</time></trkpt><trkpt lat="37.6591583" lon="14.6755683"><ele>462.25</ele><time>2026-04-26T11:54:35.199Z</time></trkpt><trkpt lat="37.6592217" lon="14.6757717"><ele>461.5</ele><time>2026-04-26T11:54:36.199Z</time></trkpt><trkpt lat="37.6592667" lon="14.6759433"><ele>460.75</ele><time>2026-04-26T11:54:37.199Z</time></trkpt><trkpt lat="37.6593017" lon="14.6760967"><ele>460.0</ele><time>2026-04-26T11:54:38.199Z</time></trkpt><trkpt lat="37.6593367" lon="14.6762283"><ele>459.00000000000006</ele><time>2026-04-26T11:54:39.199Z</time></trkpt><trkpt lat="37.65938" lon="14.676355"><ele>458.0</ele><time>2026-04-26T11:54:40.199Z</time></trkpt><trkpt lat="37.65943" lon="14.67644"><ele>457.0</ele><time>2026-04-26T11:54:41.199Z</time></trkpt><trkpt lat="37.6595017" lon="14.676475"><ele>456.0</ele><time>2026-04-26T11:54:42.199Z</time></trkpt><trkpt lat="37.6595867" lon="14.6764717"><ele>455.00000000000006</ele><time>2026-04-26T11:54:43.2Z</time></trkpt><trkpt lat="37.65967" lon="14.6764717"><ele>454.0</ele><time>2026-04-26T11:54:44.199Z</time></trkpt><trkpt lat="37.65974" lon="14.6765117"><ele>452.0</ele><time>2026-04-26T11:54:45.199Z</time></trkpt><trkpt lat="37.6597783" lon="14.6765917"><ele>450.0</ele><time>2026-04-26T11:54:46.199Z</time></trkpt><trkpt lat="37.6597683" lon="14.6767683"><ele>448.0</ele><time>2026-04-26T11:54:48.199Z</time></trkpt><trkpt lat="37.65968" lon="14.6768683"><ele>446.0</ele><time>2026-04-26T11:54:49.199Z</time></trkpt><trkpt lat="37.6595533" lon="14.6769567"><ele>446.75</ele><time>2026-04-26T11:54:50.199Z</time></trkpt><trkpt lat="37.659455" lon="14.6770617"><ele>447.5</ele><time>2026-04-26T11:54:51.199Z</time></trkpt><trkpt lat="37.6593883" lon="14.6771867"><ele>448.25</ele><time>2026-04-26T11:54:52.199Z</time></trkpt><trkpt lat="37.6593717" lon="14.6773283"><ele>449.0</ele><time>2026-04-26T11:54:53.199Z</time></trkpt><trkpt lat="37.6594167" lon="14.6774967"><ele>445.0</ele><time>2026-04-26T11:54:54.199Z</time></trkpt><trkpt lat="37.6594883" lon="14.6776533"><ele>441.0</ele><time>2026-04-26T11:54:55.199Z</time></trkpt><trkpt lat="37.659595" lon="14.67781"><ele>437.0</ele><time>2026-04-26T11:54:56.199Z</time></trkpt><trkpt lat="37.6597167" lon="14.6779783"><ele>436.66666666666663</ele><time>2026-04-26T11:54:57.199Z</time></trkpt><trkpt lat="37.65983" lon="14.6781433"><ele>436.33333333333337</ele><time>2026-04-26T11:54:58.199Z</time></trkpt><trkpt lat="37.6599383" lon="14.678295"><ele>436.0</ele><time>2026-04-26T11:54:59.199Z</time></trkpt><trkpt lat="37.660055" lon="14.678435"><ele>436.0</ele><time>2026-04-26T11:55:00.199Z</time></trkpt><trkpt lat="37.6602033" lon="14.6785467"><ele>436.0</ele><time>2026-04-26T11:55:01.199Z</time></trkpt><trkpt lat="37.6603733" lon="14.67863"><ele>436.0</ele><time>2026-04-26T11:55:02.199Z</time></trkpt><trkpt lat="37.6605417" lon="14.6787083"><ele>435.0</ele><time>2026-04-26T11:55:03.199Z</time></trkpt><trkpt lat="37.6607033" lon="14.67878"><ele>434.0</ele><time>2026-04-26T11:55:04.2Z</time></trkpt><trkpt lat="37.6608517" lon="14.6788417"><ele>433.0</ele><time>2026-04-26T11:55:05.199Z</time></trkpt><trkpt lat="37.6609883" lon="14.6789017"><ele>433.0</ele><time>2026-04-26T11:55:06.199Z</time></trkpt><trkpt lat="37.6610983" lon="14.6789717"><ele>433.0</ele><time>2026-04-26T11:55:07.199Z</time></trkpt><trkpt lat="37.6612" lon="14.67906"><ele>433.0</ele><time>2026-04-26T11:55:08.199Z</time></trkpt><trkpt lat="37.6612767" lon="14.6791633"><ele>433.0</ele><time>2026-04-26T11:55:09.199Z</time></trkpt><trkpt lat="37.66131" lon="14.6793133"><ele>426.33333333333337</ele><time>2026-04-26T11:55:10.199Z</time></trkpt><trkpt lat="37.661315" lon="14.6794917"><ele>419.66666666666663</ele><time>2026-04-26T11:55:11.199Z</time></trkpt><trkpt lat="37.6613017" lon="14.6796917"><ele>413.0</ele><time>2026-04-26T11:55:12.199Z</time></trkpt><trkpt lat="37.6612883" lon="14.679905"><ele>413.0</ele><time>2026-04-26T11:55:13.199Z</time></trkpt><trkpt lat="37.66128" lon="14.680125"><ele>413.0</ele><time>2026-04-26T11:55:14.199Z</time></trkpt><trkpt lat="37.6612667" lon="14.68034"><ele>413.0</ele><time>2026-04-26T11:55:15.199Z</time></trkpt><trkpt lat="37.6612333" lon="14.6805567"><ele>410.66666666666663</ele><time>2026-04-26T11:55:16.199Z</time></trkpt><trkpt lat="37.661175" lon="14.68074"><ele>408.33333333333337</ele><time>2026-04-26T11:55:17.199Z</time></trkpt><trkpt lat="37.661085" lon="14.6809017"><ele>406.0</ele><time>2026-04-26T11:55:18.199Z</time></trkpt><trkpt lat="37.66098" lon="14.68103"><ele>409.5</ele><time>2026-04-26T11:55:19.199Z</time></trkpt><trkpt lat="37.6608733" lon="14.6811667"><ele>413.0</ele><time>2026-04-26T11:55:20.199Z</time></trkpt><trkpt lat="37.6608017" lon="14.6812983"><ele>416.5</ele><time>2026-04-26T11:55:21.2Z</time></trkpt><trkpt lat="37.660765" lon="14.6814467"><ele>420.0</ele><time>2026-04-26T11:55:22.199Z</time></trkpt><trkpt lat="37.6607783" lon="14.6816183"><ele>420.0</ele><time>2026-04-26T11:55:23.199Z</time></trkpt><trkpt lat="37.6608433" lon="14.6817933"><ele>420.0</ele><time>2026-04-26T11:55:24.199Z</time></trkpt><trkpt lat="37.66093" lon="14.6819783"><ele>420.0</ele><time>2026-04-26T11:55:25.199Z</time></trkpt><trkpt lat="37.6610167" lon="14.6821567"><ele>420.0</ele><time>2026-04-26T11:55:26.199Z</time></trkpt><trkpt lat="37.6610717" lon="14.6823533"><ele>420.0</ele><time>2026-04-26T11:55:27.199Z</time></trkpt><trkpt lat="37.6611033" lon="14.6825617"><ele>420.0</ele><time>2026-04-26T11:55:28.199Z</time></trkpt><trkpt lat="37.6611167" lon="14.6827783"><ele>415.33333333333337</ele><time>2026-04-26T11:55:29.199Z</time></trkpt><trkpt lat="37.661135" lon="14.6830117"><ele>410.6666666666667</ele><time>2026-04-26T11:55:30.2Z</time></trkpt><trkpt lat="37.6611767" lon="14.68326"><ele>406.0</ele><time>2026-04-26T11:55:31.2Z</time></trkpt><trkpt lat="37.6612433" lon="14.6835117"><ele>407.33333333333337</ele><time>2026-04-26T11:55:32.199Z</time></trkpt><trkpt lat="37.6613283" lon="14.68376"><ele>408.66666666666663</ele><time>2026-04-26T11:55:33.199Z</time></trkpt><trkpt lat="37.66142" lon="14.68399"><ele>410.0</ele><time>2026-04-26T11:55:34.199Z</time></trkpt><trkpt lat="37.6615283" lon="14.6842117"><ele>411.3333333333333</ele><time>2026-04-26T11:55:35.199Z</time></trkpt><trkpt lat="37.6616533" lon="14.6844417"><ele>412.66666666666663</ele><time>2026-04-26T11:55:36.199Z</time></trkpt><trkpt lat="37.661785" lon="14.68467"><ele>414.0</ele><time>2026-04-26T11:55:37.199Z</time></trkpt><trkpt lat="37.6619083" lon="14.684885"><ele>411.0</ele><time>2026-04-26T11:55:38.199Z</time></trkpt><trkpt lat="37.662025" lon="14.6850883"><ele>408.0</ele><time>2026-04-26T11:55:39.199Z</time></trkpt><trkpt lat="37.662135" lon="14.685265"><ele>405.0</ele><time>2026-04-26T11:55:40.199Z</time></trkpt><trkpt lat="37.6622433" lon="14.68542"><ele>405.0</ele><time>2026-04-26T11:55:41.199Z</time></trkpt><trkpt lat="37.66232" lon="14.68557"><ele>405.0</ele><time>2026-04-26T11:55:42.2Z</time></trkpt><trkpt lat="37.6623667" lon="14.6857533"><ele>405.0</ele><time>2026-04-26T11:55:43.2Z</time></trkpt><trkpt lat="37.6624067" lon="14.685955"><ele>404.66666666666663</ele><time>2026-04-26T11:55:44.199Z</time></trkpt><trkpt lat="37.66244" lon="14.6861683"><ele>404.3333333333333</ele><time>2026-04-26T11:55:45.199Z</time></trkpt><trkpt lat="37.662465" lon="14.6863817"><ele>404.0</ele><time>2026-04-26T11:55:46.199Z</time></trkpt><trkpt lat="37.6624683" lon="14.686585"><ele>404.0</ele><time>2026-04-26T11:55:47.199Z</time></trkpt><trkpt lat="37.6624483" lon="14.6867733"><ele>404.0</ele><time>2026-04-26T11:55:48.199Z</time></trkpt><trkpt lat="37.6624117" lon="14.6869133"><ele>404.0</ele><time>2026-04-26T11:55:49.199Z</time></trkpt><trkpt lat="37.6623533" lon="14.68702"><ele>404.0</ele><time>2026-04-26T11:55:50.2Z</time></trkpt><trkpt lat="37.6622517" lon="14.6871017"><ele>405.75</ele><time>2026-04-26T11:55:51.199Z</time></trkpt><trkpt lat="37.66213" lon="14.68719"><ele>407.5</ele><time>2026-04-26T11:55:52.2Z</time></trkpt><trkpt lat="37.6620183" lon="14.687315"><ele>409.25</ele><time>2026-04-26T11:55:53.199Z</time></trkpt><trkpt lat="37.6619317" lon="14.6874633"><ele>411.0</ele><time>2026-04-26T11:55:54.2Z</time></trkpt><trkpt lat="37.6618833" lon="14.6876567"><ele>406.66666666666663</ele><time>2026-04-26T11:55:55.199Z</time></trkpt><trkpt lat="37.6618483" lon="14.6878883"><ele>402.3333333333333</ele><time>2026-04-26T11:55:56.199Z</time></trkpt><trkpt lat="37.6618067" lon="14.6881233"><ele>398.0</ele><time>2026-04-26T11:55:57.199Z</time></trkpt><trkpt lat="37.6617533" lon="14.68834"><ele>398.0</ele><time>2026-04-26T11:55:58.199Z</time></trkpt><trkpt lat="37.6617117" lon="14.6885467"><ele>398.0</ele><time>2026-04-26T11:55:59.199Z</time></trkpt><trkpt lat="37.6616683" lon="14.6887483"><ele>398.0</ele><time>2026-04-26T11:56:00.2Z</time></trkpt><trkpt lat="37.661615" lon="14.6889117"><ele>394.0</ele><time>2026-04-26T11:56:01.199Z</time></trkpt><trkpt lat="37.66154" lon="14.6890617"><ele>390.0</ele><time>2026-04-26T11:56:02.2Z</time></trkpt><trkpt lat="37.6614317" lon="14.689215"><ele>386.0</ele><time>2026-04-26T11:56:03.199Z</time></trkpt><trkpt lat="37.6613" lon="14.68934"><ele>384.66666666666663</ele><time>2026-04-26T11:56:04.199Z</time></trkpt><trkpt lat="37.6611517" lon="14.6894583"><ele>383.3333333333333</ele><time>2026-04-26T11:56:05.199Z</time></trkpt><trkpt lat="37.6610167" lon="14.6895617"><ele>382.0</ele><time>2026-04-26T11:56:06.199Z</time></trkpt><trkpt lat="37.66089" lon="14.6896533"><ele>382.0</ele><time>2026-04-26T11:56:07.199Z</time></trkpt><trkpt lat="37.660795" lon="14.68976"><ele>382.0</ele><time>2026-04-26T11:56:08.2Z</time></trkpt><trkpt lat="37.6607317" lon="14.689885"><ele>382.0</ele><time>2026-04-26T11:56:09.199Z</time></trkpt><trkpt lat="37.6607167" lon="14.6900667"><ele>382.0</ele><time>2026-04-26T11:56:10.2Z</time></trkpt><trkpt lat="37.66073" lon="14.6902917"><ele>379.66666666666663</ele><time>2026-04-26T11:56:11.199Z</time></trkpt><trkpt lat="37.6607283" lon="14.6905433"><ele>377.3333333333333</ele><time>2026-04-26T11:56:12.2Z</time></trkpt><trkpt lat="37.6607183" lon="14.6907983"><ele>375.0</ele><time>2026-04-26T11:56:13.199Z</time></trkpt><trkpt lat="37.6607017" lon="14.6910333"><ele>373.6666666666667</ele><time>2026-04-26T11:56:14.199Z</time></trkpt><trkpt lat="37.6606933" lon="14.6912567"><ele>372.33333333333337</ele><time>2026-04-26T11:56:15.199Z</time></trkpt><trkpt lat="37.6607017" lon="14.6914833"><ele>371.0</ele><time>2026-04-26T11:56:16.199Z</time></trkpt><trkpt lat="37.6607283" lon="14.6917"><ele>370.6666666666667</ele><time>2026-04-26T11:56:17.199Z</time></trkpt><trkpt lat="37.660785" lon="14.691925"><ele>370.3333333333333</ele><time>2026-04-26T11:56:18.199Z</time></trkpt><trkpt lat="37.6608783" lon="14.6921617"><ele>370.0</ele><time>2026-04-26T11:56:19.199Z</time></trkpt><trkpt lat="37.660985" lon="14.6923883"><ele>370.0</ele><time>2026-04-26T11:56:20.199Z</time></trkpt><trkpt lat="37.6610833" lon="14.692605"><ele>370.0</ele><time>2026-04-26T11:56:21.199Z</time></trkpt><trkpt lat="37.66118" lon="14.692815"><ele>370.0</ele><time>2026-04-26T11:56:22.199Z</time></trkpt><trkpt lat="37.6612733" lon="14.6930117"><ele>365.0</ele><time>2026-04-26T11:56:23.199Z</time></trkpt><trkpt lat="37.6613633" lon="14.6932033"><ele>360.0</ele><time>2026-04-26T11:56:24.2Z</time></trkpt><trkpt lat="37.66145" lon="14.6933783"><ele>355.0</ele><time>2026-04-26T11:56:25.2Z</time></trkpt><trkpt lat="37.66152" lon="14.6935433"><ele>354.0</ele><time>2026-04-26T11:56:26.199Z</time></trkpt><trkpt lat="37.6615683" lon="14.69372"><ele>353.0</ele><time>2026-04-26T11:56:27.2Z</time></trkpt><trkpt lat="37.661595" lon="14.6938933"><ele>352.0</ele><time>2026-04-26T11:56:28.199Z</time></trkpt><trkpt lat="37.6615967" lon="14.6940617"><ele>351.0</ele><time>2026-04-26T11:56:29.199Z</time></trkpt><trkpt lat="37.66156" lon="14.6942217"><ele>351.0</ele><time>2026-04-26T11:56:30.199Z</time></trkpt><trkpt lat="37.6614867" lon="14.6943717"><ele>351.0</ele><time>2026-04-26T11:56:31.199Z</time></trkpt><trkpt lat="37.6613733" lon="14.694515"><ele>351.0</ele><time>2026-04-26T11:56:32.199Z</time></trkpt><trkpt lat="37.661245" lon="14.694695"><ele>351.3333333333333</ele><time>2026-04-26T11:56:33.199Z</time></trkpt><trkpt lat="37.6611433" lon="14.6948833"><ele>351.66666666666663</ele><time>2026-04-26T11:56:34.199Z</time></trkpt><trkpt lat="37.6610617" lon="14.6951083"><ele>352.0</ele><time>2026-04-26T11:56:35.199Z</time></trkpt><trkpt lat="37.661" lon="14.6953417"><ele>349.0</ele><time>2026-04-26T11:56:36.199Z</time></trkpt><trkpt lat="37.6609367" lon="14.6955567"><ele>346.0</ele><time>2026-04-26T11:56:37.199Z</time></trkpt><trkpt lat="37.6608633" lon="14.69576"><ele>343.0</ele><time>2026-04-26T11:56:38.2Z</time></trkpt><trkpt lat="37.66077" lon="14.6959533"><ele>339.66666666666663</ele><time>2026-04-26T11:56:39.199Z</time></trkpt><trkpt lat="37.66066" lon="14.696135"><ele>336.3333333333333</ele><time>2026-04-26T11:56:40.199Z</time></trkpt><trkpt lat="37.6605283" lon="14.6962967"><ele>333.0</ele><time>2026-04-26T11:56:41.199Z</time></trkpt><trkpt lat="37.6603933" lon="14.6964617"><ele>332.6666666666667</ele><time>2026-04-26T11:56:42.199Z</time></trkpt><trkpt lat="37.6602633" lon="14.6966217"><ele>332.33333333333337</ele><time>2026-04-26T11:56:43.199Z</time></trkpt><trkpt lat="37.6601367" lon="14.6967867"><ele>332.0</ele><time>2026-04-26T11:56:44.2Z</time></trkpt><trkpt lat="37.6600317" lon="14.6969617"><ele>332.0</ele><time>2026-04-26T11:56:45.199Z</time></trkpt><trkpt lat="37.6599583" lon="14.697145"><ele>332.0</ele><time>2026-04-26T11:56:46.199Z</time></trkpt><trkpt lat="37.6599217" lon="14.69737"><ele>332.0</ele><time>2026-04-26T11:56:47.199Z</time></trkpt><trkpt lat="37.6599" lon="14.697605"><ele>331.0</ele><time>2026-04-26T11:56:48.199Z</time></trkpt><trkpt lat="37.6598817" lon="14.6978333"><ele>330.0</ele><time>2026-04-26T11:56:49.199Z</time></trkpt><trkpt lat="37.6598633" lon="14.69805"><ele>329.0</ele><time>2026-04-26T11:56:50.199Z</time></trkpt><trkpt lat="37.6598467" lon="14.6982417"><ele>329.0</ele><time>2026-04-26T11:56:51.199Z</time></trkpt><trkpt lat="37.6598283" lon="14.6984183"><ele>329.0</ele><time>2026-04-26T11:56:52.199Z</time></trkpt><trkpt lat="37.6597917" lon="14.6985583"><ele>329.0</ele><time>2026-04-26T11:56:53.2Z</time></trkpt><trkpt lat="37.6597317" lon="14.6986867"><ele>329.0</ele><time>2026-04-26T11:56:54.199Z</time></trkpt><trkpt lat="37.65968" lon="14.6988017"><ele>327.6</ele><time>2026-04-26T11:56:55.199Z</time></trkpt><trkpt lat="37.6596633" lon="14.698925"><ele>326.2</ele><time>2026-04-26T11:56:56.2Z</time></trkpt><trkpt lat="37.6596917" lon="14.6990483"><ele>324.8</ele><time>2026-04-26T11:56:57.199Z</time></trkpt><trkpt lat="37.6597683" lon="14.69916"><ele>323.40000000000003</ele><time>2026-04-26T11:56:58.199Z</time></trkpt><trkpt lat="37.6598433" lon="14.69927"><ele>322.0</ele><time>2026-04-26T11:56:59.199Z</time></trkpt><trkpt lat="37.6598967" lon="14.699405"><ele>322.3333333333333</ele><time>2026-04-26T11:57:00.199Z</time></trkpt><trkpt lat="37.659925" lon="14.6995767"><ele>322.6666666666667</ele><time>2026-04-26T11:57:01.199Z</time></trkpt><trkpt lat="37.659945" lon="14.6997917"><ele>323.0</ele><time>2026-04-26T11:57:02.2Z</time></trkpt><trkpt lat="37.659975" lon="14.7000317"><ele>323.0</ele><time>2026-04-26T11:57:03.2Z</time></trkpt><trkpt lat="37.66001" lon="14.7002967"><ele>323.0</ele><time>2026-04-26T11:57:04.199Z</time></trkpt><trkpt lat="37.6600467" lon="14.7005617"><ele>323.0</ele><time>2026-04-26T11:57:05.2Z</time></trkpt><trkpt lat="37.660085" lon="14.7008283"><ele>321.33333333333337</ele><time>2026-04-26T11:57:06.199Z</time></trkpt><trkpt lat="37.66012" lon="14.7010833"><ele>319.6666666666667</ele><time>2026-04-26T11:57:07.199Z</time></trkpt><trkpt lat="37.6601483" lon="14.7013217"><ele>318.0</ele><time>2026-04-26T11:57:08.199Z</time></trkpt><trkpt lat="37.660165" lon="14.7015567"><ele>318.0</ele><time>2026-04-26T11:57:09.199Z</time></trkpt><trkpt lat="37.6601867" lon="14.701765"><ele>318.0</ele><time>2026-04-26T11:57:10.199Z</time></trkpt><trkpt lat="37.6602" lon="14.7019583"><ele>318.0</ele><time>2026-04-26T11:57:11.199Z</time></trkpt><trkpt lat="37.660195" lon="14.7021317"><ele>316.75</ele><time>2026-04-26T11:57:12.199Z</time></trkpt><trkpt lat="37.6601667" lon="14.7023083"><ele>315.5</ele><time>2026-04-26T11:57:13.199Z</time></trkpt><trkpt lat="37.6601" lon="14.70246"><ele>314.25</ele><time>2026-04-26T11:57:14.199Z</time></trkpt><trkpt lat="37.6599933" lon="14.70258"><ele>313.0</ele><time>2026-04-26T11:57:15.199Z</time></trkpt><trkpt lat="37.6598467" lon="14.7026833"><ele>310.66666666666663</ele><time>2026-04-26T11:57:16.199Z</time></trkpt><trkpt lat="37.6596767" lon="14.7027883"><ele>308.3333333333333</ele><time>2026-04-26T11:57:17.199Z</time></trkpt><trkpt lat="37.6595" lon="14.7028967"><ele>306.0</ele><time>2026-04-26T11:57:18.2Z</time></trkpt><trkpt lat="37.65932" lon="14.7030233"><ele>306.0</ele><time>2026-04-26T11:57:19.199Z</time></trkpt><trkpt lat="37.6591367" lon="14.7031817"><ele>306.0</ele><time>2026-04-26T11:57:20.199Z</time></trkpt><trkpt lat="37.6589483" lon="14.70337"><ele>306.0</ele><time>2026-04-26T11:57:21.199Z</time></trkpt><trkpt lat="37.6587767" lon="14.7035533"><ele>306.0</ele><time>2026-04-26T11:57:22.199Z</time></trkpt><trkpt lat="37.6586167" lon="14.70372"><ele>306.0</ele><time>2026-04-26T11:57:23.199Z</time></trkpt><trkpt lat="37.6584767" lon="14.7038733"><ele>304.6666666666667</ele><time>2026-04-26T11:57:24.199Z</time></trkpt><trkpt lat="37.6583567" lon="14.7040317"><ele>303.33333333333337</ele><time>2026-04-26T11:57:25.199Z</time></trkpt><trkpt lat="37.6582717" lon="14.7042083"><ele>302.0</ele><time>2026-04-26T11:57:26.199Z</time></trkpt><trkpt lat="37.658205" lon="14.70444"><ele>300.5</ele><time>2026-04-26T11:57:27.199Z</time></trkpt><trkpt lat="37.6581367" lon="14.70473"><ele>299.0</ele><time>2026-04-26T11:57:28.2Z</time></trkpt><trkpt lat="37.658055" lon="14.7050367"><ele>298.5</ele><time>2026-04-26T11:57:29.199Z</time></trkpt><trkpt lat="37.6579733" lon="14.7053733"><ele>298.0</ele><time>2026-04-26T11:57:30.199Z</time></trkpt><trkpt lat="37.657885" lon="14.7057183"><ele>298.0</ele><time>2026-04-26T11:57:31.199Z</time></trkpt><trkpt lat="37.6578033" lon="14.7060617"><ele>298.0</ele><time>2026-04-26T11:57:32.2Z</time></trkpt><trkpt lat="37.6577217" lon="14.7063967"><ele>298.0</ele><time>2026-04-26T11:57:33.199Z</time></trkpt><trkpt lat="37.6576433" lon="14.7067333"><ele>298.0</ele><time>2026-04-26T11:57:34.2Z</time></trkpt><trkpt lat="37.6575583" lon="14.70706"><ele>297.0</ele><time>2026-04-26T11:57:35.199Z</time></trkpt><trkpt lat="37.6574783" lon="14.7073767"><ele>296.0</ele><time>2026-04-26T11:57:36.199Z</time></trkpt><trkpt lat="37.6574017" lon="14.707685"><ele>294.5</ele><time>2026-04-26T11:57:37.199Z</time></trkpt><trkpt lat="37.657325" lon="14.7079833"><ele>293.0</ele><time>2026-04-26T11:57:38.199Z</time></trkpt><trkpt lat="37.6572567" lon="14.7082817"><ele>293.0</ele><time>2026-04-26T11:57:39.199Z</time></trkpt><trkpt lat="37.6571867" lon="14.70858"><ele>293.0</ele><time>2026-04-26T11:57:40.199Z</time></trkpt><trkpt lat="37.657115" lon="14.7088833"><ele>293.0</ele><time>2026-04-26T11:57:41.199Z</time></trkpt><trkpt lat="37.657035" lon="14.7092017"><ele>293.0</ele><time>2026-04-26T11:57:42.199Z</time></trkpt><trkpt lat="37.6569533" lon="14.70953"><ele>292.5</ele><time>2026-04-26T11:57:43.199Z</time></trkpt><trkpt lat="37.6568683" lon="14.7098533"><ele>292.0</ele><time>2026-04-26T11:57:44.199Z</time></trkpt><trkpt lat="37.656785" lon="14.71018"><ele>290.5</ele><time>2026-04-26T11:57:45.2Z</time></trkpt><trkpt lat="37.656705" lon="14.71051"><ele>289.0</ele><time>2026-04-26T11:57:46.199Z</time></trkpt><trkpt lat="37.6566217" lon="14.7108333"><ele>287.5</ele><time>2026-04-26T11:57:47.2Z</time></trkpt><trkpt lat="37.6565417" lon="14.71116"><ele>286.0</ele><time>2026-04-26T11:57:48.199Z</time></trkpt><trkpt lat="37.6564667" lon="14.7114833"><ele>286.0</ele><time>2026-04-26T11:57:49.199Z</time></trkpt><trkpt lat="37.65639" lon="14.7118"><ele>286.0</ele><time>2026-04-26T11:57:50.199Z</time></trkpt><trkpt lat="37.65631" lon="14.7121167"><ele>286.0</ele><time>2026-04-26T11:57:51.199Z</time></trkpt><trkpt lat="37.6562317" lon="14.712425"><ele>286.0</ele><time>2026-04-26T11:57:52.199Z</time></trkpt><trkpt lat="37.6561567" lon="14.71272"><ele>286.0</ele><time>2026-04-26T11:57:53.199Z</time></trkpt><trkpt lat="37.656085" lon="14.7129983"><ele>286.0</ele><time>2026-04-26T11:57:54.199Z</time></trkpt><trkpt lat="37.6560183" lon="14.7132733"><ele>286.0</ele><time>2026-04-26T11:57:55.199Z</time></trkpt><trkpt lat="37.655955" lon="14.7135383"><ele>286.0</ele><time>2026-04-26T11:57:56.199Z</time></trkpt><trkpt lat="37.6558917" lon="14.7138017"><ele>286.0</ele><time>2026-04-26T11:57:57.199Z</time></trkpt><trkpt lat="37.6558267" lon="14.7140667"><ele>285.3333333333333</ele><time>2026-04-26T11:57:58.199Z</time></trkpt><trkpt lat="37.655745" lon="14.714325"><ele>284.6666666666667</ele><time>2026-04-26T11:57:59.199Z</time></trkpt><trkpt lat="37.65565" lon="14.71458"><ele>284.0</ele><time>2026-04-26T11:58:00.2Z</time></trkpt><trkpt lat="37.655545" lon="14.7148083"><ele>283.33333333333337</ele><time>2026-04-26T11:58:01.199Z</time></trkpt><trkpt lat="37.6554417" lon="14.7150283"><ele>282.6666666666667</ele><time>2026-04-26T11:58:02.199Z</time></trkpt><trkpt lat="37.6553317" lon="14.7152433"><ele>282.0</ele><time>2026-04-26T11:58:03.199Z</time></trkpt><trkpt lat="37.6552283" lon="14.7154567"><ele>280.3333333333333</ele><time>2026-04-26T11:58:04.199Z</time></trkpt><trkpt lat="37.6551217" lon="14.7156617"><ele>278.66666666666663</ele><time>2026-04-26T11:58:05.199Z</time></trkpt><trkpt lat="37.6550217" lon="14.7158583"><ele>277.0</ele><time>2026-04-26T11:58:06.2Z</time></trkpt><trkpt lat="37.6549267" lon="14.7160467"><ele>276.0</ele><time>2026-04-26T11:58:07.199Z</time></trkpt><trkpt lat="37.65483" lon="14.716225"><ele>275.0</ele><time>2026-04-26T11:58:08.199Z</time></trkpt><trkpt lat="37.6547267" lon="14.7163867"><ele>274.0</ele><time>2026-04-26T11:58:09.199Z</time></trkpt><trkpt lat="37.654615" lon="14.7165333"><ele>274.0</ele><time>2026-04-26T11:58:10.199Z</time></trkpt><trkpt lat="37.6545083" lon="14.7166717"><ele>274.0</ele><time>2026-04-26T11:58:11.199Z</time></trkpt><trkpt lat="37.6544367" lon="14.7168117"><ele>274.0</ele><time>2026-04-26T11:58:12.199Z</time></trkpt><trkpt lat="37.6544017" lon="14.7169633"><ele>274.0</ele><time>2026-04-26T11:58:13.199Z</time></trkpt><trkpt lat="37.6544133" lon="14.717145"><ele>273.3333333333333</ele><time>2026-04-26T11:58:14.199Z</time></trkpt><trkpt lat="37.6544567" lon="14.7173283"><ele>272.6666666666667</ele><time>2026-04-26T11:58:15.199Z</time></trkpt><trkpt lat="37.6545317" lon="14.7175317"><ele>272.0</ele><time>2026-04-26T11:58:16.199Z</time></trkpt><trkpt lat="37.6546167" lon="14.717745"><ele>273.33333333333337</ele><time>2026-04-26T11:58:17.199Z</time></trkpt><trkpt lat="37.6547117" lon="14.7179783"><ele>274.6666666666667</ele><time>2026-04-26T11:58:18.199Z</time></trkpt><trkpt lat="37.6548133" lon="14.7182217"><ele>276.0</ele><time>2026-04-26T11:58:19.2Z</time></trkpt><trkpt lat="37.6549183" lon="14.7184733"><ele>278.0</ele><time>2026-04-26T11:58:20.2Z</time></trkpt><trkpt lat="37.6550317" lon="14.7187433"><ele>280.0</ele><time>2026-04-26T11:58:21.199Z</time></trkpt><trkpt lat="37.6551417" lon="14.7190083"><ele>280.0</ele><time>2026-04-26T11:58:22.199Z</time></trkpt><trkpt lat="37.6552517" lon="14.7192617"><ele>280.0</ele><time>2026-04-26T11:58:23.199Z</time></trkpt><trkpt lat="37.6553583" lon="14.719505"><ele>280.0</ele><time>2026-04-26T11:58:24.199Z</time></trkpt><trkpt lat="37.6554533" lon="14.719735"><ele>279.66666666666663</ele><time>2026-04-26T11:58:25.199Z</time></trkpt><trkpt lat="37.6555483" lon="14.7199583"><ele>279.3333333333333</ele><time>2026-04-26T11:58:26.199Z</time></trkpt><trkpt lat="37.6556383" lon="14.7201667"><ele>279.0</ele><time>2026-04-26T11:58:27.199Z</time></trkpt><trkpt lat="37.6557217" lon="14.7203717"><ele>281.6666666666667</ele><time>2026-04-26T11:58:28.199Z</time></trkpt><trkpt lat="37.655785" lon="14.7205683"><ele>284.33333333333337</ele><time>2026-04-26T11:58:29.199Z</time></trkpt><trkpt lat="37.655835" lon="14.7207717"><ele>287.0</ele><time>2026-04-26T11:58:30.199Z</time></trkpt><trkpt lat="37.6558667" lon="14.7209933"><ele>287.6666666666667</ele><time>2026-04-26T11:58:31.2Z</time></trkpt><trkpt lat="37.6558833" lon="14.7212167"><ele>288.3333333333333</ele><time>2026-04-26T11:58:32.199Z</time></trkpt><trkpt lat="37.655885" lon="14.7214267"><ele>289.0</ele><time>2026-04-26T11:58:33.199Z</time></trkpt><trkpt lat="37.6558667" lon="14.7216083"><ele>289.0</ele><time>2026-04-26T11:58:34.199Z</time></trkpt><trkpt lat="37.6558183" lon="14.7217767"><ele>289.0</ele><time>2026-04-26T11:58:35.199Z</time></trkpt><trkpt lat="37.655735" lon="14.7219467"><ele>289.0</ele><time>2026-04-26T11:58:36.2Z</time></trkpt><trkpt lat="37.6556217" lon="14.7221317"><ele>288.3333333333333</ele><time>2026-04-26T11:58:37.199Z</time></trkpt><trkpt lat="37.6554917" lon="14.72233"><ele>287.6666666666667</ele><time>2026-04-26T11:58:38.199Z</time></trkpt><trkpt lat="37.65537" lon="14.722525"><ele>287.0</ele><time>2026-04-26T11:58:39.199Z</time></trkpt><trkpt lat="37.6552533" lon="14.722715"><ele>289.0</ele><time>2026-04-26T11:58:40.199Z</time></trkpt><trkpt lat="37.655125" lon="14.72291"><ele>291.0</ele><time>2026-04-26T11:58:41.199Z</time></trkpt><trkpt lat="37.6549817" lon="14.7230867"><ele>293.0</ele><time>2026-04-26T11:58:42.199Z</time></trkpt><trkpt lat="37.6548333" lon="14.7232683"><ele>293.0</ele><time>2026-04-26T11:58:43.2Z</time></trkpt><trkpt lat="37.65468" lon="14.7234583"><ele>293.0</ele><time>2026-04-26T11:58:44.199Z</time></trkpt><trkpt lat="37.654545" lon="14.723645"><ele>293.0</ele><time>2026-04-26T11:58:45.2Z</time></trkpt><trkpt lat="37.6544183" lon="14.7238567"><ele>290.6666666666667</ele><time>2026-04-26T11:58:46.2Z</time></trkpt><trkpt lat="37.6543017" lon="14.72407"><ele>288.3333333333333</ele><time>2026-04-26T11:58:47.2Z</time></trkpt><trkpt lat="37.6542033" lon="14.72429"><ele>286.0</ele><time>2026-04-26T11:58:48.199Z</time></trkpt><trkpt lat="37.65413" lon="14.7245233"><ele>285.0</ele><time>2026-04-26T11:58:49.199Z</time></trkpt><trkpt lat="37.6540883" lon="14.7247683"><ele>284.0</ele><time>2026-04-26T11:58:50.199Z</time></trkpt><trkpt lat="37.654055" lon="14.725015"><ele>283.0</ele><time>2026-04-26T11:58:51.199Z</time></trkpt><trkpt lat="37.6540267" lon="14.72525"><ele>282.3333333333333</ele><time>2026-04-26T11:58:52.199Z</time></trkpt><trkpt lat="37.653995" lon="14.7254767"><ele>281.6666666666667</ele><time>2026-04-26T11:58:53.199Z</time></trkpt><trkpt lat="37.6539717" lon="14.7256917"><ele>281.0</ele><time>2026-04-26T11:58:54.199Z</time></trkpt><trkpt lat="37.653975" lon="14.7259067"><ele>281.6666666666667</ele><time>2026-04-26T11:58:55.199Z</time></trkpt><trkpt lat="37.6540067" lon="14.7261283"><ele>282.3333333333333</ele><time>2026-04-26T11:58:56.199Z</time></trkpt><trkpt lat="37.6540533" lon="14.7263433"><ele>283.0</ele><time>2026-04-26T11:58:57.2Z</time></trkpt><trkpt lat="37.65412" lon="14.7265433"><ele>283.0</ele><time>2026-04-26T11:58:58.199Z</time></trkpt><trkpt lat="37.6542033" lon="14.7267133"><ele>283.0</ele><time>2026-04-26T11:58:59.2Z</time></trkpt><trkpt lat="37.654325" lon="14.7268683"><ele>283.0</ele><time>2026-04-26T11:59:00.199Z</time></trkpt><trkpt lat="37.6544467" lon="14.727035"><ele>283.0</ele><time>2026-04-26T11:59:01.199Z</time></trkpt><trkpt lat="37.654535" lon="14.727225"><ele>283.0</ele><time>2026-04-26T11:59:02.199Z</time></trkpt><trkpt lat="37.6545983" lon="14.7274217"><ele>283.0</ele><time>2026-04-26T11:59:03.199Z</time></trkpt><trkpt lat="37.6546367" lon="14.7276"><ele>282.25</ele><time>2026-04-26T11:59:04.199Z</time></trkpt><trkpt lat="37.654645" lon="14.7277733"><ele>281.5</ele><time>2026-04-26T11:59:05.199Z</time></trkpt><trkpt lat="37.654605" lon="14.7279133"><ele>280.75</ele><time>2026-04-26T11:59:06.199Z</time></trkpt><trkpt lat="37.6545167" lon="14.7280567"><ele>280.0</ele><time>2026-04-26T11:59:07.199Z</time></trkpt><trkpt lat="37.654395" lon="14.728205"><ele>280.0</ele><time>2026-04-26T11:59:08.2Z</time></trkpt><trkpt lat="37.6542617" lon="14.72836"><ele>280.0</ele><time>2026-04-26T11:59:09.2Z</time></trkpt><trkpt lat="37.6541167" lon="14.7285"><ele>280.0</ele><time>2026-04-26T11:59:10.2Z</time></trkpt><trkpt lat="37.6539467" lon="14.7286017"><ele>277.3333333333333</ele><time>2026-04-26T11:59:11.2Z</time></trkpt><trkpt lat="37.653785" lon="14.7286767"><ele>274.6666666666667</ele><time>2026-04-26T11:59:12.199Z</time></trkpt><trkpt lat="37.6536317" lon="14.7287417"><ele>272.0</ele><time>2026-04-26T11:59:13.199Z</time></trkpt><trkpt lat="37.65351" lon="14.72881"><ele>272.0</ele><time>2026-04-26T11:59:14.199Z</time></trkpt><trkpt lat="37.6534233" lon="14.7289217"><ele>272.0</ele><time>2026-04-26T11:59:15.199Z</time></trkpt><trkpt lat="37.6533733" lon="14.729075"><ele>272.0</ele><time>2026-04-26T11:59:16.199Z</time></trkpt><trkpt lat="37.6533467" lon="14.7292683"><ele>272.0</ele><time>2026-04-26T11:59:17.2Z</time></trkpt><trkpt lat="37.653335" lon="14.7294867"><ele>272.33333333333337</ele><time>2026-04-26T11:59:18.199Z</time></trkpt><trkpt lat="37.6533183" lon="14.7297383"><ele>272.6666666666667</ele><time>2026-04-26T11:59:19.199Z</time></trkpt><trkpt lat="37.6532883" lon="14.7300017"><ele>273.0</ele><time>2026-04-26T11:59:20.199Z</time></trkpt><trkpt lat="37.6532533" lon="14.7302817"><ele>271.5</ele><time>2026-04-26T11:59:21.199Z</time></trkpt><trkpt lat="37.6532183" lon="14.7305783"><ele>270.0</ele><time>2026-04-26T11:59:22.199Z</time></trkpt><trkpt lat="37.6531833" lon="14.73087"><ele>268.6666666666667</ele><time>2026-04-26T11:59:23.199Z</time></trkpt><trkpt lat="37.6531533" lon="14.7311483"><ele>267.33333333333337</ele><time>2026-04-26T11:59:24.199Z</time></trkpt><trkpt lat="37.653135" lon="14.7314083"><ele>266.0</ele><time>2026-04-26T11:59:25.199Z</time></trkpt><trkpt lat="37.65312" lon="14.7316233"><ele>266.0</ele><time>2026-04-26T11:59:26.2Z</time></trkpt><trkpt lat="37.6530983" lon="14.7318183"><ele>266.0</ele><time>2026-04-26T11:59:27.199Z</time></trkpt><trkpt lat="37.6530517" lon="14.731995"><ele>266.0</ele><time>2026-04-26T11:59:28.199Z</time></trkpt><trkpt lat="37.65296" lon="14.7321417"><ele>264.33333333333337</ele><time>2026-04-26T11:59:29.2Z</time></trkpt><trkpt lat="37.652835" lon="14.732265"><ele>262.6666666666667</ele><time>2026-04-26T11:59:30.199Z</time></trkpt><trkpt lat="37.65268" lon="14.7323617"><ele>261.0</ele><time>2026-04-26T11:59:31.198Z</time></trkpt><trkpt lat="37.652505" lon="14.73243"><ele>264.3333333333333</ele><time>2026-04-26T11:59:32.199Z</time></trkpt><trkpt lat="37.65233" lon="14.7325017"><ele>267.66666666666663</ele><time>2026-04-26T11:59:33.199Z</time></trkpt><trkpt lat="37.652175" lon="14.7326"><ele>271.0</ele><time>2026-04-26T11:59:34.199Z</time></trkpt><trkpt lat="37.6520433" lon="14.7327067"><ele>272.5</ele><time>2026-04-26T11:59:35.199Z</time></trkpt><trkpt lat="37.6519267" lon="14.73282"><ele>274.0</ele><time>2026-04-26T11:59:36.199Z</time></trkpt><trkpt lat="37.651845" lon="14.73295"><ele>275.5</ele><time>2026-04-26T11:59:37.199Z</time></trkpt><trkpt lat="37.6518117" lon="14.7330917"><ele>277.0</ele><time>2026-04-26T11:59:38.199Z</time></trkpt><trkpt lat="37.6518217" lon="14.7332633"><ele>277.0</ele><time>2026-04-26T11:59:39.199Z</time></trkpt><trkpt lat="37.651855" lon="14.7334317"><ele>277.0</ele><time>2026-04-26T11:59:40.199Z</time></trkpt><trkpt lat="37.6518917" lon="14.73359"><ele>277.0</ele><time>2026-04-26T11:59:41.2Z</time></trkpt><trkpt lat="37.651905" lon="14.73374"><ele>277.0</ele><time>2026-04-26T11:59:42.199Z</time></trkpt><trkpt lat="37.651905" lon="14.733875"><ele>276.6</ele><time>2026-04-26T11:59:43.199Z</time></trkpt><trkpt lat="37.6518883" lon="14.73401"><ele>276.2</ele><time>2026-04-26T11:59:44.199Z</time></trkpt><trkpt lat="37.6518517" lon="14.7341283"><ele>275.8</ele><time>2026-04-26T11:59:45.199Z</time></trkpt><trkpt lat="37.6518017" lon="14.7342433"><ele>275.4</ele><time>2026-04-26T11:59:46.199Z</time></trkpt><trkpt lat="37.651765" lon="14.7343583"><ele>275.0</ele><time>2026-04-26T11:59:47.199Z</time></trkpt><trkpt lat="37.6517683" lon="14.734485"><ele>275.0</ele><time>2026-04-26T11:59:48.199Z</time></trkpt><trkpt lat="37.6517867" lon="14.7346083"><ele>275.0</ele><time>2026-04-26T11:59:49.199Z</time></trkpt><trkpt lat="37.651815" lon="14.734735"><ele>275.0</ele><time>2026-04-26T11:59:50.199Z</time></trkpt><trkpt lat="37.651825" lon="14.7348633"><ele>275.0</ele><time>2026-04-26T11:59:51.199Z</time></trkpt><trkpt lat="37.65181" lon="14.7349833"><ele>275.0</ele><time>2026-04-26T11:59:52.199Z</time></trkpt><trkpt lat="37.6517617" lon="14.7350917"><ele>275.0</ele><time>2026-04-26T11:59:53.2Z</time></trkpt><trkpt lat="37.6516867" lon="14.7351917"><ele>275.0</ele><time>2026-04-26T11:59:54.2Z</time></trkpt><trkpt lat="37.6516083" lon="14.7352983"><ele>275.0</ele><time>2026-04-26T11:59:55.2Z</time></trkpt><trkpt lat="37.6515333" lon="14.7354233"><ele>275.0</ele><time>2026-04-26T11:59:56.199Z</time></trkpt><trkpt lat="37.6514667" lon="14.7355917"><ele>272.33333333333337</ele><time>2026-04-26T11:59:57.199Z</time></trkpt><trkpt lat="37.6514033" lon="14.7357917"><ele>269.6666666666667</ele><time>2026-04-26T11:59:58.2Z</time></trkpt><trkpt lat="37.651335" lon="14.736"><ele>267.0</ele><time>2026-04-26T11:59:59.199Z</time></trkpt><trkpt lat="37.6512617" lon="14.7362117"><ele>265.6666666666667</ele><time>2026-04-26T12:00:00.199Z</time></trkpt><trkpt lat="37.6512017" lon="14.7364183"><ele>264.33333333333337</ele><time>2026-04-26T12:00:01.199Z</time></trkpt><trkpt lat="37.6511583" lon="14.73663"><ele>263.0</ele><time>2026-04-26T12:00:02.2Z</time></trkpt><trkpt lat="37.651135" lon="14.7368517"><ele>262.33333333333337</ele><time>2026-04-26T12:00:03.199Z</time></trkpt><trkpt lat="37.65114" lon="14.7370917"><ele>261.6666666666667</ele><time>2026-04-26T12:00:04.199Z</time></trkpt><trkpt lat="37.65117" lon="14.7373283"><ele>261.0</ele><time>2026-04-26T12:00:05.2Z</time></trkpt><trkpt lat="37.6512" lon="14.73755"><ele>261.6666666666667</ele><time>2026-04-26T12:00:06.199Z</time></trkpt><trkpt lat="37.651235" lon="14.7377633"><ele>262.33333333333337</ele><time>2026-04-26T12:00:07.199Z</time></trkpt><trkpt lat="37.6512683" lon="14.7379883"><ele>263.0</ele><time>2026-04-26T12:00:08.199Z</time></trkpt><trkpt lat="37.651295" lon="14.73823"><ele>263.0</ele><time>2026-04-26T12:00:09.199Z</time></trkpt><trkpt lat="37.6513217" lon="14.738475"><ele>263.0</ele><time>2026-04-26T12:00:10.199Z</time></trkpt><trkpt lat="37.6513467" lon="14.7387383"><ele>263.0</ele><time>2026-04-26T12:00:11.199Z</time></trkpt><trkpt lat="37.651375" lon="14.7390033"><ele>263.0</ele><time>2026-04-26T12:00:12.199Z</time></trkpt><trkpt lat="37.6514017" lon="14.7392717"><ele>263.0</ele><time>2026-04-26T12:00:13.199Z</time></trkpt><trkpt lat="37.6514317" lon="14.73954"><ele>263.0</ele><time>2026-04-26T12:00:14.199Z</time></trkpt><trkpt lat="37.6514717" lon="14.7397933"><ele>263.0</ele><time>2026-04-26T12:00:15.199Z</time></trkpt><trkpt lat="37.6515117" lon="14.7400483"><ele>263.0</ele><time>2026-04-26T12:00:16.199Z</time></trkpt><trkpt lat="37.651555" lon="14.7402967"><ele>263.0</ele><time>2026-04-26T12:00:17.199Z</time></trkpt><trkpt lat="37.6516" lon="14.7405433"><ele>263.0</ele><time>2026-04-26T12:00:18.199Z</time></trkpt><trkpt lat="37.6516383" lon="14.7407883"><ele>263.0</ele><time>2026-04-26T12:00:19.199Z</time></trkpt><trkpt lat="37.6516767" lon="14.7410433"><ele>263.0</ele><time>2026-04-26T12:00:20.199Z</time></trkpt><trkpt lat="37.651715" lon="14.7412983"><ele>263.0</ele><time>2026-04-26T12:00:21.199Z</time></trkpt><trkpt lat="37.65175" lon="14.74155"><ele>263.0</ele><time>2026-04-26T12:00:22.199Z</time></trkpt><trkpt lat="37.6517817" lon="14.74179"><ele>263.0</ele><time>2026-04-26T12:00:23.199Z</time></trkpt><trkpt lat="37.6518117" lon="14.742015"><ele>262.25</ele><time>2026-04-26T12:00:24.2Z</time></trkpt><trkpt lat="37.6518383" lon="14.7422267"><ele>261.5</ele><time>2026-04-26T12:00:25.199Z</time></trkpt><trkpt lat="37.6518617" lon="14.7424167"><ele>260.75</ele><time>2026-04-26T12:00:26.199Z</time></trkpt><trkpt lat="37.6518817" lon="14.742575"><ele>260.0</ele><time>2026-04-26T12:00:27.199Z</time></trkpt><trkpt lat="37.6519117" lon="14.742715"><ele>256.4</ele><time>2026-04-26T12:00:28.199Z</time></trkpt><trkpt lat="37.6519583" lon="14.742835"><ele>252.8</ele><time>2026-04-26T12:00:29.199Z</time></trkpt><trkpt lat="37.65202" lon="14.7429133"><ele>249.2</ele><time>2026-04-26T12:00:30.199Z</time></trkpt><trkpt lat="37.6520967" lon="14.7429583"><ele>245.6</ele><time>2026-04-26T12:00:31.199Z</time></trkpt><trkpt lat="37.6521783" lon="14.742955"><ele>242.0</ele><time>2026-04-26T12:00:32.199Z</time></trkpt><trkpt lat="37.652275" lon="14.7428567"><ele>242.0</ele><time>2026-04-26T12:00:33.199Z</time></trkpt><trkpt lat="37.652355" lon="14.7427233"><ele>242.0</ele><time>2026-04-26T12:00:34.199Z</time></trkpt><trkpt lat="37.65243" lon="14.7425783"><ele>242.0</ele><time>2026-04-26T12:00:35.199Z</time></trkpt><trkpt lat="37.652495" lon="14.74244"><ele>242.0</ele><time>2026-04-26T12:00:36.199Z</time></trkpt><trkpt lat="37.6525517" lon="14.7423167"><ele>243.16666666666669</ele><time>2026-04-26T12:00:37.199Z</time></trkpt><trkpt lat="37.652605" lon="14.742215"><ele>244.33333333333334</ele><time>2026-04-26T12:00:38.2Z</time></trkpt><trkpt lat="37.6526633" lon="14.742135"><ele>245.5</ele><time>2026-04-26T12:00:39.2Z</time></trkpt><trkpt lat="37.6527217" lon="14.742095"><ele>246.66666666666669</ele><time>2026-04-26T12:00:40.2Z</time></trkpt><trkpt lat="37.6527967" lon="14.7421017"><ele>247.83333333333334</ele><time>2026-04-26T12:00:41.199Z</time></trkpt><trkpt lat="37.65285" lon="14.7421617"><ele>249.0</ele><time>2026-04-26T12:00:42.2Z</time></trkpt><trkpt lat="37.6528833" lon="14.7422717"><ele>242.33333333333331</ele><time>2026-04-26T12:00:43.2Z</time></trkpt><trkpt lat="37.652895" lon="14.7424417"><ele>235.66666666666666</ele><time>2026-04-26T12:00:44.2Z</time></trkpt><trkpt lat="37.6528833" lon="14.7426733"><ele>229.0</ele><time>2026-04-26T12:00:45.2Z</time></trkpt><trkpt lat="37.6528717" lon="14.7429167"><ele>228.66666666666666</ele><time>2026-04-26T12:00:46.2Z</time></trkpt><trkpt lat="37.6528617" lon="14.7431667"><ele>228.33333333333331</ele><time>2026-04-26T12:00:47.199Z</time></trkpt><trkpt lat="37.6528483" lon="14.7434267"><ele>228.0</ele><time>2026-04-26T12:00:48.199Z</time></trkpt><trkpt lat="37.65284" lon="14.7436883"><ele>227.33333333333331</ele><time>2026-04-26T12:00:49.199Z</time></trkpt><trkpt lat="37.6528383" lon="14.7439367"><ele>226.66666666666666</ele><time>2026-04-26T12:00:50.199Z</time></trkpt><trkpt lat="37.65283" lon="14.74416"><ele>226.0</ele><time>2026-04-26T12:00:51.199Z</time></trkpt><trkpt lat="37.65281" lon="14.7443767"><ele>228.66666666666666</ele><time>2026-04-26T12:00:52.199Z</time></trkpt><trkpt lat="37.6527667" lon="14.7445783"><ele>231.33333333333331</ele><time>2026-04-26T12:00:53.199Z</time></trkpt><trkpt lat="37.652695" lon="14.7447883"><ele>234.0</ele><time>2026-04-26T12:00:54.199Z</time></trkpt><trkpt lat="37.6525967" lon="14.7449983"><ele>231.66666666666669</ele><time>2026-04-26T12:00:55.199Z</time></trkpt><trkpt lat="37.6524833" lon="14.7452233"><ele>229.33333333333334</ele><time>2026-04-26T12:00:56.2Z</time></trkpt><trkpt lat="37.6523717" lon="14.7454667"><ele>227.0</ele><time>2026-04-26T12:00:57.199Z</time></trkpt><trkpt lat="37.6522667" lon="14.7457167"><ele>227.0</ele><time>2026-04-26T12:00:58.199Z</time></trkpt><trkpt lat="37.6521533" lon="14.745975"><ele>227.0</ele><time>2026-04-26T12:00:59.199Z</time></trkpt><trkpt lat="37.6520433" lon="14.746225"><ele>225.66666666666669</ele><time>2026-04-26T12:01:00.199Z</time></trkpt><trkpt lat="37.6519367" lon="14.7464733"><ele>224.33333333333331</ele><time>2026-04-26T12:01:01.2Z</time></trkpt><trkpt lat="37.6518233" lon="14.7467167"><ele>223.0</ele><time>2026-04-26T12:01:02.199Z</time></trkpt><trkpt lat="37.651705" lon="14.7469583"><ele>223.0</ele><time>2026-04-26T12:01:03.199Z</time></trkpt><trkpt lat="37.6515717" lon="14.7471883"><ele>223.0</ele><time>2026-04-26T12:01:04.199Z</time></trkpt><trkpt lat="37.6514467" lon="14.7473933"><ele>223.0</ele><time>2026-04-26T12:01:05.199Z</time></trkpt><trkpt lat="37.65133" lon="14.7475883"><ele>221.33333333333331</ele><time>2026-04-26T12:01:06.199Z</time></trkpt><trkpt lat="37.6512133" lon="14.7477967"><ele>219.66666666666669</ele><time>2026-04-26T12:01:07.199Z</time></trkpt><trkpt lat="37.6510967" lon="14.748015"><ele>218.0</ele><time>2026-04-26T12:01:08.199Z</time></trkpt><trkpt lat="37.6509933" lon="14.7482467"><ele>220.33333333333334</ele><time>2026-04-26T12:01:09.199Z</time></trkpt><trkpt lat="37.6509" lon="14.7484967"><ele>222.66666666666669</ele><time>2026-04-26T12:01:10.199Z</time></trkpt><trkpt lat="37.6508167" lon="14.7487533"><ele>225.0</ele><time>2026-04-26T12:01:11.199Z</time></trkpt><trkpt lat="37.6507417" lon="14.7490117"><ele>225.0</ele><time>2026-04-26T12:01:12.199Z</time></trkpt><trkpt lat="37.650665" lon="14.749275"><ele>225.0</ele><time>2026-04-26T12:01:13.199Z</time></trkpt><trkpt lat="37.6505817" lon="14.7495317"><ele>225.0</ele><time>2026-04-26T12:01:14.198Z</time></trkpt><trkpt lat="37.6504833" lon="14.7497867"><ele>225.0</ele><time>2026-04-26T12:01:15.198Z</time></trkpt><trkpt lat="37.65037" lon="14.7500467"><ele>225.0</ele><time>2026-04-26T12:01:16.198Z</time></trkpt><trkpt lat="37.6502517" lon="14.7503017"><ele>225.0</ele><time>2026-04-26T12:01:17.199Z</time></trkpt><trkpt lat="37.6501383" lon="14.7505533"><ele>225.0</ele><time>2026-04-26T12:01:18.198Z</time></trkpt><trkpt lat="37.65002" lon="14.75081"><ele>225.5</ele><time>2026-04-26T12:01:19.198Z</time></trkpt><trkpt lat="37.6499067" lon="14.7510683"><ele>226.0</ele><time>2026-04-26T12:01:20.198Z</time></trkpt><trkpt lat="37.6497967" lon="14.751325"><ele>226.0</ele><time>2026-04-26T12:01:21.198Z</time></trkpt><trkpt lat="37.64969" lon="14.751585"><ele>226.0</ele><time>2026-04-26T12:01:22.198Z</time></trkpt><trkpt lat="37.6495783" lon="14.7518333"><ele>226.0</ele><time>2026-04-26T12:01:23.199Z</time></trkpt><trkpt lat="37.64947" lon="14.75207"><ele>226.0</ele><time>2026-04-26T12:01:24.198Z</time></trkpt><trkpt lat="37.6493683" lon="14.7523017"><ele>226.0</ele><time>2026-04-26T12:01:25.198Z</time></trkpt><trkpt lat="37.6492517" lon="14.7525467"><ele>228.5</ele><time>2026-04-26T12:01:26.198Z</time></trkpt><trkpt lat="37.6491367" lon="14.7528033"><ele>231.0</ele><time>2026-04-26T12:01:27.198Z</time></trkpt><trkpt lat="37.6490217" lon="14.7530583"><ele>231.0</ele><time>2026-04-26T12:01:28.199Z</time></trkpt><trkpt lat="37.6489017" lon="14.7533333"><ele>231.0</ele><time>2026-04-26T12:01:29.198Z</time></trkpt><trkpt lat="37.64878" lon="14.753605"><ele>230.5</ele><time>2026-04-26T12:01:30.198Z</time></trkpt><trkpt lat="37.6486683" lon="14.7538683"><ele>230.0</ele><time>2026-04-26T12:01:31.198Z</time></trkpt><trkpt lat="37.6485567" lon="14.7541283"><ele>231.5</ele><time>2026-04-26T12:01:32.198Z</time></trkpt><trkpt lat="37.6484367" lon="14.7543983"><ele>233.0</ele><time>2026-04-26T12:01:33.198Z</time></trkpt><trkpt lat="37.64831" lon="14.7546683"><ele>233.0</ele><time>2026-04-26T12:01:34.198Z</time></trkpt><trkpt lat="37.6481917" lon="14.7549217"><ele>233.0</ele><time>2026-04-26T12:01:35.199Z</time></trkpt><trkpt lat="37.64808" lon="14.7551633"><ele>233.33333333333334</ele><time>2026-04-26T12:01:36.199Z</time></trkpt><trkpt lat="37.6479767" lon="14.7553983"><ele>233.66666666666669</ele><time>2026-04-26T12:01:37.198Z</time></trkpt><trkpt lat="37.6478717" lon="14.7556383"><ele>234.0</ele><time>2026-04-26T12:01:38.198Z</time></trkpt><trkpt lat="37.64776" lon="14.7558817"><ele>235.33333333333331</ele><time>2026-04-26T12:01:39.198Z</time></trkpt><trkpt lat="37.6476517" lon="14.756125"><ele>236.66666666666666</ele><time>2026-04-26T12:01:40.198Z</time></trkpt><trkpt lat="37.6475467" lon="14.75637"><ele>238.0</ele><time>2026-04-26T12:01:41.199Z</time></trkpt><trkpt lat="37.647445" lon="14.756615"><ele>238.0</ele><time>2026-04-26T12:01:42.199Z</time></trkpt><trkpt lat="37.6473383" lon="14.756865"><ele>238.0</ele><time>2026-04-26T12:01:43.199Z</time></trkpt><trkpt lat="37.647235" lon="14.7571083"><ele>238.0</ele><time>2026-04-26T12:01:44.198Z</time></trkpt><trkpt lat="37.6471383" lon="14.7573567"><ele>238.0</ele><time>2026-04-26T12:01:45.198Z</time></trkpt><trkpt lat="37.6470433" lon="14.7576083"><ele>238.0</ele><time>2026-04-26T12:01:46.198Z</time></trkpt><trkpt lat="37.6469567" lon="14.7578517"><ele>238.0</ele><time>2026-04-26T12:01:47.198Z</time></trkpt><trkpt lat="37.6468817" lon="14.7580833"><ele>237.66666666666666</ele><time>2026-04-26T12:01:48.198Z</time></trkpt><trkpt lat="37.6468117" lon="14.75831"><ele>237.33333333333331</ele><time>2026-04-26T12:01:49.198Z</time></trkpt><trkpt lat="37.646745" lon="14.75853"><ele>237.0</ele><time>2026-04-26T12:01:50.199Z</time></trkpt><trkpt lat="37.64668" lon="14.7587433"><ele>236.0</ele><time>2026-04-26T12:01:51.199Z</time></trkpt><trkpt lat="37.6466117" lon="14.75895"><ele>235.0</ele><time>2026-04-26T12:01:52.198Z</time></trkpt><trkpt lat="37.6465417" lon="14.7591433"><ele>234.0</ele><time>2026-04-26T12:01:53.199Z</time></trkpt><trkpt lat="37.6464667" lon="14.75933"><ele>234.33333333333331</ele><time>2026-04-26T12:01:54.198Z</time></trkpt><trkpt lat="37.6463667" lon="14.75952"><ele>234.66666666666666</ele><time>2026-04-26T12:01:55.199Z</time></trkpt><trkpt lat="37.6462417" lon="14.7597133"><ele>235.0</ele><time>2026-04-26T12:01:56.199Z</time></trkpt><trkpt lat="37.64612" lon="14.759915"><ele>235.0</ele><time>2026-04-26T12:01:57.198Z</time></trkpt><trkpt lat="37.6460167" lon="14.760115"><ele>235.0</ele><time>2026-04-26T12:01:58.198Z</time></trkpt><trkpt lat="37.6459367" lon="14.76033"><ele>235.0</ele><time>2026-04-26T12:01:59.199Z</time></trkpt><trkpt lat="37.6458683" lon="14.760525"><ele>234.0</ele><time>2026-04-26T12:02:00.198Z</time></trkpt><trkpt lat="37.6457883" lon="14.7606933"><ele>233.0</ele><time>2026-04-26T12:02:01.198Z</time></trkpt><trkpt lat="37.64568" lon="14.7608467"><ele>232.0</ele><time>2026-04-26T12:02:02.198Z</time></trkpt><trkpt lat="37.6455667" lon="14.7610167"><ele>231.66666666666666</ele><time>2026-04-26T12:02:03.198Z</time></trkpt><trkpt lat="37.6454833" lon="14.7611733"><ele>231.33333333333331</ele><time>2026-04-26T12:02:04.198Z</time></trkpt><trkpt lat="37.64545" lon="14.7613567"><ele>231.0</ele><time>2026-04-26T12:02:05.199Z</time></trkpt><trkpt lat="37.6454533" lon="14.7615667"><ele>231.0</ele><time>2026-04-26T12:02:06.199Z</time></trkpt><trkpt lat="37.645465" lon="14.7617783"><ele>231.0</ele><time>2026-04-26T12:02:07.198Z</time></trkpt><trkpt lat="37.6454583" lon="14.7619833"><ele>231.0</ele><time>2026-04-26T12:02:08.198Z</time></trkpt><trkpt lat="37.645445" lon="14.762185"><ele>232.0</ele><time>2026-04-26T12:02:09.199Z</time></trkpt><trkpt lat="37.645465" lon="14.7624033"><ele>233.0</ele><time>2026-04-26T12:02:10.198Z</time></trkpt><trkpt lat="37.6455117" lon="14.7626283"><ele>234.0</ele><time>2026-04-26T12:02:11.198Z</time></trkpt><trkpt lat="37.6455667" lon="14.7628733"><ele>235.33333333333331</ele><time>2026-04-26T12:02:12.198Z</time></trkpt><trkpt lat="37.645625" lon="14.763115"><ele>236.66666666666666</ele><time>2026-04-26T12:02:13.198Z</time></trkpt><trkpt lat="37.6456717" lon="14.7633717"><ele>238.0</ele><time>2026-04-26T12:02:14.198Z</time></trkpt><trkpt lat="37.6457033" lon="14.7636333"><ele>238.66666666666666</ele><time>2026-04-26T12:02:15.198Z</time></trkpt><trkpt lat="37.645735" lon="14.763885"><ele>239.33333333333331</ele><time>2026-04-26T12:02:16.198Z</time></trkpt><trkpt lat="37.6457733" lon="14.7641367"><ele>240.0</ele><time>2026-04-26T12:02:17.198Z</time></trkpt><trkpt lat="37.645805" lon="14.76439"><ele>240.0</ele><time>2026-04-26T12:02:18.198Z</time></trkpt><trkpt lat="37.6458433" lon="14.7646367"><ele>240.0</ele><time>2026-04-26T12:02:19.198Z</time></trkpt><trkpt lat="37.6458667" lon="14.7648717"><ele>240.0</ele><time>2026-04-26T12:02:20.198Z</time></trkpt><trkpt lat="37.645875" lon="14.7651183"><ele>238.33333333333331</ele><time>2026-04-26T12:02:21.198Z</time></trkpt><trkpt lat="37.645875" lon="14.765375"><ele>236.66666666666666</ele><time>2026-04-26T12:02:22.198Z</time></trkpt><trkpt lat="37.645875" lon="14.7656383"><ele>235.0</ele><time>2026-04-26T12:02:23.198Z</time></trkpt><trkpt lat="37.6458767" lon="14.7659067"><ele>235.33333333333331</ele><time>2026-04-26T12:02:24.199Z</time></trkpt><trkpt lat="37.6458783" lon="14.7661717"><ele>235.66666666666669</ele><time>2026-04-26T12:02:25.199Z</time></trkpt><trkpt lat="37.645885" lon="14.766435"><ele>236.0</ele><time>2026-04-26T12:02:26.198Z</time></trkpt><trkpt lat="37.645895" lon="14.7666867"><ele>235.33333333333334</ele><time>2026-04-26T12:02:27.198Z</time></trkpt><trkpt lat="37.6459117" lon="14.7669333"><ele>234.66666666666669</ele><time>2026-04-26T12:02:28.198Z</time></trkpt><trkpt lat="37.64594" lon="14.7671733"><ele>234.0</ele><time>2026-04-26T12:02:29.198Z</time></trkpt><trkpt lat="37.64599" lon="14.7674217"><ele>234.0</ele><time>2026-04-26T12:02:30.198Z</time></trkpt><trkpt lat="37.6460533" lon="14.7676717"><ele>234.0</ele><time>2026-04-26T12:02:31.198Z</time></trkpt><trkpt lat="37.6461283" lon="14.7679117"><ele>234.0</ele><time>2026-04-26T12:02:32.198Z</time></trkpt><trkpt lat="37.6461983" lon="14.7681417"><ele>231.33333333333331</ele><time>2026-04-26T12:02:33.198Z</time></trkpt><trkpt lat="37.6462633" lon="14.76838"><ele>228.66666666666666</ele><time>2026-04-26T12:02:34.198Z</time></trkpt><trkpt lat="37.6463133" lon="14.768625"><ele>226.0</ele><time>2026-04-26T12:02:35.198Z</time></trkpt><trkpt lat="37.6463583" lon="14.7688767"><ele>224.66666666666666</ele><time>2026-04-26T12:02:36.198Z</time></trkpt><trkpt lat="37.6463967" lon="14.769135"><ele>223.33333333333331</ele><time>2026-04-26T12:02:37.198Z</time></trkpt><trkpt lat="37.64643" lon="14.7694"><ele>222.0</ele><time>2026-04-26T12:02:38.198Z</time></trkpt><trkpt lat="37.6464633" lon="14.76966"><ele>220.66666666666669</ele><time>2026-04-26T12:02:39.198Z</time></trkpt><trkpt lat="37.6464967" lon="14.7699117"><ele>219.33333333333334</ele><time>2026-04-26T12:02:40.198Z</time></trkpt><trkpt lat="37.6465333" lon="14.77016"><ele>218.0</ele><time>2026-04-26T12:02:41.199Z</time></trkpt><trkpt lat="37.6465617" lon="14.770405"><ele>217.0</ele><time>2026-04-26T12:02:42.199Z</time></trkpt><trkpt lat="37.646605" lon="14.77065"><ele>216.0</ele><time>2026-04-26T12:02:43.198Z</time></trkpt><trkpt lat="37.6466617" lon="14.7709033"><ele>215.0</ele><time>2026-04-26T12:02:44.198Z</time></trkpt><trkpt lat="37.6467367" lon="14.7711467"><ele>212.66666666666669</ele><time>2026-04-26T12:02:45.198Z</time></trkpt><trkpt lat="37.64682" lon="14.77139"><ele>210.33333333333331</ele><time>2026-04-26T12:02:46.198Z</time></trkpt><trkpt lat="37.646905" lon="14.7716333"><ele>208.0</ele><time>2026-04-26T12:02:47.199Z</time></trkpt><trkpt lat="37.6469933" lon="14.7718717"><ele>205.66666666666666</ele><time>2026-04-26T12:02:48.198Z</time></trkpt><trkpt lat="37.64708" lon="14.77211"><ele>203.33333333333331</ele><time>2026-04-26T12:02:49.198Z</time></trkpt><trkpt lat="37.647165" lon="14.7723467"><ele>201.0</ele><time>2026-04-26T12:02:50.198Z</time></trkpt><trkpt lat="37.64725" lon="14.772585"><ele>202.33333333333331</ele><time>2026-04-26T12:02:51.198Z</time></trkpt><trkpt lat="37.6473333" lon="14.772825"><ele>203.66666666666666</ele><time>2026-04-26T12:02:52.199Z</time></trkpt><trkpt lat="37.647415" lon="14.77306"><ele>205.0</ele><time>2026-04-26T12:02:53.198Z</time></trkpt><trkpt lat="37.6474967" lon="14.7732983"><ele>207.33333333333331</ele><time>2026-04-26T12:02:54.198Z</time></trkpt><trkpt lat="37.6475817" lon="14.7735383"><ele>209.66666666666669</ele><time>2026-04-26T12:02:55.199Z</time></trkpt><trkpt lat="37.6476667" lon="14.7737817"><ele>212.0</ele><time>2026-04-26T12:02:56.198Z</time></trkpt><trkpt lat="37.6477483" lon="14.774015"><ele>212.33333333333334</ele><time>2026-04-26T12:02:57.198Z</time></trkpt><trkpt lat="37.64784" lon="14.7742483"><ele>212.66666666666669</ele><time>2026-04-26T12:02:58.198Z</time></trkpt><trkpt lat="37.64794" lon="14.774485"><ele>213.0</ele><time>2026-04-26T12:02:59.198Z</time></trkpt><trkpt lat="37.64805" lon="14.774715"><ele>214.33333333333331</ele><time>2026-04-26T12:03:00.198Z</time></trkpt><trkpt lat="37.6481733" lon="14.7749433"><ele>215.66666666666666</ele><time>2026-04-26T12:03:01.199Z</time></trkpt><trkpt lat="37.648305" lon="14.7751667"><ele>217.0</ele><time>2026-04-26T12:03:02.198Z</time></trkpt><trkpt lat="37.6484367" lon="14.7753917"><ele>217.33333333333331</ele><time>2026-04-26T12:03:03.198Z</time></trkpt><trkpt lat="37.6485683" lon="14.7756233"><ele>217.66666666666669</ele><time>2026-04-26T12:03:04.198Z</time></trkpt><trkpt lat="37.6487017" lon="14.77585"><ele>218.0</ele><time>2026-04-26T12:03:05.198Z</time></trkpt><trkpt lat="37.6488317" lon="14.77609"><ele>220.0</ele><time>2026-04-26T12:03:06.199Z</time></trkpt><trkpt lat="37.648965" lon="14.7763267"><ele>222.0</ele><time>2026-04-26T12:03:07.198Z</time></trkpt><trkpt lat="37.6491" lon="14.7765733"><ele>222.0</ele><time>2026-04-26T12:03:08.198Z</time></trkpt><trkpt lat="37.6492367" lon="14.77682"><ele>222.0</ele><time>2026-04-26T12:03:09.198Z</time></trkpt><trkpt lat="37.6493767" lon="14.7770617"><ele>224.0</ele><time>2026-04-26T12:03:10.199Z</time></trkpt><trkpt lat="37.6495167" lon="14.7773067"><ele>226.0</ele><time>2026-04-26T12:03:11.198Z</time></trkpt><trkpt lat="37.6496533" lon="14.7775533"><ele>227.5</ele><time>2026-04-26T12:03:12.199Z</time></trkpt><trkpt lat="37.6497883" lon="14.7777933"><ele>229.0</ele><time>2026-04-26T12:03:13.198Z</time></trkpt><trkpt lat="37.6499217" lon="14.778035"><ele>229.0</ele><time>2026-04-26T12:03:14.198Z</time></trkpt><trkpt lat="37.65006" lon="14.7782717"><ele>229.0</ele><time>2026-04-26T12:03:15.199Z</time></trkpt><trkpt lat="37.6501983" lon="14.77851"><ele>232.0</ele><time>2026-04-26T12:03:16.199Z</time></trkpt><trkpt lat="37.650335" lon="14.7787467"><ele>235.0</ele><time>2026-04-26T12:03:17.198Z</time></trkpt><trkpt lat="37.6504683" lon="14.7789833"><ele>235.0</ele><time>2026-04-26T12:03:18.199Z</time></trkpt><trkpt lat="37.6506067" lon="14.7792167"><ele>235.0</ele><time>2026-04-26T12:03:19.198Z</time></trkpt><trkpt lat="37.6507433" lon="14.7794467"><ele>235.5</ele><time>2026-04-26T12:03:20.198Z</time></trkpt><trkpt lat="37.650885" lon="14.7796733"><ele>236.0</ele><time>2026-04-26T12:03:21.198Z</time></trkpt><trkpt lat="37.6510267" lon="14.7799067"><ele>235.5</ele><time>2026-04-26T12:03:22.198Z</time></trkpt><trkpt lat="37.65116" lon="14.78015"><ele>235.0</ele><time>2026-04-26T12:03:23.198Z</time></trkpt><trkpt lat="37.6512833" lon="14.7803967"><ele>236.0</ele><time>2026-04-26T12:03:24.199Z</time></trkpt><trkpt lat="37.6513967" lon="14.780645"><ele>237.0</ele><time>2026-04-26T12:03:25.198Z</time></trkpt><trkpt lat="37.6515033" lon="14.7808983"><ele>237.5</ele><time>2026-04-26T12:03:26.199Z</time></trkpt><trkpt lat="37.6516033" lon="14.7811517"><ele>238.0</ele><time>2026-04-26T12:03:27.198Z</time></trkpt><trkpt lat="37.6517017" lon="14.781415"><ele>238.0</ele><time>2026-04-26T12:03:28.198Z</time></trkpt><trkpt lat="37.6517967" lon="14.7816867"><ele>238.0</ele><time>2026-04-26T12:03:29.199Z</time></trkpt><trkpt lat="37.65189" lon="14.7819617"><ele>239.5</ele><time>2026-04-26T12:03:30.198Z</time></trkpt><trkpt lat="37.6519917" lon="14.7822467"><ele>241.0</ele><time>2026-04-26T12:03:31.198Z</time></trkpt><trkpt lat="37.6520983" lon="14.7825417"><ele>240.5</ele><time>2026-04-26T12:03:32.198Z</time></trkpt><trkpt lat="37.6522083" lon="14.7828533"><ele>240.0</ele><time>2026-04-26T12:03:33.198Z</time></trkpt><trkpt lat="37.6523233" lon="14.7831767"><ele>240.0</ele><time>2026-04-26T12:03:34.198Z</time></trkpt><trkpt lat="37.6524333" lon="14.7835083"><ele>240.0</ele><time>2026-04-26T12:03:35.199Z</time></trkpt><trkpt lat="37.6525383" lon="14.7838283"><ele>241.0</ele><time>2026-04-26T12:03:36.198Z</time></trkpt><trkpt lat="37.65264" lon="14.78413"><ele>242.0</ele><time>2026-04-26T12:03:37.198Z</time></trkpt><trkpt lat="37.6527367" lon="14.7844167"><ele>242.0</ele><time>2026-04-26T12:03:38.199Z</time></trkpt><trkpt lat="37.6528283" lon="14.784685"><ele>242.0</ele><time>2026-04-26T12:03:39.198Z</time></trkpt><trkpt lat="37.6529183" lon="14.7849467"><ele>243.0</ele><time>2026-04-26T12:03:40.198Z</time></trkpt><trkpt lat="37.6530033" lon="14.785215"><ele>244.0</ele><time>2026-04-26T12:03:41.198Z</time></trkpt><trkpt lat="37.6530917" lon="14.7854783"><ele>244.0</ele><time>2026-04-26T12:03:42.199Z</time></trkpt><trkpt lat="37.6531767" lon="14.78574"><ele>244.0</ele><time>2026-04-26T12:03:43.198Z</time></trkpt><trkpt lat="37.6532633" lon="14.7859967"><ele>244.0</ele><time>2026-04-26T12:03:44.198Z</time></trkpt><trkpt lat="37.653345" lon="14.786245"><ele>243.66666666666666</ele><time>2026-04-26T12:03:45.198Z</time></trkpt><trkpt lat="37.6534217" lon="14.7864817"><ele>243.33333333333331</ele><time>2026-04-26T12:03:46.198Z</time></trkpt><trkpt lat="37.6535" lon="14.7867067"><ele>243.0</ele><time>2026-04-26T12:03:47.198Z</time></trkpt><trkpt lat="37.6535733" lon="14.786935"><ele>243.0</ele><time>2026-04-26T12:03:48.198Z</time></trkpt><trkpt lat="37.6536517" lon="14.787175"><ele>243.0</ele><time>2026-04-26T12:03:49.198Z</time></trkpt><trkpt lat="37.65374" lon="14.7874233"><ele>243.0</ele><time>2026-04-26T12:03:50.198Z</time></trkpt><trkpt lat="37.65383" lon="14.7876783"><ele>243.0</ele><time>2026-04-26T12:03:51.199Z</time></trkpt><trkpt lat="37.65392" lon="14.7879433"><ele>243.0</ele><time>2026-04-26T12:03:52.198Z</time></trkpt><trkpt lat="37.6540117" lon="14.7882067"><ele>243.0</ele><time>2026-04-26T12:03:53.199Z</time></trkpt><trkpt lat="37.6541" lon="14.7884667"><ele>243.0</ele><time>2026-04-26T12:03:54.198Z</time></trkpt><trkpt lat="37.6541883" lon="14.78873"><ele>243.0</ele><time>2026-04-26T12:03:55.198Z</time></trkpt><trkpt lat="37.6542767" lon="14.7889867"><ele>243.0</ele><time>2026-04-26T12:03:56.198Z</time></trkpt><trkpt lat="37.6543617" lon="14.7892283"><ele>243.0</ele><time>2026-04-26T12:03:57.198Z</time></trkpt><trkpt lat="37.6544367" lon="14.7894583"><ele>243.66666666666669</ele><time>2026-04-26T12:03:58.198Z</time></trkpt><trkpt lat="37.6545117" lon="14.7896833"><ele>244.33333333333334</ele><time>2026-04-26T12:03:59.198Z</time></trkpt><trkpt lat="37.6545817" lon="14.7898883"><ele>245.0</ele><time>2026-04-26T12:04:00.198Z</time></trkpt><trkpt lat="37.6546483" lon="14.7900783"><ele>242.25</ele><time>2026-04-26T12:04:01.198Z</time></trkpt><trkpt lat="37.6547067" lon="14.79025"><ele>239.5</ele><time>2026-04-26T12:04:02.198Z</time></trkpt><trkpt lat="37.6547683" lon="14.7903983"><ele>236.75</ele><time>2026-04-26T12:04:03.198Z</time></trkpt><trkpt lat="37.6548433" lon="14.7905117"><ele>234.0</ele><time>2026-04-26T12:04:04.198Z</time></trkpt><trkpt lat="37.6549433" lon="14.7905917"><ele>234.0</ele><time>2026-04-26T12:04:05.198Z</time></trkpt><trkpt lat="37.6550783" lon="14.7906267"><ele>234.0</ele><time>2026-04-26T12:04:06.198Z</time></trkpt><trkpt lat="37.65521" lon="14.79062"><ele>234.0</ele><time>2026-04-26T12:04:07.198Z</time></trkpt><trkpt lat="37.6553283" lon="14.7906083"><ele>234.0</ele><time>2026-04-26T12:04:08.198Z</time></trkpt><trkpt lat="37.6554483" lon="14.7906183"><ele>235.0</ele><time>2026-04-26T12:04:09.198Z</time></trkpt><trkpt lat="37.65555" lon="14.7906683"><ele>236.0</ele><time>2026-04-26T12:04:10.198Z</time></trkpt><trkpt lat="37.6556433" lon="14.79076"><ele>237.0</ele><time>2026-04-26T12:04:11.198Z</time></trkpt><trkpt lat="37.6557133" lon="14.790885"><ele>238.0</ele><time>2026-04-26T12:04:12.199Z</time></trkpt><trkpt lat="37.6557633" lon="14.7910367"><ele>235.25</ele><time>2026-04-26T12:04:13.198Z</time></trkpt><trkpt lat="37.655805" lon="14.791195"><ele>232.5</ele><time>2026-04-26T12:04:14.198Z</time></trkpt><trkpt lat="37.6558567" lon="14.7913417"><ele>229.75</ele><time>2026-04-26T12:04:15.198Z</time></trkpt><trkpt lat="37.6559317" lon="14.7914667"><ele>227.0</ele><time>2026-04-26T12:04:16.199Z</time></trkpt><trkpt lat="37.65604" lon="14.7915583"><ele>228.75</ele><time>2026-04-26T12:04:17.198Z</time></trkpt><trkpt lat="37.6561767" lon="14.7916267"><ele>230.5</ele><time>2026-04-26T12:04:18.198Z</time></trkpt><trkpt lat="37.656315" lon="14.7916733"><ele>232.25</ele><time>2026-04-26T12:04:19.198Z</time></trkpt><trkpt lat="37.6564617" lon="14.7917083"><ele>234.0</ele><time>2026-04-26T12:04:20.198Z</time></trkpt><trkpt lat="37.6566033" lon="14.7917433"><ele>234.0</ele><time>2026-04-26T12:04:21.198Z</time></trkpt><trkpt lat="37.6567333" lon="14.79177"><ele>234.0</ele><time>2026-04-26T12:04:22.198Z</time></trkpt><trkpt lat="37.6568567" lon="14.7918117"><ele>234.0</ele><time>2026-04-26T12:04:23.198Z</time></trkpt><trkpt lat="37.6569667" lon="14.791885"><ele>234.0</ele><time>2026-04-26T12:04:24.198Z</time></trkpt><trkpt lat="37.6570533" lon="14.7919883"><ele>231.39999999999998</ele><time>2026-04-26T12:04:25.198Z</time></trkpt><trkpt lat="37.657135" lon="14.7921"><ele>228.79999999999998</ele><time>2026-04-26T12:04:26.198Z</time></trkpt><trkpt lat="37.657205" lon="14.79221"><ele>226.20000000000002</ele><time>2026-04-26T12:04:27.199Z</time></trkpt><trkpt lat="37.6572583" lon="14.7923117"><ele>223.60000000000002</ele><time>2026-04-26T12:04:28.198Z</time></trkpt><trkpt lat="37.65728" lon="14.7924233"><ele>221.0</ele><time>2026-04-26T12:04:29.198Z</time></trkpt><trkpt lat="37.6572783" lon="14.7925183"><ele>221.0</ele><time>2026-04-26T12:04:30.198Z</time></trkpt><trkpt lat="37.6572367" lon="14.7925933"><ele>221.0</ele><time>2026-04-26T12:04:31.198Z</time></trkpt><trkpt lat="37.6571633" lon="14.7926367"><ele>221.0</ele><time>2026-04-26T12:04:32.198Z</time></trkpt><trkpt lat="37.65703" lon="14.79266"><ele>221.0</ele><time>2026-04-26T12:04:33.198Z</time></trkpt><trkpt lat="37.6568667" lon="14.79268"><ele>218.0</ele><time>2026-04-26T12:04:34.198Z</time></trkpt><trkpt lat="37.6567133" lon="14.7927"><ele>215.0</ele><time>2026-04-26T12:04:35.198Z</time></trkpt><trkpt lat="37.6565783" lon="14.79273"><ele>212.0</ele><time>2026-04-26T12:04:36.198Z</time></trkpt><trkpt lat="37.656455" lon="14.7927767"><ele>209.0</ele><time>2026-04-26T12:04:37.198Z</time></trkpt><trkpt lat="37.6563567" lon="14.7928717"><ele>209.0</ele><time>2026-04-26T12:04:38.198Z</time></trkpt><trkpt lat="37.6562783" lon="14.7930083"><ele>209.0</ele><time>2026-04-26T12:04:39.198Z</time></trkpt><trkpt lat="37.6562183" lon="14.7931783"><ele>209.0</ele><time>2026-04-26T12:04:40.198Z</time></trkpt><trkpt lat="37.6561567" lon="14.7933633"><ele>209.0</ele><time>2026-04-26T12:04:41.198Z</time></trkpt><trkpt lat="37.65609" lon="14.7935517"><ele>209.0</ele><time>2026-04-26T12:04:42.198Z</time></trkpt><trkpt lat="37.6560283" lon="14.7937433"><ele>209.0</ele><time>2026-04-26T12:04:43.198Z</time></trkpt><trkpt lat="37.6559633" lon="14.79392"><ele>209.0</ele><time>2026-04-26T12:04:44.198Z</time></trkpt><trkpt lat="37.6559033" lon="14.7940867"><ele>209.0</ele><time>2026-04-26T12:04:45.198Z</time></trkpt><trkpt lat="37.6558433" lon="14.7942383"><ele>209.0</ele><time>2026-04-26T12:04:46.198Z</time></trkpt><trkpt lat="37.6557817" lon="14.7943667"><ele>209.0</ele><time>2026-04-26T12:04:47.198Z</time></trkpt><trkpt lat="37.6556967" lon="14.7944667"><ele>209.0</ele><time>2026-04-26T12:04:48.198Z</time></trkpt><trkpt lat="37.655585" lon="14.7945133"><ele>212.0</ele><time>2026-04-26T12:04:49.198Z</time></trkpt><trkpt lat="37.6554483" lon="14.7945517"><ele>215.0</ele><time>2026-04-26T12:04:50.198Z</time></trkpt><trkpt lat="37.6553033" lon="14.7945867"><ele>218.0</ele><time>2026-04-26T12:04:51.198Z</time></trkpt><trkpt lat="37.65518" lon="14.7946367"><ele>221.0</ele><time>2026-04-26T12:04:52.198Z</time></trkpt><trkpt lat="37.6550783" lon="14.79471"><ele>221.0</ele><time>2026-04-26T12:04:53.198Z</time></trkpt><trkpt lat="37.6549917" lon="14.7948233"><ele>221.0</ele><time>2026-04-26T12:04:54.199Z</time></trkpt><trkpt lat="37.6549267" lon="14.7949533"><ele>221.0</ele><time>2026-04-26T12:04:55.198Z</time></trkpt><trkpt lat="37.6548883" lon="14.7951133"><ele>221.0</ele><time>2026-04-26T12:04:56.198Z</time></trkpt><trkpt lat="37.6548583" lon="14.7953017"><ele>223.66666666666669</ele><time>2026-04-26T12:04:57.198Z</time></trkpt><trkpt lat="37.65482" lon="14.7955033"><ele>226.33333333333331</ele><time>2026-04-26T12:04:58.198Z</time></trkpt><trkpt lat="37.6547833" lon="14.79571"><ele>229.0</ele><time>2026-04-26T12:04:59.198Z</time></trkpt><trkpt lat="37.6547417" lon="14.795915"><ele>230.0</ele><time>2026-04-26T12:05:00.198Z</time></trkpt><trkpt lat="37.6546883" lon="14.7961233"><ele>231.0</ele><time>2026-04-26T12:05:01.198Z</time></trkpt><trkpt lat="37.65464" lon="14.7963233"><ele>232.0</ele><time>2026-04-26T12:05:02.198Z</time></trkpt><trkpt lat="37.6545783" lon="14.796535"><ele>232.0</ele><time>2026-04-26T12:05:03.198Z</time></trkpt><trkpt lat="37.6545033" lon="14.7967617"><ele>232.0</ele><time>2026-04-26T12:05:04.198Z</time></trkpt><trkpt lat="37.6544417" lon="14.7969933"><ele>232.0</ele><time>2026-04-26T12:05:05.198Z</time></trkpt><trkpt lat="37.6543767" lon="14.79722"><ele>231.66666666666666</ele><time>2026-04-26T12:05:06.198Z</time></trkpt><trkpt lat="37.6543133" lon="14.7974483"><ele>231.33333333333331</ele><time>2026-04-26T12:05:07.198Z</time></trkpt><trkpt lat="37.6542467" lon="14.79767"><ele>231.0</ele><time>2026-04-26T12:05:08.198Z</time></trkpt><trkpt lat="37.6541833" lon="14.7978783"><ele>232.0</ele><time>2026-04-26T12:05:09.198Z</time></trkpt><trkpt lat="37.65412" lon="14.7980767"><ele>233.0</ele><time>2026-04-26T12:05:10.199Z</time></trkpt><trkpt lat="37.654075" lon="14.7982583"><ele>234.0</ele><time>2026-04-26T12:05:11.198Z</time></trkpt><trkpt lat="37.6540583" lon="14.7984417"><ele>234.25</ele><time>2026-04-26T12:05:12.198Z</time></trkpt><trkpt lat="37.6540683" lon="14.7986133"><ele>234.5</ele><time>2026-04-26T12:05:13.198Z</time></trkpt><trkpt lat="37.6540917" lon="14.7987767"><ele>234.75</ele><time>2026-04-26T12:05:14.198Z</time></trkpt><trkpt lat="37.6541133" lon="14.798925"><ele>235.0</ele><time>2026-04-26T12:05:15.198Z</time></trkpt><trkpt lat="37.654105" lon="14.79907"><ele>235.0</ele><time>2026-04-26T12:05:16.198Z</time></trkpt><trkpt lat="37.6540733" lon="14.7992033"><ele>235.0</ele><time>2026-04-26T12:05:17.198Z</time></trkpt><trkpt lat="37.65402" lon="14.7993467"><ele>235.0</ele><time>2026-04-26T12:05:18.199Z</time></trkpt><trkpt lat="37.6539467" lon="14.7994767"><ele>235.0</ele><time>2026-04-26T12:05:19.199Z</time></trkpt><trkpt lat="37.6538617" lon="14.7996117"><ele>235.0</ele><time>2026-04-26T12:05:20.198Z</time></trkpt><trkpt lat="37.6537617" lon="14.7997417"><ele>235.0</ele><time>2026-04-26T12:05:21.199Z</time></trkpt><trkpt lat="37.653655" lon="14.79988"><ele>235.0</ele><time>2026-04-26T12:05:22.198Z</time></trkpt><trkpt lat="37.653535" lon="14.8000183"><ele>235.0</ele><time>2026-04-26T12:05:23.198Z</time></trkpt><trkpt lat="37.65341" lon="14.8001633"><ele>235.0</ele><time>2026-04-26T12:05:24.198Z</time></trkpt><trkpt lat="37.6532917" lon="14.8003217"><ele>235.0</ele><time>2026-04-26T12:05:25.199Z</time></trkpt><trkpt lat="37.6531683" lon="14.8004733"><ele>235.33333333333331</ele><time>2026-04-26T12:05:26.198Z</time></trkpt><trkpt lat="37.653035" lon="14.8006317"><ele>235.66666666666669</ele><time>2026-04-26T12:05:27.198Z</time></trkpt><trkpt lat="37.6528933" lon="14.800805"><ele>236.0</ele><time>2026-04-26T12:05:28.198Z</time></trkpt><trkpt lat="37.6527433" lon="14.8009933"><ele>236.0</ele><time>2026-04-26T12:05:29.199Z</time></trkpt><trkpt lat="37.6525883" lon="14.8011883"><ele>236.0</ele><time>2026-04-26T12:05:30.198Z</time></trkpt><trkpt lat="37.652425" lon="14.8013933"><ele>236.0</ele><time>2026-04-26T12:05:31.198Z</time></trkpt><trkpt lat="37.652255" lon="14.8016017"><ele>236.0</ele><time>2026-04-26T12:05:32.198Z</time></trkpt><trkpt lat="37.652085" lon="14.801815"><ele>236.0</ele><time>2026-04-26T12:05:33.198Z</time></trkpt><trkpt lat="37.65192" lon="14.8020233"><ele>234.0</ele><time>2026-04-26T12:05:34.198Z</time></trkpt><trkpt lat="37.6517533" lon="14.8022333"><ele>232.0</ele><time>2026-04-26T12:05:35.198Z</time></trkpt><trkpt lat="37.651595" lon="14.80244"><ele>232.0</ele><time>2026-04-26T12:05:36.198Z</time></trkpt><trkpt lat="37.6514283" lon="14.8026467"><ele>232.0</ele><time>2026-04-26T12:05:37.198Z</time></trkpt><trkpt lat="37.65126" lon="14.8028517"><ele>231.0</ele><time>2026-04-26T12:05:38.198Z</time></trkpt><trkpt lat="37.6510883" lon="14.80306"><ele>230.0</ele><time>2026-04-26T12:05:39.198Z</time></trkpt><trkpt lat="37.6509217" lon="14.80327"><ele>230.0</ele><time>2026-04-26T12:05:40.198Z</time></trkpt><trkpt lat="37.650755" lon="14.8034717"><ele>230.0</ele><time>2026-04-26T12:05:41.198Z</time></trkpt><trkpt lat="37.6505917" lon="14.8036783"><ele>230.0</ele><time>2026-04-26T12:05:42.198Z</time></trkpt><trkpt lat="37.6504267" lon="14.8038833"><ele>230.0</ele><time>2026-04-26T12:05:43.198Z</time></trkpt><trkpt lat="37.6502617" lon="14.8040883"><ele>229.5</ele><time>2026-04-26T12:05:44.198Z</time></trkpt><trkpt lat="37.6500983" lon="14.80429"><ele>229.0</ele><time>2026-04-26T12:05:45.198Z</time></trkpt><trkpt lat="37.6499417" lon="14.8044917"><ele>229.0</ele><time>2026-04-26T12:05:46.199Z</time></trkpt><trkpt lat="37.649785" lon="14.80469"><ele>229.0</ele><time>2026-04-26T12:05:47.198Z</time></trkpt><trkpt lat="37.6496383" lon="14.8049083"><ele>229.0</ele><time>2026-04-26T12:05:48.198Z</time></trkpt><trkpt lat="37.6495033" lon="14.8051433"><ele>228.0</ele><time>2026-04-26T12:05:49.198Z</time></trkpt><trkpt lat="37.6493733" lon="14.8053883"><ele>227.0</ele><time>2026-04-26T12:05:50.198Z</time></trkpt><trkpt lat="37.6492483" lon="14.8056267"><ele>227.0</ele><time>2026-04-26T12:05:51.198Z</time></trkpt><trkpt lat="37.649125" lon="14.805875"><ele>227.0</ele><time>2026-04-26T12:05:52.199Z</time></trkpt><trkpt lat="37.6490033" lon="14.80612"><ele>228.0</ele><time>2026-04-26T12:05:53.198Z</time></trkpt><trkpt lat="37.6488833" lon="14.8063683"><ele>229.0</ele><time>2026-04-26T12:05:54.198Z</time></trkpt><trkpt lat="37.6487633" lon="14.80662"><ele>229.0</ele><time>2026-04-26T12:05:55.198Z</time></trkpt><trkpt lat="37.64864" lon="14.8068617"><ele>229.0</ele><time>2026-04-26T12:05:56.198Z</time></trkpt><trkpt lat="37.6485167" lon="14.8071067"><ele>226.5</ele><time>2026-04-26T12:05:57.198Z</time></trkpt><trkpt lat="37.6483967" lon="14.8073583"><ele>224.0</ele><time>2026-04-26T12:05:58.198Z</time></trkpt><trkpt lat="37.648275" lon="14.80761"><ele>225.0</ele><time>2026-04-26T12:05:59.198Z</time></trkpt><trkpt lat="37.6481533" lon="14.807865"><ele>226.0</ele><time>2026-04-26T12:06:00.198Z</time></trkpt><trkpt lat="37.6480283" lon="14.8081217"><ele>226.0</ele><time>2026-04-26T12:06:01.198Z</time></trkpt><trkpt lat="37.647905" lon="14.8083767"><ele>226.0</ele><time>2026-04-26T12:06:02.198Z</time></trkpt><trkpt lat="37.6477783" lon="14.8086333"><ele>222.5</ele><time>2026-04-26T12:06:03.198Z</time></trkpt><trkpt lat="37.6476517" lon="14.8088883"><ele>219.0</ele><time>2026-04-26T12:06:04.198Z</time></trkpt><trkpt lat="37.6475267" lon="14.8091483"><ele>220.0</ele><time>2026-04-26T12:06:05.199Z</time></trkpt><trkpt lat="37.6474" lon="14.809405"><ele>221.0</ele><time>2026-04-26T12:06:06.198Z</time></trkpt><trkpt lat="37.6472733" lon="14.8096617"><ele>221.0</ele><time>2026-04-26T12:06:07.199Z</time></trkpt><trkpt lat="37.6471483" lon="14.809915"><ele>221.0</ele><time>2026-04-26T12:06:08.198Z</time></trkpt><trkpt lat="37.6470233" lon="14.8101683"><ele>220.0</ele><time>2026-04-26T12:06:09.198Z</time></trkpt><trkpt lat="37.6469017" lon="14.8104183"><ele>219.0</ele><time>2026-04-26T12:06:10.199Z</time></trkpt><trkpt lat="37.64678" lon="14.8106717"><ele>219.0</ele><time>2026-04-26T12:06:11.197Z</time></trkpt><trkpt lat="37.6466567" lon="14.8109217"><ele>219.0</ele><time>2026-04-26T12:06:12.198Z</time></trkpt><trkpt lat="37.6465383" lon="14.8111683"><ele>219.66666666666669</ele><time>2026-04-26T12:06:13.198Z</time></trkpt><trkpt lat="37.6464183" lon="14.8114067"><ele>220.33333333333334</ele><time>2026-04-26T12:06:14.198Z</time></trkpt><trkpt lat="37.6463033" lon="14.8116367"><ele>221.0</ele><time>2026-04-26T12:06:15.198Z</time></trkpt><trkpt lat="37.646195" lon="14.8118617"><ele>218.33333333333334</ele><time>2026-04-26T12:06:16.198Z</time></trkpt><trkpt lat="37.6460967" lon="14.8120883"><ele>215.66666666666669</ele><time>2026-04-26T12:06:17.198Z</time></trkpt><trkpt lat="37.6460067" lon="14.8123133"><ele>213.0</ele><time>2026-04-26T12:06:18.198Z</time></trkpt><trkpt lat="37.645945" lon="14.812545"><ele>214.0</ele><time>2026-04-26T12:06:19.198Z</time></trkpt><trkpt lat="37.6459033" lon="14.81279"><ele>215.0</ele><time>2026-04-26T12:06:20.198Z</time></trkpt><trkpt lat="37.6458783" lon="14.8130383"><ele>216.0</ele><time>2026-04-26T12:06:21.199Z</time></trkpt><trkpt lat="37.64587" lon="14.8132767"><ele>216.0</ele><time>2026-04-26T12:06:22.198Z</time></trkpt><trkpt lat="37.6458617" lon="14.8135083"><ele>216.0</ele><time>2026-04-26T12:06:23.198Z</time></trkpt><trkpt lat="37.64584" lon="14.81374"><ele>216.0</ele><time>2026-04-26T12:06:24.198Z</time></trkpt><trkpt lat="37.64581" lon="14.813965"><ele>216.0</ele><time>2026-04-26T12:06:25.198Z</time></trkpt><trkpt lat="37.645765" lon="14.8141883"><ele>216.0</ele><time>2026-04-26T12:06:26.198Z</time></trkpt><trkpt lat="37.6456983" lon="14.814415"><ele>216.0</ele><time>2026-04-26T12:06:27.198Z</time></trkpt><trkpt lat="37.6456083" lon="14.8146383"><ele>217.66666666666669</ele><time>2026-04-26T12:06:28.198Z</time></trkpt><trkpt lat="37.6455033" lon="14.8148517"><ele>219.33333333333334</ele><time>2026-04-26T12:06:29.198Z</time></trkpt><trkpt lat="37.6454083" lon="14.81506"><ele>221.0</ele><time>2026-04-26T12:06:30.198Z</time></trkpt><trkpt lat="37.6453183" lon="14.8152517"><ele>218.66666666666669</ele><time>2026-04-26T12:06:31.198Z</time></trkpt><trkpt lat="37.6452133" lon="14.8154383"><ele>216.33333333333331</ele><time>2026-04-26T12:06:32.198Z</time></trkpt><trkpt lat="37.6450883" lon="14.8156133"><ele>214.0</ele><time>2026-04-26T12:06:33.198Z</time></trkpt><trkpt lat="37.64495" lon="14.8157783"><ele>214.0</ele><time>2026-04-26T12:06:34.199Z</time></trkpt><trkpt lat="37.6448167" lon="14.8159317"><ele>214.0</ele><time>2026-04-26T12:06:35.198Z</time></trkpt><trkpt lat="37.6446783" lon="14.8160733"><ele>214.0</ele><time>2026-04-26T12:06:36.198Z</time></trkpt><trkpt lat="37.644555" lon="14.8162333"><ele>209.66666666666666</ele><time>2026-04-26T12:06:37.198Z</time></trkpt><trkpt lat="37.6444517" lon="14.8164067"><ele>205.33333333333331</ele><time>2026-04-26T12:06:38.198Z</time></trkpt><trkpt lat="37.64437" lon="14.8165917"><ele>201.0</ele><time>2026-04-26T12:06:39.198Z</time></trkpt><trkpt lat="37.6443167" lon="14.81678"><ele>203.66666666666669</ele><time>2026-04-26T12:06:40.198Z</time></trkpt><trkpt lat="37.6442967" lon="14.8169767"><ele>206.33333333333334</ele><time>2026-04-26T12:06:41.198Z</time></trkpt><trkpt lat="37.6443017" lon="14.8171817"><ele>209.0</ele><time>2026-04-26T12:06:42.198Z</time></trkpt><trkpt lat="37.6442967" lon="14.8173617"><ele>209.0</ele><time>2026-04-26T12:06:43.198Z</time></trkpt><trkpt lat="37.64428" lon="14.8175333"><ele>209.0</ele><time>2026-04-26T12:06:44.198Z</time></trkpt><trkpt lat="37.644225" lon="14.8177"><ele>209.0</ele><time>2026-04-26T12:06:45.198Z</time></trkpt><trkpt lat="37.6441333" lon="14.81785"><ele>209.0</ele><time>2026-04-26T12:06:46.199Z</time></trkpt><trkpt lat="37.6440067" lon="14.8179783"><ele>209.66666666666669</ele><time>2026-04-26T12:06:47.198Z</time></trkpt><trkpt lat="37.64385" lon="14.8180667"><ele>210.33333333333331</ele><time>2026-04-26T12:06:48.198Z</time></trkpt><trkpt lat="37.6436817" lon="14.8181383"><ele>211.0</ele><time>2026-04-26T12:06:49.198Z</time></trkpt><trkpt lat="37.6435033" lon="14.8182133"><ele>209.33333333333331</ele><time>2026-04-26T12:06:50.198Z</time></trkpt><trkpt lat="37.6433067" lon="14.8182933"><ele>207.66666666666669</ele><time>2026-04-26T12:06:51.199Z</time></trkpt><trkpt lat="37.6431017" lon="14.8183867"><ele>206.0</ele><time>2026-04-26T12:06:52.198Z</time></trkpt><trkpt lat="37.64289" lon="14.8184833"><ele>208.0</ele><time>2026-04-26T12:06:53.198Z</time></trkpt><trkpt lat="37.642675" lon="14.8185867"><ele>210.0</ele><time>2026-04-26T12:06:54.198Z</time></trkpt><trkpt lat="37.6424717" lon="14.8186833"><ele>212.0</ele><time>2026-04-26T12:06:55.199Z</time></trkpt><trkpt lat="37.642275" lon="14.8187817"><ele>212.0</ele><time>2026-04-26T12:06:56.198Z</time></trkpt><trkpt lat="37.6420883" lon="14.8188767"><ele>212.0</ele><time>2026-04-26T12:06:57.198Z</time></trkpt><trkpt lat="37.6419083" lon="14.8189733"><ele>212.0</ele><time>2026-04-26T12:06:58.198Z</time></trkpt><trkpt lat="37.64174" lon="14.8190883"><ele>213.0</ele><time>2026-04-26T12:06:59.198Z</time></trkpt><trkpt lat="37.6415733" lon="14.81922"><ele>214.0</ele><time>2026-04-26T12:07:00.198Z</time></trkpt><trkpt lat="37.6414183" lon="14.81938"><ele>215.0</ele><time>2026-04-26T12:07:01.198Z</time></trkpt><trkpt lat="37.6412733" lon="14.819575"><ele>215.0</ele><time>2026-04-26T12:07:02.198Z</time></trkpt><trkpt lat="37.6411517" lon="14.819795"><ele>215.0</ele><time>2026-04-26T12:07:03.199Z</time></trkpt><trkpt lat="37.6410483" lon="14.8200217"><ele>215.0</ele><time>2026-04-26T12:07:04.198Z</time></trkpt><trkpt lat="37.6409617" lon="14.820285"><ele>210.0</ele><time>2026-04-26T12:07:05.198Z</time></trkpt><trkpt lat="37.6408883" lon="14.8205583"><ele>205.0</ele><time>2026-04-26T12:07:06.198Z</time></trkpt><trkpt lat="37.6408217" lon="14.820845"><ele>206.5</ele><time>2026-04-26T12:07:07.199Z</time></trkpt><trkpt lat="37.6407433" lon="14.821145"><ele>208.0</ele><time>2026-04-26T12:07:08.198Z</time></trkpt><trkpt lat="37.640665" lon="14.8214633"><ele>208.0</ele><time>2026-04-26T12:07:09.198Z</time></trkpt><trkpt lat="37.640585" lon="14.8217683"><ele>208.0</ele><time>2026-04-26T12:07:10.198Z</time></trkpt><trkpt lat="37.6405133" lon="14.8220633"><ele>209.0</ele><time>2026-04-26T12:07:11.198Z</time></trkpt><trkpt lat="37.6404367" lon="14.8223467"><ele>210.0</ele><time>2026-04-26T12:07:12.199Z</time></trkpt><trkpt lat="37.6403667" lon="14.822605"><ele>211.0</ele><time>2026-04-26T12:07:13.199Z</time></trkpt><trkpt lat="37.6403067" lon="14.8228533"><ele>212.0</ele><time>2026-04-26T12:07:14.198Z</time></trkpt><trkpt lat="37.6402533" lon="14.823095"><ele>213.0</ele><time>2026-04-26T12:07:15.199Z</time></trkpt><trkpt lat="37.6402083" lon="14.8233483"><ele>210.33333333333331</ele><time>2026-04-26T12:07:16.198Z</time></trkpt><trkpt lat="37.6401783" lon="14.8236133"><ele>207.66666666666666</ele><time>2026-04-26T12:07:17.198Z</time></trkpt><trkpt lat="37.6401567" lon="14.82388"><ele>205.0</ele><time>2026-04-26T12:07:18.198Z</time></trkpt><trkpt lat="37.640145" lon="14.8241567"><ele>206.0</ele><time>2026-04-26T12:07:19.198Z</time></trkpt><trkpt lat="37.6401433" lon="14.8244333"><ele>207.0</ele><time>2026-04-26T12:07:20.198Z</time></trkpt><trkpt lat="37.6401333" lon="14.8247133"><ele>208.0</ele><time>2026-04-26T12:07:21.198Z</time></trkpt><trkpt lat="37.640125" lon="14.82499"><ele>208.0</ele><time>2026-04-26T12:07:22.199Z</time></trkpt><trkpt lat="37.64012" lon="14.8252633"><ele>208.0</ele><time>2026-04-26T12:07:23.198Z</time></trkpt><trkpt lat="37.640115" lon="14.825525"><ele>208.0</ele><time>2026-04-26T12:07:24.198Z</time></trkpt><trkpt lat="37.6401083" lon="14.8257733"><ele>208.33333333333331</ele><time>2026-04-26T12:07:25.198Z</time></trkpt><trkpt lat="37.6401017" lon="14.8260083"><ele>208.66666666666669</ele><time>2026-04-26T12:07:26.198Z</time></trkpt><trkpt lat="37.6400967" lon="14.8262367"><ele>209.0</ele><time>2026-04-26T12:07:27.198Z</time></trkpt><trkpt lat="37.6400933" lon="14.82646"><ele>209.0</ele><time>2026-04-26T12:07:28.198Z</time></trkpt><trkpt lat="37.64009" lon="14.82667"><ele>209.0</ele><time>2026-04-26T12:07:29.198Z</time></trkpt><trkpt lat="37.64008" lon="14.826865"><ele>209.0</ele><time>2026-04-26T12:07:30.198Z</time></trkpt><trkpt lat="37.6400633" lon="14.827045"><ele>209.75</ele><time>2026-04-26T12:07:31.198Z</time></trkpt><trkpt lat="37.640035" lon="14.8272133"><ele>210.5</ele><time>2026-04-26T12:07:32.198Z</time></trkpt><trkpt lat="37.6399833" lon="14.8273833"><ele>211.25</ele><time>2026-04-26T12:07:33.199Z</time></trkpt><trkpt lat="37.639895" lon="14.8275383"><ele>212.0</ele><time>2026-04-26T12:07:34.198Z</time></trkpt><trkpt lat="37.6397833" lon="14.8276783"><ele>213.66666666666669</ele><time>2026-04-26T12:07:35.198Z</time></trkpt><trkpt lat="37.639645" lon="14.8277817"><ele>215.33333333333331</ele><time>2026-04-26T12:07:36.198Z</time></trkpt><trkpt lat="37.6395" lon="14.82786"><ele>217.0</ele><time>2026-04-26T12:07:37.199Z</time></trkpt><trkpt lat="37.639345" lon="14.8279083"><ele>218.33333333333331</ele><time>2026-04-26T12:07:38.198Z</time></trkpt><trkpt lat="37.639185" lon="14.8279217"><ele>219.66666666666669</ele><time>2026-04-26T12:07:39.198Z</time></trkpt><trkpt lat="37.63904" lon="14.8278917"><ele>221.0</ele><time>2026-04-26T12:07:40.198Z</time></trkpt><trkpt lat="37.63889" lon="14.8278133"><ele>221.0</ele><time>2026-04-26T12:07:41.198Z</time></trkpt><trkpt lat="37.6387417" lon="14.827725"><ele>221.0</ele><time>2026-04-26T12:07:42.198Z</time></trkpt><trkpt lat="37.6385883" lon="14.8276517"><ele>221.0</ele><time>2026-04-26T12:07:43.198Z</time></trkpt><trkpt lat="37.6384183" lon="14.8276117"><ele>223.0</ele><time>2026-04-26T12:07:44.198Z</time></trkpt><trkpt lat="37.63824" lon="14.8276033"><ele>225.0</ele><time>2026-04-26T12:07:45.198Z</time></trkpt><trkpt lat="37.6380633" lon="14.8276333"><ele>227.0</ele><time>2026-04-26T12:07:46.199Z</time></trkpt><trkpt lat="37.6378767" lon="14.8276867"><ele>226.66666666666669</ele><time>2026-04-26T12:07:47.199Z</time></trkpt><trkpt lat="37.63769" lon="14.8277483"><ele>226.33333333333331</ele><time>2026-04-26T12:07:48.198Z</time></trkpt><trkpt lat="37.6375033" lon="14.8278033"><ele>226.0</ele><time>2026-04-26T12:07:49.198Z</time></trkpt><trkpt lat="37.637325" lon="14.82785"><ele>226.0</ele><time>2026-04-26T12:07:50.198Z</time></trkpt><trkpt lat="37.6371333" lon="14.8278783"><ele>226.0</ele><time>2026-04-26T12:07:51.198Z</time></trkpt><trkpt lat="37.6369517" lon="14.8278833"><ele>226.0</ele><time>2026-04-26T12:07:52.198Z</time></trkpt><trkpt lat="37.63677" lon="14.827865"><ele>223.66666666666666</ele><time>2026-04-26T12:07:53.198Z</time></trkpt><trkpt lat="37.6365933" lon="14.8278483"><ele>221.33333333333331</ele><time>2026-04-26T12:07:54.198Z</time></trkpt><trkpt lat="37.6364133" lon="14.8278583"><ele>219.0</ele><time>2026-04-26T12:07:55.198Z</time></trkpt><trkpt lat="37.6362317" lon="14.827895"><ele>215.0</ele><time>2026-04-26T12:07:56.198Z</time></trkpt><trkpt lat="37.6360517" lon="14.82796"><ele>211.0</ele><time>2026-04-26T12:07:57.199Z</time></trkpt><trkpt lat="37.6358817" lon="14.8280517"><ele>207.0</ele><time>2026-04-26T12:07:58.198Z</time></trkpt><trkpt lat="37.63572" lon="14.8281683"><ele>207.0</ele><time>2026-04-26T12:07:59.199Z</time></trkpt><trkpt lat="37.6355567" lon="14.82832"><ele>207.0</ele><time>2026-04-26T12:08:00.198Z</time></trkpt><trkpt lat="37.6354033" lon="14.828505"><ele>207.0</ele><time>2026-04-26T12:08:01.198Z</time></trkpt><trkpt lat="37.63527" lon="14.8287083"><ele>207.66666666666669</ele><time>2026-04-26T12:08:02.199Z</time></trkpt><trkpt lat="37.6351483" lon="14.8289167"><ele>208.33333333333334</ele><time>2026-04-26T12:08:03.198Z</time></trkpt><trkpt lat="37.6350267" lon="14.8291217"><ele>209.0</ele><time>2026-04-26T12:08:04.198Z</time></trkpt><trkpt lat="37.6348933" lon="14.82932"><ele>209.0</ele><time>2026-04-26T12:08:05.198Z</time></trkpt><trkpt lat="37.634735" lon="14.8294967"><ele>209.0</ele><time>2026-04-26T12:08:06.198Z</time></trkpt><trkpt lat="37.6345583" lon="14.8296467"><ele>209.0</ele><time>2026-04-26T12:08:07.198Z</time></trkpt><trkpt lat="37.6343717" lon="14.8297833"><ele>209.33333333333334</ele><time>2026-04-26T12:08:08.199Z</time></trkpt><trkpt lat="37.6341933" lon="14.8299117"><ele>209.66666666666669</ele><time>2026-04-26T12:08:09.198Z</time></trkpt><trkpt lat="37.6340167" lon="14.830035"><ele>210.0</ele><time>2026-04-26T12:08:10.199Z</time></trkpt><trkpt lat="37.6338367" lon="14.83013"><ele>211.33333333333331</ele><time>2026-04-26T12:08:11.199Z</time></trkpt><trkpt lat="37.633645" lon="14.8302167"><ele>212.66666666666666</ele><time>2026-04-26T12:08:12.198Z</time></trkpt><trkpt lat="37.633445" lon="14.83028"><ele>214.0</ele><time>2026-04-26T12:08:13.198Z</time></trkpt><trkpt lat="37.6332433" lon="14.8303267"><ele>214.0</ele><time>2026-04-26T12:08:14.198Z</time></trkpt><trkpt lat="37.6330383" lon="14.83036"><ele>214.0</ele><time>2026-04-26T12:08:15.199Z</time></trkpt><trkpt lat="37.6328317" lon="14.8304"><ele>214.0</ele><time>2026-04-26T12:08:16.198Z</time></trkpt><trkpt lat="37.632625" lon="14.8304567"><ele>214.66666666666666</ele><time>2026-04-26T12:08:17.199Z</time></trkpt><trkpt lat="37.6324183" lon="14.8305317"><ele>215.33333333333331</ele><time>2026-04-26T12:08:18.198Z</time></trkpt><trkpt lat="37.6322083" lon="14.8306033"><ele>216.0</ele><time>2026-04-26T12:08:19.198Z</time></trkpt><trkpt lat="37.631995" lon="14.8306783"><ele>215.66666666666669</ele><time>2026-04-26T12:08:20.198Z</time></trkpt><trkpt lat="37.6317833" lon="14.830745"><ele>215.33333333333334</ele><time>2026-04-26T12:08:21.199Z</time></trkpt><trkpt lat="37.63157" lon="14.8308267"><ele>215.0</ele><time>2026-04-26T12:08:22.199Z</time></trkpt><trkpt lat="37.631355" lon="14.8309267"><ele>215.0</ele><time>2026-04-26T12:08:23.198Z</time></trkpt><trkpt lat="37.6311383" lon="14.8310417"><ele>215.0</ele><time>2026-04-26T12:08:24.198Z</time></trkpt><trkpt lat="37.6309283" lon="14.8311683"><ele>215.0</ele><time>2026-04-26T12:08:25.198Z</time></trkpt><trkpt lat="37.6307217" lon="14.8313"><ele>215.0</ele><time>2026-04-26T12:08:26.199Z</time></trkpt><trkpt lat="37.63051" lon="14.8314283"><ele>213.5</ele><time>2026-04-26T12:08:27.198Z</time></trkpt><trkpt lat="37.6303033" lon="14.831555"><ele>212.0</ele><time>2026-04-26T12:08:28.199Z</time></trkpt><trkpt lat="37.6301" lon="14.83168"><ele>212.0</ele><time>2026-04-26T12:08:29.198Z</time></trkpt><trkpt lat="37.6298933" lon="14.8318017"><ele>212.0</ele><time>2026-04-26T12:08:30.199Z</time></trkpt><trkpt lat="37.6296883" lon="14.831925"><ele>213.0</ele><time>2026-04-26T12:08:31.198Z</time></trkpt><trkpt lat="37.629475" lon="14.83205"><ele>214.0</ele><time>2026-04-26T12:08:32.198Z</time></trkpt><trkpt lat="37.6292667" lon="14.8321833"><ele>214.0</ele><time>2026-04-26T12:08:33.198Z</time></trkpt><trkpt lat="37.6290583" lon="14.8323133"><ele>214.0</ele><time>2026-04-26T12:08:34.199Z</time></trkpt><trkpt lat="37.62884" lon="14.832445"><ele>213.0</ele><time>2026-04-26T12:08:35.198Z</time></trkpt><trkpt lat="37.6286233" lon="14.83258"><ele>212.0</ele><time>2026-04-26T12:08:36.198Z</time></trkpt><trkpt lat="37.6284033" lon="14.8327083"><ele>212.0</ele><time>2026-04-26T12:08:37.199Z</time></trkpt><trkpt lat="37.6281783" lon="14.8328417"><ele>212.0</ele><time>2026-04-26T12:08:38.197Z</time></trkpt><trkpt lat="37.6279483" lon="14.8329817"><ele>211.5</ele><time>2026-04-26T12:08:39.198Z</time></trkpt><trkpt lat="37.627715" lon="14.8331283"><ele>211.0</ele><time>2026-04-26T12:08:40.197Z</time></trkpt><trkpt lat="37.627485" lon="14.8332733"><ele>211.0</ele><time>2026-04-26T12:08:41.197Z</time></trkpt><trkpt lat="37.6272533" lon="14.8334283"><ele>211.0</ele><time>2026-04-26T12:08:42.197Z</time></trkpt><trkpt lat="37.6270183" lon="14.8335767"><ele>210.0</ele><time>2026-04-26T12:08:43.197Z</time></trkpt><trkpt lat="37.6267767" lon="14.8337267"><ele>209.0</ele><time>2026-04-26T12:08:44.197Z</time></trkpt><trkpt lat="37.6265383" lon="14.8338783"><ele>209.0</ele><time>2026-04-26T12:08:45.197Z</time></trkpt><trkpt lat="37.6263" lon="14.83403"><ele>209.0</ele><time>2026-04-26T12:08:46.197Z</time></trkpt><trkpt lat="37.62606" lon="14.8341867"><ele>209.0</ele><time>2026-04-26T12:08:47.197Z</time></trkpt><trkpt lat="37.6258167" lon="14.8343417"><ele>209.0</ele><time>2026-04-26T12:08:48.197Z</time></trkpt><trkpt lat="37.6255817" lon="14.8344933"><ele>209.0</ele><time>2026-04-26T12:08:49.198Z</time></trkpt><trkpt lat="37.6253417" lon="14.8346467"><ele>209.0</ele><time>2026-04-26T12:08:50.197Z</time></trkpt><trkpt lat="37.6251133" lon="14.8347983"><ele>208.5</ele><time>2026-04-26T12:08:51.197Z</time></trkpt><trkpt lat="37.624885" lon="14.8349467"><ele>208.0</ele><time>2026-04-26T12:08:52.197Z</time></trkpt><trkpt lat="37.6246667" lon="14.8350883"><ele>208.0</ele><time>2026-04-26T12:08:53.197Z</time></trkpt><trkpt lat="37.6244617" lon="14.8352233"><ele>208.0</ele><time>2026-04-26T12:08:54.198Z</time></trkpt><trkpt lat="37.62427" lon="14.8353467"><ele>208.0</ele><time>2026-04-26T12:08:55.197Z</time></trkpt><trkpt lat="37.6240833" lon="14.835465"><ele>208.0</ele><time>2026-04-26T12:08:56.197Z</time></trkpt><trkpt lat="37.6239117" lon="14.8355633"><ele>208.0</ele><time>2026-04-26T12:08:57.197Z</time></trkpt><trkpt lat="37.6237333" lon="14.83564"><ele>208.0</ele><time>2026-04-26T12:08:58.197Z</time></trkpt><trkpt lat="37.6235367" lon="14.8356967"><ele>207.66666666666666</ele><time>2026-04-26T12:08:59.197Z</time></trkpt><trkpt lat="37.6233267" lon="14.835725"><ele>207.33333333333331</ele><time>2026-04-26T12:09:00.197Z</time></trkpt><trkpt lat="37.6231183" lon="14.8357417"><ele>207.0</ele><time>2026-04-26T12:09:01.197Z</time></trkpt><trkpt lat="37.6228983" lon="14.8357517"><ele>206.66666666666669</ele><time>2026-04-26T12:09:02.197Z</time></trkpt><trkpt lat="37.62268" lon="14.8357917"><ele>206.33333333333334</ele><time>2026-04-26T12:09:03.197Z</time></trkpt><trkpt lat="37.6224633" lon="14.8358483"><ele>206.0</ele><time>2026-04-26T12:09:04.197Z</time></trkpt><trkpt lat="37.6222467" lon="14.835915"><ele>206.33333333333334</ele><time>2026-04-26T12:09:05.197Z</time></trkpt><trkpt lat="37.6220333" lon="14.8359883"><ele>206.66666666666669</ele><time>2026-04-26T12:09:06.197Z</time></trkpt><trkpt lat="37.6218233" lon="14.8360617"><ele>207.0</ele><time>2026-04-26T12:09:07.197Z</time></trkpt><trkpt lat="37.6216117" lon="14.83614"><ele>205.5</ele><time>2026-04-26T12:09:08.197Z</time></trkpt><trkpt lat="37.6213933" lon="14.8362567"><ele>204.0</ele><time>2026-04-26T12:09:09.197Z</time></trkpt><trkpt lat="37.62118" lon="14.8363883"><ele>203.0</ele><time>2026-04-26T12:09:10.197Z</time></trkpt><trkpt lat="37.6209683" lon="14.83653"><ele>202.0</ele><time>2026-04-26T12:09:11.197Z</time></trkpt><trkpt lat="37.6207533" lon="14.8366833"><ele>202.5</ele><time>2026-04-26T12:09:12.197Z</time></trkpt><trkpt lat="37.6205333" lon="14.8368383"><ele>203.0</ele><time>2026-04-26T12:09:13.197Z</time></trkpt><trkpt lat="37.62031" lon="14.83699"><ele>201.5</ele><time>2026-04-26T12:09:14.197Z</time></trkpt><trkpt lat="37.6200883" lon="14.8371367"><ele>200.0</ele><time>2026-04-26T12:09:15.197Z</time></trkpt><trkpt lat="37.6198667" lon="14.8372867"><ele>200.0</ele><time>2026-04-26T12:09:16.198Z</time></trkpt><trkpt lat="37.6196483" lon="14.8374417"><ele>200.0</ele><time>2026-04-26T12:09:17.197Z</time></trkpt><trkpt lat="37.6194417" lon="14.8375883"><ele>202.0</ele><time>2026-04-26T12:09:18.197Z</time></trkpt><trkpt lat="37.6192417" lon="14.83773"><ele>204.0</ele><time>2026-04-26T12:09:19.197Z</time></trkpt><trkpt lat="37.619045" lon="14.8378633"><ele>204.0</ele><time>2026-04-26T12:09:20.197Z</time></trkpt><trkpt lat="37.61885" lon="14.8379933"><ele>204.0</ele><time>2026-04-26T12:09:21.197Z</time></trkpt><trkpt lat="37.61866" lon="14.8381267"><ele>204.0</ele><time>2026-04-26T12:09:22.197Z</time></trkpt><trkpt lat="37.6184767" lon="14.8382467"><ele>204.66666666666669</ele><time>2026-04-26T12:09:23.197Z</time></trkpt><trkpt lat="37.6183" lon="14.838365"><ele>205.33333333333334</ele><time>2026-04-26T12:09:24.197Z</time></trkpt><trkpt lat="37.6181333" lon="14.838485"><ele>206.0</ele><time>2026-04-26T12:09:25.197Z</time></trkpt><trkpt lat="37.61798" lon="14.8386283"><ele>206.66666666666669</ele><time>2026-04-26T12:09:26.197Z</time></trkpt><trkpt lat="37.6178383" lon="14.83879"><ele>207.33333333333331</ele><time>2026-04-26T12:09:27.197Z</time></trkpt><trkpt lat="37.6177083" lon="14.8389667"><ele>208.0</ele><time>2026-04-26T12:09:28.197Z</time></trkpt><trkpt lat="37.6175767" lon="14.839155"><ele>209.33333333333331</ele><time>2026-04-26T12:09:29.197Z</time></trkpt><trkpt lat="37.6174467" lon="14.83936"><ele>210.66666666666669</ele><time>2026-04-26T12:09:30.197Z</time></trkpt><trkpt lat="37.6173133" lon="14.8395733"><ele>212.0</ele><time>2026-04-26T12:09:31.197Z</time></trkpt><trkpt lat="37.617175" lon="14.8397833"><ele>212.0</ele><time>2026-04-26T12:09:32.197Z</time></trkpt><trkpt lat="37.617035" lon="14.8399983"><ele>212.0</ele><time>2026-04-26T12:09:33.197Z</time></trkpt><trkpt lat="37.61689" lon="14.840215"><ele>212.0</ele><time>2026-04-26T12:09:34.197Z</time></trkpt><trkpt lat="37.61674" lon="14.8404317"><ele>212.66666666666669</ele><time>2026-04-26T12:09:35.197Z</time></trkpt><trkpt lat="37.6166017" lon="14.8406483"><ele>213.33333333333331</ele><time>2026-04-26T12:09:36.197Z</time></trkpt><trkpt lat="37.6164667" lon="14.84086"><ele>214.0</ele><time>2026-04-26T12:09:37.197Z</time></trkpt><trkpt lat="37.6163333" lon="14.8410767"><ele>214.0</ele><time>2026-04-26T12:09:38.197Z</time></trkpt><trkpt lat="37.6162017" lon="14.8412867"><ele>214.0</ele><time>2026-04-26T12:09:39.197Z</time></trkpt><trkpt lat="37.616065" lon="14.8414983"><ele>214.0</ele><time>2026-04-26T12:09:40.197Z</time></trkpt><trkpt lat="37.6159283" lon="14.8417083"><ele>214.66666666666666</ele><time>2026-04-26T12:09:41.197Z</time></trkpt><trkpt lat="37.6157917" lon="14.841915"><ele>215.33333333333331</ele><time>2026-04-26T12:09:42.198Z</time></trkpt><trkpt lat="37.6156633" lon="14.842135"><ele>216.0</ele><time>2026-04-26T12:09:43.197Z</time></trkpt><trkpt lat="37.6155283" lon="14.8423483"><ele>216.0</ele><time>2026-04-26T12:09:44.197Z</time></trkpt><trkpt lat="37.6153917" lon="14.8425583"><ele>216.0</ele><time>2026-04-26T12:09:45.197Z</time></trkpt><trkpt lat="37.6152567" lon="14.8427633"><ele>216.0</ele><time>2026-04-26T12:09:46.197Z</time></trkpt><trkpt lat="37.6151217" lon="14.8429667"><ele>216.66666666666669</ele><time>2026-04-26T12:09:47.198Z</time></trkpt><trkpt lat="37.61499" lon="14.8431783"><ele>217.33333333333334</ele><time>2026-04-26T12:09:48.197Z</time></trkpt><trkpt lat="37.6148533" lon="14.8433867"><ele>218.0</ele><time>2026-04-26T12:09:49.197Z</time></trkpt><trkpt lat="37.6147167" lon="14.8436017"><ele>218.33333333333334</ele><time>2026-04-26T12:09:50.197Z</time></trkpt><trkpt lat="37.6145833" lon="14.8438133"><ele>218.66666666666669</ele><time>2026-04-26T12:09:51.197Z</time></trkpt><trkpt lat="37.6144483" lon="14.8440233"><ele>219.0</ele><time>2026-04-26T12:09:52.198Z</time></trkpt><trkpt lat="37.61431" lon="14.8442283"><ele>217.66666666666669</ele><time>2026-04-26T12:09:53.198Z</time></trkpt><trkpt lat="37.6141767" lon="14.8444317"><ele>216.33333333333334</ele><time>2026-04-26T12:09:54.197Z</time></trkpt><trkpt lat="37.61404" lon="14.8446417"><ele>215.0</ele><time>2026-04-26T12:09:55.197Z</time></trkpt><trkpt lat="37.6138983" lon="14.844845"><ele>215.0</ele><time>2026-04-26T12:09:56.197Z</time></trkpt><trkpt lat="37.6137483" lon="14.84504"><ele>215.0</ele><time>2026-04-26T12:09:57.197Z</time></trkpt><trkpt lat="37.6135917" lon="14.8452283"><ele>215.0</ele><time>2026-04-26T12:09:58.197Z</time></trkpt><trkpt lat="37.6134283" lon="14.8454167"><ele>213.5</ele><time>2026-04-26T12:09:59.197Z</time></trkpt><trkpt lat="37.6132583" lon="14.8455983"><ele>212.0</ele><time>2026-04-26T12:10:00.197Z</time></trkpt><trkpt lat="37.61308" lon="14.8457767"><ele>212.0</ele><time>2026-04-26T12:10:01.197Z</time></trkpt><trkpt lat="37.61291" lon="14.845955"><ele>212.0</ele><time>2026-04-26T12:10:02.197Z</time></trkpt><trkpt lat="37.61274" lon="14.8461267"><ele>212.0</ele><time>2026-04-26T12:10:03.198Z</time></trkpt><trkpt lat="37.6125783" lon="14.8462967"><ele>211.0</ele><time>2026-04-26T12:10:04.197Z</time></trkpt><trkpt lat="37.61242" lon="14.8464617"><ele>210.0</ele><time>2026-04-26T12:10:05.197Z</time></trkpt><trkpt lat="37.61226" lon="14.846625"><ele>209.0</ele><time>2026-04-26T12:10:06.197Z</time></trkpt><trkpt lat="37.6121017" lon="14.8467883"><ele>208.33333333333334</ele><time>2026-04-26T12:10:07.197Z</time></trkpt><trkpt lat="37.61194" lon="14.8469533"><ele>207.66666666666669</ele><time>2026-04-26T12:10:08.197Z</time></trkpt><trkpt lat="37.6117767" lon="14.84712"><ele>207.0</ele><time>2026-04-26T12:10:09.197Z</time></trkpt><trkpt lat="37.611605" lon="14.8472733"><ele>207.0</ele><time>2026-04-26T12:10:10.197Z</time></trkpt><trkpt lat="37.6114267" lon="14.84742"><ele>207.0</ele><time>2026-04-26T12:10:11.197Z</time></trkpt><trkpt lat="37.6112267" lon="14.8475583"><ele>207.0</ele><time>2026-04-26T12:10:12.197Z</time></trkpt><trkpt lat="37.6110217" lon="14.84768"><ele>205.0</ele><time>2026-04-26T12:10:13.198Z</time></trkpt><trkpt lat="37.6108117" lon="14.8478017"><ele>203.0</ele><time>2026-04-26T12:10:14.197Z</time></trkpt><trkpt lat="37.6105967" lon="14.847925"><ele>203.0</ele><time>2026-04-26T12:10:15.197Z</time></trkpt><trkpt lat="37.6103833" lon="14.8480467"><ele>203.0</ele><time>2026-04-26T12:10:16.197Z</time></trkpt><trkpt lat="37.61017" lon="14.8481683"><ele>201.5</ele><time>2026-04-26T12:10:17.198Z</time></trkpt><trkpt lat="37.6099567" lon="14.8482933"><ele>200.0</ele><time>2026-04-26T12:10:18.197Z</time></trkpt><trkpt lat="37.6097467" lon="14.8484167"><ele>199.5</ele><time>2026-04-26T12:10:19.198Z</time></trkpt><trkpt lat="37.6095417" lon="14.848535"><ele>199.0</ele><time>2026-04-26T12:10:20.198Z</time></trkpt><trkpt lat="37.609335" lon="14.8486483"><ele>198.66666666666666</ele><time>2026-04-26T12:10:21.197Z</time></trkpt><trkpt lat="37.6091417" lon="14.8487683"><ele>198.33333333333331</ele><time>2026-04-26T12:10:22.197Z</time></trkpt><trkpt lat="37.6089433" lon="14.8488867"><ele>198.0</ele><time>2026-04-26T12:10:23.198Z</time></trkpt><trkpt lat="37.60874" lon="14.849"><ele>197.66666666666669</ele><time>2026-04-26T12:10:24.198Z</time></trkpt><trkpt lat="37.6085383" lon="14.8491167"><ele>197.33333333333334</ele><time>2026-04-26T12:10:25.197Z</time></trkpt><trkpt lat="37.608335" lon="14.84923"><ele>197.0</ele><time>2026-04-26T12:10:26.197Z</time></trkpt><trkpt lat="37.6081283" lon="14.8493433"><ele>197.0</ele><time>2026-04-26T12:10:27.198Z</time></trkpt><trkpt lat="37.6079267" lon="14.8494567"><ele>197.0</ele><time>2026-04-26T12:10:28.197Z</time></trkpt><trkpt lat="37.6077267" lon="14.8495667"><ele>197.0</ele><time>2026-04-26T12:10:29.198Z</time></trkpt><trkpt lat="37.6075283" lon="14.849675"><ele>196.33333333333334</ele><time>2026-04-26T12:10:30.197Z</time></trkpt><trkpt lat="37.607335" lon="14.84979"><ele>195.66666666666669</ele><time>2026-04-26T12:10:31.198Z</time></trkpt><trkpt lat="37.60714" lon="14.84992"><ele>195.0</ele><time>2026-04-26T12:10:32.197Z</time></trkpt><trkpt lat="37.6069683" lon="14.8500717"><ele>194.33333333333331</ele><time>2026-04-26T12:10:33.198Z</time></trkpt><trkpt lat="37.6068117" lon="14.85025"><ele>193.66666666666666</ele><time>2026-04-26T12:10:34.197Z</time></trkpt><trkpt lat="37.6066533" lon="14.8504417"><ele>193.0</ele><time>2026-04-26T12:10:35.198Z</time></trkpt><trkpt lat="37.6064967" lon="14.8506333"><ele>193.0</ele><time>2026-04-26T12:10:36.197Z</time></trkpt><trkpt lat="37.6063367" lon="14.850825"><ele>193.0</ele><time>2026-04-26T12:10:37.198Z</time></trkpt><trkpt lat="37.6061733" lon="14.8510033"><ele>193.0</ele><time>2026-04-26T12:10:38.197Z</time></trkpt><trkpt lat="37.606" lon="14.8511767"><ele>192.0</ele><time>2026-04-26T12:10:39.197Z</time></trkpt><trkpt lat="37.60582" lon="14.85134"><ele>191.0</ele><time>2026-04-26T12:10:40.197Z</time></trkpt><trkpt lat="37.60563" lon="14.851495"><ele>190.0</ele><time>2026-04-26T12:10:41.197Z</time></trkpt><trkpt lat="37.6054383" lon="14.8516433"><ele>189.66666666666669</ele><time>2026-04-26T12:10:42.198Z</time></trkpt><trkpt lat="37.60525" lon="14.8517933"><ele>189.33333333333334</ele><time>2026-04-26T12:10:43.197Z</time></trkpt><trkpt lat="37.6050633" lon="14.8519383"><ele>189.0</ele><time>2026-04-26T12:10:44.197Z</time></trkpt><trkpt lat="37.6048767" lon="14.8520883"><ele>189.0</ele><time>2026-04-26T12:10:45.198Z</time></trkpt><trkpt lat="37.6046917" lon="14.8522333"><ele>189.0</ele><time>2026-04-26T12:10:46.197Z</time></trkpt><trkpt lat="37.604505" lon="14.8523833"><ele>189.0</ele><time>2026-04-26T12:10:47.197Z</time></trkpt><trkpt lat="37.6043133" lon="14.8525517"><ele>189.0</ele><time>2026-04-26T12:10:48.197Z</time></trkpt><trkpt lat="37.6041183" lon="14.85271"><ele>189.0</ele><time>2026-04-26T12:10:49.197Z</time></trkpt><trkpt lat="37.60393" lon="14.85286"><ele>189.0</ele><time>2026-04-26T12:10:50.197Z</time></trkpt><trkpt lat="37.6037467" lon="14.8529967"><ele>189.0</ele><time>2026-04-26T12:10:51.197Z</time></trkpt><trkpt lat="37.6035683" lon="14.85313"><ele>189.0</ele><time>2026-04-26T12:10:52.198Z</time></trkpt><trkpt lat="37.6033933" lon="14.85326"><ele>189.66666666666666</ele><time>2026-04-26T12:10:53.197Z</time></trkpt><trkpt lat="37.6032233" lon="14.85339"><ele>190.33333333333331</ele><time>2026-04-26T12:10:54.197Z</time></trkpt><trkpt lat="37.60306" lon="14.853515"><ele>191.0</ele><time>2026-04-26T12:10:55.198Z</time></trkpt><trkpt lat="37.6029083" lon="14.8536417"><ele>190.0</ele><time>2026-04-26T12:10:56.197Z</time></trkpt><trkpt lat="37.602755" lon="14.8537567"><ele>189.0</ele><time>2026-04-26T12:10:57.197Z</time></trkpt><trkpt lat="37.6026067" lon="14.8538767"><ele>188.0</ele><time>2026-04-26T12:10:58.197Z</time></trkpt><trkpt lat="37.6024617" lon="14.8540117"><ele>188.0</ele><time>2026-04-26T12:10:59.197Z</time></trkpt><trkpt lat="37.60233" lon="14.85418"><ele>188.0</ele><time>2026-04-26T12:11:00.197Z</time></trkpt><trkpt lat="37.602215" lon="14.8543717"><ele>188.0</ele><time>2026-04-26T12:11:01.198Z</time></trkpt><trkpt lat="37.60212" lon="14.8545733"><ele>188.33333333333331</ele><time>2026-04-26T12:11:02.197Z</time></trkpt><trkpt lat="37.60205" lon="14.8547783"><ele>188.66666666666666</ele><time>2026-04-26T12:11:03.197Z</time></trkpt><trkpt lat="37.6019883" lon="14.8549833"><ele>189.0</ele><time>2026-04-26T12:11:04.198Z</time></trkpt><trkpt lat="37.601905" lon="14.8551617"><ele>187.33333333333334</ele><time>2026-04-26T12:11:05.197Z</time></trkpt><trkpt lat="37.6018067" lon="14.8553367"><ele>185.66666666666669</ele><time>2026-04-26T12:11:06.197Z</time></trkpt><trkpt lat="37.601675" lon="14.8554917"><ele>184.0</ele><time>2026-04-26T12:11:07.197Z</time></trkpt><trkpt lat="37.6015117" lon="14.855625"><ele>184.0</ele><time>2026-04-26T12:11:08.198Z</time></trkpt><trkpt lat="37.60134" lon="14.8557333"><ele>184.0</ele><time>2026-04-26T12:11:09.197Z</time></trkpt><trkpt lat="37.6011767" lon="14.855815"><ele>184.0</ele><time>2026-04-26T12:11:10.197Z</time></trkpt><trkpt lat="37.6010083" lon="14.8559"><ele>183.66666666666669</ele><time>2026-04-26T12:11:11.197Z</time></trkpt><trkpt lat="37.6008367" lon="14.8560033"><ele>183.33333333333334</ele><time>2026-04-26T12:11:12.197Z</time></trkpt><trkpt lat="37.6006733" lon="14.856135"><ele>183.0</ele><time>2026-04-26T12:11:13.197Z</time></trkpt><trkpt lat="37.6005167" lon="14.8562933"><ele>183.0</ele><time>2026-04-26T12:11:14.198Z</time></trkpt><trkpt lat="37.600365" lon="14.8564833"><ele>183.0</ele><time>2026-04-26T12:11:15.197Z</time></trkpt><trkpt lat="37.6002167" lon="14.8566867"><ele>183.0</ele><time>2026-04-26T12:11:16.197Z</time></trkpt><trkpt lat="37.6000717" lon="14.8568833"><ele>184.0</ele><time>2026-04-26T12:11:17.197Z</time></trkpt><trkpt lat="37.59993" lon="14.85708"><ele>185.0</ele><time>2026-04-26T12:11:18.197Z</time></trkpt><trkpt lat="37.599785" lon="14.8572683"><ele>186.0</ele><time>2026-04-26T12:11:19.198Z</time></trkpt><trkpt lat="37.599645" lon="14.85746"><ele>184.66666666666666</ele><time>2026-04-26T12:11:20.197Z</time></trkpt><trkpt lat="37.5994967" lon="14.85764"><ele>183.33333333333331</ele><time>2026-04-26T12:11:21.197Z</time></trkpt><trkpt lat="37.5993533" lon="14.8578233"><ele>182.0</ele><time>2026-04-26T12:11:22.197Z</time></trkpt><trkpt lat="37.5992167" lon="14.858015"><ele>182.0</ele><time>2026-04-26T12:11:23.197Z</time></trkpt><trkpt lat="37.5990883" lon="14.85822"><ele>182.0</ele><time>2026-04-26T12:11:24.198Z</time></trkpt><trkpt lat="37.5989683" lon="14.8584267"><ele>182.0</ele><time>2026-04-26T12:11:25.197Z</time></trkpt><trkpt lat="37.598855" lon="14.8586433"><ele>182.0</ele><time>2026-04-26T12:11:26.197Z</time></trkpt><trkpt lat="37.5987517" lon="14.8588733"><ele>182.0</ele><time>2026-04-26T12:11:27.197Z</time></trkpt><trkpt lat="37.5986583" lon="14.8591033"><ele>182.0</ele><time>2026-04-26T12:11:28.197Z</time></trkpt><trkpt lat="37.5985617" lon="14.859335"><ele>182.0</ele><time>2026-04-26T12:11:29.197Z</time></trkpt><trkpt lat="37.5984733" lon="14.8595633"><ele>182.0</ele><time>2026-04-26T12:11:30.197Z</time></trkpt><trkpt lat="37.5983867" lon="14.8597867"><ele>182.0</ele><time>2026-04-26T12:11:31.197Z</time></trkpt><trkpt lat="37.5982933" lon="14.8600083"><ele>182.66666666666666</ele><time>2026-04-26T12:11:32.197Z</time></trkpt><trkpt lat="37.598195" lon="14.860225"><ele>183.33333333333334</ele><time>2026-04-26T12:11:33.197Z</time></trkpt><trkpt lat="37.5980767" lon="14.86044"><ele>184.0</ele><time>2026-04-26T12:11:34.197Z</time></trkpt><trkpt lat="37.597945" lon="14.86064"><ele>184.0</ele><time>2026-04-26T12:11:35.197Z</time></trkpt><trkpt lat="37.5977983" lon="14.86083"><ele>184.0</ele><time>2026-04-26T12:11:36.197Z</time></trkpt><trkpt lat="37.59764" lon="14.8610233"><ele>184.0</ele><time>2026-04-26T12:11:37.197Z</time></trkpt><trkpt lat="37.5974983" lon="14.8612233"><ele>184.0</ele><time>2026-04-26T12:11:38.197Z</time></trkpt><trkpt lat="37.5973583" lon="14.8614433"><ele>184.0</ele><time>2026-04-26T12:11:39.197Z</time></trkpt><trkpt lat="37.5972333" lon="14.8616717"><ele>184.0</ele><time>2026-04-26T12:11:40.197Z</time></trkpt><trkpt lat="37.5971183" lon="14.86191"><ele>184.33333333333334</ele><time>2026-04-26T12:11:41.198Z</time></trkpt><trkpt lat="37.597015" lon="14.8621617"><ele>184.66666666666666</ele><time>2026-04-26T12:11:42.197Z</time></trkpt><trkpt lat="37.5969233" lon="14.8624133"><ele>185.0</ele><time>2026-04-26T12:11:43.197Z</time></trkpt><trkpt lat="37.5968267" lon="14.8626633"><ele>185.66666666666666</ele><time>2026-04-26T12:11:44.197Z</time></trkpt><trkpt lat="37.596725" lon="14.8629117"><ele>186.33333333333334</ele><time>2026-04-26T12:11:45.197Z</time></trkpt><trkpt lat="37.5966283" lon="14.8631567"><ele>187.0</ele><time>2026-04-26T12:11:46.197Z</time></trkpt><trkpt lat="37.5965367" lon="14.8633917"><ele>190.0</ele><time>2026-04-26T12:11:47.197Z</time></trkpt><trkpt lat="37.5964333" lon="14.8636167"><ele>193.0</ele><time>2026-04-26T12:11:48.198Z</time></trkpt><trkpt lat="37.5963283" lon="14.86383"><ele>196.0</ele><time>2026-04-26T12:11:49.197Z</time></trkpt><trkpt lat="37.59623" lon="14.8640533"><ele>192.33333333333331</ele><time>2026-04-26T12:11:50.197Z</time></trkpt><trkpt lat="37.5961533" lon="14.8642783"><ele>188.66666666666666</ele><time>2026-04-26T12:11:51.197Z</time></trkpt><trkpt lat="37.5961117" lon="14.8645167"><ele>185.0</ele><time>2026-04-26T12:11:52.197Z</time></trkpt><trkpt lat="37.596095" lon="14.8647617"><ele>185.0</ele><time>2026-04-26T12:11:53.197Z</time></trkpt><trkpt lat="37.596075" lon="14.8649983"><ele>185.0</ele><time>2026-04-26T12:11:54.197Z</time></trkpt><trkpt lat="37.5960517" lon="14.8652267"><ele>185.0</ele><time>2026-04-26T12:11:55.197Z</time></trkpt><trkpt lat="37.5960117" lon="14.865455"><ele>184.66666666666666</ele><time>2026-04-26T12:11:56.197Z</time></trkpt><trkpt lat="37.5959583" lon="14.86569"><ele>184.33333333333334</ele><time>2026-04-26T12:11:57.198Z</time></trkpt><trkpt lat="37.5959083" lon="14.8659333"><ele>184.0</ele><time>2026-04-26T12:11:58.197Z</time></trkpt><trkpt lat="37.59588" lon="14.8661833"><ele>184.0</ele><time>2026-04-26T12:11:59.197Z</time></trkpt><trkpt lat="37.5958633" lon="14.8664367"><ele>184.0</ele><time>2026-04-26T12:12:00.197Z</time></trkpt><trkpt lat="37.5958617" lon="14.8666933"><ele>184.0</ele><time>2026-04-26T12:12:01.197Z</time></trkpt><trkpt lat="37.5958617" lon="14.8669467"><ele>184.0</ele><time>2026-04-26T12:12:02.197Z</time></trkpt><trkpt lat="37.59586" lon="14.8672033"><ele>184.0</ele><time>2026-04-26T12:12:03.197Z</time></trkpt><trkpt lat="37.5958617" lon="14.8674517"><ele>184.0</ele><time>2026-04-26T12:12:04.197Z</time></trkpt><trkpt lat="37.5958633" lon="14.8676833"><ele>183.33333333333334</ele><time>2026-04-26T12:12:05.197Z</time></trkpt><trkpt lat="37.595865" lon="14.8679167"><ele>182.66666666666666</ele><time>2026-04-26T12:12:06.197Z</time></trkpt><trkpt lat="37.5958717" lon="14.868145"><ele>182.0</ele><time>2026-04-26T12:12:07.197Z</time></trkpt><trkpt lat="37.5958783" lon="14.86837"><ele>181.0</ele><time>2026-04-26T12:12:08.198Z</time></trkpt><trkpt lat="37.59588" lon="14.86859"><ele>180.0</ele><time>2026-04-26T12:12:09.198Z</time></trkpt><trkpt lat="37.595875" lon="14.868805"><ele>179.0</ele><time>2026-04-26T12:12:10.198Z</time></trkpt><trkpt lat="37.5958633" lon="14.8690167"><ele>179.0</ele><time>2026-04-26T12:12:11.198Z</time></trkpt><trkpt lat="37.5958333" lon="14.8692283"><ele>179.0</ele><time>2026-04-26T12:12:12.197Z</time></trkpt><trkpt lat="37.59579" lon="14.8694433"><ele>179.0</ele><time>2026-04-26T12:12:13.197Z</time></trkpt><trkpt lat="37.595715" lon="14.8696433"><ele>178.66666666666666</ele><time>2026-04-26T12:12:14.197Z</time></trkpt><trkpt lat="37.59562" lon="14.869825"><ele>178.33333333333334</ele><time>2026-04-26T12:12:15.197Z</time></trkpt><trkpt lat="37.59551" lon="14.869995"><ele>178.0</ele><time>2026-04-26T12:12:16.197Z</time></trkpt><trkpt lat="37.5953783" lon="14.8701383"><ele>177.33333333333334</ele><time>2026-04-26T12:12:17.197Z</time></trkpt><trkpt lat="37.5952333" lon="14.8702717"><ele>176.66666666666666</ele><time>2026-04-26T12:12:18.197Z</time></trkpt><trkpt lat="37.5950933" lon="14.8704133"><ele>176.0</ele><time>2026-04-26T12:12:19.197Z</time></trkpt><trkpt lat="37.5949517" lon="14.8705633"><ele>176.0</ele><time>2026-04-26T12:12:20.197Z</time></trkpt><trkpt lat="37.594815" lon="14.87072"><ele>176.0</ele><time>2026-04-26T12:12:21.197Z</time></trkpt><trkpt lat="37.5946767" lon="14.8708733"><ele>176.0</ele><time>2026-04-26T12:12:22.197Z</time></trkpt><trkpt lat="37.5945383" lon="14.87103"><ele>176.0</ele><time>2026-04-26T12:12:23.197Z</time></trkpt><trkpt lat="37.594405" lon="14.8712017"><ele>176.0</ele><time>2026-04-26T12:12:24.197Z</time></trkpt><trkpt lat="37.5942883" lon="14.8713833"><ele>176.0</ele><time>2026-04-26T12:12:25.198Z</time></trkpt><trkpt lat="37.594175" lon="14.871575"><ele>176.0</ele><time>2026-04-26T12:12:26.197Z</time></trkpt><trkpt lat="37.594065" lon="14.8717733"><ele>176.0</ele><time>2026-04-26T12:12:27.197Z</time></trkpt><trkpt lat="37.5939517" lon="14.8719733"><ele>176.0</ele><time>2026-04-26T12:12:28.197Z</time></trkpt><trkpt lat="37.593825" lon="14.8721867"><ele>177.33333333333331</ele><time>2026-04-26T12:12:29.197Z</time></trkpt><trkpt lat="37.5936833" lon="14.8723983"><ele>178.66666666666666</ele><time>2026-04-26T12:12:30.197Z</time></trkpt><trkpt lat="37.59355" lon="14.8726033"><ele>180.0</ele><time>2026-04-26T12:12:31.198Z</time></trkpt><trkpt lat="37.5934117" lon="14.8728067"><ele>180.66666666666666</ele><time>2026-04-26T12:12:32.198Z</time></trkpt><trkpt lat="37.593275" lon="14.873015"><ele>181.33333333333331</ele><time>2026-04-26T12:12:33.197Z</time></trkpt><trkpt lat="37.5931567" lon="14.8732183"><ele>182.0</ele><time>2026-04-26T12:12:34.197Z</time></trkpt><trkpt lat="37.5930233" lon="14.873425"><ele>183.0</ele><time>2026-04-26T12:12:35.198Z</time></trkpt><trkpt lat="37.592895" lon="14.873615"><ele>184.0</ele><time>2026-04-26T12:12:36.197Z</time></trkpt><trkpt lat="37.5927717" lon="14.873805"><ele>185.0</ele><time>2026-04-26T12:12:37.197Z</time></trkpt><trkpt lat="37.592655" lon="14.87399"><ele>185.0</ele><time>2026-04-26T12:12:38.197Z</time></trkpt><trkpt lat="37.5925333" lon="14.8741817"><ele>185.0</ele><time>2026-04-26T12:12:39.197Z</time></trkpt><trkpt lat="37.5924133" lon="14.87438"><ele>185.0</ele><time>2026-04-26T12:12:40.197Z</time></trkpt><trkpt lat="37.5922867" lon="14.8745633"><ele>185.0</ele><time>2026-04-26T12:12:41.197Z</time></trkpt><trkpt lat="37.5921517" lon="14.8747417"><ele>185.0</ele><time>2026-04-26T12:12:42.197Z</time></trkpt><trkpt lat="37.592005" lon="14.8749133"><ele>185.0</ele><time>2026-04-26T12:12:43.197Z</time></trkpt><trkpt lat="37.5918533" lon="14.875075"><ele>185.66666666666666</ele><time>2026-04-26T12:12:44.197Z</time></trkpt><trkpt lat="37.591695" lon="14.875245"><ele>186.33333333333334</ele><time>2026-04-26T12:12:45.197Z</time></trkpt><trkpt lat="37.5915383" lon="14.8754233"><ele>187.0</ele><time>2026-04-26T12:12:46.197Z</time></trkpt><trkpt lat="37.5913917" lon="14.8755917"><ele>187.0</ele><time>2026-04-26T12:12:47.197Z</time></trkpt><trkpt lat="37.5912317" lon="14.8757583"><ele>187.0</ele><time>2026-04-26T12:12:48.197Z</time></trkpt><trkpt lat="37.5910717" lon="14.8759267"><ele>187.0</ele><time>2026-04-26T12:12:49.197Z</time></trkpt><trkpt lat="37.59091" lon="14.876095"><ele>187.0</ele><time>2026-04-26T12:12:50.197Z</time></trkpt><trkpt lat="37.5907467" lon="14.8762633"><ele>187.0</ele><time>2026-04-26T12:12:51.197Z</time></trkpt><trkpt lat="37.590585" lon="14.8764317"><ele>187.0</ele><time>2026-04-26T12:12:52.197Z</time></trkpt><trkpt lat="37.5904317" lon="14.876605"><ele>186.66666666666669</ele><time>2026-04-26T12:12:53.197Z</time></trkpt><trkpt lat="37.5903" lon="14.8767933"><ele>186.33333333333334</ele><time>2026-04-26T12:12:54.197Z</time></trkpt><trkpt lat="37.59019" lon="14.8769817"><ele>186.0</ele><time>2026-04-26T12:12:55.197Z</time></trkpt><trkpt lat="37.5900917" lon="14.87717"><ele>186.0</ele><time>2026-04-26T12:12:56.197Z</time></trkpt><trkpt lat="37.590005" lon="14.8773617"><ele>186.0</ele><time>2026-04-26T12:12:57.197Z</time></trkpt><trkpt lat="37.589915" lon="14.8775617"><ele>186.0</ele><time>2026-04-26T12:12:58.197Z</time></trkpt><trkpt lat="37.5898367" lon="14.8777517"><ele>186.0</ele><time>2026-04-26T12:12:59.197Z</time></trkpt><trkpt lat="37.5897667" lon="14.8779283"><ele>186.0</ele><time>2026-04-26T12:13:00.197Z</time></trkpt><trkpt lat="37.5896933" lon="14.8780883"><ele>186.0</ele><time>2026-04-26T12:13:01.197Z</time></trkpt><trkpt lat="37.5896233" lon="14.8782483"><ele>186.0</ele><time>2026-04-26T12:13:02.197Z</time></trkpt><trkpt lat="37.5895533" lon="14.8784033"><ele>186.75</ele><time>2026-04-26T12:13:03.197Z</time></trkpt><trkpt lat="37.5894883" lon="14.8785567"><ele>187.5</ele><time>2026-04-26T12:13:04.197Z</time></trkpt><trkpt lat="37.5894217" lon="14.8787"><ele>188.25</ele><time>2026-04-26T12:13:05.197Z</time></trkpt><trkpt lat="37.5893617" lon="14.8788467"><ele>189.0</ele><time>2026-04-26T12:13:06.197Z</time></trkpt><trkpt lat="37.5893017" lon="14.8789833"><ele>189.0</ele><time>2026-04-26T12:13:07.198Z</time></trkpt><trkpt lat="37.5892417" lon="14.87912"><ele>189.0</ele><time>2026-04-26T12:13:08.197Z</time></trkpt><trkpt lat="37.5891833" lon="14.879245"><ele>189.0</ele><time>2026-04-26T12:13:09.197Z</time></trkpt><trkpt lat="37.5891233" lon="14.8793667"><ele>189.0</ele><time>2026-04-26T12:13:10.197Z</time></trkpt><trkpt lat="37.5890667" lon="14.8794983"><ele>189.5</ele><time>2026-04-26T12:13:11.197Z</time></trkpt><trkpt lat="37.589015" lon="14.8796283"><ele>190.0</ele><time>2026-04-26T12:13:12.197Z</time></trkpt><trkpt lat="37.5889617" lon="14.879765"><ele>190.5</ele><time>2026-04-26T12:13:13.198Z</time></trkpt><trkpt lat="37.5889067" lon="14.8798933"><ele>191.0</ele><time>2026-04-26T12:13:14.197Z</time></trkpt><trkpt lat="37.58885" lon="14.8800317"><ele>191.75</ele><time>2026-04-26T12:13:15.197Z</time></trkpt><trkpt lat="37.58879" lon="14.88017"><ele>192.5</ele><time>2026-04-26T12:13:16.198Z</time></trkpt><trkpt lat="37.5887367" lon="14.8803033"><ele>193.25</ele><time>2026-04-26T12:13:17.197Z</time></trkpt><trkpt lat="37.58868" lon="14.8804367"><ele>194.0</ele><time>2026-04-26T12:13:18.197Z</time></trkpt><trkpt lat="37.5886183" lon="14.8805733"><ele>194.0</ele><time>2026-04-26T12:13:19.197Z</time></trkpt><trkpt lat="37.5885567" lon="14.8807217"><ele>194.0</ele><time>2026-04-26T12:13:20.198Z</time></trkpt><trkpt lat="37.58849" lon="14.8808817"><ele>194.0</ele><time>2026-04-26T12:13:21.198Z</time></trkpt><trkpt lat="37.5884267" lon="14.88105"><ele>194.0</ele><time>2026-04-26T12:13:22.197Z</time></trkpt><trkpt lat="37.5883517" lon="14.8812267"><ele>196.33333333333334</ele><time>2026-04-26T12:13:23.197Z</time></trkpt><trkpt lat="37.5882617" lon="14.8814"><ele>198.66666666666669</ele><time>2026-04-26T12:13:24.197Z</time></trkpt><trkpt lat="37.5881633" lon="14.88157"><ele>201.0</ele><time>2026-04-26T12:13:25.197Z</time></trkpt><trkpt lat="37.588045" lon="14.8817367"><ele>203.33333333333331</ele><time>2026-04-26T12:13:26.197Z</time></trkpt><trkpt lat="37.587915" lon="14.8818967"><ele>205.66666666666666</ele><time>2026-04-26T12:13:27.197Z</time></trkpt><trkpt lat="37.5877717" lon="14.8820433"><ele>208.0</ele><time>2026-04-26T12:13:28.197Z</time></trkpt><trkpt lat="37.5876167" lon="14.8821717"><ele>208.66666666666666</ele><time>2026-04-26T12:13:29.197Z</time></trkpt><trkpt lat="37.58745" lon="14.8822883"><ele>209.33333333333331</ele><time>2026-04-26T12:13:30.197Z</time></trkpt><trkpt lat="37.5872783" lon="14.882395"><ele>210.0</ele><time>2026-04-26T12:13:31.197Z</time></trkpt><trkpt lat="37.5871067" lon="14.882505"><ele>209.66666666666669</ele><time>2026-04-26T12:13:32.197Z</time></trkpt><trkpt lat="37.586935" lon="14.8826117"><ele>209.33333333333334</ele><time>2026-04-26T12:13:33.197Z</time></trkpt><trkpt lat="37.5867617" lon="14.8827317"><ele>209.0</ele><time>2026-04-26T12:13:34.197Z</time></trkpt><trkpt lat="37.5866" lon="14.8828683"><ele>209.0</ele><time>2026-04-26T12:13:35.197Z</time></trkpt><trkpt lat="37.5864333" lon="14.8830333"><ele>209.0</ele><time>2026-04-26T12:13:36.197Z</time></trkpt><trkpt lat="37.5862633" lon="14.8832483"><ele>208.5</ele><time>2026-04-26T12:13:37.198Z</time></trkpt><trkpt lat="37.586105" lon="14.8834733"><ele>208.0</ele><time>2026-04-26T12:13:38.197Z</time></trkpt><trkpt lat="37.5859583" lon="14.883675"><ele>208.0</ele><time>2026-04-26T12:13:39.198Z</time></trkpt><trkpt lat="37.58582" lon="14.88386"><ele>208.0</ele><time>2026-04-26T12:13:40.197Z</time></trkpt><trkpt lat="37.5856867" lon="14.88404"><ele>208.0</ele><time>2026-04-26T12:13:41.198Z</time></trkpt><trkpt lat="37.585545" lon="14.8842133"><ele>208.33333333333331</ele><time>2026-04-26T12:13:42.198Z</time></trkpt><trkpt lat="37.5853917" lon="14.8843633"><ele>208.66666666666669</ele><time>2026-04-26T12:13:43.197Z</time></trkpt><trkpt lat="37.5852317" lon="14.8844983"><ele>209.0</ele><time>2026-04-26T12:13:44.197Z</time></trkpt><trkpt lat="37.5850583" lon="14.8846167"><ele>209.0</ele><time>2026-04-26T12:13:45.197Z</time></trkpt><trkpt lat="37.5848717" lon="14.8847233"><ele>209.0</ele><time>2026-04-26T12:13:46.197Z</time></trkpt><trkpt lat="37.584685" lon="14.8848133"><ele>209.0</ele><time>2026-04-26T12:13:47.198Z</time></trkpt><trkpt lat="37.5844967" lon="14.88488"><ele>206.66666666666669</ele><time>2026-04-26T12:13:48.197Z</time></trkpt><trkpt lat="37.58431" lon="14.8849517"><ele>204.33333333333331</ele><time>2026-04-26T12:13:49.197Z</time></trkpt><trkpt lat="37.5841317" lon="14.885025"><ele>202.0</ele><time>2026-04-26T12:13:50.197Z</time></trkpt><trkpt lat="37.5839567" lon="14.88513"><ele>201.0</ele><time>2026-04-26T12:13:51.197Z</time></trkpt><trkpt lat="37.5837983" lon="14.8852517"><ele>200.0</ele><time>2026-04-26T12:13:52.197Z</time></trkpt><trkpt lat="37.5836517" lon="14.8854117"><ele>199.0</ele><time>2026-04-26T12:13:53.198Z</time></trkpt><trkpt lat="37.5835083" lon="14.8855883"><ele>199.0</ele><time>2026-04-26T12:13:54.197Z</time></trkpt><trkpt lat="37.5833683" lon="14.8857567"><ele>199.0</ele><time>2026-04-26T12:13:55.197Z</time></trkpt><trkpt lat="37.5832433" lon="14.885925"><ele>199.0</ele><time>2026-04-26T12:13:56.197Z</time></trkpt><trkpt lat="37.583135" lon="14.88611"><ele>199.33333333333331</ele><time>2026-04-26T12:13:57.197Z</time></trkpt><trkpt lat="37.5830583" lon="14.8863033"><ele>199.66666666666669</ele><time>2026-04-26T12:13:58.197Z</time></trkpt><trkpt lat="37.58301" lon="14.886505"><ele>200.0</ele><time>2026-04-26T12:13:59.197Z</time></trkpt><trkpt lat="37.583005" lon="14.8867233"><ele>201.33333333333334</ele><time>2026-04-26T12:14:00.198Z</time></trkpt><trkpt lat="37.583035" lon="14.88697"><ele>202.66666666666669</ele><time>2026-04-26T12:14:01.197Z</time></trkpt><trkpt lat="37.5830617" lon="14.887225"><ele>204.0</ele><time>2026-04-26T12:14:02.197Z</time></trkpt><trkpt lat="37.5830767" lon="14.8874883"><ele>204.0</ele><time>2026-04-26T12:14:03.197Z</time></trkpt><trkpt lat="37.583075" lon="14.8877583"><ele>204.0</ele><time>2026-04-26T12:14:04.197Z</time></trkpt><trkpt lat="37.5830717" lon="14.8880283"><ele>204.0</ele><time>2026-04-26T12:14:05.197Z</time></trkpt><trkpt lat="37.5830733" lon="14.8882933"><ele>205.66666666666669</ele><time>2026-04-26T12:14:06.197Z</time></trkpt><trkpt lat="37.5830717" lon="14.888545"><ele>207.33333333333334</ele><time>2026-04-26T12:14:07.197Z</time></trkpt><trkpt lat="37.5830683" lon="14.8887917"><ele>209.0</ele><time>2026-04-26T12:14:08.197Z</time></trkpt><trkpt lat="37.583065" lon="14.8890183"><ele>209.0</ele><time>2026-04-26T12:14:09.197Z</time></trkpt><trkpt lat="37.583045" lon="14.8892367"><ele>209.0</ele><time>2026-04-26T12:14:10.197Z</time></trkpt><trkpt lat="37.5830183" lon="14.8894433"><ele>209.0</ele><time>2026-04-26T12:14:11.197Z</time></trkpt><trkpt lat="37.5829617" lon="14.8896567"><ele>211.0</ele><time>2026-04-26T12:14:12.198Z</time></trkpt><trkpt lat="37.5828733" lon="14.88987"><ele>213.0</ele><time>2026-04-26T12:14:13.197Z</time></trkpt><trkpt lat="37.5827717" lon="14.8900583"><ele>215.0</ele><time>2026-04-26T12:14:14.197Z</time></trkpt><trkpt lat="37.5826517" lon="14.89024"><ele>217.66666666666669</ele><time>2026-04-26T12:14:15.197Z</time></trkpt><trkpt lat="37.5825233" lon="14.8903967"><ele>220.33333333333331</ele><time>2026-04-26T12:14:16.197Z</time></trkpt><trkpt lat="37.5823617" lon="14.8905233"><ele>223.0</ele><time>2026-04-26T12:14:17.197Z</time></trkpt><trkpt lat="37.58219" lon="14.890635"><ele>223.0</ele><time>2026-04-26T12:14:18.197Z</time></trkpt><trkpt lat="37.5819967" lon="14.8907217"><ele>223.0</ele><time>2026-04-26T12:14:19.197Z</time></trkpt><trkpt lat="37.5817933" lon="14.8908083"><ele>223.0</ele><time>2026-04-26T12:14:20.197Z</time></trkpt><trkpt lat="37.5815933" lon="14.8909067"><ele>225.0</ele><time>2026-04-26T12:14:21.197Z</time></trkpt><trkpt lat="37.581385" lon="14.89101"><ele>227.0</ele><time>2026-04-26T12:14:22.197Z</time></trkpt><trkpt lat="37.58118" lon="14.8911033"><ele>229.0</ele><time>2026-04-26T12:14:23.197Z</time></trkpt><trkpt lat="37.5809767" lon="14.8912083"><ele>229.0</ele><time>2026-04-26T12:14:24.197Z</time></trkpt><trkpt lat="37.5807683" lon="14.89131"><ele>229.0</ele><time>2026-04-26T12:14:25.197Z</time></trkpt><trkpt lat="37.5805683" lon="14.89141"><ele>229.0</ele><time>2026-04-26T12:14:26.198Z</time></trkpt><trkpt lat="37.58037" lon="14.891505"><ele>228.33333333333331</ele><time>2026-04-26T12:14:27.197Z</time></trkpt><trkpt lat="37.5801767" lon="14.8916017"><ele>227.66666666666669</ele><time>2026-04-26T12:14:28.198Z</time></trkpt><trkpt lat="37.5799867" lon="14.8916967"><ele>227.0</ele><time>2026-04-26T12:14:29.197Z</time></trkpt><trkpt lat="37.5797983" lon="14.8917983"><ele>227.0</ele><time>2026-04-26T12:14:30.197Z</time></trkpt><trkpt lat="37.5796133" lon="14.891895"><ele>227.0</ele><time>2026-04-26T12:14:31.197Z</time></trkpt><trkpt lat="37.57943" lon="14.8919917"><ele>227.0</ele><time>2026-04-26T12:14:32.197Z</time></trkpt><trkpt lat="37.5792517" lon="14.8920783"><ele>224.66666666666669</ele><time>2026-04-26T12:14:33.197Z</time></trkpt><trkpt lat="37.57908" lon="14.89216"><ele>222.33333333333331</ele><time>2026-04-26T12:14:34.197Z</time></trkpt><trkpt lat="37.5789167" lon="14.8922367"><ele>220.0</ele><time>2026-04-26T12:14:35.197Z</time></trkpt><trkpt lat="37.5787617" lon="14.892325"><ele>220.66666666666666</ele><time>2026-04-26T12:14:36.197Z</time></trkpt><trkpt lat="37.5786167" lon="14.8924367"><ele>221.33333333333331</ele><time>2026-04-26T12:14:37.197Z</time></trkpt><trkpt lat="37.5784783" lon="14.89257"><ele>222.0</ele><time>2026-04-26T12:14:38.197Z</time></trkpt><trkpt lat="37.5783533" lon="14.892735"><ele>222.0</ele><time>2026-04-26T12:14:39.197Z</time></trkpt><trkpt lat="37.5782467" lon="14.8929233"><ele>222.0</ele><time>2026-04-26T12:14:40.197Z</time></trkpt><trkpt lat="37.5781683" lon="14.8931267"><ele>222.0</ele><time>2026-04-26T12:14:41.197Z</time></trkpt><trkpt lat="37.5781117" lon="14.8933417"><ele>221.66666666666669</ele><time>2026-04-26T12:14:42.197Z</time></trkpt><trkpt lat="37.5780833" lon="14.89357"><ele>221.33333333333334</ele><time>2026-04-26T12:14:43.197Z</time></trkpt><trkpt lat="37.5780633" lon="14.8938017"><ele>221.0</ele><time>2026-04-26T12:14:44.197Z</time></trkpt><trkpt lat="37.57804" lon="14.8940217"><ele>221.0</ele><time>2026-04-26T12:14:45.198Z</time></trkpt><trkpt lat="37.5780167" lon="14.89423"><ele>221.0</ele><time>2026-04-26T12:14:46.197Z</time></trkpt><trkpt lat="37.57796" lon="14.894425"><ele>221.0</ele><time>2026-04-26T12:14:47.197Z</time></trkpt><trkpt lat="37.5778683" lon="14.8946067"><ele>220.66666666666669</ele><time>2026-04-26T12:14:48.196Z</time></trkpt><trkpt lat="37.577755" lon="14.8947717"><ele>220.33333333333331</ele><time>2026-04-26T12:14:49.197Z</time></trkpt><trkpt lat="37.5776433" lon="14.89494"><ele>220.0</ele><time>2026-04-26T12:14:50.198Z</time></trkpt><trkpt lat="37.5775367" lon="14.895095"><ele>220.0</ele><time>2026-04-26T12:14:51.197Z</time></trkpt><trkpt lat="37.57743" lon="14.8952567"><ele>220.0</ele><time>2026-04-26T12:14:52.198Z</time></trkpt><trkpt lat="37.5773217" lon="14.8954183"><ele>220.0</ele><time>2026-04-26T12:14:53.197Z</time></trkpt><trkpt lat="37.5772133" lon="14.8955733"><ele>220.0</ele><time>2026-04-26T12:14:54.197Z</time></trkpt><trkpt lat="37.577085" lon="14.8957133"><ele>220.0</ele><time>2026-04-26T12:14:55.198Z</time></trkpt><trkpt lat="37.576945" lon="14.8958433"><ele>220.0</ele><time>2026-04-26T12:14:56.197Z</time></trkpt><trkpt lat="37.5767933" lon="14.8959467"><ele>220.33333333333331</ele><time>2026-04-26T12:14:57.198Z</time></trkpt><trkpt lat="37.57664" lon="14.8960467"><ele>220.66666666666669</ele><time>2026-04-26T12:14:58.197Z</time></trkpt><trkpt lat="37.5764883" lon="14.896135"><ele>221.0</ele><time>2026-04-26T12:14:59.197Z</time></trkpt><trkpt lat="37.576335" lon="14.8962"><ele>221.66666666666669</ele><time>2026-04-26T12:15:00.197Z</time></trkpt><trkpt lat="37.5761817" lon="14.8962417"><ele>222.33333333333331</ele><time>2026-04-26T12:15:01.197Z</time></trkpt><trkpt lat="37.5760283" lon="14.89626"><ele>223.0</ele><time>2026-04-26T12:15:02.197Z</time></trkpt><trkpt lat="37.5758883" lon="14.89626"><ele>223.0</ele><time>2026-04-26T12:15:03.197Z</time></trkpt><trkpt lat="37.5757583" lon="14.8962317"><ele>223.0</ele><time>2026-04-26T12:15:04.197Z</time></trkpt><trkpt lat="37.5756417" lon="14.896205"><ele>223.0</ele><time>2026-04-26T12:15:05.198Z</time></trkpt><trkpt lat="37.575545" lon="14.896185"><ele>223.0</ele><time>2026-04-26T12:15:06.197Z</time></trkpt><trkpt lat="37.57546" lon="14.8961683"><ele>223.0</ele><time>2026-04-26T12:15:07.197Z</time></trkpt><trkpt lat="37.5753933" lon="14.89616"><ele>223.0</ele><time>2026-04-26T12:15:08.197Z</time></trkpt><trkpt lat="37.5753283" lon="14.89615"><ele>223.0</ele><time>2026-04-26T12:15:09.197Z</time></trkpt><trkpt lat="37.57526" lon="14.8961317"><ele>223.0</ele><time>2026-04-26T12:15:10.197Z</time></trkpt><trkpt lat="37.5751917" lon="14.8961133"><ele>223.0</ele><time>2026-04-26T12:15:11.197Z</time></trkpt><trkpt lat="37.5751167" lon="14.8961033"><ele>223.0</ele><time>2026-04-26T12:15:12.197Z</time></trkpt><trkpt lat="37.5750483" lon="14.896105"><ele>223.0</ele><time>2026-04-26T12:15:13.197Z</time></trkpt><trkpt lat="37.57498" lon="14.8961317"><ele>223.0</ele><time>2026-04-26T12:15:14.198Z</time></trkpt><trkpt lat="37.5748783" lon="14.8962633"><ele>223.0</ele><time>2026-04-26T12:15:16.197Z</time></trkpt><trkpt lat="37.574845" lon="14.896375"><ele>223.0</ele><time>2026-04-26T12:15:17.197Z</time></trkpt><trkpt lat="37.5748217" lon="14.8965017"><ele>223.0</ele><time>2026-04-26T12:15:18.197Z</time></trkpt><trkpt lat="37.5747933" lon="14.8966333"><ele>223.0</ele><time>2026-04-26T12:15:19.197Z</time></trkpt><trkpt lat="37.5747633" lon="14.896765"><ele>223.0</ele><time>2026-04-26T12:15:20.197Z</time></trkpt><trkpt lat="37.5747183" lon="14.8969083"><ele>222.66666666666666</ele><time>2026-04-26T12:15:21.197Z</time></trkpt><trkpt lat="37.574655" lon="14.897075"><ele>222.33333333333331</ele><time>2026-04-26T12:15:22.198Z</time></trkpt><trkpt lat="37.5745783" lon="14.8972633"><ele>222.0</ele><time>2026-04-26T12:15:23.197Z</time></trkpt><trkpt lat="37.5745" lon="14.89747"><ele>223.0</ele><time>2026-04-26T12:15:24.197Z</time></trkpt><trkpt lat="37.5744283" lon="14.89769"><ele>224.0</ele><time>2026-04-26T12:15:25.197Z</time></trkpt><trkpt lat="37.5743583" lon="14.89791"><ele>225.0</ele><time>2026-04-26T12:15:26.197Z</time></trkpt><trkpt lat="37.574285" lon="14.8981267"><ele>225.0</ele><time>2026-04-26T12:15:27.198Z</time></trkpt><trkpt lat="37.5742017" lon="14.8983483"><ele>225.0</ele><time>2026-04-26T12:15:28.197Z</time></trkpt><trkpt lat="37.5741233" lon="14.8985667"><ele>225.0</ele><time>2026-04-26T12:15:29.196Z</time></trkpt><trkpt lat="37.5740433" lon="14.8987933"><ele>226.0</ele><time>2026-04-26T12:15:30.196Z</time></trkpt><trkpt lat="37.573965" lon="14.89902"><ele>227.0</ele><time>2026-04-26T12:15:31.197Z</time></trkpt><trkpt lat="37.57388" lon="14.89925"><ele>228.0</ele><time>2026-04-26T12:15:32.196Z</time></trkpt><trkpt lat="37.5738033" lon="14.8994783"><ele>229.66666666666669</ele><time>2026-04-26T12:15:33.196Z</time></trkpt><trkpt lat="37.5737317" lon="14.8996983"><ele>231.33333333333334</ele><time>2026-04-26T12:15:34.197Z</time></trkpt><trkpt lat="37.5736633" lon="14.8999133"><ele>233.0</ele><time>2026-04-26T12:15:35.196Z</time></trkpt><trkpt lat="37.5735817" lon="14.900125"><ele>234.33333333333334</ele><time>2026-04-26T12:15:36.197Z</time></trkpt><trkpt lat="37.5735033" lon="14.90034"><ele>235.66666666666669</ele><time>2026-04-26T12:15:37.196Z</time></trkpt><trkpt lat="37.57343" lon="14.9005467"><ele>237.0</ele><time>2026-04-26T12:15:38.196Z</time></trkpt><trkpt lat="37.5733617" lon="14.9007517"><ele>238.25</ele><time>2026-04-26T12:15:39.196Z</time></trkpt><trkpt lat="37.5733133" lon="14.9009417"><ele>239.5</ele><time>2026-04-26T12:15:40.196Z</time></trkpt><trkpt lat="37.57328" lon="14.901125"><ele>240.75</ele><time>2026-04-26T12:15:41.197Z</time></trkpt><trkpt lat="37.57325" lon="14.9012883"><ele>242.0</ele><time>2026-04-26T12:15:42.196Z</time></trkpt><trkpt lat="37.5732217" lon="14.90143"><ele>242.00000000000003</ele><time>2026-04-26T12:15:43.196Z</time></trkpt><trkpt lat="37.5732" lon="14.9015533"><ele>242.0</ele><time>2026-04-26T12:15:44.196Z</time></trkpt><trkpt lat="37.573175" lon="14.9016533"><ele>242.0</ele><time>2026-04-26T12:15:45.196Z</time></trkpt><trkpt lat="37.573145" lon="14.9017433"><ele>242.0</ele><time>2026-04-26T12:15:46.196Z</time></trkpt><trkpt lat="37.5731083" lon="14.9018433"><ele>242.00000000000003</ele><time>2026-04-26T12:15:47.196Z</time></trkpt><trkpt lat="37.573085" lon="14.9019533"><ele>242.0</ele><time>2026-04-26T12:15:48.196Z</time></trkpt><trkpt lat="37.5730783" lon="14.902065"><ele>242.39999999999998</ele><time>2026-04-26T12:15:49.196Z</time></trkpt><trkpt lat="37.5731033" lon="14.902195"><ele>242.79999999999998</ele><time>2026-04-26T12:15:50.196Z</time></trkpt><trkpt lat="37.5731383" lon="14.9023167"><ele>243.2</ele><time>2026-04-26T12:15:51.196Z</time></trkpt><trkpt lat="37.5731717" lon="14.9024217"><ele>243.6</ele><time>2026-04-26T12:15:52.196Z</time></trkpt><trkpt lat="37.5732517" lon="14.9025233"><ele>244.0</ele><time>2026-04-26T12:15:54.196Z</time></trkpt><trkpt lat="37.5733767" lon="14.9025367"><ele>243.99999999999997</ele><time>2026-04-26T12:15:56.196Z</time></trkpt><trkpt lat="37.5734567" lon="14.9025117"><ele>244.0</ele><time>2026-04-26T12:15:57.196Z</time></trkpt><trkpt lat="37.5735383" lon="14.9024867"><ele>244.0</ele><time>2026-04-26T12:15:58.196Z</time></trkpt><trkpt lat="37.573615" lon="14.9024983"><ele>244.0</ele><time>2026-04-26T12:15:59.196Z</time></trkpt><trkpt lat="37.5737033" lon="14.902535"><ele>243.99999999999997</ele><time>2026-04-26T12:16:00.197Z</time></trkpt><trkpt lat="37.5737917" lon="14.9026117"><ele>244.0</ele><time>2026-04-26T12:16:01.196Z</time></trkpt><trkpt lat="37.57389" lon="14.9027067"><ele>245.25</ele><time>2026-04-26T12:16:02.196Z</time></trkpt><trkpt lat="37.5739983" lon="14.9028267"><ele>246.5</ele><time>2026-04-26T12:16:03.196Z</time></trkpt><trkpt lat="37.5741183" lon="14.9029433"><ele>247.75</ele><time>2026-04-26T12:16:04.196Z</time></trkpt><trkpt lat="37.5742283" lon="14.9030567"><ele>249.0</ele><time>2026-04-26T12:16:05.196Z</time></trkpt><trkpt lat="37.5743283" lon="14.9031617"><ele>249.0</ele><time>2026-04-26T12:16:06.196Z</time></trkpt><trkpt lat="37.57442" lon="14.9032617"><ele>248.99999999999997</ele><time>2026-04-26T12:16:07.196Z</time></trkpt><trkpt lat="37.574505" lon="14.903345"><ele>248.99999999999997</ele><time>2026-04-26T12:16:08.196Z</time></trkpt><trkpt lat="37.574585" lon="14.9034283"><ele>249.0</ele><time>2026-04-26T12:16:09.196Z</time></trkpt><trkpt lat="37.574655" lon="14.9035133"><ele>249.0</ele><time>2026-04-26T12:16:10.196Z</time></trkpt><trkpt lat="37.5747267" lon="14.9035883"><ele>250.0</ele><time>2026-04-26T12:16:11.196Z</time></trkpt><trkpt lat="37.5748017" lon="14.90367"><ele>250.99999999999997</ele><time>2026-04-26T12:16:12.196Z</time></trkpt><trkpt lat="37.5748767" lon="14.90375"><ele>251.99999999999997</ele><time>2026-04-26T12:16:13.196Z</time></trkpt><trkpt lat="37.57495" lon="14.9038283"><ele>253.0</ele><time>2026-04-26T12:16:14.196Z</time></trkpt><trkpt lat="37.5750267" lon="14.9039067"><ele>254.0</ele><time>2026-04-26T12:16:15.197Z</time></trkpt><trkpt lat="37.5750983" lon="14.9039817"><ele>254.00000000000003</ele><time>2026-04-26T12:16:16.196Z</time></trkpt><trkpt lat="37.5751683" lon="14.9040517"><ele>254.0</ele><time>2026-04-26T12:16:17.196Z</time></trkpt><trkpt lat="37.575235" lon="14.9041167"><ele>254.0</ele><time>2026-04-26T12:16:18.196Z</time></trkpt><trkpt lat="37.575305" lon="14.9041867"><ele>254.0</ele><time>2026-04-26T12:16:19.196Z</time></trkpt><trkpt lat="37.5753733" lon="14.9042583"><ele>254.00000000000003</ele><time>2026-04-26T12:16:20.197Z</time></trkpt><trkpt lat="37.5754433" lon="14.9043267"><ele>254.0</ele><time>2026-04-26T12:16:21.196Z</time></trkpt><trkpt lat="37.5755183" lon="14.9043967"><ele>255.33333333333334</ele><time>2026-04-26T12:16:22.197Z</time></trkpt><trkpt lat="37.5755917" lon="14.9044733"><ele>256.6666666666667</ele><time>2026-04-26T12:16:23.196Z</time></trkpt><trkpt lat="37.5756617" lon="14.9045417"><ele>258.0</ele><time>2026-04-26T12:16:24.196Z</time></trkpt><trkpt lat="37.5757267" lon="14.904605"><ele>259.3333333333333</ele><time>2026-04-26T12:16:25.196Z</time></trkpt><trkpt lat="37.575785" lon="14.9046667"><ele>260.66666666666663</ele><time>2026-04-26T12:16:26.197Z</time></trkpt><trkpt lat="37.5758433" lon="14.904725"><ele>262.0</ele><time>2026-04-26T12:16:27.196Z</time></trkpt><trkpt lat="37.5758983" lon="14.9047833"><ele>262.0</ele><time>2026-04-26T12:16:28.196Z</time></trkpt><trkpt lat="37.5759467" lon="14.9048433"><ele>262.0</ele><time>2026-04-26T12:16:29.197Z</time></trkpt><trkpt lat="37.5760133" lon="14.9049617"><ele>262.0</ele><time>2026-04-26T12:16:31.196Z</time></trkpt><trkpt lat="37.57606" lon="14.9050733"><ele>262.0</ele><time>2026-04-26T12:16:33.196Z</time></trkpt><trkpt lat="37.57615" lon="14.9051567"><ele>262.0</ele><time>2026-04-26T12:16:35.197Z</time></trkpt><trkpt lat="37.5762217" lon="14.9051833"><ele>261.75</ele><time>2026-04-26T12:16:36.196Z</time></trkpt><trkpt lat="37.57631" lon="14.9052283"><ele>261.5</ele><time>2026-04-26T12:16:37.196Z</time></trkpt><trkpt lat="37.5764117" lon="14.9052967"><ele>261.25</ele><time>2026-04-26T12:16:38.196Z</time></trkpt><trkpt lat="37.5765217" lon="14.9053983"><ele>261.0</ele><time>2026-04-26T12:16:39.197Z</time></trkpt><trkpt lat="37.5766433" lon="14.9055283"><ele>261.0</ele><time>2026-04-26T12:16:40.196Z</time></trkpt><trkpt lat="37.5767917" lon="14.9056783"><ele>261.0</ele><time>2026-04-26T12:16:41.196Z</time></trkpt><trkpt lat="37.5769467" lon="14.905835"><ele>261.0</ele><time>2026-04-26T12:16:42.196Z</time></trkpt><trkpt lat="37.5770917" lon="14.9059783"><ele>263.5</ele><time>2026-04-26T12:16:43.197Z</time></trkpt><trkpt lat="37.5772217" lon="14.9061133"><ele>266.0</ele><time>2026-04-26T12:16:44.197Z</time></trkpt><trkpt lat="37.5773283" lon="14.9062267"><ele>268.5</ele><time>2026-04-26T12:16:45.196Z</time></trkpt><trkpt lat="37.5774217" lon="14.906325"><ele>271.0</ele><time>2026-04-26T12:16:46.196Z</time></trkpt><trkpt lat="37.5774867" lon="14.9064217"><ele>271.0</ele><time>2026-04-26T12:16:47.196Z</time></trkpt><trkpt lat="37.5775367" lon="14.9065167"><ele>271.0</ele><time>2026-04-26T12:16:48.196Z</time></trkpt><trkpt lat="37.577575" lon="14.9066067"><ele>271.0</ele><time>2026-04-26T12:16:49.196Z</time></trkpt><trkpt lat="37.577615" lon="14.90668"><ele>271.0</ele><time>2026-04-26T12:16:50.196Z</time></trkpt><trkpt lat="37.5776833" lon="14.9067433"><ele>271.0</ele><time>2026-04-26T12:16:51.197Z</time></trkpt><trkpt lat="37.5777733" lon="14.9067883"><ele>271.0</ele><time>2026-04-26T12:16:52.197Z</time></trkpt><trkpt lat="37.57788" lon="14.9068283"><ele>272.25</ele><time>2026-04-26T12:16:53.196Z</time></trkpt><trkpt lat="37.577995" lon="14.9068717"><ele>273.5</ele><time>2026-04-26T12:16:54.196Z</time></trkpt><trkpt lat="37.578105" lon="14.9069417"><ele>274.75</ele><time>2026-04-26T12:16:55.196Z</time></trkpt><trkpt lat="37.5782067" lon="14.9070467"><ele>276.0</ele><time>2026-04-26T12:16:56.196Z</time></trkpt><trkpt lat="37.57831" lon="14.9071683"><ele>276.0</ele><time>2026-04-26T12:16:57.196Z</time></trkpt><trkpt lat="37.5784083" lon="14.9073033"><ele>276.0</ele><time>2026-04-26T12:16:58.196Z</time></trkpt><trkpt lat="37.5785083" lon="14.907415"><ele>276.0</ele><time>2026-04-26T12:16:59.196Z</time></trkpt><trkpt lat="37.5786033" lon="14.9075133"><ele>276.0</ele><time>2026-04-26T12:17:00.196Z</time></trkpt><trkpt lat="37.5787083" lon="14.9075867"><ele>277.0</ele><time>2026-04-26T12:17:01.196Z</time></trkpt><trkpt lat="37.5788117" lon="14.90766"><ele>278.0</ele><time>2026-04-26T12:17:02.196Z</time></trkpt><trkpt lat="37.5789367" lon="14.9077133"><ele>279.0</ele><time>2026-04-26T12:17:03.196Z</time></trkpt><trkpt lat="37.5790733" lon="14.9077667"><ele>280.0</ele><time>2026-04-26T12:17:04.196Z</time></trkpt><trkpt lat="37.5792167" lon="14.9078133"><ele>280.0</ele><time>2026-04-26T12:17:05.196Z</time></trkpt><trkpt lat="37.5793567" lon="14.9078817"><ele>280.0</ele><time>2026-04-26T12:17:06.196Z</time></trkpt><trkpt lat="37.5795" lon="14.9079583"><ele>280.0</ele><time>2026-04-26T12:17:07.197Z</time></trkpt><trkpt lat="37.579635" lon="14.9080633"><ele>280.0</ele><time>2026-04-26T12:17:08.196Z</time></trkpt><trkpt lat="37.5797633" lon="14.90819"><ele>280.0</ele><time>2026-04-26T12:17:09.196Z</time></trkpt><trkpt lat="37.5798717" lon="14.9083283"><ele>280.0</ele><time>2026-04-26T12:17:10.196Z</time></trkpt><trkpt lat="37.5799683" lon="14.9085"><ele>281.3333333333333</ele><time>2026-04-26T12:17:11.196Z</time></trkpt><trkpt lat="37.580065" lon="14.9086733"><ele>282.6666666666667</ele><time>2026-04-26T12:17:12.196Z</time></trkpt><trkpt lat="37.580155" lon="14.9088583"><ele>284.0</ele><time>2026-04-26T12:17:13.197Z</time></trkpt><trkpt lat="37.58024" lon="14.9090533"><ele>284.6666666666667</ele><time>2026-04-26T12:17:14.197Z</time></trkpt><trkpt lat="37.5803167" lon="14.9092617"><ele>285.3333333333333</ele><time>2026-04-26T12:17:15.196Z</time></trkpt><trkpt lat="37.58038" lon="14.9094667"><ele>286.0</ele><time>2026-04-26T12:17:16.197Z</time></trkpt><trkpt lat="37.58045" lon="14.90966"><ele>286.66666666666663</ele><time>2026-04-26T12:17:17.197Z</time></trkpt><trkpt lat="37.58053" lon="14.9098433"><ele>287.3333333333333</ele><time>2026-04-26T12:17:18.196Z</time></trkpt><trkpt lat="37.580625" lon="14.9100383"><ele>288.0</ele><time>2026-04-26T12:17:19.196Z</time></trkpt><trkpt lat="37.5807317" lon="14.9102183"><ele>288.3333333333333</ele><time>2026-04-26T12:17:20.196Z</time></trkpt><trkpt lat="37.58085" lon="14.9104067"><ele>288.66666666666663</ele><time>2026-04-26T12:17:21.196Z</time></trkpt><trkpt lat="37.58099" lon="14.9105917"><ele>289.0</ele><time>2026-04-26T12:17:22.196Z</time></trkpt><trkpt lat="37.5811417" lon="14.910775"><ele>291.0</ele><time>2026-04-26T12:17:23.196Z</time></trkpt><trkpt lat="37.5813083" lon="14.910965"><ele>293.0</ele><time>2026-04-26T12:17:24.196Z</time></trkpt><trkpt lat="37.5814767" lon="14.911155"><ele>293.0</ele><time>2026-04-26T12:17:25.196Z</time></trkpt><trkpt lat="37.58165" lon="14.911355"><ele>293.0</ele><time>2026-04-26T12:17:26.196Z</time></trkpt><trkpt lat="37.5818267" lon="14.91154"><ele>293.0</ele><time>2026-04-26T12:17:27.196Z</time></trkpt><trkpt lat="37.5819983" lon="14.9117217"><ele>293.0</ele><time>2026-04-26T12:17:28.196Z</time></trkpt><trkpt lat="37.5821767" lon="14.9118917"><ele>293.0</ele><time>2026-04-26T12:17:29.196Z</time></trkpt><trkpt lat="37.5823433" lon="14.9120417"><ele>293.33333333333337</ele><time>2026-04-26T12:17:30.196Z</time></trkpt><trkpt lat="37.5825017" lon="14.9121933"><ele>293.6666666666667</ele><time>2026-04-26T12:17:31.196Z</time></trkpt><trkpt lat="37.582635" lon="14.9123533"><ele>294.0</ele><time>2026-04-26T12:17:32.196Z</time></trkpt><trkpt lat="37.582755" lon="14.91253"><ele>297.3333333333333</ele><time>2026-04-26T12:17:33.196Z</time></trkpt><trkpt lat="37.5828617" lon="14.9127283"><ele>300.66666666666663</ele><time>2026-04-26T12:17:34.196Z</time></trkpt><trkpt lat="37.582945" lon="14.91295"><ele>304.0</ele><time>2026-04-26T12:17:35.196Z</time></trkpt><trkpt lat="37.5830233" lon="14.91316"><ele>304.0</ele><time>2026-04-26T12:17:36.196Z</time></trkpt><trkpt lat="37.5830867" lon="14.913345"><ele>304.0</ele><time>2026-04-26T12:17:37.196Z</time></trkpt><trkpt lat="37.5831483" lon="14.913515"><ele>304.0</ele><time>2026-04-26T12:17:38.197Z</time></trkpt><trkpt lat="37.58321" lon="14.9136967"><ele>305.5</ele><time>2026-04-26T12:17:39.196Z</time></trkpt><trkpt lat="37.583275" lon="14.913865"><ele>307.0</ele><time>2026-04-26T12:17:40.197Z</time></trkpt><trkpt lat="37.5833417" lon="14.9140167"><ele>308.5</ele><time>2026-04-26T12:17:41.196Z</time></trkpt><trkpt lat="37.5834133" lon="14.9141583"><ele>310.0</ele><time>2026-04-26T12:17:42.196Z</time></trkpt><trkpt lat="37.583495" lon="14.91428"><ele>311.75</ele><time>2026-04-26T12:17:43.196Z</time></trkpt><trkpt lat="37.5835933" lon="14.9143783"><ele>313.5</ele><time>2026-04-26T12:17:44.196Z</time></trkpt><trkpt lat="37.5837183" lon="14.9144333"><ele>315.25</ele><time>2026-04-26T12:17:45.196Z</time></trkpt><trkpt lat="37.583855" lon="14.91445"><ele>317.0</ele><time>2026-04-26T12:17:46.196Z</time></trkpt><trkpt lat="37.5839817" lon="14.9144817"><ele>317.33333333333337</ele><time>2026-04-26T12:17:47.196Z</time></trkpt><trkpt lat="37.5841133" lon="14.9145367"><ele>317.6666666666667</ele><time>2026-04-26T12:17:48.196Z</time></trkpt><trkpt lat="37.5842483" lon="14.914635"><ele>318.0</ele><time>2026-04-26T12:17:49.196Z</time></trkpt><trkpt lat="37.584395" lon="14.9147533"><ele>319.3333333333333</ele><time>2026-04-26T12:17:50.197Z</time></trkpt><trkpt lat="37.5845467" lon="14.9148783"><ele>320.66666666666663</ele><time>2026-04-26T12:17:51.196Z</time></trkpt><trkpt lat="37.5847083" lon="14.915"><ele>322.0</ele><time>2026-04-26T12:17:52.196Z</time></trkpt><trkpt lat="37.5848817" lon="14.9151033"><ele>322.66666666666663</ele><time>2026-04-26T12:17:53.196Z</time></trkpt><trkpt lat="37.5850433" lon="14.9151917"><ele>323.3333333333333</ele><time>2026-04-26T12:17:54.196Z</time></trkpt><trkpt lat="37.5852" lon="14.915305"><ele>324.0</ele><time>2026-04-26T12:17:55.196Z</time></trkpt><trkpt lat="37.58535" lon="14.9154433"><ele>325.6666666666667</ele><time>2026-04-26T12:17:56.196Z</time></trkpt><trkpt lat="37.5854783" lon="14.9156183"><ele>327.33333333333337</ele><time>2026-04-26T12:17:57.196Z</time></trkpt><trkpt lat="37.5856167" lon="14.9158133"><ele>329.0</ele><time>2026-04-26T12:17:58.196Z</time></trkpt><trkpt lat="37.5857583" lon="14.9160067"><ele>329.33333333333337</ele><time>2026-04-26T12:17:59.196Z</time></trkpt><trkpt lat="37.5858867" lon="14.9161967"><ele>329.6666666666667</ele><time>2026-04-26T12:18:00.196Z</time></trkpt><trkpt lat="37.5860117" lon="14.9163683"><ele>330.0</ele><time>2026-04-26T12:18:01.196Z</time></trkpt><trkpt lat="37.586125" lon="14.916525"><ele>332.0</ele><time>2026-04-26T12:18:02.196Z</time></trkpt><trkpt lat="37.586235" lon="14.9166417"><ele>334.0</ele><time>2026-04-26T12:18:03.197Z</time></trkpt><trkpt lat="37.5863733" lon="14.9167567"><ele>336.0</ele><time>2026-04-26T12:18:04.196Z</time></trkpt><trkpt lat="37.58652" lon="14.9168383"><ele>337.3333333333333</ele><time>2026-04-26T12:18:05.196Z</time></trkpt><trkpt lat="37.5866883" lon="14.916905"><ele>338.66666666666663</ele><time>2026-04-26T12:18:06.196Z</time></trkpt><trkpt lat="37.5868633" lon="14.9169683"><ele>340.0</ele><time>2026-04-26T12:18:07.196Z</time></trkpt><trkpt lat="37.5870233" lon="14.9170333"><ele>341.3333333333333</ele><time>2026-04-26T12:18:08.197Z</time></trkpt><trkpt lat="37.5871683" lon="14.9171033"><ele>342.6666666666667</ele><time>2026-04-26T12:18:09.196Z</time></trkpt><trkpt lat="37.58731" lon="14.9171767"><ele>344.0</ele><time>2026-04-26T12:18:10.196Z</time></trkpt><trkpt lat="37.5874433" lon="14.9172717"><ele>344.0</ele><time>2026-04-26T12:18:11.196Z</time></trkpt><trkpt lat="37.58757" lon="14.917375"><ele>344.0</ele><time>2026-04-26T12:18:12.196Z</time></trkpt><trkpt lat="37.5877133" lon="14.9174867"><ele>344.0</ele><time>2026-04-26T12:18:13.196Z</time></trkpt><trkpt lat="37.5878717" lon="14.9176033"><ele>347.0</ele><time>2026-04-26T12:18:14.196Z</time></trkpt><trkpt lat="37.58805" lon="14.9177283"><ele>350.0</ele><time>2026-04-26T12:18:15.197Z</time></trkpt><trkpt lat="37.5882283" lon="14.917865"><ele>353.0</ele><time>2026-04-26T12:18:16.196Z</time></trkpt><trkpt lat="37.5884267" lon="14.9179833"><ele>353.0</ele><time>2026-04-26T12:18:17.196Z</time></trkpt><trkpt lat="37.5886433" lon="14.918085"><ele>353.0</ele><time>2026-04-26T12:18:18.196Z</time></trkpt><trkpt lat="37.5888617" lon="14.9181933"><ele>354.5</ele><time>2026-04-26T12:18:19.196Z</time></trkpt><trkpt lat="37.589095" lon="14.918315"><ele>356.0</ele><time>2026-04-26T12:18:20.196Z</time></trkpt><trkpt lat="37.5893233" lon="14.9184383"><ele>361.5</ele><time>2026-04-26T12:18:21.196Z</time></trkpt><trkpt lat="37.5895417" lon="14.9185567"><ele>367.0</ele><time>2026-04-26T12:18:22.196Z</time></trkpt><trkpt lat="37.5897533" lon="14.9186633"><ele>367.0</ele><time>2026-04-26T12:18:23.196Z</time></trkpt><trkpt lat="37.589955" lon="14.9187667"><ele>367.0</ele><time>2026-04-26T12:18:24.196Z</time></trkpt><trkpt lat="37.5901483" lon="14.918865"><ele>367.0</ele><time>2026-04-26T12:18:25.196Z</time></trkpt><trkpt lat="37.5903433" lon="14.9189633"><ele>367.66666666666663</ele><time>2026-04-26T12:18:26.197Z</time></trkpt><trkpt lat="37.59053" lon="14.9190467"><ele>368.3333333333333</ele><time>2026-04-26T12:18:27.196Z</time></trkpt><trkpt lat="37.5907167" lon="14.9191217"><ele>369.0</ele><time>2026-04-26T12:18:28.196Z</time></trkpt><trkpt lat="37.5908967" lon="14.9191817"><ele>371.3333333333333</ele><time>2026-04-26T12:18:29.197Z</time></trkpt><trkpt lat="37.5910667" lon="14.91924"><ele>373.66666666666663</ele><time>2026-04-26T12:18:30.196Z</time></trkpt><trkpt lat="37.591235" lon="14.9193217"><ele>376.0</ele><time>2026-04-26T12:18:31.196Z</time></trkpt><trkpt lat="37.5914017" lon="14.91943"><ele>378.0</ele><time>2026-04-26T12:18:32.196Z</time></trkpt><trkpt lat="37.59157" lon="14.9195467"><ele>380.0</ele><time>2026-04-26T12:18:33.197Z</time></trkpt><trkpt lat="37.59173" lon="14.9196917"><ele>382.0</ele><time>2026-04-26T12:18:34.196Z</time></trkpt><trkpt lat="37.5918933" lon="14.9198567"><ele>382.66666666666663</ele><time>2026-04-26T12:18:35.196Z</time></trkpt><trkpt lat="37.5920583" lon="14.920025"><ele>383.3333333333333</ele><time>2026-04-26T12:18:36.196Z</time></trkpt><trkpt lat="37.59223" lon="14.9201883"><ele>384.0</ele><time>2026-04-26T12:18:37.196Z</time></trkpt><trkpt lat="37.5923933" lon="14.9203467"><ele>385.66666666666663</ele><time>2026-04-26T12:18:38.196Z</time></trkpt><trkpt lat="37.592565" lon="14.9205033"><ele>387.3333333333333</ele><time>2026-04-26T12:18:39.197Z</time></trkpt><trkpt lat="37.59274" lon="14.9206683"><ele>389.0</ele><time>2026-04-26T12:18:40.196Z</time></trkpt><trkpt lat="37.5929217" lon="14.92084"><ele>391.0</ele><time>2026-04-26T12:18:41.196Z</time></trkpt><trkpt lat="37.5931" lon="14.92101"><ele>393.0</ele><time>2026-04-26T12:18:42.196Z</time></trkpt><trkpt lat="37.5932833" lon="14.92117"><ele>395.0</ele><time>2026-04-26T12:18:43.197Z</time></trkpt><trkpt lat="37.59345" lon="14.9213283"><ele>395.0</ele><time>2026-04-26T12:18:44.196Z</time></trkpt><trkpt lat="37.5936033" lon="14.9214667"><ele>395.0</ele><time>2026-04-26T12:18:45.196Z</time></trkpt><trkpt lat="37.5937383" lon="14.9216033"><ele>395.0</ele><time>2026-04-26T12:18:46.197Z</time></trkpt><trkpt lat="37.5938667" lon="14.9217283"><ele>396.0</ele><time>2026-04-26T12:18:47.196Z</time></trkpt><trkpt lat="37.59398" lon="14.9218667"><ele>397.0</ele><time>2026-04-26T12:18:48.197Z</time></trkpt><trkpt lat="37.59407" lon="14.9220317"><ele>398.0</ele><time>2026-04-26T12:18:49.196Z</time></trkpt><trkpt lat="37.594145" lon="14.9222167"><ele>398.0</ele><time>2026-04-26T12:18:50.197Z</time></trkpt><trkpt lat="37.594205" lon="14.9224283"><ele>398.0</ele><time>2026-04-26T12:18:51.197Z</time></trkpt><trkpt lat="37.5942433" lon="14.9226583"><ele>398.0</ele><time>2026-04-26T12:18:52.196Z</time></trkpt><trkpt lat="37.5942667" lon="14.922895"><ele>399.3333333333333</ele><time>2026-04-26T12:18:53.197Z</time></trkpt><trkpt lat="37.5942783" lon="14.92316"><ele>400.66666666666663</ele><time>2026-04-26T12:18:54.196Z</time></trkpt><trkpt lat="37.5942967" lon="14.9234383"><ele>402.0</ele><time>2026-04-26T12:18:55.196Z</time></trkpt><trkpt lat="37.5943167" lon="14.9237217"><ele>404.0</ele><time>2026-04-26T12:18:56.197Z</time></trkpt><trkpt lat="37.5943383" lon="14.9239967"><ele>406.0</ele><time>2026-04-26T12:18:57.196Z</time></trkpt><trkpt lat="37.59436" lon="14.9242633"><ele>408.0</ele><time>2026-04-26T12:18:58.196Z</time></trkpt><trkpt lat="37.59438" lon="14.924525"><ele>410.66666666666663</ele><time>2026-04-26T12:18:59.196Z</time></trkpt><trkpt lat="37.594405" lon="14.9247833"><ele>413.3333333333333</ele><time>2026-04-26T12:19:00.196Z</time></trkpt><trkpt lat="37.59443" lon="14.92502"><ele>416.0</ele><time>2026-04-26T12:19:01.196Z</time></trkpt><trkpt lat="37.5944733" lon="14.9252483"><ele>418.3333333333333</ele><time>2026-04-26T12:19:02.196Z</time></trkpt><trkpt lat="37.5945283" lon="14.9254433"><ele>420.66666666666663</ele><time>2026-04-26T12:19:03.196Z</time></trkpt><trkpt lat="37.59461" lon="14.9256333"><ele>423.0</ele><time>2026-04-26T12:19:04.196Z</time></trkpt><trkpt lat="37.5947167" lon="14.925815"><ele>424.33333333333337</ele><time>2026-04-26T12:19:05.196Z</time></trkpt><trkpt lat="37.5948467" lon="14.9259783"><ele>425.6666666666667</ele><time>2026-04-26T12:19:06.196Z</time></trkpt><trkpt lat="37.594995" lon="14.9261283"><ele>427.0</ele><time>2026-04-26T12:19:07.196Z</time></trkpt><trkpt lat="37.5951483" lon="14.92625"><ele>427.0</ele><time>2026-04-26T12:19:08.196Z</time></trkpt><trkpt lat="37.59531" lon="14.9263333"><ele>427.0</ele><time>2026-04-26T12:19:09.196Z</time></trkpt><trkpt lat="37.5954833" lon="14.9263783"><ele>427.0</ele><time>2026-04-26T12:19:10.196Z</time></trkpt><trkpt lat="37.5956733" lon="14.926375"><ele>430.0</ele><time>2026-04-26T12:19:11.197Z</time></trkpt><trkpt lat="37.59587" lon="14.9263517"><ele>433.0</ele><time>2026-04-26T12:19:12.197Z</time></trkpt><trkpt lat="37.59607" lon="14.9263467"><ele>436.0</ele><time>2026-04-26T12:19:13.196Z</time></trkpt><trkpt lat="37.59626" lon="14.92634"><ele>437.0</ele><time>2026-04-26T12:19:14.196Z</time></trkpt><trkpt lat="37.5964633" lon="14.9263483"><ele>438.0</ele><time>2026-04-26T12:19:15.196Z</time></trkpt><trkpt lat="37.5966817" lon="14.9263433"><ele>439.0</ele><time>2026-04-26T12:19:16.196Z</time></trkpt><trkpt lat="37.59691" lon="14.9263467"><ele>440.0</ele><time>2026-04-26T12:19:17.196Z</time></trkpt><trkpt lat="37.5971467" lon="14.9263483"><ele>441.0</ele><time>2026-04-26T12:19:18.196Z</time></trkpt><trkpt lat="37.5973983" lon="14.9263483"><ele>441.0</ele><time>2026-04-26T12:19:19.197Z</time></trkpt><trkpt lat="37.5976567" lon="14.9263467"><ele>441.0</ele><time>2026-04-26T12:19:20.196Z</time></trkpt><trkpt lat="37.5979283" lon="14.92634"><ele>441.5</ele><time>2026-04-26T12:19:21.196Z</time></trkpt><trkpt lat="37.5982067" lon="14.926335"><ele>442.0</ele><time>2026-04-26T12:19:22.196Z</time></trkpt><trkpt lat="37.5984783" lon="14.9263217"><ele>442.5</ele><time>2026-04-26T12:19:23.196Z</time></trkpt><trkpt lat="37.598735" lon="14.92631"><ele>443.0</ele><time>2026-04-26T12:19:24.197Z</time></trkpt><trkpt lat="37.5989767" lon="14.9263"><ele>443.0</ele><time>2026-04-26T12:19:25.197Z</time></trkpt><trkpt lat="37.59921" lon="14.9262867"><ele>443.0</ele><time>2026-04-26T12:19:26.196Z</time></trkpt><trkpt lat="37.599425" lon="14.9262833"><ele>443.0</ele><time>2026-04-26T12:19:27.196Z</time></trkpt><trkpt lat="37.599635" lon="14.9262717"><ele>444.3333333333333</ele><time>2026-04-26T12:19:28.197Z</time></trkpt><trkpt lat="37.5998517" lon="14.9262483"><ele>445.66666666666663</ele><time>2026-04-26T12:19:29.196Z</time></trkpt><trkpt lat="37.6000767" lon="14.9262017"><ele>447.0</ele><time>2026-04-26T12:19:30.196Z</time></trkpt><trkpt lat="37.6003117" lon="14.9261367"><ele>448.0</ele><time>2026-04-26T12:19:31.196Z</time></trkpt><trkpt lat="37.6005467" lon="14.926075"><ele>449.0</ele><time>2026-04-26T12:19:32.196Z</time></trkpt><trkpt lat="37.6007767" lon="14.9260133"><ele>449.0</ele><time>2026-04-26T12:19:33.196Z</time></trkpt><trkpt lat="37.601005" lon="14.9259583"><ele>449.0</ele><time>2026-04-26T12:19:34.197Z</time></trkpt><trkpt lat="37.6012317" lon="14.925895"><ele>449.3333333333333</ele><time>2026-04-26T12:19:35.196Z</time></trkpt><trkpt lat="37.6014467" lon="14.92584"><ele>449.66666666666663</ele><time>2026-04-26T12:19:36.196Z</time></trkpt><trkpt lat="37.601645" lon="14.92579"><ele>450.0</ele><time>2026-04-26T12:19:37.196Z</time></trkpt><trkpt lat="37.6018433" lon="14.925755"><ele>450.66666666666663</ele><time>2026-04-26T12:19:38.196Z</time></trkpt><trkpt lat="37.60204" lon="14.9257333"><ele>451.3333333333333</ele><time>2026-04-26T12:19:39.197Z</time></trkpt><trkpt lat="37.6022417" lon="14.9257217"><ele>452.0</ele><time>2026-04-26T12:19:40.196Z</time></trkpt><trkpt lat="37.60245" lon="14.9257283"><ele>452.0</ele><time>2026-04-26T12:19:41.197Z</time></trkpt><trkpt lat="37.602665" lon="14.9257517"><ele>452.0</ele><time>2026-04-26T12:19:42.196Z</time></trkpt><trkpt lat="37.602875" lon="14.9257783"><ele>452.0</ele><time>2026-04-26T12:19:43.196Z</time></trkpt><trkpt lat="37.60309" lon="14.9258217"><ele>453.3333333333333</ele><time>2026-04-26T12:19:44.197Z</time></trkpt><trkpt lat="37.603305" lon="14.9258567"><ele>454.66666666666663</ele><time>2026-04-26T12:19:45.196Z</time></trkpt><trkpt lat="37.6035083" lon="14.9258933"><ele>456.0</ele><time>2026-04-26T12:19:46.197Z</time></trkpt><trkpt lat="37.6037117" lon="14.9259233"><ele>459.66666666666663</ele><time>2026-04-26T12:19:47.196Z</time></trkpt><trkpt lat="37.6039" lon="14.9259567"><ele>463.3333333333333</ele><time>2026-04-26T12:19:48.196Z</time></trkpt><trkpt lat="37.60409" lon="14.9259933"><ele>467.0</ele><time>2026-04-26T12:19:49.196Z</time></trkpt><trkpt lat="37.6042817" lon="14.926055"><ele>467.0</ele><time>2026-04-26T12:19:50.197Z</time></trkpt><trkpt lat="37.6044717" lon="14.9261217"><ele>467.0</ele><time>2026-04-26T12:19:51.196Z</time></trkpt><trkpt lat="37.6046617" lon="14.9262183"><ele>467.0</ele><time>2026-04-26T12:19:52.196Z</time></trkpt><trkpt lat="37.6048633" lon="14.9263317"><ele>468.66666666666663</ele><time>2026-04-26T12:19:53.196Z</time></trkpt><trkpt lat="37.6050667" lon="14.9264383"><ele>470.33333333333337</ele><time>2026-04-26T12:19:54.197Z</time></trkpt><trkpt lat="37.6052633" lon="14.926545"><ele>472.0</ele><time>2026-04-26T12:19:55.196Z</time></trkpt><trkpt lat="37.6054583" lon="14.9266517"><ele>473.33333333333337</ele><time>2026-04-26T12:19:56.196Z</time></trkpt><trkpt lat="37.6056583" lon="14.9267583"><ele>474.66666666666663</ele><time>2026-04-26T12:19:57.197Z</time></trkpt><trkpt lat="37.60586" lon="14.9268583"><ele>476.0</ele><time>2026-04-26T12:19:58.197Z</time></trkpt><trkpt lat="37.6060667" lon="14.9269733"><ele>478.0</ele><time>2026-04-26T12:19:59.196Z</time></trkpt><trkpt lat="37.6062717" lon="14.9270817"><ele>480.0</ele><time>2026-04-26T12:20:00.196Z</time></trkpt><trkpt lat="37.6064883" lon="14.9271917"><ele>480.0</ele><time>2026-04-26T12:20:01.196Z</time></trkpt><trkpt lat="37.6067017" lon="14.9273"><ele>480.0</ele><time>2026-04-26T12:20:02.196Z</time></trkpt><trkpt lat="37.606915" lon="14.92741"><ele>483.0</ele><time>2026-04-26T12:20:03.196Z</time></trkpt><trkpt lat="37.60713" lon="14.9275133"><ele>486.0</ele><time>2026-04-26T12:20:04.196Z</time></trkpt><trkpt lat="37.607345" lon="14.9276117"><ele>487.5</ele><time>2026-04-26T12:20:05.196Z</time></trkpt><trkpt lat="37.6075667" lon="14.9277083"><ele>489.0</ele><time>2026-04-26T12:20:06.197Z</time></trkpt><trkpt lat="37.6077867" lon="14.9278033"><ele>489.5</ele><time>2026-04-26T12:20:07.196Z</time></trkpt><trkpt lat="37.608005" lon="14.9279033"><ele>490.0</ele><time>2026-04-26T12:20:08.196Z</time></trkpt><trkpt lat="37.6082217" lon="14.9280017"><ele>490.0</ele><time>2026-04-26T12:20:09.196Z</time></trkpt><trkpt lat="37.6084317" lon="14.9281083"><ele>490.0</ele><time>2026-04-26T12:20:10.197Z</time></trkpt><trkpt lat="37.60863" lon="14.928225"><ele>490.0</ele><time>2026-04-26T12:20:11.196Z</time></trkpt><trkpt lat="37.608825" lon="14.9283683"><ele>494.5</ele><time>2026-04-26T12:20:12.196Z</time></trkpt><trkpt lat="37.6090167" lon="14.9285233"><ele>499.0</ele><time>2026-04-26T12:20:13.196Z</time></trkpt><trkpt lat="37.60921" lon="14.9286883"><ele>499.0</ele><time>2026-04-26T12:20:14.196Z</time></trkpt><trkpt lat="37.6094017" lon="14.9288367"><ele>499.0</ele><time>2026-04-26T12:20:15.197Z</time></trkpt><trkpt lat="37.6095883" lon="14.928985"><ele>499.0</ele><time>2026-04-26T12:20:16.196Z</time></trkpt><trkpt lat="37.6097617" lon="14.92913"><ele>501.33333333333337</ele><time>2026-04-26T12:20:17.196Z</time></trkpt><trkpt lat="37.6099317" lon="14.929265"><ele>503.66666666666663</ele><time>2026-04-26T12:20:18.196Z</time></trkpt><trkpt lat="37.61009" lon="14.929405"><ele>506.0</ele><time>2026-04-26T12:20:19.196Z</time></trkpt><trkpt lat="37.61025" lon="14.929545"><ele>505.66666666666663</ele><time>2026-04-26T12:20:20.196Z</time></trkpt><trkpt lat="37.610405" lon="14.9296867"><ele>505.33333333333337</ele><time>2026-04-26T12:20:21.196Z</time></trkpt><trkpt lat="37.6105383" lon="14.9298433"><ele>505.0</ele><time>2026-04-26T12:20:22.197Z</time></trkpt><trkpt lat="37.610665" lon="14.9300067"><ele>507.0</ele><time>2026-04-26T12:20:23.197Z</time></trkpt><trkpt lat="37.610785" lon="14.930165"><ele>509.0</ele><time>2026-04-26T12:20:24.196Z</time></trkpt><trkpt lat="37.6109" lon="14.9303317"><ele>511.0</ele><time>2026-04-26T12:20:25.196Z</time></trkpt><trkpt lat="37.6110117" lon="14.930495"><ele>511.0</ele><time>2026-04-26T12:20:26.197Z</time></trkpt><trkpt lat="37.6111333" lon="14.9306533"><ele>511.0</ele><time>2026-04-26T12:20:27.196Z</time></trkpt><trkpt lat="37.61127" lon="14.9308117"><ele>511.0</ele><time>2026-04-26T12:20:28.196Z</time></trkpt><trkpt lat="37.6114217" lon="14.930955"><ele>514.3333333333334</ele><time>2026-04-26T12:20:29.196Z</time></trkpt><trkpt lat="37.611585" lon="14.9310883"><ele>517.6666666666666</ele><time>2026-04-26T12:20:30.196Z</time></trkpt><trkpt lat="37.6117533" lon="14.9312067"><ele>521.0</ele><time>2026-04-26T12:20:31.196Z</time></trkpt><trkpt lat="37.6119317" lon="14.9313067"><ele>522.0</ele><time>2026-04-26T12:20:32.196Z</time></trkpt><trkpt lat="37.6121133" lon="14.9314033"><ele>523.0</ele><time>2026-04-26T12:20:33.196Z</time></trkpt><trkpt lat="37.6122883" lon="14.9315017"><ele>524.0</ele><time>2026-04-26T12:20:34.196Z</time></trkpt><trkpt lat="37.6124583" lon="14.931595"><ele>524.0</ele><time>2026-04-26T12:20:35.196Z</time></trkpt><trkpt lat="37.6126167" lon="14.9316933"><ele>524.0</ele><time>2026-04-26T12:20:36.196Z</time></trkpt><trkpt lat="37.6127667" lon="14.9318033"><ele>524.0</ele><time>2026-04-26T12:20:37.196Z</time></trkpt><trkpt lat="37.612915" lon="14.9319317"><ele>526.6666666666666</ele><time>2026-04-26T12:20:38.196Z</time></trkpt><trkpt lat="37.6130683" lon="14.9320733"><ele>529.3333333333334</ele><time>2026-04-26T12:20:39.196Z</time></trkpt><trkpt lat="37.6132333" lon="14.9322333"><ele>532.0</ele><time>2026-04-26T12:20:40.196Z</time></trkpt><trkpt lat="37.6134067" lon="14.9323967"><ele>533.3333333333334</ele><time>2026-04-26T12:20:41.196Z</time></trkpt><trkpt lat="37.613565" lon="14.93256"><ele>534.6666666666666</ele><time>2026-04-26T12:20:42.196Z</time></trkpt><trkpt lat="37.6137017" lon="14.9327167"><ele>536.0</ele><time>2026-04-26T12:20:43.196Z</time></trkpt><trkpt lat="37.613835" lon="14.9328383"><ele>539.6666666666666</ele><time>2026-04-26T12:20:44.196Z</time></trkpt><trkpt lat="37.613975" lon="14.9329383"><ele>543.3333333333334</ele><time>2026-04-26T12:20:45.196Z</time></trkpt><trkpt lat="37.6141183" lon="14.9329833"><ele>547.0</ele><time>2026-04-26T12:20:46.196Z</time></trkpt><trkpt lat="37.6142717" lon="14.9329767"><ele>547.0</ele><time>2026-04-26T12:20:47.196Z</time></trkpt><trkpt lat="37.61444" lon="14.9329417"><ele>547.0</ele><time>2026-04-26T12:20:48.196Z</time></trkpt><trkpt lat="37.6146167" lon="14.9328983"><ele>547.0</ele><time>2026-04-26T12:20:49.196Z</time></trkpt><trkpt lat="37.61479" lon="14.932855"><ele>549.3333333333334</ele><time>2026-04-26T12:20:50.196Z</time></trkpt><trkpt lat="37.6149533" lon="14.932815"><ele>551.6666666666666</ele><time>2026-04-26T12:20:51.196Z</time></trkpt><trkpt lat="37.6151217" lon="14.93279"><ele>554.0</ele><time>2026-04-26T12:20:52.196Z</time></trkpt><trkpt lat="37.6152817" lon="14.9327917"><ele>554.3333333333333</ele><time>2026-04-26T12:20:53.196Z</time></trkpt><trkpt lat="37.6154233" lon="14.932815"><ele>554.6666666666666</ele><time>2026-04-26T12:20:54.196Z</time></trkpt><trkpt lat="37.61557" lon="14.9328517"><ele>555.0</ele><time>2026-04-26T12:20:55.196Z</time></trkpt><trkpt lat="37.6157317" lon="14.93293"><ele>555.0</ele><time>2026-04-26T12:20:56.197Z</time></trkpt><trkpt lat="37.6158917" lon="14.9330383"><ele>555.0</ele><time>2026-04-26T12:20:57.197Z</time></trkpt><trkpt lat="37.6160567" lon="14.9331433"><ele>555.0</ele><time>2026-04-26T12:20:58.197Z</time></trkpt><trkpt lat="37.616225" lon="14.9332433"><ele>555.6666666666666</ele><time>2026-04-26T12:20:59.196Z</time></trkpt><trkpt lat="37.6163883" lon="14.93334"><ele>556.3333333333333</ele><time>2026-04-26T12:21:00.196Z</time></trkpt><trkpt lat="37.61655" lon="14.933425"><ele>557.0</ele><time>2026-04-26T12:21:01.196Z</time></trkpt><trkpt lat="37.6167233" lon="14.9334917"><ele>560.0</ele><time>2026-04-26T12:21:02.196Z</time></trkpt><trkpt lat="37.6169033" lon="14.93354"><ele>563.0</ele><time>2026-04-26T12:21:03.196Z</time></trkpt><trkpt lat="37.61709" lon="14.9335717"><ele>566.0</ele><time>2026-04-26T12:21:04.196Z</time></trkpt><trkpt lat="37.6172767" lon="14.9335967"><ele>567.6666666666666</ele><time>2026-04-26T12:21:05.196Z</time></trkpt><trkpt lat="37.61744" lon="14.9336117"><ele>569.3333333333334</ele><time>2026-04-26T12:21:06.196Z</time></trkpt><trkpt lat="37.617595" lon="14.933585"><ele>571.0</ele><time>2026-04-26T12:21:07.196Z</time></trkpt><trkpt lat="37.6177333" lon="14.93353"><ele>570.6666666666667</ele><time>2026-04-26T12:21:08.196Z</time></trkpt><trkpt lat="37.61785" lon="14.933425"><ele>570.3333333333334</ele><time>2026-04-26T12:21:09.196Z</time></trkpt><trkpt lat="37.6179467" lon="14.9332733"><ele>570.0</ele><time>2026-04-26T12:21:10.196Z</time></trkpt><trkpt lat="37.6180333" lon="14.933105"><ele>570.0</ele><time>2026-04-26T12:21:11.197Z</time></trkpt><trkpt lat="37.6181217" lon="14.9329433"><ele>570.0</ele><time>2026-04-26T12:21:12.196Z</time></trkpt><trkpt lat="37.6182033" lon="14.9328167"><ele>570.0</ele><time>2026-04-26T12:21:13.197Z</time></trkpt><trkpt lat="37.6183017" lon="14.9327167"><ele>570.0</ele><time>2026-04-26T12:21:14.196Z</time></trkpt><trkpt lat="37.6184117" lon="14.93266"><ele>570.0</ele><time>2026-04-26T12:21:15.196Z</time></trkpt><trkpt lat="37.6185483" lon="14.9326433"><ele>570.0</ele><time>2026-04-26T12:21:16.196Z</time></trkpt><trkpt lat="37.6186867" lon="14.9326617"><ele>570.0</ele><time>2026-04-26T12:21:17.196Z</time></trkpt><trkpt lat="37.61885" lon="14.9327"><ele>570.0</ele><time>2026-04-26T12:21:18.196Z</time></trkpt><trkpt lat="37.6190167" lon="14.9327683"><ele>572.6666666666666</ele><time>2026-04-26T12:21:19.196Z</time></trkpt><trkpt lat="37.6192067" lon="14.9328283"><ele>575.3333333333333</ele><time>2026-04-26T12:21:20.196Z</time></trkpt><trkpt lat="37.6194" lon="14.9328917"><ele>578.0</ele><time>2026-04-26T12:21:21.196Z</time></trkpt><trkpt lat="37.6195817" lon="14.93295"><ele>580.75</ele><time>2026-04-26T12:21:22.197Z</time></trkpt><trkpt lat="37.6197317" lon="14.9330067"><ele>583.5</ele><time>2026-04-26T12:21:23.196Z</time></trkpt><trkpt lat="37.61986" lon="14.9330783"><ele>586.25</ele><time>2026-04-26T12:21:24.197Z</time></trkpt><trkpt lat="37.6199683" lon="14.9331717"><ele>589.0</ele><time>2026-04-26T12:21:25.196Z</time></trkpt><trkpt lat="37.6200433" lon="14.9332883"><ele>590.75</ele><time>2026-04-26T12:21:26.196Z</time></trkpt><trkpt lat="37.62009" lon="14.9334317"><ele>592.5</ele><time>2026-04-26T12:21:27.197Z</time></trkpt><trkpt lat="37.620105" lon="14.9336"><ele>594.25</ele><time>2026-04-26T12:21:28.196Z</time></trkpt><trkpt lat="37.6201067" lon="14.9337817"><ele>596.0</ele><time>2026-04-26T12:21:29.196Z</time></trkpt><trkpt lat="37.6200867" lon="14.933965"><ele>596.0</ele><time>2026-04-26T12:21:30.196Z</time></trkpt><trkpt lat="37.620035" lon="14.934145"><ele>596.0</ele><time>2026-04-26T12:21:31.196Z</time></trkpt><trkpt lat="37.61996" lon="14.9343367"><ele>596.0</ele><time>2026-04-26T12:21:32.196Z</time></trkpt><trkpt lat="37.61988" lon="14.9345467"><ele>598.3333333333333</ele><time>2026-04-26T12:21:33.196Z</time></trkpt><trkpt lat="37.6198017" lon="14.9347633"><ele>600.6666666666666</ele><time>2026-04-26T12:21:34.196Z</time></trkpt><trkpt lat="37.6197117" lon="14.9349883"><ele>603.0</ele><time>2026-04-26T12:21:35.196Z</time></trkpt><trkpt lat="37.61963" lon="14.9352067"><ele>604.0</ele><time>2026-04-26T12:21:36.196Z</time></trkpt><trkpt lat="37.6195517" lon="14.935405"><ele>605.0</ele><time>2026-04-26T12:21:37.196Z</time></trkpt><trkpt lat="37.6194867" lon="14.9355933"><ele>606.0</ele><time>2026-04-26T12:21:38.196Z</time></trkpt><trkpt lat="37.61943" lon="14.9357767"><ele>605.75</ele><time>2026-04-26T12:21:39.196Z</time></trkpt><trkpt lat="37.61939" lon="14.9359617"><ele>605.5</ele><time>2026-04-26T12:21:40.196Z</time></trkpt><trkpt lat="37.6193817" lon="14.93615"><ele>605.25</ele><time>2026-04-26T12:21:41.196Z</time></trkpt><trkpt lat="37.619415" lon="14.93633"><ele>605.0</ele><time>2026-04-26T12:21:42.196Z</time></trkpt><trkpt lat="37.6194817" lon="14.9365033"><ele>606.3333333333333</ele><time>2026-04-26T12:21:43.196Z</time></trkpt><trkpt lat="37.6195733" lon="14.9366617"><ele>607.6666666666666</ele><time>2026-04-26T12:21:44.196Z</time></trkpt><trkpt lat="37.619685" lon="14.9368117"><ele>609.0</ele><time>2026-04-26T12:21:45.196Z</time></trkpt><trkpt lat="37.6198167" lon="14.9369717"><ele>610.6666666666666</ele><time>2026-04-26T12:21:46.197Z</time></trkpt><trkpt lat="37.619945" lon="14.9371283"><ele>612.3333333333333</ele><time>2026-04-26T12:21:47.196Z</time></trkpt><trkpt lat="37.62006" lon="14.937275"><ele>614.0</ele><time>2026-04-26T12:21:48.196Z</time></trkpt><trkpt lat="37.620155" lon="14.9374167"><ele>615.0</ele><time>2026-04-26T12:21:49.196Z</time></trkpt><trkpt lat="37.6202367" lon="14.9375583"><ele>616.0</ele><time>2026-04-26T12:21:50.196Z</time></trkpt><trkpt lat="37.6203017" lon="14.9376767"><ele>617.0</ele><time>2026-04-26T12:21:51.197Z</time></trkpt><trkpt lat="37.6203517" lon="14.9377883"><ele>618.0</ele><time>2026-04-26T12:21:52.196Z</time></trkpt><trkpt lat="37.6203833" lon="14.9378983"><ele>619.0</ele><time>2026-04-26T12:21:53.196Z</time></trkpt><trkpt lat="37.620405" lon="14.9379983"><ele>619.0</ele><time>2026-04-26T12:21:54.197Z</time></trkpt><trkpt lat="37.6204117" lon="14.93808"><ele>619.0</ele><time>2026-04-26T12:21:55.196Z</time></trkpt><trkpt lat="37.6204917" lon="14.938185"><ele>619.0</ele><time>2026-04-26T12:21:57.197Z</time></trkpt><trkpt lat="37.620565" lon="14.9382067"><ele>619.0</ele><time>2026-04-26T12:21:58.196Z</time></trkpt><trkpt lat="37.6206517" lon="14.9382283"><ele>619.0</ele><time>2026-04-26T12:21:59.196Z</time></trkpt><trkpt lat="37.6207467" lon="14.9382783"><ele>619.0</ele><time>2026-04-26T12:22:00.196Z</time></trkpt><trkpt lat="37.6208533" lon="14.9383733"><ele>619.75</ele><time>2026-04-26T12:22:01.197Z</time></trkpt><trkpt lat="37.6209633" lon="14.9384917"><ele>620.5</ele><time>2026-04-26T12:22:02.196Z</time></trkpt><trkpt lat="37.62107" lon="14.9386183"><ele>621.25</ele><time>2026-04-26T12:22:03.196Z</time></trkpt><trkpt lat="37.621175" lon="14.9387567"><ele>622.0</ele><time>2026-04-26T12:22:04.196Z</time></trkpt><trkpt lat="37.62127" lon="14.9388767"><ele>623.0</ele><time>2026-04-26T12:22:05.195Z</time></trkpt><trkpt lat="37.6213567" lon="14.9389917"><ele>624.0</ele><time>2026-04-26T12:22:06.195Z</time></trkpt><trkpt lat="37.6214517" lon="14.939085"><ele>625.0</ele><time>2026-04-26T12:22:07.196Z</time></trkpt><trkpt lat="37.6215617" lon="14.9391433"><ele>626.0</ele><time>2026-04-26T12:22:08.195Z</time></trkpt><trkpt lat="37.621685" lon="14.9391733"><ele>626.0</ele><time>2026-04-26T12:22:09.195Z</time></trkpt><trkpt lat="37.62182" lon="14.93921"><ele>626.0</ele><time>2026-04-26T12:22:10.195Z</time></trkpt><trkpt lat="37.62195" lon="14.9392683"><ele>626.0</ele><time>2026-04-26T12:22:11.195Z</time></trkpt><trkpt lat="37.6220767" lon="14.9393317"><ele>626.0</ele><time>2026-04-26T12:22:12.195Z</time></trkpt><trkpt lat="37.6221967" lon="14.9394167"><ele>627.75</ele><time>2026-04-26T12:22:13.195Z</time></trkpt><trkpt lat="37.62232" lon="14.939515"><ele>629.5</ele><time>2026-04-26T12:22:14.195Z</time></trkpt><trkpt lat="37.622435" lon="14.93962"><ele>631.25</ele><time>2026-04-26T12:22:15.195Z</time></trkpt><trkpt lat="37.622525" lon="14.9397233"><ele>633.0</ele><time>2026-04-26T12:22:16.195Z</time></trkpt><trkpt lat="37.62259" lon="14.9398317"><ele>633.0</ele><time>2026-04-26T12:22:17.195Z</time></trkpt><trkpt lat="37.6226333" lon="14.9399633"><ele>633.0</ele><time>2026-04-26T12:22:18.195Z</time></trkpt><trkpt lat="37.6226683" lon="14.9401017"><ele>633.0</ele><time>2026-04-26T12:22:19.195Z</time></trkpt><trkpt lat="37.622705" lon="14.9402583"><ele>633.0</ele><time>2026-04-26T12:22:20.195Z</time></trkpt><trkpt lat="37.6227667" lon="14.94042"><ele>634.3333333333334</ele><time>2026-04-26T12:22:21.195Z</time></trkpt><trkpt lat="37.62284" lon="14.9405933"><ele>635.6666666666667</ele><time>2026-04-26T12:22:22.195Z</time></trkpt><trkpt lat="37.622925" lon="14.9407583"><ele>637.0</ele><time>2026-04-26T12:22:23.195Z</time></trkpt><trkpt lat="37.623015" lon="14.9409167"><ele>637.0</ele><time>2026-04-26T12:22:24.196Z</time></trkpt><trkpt lat="37.623115" lon="14.94106"><ele>637.0</ele><time>2026-04-26T12:22:25.195Z</time></trkpt><trkpt lat="37.6232367" lon="14.9412"><ele>637.0</ele><time>2026-04-26T12:22:26.195Z</time></trkpt><trkpt lat="37.6233767" lon="14.9413417"><ele>637.0</ele><time>2026-04-26T12:22:27.195Z</time></trkpt><trkpt lat="37.623515" lon="14.9414967"><ele>637.0</ele><time>2026-04-26T12:22:28.195Z</time></trkpt><trkpt lat="37.6236417" lon="14.9416667"><ele>637.0</ele><time>2026-04-26T12:22:29.195Z</time></trkpt><trkpt lat="37.6237617" lon="14.9418467"><ele>640.6666666666667</ele><time>2026-04-26T12:22:30.195Z</time></trkpt><trkpt lat="37.6238767" lon="14.9420133"><ele>644.3333333333334</ele><time>2026-04-26T12:22:31.196Z</time></trkpt><trkpt lat="37.62398" lon="14.942155"><ele>648.0</ele><time>2026-04-26T12:22:32.196Z</time></trkpt><trkpt lat="37.62408" lon="14.942285"><ele>648.0</ele><time>2026-04-26T12:22:33.195Z</time></trkpt><trkpt lat="37.62419" lon="14.94239"><ele>648.0</ele><time>2026-04-26T12:22:34.195Z</time></trkpt><trkpt lat="37.6243217" lon="14.9424833"><ele>648.0</ele><time>2026-04-26T12:22:35.195Z</time></trkpt><trkpt lat="37.6244667" lon="14.9425417"><ele>648.0</ele><time>2026-04-26T12:22:36.195Z</time></trkpt><trkpt lat="37.6246067" lon="14.94259"><ele>649.75</ele><time>2026-04-26T12:22:37.195Z</time></trkpt><trkpt lat="37.6247417" lon="14.9426283"><ele>651.5</ele><time>2026-04-26T12:22:38.195Z</time></trkpt><trkpt lat="37.62487" lon="14.9426617"><ele>653.25</ele><time>2026-04-26T12:22:39.195Z</time></trkpt><trkpt lat="37.624985" lon="14.94269"><ele>655.0</ele><time>2026-04-26T12:22:40.195Z</time></trkpt><trkpt lat="37.6250967" lon="14.9427167"><ele>655.0</ele><time>2026-04-26T12:22:41.195Z</time></trkpt><trkpt lat="37.6252017" lon="14.9427367"><ele>655.0</ele><time>2026-04-26T12:22:42.196Z</time></trkpt><trkpt lat="37.6253033" lon="14.94277"><ele>655.0</ele><time>2026-04-26T12:22:43.195Z</time></trkpt><trkpt lat="37.62539" lon="14.9428"><ele>655.0</ele><time>2026-04-26T12:22:44.195Z</time></trkpt><trkpt lat="37.62548" lon="14.9428483"><ele>655.0</ele><time>2026-04-26T12:22:45.195Z</time></trkpt><trkpt lat="37.6255533" lon="14.9428967"><ele>656.0</ele><time>2026-04-26T12:22:46.196Z</time></trkpt><trkpt lat="37.6256117" lon="14.94293"><ele>657.0</ele><time>2026-04-26T12:22:47.195Z</time></trkpt><trkpt lat="37.625705" lon="14.9429983"><ele>658.0</ele><time>2026-04-26T12:22:49.196Z</time></trkpt><trkpt lat="37.6257633" lon="14.94305"><ele>659.0</ele><time>2026-04-26T12:22:50.196Z</time></trkpt><trkpt lat="37.6258317" lon="14.9431167"><ele>660.0</ele><time>2026-04-26T12:22:51.195Z</time></trkpt><trkpt lat="37.6259067" lon="14.9431817"><ele>661.0</ele><time>2026-04-26T12:22:52.195Z</time></trkpt><trkpt lat="37.6260017" lon="14.9432317"><ele>661.0</ele><time>2026-04-26T12:22:53.195Z</time></trkpt><trkpt lat="37.6261133" lon="14.9432833"><ele>661.0</ele><time>2026-04-26T12:22:54.195Z</time></trkpt><trkpt lat="37.6262367" lon="14.94333"><ele>661.0</ele><time>2026-04-26T12:22:55.195Z</time></trkpt><trkpt lat="37.6263733" lon="14.9433733"><ele>661.0</ele><time>2026-04-26T12:22:56.195Z</time></trkpt><trkpt lat="37.6265267" lon="14.9434267"><ele>663.6666666666667</ele><time>2026-04-26T12:22:57.195Z</time></trkpt><trkpt lat="37.626675" lon="14.9434817"><ele>666.3333333333334</ele><time>2026-04-26T12:22:58.195Z</time></trkpt><trkpt lat="37.6268333" lon="14.9435283"><ele>669.0</ele><time>2026-04-26T12:22:59.195Z</time></trkpt><trkpt lat="37.626985" lon="14.9435967"><ele>672.6666666666666</ele><time>2026-04-26T12:23:00.195Z</time></trkpt><trkpt lat="37.6271383" lon="14.94365"><ele>676.3333333333333</ele><time>2026-04-26T12:23:01.195Z</time></trkpt><trkpt lat="37.627285" lon="14.9437167"><ele>680.0</ele><time>2026-04-26T12:23:02.196Z</time></trkpt><trkpt lat="37.6274317" lon="14.9437767"><ele>680.0</ele><time>2026-04-26T12:23:03.195Z</time></trkpt><trkpt lat="37.6275617" lon="14.9438433"><ele>680.0</ele><time>2026-04-26T12:23:04.195Z</time></trkpt><trkpt lat="37.6276767" lon="14.9439183"><ele>680.0</ele><time>2026-04-26T12:23:05.196Z</time></trkpt><trkpt lat="37.627795" lon="14.944015"><ele>680.0</ele><time>2026-04-26T12:23:06.195Z</time></trkpt><trkpt lat="37.6279083" lon="14.94413"><ele>685.0</ele><time>2026-04-26T12:23:07.195Z</time></trkpt><trkpt lat="37.6280167" lon="14.9442583"><ele>690.0</ele><time>2026-04-26T12:23:08.195Z</time></trkpt><trkpt lat="37.6281417" lon="14.9443867"><ele>695.0</ele><time>2026-04-26T12:23:09.196Z</time></trkpt><trkpt lat="37.628265" lon="14.944515"><ele>695.0</ele><time>2026-04-26T12:23:10.195Z</time></trkpt><trkpt lat="37.62839" lon="14.944645"><ele>695.0</ele><time>2026-04-26T12:23:11.195Z</time></trkpt><trkpt lat="37.628515" lon="14.94478"><ele>695.0</ele><time>2026-04-26T12:23:12.195Z</time></trkpt><trkpt lat="37.62865" lon="14.9449133"><ele>701.0</ele><time>2026-04-26T12:23:13.195Z</time></trkpt><trkpt lat="37.628785" lon="14.94505"><ele>707.0</ele><time>2026-04-26T12:23:14.195Z</time></trkpt><trkpt lat="37.6289267" lon="14.945175"><ele>713.0</ele><time>2026-04-26T12:23:15.195Z</time></trkpt><trkpt lat="37.6290567" lon="14.9452933"><ele>713.0</ele><time>2026-04-26T12:23:16.195Z</time></trkpt><trkpt lat="37.6291767" lon="14.945395"><ele>713.0</ele><time>2026-04-26T12:23:17.195Z</time></trkpt><trkpt lat="37.6292883" lon="14.9454933"><ele>713.0</ele><time>2026-04-26T12:23:18.195Z</time></trkpt><trkpt lat="37.6293883" lon="14.9456033"><ele>713.0</ele><time>2026-04-26T12:23:19.195Z</time></trkpt><trkpt lat="37.6294767" lon="14.9456983"><ele>714.5999999999999</ele><time>2026-04-26T12:23:20.195Z</time></trkpt><trkpt lat="37.629565" lon="14.9457933"><ele>716.1999999999999</ele><time>2026-04-26T12:23:21.195Z</time></trkpt><trkpt lat="37.6296517" lon="14.9458733"><ele>717.8</ele><time>2026-04-26T12:23:22.195Z</time></trkpt><trkpt lat="37.6297317" lon="14.945955"><ele>719.4</ele><time>2026-04-26T12:23:23.195Z</time></trkpt><trkpt lat="37.62981" lon="14.9460467"><ele>721.0</ele><time>2026-04-26T12:23:24.196Z</time></trkpt><trkpt lat="37.62988" lon="14.94616"><ele>722.0</ele><time>2026-04-26T12:23:25.196Z</time></trkpt><trkpt lat="37.6299517" lon="14.9462733"><ele>723.0</ele><time>2026-04-26T12:23:26.196Z</time></trkpt><trkpt lat="37.63003" lon="14.9463667"><ele>724.0</ele><time>2026-04-26T12:23:27.196Z</time></trkpt><trkpt lat="37.6301133" lon="14.9464567"><ele>725.0</ele><time>2026-04-26T12:23:28.195Z</time></trkpt><trkpt lat="37.6302017" lon="14.9465417"><ele>726.0</ele><time>2026-04-26T12:23:29.196Z</time></trkpt><trkpt lat="37.6303017" lon="14.9466217"><ele>728.0</ele><time>2026-04-26T12:23:30.195Z</time></trkpt><trkpt lat="37.6304083" lon="14.94671"><ele>730.0</ele><time>2026-04-26T12:23:31.195Z</time></trkpt><trkpt lat="37.6305217" lon="14.9468"><ele>732.0</ele><time>2026-04-26T12:23:32.196Z</time></trkpt><trkpt lat="37.6306267" lon="14.946885"><ele>734.0</ele><time>2026-04-26T12:23:33.195Z</time></trkpt><trkpt lat="37.6307433" lon="14.94696"><ele>734.0</ele><time>2026-04-26T12:23:34.196Z</time></trkpt><trkpt lat="37.6308683" lon="14.9470283"><ele>734.0</ele><time>2026-04-26T12:23:35.196Z</time></trkpt><trkpt lat="37.6310083" lon="14.9471"><ele>734.0</ele><time>2026-04-26T12:23:36.195Z</time></trkpt><trkpt lat="37.6311483" lon="14.9471617"><ele>734.0</ele><time>2026-04-26T12:23:37.195Z</time></trkpt><trkpt lat="37.6312967" lon="14.9472233"><ele>737.6666666666666</ele><time>2026-04-26T12:23:38.195Z</time></trkpt><trkpt lat="37.6314517" lon="14.9472833"><ele>741.3333333333334</ele><time>2026-04-26T12:23:39.195Z</time></trkpt><trkpt lat="37.631605" lon="14.9473383"><ele>745.0</ele><time>2026-04-26T12:23:40.196Z</time></trkpt><trkpt lat="37.631765" lon="14.9473883"><ele>745.0</ele><time>2026-04-26T12:23:41.195Z</time></trkpt><trkpt lat="37.631915" lon="14.94745"><ele>745.0</ele><time>2026-04-26T12:23:42.195Z</time></trkpt><trkpt lat="37.6320567" lon="14.9475217"><ele>745.0</ele><time>2026-04-26T12:23:43.196Z</time></trkpt><trkpt lat="37.632195" lon="14.9475983"><ele>748.0</ele><time>2026-04-26T12:23:44.196Z</time></trkpt><trkpt lat="37.6323233" lon="14.9476867"><ele>751.0</ele><time>2026-04-26T12:23:45.195Z</time></trkpt><trkpt lat="37.6324467" lon="14.9477917"><ele>754.0</ele><time>2026-04-26T12:23:46.195Z</time></trkpt><trkpt lat="37.6325633" lon="14.9479"><ele>757.0</ele><time>2026-04-26T12:23:47.196Z</time></trkpt><trkpt lat="37.6326833" lon="14.9480217"><ele>757.0</ele><time>2026-04-26T12:23:48.195Z</time></trkpt><trkpt lat="37.63279" lon="14.94816"><ele>757.0</ele><time>2026-04-26T12:23:49.195Z</time></trkpt><trkpt lat="37.6329" lon="14.94831"><ele>757.0</ele><time>2026-04-26T12:23:50.195Z</time></trkpt><trkpt lat="37.63301" lon="14.9484583"><ele>763.6666666666667</ele><time>2026-04-26T12:23:51.195Z</time></trkpt><trkpt lat="37.633115" lon="14.94861"><ele>770.3333333333334</ele><time>2026-04-26T12:23:52.195Z</time></trkpt><trkpt lat="37.633215" lon="14.94876"><ele>777.0</ele><time>2026-04-26T12:23:53.195Z</time></trkpt><trkpt lat="37.6333117" lon="14.9488983"><ele>777.0</ele><time>2026-04-26T12:23:54.195Z</time></trkpt><trkpt lat="37.6334017" lon="14.9490233"><ele>777.0</ele><time>2026-04-26T12:23:55.195Z</time></trkpt><trkpt lat="37.6334867" lon="14.9491333"><ele>777.0</ele><time>2026-04-26T12:23:56.195Z</time></trkpt><trkpt lat="37.6335567" lon="14.9492667"><ele>777.0</ele><time>2026-04-26T12:23:57.195Z</time></trkpt><trkpt lat="37.6336217" lon="14.9494"><ele>781.2</ele><time>2026-04-26T12:23:58.195Z</time></trkpt><trkpt lat="37.63368" lon="14.94952"><ele>785.4000000000001</ele><time>2026-04-26T12:23:59.195Z</time></trkpt><trkpt lat="37.63375" lon="14.9496317"><ele>789.5999999999999</ele><time>2026-04-26T12:24:00.195Z</time></trkpt><trkpt lat="37.6338167" lon="14.949715"><ele>793.8</ele><time>2026-04-26T12:24:01.195Z</time></trkpt><trkpt lat="37.6339" lon="14.9497967"><ele>798.0</ele><time>2026-04-26T12:24:02.196Z</time></trkpt><trkpt lat="37.6340033" lon="14.9498683"><ele>798.0</ele><time>2026-04-26T12:24:03.196Z</time></trkpt><trkpt lat="37.6341133" lon="14.9499433"><ele>798.0</ele><time>2026-04-26T12:24:04.195Z</time></trkpt><trkpt lat="37.634225" lon="14.95001"><ele>798.0</ele><time>2026-04-26T12:24:05.195Z</time></trkpt><trkpt lat="37.634335" lon="14.9500683"><ele>798.0</ele><time>2026-04-26T12:24:06.196Z</time></trkpt><trkpt lat="37.634425" lon="14.9501067"><ele>800.1666666666666</ele><time>2026-04-26T12:24:07.195Z</time></trkpt><trkpt lat="37.6344983" lon="14.9501367"><ele>802.3333333333333</ele><time>2026-04-26T12:24:08.195Z</time></trkpt><trkpt lat="37.634585" lon="14.95017"><ele>804.5</ele><time>2026-04-26T12:24:10.195Z</time></trkpt><trkpt lat="37.63465" lon="14.95023"><ele>806.6666666666666</ele><time>2026-04-26T12:24:13.195Z</time></trkpt><trkpt lat="37.6346983" lon="14.9503383"><ele>808.8333333333333</ele><time>2026-04-26T12:24:15.196Z</time></trkpt><trkpt lat="37.634725" lon="14.9504233"><ele>811.0</ele><time>2026-04-26T12:24:16.195Z</time></trkpt><trkpt lat="37.6347583" lon="14.95052"><ele>811.0</ele><time>2026-04-26T12:24:17.195Z</time></trkpt><trkpt lat="37.6347967" lon="14.950635"><ele>811.0</ele><time>2026-04-26T12:24:18.195Z</time></trkpt><trkpt lat="37.63484" lon="14.950765"><ele>811.0</ele><time>2026-04-26T12:24:19.195Z</time></trkpt><trkpt lat="37.63489" lon="14.9509067"><ele>811.0</ele><time>2026-04-26T12:24:20.195Z</time></trkpt><trkpt lat="37.6349417" lon="14.9510633"><ele>811.25</ele><time>2026-04-26T12:24:21.196Z</time></trkpt><trkpt lat="37.6349917" lon="14.951215"><ele>811.5</ele><time>2026-04-26T12:24:22.195Z</time></trkpt><trkpt lat="37.6350383" lon="14.95137"><ele>811.75</ele><time>2026-04-26T12:24:23.196Z</time></trkpt><trkpt lat="37.6350867" lon="14.9515267"><ele>812.0</ele><time>2026-04-26T12:24:24.195Z</time></trkpt><trkpt lat="37.635135" lon="14.95167"><ele>811.8333333333334</ele><time>2026-04-26T12:24:25.195Z</time></trkpt><trkpt lat="37.6351867" lon="14.9518017"><ele>811.6666666666667</ele><time>2026-04-26T12:24:26.195Z</time></trkpt><trkpt lat="37.6352117" lon="14.9519"><ele>811.5</ele><time>2026-04-26T12:24:27.195Z</time></trkpt><trkpt lat="37.63522" lon="14.9519833"><ele>811.3333333333333</ele><time>2026-04-26T12:24:28.195Z</time></trkpt><trkpt lat="37.6352267" lon="14.95207"><ele>811.1666666666666</ele><time>2026-04-26T12:24:29.196Z</time></trkpt><trkpt lat="37.6352167" lon="14.95218"><ele>811.0</ele><time>2026-04-26T12:24:30.195Z</time></trkpt><trkpt lat="37.6351883" lon="14.9523"><ele>811.0</ele><time>2026-04-26T12:24:31.195Z</time></trkpt><trkpt lat="37.63514" lon="14.9524467"><ele>811.0</ele><time>2026-04-26T12:24:32.195Z</time></trkpt><trkpt lat="37.6350817" lon="14.952615"><ele>811.0</ele><time>2026-04-26T12:24:33.195Z</time></trkpt><trkpt lat="37.6350083" lon="14.9528017"><ele>811.0</ele><time>2026-04-26T12:24:34.195Z</time></trkpt><trkpt lat="37.634935" lon="14.95299"><ele>811.75</ele><time>2026-04-26T12:24:35.195Z</time></trkpt><trkpt lat="37.6348817" lon="14.9531683"><ele>812.5</ele><time>2026-04-26T12:24:36.195Z</time></trkpt><trkpt lat="37.6348567" lon="14.953335"><ele>813.25</ele><time>2026-04-26T12:24:37.196Z</time></trkpt><trkpt lat="37.6348567" lon="14.9534967"><ele>814.0</ele><time>2026-04-26T12:24:38.195Z</time></trkpt><trkpt lat="37.6348983" lon="14.95367"><ele>812.5</ele><time>2026-04-26T12:24:39.195Z</time></trkpt><trkpt lat="37.634945" lon="14.9538433"><ele>811.0</ele><time>2026-04-26T12:24:40.196Z</time></trkpt><trkpt lat="37.6349917" lon="14.9540283"><ele>809.5</ele><time>2026-04-26T12:24:41.195Z</time></trkpt><trkpt lat="37.63502" lon="14.9542133"><ele>808.0</ele><time>2026-04-26T12:24:42.195Z</time></trkpt><trkpt lat="37.6350317" lon="14.9544"><ele>808.25</ele><time>2026-04-26T12:24:43.196Z</time></trkpt><trkpt lat="37.6350333" lon="14.9545833"><ele>808.5</ele><time>2026-04-26T12:24:44.195Z</time></trkpt><trkpt lat="37.6350283" lon="14.954755"><ele>808.75</ele><time>2026-04-26T12:24:45.195Z</time></trkpt><trkpt lat="37.6350067" lon="14.954915"><ele>809.0</ele><time>2026-04-26T12:24:46.195Z</time></trkpt><trkpt lat="37.6349533" lon="14.9550733"><ele>809.0</ele><time>2026-04-26T12:24:47.195Z</time></trkpt><trkpt lat="37.6348783" lon="14.9552267"><ele>809.0</ele><time>2026-04-26T12:24:48.196Z</time></trkpt><trkpt lat="37.6347767" lon="14.9553717"><ele>809.0</ele><time>2026-04-26T12:24:49.196Z</time></trkpt><trkpt lat="37.6346467" lon="14.955485"><ele>809.0</ele><time>2026-04-26T12:24:50.195Z</time></trkpt><trkpt lat="37.6344933" lon="14.95559"><ele>809.0</ele><time>2026-04-26T12:24:51.195Z</time></trkpt><trkpt lat="37.6343233" lon="14.9556867"><ele>809.0</ele><time>2026-04-26T12:24:52.195Z</time></trkpt><trkpt lat="37.6341417" lon="14.95579"><ele>806.0</ele><time>2026-04-26T12:24:53.195Z</time></trkpt><trkpt lat="37.6339567" lon="14.9558933"><ele>803.0</ele><time>2026-04-26T12:24:54.195Z</time></trkpt><trkpt lat="37.6337833" lon="14.9560033"><ele>800.0</ele><time>2026-04-26T12:24:55.195Z</time></trkpt><trkpt lat="37.6336067" lon="14.956105"><ele>796.6666666666667</ele><time>2026-04-26T12:24:56.196Z</time></trkpt><trkpt lat="37.6334267" lon="14.9561967"><ele>793.3333333333333</ele><time>2026-04-26T12:24:57.195Z</time></trkpt><trkpt lat="37.6332667" lon="14.9563083"><ele>790.0</ele><time>2026-04-26T12:24:58.195Z</time></trkpt><trkpt lat="37.633105" lon="14.9564283"><ele>790.0</ele><time>2026-04-26T12:24:59.195Z</time></trkpt><trkpt lat="37.6329617" lon="14.956565"><ele>790.0</ele><time>2026-04-26T12:25:00.195Z</time></trkpt><trkpt lat="37.6328183" lon="14.956735"><ele>790.0</ele><time>2026-04-26T12:25:01.195Z</time></trkpt><trkpt lat="37.6326883" lon="14.95694"><ele>788.6666666666666</ele><time>2026-04-26T12:25:02.195Z</time></trkpt><trkpt lat="37.6325667" lon="14.9571617"><ele>787.3333333333333</ele><time>2026-04-26T12:25:03.195Z</time></trkpt><trkpt lat="37.632455" lon="14.9573967"><ele>786.0</ele><time>2026-04-26T12:25:04.195Z</time></trkpt><trkpt lat="37.6323483" lon="14.957635"><ele>788.6666666666667</ele><time>2026-04-26T12:25:05.195Z</time></trkpt><trkpt lat="37.63223" lon="14.95787"><ele>791.3333333333334</ele><time>2026-04-26T12:25:06.196Z</time></trkpt><trkpt lat="37.6321233" lon="14.9580967"><ele>794.0</ele><time>2026-04-26T12:25:07.195Z</time></trkpt><trkpt lat="37.6320167" lon="14.9583233"><ele>792.3333333333334</ele><time>2026-04-26T12:25:08.196Z</time></trkpt><trkpt lat="37.6318983" lon="14.958545"><ele>790.6666666666667</ele><time>2026-04-26T12:25:09.195Z</time></trkpt><trkpt lat="37.6317683" lon="14.9587667"><ele>789.0</ele><time>2026-04-26T12:25:10.196Z</time></trkpt><trkpt lat="37.6316317" lon="14.9589767"><ele>789.0</ele><time>2026-04-26T12:25:11.195Z</time></trkpt><trkpt lat="37.63149" lon="14.95918"><ele>789.0</ele><time>2026-04-26T12:25:12.195Z</time></trkpt><trkpt lat="37.6313233" lon="14.9593633"><ele>789.0</ele><time>2026-04-26T12:25:13.195Z</time></trkpt><trkpt lat="37.6311417" lon="14.95954"><ele>789.6666666666667</ele><time>2026-04-26T12:25:14.195Z</time></trkpt><trkpt lat="37.630965" lon="14.9597033"><ele>790.3333333333334</ele><time>2026-04-26T12:25:15.195Z</time></trkpt><trkpt lat="37.63078" lon="14.95987"><ele>791.0</ele><time>2026-04-26T12:25:16.196Z</time></trkpt><trkpt lat="37.630595" lon="14.9600383"><ele>791.0</ele><time>2026-04-26T12:25:17.195Z</time></trkpt><trkpt lat="37.63041" lon="14.9602083"><ele>791.0</ele><time>2026-04-26T12:25:18.195Z</time></trkpt><trkpt lat="37.630225" lon="14.9603733"><ele>791.0</ele><time>2026-04-26T12:25:19.195Z</time></trkpt><trkpt lat="37.6300517" lon="14.960525"><ele>791.0</ele><time>2026-04-26T12:25:20.195Z</time></trkpt><trkpt lat="37.6298817" lon="14.9606733"><ele>791.0</ele><time>2026-04-26T12:25:21.195Z</time></trkpt><trkpt lat="37.6297267" lon="14.9608183"><ele>791.6666666666667</ele><time>2026-04-26T12:25:22.196Z</time></trkpt><trkpt lat="37.629585" lon="14.960965"><ele>792.3333333333333</ele><time>2026-04-26T12:25:23.196Z</time></trkpt><trkpt lat="37.6294667" lon="14.9611383"><ele>793.0</ele><time>2026-04-26T12:25:24.195Z</time></trkpt><trkpt lat="37.629375" lon="14.96135"><ele>793.0</ele><time>2026-04-26T12:25:25.195Z</time></trkpt><trkpt lat="37.6293033" lon="14.9615817"><ele>793.0</ele><time>2026-04-26T12:25:26.195Z</time></trkpt><trkpt lat="37.629245" lon="14.9618233"><ele>793.0</ele><time>2026-04-26T12:25:27.195Z</time></trkpt><trkpt lat="37.6291817" lon="14.9620783"><ele>794.6666666666666</ele><time>2026-04-26T12:25:28.195Z</time></trkpt><trkpt lat="37.6291133" lon="14.9623383"><ele>796.3333333333333</ele><time>2026-04-26T12:25:29.195Z</time></trkpt><trkpt lat="37.6290483" lon="14.9626033"><ele>798.0</ele><time>2026-04-26T12:25:30.196Z</time></trkpt><trkpt lat="37.6289867" lon="14.9628567"><ele>799.6666666666667</ele><time>2026-04-26T12:25:31.195Z</time></trkpt><trkpt lat="37.62892" lon="14.963115"><ele>801.3333333333334</ele><time>2026-04-26T12:25:32.195Z</time></trkpt><trkpt lat="37.62885" lon="14.96336"><ele>803.0</ele><time>2026-04-26T12:25:33.196Z</time></trkpt><trkpt lat="37.62878" lon="14.9635967"><ele>803.0</ele><time>2026-04-26T12:25:34.195Z</time></trkpt><trkpt lat="37.6286867" lon="14.9638333"><ele>803.0</ele><time>2026-04-26T12:25:35.195Z</time></trkpt><trkpt lat="37.6285817" lon="14.9640767"><ele>803.0</ele><time>2026-04-26T12:25:36.195Z</time></trkpt><trkpt lat="37.6284667" lon="14.9643167"><ele>803.0</ele><time>2026-04-26T12:25:37.195Z</time></trkpt><trkpt lat="37.6283383" lon="14.9645567"><ele>803.0</ele><time>2026-04-26T12:25:38.195Z</time></trkpt><trkpt lat="37.6282167" lon="14.9647783"><ele>803.0</ele><time>2026-04-26T12:25:39.195Z</time></trkpt><trkpt lat="37.6281" lon="14.9649983"><ele>803.6666666666667</ele><time>2026-04-26T12:25:40.195Z</time></trkpt><trkpt lat="37.6279817" lon="14.9652117"><ele>804.3333333333333</ele><time>2026-04-26T12:25:41.195Z</time></trkpt><trkpt lat="37.6278767" lon="14.965415"><ele>805.0</ele><time>2026-04-26T12:25:42.195Z</time></trkpt><trkpt lat="37.62777" lon="14.9656067"><ele>805.0</ele><time>2026-04-26T12:25:43.195Z</time></trkpt><trkpt lat="37.62767" lon="14.9657867"><ele>805.0</ele><time>2026-04-26T12:25:44.195Z</time></trkpt><trkpt lat="37.627575" lon="14.96595"><ele>805.0</ele><time>2026-04-26T12:25:45.195Z</time></trkpt><trkpt lat="37.6274583" lon="14.96609"><ele>806.0</ele><time>2026-04-26T12:25:46.195Z</time></trkpt><trkpt lat="37.6273217" lon="14.9661783"><ele>807.0</ele><time>2026-04-26T12:25:47.196Z</time></trkpt><trkpt lat="37.6271633" lon="14.9662267"><ele>808.0</ele><time>2026-04-26T12:25:48.195Z</time></trkpt><trkpt lat="37.6270017" lon="14.9662317"><ele>807.3333333333333</ele><time>2026-04-26T12:25:49.195Z</time></trkpt><trkpt lat="37.6268317" lon="14.9662217"><ele>806.6666666666667</ele><time>2026-04-26T12:25:50.195Z</time></trkpt><trkpt lat="37.62666" lon="14.966225"><ele>806.0</ele><time>2026-04-26T12:25:51.195Z</time></trkpt><trkpt lat="37.62649" lon="14.966235"><ele>806.0</ele><time>2026-04-26T12:25:52.195Z</time></trkpt><trkpt lat="37.6263217" lon="14.9662617"><ele>806.0</ele><time>2026-04-26T12:25:53.196Z</time></trkpt><trkpt lat="37.6261583" lon="14.966315"><ele>806.0</ele><time>2026-04-26T12:25:54.195Z</time></trkpt><trkpt lat="37.6260083" lon="14.9664167"><ele>804.3333333333334</ele><time>2026-04-26T12:25:55.195Z</time></trkpt><trkpt lat="37.6258717" lon="14.9665583"><ele>802.6666666666667</ele><time>2026-04-26T12:25:56.195Z</time></trkpt><trkpt lat="37.6257483" lon="14.9667433"><ele>801.0</ele><time>2026-04-26T12:25:57.195Z</time></trkpt><trkpt lat="37.62562" lon="14.966935"><ele>801.0</ele><time>2026-04-26T12:25:58.195Z</time></trkpt><trkpt lat="37.6254817" lon="14.9671183"><ele>801.0</ele><time>2026-04-26T12:25:59.195Z</time></trkpt><trkpt lat="37.6253467" lon="14.9673017"><ele>801.0</ele><time>2026-04-26T12:26:00.195Z</time></trkpt><trkpt lat="37.6252117" lon="14.96749"><ele>799.6666666666667</ele><time>2026-04-26T12:26:01.195Z</time></trkpt><trkpt lat="37.6250767" lon="14.967675"><ele>798.3333333333334</ele><time>2026-04-26T12:26:02.195Z</time></trkpt><trkpt lat="37.6249517" lon="14.96786"><ele>797.0</ele><time>2026-04-26T12:26:03.195Z</time></trkpt><trkpt lat="37.6248217" lon="14.9680417"><ele>797.0</ele><time>2026-04-26T12:26:04.195Z</time></trkpt><trkpt lat="37.6246917" lon="14.9682233"><ele>797.0</ele><time>2026-04-26T12:26:05.195Z</time></trkpt><trkpt lat="37.6245567" lon="14.9684117"><ele>797.0</ele><time>2026-04-26T12:26:06.196Z</time></trkpt><trkpt lat="37.624425" lon="14.9686067"><ele>795.6666666666667</ele><time>2026-04-26T12:26:07.195Z</time></trkpt><trkpt lat="37.624285" lon="14.9687933"><ele>794.3333333333333</ele><time>2026-04-26T12:26:08.195Z</time></trkpt><trkpt lat="37.62415" lon="14.9689783"><ele>793.0</ele><time>2026-04-26T12:26:09.196Z</time></trkpt><trkpt lat="37.624015" lon="14.9691733"><ele>793.6666666666666</ele><time>2026-04-26T12:26:10.195Z</time></trkpt><trkpt lat="37.62388" lon="14.9693667"><ele>794.3333333333333</ele><time>2026-04-26T12:26:11.195Z</time></trkpt><trkpt lat="37.6237417" lon="14.9695567"><ele>795.0</ele><time>2026-04-26T12:26:12.196Z</time></trkpt><trkpt lat="37.6236167" lon="14.9697617"><ele>793.3333333333333</ele><time>2026-04-26T12:26:13.195Z</time></trkpt><trkpt lat="37.6234917" lon="14.96997"><ele>791.6666666666666</ele><time>2026-04-26T12:26:14.195Z</time></trkpt><trkpt lat="37.623375" lon="14.97019"><ele>790.0</ele><time>2026-04-26T12:26:15.195Z</time></trkpt><trkpt lat="37.6232683" lon="14.9704117"><ele>790.0</ele><time>2026-04-26T12:26:16.196Z</time></trkpt><trkpt lat="37.6231633" lon="14.97064"><ele>790.0</ele><time>2026-04-26T12:26:17.196Z</time></trkpt><trkpt lat="37.6230533" lon="14.9708667"><ele>790.0</ele><time>2026-04-26T12:26:18.195Z</time></trkpt><trkpt lat="37.6229517" lon="14.9710917"><ele>791.3333333333333</ele><time>2026-04-26T12:26:19.196Z</time></trkpt><trkpt lat="37.6228617" lon="14.9713333"><ele>792.6666666666667</ele><time>2026-04-26T12:26:20.195Z</time></trkpt><trkpt lat="37.6228" lon="14.9715817"><ele>794.0</ele><time>2026-04-26T12:26:21.195Z</time></trkpt><trkpt lat="37.6227567" lon="14.971835"><ele>792.3333333333334</ele><time>2026-04-26T12:26:22.195Z</time></trkpt><trkpt lat="37.6227283" lon="14.972095"><ele>790.6666666666667</ele><time>2026-04-26T12:26:23.195Z</time></trkpt><trkpt lat="37.622715" lon="14.9723433"><ele>789.0</ele><time>2026-04-26T12:26:24.195Z</time></trkpt><trkpt lat="37.6227033" lon="14.9725767"><ele>789.0</ele><time>2026-04-26T12:26:25.196Z</time></trkpt><trkpt lat="37.6226867" lon="14.9728"><ele>789.0</ele><time>2026-04-26T12:26:26.196Z</time></trkpt><trkpt lat="37.6226667" lon="14.9729983"><ele>789.0</ele><time>2026-04-26T12:26:27.196Z</time></trkpt><trkpt lat="37.6226167" lon="14.9732017"><ele>791.3333333333333</ele><time>2026-04-26T12:26:28.196Z</time></trkpt><trkpt lat="37.6225383" lon="14.9733933"><ele>793.6666666666666</ele><time>2026-04-26T12:26:29.195Z</time></trkpt><trkpt lat="37.6224433" lon="14.9736"><ele>796.0</ele><time>2026-04-26T12:26:30.195Z</time></trkpt><trkpt lat="37.6223267" lon="14.97381"><ele>796.0</ele><time>2026-04-26T12:26:31.195Z</time></trkpt><trkpt lat="37.62221" lon="14.974035"><ele>796.0</ele><time>2026-04-26T12:26:32.195Z</time></trkpt><trkpt lat="37.6220933" lon="14.9742633"><ele>796.0</ele><time>2026-04-26T12:26:33.195Z</time></trkpt><trkpt lat="37.62198" lon="14.97449"><ele>796.0</ele><time>2026-04-26T12:26:34.195Z</time></trkpt><trkpt lat="37.6218633" lon="14.9747217"><ele>796.0</ele><time>2026-04-26T12:26:35.195Z</time></trkpt><trkpt lat="37.62175" lon="14.974955"><ele>796.0</ele><time>2026-04-26T12:26:36.195Z</time></trkpt><trkpt lat="37.6216483" lon="14.97519"><ele>796.0</ele><time>2026-04-26T12:26:37.195Z</time></trkpt><trkpt lat="37.6215567" lon="14.9754217"><ele>796.0</ele><time>2026-04-26T12:26:38.195Z</time></trkpt><trkpt lat="37.6214783" lon="14.9756483"><ele>796.0</ele><time>2026-04-26T12:26:39.195Z</time></trkpt><trkpt lat="37.6214033" lon="14.9758683"><ele>794.3333333333333</ele><time>2026-04-26T12:26:40.195Z</time></trkpt><trkpt lat="37.621325" lon="14.9760917"><ele>792.6666666666667</ele><time>2026-04-26T12:26:41.195Z</time></trkpt><trkpt lat="37.6212467" lon="14.9763283"><ele>791.0</ele><time>2026-04-26T12:26:42.195Z</time></trkpt><trkpt lat="37.62116" lon="14.9765633"><ele>787.3333333333334</ele><time>2026-04-26T12:26:43.196Z</time></trkpt><trkpt lat="37.62107" lon="14.976795"><ele>783.6666666666667</ele><time>2026-04-26T12:26:44.195Z</time></trkpt><trkpt lat="37.6209667" lon="14.9770183"><ele>780.0</ele><time>2026-04-26T12:26:45.195Z</time></trkpt><trkpt lat="37.62086" lon="14.9772183"><ele>780.0</ele><time>2026-04-26T12:26:46.195Z</time></trkpt><trkpt lat="37.6207533" lon="14.97742"><ele>780.0</ele><time>2026-04-26T12:26:47.195Z</time></trkpt><trkpt lat="37.6206683" lon="14.9776283"><ele>780.0</ele><time>2026-04-26T12:26:48.195Z</time></trkpt><trkpt lat="37.6205967" lon="14.9778583"><ele>779.3333333333333</ele><time>2026-04-26T12:26:49.195Z</time></trkpt><trkpt lat="37.62055" lon="14.978115"><ele>778.6666666666666</ele><time>2026-04-26T12:26:50.196Z</time></trkpt><trkpt lat="37.6205133" lon="14.9783983"><ele>778.0</ele><time>2026-04-26T12:26:51.195Z</time></trkpt><trkpt lat="37.6204867" lon="14.9787"><ele>778.0</ele><time>2026-04-26T12:26:52.195Z</time></trkpt><trkpt lat="37.62045" lon="14.9790033"><ele>778.0</ele><time>2026-04-26T12:26:53.195Z</time></trkpt><trkpt lat="37.620415" lon="14.9793217"><ele>780.0</ele><time>2026-04-26T12:26:54.195Z</time></trkpt><trkpt lat="37.6203817" lon="14.9796483"><ele>782.0</ele><time>2026-04-26T12:26:55.195Z</time></trkpt><trkpt lat="37.620345" lon="14.979975"><ele>779.5</ele><time>2026-04-26T12:26:56.196Z</time></trkpt><trkpt lat="37.6203117" lon="14.98029"><ele>777.0</ele><time>2026-04-26T12:26:57.195Z</time></trkpt><trkpt lat="37.6202833" lon="14.9805933"><ele>776.5</ele><time>2026-04-26T12:26:58.195Z</time></trkpt><trkpt lat="37.6202517" lon="14.9808833"><ele>776.0</ele><time>2026-04-26T12:26:59.195Z</time></trkpt><trkpt lat="37.6202267" lon="14.9811617"><ele>776.0</ele><time>2026-04-26T12:27:00.195Z</time></trkpt><trkpt lat="37.6202017" lon="14.981435"><ele>776.0</ele><time>2026-04-26T12:27:01.195Z</time></trkpt><trkpt lat="37.62018" lon="14.981705"><ele>776.0</ele><time>2026-04-26T12:27:02.195Z</time></trkpt><trkpt lat="37.6201733" lon="14.9819833"><ele>777.3333333333334</ele><time>2026-04-26T12:27:03.195Z</time></trkpt><trkpt lat="37.6201917" lon="14.9822683"><ele>778.6666666666667</ele><time>2026-04-26T12:27:04.195Z</time></trkpt><trkpt lat="37.6202183" lon="14.9825467"><ele>780.0</ele><time>2026-04-26T12:27:05.195Z</time></trkpt><trkpt lat="37.620245" lon="14.9828133"><ele>780.3333333333333</ele><time>2026-04-26T12:27:06.195Z</time></trkpt><trkpt lat="37.6202717" lon="14.9830667"><ele>780.6666666666666</ele><time>2026-04-26T12:27:07.196Z</time></trkpt><trkpt lat="37.620285" lon="14.983315"><ele>781.0</ele><time>2026-04-26T12:27:08.195Z</time></trkpt><trkpt lat="37.6202917" lon="14.9835833"><ele>781.0</ele><time>2026-04-26T12:27:09.195Z</time></trkpt><trkpt lat="37.6202867" lon="14.98384"><ele>781.0</ele><time>2026-04-26T12:27:10.195Z</time></trkpt><trkpt lat="37.620275" lon="14.9840733"><ele>781.0</ele><time>2026-04-26T12:27:11.195Z</time></trkpt><trkpt lat="37.620265" lon="14.9842967"><ele>781.0</ele><time>2026-04-26T12:27:12.195Z</time></trkpt><trkpt lat="37.6202467" lon="14.9845133"><ele>781.0</ele><time>2026-04-26T12:27:13.195Z</time></trkpt><trkpt lat="37.6202317" lon="14.984705"><ele>781.0</ele><time>2026-04-26T12:27:14.195Z</time></trkpt><trkpt lat="37.6202183" lon="14.9848783"><ele>781.0</ele><time>2026-04-26T12:27:15.196Z</time></trkpt><trkpt lat="37.6201967" lon="14.9850167"><ele>781.0</ele><time>2026-04-26T12:27:16.196Z</time></trkpt><trkpt lat="37.6201733" lon="14.9851367"><ele>781.0</ele><time>2026-04-26T12:27:17.195Z</time></trkpt><trkpt lat="37.6201433" lon="14.9852433"><ele>781.0</ele><time>2026-04-26T12:27:18.195Z</time></trkpt><trkpt lat="37.6201133" lon="14.9853583"><ele>781.0</ele><time>2026-04-26T12:27:19.195Z</time></trkpt><trkpt lat="37.6201033" lon="14.9854617"><ele>781.0</ele><time>2026-04-26T12:27:20.195Z</time></trkpt><trkpt lat="37.620115" lon="14.9855717"><ele>781.0</ele><time>2026-04-26T12:27:21.195Z</time></trkpt><trkpt lat="37.6201383" lon="14.9856783"><ele>781.0</ele><time>2026-04-26T12:27:22.195Z</time></trkpt><trkpt lat="37.62015" lon="14.9858033"><ele>781.0</ele><time>2026-04-26T12:27:23.195Z</time></trkpt><trkpt lat="37.620145" lon="14.985955"><ele>781.0</ele><time>2026-04-26T12:27:24.195Z</time></trkpt><trkpt lat="37.62014" lon="14.9861333"><ele>781.3333333333333</ele><time>2026-04-26T12:27:25.195Z</time></trkpt><trkpt lat="37.6201283" lon="14.9863283"><ele>781.6666666666667</ele><time>2026-04-26T12:27:26.195Z</time></trkpt><trkpt lat="37.6201217" lon="14.986535"><ele>782.0</ele><time>2026-04-26T12:27:27.195Z</time></trkpt><trkpt lat="37.62013" lon="14.9867467"><ele>782.3333333333334</ele><time>2026-04-26T12:27:28.195Z</time></trkpt><trkpt lat="37.62016" lon="14.98696"><ele>782.6666666666667</ele><time>2026-04-26T12:27:29.195Z</time></trkpt><trkpt lat="37.62022" lon="14.9871817"><ele>783.0</ele><time>2026-04-26T12:27:30.195Z</time></trkpt><trkpt lat="37.6203067" lon="14.9873933"><ele>784.3333333333333</ele><time>2026-04-26T12:27:31.195Z</time></trkpt><trkpt lat="37.6204067" lon="14.9875967"><ele>785.6666666666666</ele><time>2026-04-26T12:27:32.195Z</time></trkpt><trkpt lat="37.6204983" lon="14.9877767"><ele>787.0</ele><time>2026-04-26T12:27:33.195Z</time></trkpt><trkpt lat="37.6205767" lon="14.9879633"><ele>787.0</ele><time>2026-04-26T12:27:34.195Z</time></trkpt><trkpt lat="37.6206283" lon="14.988165"><ele>787.0</ele><time>2026-04-26T12:27:35.195Z</time></trkpt><trkpt lat="37.6206533" lon="14.9883583"><ele>787.0</ele><time>2026-04-26T12:27:36.195Z</time></trkpt><trkpt lat="37.6206517" lon="14.9885633"><ele>788.3333333333333</ele><time>2026-04-26T12:27:37.196Z</time></trkpt><trkpt lat="37.6206317" lon="14.9887667"><ele>789.6666666666667</ele><time>2026-04-26T12:27:38.195Z</time></trkpt><trkpt lat="37.6205883" lon="14.9889917"><ele>791.0</ele><time>2026-04-26T12:27:39.196Z</time></trkpt><trkpt lat="37.62052" lon="14.9892083"><ele>792.3333333333334</ele><time>2026-04-26T12:27:40.195Z</time></trkpt><trkpt lat="37.6204567" lon="14.9894283"><ele>793.6666666666667</ele><time>2026-04-26T12:27:41.196Z</time></trkpt><trkpt lat="37.62039" lon="14.9896317"><ele>795.0</ele><time>2026-04-26T12:27:42.195Z</time></trkpt><trkpt lat="37.620325" lon="14.9898417"><ele>793.6666666666667</ele><time>2026-04-26T12:27:43.195Z</time></trkpt><trkpt lat="37.620265" lon="14.9900467"><ele>792.3333333333334</ele><time>2026-04-26T12:27:44.195Z</time></trkpt><trkpt lat="37.6202067" lon="14.9902433"><ele>791.0</ele><time>2026-04-26T12:27:45.195Z</time></trkpt><trkpt lat="37.6201483" lon="14.99044"><ele>791.0</ele><time>2026-04-26T12:27:46.195Z</time></trkpt><trkpt lat="37.6200917" lon="14.9906267"><ele>791.0</ele><time>2026-04-26T12:27:47.195Z</time></trkpt><trkpt lat="37.6200267" lon="14.990825"><ele>791.0</ele><time>2026-04-26T12:27:48.195Z</time></trkpt><trkpt lat="37.6199633" lon="14.9910283"><ele>790.3333333333334</ele><time>2026-04-26T12:27:49.195Z</time></trkpt><trkpt lat="37.6199" lon="14.9912317"><ele>789.6666666666667</ele><time>2026-04-26T12:27:50.196Z</time></trkpt><trkpt lat="37.6198417" lon="14.991435"><ele>789.0</ele><time>2026-04-26T12:27:51.195Z</time></trkpt><trkpt lat="37.6197833" lon="14.99164"><ele>789.0</ele><time>2026-04-26T12:27:52.195Z</time></trkpt><trkpt lat="37.619725" lon="14.9918317"><ele>789.0</ele><time>2026-04-26T12:27:53.195Z</time></trkpt><trkpt lat="37.61967" lon="14.9920333"><ele>789.0</ele><time>2026-04-26T12:27:54.195Z</time></trkpt><trkpt lat="37.619615" lon="14.9922383"><ele>789.0</ele><time>2026-04-26T12:27:55.195Z</time></trkpt><trkpt lat="37.61956" lon="14.9924417"><ele>789.0</ele><time>2026-04-26T12:27:56.195Z</time></trkpt><trkpt lat="37.6195167" lon="14.99264"><ele>789.0</ele><time>2026-04-26T12:27:57.195Z</time></trkpt><trkpt lat="37.6194967" lon="14.9928283"><ele>789.0</ele><time>2026-04-26T12:27:58.195Z</time></trkpt><trkpt lat="37.6195033" lon="14.9930183"><ele>789.0</ele><time>2026-04-26T12:27:59.195Z</time></trkpt><trkpt lat="37.61953" lon="14.9932033"><ele>789.0</ele><time>2026-04-26T12:28:00.195Z</time></trkpt><trkpt lat="37.6195767" lon="14.9933967"><ele>788.0</ele><time>2026-04-26T12:28:01.195Z</time></trkpt><trkpt lat="37.6196283" lon="14.993585"><ele>787.0</ele><time>2026-04-26T12:28:02.196Z</time></trkpt><trkpt lat="37.61968" lon="14.9937633"><ele>786.0</ele><time>2026-04-26T12:28:03.195Z</time></trkpt><trkpt lat="37.6197333" lon="14.9939433"><ele>786.0</ele><time>2026-04-26T12:28:04.195Z</time></trkpt><trkpt lat="37.6197867" lon="14.994125"><ele>786.0</ele><time>2026-04-26T12:28:05.195Z</time></trkpt><trkpt lat="37.61984" lon="14.9942967"><ele>786.0</ele><time>2026-04-26T12:28:06.196Z</time></trkpt><trkpt lat="37.6198867" lon="14.9944633"><ele>786.0</ele><time>2026-04-26T12:28:07.195Z</time></trkpt><trkpt lat="37.619935" lon="14.9946367"><ele>786.0</ele><time>2026-04-26T12:28:08.195Z</time></trkpt><trkpt lat="37.619985" lon="14.9948133"><ele>786.0</ele><time>2026-04-26T12:28:09.195Z</time></trkpt><trkpt lat="37.6200283" lon="14.994995"><ele>786.0</ele><time>2026-04-26T12:28:10.196Z</time></trkpt><trkpt lat="37.620065" lon="14.9951617"><ele>786.0</ele><time>2026-04-26T12:28:11.195Z</time></trkpt><trkpt lat="37.62009" lon="14.99533"><ele>785.5</ele><time>2026-04-26T12:28:12.195Z</time></trkpt><trkpt lat="37.620105" lon="14.9955033"><ele>785.0</ele><time>2026-04-26T12:28:13.196Z</time></trkpt><trkpt lat="37.6201033" lon="14.995685"><ele>784.5</ele><time>2026-04-26T12:28:14.195Z</time></trkpt><trkpt lat="37.6200917" lon="14.9958617"><ele>784.0</ele><time>2026-04-26T12:28:15.195Z</time></trkpt><trkpt lat="37.620065" lon="14.9960367"><ele>784.0</ele><time>2026-04-26T12:28:16.195Z</time></trkpt><trkpt lat="37.6200267" lon="14.9962167"><ele>784.0</ele><time>2026-04-26T12:28:17.195Z</time></trkpt><trkpt lat="37.6199767" lon="14.9964083"><ele>784.0</ele><time>2026-04-26T12:28:18.195Z</time></trkpt><trkpt lat="37.6199217" lon="14.99661"><ele>784.0</ele><time>2026-04-26T12:28:19.195Z</time></trkpt><trkpt lat="37.619875" lon="14.9967983"><ele>784.0</ele><time>2026-04-26T12:28:20.195Z</time></trkpt><trkpt lat="37.6198283" lon="14.9969767"><ele>784.0</ele><time>2026-04-26T12:28:21.195Z</time></trkpt><trkpt lat="37.6197783" lon="14.9971583"><ele>784.0</ele><time>2026-04-26T12:28:22.195Z</time></trkpt><trkpt lat="37.619725" lon="14.9973517"><ele>784.0</ele><time>2026-04-26T12:28:23.195Z</time></trkpt><trkpt lat="37.6196767" lon="14.9975417"><ele>784.0</ele><time>2026-04-26T12:28:24.195Z</time></trkpt><trkpt lat="37.6196267" lon="14.99774"><ele>782.6666666666666</ele><time>2026-04-26T12:28:25.195Z</time></trkpt><trkpt lat="37.61957" lon="14.9979567"><ele>781.3333333333333</ele><time>2026-04-26T12:28:26.195Z</time></trkpt><trkpt lat="37.6195183" lon="14.9981817"><ele>780.0</ele><time>2026-04-26T12:28:27.195Z</time></trkpt><trkpt lat="37.6194533" lon="14.99842"><ele>776.3333333333333</ele><time>2026-04-26T12:28:28.195Z</time></trkpt><trkpt lat="37.61938" lon="14.9986833"><ele>772.6666666666666</ele><time>2026-04-26T12:28:29.195Z</time></trkpt><trkpt lat="37.6193117" lon="14.9989333"><ele>769.0</ele><time>2026-04-26T12:28:30.195Z</time></trkpt><trkpt lat="37.6192533" lon="14.9991567"><ele>769.0</ele><time>2026-04-26T12:28:31.195Z</time></trkpt><trkpt lat="37.6192" lon="14.9993667"><ele>769.0</ele><time>2026-04-26T12:28:32.196Z</time></trkpt><trkpt lat="37.6191483" lon="14.999575"><ele>769.0</ele><time>2026-04-26T12:28:33.196Z</time></trkpt><trkpt lat="37.619095" lon="14.999795"><ele>769.0</ele><time>2026-04-26T12:28:34.195Z</time></trkpt><trkpt lat="37.6190317" lon="15.0000317"><ele>769.0</ele><time>2026-04-26T12:28:35.195Z</time></trkpt><trkpt lat="37.6189633" lon="15.0002783"><ele>769.0</ele><time>2026-04-26T12:28:36.196Z</time></trkpt><trkpt lat="37.61889" lon="15.000525"><ele>769.0</ele><time>2026-04-26T12:28:37.195Z</time></trkpt><trkpt lat="37.6188217" lon="15.0007767"><ele>769.0</ele><time>2026-04-26T12:28:38.195Z</time></trkpt><trkpt lat="37.6187533" lon="15.0010217"><ele>769.0</ele><time>2026-04-26T12:28:39.195Z</time></trkpt><trkpt lat="37.6186817" lon="15.001265"><ele>764.3333333333333</ele><time>2026-04-26T12:28:40.196Z</time></trkpt><trkpt lat="37.618615" lon="15.0015167"><ele>759.6666666666666</ele><time>2026-04-26T12:28:41.195Z</time></trkpt><trkpt lat="37.618545" lon="15.0017517"><ele>755.0</ele><time>2026-04-26T12:28:42.195Z</time></trkpt><trkpt lat="37.6184817" lon="15.00198"><ele>755.0</ele><time>2026-04-26T12:28:43.196Z</time></trkpt><trkpt lat="37.6184" lon="15.0021967"><ele>755.0</ele><time>2026-04-26T12:28:44.195Z</time></trkpt><trkpt lat="37.6183067" lon="15.0024017"><ele>755.0</ele><time>2026-04-26T12:28:45.195Z</time></trkpt><trkpt lat="37.6181917" lon="15.0025833"><ele>757.6666666666666</ele><time>2026-04-26T12:28:46.195Z</time></trkpt><trkpt lat="37.6180617" lon="15.0027533"><ele>760.3333333333334</ele><time>2026-04-26T12:28:47.196Z</time></trkpt><trkpt lat="37.6179267" lon="15.0029217"><ele>763.0</ele><time>2026-04-26T12:28:48.196Z</time></trkpt><trkpt lat="37.6177967" lon="15.00308"><ele>758.6666666666667</ele><time>2026-04-26T12:28:49.195Z</time></trkpt><trkpt lat="37.61766" lon="15.0032217"><ele>754.3333333333334</ele><time>2026-04-26T12:28:50.195Z</time></trkpt><trkpt lat="37.6175267" lon="15.0033667"><ele>750.0</ele><time>2026-04-26T12:28:51.195Z</time></trkpt><trkpt lat="37.6174017" lon="15.00351"><ele>750.0</ele><time>2026-04-26T12:28:52.195Z</time></trkpt><trkpt lat="37.6172917" lon="15.0036583"><ele>750.0</ele><time>2026-04-26T12:28:53.195Z</time></trkpt><trkpt lat="37.6172033" lon="15.0038233"><ele>750.0</ele><time>2026-04-26T12:28:54.195Z</time></trkpt><trkpt lat="37.6171267" lon="15.0040067"><ele>750.3333333333334</ele><time>2026-04-26T12:28:55.196Z</time></trkpt><trkpt lat="37.6170767" lon="15.0042117"><ele>750.6666666666667</ele><time>2026-04-26T12:28:56.196Z</time></trkpt><trkpt lat="37.6170533" lon="15.0044383"><ele>751.0</ele><time>2026-04-26T12:28:57.196Z</time></trkpt><trkpt lat="37.617035" lon="15.00468"><ele>751.0</ele><time>2026-04-26T12:28:58.195Z</time></trkpt><trkpt lat="37.6170233" lon="15.0049317"><ele>751.0</ele><time>2026-04-26T12:28:59.195Z</time></trkpt><trkpt lat="37.6170083" lon="15.0051867"><ele>751.0</ele><time>2026-04-26T12:29:00.196Z</time></trkpt><trkpt lat="37.61699" lon="15.0054433"><ele>745.6666666666667</ele><time>2026-04-26T12:29:01.196Z</time></trkpt><trkpt lat="37.6169767" lon="15.005705"><ele>740.3333333333334</ele><time>2026-04-26T12:29:02.195Z</time></trkpt><trkpt lat="37.616955" lon="15.0059617"><ele>735.0</ele><time>2026-04-26T12:29:03.196Z</time></trkpt><trkpt lat="37.61694" lon="15.0062167"><ele>734.3333333333334</ele><time>2026-04-26T12:29:04.195Z</time></trkpt><trkpt lat="37.6169217" lon="15.006465"><ele>733.6666666666667</ele><time>2026-04-26T12:29:05.195Z</time></trkpt><trkpt lat="37.61691" lon="15.0066983"><ele>733.0</ele><time>2026-04-26T12:29:06.195Z</time></trkpt><trkpt lat="37.6168983" lon="15.0069217"><ele>731.3333333333334</ele><time>2026-04-26T12:29:07.195Z</time></trkpt><trkpt lat="37.6168783" lon="15.007145"><ele>729.6666666666666</ele><time>2026-04-26T12:29:08.195Z</time></trkpt><trkpt lat="37.616845" lon="15.0073633"><ele>728.0</ele><time>2026-04-26T12:29:09.195Z</time></trkpt><trkpt lat="37.6167817" lon="15.0075917"><ele>728.0</ele><time>2026-04-26T12:29:10.195Z</time></trkpt><trkpt lat="37.6167017" lon="15.00781"><ele>728.0</ele><time>2026-04-26T12:29:11.195Z</time></trkpt><trkpt lat="37.61661" lon="15.0080333"><ele>728.0</ele><time>2026-04-26T12:29:12.196Z</time></trkpt><trkpt lat="37.6165083" lon="15.0082583"><ele>732.3333333333333</ele><time>2026-04-26T12:29:13.196Z</time></trkpt><trkpt lat="37.6163983" lon="15.00849"><ele>736.6666666666666</ele><time>2026-04-26T12:29:14.195Z</time></trkpt><trkpt lat="37.6162817" lon="15.008725"><ele>741.0</ele><time>2026-04-26T12:29:15.195Z</time></trkpt><trkpt lat="37.6161667" lon="15.0089583"><ele>737.0</ele><time>2026-04-26T12:29:16.195Z</time></trkpt><trkpt lat="37.6160533" lon="15.009185"><ele>733.0</ele><time>2026-04-26T12:29:17.196Z</time></trkpt><trkpt lat="37.615945" lon="15.0094017"><ele>729.0</ele><time>2026-04-26T12:29:18.196Z</time></trkpt><trkpt lat="37.6158483" lon="15.0096117"><ele>729.0</ele><time>2026-04-26T12:29:19.195Z</time></trkpt><trkpt lat="37.6157533" lon="15.0098233"><ele>729.0</ele><time>2026-04-26T12:29:20.195Z</time></trkpt><trkpt lat="37.6156733" lon="15.0100433"><ele>729.0</ele><time>2026-04-26T12:29:21.195Z</time></trkpt><trkpt lat="37.6156083" lon="15.0102617"><ele>735.0</ele><time>2026-04-26T12:29:22.195Z</time></trkpt><trkpt lat="37.615565" lon="15.0104883"><ele>741.0</ele><time>2026-04-26T12:29:23.195Z</time></trkpt><trkpt lat="37.6155367" lon="15.01072"><ele>747.0</ele><time>2026-04-26T12:29:24.195Z</time></trkpt><trkpt lat="37.61553" lon="15.010955"><ele>751.6666666666666</ele><time>2026-04-26T12:29:25.195Z</time></trkpt><trkpt lat="37.61553" lon="15.0111983"><ele>756.3333333333333</ele><time>2026-04-26T12:29:26.195Z</time></trkpt><trkpt lat="37.615535" lon="15.0114417"><ele>761.0</ele><time>2026-04-26T12:29:27.195Z</time></trkpt><trkpt lat="37.6155383" lon="15.0116883"><ele>762.6666666666666</ele><time>2026-04-26T12:29:28.195Z</time></trkpt><trkpt lat="37.6155417" lon="15.01194"><ele>764.3333333333334</ele><time>2026-04-26T12:29:29.195Z</time></trkpt><trkpt lat="37.61554" lon="15.012185"><ele>766.0</ele><time>2026-04-26T12:29:30.195Z</time></trkpt><trkpt lat="37.61554" lon="15.0124283"><ele>765.0</ele><time>2026-04-26T12:29:31.194Z</time></trkpt><trkpt lat="37.61555" lon="15.012685"><ele>764.0</ele><time>2026-04-26T12:29:32.194Z</time></trkpt><trkpt lat="37.61555" lon="15.01293"><ele>763.0</ele><time>2026-04-26T12:29:33.195Z</time></trkpt><trkpt lat="37.61555" lon="15.013175"><ele>763.6666666666667</ele><time>2026-04-26T12:29:34.195Z</time></trkpt><trkpt lat="37.6155517" lon="15.013425"><ele>764.3333333333334</ele><time>2026-04-26T12:29:35.194Z</time></trkpt><trkpt lat="37.6155517" lon="15.0136717"><ele>765.0</ele><time>2026-04-26T12:29:36.194Z</time></trkpt><trkpt lat="37.61555" lon="15.013925"><ele>764.6666666666666</ele><time>2026-04-26T12:29:37.195Z</time></trkpt><trkpt lat="37.615555" lon="15.0141817"><ele>764.3333333333333</ele><time>2026-04-26T12:29:38.195Z</time></trkpt><trkpt lat="37.6155567" lon="15.014425"><ele>764.0</ele><time>2026-04-26T12:29:39.194Z</time></trkpt><trkpt lat="37.61556" lon="15.0146583"><ele>764.0</ele><time>2026-04-26T12:29:40.194Z</time></trkpt><trkpt lat="37.6155617" lon="15.0148833"><ele>764.0</ele><time>2026-04-26T12:29:41.194Z</time></trkpt><trkpt lat="37.6155617" lon="15.0151033"><ele>764.0</ele><time>2026-04-26T12:29:42.195Z</time></trkpt><trkpt lat="37.61556" lon="15.0153067"><ele>763.75</ele><time>2026-04-26T12:29:43.194Z</time></trkpt><trkpt lat="37.615555" lon="15.0154983"><ele>763.5</ele><time>2026-04-26T12:29:44.195Z</time></trkpt><trkpt lat="37.6155617" lon="15.0156733"><ele>763.25</ele><time>2026-04-26T12:29:45.194Z</time></trkpt><trkpt lat="37.6155633" lon="15.0158283"><ele>763.0</ele><time>2026-04-26T12:29:46.194Z</time></trkpt><trkpt lat="37.615555" lon="15.0159617"><ele>762.5</ele><time>2026-04-26T12:29:47.194Z</time></trkpt><trkpt lat="37.615535" lon="15.01607"><ele>762.0</ele><time>2026-04-26T12:29:48.195Z</time></trkpt><trkpt lat="37.6155" lon="15.016165"><ele>761.5</ele><time>2026-04-26T12:29:49.195Z</time></trkpt><trkpt lat="37.61545" lon="15.0162317"><ele>761.0</ele><time>2026-04-26T12:29:50.194Z</time></trkpt><trkpt lat="37.615405" lon="15.0163033"><ele>760.5</ele><time>2026-04-26T12:29:51.194Z</time></trkpt><trkpt lat="37.61539" lon="15.016455"><ele>760.0</ele><time>2026-04-26T12:29:53.194Z</time></trkpt><trkpt lat="37.6154217" lon="15.016545"><ele>760.0</ele><time>2026-04-26T12:29:54.194Z</time></trkpt><trkpt lat="37.6154383" lon="15.016645"><ele>760.0</ele><time>2026-04-26T12:29:55.194Z</time></trkpt><trkpt lat="37.615445" lon="15.0167517"><ele>760.0</ele><time>2026-04-26T12:29:56.194Z</time></trkpt><trkpt lat="37.6154317" lon="15.0168733"><ele>760.0</ele><time>2026-04-26T12:29:57.194Z</time></trkpt><trkpt lat="37.615415" lon="15.0170083"><ele>760.0</ele><time>2026-04-26T12:29:58.194Z</time></trkpt><trkpt lat="37.6153867" lon="15.0171533"><ele>760.0</ele><time>2026-04-26T12:29:59.194Z</time></trkpt><trkpt lat="37.615345" lon="15.0173067"><ele>760.0</ele><time>2026-04-26T12:30:00.194Z</time></trkpt><trkpt lat="37.61528" lon="15.017485"><ele>760.0</ele><time>2026-04-26T12:30:01.194Z</time></trkpt><trkpt lat="37.6152" lon="15.0176767"><ele>756.3333333333334</ele><time>2026-04-26T12:30:02.194Z</time></trkpt><trkpt lat="37.6151217" lon="15.0178617"><ele>752.6666666666666</ele><time>2026-04-26T12:30:03.194Z</time></trkpt><trkpt lat="37.6150517" lon="15.018055"><ele>749.0</ele><time>2026-04-26T12:30:04.195Z</time></trkpt><trkpt lat="37.614975" lon="15.0182417"><ele>747.6666666666666</ele><time>2026-04-26T12:30:05.194Z</time></trkpt><trkpt lat="37.6149033" lon="15.0184233"><ele>746.3333333333334</ele><time>2026-04-26T12:30:06.194Z</time></trkpt><trkpt lat="37.6148267" lon="15.0186"><ele>745.0</ele><time>2026-04-26T12:30:07.194Z</time></trkpt><trkpt lat="37.6147783" lon="15.018775"><ele>745.0</ele><time>2026-04-26T12:30:08.194Z</time></trkpt><trkpt lat="37.614755" lon="15.018955"><ele>745.0</ele><time>2026-04-26T12:30:09.194Z</time></trkpt><trkpt lat="37.6147583" lon="15.0191367"><ele>745.0</ele><time>2026-04-26T12:30:10.194Z</time></trkpt><trkpt lat="37.6148" lon="15.019315"><ele>745.0</ele><time>2026-04-26T12:30:11.195Z</time></trkpt><trkpt lat="37.6148667" lon="15.01949"><ele>743.0</ele><time>2026-04-26T12:30:12.195Z</time></trkpt><trkpt lat="37.614955" lon="15.0196633"><ele>741.0</ele><time>2026-04-26T12:30:13.194Z</time></trkpt><trkpt lat="37.6150417" lon="15.0198233"><ele>739.0</ele><time>2026-04-26T12:30:14.195Z</time></trkpt><trkpt lat="37.6151217" lon="15.0199783"><ele>737.5</ele><time>2026-04-26T12:30:15.195Z</time></trkpt><trkpt lat="37.6151983" lon="15.0201283"><ele>736.0</ele><time>2026-04-26T12:30:16.194Z</time></trkpt><trkpt lat="37.6152667" lon="15.020265"><ele>734.5</ele><time>2026-04-26T12:30:17.194Z</time></trkpt><trkpt lat="37.6153317" lon="15.02038"><ele>733.0</ele><time>2026-04-26T12:30:18.194Z</time></trkpt><trkpt lat="37.61538" lon="15.020485"><ele>733.0</ele><time>2026-04-26T12:30:19.194Z</time></trkpt><trkpt lat="37.6154267" lon="15.0205633"><ele>733.0</ele><time>2026-04-26T12:30:20.194Z</time></trkpt><trkpt lat="37.6154583" lon="15.02064"><ele>733.0</ele><time>2026-04-26T12:30:21.195Z</time></trkpt><trkpt lat="37.6154967" lon="15.0207183"><ele>733.0</ele><time>2026-04-26T12:30:22.194Z</time></trkpt><trkpt lat="37.6155367" lon="15.02079"><ele>733.0</ele><time>2026-04-26T12:30:23.194Z</time></trkpt><trkpt lat="37.615585" lon="15.0208667"><ele>733.0</ele><time>2026-04-26T12:30:24.194Z</time></trkpt><trkpt lat="37.615635" lon="15.02096"><ele>732.25</ele><time>2026-04-26T12:30:25.194Z</time></trkpt><trkpt lat="37.61569" lon="15.0210683"><ele>731.5</ele><time>2026-04-26T12:30:26.194Z</time></trkpt><trkpt lat="37.61576" lon="15.0211967"><ele>730.75</ele><time>2026-04-26T12:30:27.194Z</time></trkpt><trkpt lat="37.6158233" lon="15.0213317"><ele>730.0</ele><time>2026-04-26T12:30:28.194Z</time></trkpt><trkpt lat="37.615885" lon="15.0214483"><ele>730.0</ele><time>2026-04-26T12:30:29.194Z</time></trkpt><trkpt lat="37.6159417" lon="15.0215533"><ele>730.0</ele><time>2026-04-26T12:30:30.194Z</time></trkpt><trkpt lat="37.6159967" lon="15.0216533"><ele>730.0</ele><time>2026-04-26T12:30:31.194Z</time></trkpt><trkpt lat="37.6160617" lon="15.0217717"><ele>730.0</ele><time>2026-04-26T12:30:32.194Z</time></trkpt><trkpt lat="37.61612" lon="15.0218983"><ele>730.0</ele><time>2026-04-26T12:30:33.194Z</time></trkpt><trkpt lat="37.616185" lon="15.0220283"><ele>729.5</ele><time>2026-04-26T12:30:34.195Z</time></trkpt><trkpt lat="37.6162583" lon="15.02215"><ele>729.0</ele><time>2026-04-26T12:30:35.194Z</time></trkpt><trkpt lat="37.61633" lon="15.02229"><ele>728.5</ele><time>2026-04-26T12:30:36.195Z</time></trkpt><trkpt lat="37.6163967" lon="15.0224217"><ele>728.0</ele><time>2026-04-26T12:30:37.194Z</time></trkpt><trkpt lat="37.6164683" lon="15.0225617"><ele>727.5</ele><time>2026-04-26T12:30:38.194Z</time></trkpt><trkpt lat="37.6165333" lon="15.022695"><ele>727.0</ele><time>2026-04-26T12:30:39.195Z</time></trkpt><trkpt lat="37.6166" lon="15.0228317"><ele>726.5</ele><time>2026-04-26T12:30:40.194Z</time></trkpt><trkpt lat="37.6166667" lon="15.022965"><ele>726.0</ele><time>2026-04-26T12:30:41.194Z</time></trkpt><trkpt lat="37.6167317" lon="15.0230967"><ele>726.0</ele><time>2026-04-26T12:30:42.194Z</time></trkpt><trkpt lat="37.6168" lon="15.0232183"><ele>726.0</ele><time>2026-04-26T12:30:43.194Z</time></trkpt><trkpt lat="37.6168617" lon="15.0233317"><ele>726.0</ele><time>2026-04-26T12:30:44.194Z</time></trkpt><trkpt lat="37.6169167" lon="15.023445"><ele>726.0</ele><time>2026-04-26T12:30:45.194Z</time></trkpt><trkpt lat="37.6169733" lon="15.0235533"><ele>726.0</ele><time>2026-04-26T12:30:46.194Z</time></trkpt><trkpt lat="37.617035" lon="15.0236667"><ele>726.5999999999999</ele><time>2026-04-26T12:30:47.195Z</time></trkpt><trkpt lat="37.6170967" lon="15.0237867"><ele>727.2</ele><time>2026-04-26T12:30:48.194Z</time></trkpt><trkpt lat="37.6171517" lon="15.0239033"><ele>727.8</ele><time>2026-04-26T12:30:49.194Z</time></trkpt><trkpt lat="37.617205" lon="15.0240067"><ele>728.4000000000001</ele><time>2026-04-26T12:30:50.194Z</time></trkpt><trkpt lat="37.61725" lon="15.0240967"><ele>729.0</ele><time>2026-04-26T12:30:51.194Z</time></trkpt><trkpt lat="37.617285" lon="15.02418"><ele>729.0</ele><time>2026-04-26T12:30:52.194Z</time></trkpt><trkpt lat="37.61732" lon="15.0242583"><ele>729.0</ele><time>2026-04-26T12:30:53.194Z</time></trkpt><trkpt lat="37.6173583" lon="15.0243267"><ele>729.0</ele><time>2026-04-26T12:30:54.194Z</time></trkpt><trkpt lat="37.617415" lon="15.0243967"><ele>729.0</ele><time>2026-04-26T12:30:55.194Z</time></trkpt><trkpt lat="37.6174767" lon="15.02448"><ele>729.0</ele><time>2026-04-26T12:30:56.194Z</time></trkpt><trkpt lat="37.61754" lon="15.02459"><ele>729.0</ele><time>2026-04-26T12:30:57.194Z</time></trkpt><trkpt lat="37.6176033" lon="15.024715"><ele>729.0</ele><time>2026-04-26T12:30:58.194Z</time></trkpt><trkpt lat="37.6176633" lon="15.02484"><ele>729.0</ele><time>2026-04-26T12:30:59.194Z</time></trkpt><trkpt lat="37.6177233" lon="15.0249717"><ele>729.0</ele><time>2026-04-26T12:31:00.194Z</time></trkpt><trkpt lat="37.6177967" lon="15.025105"><ele>729.0</ele><time>2026-04-26T12:31:01.195Z</time></trkpt><trkpt lat="37.6178583" lon="15.0252367"><ele>729.6</ele><time>2026-04-26T12:31:02.195Z</time></trkpt><trkpt lat="37.6179167" lon="15.0253583"><ele>730.2</ele><time>2026-04-26T12:31:03.194Z</time></trkpt><trkpt lat="37.61797" lon="15.0254633"><ele>730.8000000000001</ele><time>2026-04-26T12:31:04.194Z</time></trkpt><trkpt lat="37.618015" lon="15.0255583"><ele>731.4000000000001</ele><time>2026-04-26T12:31:05.195Z</time></trkpt><trkpt lat="37.6180533" lon="15.0256617"><ele>732.0</ele><time>2026-04-26T12:31:06.194Z</time></trkpt><trkpt lat="37.61808" lon="15.0257683"><ele>731.6</ele><time>2026-04-26T12:31:07.195Z</time></trkpt><trkpt lat="37.618085" lon="15.0258867"><ele>731.2</ele><time>2026-04-26T12:31:08.194Z</time></trkpt><trkpt lat="37.6180783" lon="15.026005"><ele>730.8</ele><time>2026-04-26T12:31:09.194Z</time></trkpt><trkpt lat="37.6180483" lon="15.0261183"><ele>730.4</ele><time>2026-04-26T12:31:10.194Z</time></trkpt><trkpt lat="37.6179933" lon="15.0262267"><ele>730.0</ele><time>2026-04-26T12:31:11.195Z</time></trkpt><trkpt lat="37.6179167" lon="15.02633"><ele>730.0</ele><time>2026-04-26T12:31:12.194Z</time></trkpt><trkpt lat="37.617835" lon="15.02644"><ele>730.0</ele><time>2026-04-26T12:31:13.194Z</time></trkpt><trkpt lat="37.617755" lon="15.0265533"><ele>730.0</ele><time>2026-04-26T12:31:14.194Z</time></trkpt><trkpt lat="37.6176767" lon="15.0266633"><ele>730.0</ele><time>2026-04-26T12:31:15.195Z</time></trkpt><trkpt lat="37.6176033" lon="15.0267667"><ele>729.2</ele><time>2026-04-26T12:31:16.194Z</time></trkpt><trkpt lat="37.617525" lon="15.0268817"><ele>728.4</ele><time>2026-04-26T12:31:17.194Z</time></trkpt><trkpt lat="37.617465" lon="15.0269933"><ele>727.5999999999999</ele><time>2026-04-26T12:31:18.194Z</time></trkpt><trkpt lat="37.61741" lon="15.027105"><ele>726.8</ele><time>2026-04-26T12:31:19.194Z</time></trkpt><trkpt lat="37.6173633" lon="15.0272117"><ele>726.0</ele><time>2026-04-26T12:31:20.194Z</time></trkpt><trkpt lat="37.6173233" lon="15.027315"><ele>726.0</ele><time>2026-04-26T12:31:21.194Z</time></trkpt><trkpt lat="37.6172867" lon="15.0274167"><ele>726.0</ele><time>2026-04-26T12:31:22.194Z</time></trkpt><trkpt lat="37.6172583" lon="15.0275133"><ele>726.0</ele><time>2026-04-26T12:31:23.194Z</time></trkpt><trkpt lat="37.6172183" lon="15.0276217"><ele>726.0</ele><time>2026-04-26T12:31:24.195Z</time></trkpt><trkpt lat="37.6171783" lon="15.0277383"><ele>726.0</ele><time>2026-04-26T12:31:25.194Z</time></trkpt><trkpt lat="37.61714" lon="15.0278667"><ele>726.5</ele><time>2026-04-26T12:31:26.194Z</time></trkpt><trkpt lat="37.6171117" lon="15.0280033"><ele>727.0</ele><time>2026-04-26T12:31:27.194Z</time></trkpt><trkpt lat="37.6170917" lon="15.028145"><ele>727.5</ele><time>2026-04-26T12:31:28.194Z</time></trkpt><trkpt lat="37.617085" lon="15.028295"><ele>728.0</ele><time>2026-04-26T12:31:29.194Z</time></trkpt><trkpt lat="37.617085" lon="15.0284483"><ele>727.0</ele><time>2026-04-26T12:31:30.195Z</time></trkpt><trkpt lat="37.617095" lon="15.02861"><ele>726.0</ele><time>2026-04-26T12:31:31.195Z</time></trkpt><trkpt lat="37.6171083" lon="15.0287633"><ele>725.0</ele><time>2026-04-26T12:31:32.195Z</time></trkpt><trkpt lat="37.6171183" lon="15.0289217"><ele>724.0</ele><time>2026-04-26T12:31:33.194Z</time></trkpt><trkpt lat="37.617125" lon="15.02907"><ele>723.2</ele><time>2026-04-26T12:31:34.194Z</time></trkpt><trkpt lat="37.6171317" lon="15.0292117"><ele>722.4000000000001</ele><time>2026-04-26T12:31:35.194Z</time></trkpt><trkpt lat="37.6171317" lon="15.029345"><ele>721.6</ele><time>2026-04-26T12:31:36.194Z</time></trkpt><trkpt lat="37.6171183" lon="15.02948"><ele>720.8</ele><time>2026-04-26T12:31:37.194Z</time></trkpt><trkpt lat="37.6170967" lon="15.029585"><ele>720.0</ele><time>2026-04-26T12:31:38.194Z</time></trkpt><trkpt lat="37.6170633" lon="15.0296733"><ele>720.0</ele><time>2026-04-26T12:31:39.194Z</time></trkpt><trkpt lat="37.61702" lon="15.0297517"><ele>720.0</ele><time>2026-04-26T12:31:40.194Z</time></trkpt><trkpt lat="37.6169833" lon="15.0298417"><ele>720.0</ele><time>2026-04-26T12:31:41.194Z</time></trkpt><trkpt lat="37.61697" lon="15.0299383"><ele>720.0</ele><time>2026-04-26T12:31:42.194Z</time></trkpt><trkpt lat="37.6169683" lon="15.0300467"><ele>720.0</ele><time>2026-04-26T12:31:43.194Z</time></trkpt><trkpt lat="37.61696" lon="15.030185"><ele>720.0</ele><time>2026-04-26T12:31:44.194Z</time></trkpt><trkpt lat="37.6169367" lon="15.0303533"><ele>717.3333333333334</ele><time>2026-04-26T12:31:45.194Z</time></trkpt><trkpt lat="37.6168917" lon="15.030555"><ele>714.6666666666667</ele><time>2026-04-26T12:31:46.194Z</time></trkpt><trkpt lat="37.6168283" lon="15.0307933"><ele>712.0</ele><time>2026-04-26T12:31:47.194Z</time></trkpt><trkpt lat="37.6167533" lon="15.031045"><ele>710.6666666666667</ele><time>2026-04-26T12:31:48.194Z</time></trkpt><trkpt lat="37.616695" lon="15.0312833"><ele>709.3333333333334</ele><time>2026-04-26T12:31:49.195Z</time></trkpt><trkpt lat="37.616645" lon="15.0315133"><ele>708.0</ele><time>2026-04-26T12:31:50.194Z</time></trkpt><trkpt lat="37.6165933" lon="15.0317283"><ele>708.0</ele><time>2026-04-26T12:31:51.194Z</time></trkpt><trkpt lat="37.6165483" lon="15.031935"><ele>708.0</ele><time>2026-04-26T12:31:52.194Z</time></trkpt><trkpt lat="37.6164967" lon="15.0321317"><ele>708.0</ele><time>2026-04-26T12:31:53.195Z</time></trkpt><trkpt lat="37.61645" lon="15.0323133"><ele>707.75</ele><time>2026-04-26T12:31:54.194Z</time></trkpt><trkpt lat="37.616405" lon="15.032495"><ele>707.5</ele><time>2026-04-26T12:31:55.194Z</time></trkpt><trkpt lat="37.6163633" lon="15.0326717"><ele>707.25</ele><time>2026-04-26T12:31:56.194Z</time></trkpt><trkpt lat="37.6163217" lon="15.032835"><ele>707.0</ele><time>2026-04-26T12:31:57.194Z</time></trkpt><trkpt lat="37.6162783" lon="15.0329783"><ele>707.0</ele><time>2026-04-26T12:31:58.195Z</time></trkpt><trkpt lat="37.6162317" lon="15.03313"><ele>707.0</ele><time>2026-04-26T12:31:59.194Z</time></trkpt><trkpt lat="37.616175" lon="15.03326"><ele>707.0</ele><time>2026-04-26T12:32:00.194Z</time></trkpt><trkpt lat="37.6161233" lon="15.0333983"><ele>707.0</ele><time>2026-04-26T12:32:01.194Z</time></trkpt><trkpt lat="37.61607" lon="15.0335383"><ele>705.0</ele><time>2026-04-26T12:32:02.194Z</time></trkpt><trkpt lat="37.6160133" lon="15.0336667"><ele>703.0</ele><time>2026-04-26T12:32:03.194Z</time></trkpt><trkpt lat="37.61596" lon="15.0337767"><ele>701.0</ele><time>2026-04-26T12:32:04.194Z</time></trkpt><trkpt lat="37.6159117" lon="15.03386"><ele>699.0</ele><time>2026-04-26T12:32:05.194Z</time></trkpt><trkpt lat="37.6158733" lon="15.033935"><ele>697.0</ele><time>2026-04-26T12:32:06.194Z</time></trkpt><trkpt lat="37.6158417" lon="15.0340133"><ele>695.0</ele><time>2026-04-26T12:32:07.194Z</time></trkpt><trkpt lat="37.61581" lon="15.0340867"><ele>693.4</ele><time>2026-04-26T12:32:08.194Z</time></trkpt><trkpt lat="37.61576" lon="15.0341783"><ele>691.8</ele><time>2026-04-26T12:32:09.195Z</time></trkpt><trkpt lat="37.6157033" lon="15.03428"><ele>690.2</ele><time>2026-04-26T12:32:10.194Z</time></trkpt><trkpt lat="37.6156467" lon="15.03439"><ele>688.6</ele><time>2026-04-26T12:32:11.194Z</time></trkpt><trkpt lat="37.6155917" lon="15.0345083"><ele>687.0</ele><time>2026-04-26T12:32:12.194Z</time></trkpt><trkpt lat="37.615525" lon="15.03463"><ele>687.0</ele><time>2026-04-26T12:32:13.194Z</time></trkpt><trkpt lat="37.615455" lon="15.0347633"><ele>687.0</ele><time>2026-04-26T12:32:14.194Z</time></trkpt><trkpt lat="37.6153867" lon="15.0348833"><ele>687.0</ele><time>2026-04-26T12:32:15.194Z</time></trkpt><trkpt lat="37.615325" lon="15.035005"><ele>687.0</ele><time>2026-04-26T12:32:16.194Z</time></trkpt><trkpt lat="37.6152567" lon="15.0351333"><ele>684.5</ele><time>2026-04-26T12:32:17.194Z</time></trkpt><trkpt lat="37.6151867" lon="15.0352633"><ele>682.0</ele><time>2026-04-26T12:32:18.194Z</time></trkpt><trkpt lat="37.61512" lon="15.0353967"><ele>679.5</ele><time>2026-04-26T12:32:19.194Z</time></trkpt><trkpt lat="37.6150533" lon="15.0355167"><ele>677.0</ele><time>2026-04-26T12:32:20.194Z</time></trkpt><trkpt lat="37.6149933" lon="15.0356233"><ele>677.0</ele><time>2026-04-26T12:32:21.194Z</time></trkpt><trkpt lat="37.61494" lon="15.03572"><ele>677.0</ele><time>2026-04-26T12:32:22.195Z</time></trkpt><trkpt lat="37.614895" lon="15.0358033"><ele>677.0</ele><time>2026-04-26T12:32:23.194Z</time></trkpt><trkpt lat="37.61486" lon="15.0358733"><ele>677.0</ele><time>2026-04-26T12:32:24.194Z</time></trkpt><trkpt lat="37.614795" lon="15.03597"><ele>677.0</ele><time>2026-04-26T12:32:26.195Z</time></trkpt><trkpt lat="37.6147283" lon="15.03603"><ele>677.0</ele><time>2026-04-26T12:32:28.194Z</time></trkpt><trkpt lat="37.614635" lon="15.03607"><ele>676.8333333333333</ele><time>2026-04-26T12:32:30.194Z</time></trkpt><trkpt lat="37.6145217" lon="15.0360267"><ele>676.6666666666666</ele><time>2026-04-26T12:32:32.195Z</time></trkpt><trkpt lat="37.6144717" lon="15.035965"><ele>676.5</ele><time>2026-04-26T12:32:33.195Z</time></trkpt><trkpt lat="37.6144283" lon="15.0358833"><ele>676.3333333333334</ele><time>2026-04-26T12:32:34.194Z</time></trkpt><trkpt lat="37.6143983" lon="15.0357933"><ele>676.1666666666667</ele><time>2026-04-26T12:32:35.194Z</time></trkpt><trkpt lat="37.6143667" lon="15.03572"><ele>676.0</ele><time>2026-04-26T12:32:36.194Z</time></trkpt><trkpt lat="37.6142633" lon="15.0356517"><ele>676.0</ele><time>2026-04-26T12:32:38.194Z</time></trkpt><trkpt lat="37.6141667" lon="15.0357383"><ele>676.0</ele><time>2026-04-26T12:32:40.194Z</time></trkpt><trkpt lat="37.6141617" lon="15.0358233"><ele>676.0</ele><time>2026-04-26T12:32:41.194Z</time></trkpt><trkpt lat="37.61419" lon="15.0359133"><ele>676.0</ele><time>2026-04-26T12:32:42.194Z</time></trkpt><trkpt lat="37.614255" lon="15.0359917"><ele>676.0</ele><time>2026-04-26T12:32:43.194Z</time></trkpt><trkpt lat="37.6143283" lon="15.036055"><ele>676.0</ele><time>2026-04-26T12:32:44.194Z</time></trkpt><trkpt lat="37.614385" lon="15.036135"><ele>675.1999999999999</ele><time>2026-04-26T12:32:45.194Z</time></trkpt><trkpt lat="37.614425" lon="15.036245"><ele>674.4</ele><time>2026-04-26T12:32:46.194Z</time></trkpt><trkpt lat="37.61444" lon="15.0363767"><ele>673.6</ele><time>2026-04-26T12:32:47.194Z</time></trkpt><trkpt lat="37.6144617" lon="15.0365183"><ele>672.8</ele><time>2026-04-26T12:32:48.194Z</time></trkpt><trkpt lat="37.61448" lon="15.03667"><ele>672.0</ele><time>2026-04-26T12:32:49.194Z</time></trkpt><trkpt lat="37.6145017" lon="15.0368533"><ele>672.0</ele><time>2026-04-26T12:32:50.195Z</time></trkpt><trkpt lat="37.6145267" lon="15.0370417"><ele>672.0</ele><time>2026-04-26T12:32:51.194Z</time></trkpt><trkpt lat="37.6145483" lon="15.0372383"><ele>672.0</ele><time>2026-04-26T12:32:52.195Z</time></trkpt><trkpt lat="37.6145717" lon="15.0374417"><ele>672.0</ele><time>2026-04-26T12:32:53.194Z</time></trkpt><trkpt lat="37.6145933" lon="15.0376433"><ele>672.0</ele><time>2026-04-26T12:32:54.194Z</time></trkpt><trkpt lat="37.6146133" lon="15.0378467"><ele>672.0</ele><time>2026-04-26T12:32:55.194Z</time></trkpt><trkpt lat="37.614645" lon="15.0380467"><ele>672.0</ele><time>2026-04-26T12:32:56.194Z</time></trkpt><trkpt lat="37.6146683" lon="15.03825"><ele>672.0</ele><time>2026-04-26T12:32:57.194Z</time></trkpt><trkpt lat="37.6147033" lon="15.0384517"><ele>672.0</ele><time>2026-04-26T12:32:58.194Z</time></trkpt><trkpt lat="37.6147317" lon="15.0386517"><ele>672.3333333333334</ele><time>2026-04-26T12:32:59.195Z</time></trkpt><trkpt lat="37.6147633" lon="15.03886"><ele>672.6666666666667</ele><time>2026-04-26T12:33:00.195Z</time></trkpt><trkpt lat="37.6147883" lon="15.0390717"><ele>673.0</ele><time>2026-04-26T12:33:01.194Z</time></trkpt><trkpt lat="37.6148133" lon="15.0392833"><ele>672.3333333333334</ele><time>2026-04-26T12:33:02.194Z</time></trkpt><trkpt lat="37.6148367" lon="15.0394983"><ele>671.6666666666666</ele><time>2026-04-26T12:33:03.194Z</time></trkpt><trkpt lat="37.614865" lon="15.0397133"><ele>671.0</ele><time>2026-04-26T12:33:04.194Z</time></trkpt><trkpt lat="37.6148883" lon="15.0399233"><ele>670.3333333333333</ele><time>2026-04-26T12:33:05.194Z</time></trkpt><trkpt lat="37.6149183" lon="15.0401233"><ele>669.6666666666666</ele><time>2026-04-26T12:33:06.194Z</time></trkpt><trkpt lat="37.6149417" lon="15.0403217"><ele>669.0</ele><time>2026-04-26T12:33:07.194Z</time></trkpt><trkpt lat="37.6149717" lon="15.04052"><ele>669.0</ele><time>2026-04-26T12:33:08.194Z</time></trkpt><trkpt lat="37.6150067" lon="15.0407317"><ele>669.0</ele><time>2026-04-26T12:33:09.194Z</time></trkpt><trkpt lat="37.615035" lon="15.040935"><ele>669.0</ele><time>2026-04-26T12:33:10.195Z</time></trkpt><trkpt lat="37.6150617" lon="15.04114"><ele>668.6666666666666</ele><time>2026-04-26T12:33:11.194Z</time></trkpt><trkpt lat="37.6150833" lon="15.0413433"><ele>668.3333333333333</ele><time>2026-04-26T12:33:12.194Z</time></trkpt><trkpt lat="37.6151083" lon="15.0415483"><ele>668.0</ele><time>2026-04-26T12:33:13.194Z</time></trkpt><trkpt lat="37.6151383" lon="15.0417533"><ele>666.3333333333333</ele><time>2026-04-26T12:33:14.195Z</time></trkpt><trkpt lat="37.615165" lon="15.0419583"><ele>664.6666666666666</ele><time>2026-04-26T12:33:15.194Z</time></trkpt><trkpt lat="37.615195" lon="15.042145"><ele>663.0</ele><time>2026-04-26T12:33:16.194Z</time></trkpt><trkpt lat="37.6152217" lon="15.0423433"><ele>662.3333333333334</ele><time>2026-04-26T12:33:17.194Z</time></trkpt><trkpt lat="37.6152483" lon="15.0425333"><ele>661.6666666666667</ele><time>2026-04-26T12:33:18.194Z</time></trkpt><trkpt lat="37.6152667" lon="15.04272"><ele>661.0</ele><time>2026-04-26T12:33:19.194Z</time></trkpt><trkpt lat="37.6152917" lon="15.0429083"><ele>661.0</ele><time>2026-04-26T12:33:20.194Z</time></trkpt><trkpt lat="37.6153117" lon="15.0430883"><ele>661.0</ele><time>2026-04-26T12:33:21.194Z</time></trkpt><trkpt lat="37.6153267" lon="15.0432817"><ele>661.0</ele><time>2026-04-26T12:33:22.194Z</time></trkpt><trkpt lat="37.615345" lon="15.04348"><ele>662.3333333333334</ele><time>2026-04-26T12:33:23.194Z</time></trkpt><trkpt lat="37.6153567" lon="15.04368"><ele>663.6666666666666</ele><time>2026-04-26T12:33:24.194Z</time></trkpt><trkpt lat="37.6153667" lon="15.0438817"><ele>665.0</ele><time>2026-04-26T12:33:25.194Z</time></trkpt><trkpt lat="37.6153783" lon="15.0440883"><ele>664.0</ele><time>2026-04-26T12:33:26.194Z</time></trkpt><trkpt lat="37.6153833" lon="15.0442817"><ele>663.0</ele><time>2026-04-26T12:33:27.194Z</time></trkpt><trkpt lat="37.615385" lon="15.0444833"><ele>662.0</ele><time>2026-04-26T12:33:28.194Z</time></trkpt><trkpt lat="37.6153833" lon="15.0446867"><ele>662.0</ele><time>2026-04-26T12:33:29.194Z</time></trkpt><trkpt lat="37.6153883" lon="15.0448967"><ele>662.0</ele><time>2026-04-26T12:33:30.194Z</time></trkpt><trkpt lat="37.6153917" lon="15.0451033"><ele>662.0</ele><time>2026-04-26T12:33:31.194Z</time></trkpt><trkpt lat="37.61539" lon="15.0453117"><ele>660.3333333333333</ele><time>2026-04-26T12:33:32.194Z</time></trkpt><trkpt lat="37.6153867" lon="15.0455283"><ele>658.6666666666666</ele><time>2026-04-26T12:33:33.195Z</time></trkpt><trkpt lat="37.6153917" lon="15.0457433"><ele>657.0</ele><time>2026-04-26T12:33:34.194Z</time></trkpt><trkpt lat="37.6153983" lon="15.04595"><ele>656.6666666666666</ele><time>2026-04-26T12:33:35.194Z</time></trkpt><trkpt lat="37.615405" lon="15.0461483"><ele>656.3333333333333</ele><time>2026-04-26T12:33:36.194Z</time></trkpt><trkpt lat="37.6154083" lon="15.0463667"><ele>656.0</ele><time>2026-04-26T12:33:37.194Z</time></trkpt><trkpt lat="37.6154067" lon="15.04659"><ele>655.3333333333333</ele><time>2026-04-26T12:33:38.194Z</time></trkpt><trkpt lat="37.61541" lon="15.04681"><ele>654.6666666666666</ele><time>2026-04-26T12:33:39.194Z</time></trkpt><trkpt lat="37.6154217" lon="15.04702"><ele>654.0</ele><time>2026-04-26T12:33:40.194Z</time></trkpt><trkpt lat="37.615435" lon="15.0472333"><ele>654.0</ele><time>2026-04-26T12:33:41.194Z</time></trkpt><trkpt lat="37.6154533" lon="15.0474583"><ele>654.0</ele><time>2026-04-26T12:33:42.194Z</time></trkpt><trkpt lat="37.6154733" lon="15.0476817"><ele>654.0</ele><time>2026-04-26T12:33:43.194Z</time></trkpt><trkpt lat="37.6154917" lon="15.04789"><ele>652.6666666666666</ele><time>2026-04-26T12:33:44.194Z</time></trkpt><trkpt lat="37.6155117" lon="15.0480883"><ele>651.3333333333333</ele><time>2026-04-26T12:33:45.194Z</time></trkpt><trkpt lat="37.61553" lon="15.048285"><ele>650.0</ele><time>2026-04-26T12:33:46.194Z</time></trkpt><trkpt lat="37.6155483" lon="15.0484683"><ele>648.5</ele><time>2026-04-26T12:33:47.194Z</time></trkpt><trkpt lat="37.61557" lon="15.04864"><ele>647.0</ele><time>2026-04-26T12:33:48.195Z</time></trkpt><trkpt lat="37.6155817" lon="15.0488167"><ele>645.5</ele><time>2026-04-26T12:33:49.194Z</time></trkpt><trkpt lat="37.615595" lon="15.0489933"><ele>644.0</ele><time>2026-04-26T12:33:50.194Z</time></trkpt><trkpt lat="37.6156117" lon="15.0491617"><ele>643.75</ele><time>2026-04-26T12:33:51.194Z</time></trkpt><trkpt lat="37.615625" lon="15.0493283"><ele>643.5</ele><time>2026-04-26T12:33:52.195Z</time></trkpt><trkpt lat="37.6156383" lon="15.049485"><ele>643.25</ele><time>2026-04-26T12:33:53.194Z</time></trkpt><trkpt lat="37.615655" lon="15.0496383"><ele>643.0</ele><time>2026-04-26T12:33:54.194Z</time></trkpt><trkpt lat="37.615675" lon="15.0497967"><ele>643.0</ele><time>2026-04-26T12:33:55.194Z</time></trkpt><trkpt lat="37.6156883" lon="15.049955"><ele>643.0</ele><time>2026-04-26T12:33:56.194Z</time></trkpt><trkpt lat="37.61571" lon="15.0501133"><ele>643.0</ele><time>2026-04-26T12:33:57.194Z</time></trkpt><trkpt lat="37.61572" lon="15.0502717"><ele>643.0</ele><time>2026-04-26T12:33:58.194Z</time></trkpt><trkpt lat="37.6157317" lon="15.05043"><ele>642.25</ele><time>2026-04-26T12:33:59.194Z</time></trkpt><trkpt lat="37.61575" lon="15.0505983"><ele>641.5</ele><time>2026-04-26T12:34:00.194Z</time></trkpt><trkpt lat="37.6157667" lon="15.0507567"><ele>640.75</ele><time>2026-04-26T12:34:01.194Z</time></trkpt><trkpt lat="37.615775" lon="15.0509083"><ele>640.0</ele><time>2026-04-26T12:34:02.194Z</time></trkpt><trkpt lat="37.61578" lon="15.0510567"><ele>639.6</ele><time>2026-04-26T12:34:03.194Z</time></trkpt><trkpt lat="37.6157783" lon="15.051205"><ele>639.2</ele><time>2026-04-26T12:34:04.194Z</time></trkpt><trkpt lat="37.6157767" lon="15.05134"><ele>638.8</ele><time>2026-04-26T12:34:05.194Z</time></trkpt><trkpt lat="37.6157733" lon="15.0514667"><ele>638.4</ele><time>2026-04-26T12:34:06.194Z</time></trkpt><trkpt lat="37.615775" lon="15.0515783"><ele>638.0</ele><time>2026-04-26T12:34:07.194Z</time></trkpt><trkpt lat="37.6157733" lon="15.051685"><ele>637.8333333333333</ele><time>2026-04-26T12:34:08.194Z</time></trkpt><trkpt lat="37.61577" lon="15.0517717"><ele>637.6666666666666</ele><time>2026-04-26T12:34:09.194Z</time></trkpt><trkpt lat="37.6156983" lon="15.051885"><ele>637.5</ele><time>2026-04-26T12:34:11.195Z</time></trkpt><trkpt lat="37.6156233" lon="15.0519133"><ele>637.3333333333334</ele><time>2026-04-26T12:34:12.195Z</time></trkpt><trkpt lat="37.6155317" lon="15.0519283"><ele>637.1666666666667</ele><time>2026-04-26T12:34:13.194Z</time></trkpt><trkpt lat="37.61544" lon="15.051935"><ele>637.0</ele><time>2026-04-26T12:34:14.195Z</time></trkpt><trkpt lat="37.615345" lon="15.0519467"><ele>635.6</ele><time>2026-04-26T12:34:15.195Z</time></trkpt><trkpt lat="37.6152583" lon="15.0519683"><ele>634.2</ele><time>2026-04-26T12:34:16.195Z</time></trkpt><trkpt lat="37.6151667" lon="15.0520133"><ele>632.8</ele><time>2026-04-26T12:34:17.194Z</time></trkpt><trkpt lat="37.6150783" lon="15.052085"><ele>631.4</ele><time>2026-04-26T12:34:18.194Z</time></trkpt><trkpt lat="37.6150033" lon="15.0521967"><ele>630.0</ele><time>2026-04-26T12:34:19.194Z</time></trkpt><trkpt lat="37.6149333" lon="15.0523117"><ele>630.0</ele><time>2026-04-26T12:34:20.194Z</time></trkpt><trkpt lat="37.61486" lon="15.0524333"><ele>630.0</ele><time>2026-04-26T12:34:21.194Z</time></trkpt><trkpt lat="37.614785" lon="15.0525467"><ele>630.0</ele><time>2026-04-26T12:34:22.194Z</time></trkpt><trkpt lat="37.6147083" lon="15.052665"><ele>630.0</ele><time>2026-04-26T12:34:23.194Z</time></trkpt><trkpt lat="37.6146283" lon="15.0527817"><ele>628.75</ele><time>2026-04-26T12:34:24.194Z</time></trkpt><trkpt lat="37.614555" lon="15.052895"><ele>627.5</ele><time>2026-04-26T12:34:25.194Z</time></trkpt><trkpt lat="37.61448" lon="15.052995"><ele>626.25</ele><time>2026-04-26T12:34:26.194Z</time></trkpt><trkpt lat="37.614405" lon="15.0531067"><ele>625.0</ele><time>2026-04-26T12:34:27.194Z</time></trkpt><trkpt lat="37.6143317" lon="15.053215"><ele>624.0</ele><time>2026-04-26T12:34:28.194Z</time></trkpt><trkpt lat="37.61426" lon="15.05332"><ele>623.0</ele><time>2026-04-26T12:34:29.195Z</time></trkpt><trkpt lat="37.61419" lon="15.05342"><ele>622.0</ele><time>2026-04-26T12:34:30.194Z</time></trkpt><trkpt lat="37.6141133" lon="15.0535267"><ele>621.0</ele><time>2026-04-26T12:34:31.194Z</time></trkpt><trkpt lat="37.6140467" lon="15.0536333"><ele>620.0</ele><time>2026-04-26T12:34:32.194Z</time></trkpt><trkpt lat="37.6139767" lon="15.0537467"><ele>620.0</ele><time>2026-04-26T12:34:33.195Z</time></trkpt><trkpt lat="37.613905" lon="15.0538617"><ele>620.0</ele><time>2026-04-26T12:34:34.194Z</time></trkpt><trkpt lat="37.61383" lon="15.0539733"><ele>620.0</ele><time>2026-04-26T12:34:35.194Z</time></trkpt><trkpt lat="37.613755" lon="15.054065"><ele>620.0</ele><time>2026-04-26T12:34:36.194Z</time></trkpt><trkpt lat="37.6136783" lon="15.05417"><ele>620.0</ele><time>2026-04-26T12:34:37.194Z</time></trkpt><trkpt lat="37.6136017" lon="15.0542767"><ele>618.8</ele><time>2026-04-26T12:34:38.194Z</time></trkpt><trkpt lat="37.6135317" lon="15.0543767"><ele>617.6</ele><time>2026-04-26T12:34:39.194Z</time></trkpt><trkpt lat="37.6134667" lon="15.054475"><ele>616.4</ele><time>2026-04-26T12:34:40.195Z</time></trkpt><trkpt lat="37.613415" lon="15.0546"><ele>615.2</ele><time>2026-04-26T12:34:41.194Z</time></trkpt><trkpt lat="37.6133867" lon="15.05473"><ele>614.0</ele><time>2026-04-26T12:34:42.194Z</time></trkpt><trkpt lat="37.61338" lon="15.0548683"><ele>613.25</ele><time>2026-04-26T12:34:43.194Z</time></trkpt><trkpt lat="37.6133817" lon="15.0550133"><ele>612.5</ele><time>2026-04-26T12:34:44.194Z</time></trkpt><trkpt lat="37.6133917" lon="15.055155"><ele>611.75</ele><time>2026-04-26T12:34:45.194Z</time></trkpt><trkpt lat="37.6133983" lon="15.0553"><ele>611.0</ele><time>2026-04-26T12:34:46.194Z</time></trkpt><trkpt lat="37.61341" lon="15.0554483"><ele>611.0</ele><time>2026-04-26T12:34:47.194Z</time></trkpt><trkpt lat="37.61342" lon="15.0555967"><ele>611.0</ele><time>2026-04-26T12:34:48.194Z</time></trkpt><trkpt lat="37.61343" lon="15.0557383"><ele>611.0</ele><time>2026-04-26T12:34:49.194Z</time></trkpt><trkpt lat="37.6134367" lon="15.0558767"><ele>611.0</ele><time>2026-04-26T12:34:50.194Z</time></trkpt><trkpt lat="37.6134433" lon="15.0560017"><ele>611.0</ele><time>2026-04-26T12:34:51.194Z</time></trkpt><trkpt lat="37.6134467" lon="15.0561133"><ele>610.2</ele><time>2026-04-26T12:34:52.194Z</time></trkpt><trkpt lat="37.6134517" lon="15.056215"><ele>609.4000000000001</ele><time>2026-04-26T12:34:53.194Z</time></trkpt><trkpt lat="37.6134483" lon="15.0563083"><ele>608.6</ele><time>2026-04-26T12:34:54.194Z</time></trkpt><trkpt lat="37.6134433" lon="15.0563933"><ele>607.8000000000001</ele><time>2026-04-26T12:34:55.194Z</time></trkpt><trkpt lat="37.6134333" lon="15.056535"><ele>607.0</ele><time>2026-04-26T12:34:57.194Z</time></trkpt><trkpt lat="37.6134467" lon="15.0566933"><ele>607.0</ele><time>2026-04-26T12:34:59.194Z</time></trkpt><trkpt lat="37.6134667" lon="15.0567717"><ele>607.0</ele><time>2026-04-26T12:35:00.194Z</time></trkpt><trkpt lat="37.6135367" lon="15.0568667"><ele>607.0</ele><time>2026-04-26T12:35:02.194Z</time></trkpt><trkpt lat="37.613655" lon="15.056845"><ele>607.0</ele><time>2026-04-26T12:35:04.195Z</time></trkpt><trkpt lat="37.613715" lon="15.05681"><ele>607.0</ele><time>2026-04-26T12:35:05.194Z</time></trkpt><trkpt lat="37.6137817" lon="15.056765"><ele>607.0</ele><time>2026-04-26T12:35:06.194Z</time></trkpt><trkpt lat="37.6138567" lon="15.056735"><ele>607.0</ele><time>2026-04-26T12:35:07.194Z</time></trkpt><trkpt lat="37.6139317" lon="15.0567233"><ele>607.0</ele><time>2026-04-26T12:35:08.194Z</time></trkpt><trkpt lat="37.614015" lon="15.056745"><ele>607.0</ele><time>2026-04-26T12:35:09.194Z</time></trkpt><trkpt lat="37.614095" lon="15.0567717"><ele>607.0</ele><time>2026-04-26T12:35:10.194Z</time></trkpt><trkpt lat="37.61418" lon="15.056815"><ele>607.0</ele><time>2026-04-26T12:35:11.194Z</time></trkpt><trkpt lat="37.614275" lon="15.0568767"><ele>607.0</ele><time>2026-04-26T12:35:12.194Z</time></trkpt><trkpt lat="37.6143517" lon="15.056955"><ele>607.0</ele><time>2026-04-26T12:35:13.195Z</time></trkpt><trkpt lat="37.6144183" lon="15.0570367"><ele>607.0</ele><time>2026-04-26T12:35:14.195Z</time></trkpt><trkpt lat="37.6144867" lon="15.05709"><ele>607.0</ele><time>2026-04-26T12:35:15.195Z</time></trkpt><trkpt lat="37.6145633" lon="15.0571317"><ele>607.0</ele><time>2026-04-26T12:35:16.194Z</time></trkpt><trkpt lat="37.614645" lon="15.0571533"><ele>607.0</ele><time>2026-04-26T12:35:17.194Z</time></trkpt><trkpt lat="37.6147283" lon="15.0571567"><ele>607.0</ele><time>2026-04-26T12:35:18.194Z</time></trkpt><trkpt lat="37.6147983" lon="15.0571467"><ele>607.1666666666667</ele><time>2026-04-26T12:35:19.194Z</time></trkpt><trkpt lat="37.6148683" lon="15.0571433"><ele>607.3333333333334</ele><time>2026-04-26T12:35:20.195Z</time></trkpt><trkpt lat="37.6149317" lon="15.0571533"><ele>607.5</ele><time>2026-04-26T12:35:21.194Z</time></trkpt><trkpt lat="37.6149933" lon="15.0571933"><ele>607.6666666666666</ele><time>2026-04-26T12:35:22.194Z</time></trkpt><trkpt lat="37.6150483" lon="15.057265"><ele>607.8333333333333</ele><time>2026-04-26T12:35:23.194Z</time></trkpt><trkpt lat="37.615095" lon="15.0573717"><ele>608.0</ele><time>2026-04-26T12:35:24.194Z</time></trkpt><trkpt lat="37.615135" lon="15.05749"><ele>607.25</ele><time>2026-04-26T12:35:25.194Z</time></trkpt><trkpt lat="37.6151783" lon="15.0576183"><ele>606.5</ele><time>2026-04-26T12:35:26.194Z</time></trkpt><trkpt lat="37.6152083" lon="15.0577617"><ele>605.75</ele><time>2026-04-26T12:35:27.194Z</time></trkpt><trkpt lat="37.6152367" lon="15.05791"><ele>605.0</ele><time>2026-04-26T12:35:28.194Z</time></trkpt><trkpt lat="37.6152617" lon="15.0580633"><ele>605.0</ele><time>2026-04-26T12:35:29.194Z</time></trkpt><trkpt lat="37.6152933" lon="15.0582133"><ele>605.0</ele><time>2026-04-26T12:35:30.194Z</time></trkpt><trkpt lat="37.6153283" lon="15.0583667"><ele>605.0</ele><time>2026-04-26T12:35:31.195Z</time></trkpt><trkpt lat="37.6153617" lon="15.0585133"><ele>605.0</ele><time>2026-04-26T12:35:32.194Z</time></trkpt><trkpt lat="37.615385" lon="15.0586517"><ele>605.0</ele><time>2026-04-26T12:35:33.194Z</time></trkpt><trkpt lat="37.6154017" lon="15.0587833"><ele>605.0</ele><time>2026-04-26T12:35:34.194Z</time></trkpt><trkpt lat="37.6154133" lon="15.0589067"><ele>605.0</ele><time>2026-04-26T12:35:35.194Z</time></trkpt><trkpt lat="37.6154283" lon="15.059035"><ele>605.0</ele><time>2026-04-26T12:35:36.195Z</time></trkpt><trkpt lat="37.615435" lon="15.0591683"><ele>605.0</ele><time>2026-04-26T12:35:37.194Z</time></trkpt><trkpt lat="37.6154283" lon="15.0593033"><ele>604.6</ele><time>2026-04-26T12:35:38.194Z</time></trkpt><trkpt lat="37.6154117" lon="15.0594367"><ele>604.2</ele><time>2026-04-26T12:35:39.194Z</time></trkpt><trkpt lat="37.6153817" lon="15.0595633"><ele>603.8</ele><time>2026-04-26T12:35:40.194Z</time></trkpt><trkpt lat="37.6153633" lon="15.05969"><ele>603.4</ele><time>2026-04-26T12:35:41.194Z</time></trkpt><trkpt lat="37.6153383" lon="15.05982"><ele>603.0</ele><time>2026-04-26T12:35:42.194Z</time></trkpt><trkpt lat="37.615315" lon="15.05995"><ele>604.1999999999999</ele><time>2026-04-26T12:35:43.194Z</time></trkpt><trkpt lat="37.61529" lon="15.060085"><ele>605.4</ele><time>2026-04-26T12:35:44.194Z</time></trkpt><trkpt lat="37.6152467" lon="15.06021"><ele>606.5999999999999</ele><time>2026-04-26T12:35:45.194Z</time></trkpt><trkpt lat="37.615205" lon="15.0603383"><ele>607.8</ele><time>2026-04-26T12:35:46.194Z</time></trkpt><trkpt lat="37.61516" lon="15.0604667"><ele>609.0</ele><time>2026-04-26T12:35:47.195Z</time></trkpt><trkpt lat="37.615105" lon="15.0605933"><ele>609.0</ele><time>2026-04-26T12:35:48.195Z</time></trkpt><trkpt lat="37.615045" lon="15.0607133"><ele>609.0</ele><time>2026-04-26T12:35:49.194Z</time></trkpt><trkpt lat="37.6149867" lon="15.060835"><ele>609.0</ele><time>2026-04-26T12:35:50.194Z</time></trkpt><trkpt lat="37.614925" lon="15.0609433"><ele>609.0</ele><time>2026-04-26T12:35:51.194Z</time></trkpt><trkpt lat="37.6148667" lon="15.061045"><ele>609.0</ele><time>2026-04-26T12:35:52.194Z</time></trkpt><trkpt lat="37.614815" lon="15.0611417"><ele>606.5</ele><time>2026-04-26T12:35:53.194Z</time></trkpt><trkpt lat="37.6147633" lon="15.0612367"><ele>604.0</ele><time>2026-04-26T12:35:54.194Z</time></trkpt><trkpt lat="37.61472" lon="15.0613317"><ele>601.5</ele><time>2026-04-26T12:35:55.194Z</time></trkpt><trkpt lat="37.6146767" lon="15.0614233"><ele>599.0</ele><time>2026-04-26T12:35:56.194Z</time></trkpt><trkpt lat="37.6146317" lon="15.06151"><ele>596.5</ele><time>2026-04-26T12:35:57.194Z</time></trkpt><trkpt lat="37.614595" lon="15.0616"><ele>594.0</ele><time>2026-04-26T12:35:58.194Z</time></trkpt><trkpt lat="37.61456" lon="15.0616833"><ele>595.0</ele><time>2026-04-26T12:35:59.194Z</time></trkpt><trkpt lat="37.6145283" lon="15.0617733"><ele>596.0</ele><time>2026-04-26T12:36:00.194Z</time></trkpt><trkpt lat="37.614495" lon="15.0618617"><ele>597.0</ele><time>2026-04-26T12:36:01.194Z</time></trkpt><trkpt lat="37.6144683" lon="15.0619433"><ele>598.0</ele><time>2026-04-26T12:36:02.194Z</time></trkpt><trkpt lat="37.6144467" lon="15.0620267"><ele>599.0</ele><time>2026-04-26T12:36:03.194Z</time></trkpt><trkpt lat="37.6144233" lon="15.0621067"><ele>600.0</ele><time>2026-04-26T12:36:04.194Z</time></trkpt><trkpt lat="37.6144" lon="15.0621883"><ele>601.0</ele><time>2026-04-26T12:36:05.194Z</time></trkpt><trkpt lat="37.6143767" lon="15.0622733"><ele>601.0</ele><time>2026-04-26T12:36:06.194Z</time></trkpt><trkpt lat="37.6143533" lon="15.0623583"><ele>601.0</ele><time>2026-04-26T12:36:07.194Z</time></trkpt><trkpt lat="37.6143217" lon="15.0624517"><ele>601.0</ele><time>2026-04-26T12:36:08.194Z</time></trkpt><trkpt lat="37.6142867" lon="15.0625467"><ele>601.0</ele><time>2026-04-26T12:36:09.194Z</time></trkpt><trkpt lat="37.6142467" lon="15.062645"><ele>601.0</ele><time>2026-04-26T12:36:10.194Z</time></trkpt><trkpt lat="37.6141967" lon="15.0627383"><ele>601.0</ele><time>2026-04-26T12:36:11.194Z</time></trkpt><trkpt lat="37.6141233" lon="15.06281"><ele>596.8333333333334</ele><time>2026-04-26T12:36:12.195Z</time></trkpt><trkpt lat="37.6140517" lon="15.0628717"><ele>592.6666666666667</ele><time>2026-04-26T12:36:13.194Z</time></trkpt><trkpt lat="37.6139767" lon="15.0629233"><ele>588.5</ele><time>2026-04-26T12:36:14.194Z</time></trkpt><trkpt lat="37.6138967" lon="15.06298"><ele>584.3333333333334</ele><time>2026-04-26T12:36:15.194Z</time></trkpt><trkpt lat="37.6138167" lon="15.063015"><ele>580.1666666666666</ele><time>2026-04-26T12:36:16.194Z</time></trkpt><trkpt lat="37.61375" lon="15.06305"><ele>576.0</ele><time>2026-04-26T12:36:17.194Z</time></trkpt><trkpt lat="37.6136917" lon="15.0630867"><ele>575.0</ele><time>2026-04-26T12:36:18.194Z</time></trkpt><trkpt lat="37.61357" lon="15.06315"><ele>574.0</ele><time>2026-04-26T12:36:20.194Z</time></trkpt><trkpt lat="37.6135033" lon="15.06319"><ele>573.0</ele><time>2026-04-26T12:36:21.194Z</time></trkpt><trkpt lat="37.6134333" lon="15.0632367"><ele>572.0</ele><time>2026-04-26T12:36:22.194Z</time></trkpt><trkpt lat="37.6133683" lon="15.063295"><ele>571.0</ele><time>2026-04-26T12:36:23.194Z</time></trkpt><trkpt lat="37.6133083" lon="15.0633683"><ele>570.0</ele><time>2026-04-26T12:36:24.194Z</time></trkpt><trkpt lat="37.61326" lon="15.063455"><ele>570.0</ele><time>2026-04-26T12:36:25.195Z</time></trkpt><trkpt lat="37.6132217" lon="15.0635583"><ele>570.0</ele><time>2026-04-26T12:36:26.194Z</time></trkpt><trkpt lat="37.6132083" lon="15.0636683"><ele>570.0</ele><time>2026-04-26T12:36:27.194Z</time></trkpt><trkpt lat="37.6132117" lon="15.0637783"><ele>570.0</ele><time>2026-04-26T12:36:28.194Z</time></trkpt><trkpt lat="37.6132283" lon="15.0638867"><ele>570.0</ele><time>2026-04-26T12:36:29.194Z</time></trkpt><trkpt lat="37.6132533" lon="15.0639933"><ele>570.0</ele><time>2026-04-26T12:36:30.194Z</time></trkpt><trkpt lat="37.6132817" lon="15.064095"><ele>569.0</ele><time>2026-04-26T12:36:31.194Z</time></trkpt><trkpt lat="37.61331" lon="15.0641917"><ele>568.0</ele><time>2026-04-26T12:36:32.194Z</time></trkpt><trkpt lat="37.61334" lon="15.06429"><ele>567.0</ele><time>2026-04-26T12:36:33.194Z</time></trkpt><trkpt lat="37.6133633" lon="15.0643783"><ele>566.0</ele><time>2026-04-26T12:36:34.194Z</time></trkpt><trkpt lat="37.613385" lon="15.0644583"><ele>565.0</ele><time>2026-04-26T12:36:35.194Z</time></trkpt><trkpt lat="37.613415" lon="15.0645883"><ele>564.0</ele><time>2026-04-26T12:36:37.194Z</time></trkpt><trkpt lat="37.6134367" lon="15.0646733"><ele>564.0</ele><time>2026-04-26T12:36:39.194Z</time></trkpt><trkpt lat="37.6134483" lon="15.0647633"><ele>564.0</ele><time>2026-04-26T12:36:41.194Z</time></trkpt><trkpt lat="37.61346" lon="15.0648583"><ele>564.0</ele><time>2026-04-26T12:36:43.194Z</time></trkpt><trkpt lat="37.613495" lon="15.0649817"><ele>564.0</ele><time>2026-04-26T12:36:45.194Z</time></trkpt><trkpt lat="37.6135333" lon="15.0650467"><ele>564.0</ele><time>2026-04-26T12:36:46.194Z</time></trkpt><trkpt lat="37.613575" lon="15.0651133"><ele>564.0</ele><time>2026-04-26T12:36:47.194Z</time></trkpt><trkpt lat="37.613615" lon="15.065205"><ele>565.25</ele><time>2026-04-26T12:36:48.194Z</time></trkpt><trkpt lat="37.6136617" lon="15.06532"><ele>566.5</ele><time>2026-04-26T12:36:49.195Z</time></trkpt><trkpt lat="37.6137117" lon="15.065465"><ele>567.75</ele><time>2026-04-26T12:36:50.194Z</time></trkpt><trkpt lat="37.6137667" lon="15.0656383"><ele>569.0</ele><time>2026-04-26T12:36:51.194Z</time></trkpt><trkpt lat="37.6138217" lon="15.0658033"><ele>569.75</ele><time>2026-04-26T12:36:52.194Z</time></trkpt><trkpt lat="37.6138733" lon="15.0659583"><ele>570.5</ele><time>2026-04-26T12:36:53.194Z</time></trkpt><trkpt lat="37.6139267" lon="15.0661117"><ele>571.25</ele><time>2026-04-26T12:36:54.194Z</time></trkpt><trkpt lat="37.6139883" lon="15.0662483"><ele>572.0</ele><time>2026-04-26T12:36:55.194Z</time></trkpt><trkpt lat="37.6140633" lon="15.0663833"><ele>572.0</ele><time>2026-04-26T12:36:56.194Z</time></trkpt><trkpt lat="37.6141583" lon="15.0665133"><ele>572.0</ele><time>2026-04-26T12:36:57.194Z</time></trkpt><trkpt lat="37.6142767" lon="15.0666117"><ele>572.0</ele><time>2026-04-26T12:36:58.194Z</time></trkpt><trkpt lat="37.6144117" lon="15.0666967"><ele>572.0</ele><time>2026-04-26T12:36:59.194Z</time></trkpt><trkpt lat="37.61455" lon="15.066735"><ele>573.3333333333333</ele><time>2026-04-26T12:37:00.194Z</time></trkpt><trkpt lat="37.6147067" lon="15.0667317"><ele>574.6666666666666</ele><time>2026-04-26T12:37:01.194Z</time></trkpt><trkpt lat="37.6148767" lon="15.0666917"><ele>576.0</ele><time>2026-04-26T12:37:02.194Z</time></trkpt><trkpt lat="37.6150683" lon="15.066635"><ele>575.6666666666666</ele><time>2026-04-26T12:37:03.195Z</time></trkpt><trkpt lat="37.6152733" lon="15.0665733"><ele>575.3333333333333</ele><time>2026-04-26T12:37:04.194Z</time></trkpt><trkpt lat="37.6154883" lon="15.066525"><ele>575.0</ele><time>2026-04-26T12:37:05.195Z</time></trkpt><trkpt lat="37.615715" lon="15.0664733"><ele>575.0</ele><time>2026-04-26T12:37:06.195Z</time></trkpt><trkpt lat="37.6159467" lon="15.0664233"><ele>575.0</ele><time>2026-04-26T12:37:07.194Z</time></trkpt><trkpt lat="37.616175" lon="15.066375"><ele>577.6666666666666</ele><time>2026-04-26T12:37:08.194Z</time></trkpt><trkpt lat="37.6163717" lon="15.0663383"><ele>580.3333333333334</ele><time>2026-04-26T12:37:09.194Z</time></trkpt><trkpt lat="37.6165617" lon="15.0662967"><ele>583.0</ele><time>2026-04-26T12:37:10.194Z</time></trkpt><trkpt lat="37.6167467" lon="15.0662583"><ele>583.0</ele><time>2026-04-26T12:37:11.194Z</time></trkpt><trkpt lat="37.61692" lon="15.0662133"><ele>583.0</ele><time>2026-04-26T12:37:12.194Z</time></trkpt><trkpt lat="37.6170867" lon="15.0661783"><ele>583.0</ele><time>2026-04-26T12:37:13.194Z</time></trkpt><trkpt lat="37.617235" lon="15.066135"><ele>584.75</ele><time>2026-04-26T12:37:14.194Z</time></trkpt><trkpt lat="37.61738" lon="15.066105"><ele>586.5</ele><time>2026-04-26T12:37:15.194Z</time></trkpt><trkpt lat="37.6175033" lon="15.06608"><ele>588.25</ele><time>2026-04-26T12:37:16.194Z</time></trkpt><trkpt lat="37.6176117" lon="15.06606"><ele>590.0</ele><time>2026-04-26T12:37:17.194Z</time></trkpt><trkpt lat="37.6176967" lon="15.0660417"><ele>590.0</ele><time>2026-04-26T12:37:18.194Z</time></trkpt><trkpt lat="37.61777" lon="15.0660317"><ele>590.0</ele><time>2026-04-26T12:37:19.194Z</time></trkpt><trkpt lat="37.6178617" lon="15.066055"><ele>590.0</ele><time>2026-04-26T12:37:21.195Z</time></trkpt><trkpt lat="37.617915" lon="15.066155"><ele>590.0</ele><time>2026-04-26T12:37:23.194Z</time></trkpt><trkpt lat="37.61791" lon="15.066295"><ele>590.0</ele><time>2026-04-26T12:37:25.194Z</time></trkpt><trkpt lat="37.617875" lon="15.0663883"><ele>590.0</ele><time>2026-04-26T12:37:26.194Z</time></trkpt><trkpt lat="37.6178283" lon="15.0665067"><ele>590.0</ele><time>2026-04-26T12:37:27.195Z</time></trkpt><trkpt lat="37.61777" lon="15.0666467"><ele>590.0</ele><time>2026-04-26T12:37:28.195Z</time></trkpt><trkpt lat="37.6177067" lon="15.0668017"><ele>590.0</ele><time>2026-04-26T12:37:29.194Z</time></trkpt><trkpt lat="37.6176467" lon="15.066965"><ele>590.0</ele><time>2026-04-26T12:37:30.194Z</time></trkpt><trkpt lat="37.6175817" lon="15.067135"><ele>590.0</ele><time>2026-04-26T12:37:31.194Z</time></trkpt><trkpt lat="37.6175133" lon="15.0672933"><ele>590.0</ele><time>2026-04-26T12:37:32.194Z</time></trkpt><trkpt lat="37.6174567" lon="15.0674433"><ele>590.0</ele><time>2026-04-26T12:37:33.194Z</time></trkpt><trkpt lat="37.6174017" lon="15.0675833"><ele>589.2</ele><time>2026-04-26T12:37:34.194Z</time></trkpt><trkpt lat="37.6173433" lon="15.06771"><ele>588.4</ele><time>2026-04-26T12:37:35.195Z</time></trkpt><trkpt lat="37.6172983" lon="15.06782"><ele>587.6</ele><time>2026-04-26T12:37:36.194Z</time></trkpt><trkpt lat="37.6172567" lon="15.067925"><ele>586.8</ele><time>2026-04-26T12:37:37.194Z</time></trkpt><trkpt lat="37.61722" lon="15.06802"><ele>586.0</ele><time>2026-04-26T12:37:38.194Z</time></trkpt><trkpt lat="37.6171867" lon="15.0681133"><ele>586.0</ele><time>2026-04-26T12:37:39.194Z</time></trkpt><trkpt lat="37.6171483" lon="15.0682183"><ele>586.0</ele><time>2026-04-26T12:37:40.194Z</time></trkpt><trkpt lat="37.6171133" lon="15.06833"><ele>586.0</ele><time>2026-04-26T12:37:41.194Z</time></trkpt><trkpt lat="37.6171033" lon="15.068455"><ele>586.0</ele><time>2026-04-26T12:37:42.194Z</time></trkpt><trkpt lat="37.617105" lon="15.0686017"><ele>586.0</ele><time>2026-04-26T12:37:43.195Z</time></trkpt><trkpt lat="37.6171183" lon="15.0687667"><ele>586.25</ele><time>2026-04-26T12:37:44.194Z</time></trkpt><trkpt lat="37.6171283" lon="15.0689483"><ele>586.5</ele><time>2026-04-26T12:37:45.194Z</time></trkpt><trkpt lat="37.6171333" lon="15.0691283"><ele>586.75</ele><time>2026-04-26T12:37:46.195Z</time></trkpt><trkpt lat="37.6171433" lon="15.0693117"><ele>587.0</ele><time>2026-04-26T12:37:47.194Z</time></trkpt><trkpt lat="37.617155" lon="15.0694917"><ele>588.0</ele><time>2026-04-26T12:37:48.194Z</time></trkpt><trkpt lat="37.61715" lon="15.0696633"><ele>589.0</ele><time>2026-04-26T12:37:49.194Z</time></trkpt><trkpt lat="37.6171583" lon="15.0698333"><ele>590.0</ele><time>2026-04-26T12:37:50.194Z</time></trkpt><trkpt lat="37.6171683" lon="15.0699983"><ele>591.0</ele><time>2026-04-26T12:37:51.194Z</time></trkpt><trkpt lat="37.6171917" lon="15.0701533"><ele>592.0</ele><time>2026-04-26T12:37:52.194Z</time></trkpt><trkpt lat="37.6172217" lon="15.0703067"><ele>593.0</ele><time>2026-04-26T12:37:53.195Z</time></trkpt><trkpt lat="37.61727" lon="15.07047"><ele>594.0</ele><time>2026-04-26T12:37:54.194Z</time></trkpt><trkpt lat="37.6173233" lon="15.0706317"><ele>595.0</ele><time>2026-04-26T12:37:55.194Z</time></trkpt><trkpt lat="37.617365" lon="15.0707933"><ele>595.25</ele><time>2026-04-26T12:37:56.195Z</time></trkpt><trkpt lat="37.6174083" lon="15.07096"><ele>595.5</ele><time>2026-04-26T12:37:57.194Z</time></trkpt><trkpt lat="37.6174483" lon="15.071115"><ele>595.75</ele><time>2026-04-26T12:37:58.194Z</time></trkpt><trkpt lat="37.6174733" lon="15.07127"><ele>596.0</ele><time>2026-04-26T12:37:59.195Z</time></trkpt><trkpt lat="37.6174917" lon="15.07142"><ele>596.0</ele><time>2026-04-26T12:38:00.194Z</time></trkpt><trkpt lat="37.6175" lon="15.0715867"><ele>596.0</ele><time>2026-04-26T12:38:01.195Z</time></trkpt><trkpt lat="37.6175067" lon="15.0717533"><ele>596.0</ele><time>2026-04-26T12:38:02.194Z</time></trkpt><trkpt lat="37.61752" lon="15.071925"><ele>596.0</ele><time>2026-04-26T12:38:03.194Z</time></trkpt><trkpt lat="37.617555" lon="15.0721117"><ele>595.3333333333333</ele><time>2026-04-26T12:38:04.194Z</time></trkpt><trkpt lat="37.6176033" lon="15.0723133"><ele>594.6666666666666</ele><time>2026-04-26T12:38:05.194Z</time></trkpt><trkpt lat="37.617655" lon="15.0725083"><ele>594.0</ele><time>2026-04-26T12:38:06.195Z</time></trkpt><trkpt lat="37.6176933" lon="15.0726833"><ele>593.2</ele><time>2026-04-26T12:38:07.194Z</time></trkpt><trkpt lat="37.617725" lon="15.0728433"><ele>592.4</ele><time>2026-04-26T12:38:08.194Z</time></trkpt><trkpt lat="37.6177583" lon="15.072985"><ele>591.6</ele><time>2026-04-26T12:38:09.194Z</time></trkpt><trkpt lat="37.617785" lon="15.0731017"><ele>590.8</ele><time>2026-04-26T12:38:10.194Z</time></trkpt><trkpt lat="37.6178033" lon="15.0731883"><ele>590.0</ele><time>2026-04-26T12:38:11.194Z</time></trkpt><trkpt lat="37.6178183" lon="15.07327"><ele>590.4</ele><time>2026-04-26T12:38:12.195Z</time></trkpt><trkpt lat="37.61784" lon="15.0733767"><ele>590.8</ele><time>2026-04-26T12:38:14.195Z</time></trkpt><trkpt lat="37.61788" lon="15.073465"><ele>591.2</ele><time>2026-04-26T12:38:17.194Z</time></trkpt><trkpt lat="37.6179917" lon="15.073505"><ele>591.6</ele><time>2026-04-26T12:38:19.195Z</time></trkpt><trkpt lat="37.6180817" lon="15.0735167"><ele>592.0</ele><time>2026-04-26T12:38:20.194Z</time></trkpt><trkpt lat="37.6181817" lon="15.0735183"><ele>592.0</ele><time>2026-04-26T12:38:21.193Z</time></trkpt><trkpt lat="37.6182883" lon="15.0735217"><ele>592.0</ele><time>2026-04-26T12:38:22.193Z</time></trkpt><trkpt lat="37.6184033" lon="15.0735367"><ele>592.0</ele><time>2026-04-26T12:38:23.193Z</time></trkpt><trkpt lat="37.6185217" lon="15.0735633"><ele>592.0</ele><time>2026-04-26T12:38:24.193Z</time></trkpt><trkpt lat="37.6186383" lon="15.073605"><ele>592.5</ele><time>2026-04-26T12:38:25.194Z</time></trkpt><trkpt lat="37.6187567" lon="15.0736467"><ele>593.0</ele><time>2026-04-26T12:38:26.194Z</time></trkpt><trkpt lat="37.6188783" lon="15.0736883"><ele>593.5</ele><time>2026-04-26T12:38:27.193Z</time></trkpt><trkpt lat="37.6189883" lon="15.0737267"><ele>594.0</ele><time>2026-04-26T12:38:28.193Z</time></trkpt><trkpt lat="37.6190933" lon="15.0737567"><ele>594.0</ele><time>2026-04-26T12:38:29.194Z</time></trkpt><trkpt lat="37.61919" lon="15.0737667"><ele>594.0</ele><time>2026-04-26T12:38:30.193Z</time></trkpt><trkpt lat="37.61927" lon="15.07377"><ele>594.0</ele><time>2026-04-26T12:38:31.193Z</time></trkpt><trkpt lat="37.6193767" lon="15.0737667"><ele>594.0</ele><time>2026-04-26T12:38:33.193Z</time></trkpt><trkpt lat="37.6194667" lon="15.0737867"><ele>594.0</ele><time>2026-04-26T12:38:35.193Z</time></trkpt><trkpt lat="37.6195383" lon="15.073795"><ele>594.0</ele><time>2026-04-26T12:38:36.194Z</time></trkpt><trkpt lat="37.6196167" lon="15.0737933"><ele>594.6</ele><time>2026-04-26T12:38:37.194Z</time></trkpt><trkpt lat="37.6197083" lon="15.0737883"><ele>595.2</ele><time>2026-04-26T12:38:38.193Z</time></trkpt><trkpt lat="37.6198117" lon="15.0737933"><ele>595.8000000000001</ele><time>2026-04-26T12:38:39.193Z</time></trkpt><trkpt lat="37.61993" lon="15.0738017"><ele>596.4</ele><time>2026-04-26T12:38:40.193Z</time></trkpt><trkpt lat="37.620055" lon="15.0738183"><ele>597.0</ele><time>2026-04-26T12:38:41.193Z</time></trkpt><trkpt lat="37.62018" lon="15.0738483"><ele>597.0</ele><time>2026-04-26T12:38:42.193Z</time></trkpt><trkpt lat="37.6202933" lon="15.0738983"><ele>597.0</ele><time>2026-04-26T12:38:43.194Z</time></trkpt><trkpt lat="37.62041" lon="15.0739667"><ele>597.0</ele><time>2026-04-26T12:38:44.193Z</time></trkpt><trkpt lat="37.6205483" lon="15.0740367"><ele>597.0</ele><time>2026-04-26T12:38:45.193Z</time></trkpt><trkpt lat="37.6207017" lon="15.0741167"><ele>598.6666666666666</ele><time>2026-04-26T12:38:46.193Z</time></trkpt><trkpt lat="37.6208683" lon="15.074205"><ele>600.3333333333333</ele><time>2026-04-26T12:38:47.193Z</time></trkpt><trkpt lat="37.6210283" lon="15.074285"><ele>602.0</ele><time>2026-04-26T12:38:48.193Z</time></trkpt><trkpt lat="37.6211783" lon="15.07437"><ele>603.0</ele><time>2026-04-26T12:38:49.193Z</time></trkpt><trkpt lat="37.6213167" lon="15.0744567"><ele>604.0</ele><time>2026-04-26T12:38:50.193Z</time></trkpt><trkpt lat="37.62145" lon="15.0745417"><ele>605.0</ele><time>2026-04-26T12:38:51.193Z</time></trkpt><trkpt lat="37.62159" lon="15.0746267"><ele>605.0</ele><time>2026-04-26T12:38:52.193Z</time></trkpt><trkpt lat="37.6217333" lon="15.074715"><ele>605.0</ele><time>2026-04-26T12:38:53.193Z</time></trkpt><trkpt lat="37.6218917" lon="15.074815"><ele>605.0</ele><time>2026-04-26T12:38:54.193Z</time></trkpt><trkpt lat="37.6220783" lon="15.074925"><ele>603.3333333333333</ele><time>2026-04-26T12:38:55.193Z</time></trkpt><trkpt lat="37.6222883" lon="15.07503"><ele>601.6666666666666</ele><time>2026-04-26T12:38:56.193Z</time></trkpt><trkpt lat="37.62248" lon="15.0751367"><ele>600.0</ele><time>2026-04-26T12:38:57.194Z</time></trkpt><trkpt lat="37.6226717" lon="15.0752417"><ele>600.0</ele><time>2026-04-26T12:38:58.193Z</time></trkpt><trkpt lat="37.62286" lon="15.0753317"><ele>600.0</ele><time>2026-04-26T12:38:59.193Z</time></trkpt><trkpt lat="37.6230533" lon="15.0753917"><ele>600.0</ele><time>2026-04-26T12:39:00.193Z</time></trkpt><trkpt lat="37.6232517" lon="15.0754283"><ele>600.0</ele><time>2026-04-26T12:39:01.193Z</time></trkpt><trkpt lat="37.6234467" lon="15.07546"><ele>600.0</ele><time>2026-04-26T12:39:02.194Z</time></trkpt><trkpt lat="37.6236333" lon="15.0754833"><ele>600.0</ele><time>2026-04-26T12:39:03.193Z</time></trkpt><trkpt lat="37.6238133" lon="15.0755133"><ele>599.0</ele><time>2026-04-26T12:39:04.193Z</time></trkpt><trkpt lat="37.6239817" lon="15.075535"><ele>598.0</ele><time>2026-04-26T12:39:05.193Z</time></trkpt><trkpt lat="37.6241483" lon="15.075555"><ele>597.0</ele><time>2026-04-26T12:39:06.193Z</time></trkpt><trkpt lat="37.6243117" lon="15.0755783"><ele>597.0</ele><time>2026-04-26T12:39:07.193Z</time></trkpt><trkpt lat="37.6244683" lon="15.075595"><ele>597.0</ele><time>2026-04-26T12:39:08.193Z</time></trkpt><trkpt lat="37.6246333" lon="15.0756083"><ele>597.0</ele><time>2026-04-26T12:39:09.193Z</time></trkpt><trkpt lat="37.624795" lon="15.0756167"><ele>595.3333333333334</ele><time>2026-04-26T12:39:10.193Z</time></trkpt><trkpt lat="37.62495" lon="15.0756217"><ele>593.6666666666667</ele><time>2026-04-26T12:39:11.193Z</time></trkpt><trkpt lat="37.625105" lon="15.0756083"><ele>592.0</ele><time>2026-04-26T12:39:12.193Z</time></trkpt><trkpt lat="37.6252483" lon="15.0755867"><ele>591.5</ele><time>2026-04-26T12:39:13.193Z</time></trkpt><trkpt lat="37.6253867" lon="15.0755567"><ele>591.0</ele><time>2026-04-26T12:39:14.193Z</time></trkpt><trkpt lat="37.6255133" lon="15.0755233"><ele>590.5</ele><time>2026-04-26T12:39:15.193Z</time></trkpt><trkpt lat="37.6256283" lon="15.0755"><ele>590.0</ele><time>2026-04-26T12:39:16.193Z</time></trkpt><trkpt lat="37.6257267" lon="15.0755033"><ele>590.0</ele><time>2026-04-26T12:39:17.193Z</time></trkpt><trkpt lat="37.6258083" lon="15.0755333"><ele>590.0</ele><time>2026-04-26T12:39:18.194Z</time></trkpt><trkpt lat="37.62588" lon="15.0756133"><ele>590.0</ele><time>2026-04-26T12:39:19.193Z</time></trkpt><trkpt lat="37.6259483" lon="15.07572"><ele>590.0</ele><time>2026-04-26T12:39:20.193Z</time></trkpt><trkpt lat="37.626025" lon="15.0758617"><ele>590.0</ele><time>2026-04-26T12:39:21.193Z</time></trkpt><trkpt lat="37.6261033" lon="15.0760167"><ele>588.3333333333333</ele><time>2026-04-26T12:39:22.193Z</time></trkpt><trkpt lat="37.6261867" lon="15.07619"><ele>586.6666666666666</ele><time>2026-04-26T12:39:23.193Z</time></trkpt><trkpt lat="37.6262733" lon="15.0763733"><ele>585.0</ele><time>2026-04-26T12:39:24.193Z</time></trkpt><trkpt lat="37.6263583" lon="15.07655"><ele>584.25</ele><time>2026-04-26T12:39:25.194Z</time></trkpt><trkpt lat="37.62644" lon="15.0767217"><ele>583.5</ele><time>2026-04-26T12:39:26.193Z</time></trkpt><trkpt lat="37.6265167" lon="15.07688"><ele>582.75</ele><time>2026-04-26T12:39:27.193Z</time></trkpt><trkpt lat="37.6265817" lon="15.0770317"><ele>582.0</ele><time>2026-04-26T12:39:28.193Z</time></trkpt><trkpt lat="37.62663" lon="15.07718"><ele>582.0</ele><time>2026-04-26T12:39:29.193Z</time></trkpt><trkpt lat="37.626655" lon="15.0773417"><ele>582.0</ele><time>2026-04-26T12:39:30.193Z</time></trkpt><trkpt lat="37.6266367" lon="15.0774967"><ele>582.0</ele><time>2026-04-26T12:39:31.194Z</time></trkpt><trkpt lat="37.626605" lon="15.07764"><ele>582.0</ele><time>2026-04-26T12:39:32.193Z</time></trkpt><trkpt lat="37.6265767" lon="15.0777633"><ele>581.5</ele><time>2026-04-26T12:39:33.193Z</time></trkpt><trkpt lat="37.6265383" lon="15.0778617"><ele>581.0</ele><time>2026-04-26T12:39:34.193Z</time></trkpt><trkpt lat="37.6264867" lon="15.0779483"><ele>580.5</ele><time>2026-04-26T12:39:35.193Z</time></trkpt><trkpt lat="37.62643" lon="15.07803"><ele>580.0</ele><time>2026-04-26T12:39:36.193Z</time></trkpt><trkpt lat="37.6263983" lon="15.07813"><ele>579.5</ele><time>2026-04-26T12:39:37.193Z</time></trkpt><trkpt lat="37.6263983" lon="15.078215"><ele>579.0</ele><time>2026-04-26T12:39:38.193Z</time></trkpt><trkpt lat="37.6264433" lon="15.07829"><ele>578.3333333333334</ele><time>2026-04-26T12:39:39.193Z</time></trkpt><trkpt lat="37.6265233" lon="15.0783383"><ele>577.6666666666666</ele><time>2026-04-26T12:39:40.193Z</time></trkpt><trkpt lat="37.62661" lon="15.0783683"><ele>577.0</ele><time>2026-04-26T12:39:41.193Z</time></trkpt><trkpt lat="37.62669" lon="15.0783983"><ele>576.3333333333333</ele><time>2026-04-26T12:39:42.194Z</time></trkpt><trkpt lat="37.6267517" lon="15.078475"><ele>575.6666666666666</ele><time>2026-04-26T12:39:43.193Z</time></trkpt><trkpt lat="37.6267967" lon="15.078585"><ele>575.0</ele><time>2026-04-26T12:39:44.193Z</time></trkpt><trkpt lat="37.6268533" lon="15.0787217"><ele>575.0</ele><time>2026-04-26T12:39:45.193Z</time></trkpt><trkpt lat="37.62692" lon="15.0788733"><ele>575.0</ele><time>2026-04-26T12:39:46.193Z</time></trkpt><trkpt lat="37.6269917" lon="15.07903"><ele>575.0</ele><time>2026-04-26T12:39:47.193Z</time></trkpt><trkpt lat="37.6270667" lon="15.0791983"><ele>575.0</ele><time>2026-04-26T12:39:48.194Z</time></trkpt><trkpt lat="37.6271467" lon="15.079375"><ele>572.6666666666666</ele><time>2026-04-26T12:39:49.194Z</time></trkpt><trkpt lat="37.6272267" lon="15.07956"><ele>570.3333333333334</ele><time>2026-04-26T12:39:50.193Z</time></trkpt><trkpt lat="37.6273117" lon="15.079755"><ele>568.0</ele><time>2026-04-26T12:39:51.193Z</time></trkpt><trkpt lat="37.6274" lon="15.07995"><ele>566.3333333333334</ele><time>2026-04-26T12:39:52.193Z</time></trkpt><trkpt lat="37.62749" lon="15.0801367"><ele>564.6666666666666</ele><time>2026-04-26T12:39:53.193Z</time></trkpt><trkpt lat="37.6275833" lon="15.0802967"><ele>563.0</ele><time>2026-04-26T12:39:54.193Z</time></trkpt><trkpt lat="37.6276817" lon="15.08045"><ele>563.0</ele><time>2026-04-26T12:39:55.194Z</time></trkpt><trkpt lat="37.627785" lon="15.0806"><ele>563.0</ele><time>2026-04-26T12:39:56.193Z</time></trkpt><trkpt lat="37.62789" lon="15.08076"><ele>563.0</ele><time>2026-04-26T12:39:57.193Z</time></trkpt><trkpt lat="37.6279867" lon="15.0809217"><ele>561.75</ele><time>2026-04-26T12:39:58.193Z</time></trkpt><trkpt lat="37.6280817" lon="15.0810733"><ele>560.5</ele><time>2026-04-26T12:39:59.193Z</time></trkpt><trkpt lat="37.6281733" lon="15.08122"><ele>559.25</ele><time>2026-04-26T12:40:00.192Z</time></trkpt><trkpt lat="37.62827" lon="15.0813567"><ele>558.0</ele><time>2026-04-26T12:40:01.193Z</time></trkpt><trkpt lat="37.628375" lon="15.08148"><ele>558.0</ele><time>2026-04-26T12:40:02.193Z</time></trkpt><trkpt lat="37.62849" lon="15.0815983"><ele>558.0</ele><time>2026-04-26T12:40:03.194Z</time></trkpt><trkpt lat="37.6286" lon="15.0817033"><ele>558.0</ele><time>2026-04-26T12:40:04.193Z</time></trkpt><trkpt lat="37.6287133" lon="15.0817967"><ele>558.0</ele><time>2026-04-26T12:40:05.193Z</time></trkpt><trkpt lat="37.6288117" lon="15.0818883"><ele>556.8</ele><time>2026-04-26T12:40:06.193Z</time></trkpt><trkpt lat="37.6289033" lon="15.0819683"><ele>555.5999999999999</ele><time>2026-04-26T12:40:07.193Z</time></trkpt><trkpt lat="37.6289883" lon="15.0820483"><ele>554.4000000000001</ele><time>2026-04-26T12:40:08.194Z</time></trkpt><trkpt lat="37.6290583" lon="15.0821183"><ele>553.2</ele><time>2026-04-26T12:40:09.193Z</time></trkpt><trkpt lat="37.629135" lon="15.0822183"><ele>552.0</ele><time>2026-04-26T12:40:11.194Z</time></trkpt><trkpt lat="37.6291817" lon="15.0823"><ele>552.0</ele><time>2026-04-26T12:40:14.193Z</time></trkpt><trkpt lat="37.6292917" lon="15.0823667"><ele>552.0</ele><time>2026-04-26T12:40:16.193Z</time></trkpt><trkpt lat="37.6293717" lon="15.0824267"><ele>552.0</ele><time>2026-04-26T12:40:17.193Z</time></trkpt><trkpt lat="37.6294767" lon="15.0825067"><ele>552.0</ele><time>2026-04-26T12:40:18.193Z</time></trkpt><trkpt lat="37.6296117" lon="15.0826167"><ele>551.0</ele><time>2026-04-26T12:40:19.193Z</time></trkpt><trkpt lat="37.62976" lon="15.082755"><ele>550.0</ele><time>2026-04-26T12:40:20.194Z</time></trkpt><trkpt lat="37.6299433" lon="15.0829167"><ele>549.0</ele><time>2026-04-26T12:40:21.193Z</time></trkpt><trkpt lat="37.6301467" lon="15.0831017"><ele>547.0</ele><time>2026-04-26T12:40:22.193Z</time></trkpt><trkpt lat="37.6303617" lon="15.0833"><ele>545.0</ele><time>2026-04-26T12:40:23.193Z</time></trkpt><trkpt lat="37.6305867" lon="15.083505"><ele>545.0</ele><time>2026-04-26T12:40:24.193Z</time></trkpt><trkpt lat="37.6308033" lon="15.0836967"><ele>545.0</ele><time>2026-04-26T12:40:25.193Z</time></trkpt><trkpt lat="37.6310133" lon="15.0838833"><ele>546.5</ele><time>2026-04-26T12:40:26.193Z</time></trkpt><trkpt lat="37.6312117" lon="15.0840583"><ele>548.0</ele><time>2026-04-26T12:40:27.193Z</time></trkpt><trkpt lat="37.631405" lon="15.0842383"><ele>548.0</ele><time>2026-04-26T12:40:28.193Z</time></trkpt><trkpt lat="37.6315867" lon="15.08441"><ele>548.0</ele><time>2026-04-26T12:40:29.194Z</time></trkpt><trkpt lat="37.6317633" lon="15.0845633"><ele>548.0</ele><time>2026-04-26T12:40:30.193Z</time></trkpt><trkpt lat="37.6319333" lon="15.0847017"><ele>549.0</ele><time>2026-04-26T12:40:31.193Z</time></trkpt><trkpt lat="37.6320933" lon="15.0848367"><ele>550.0</ele><time>2026-04-26T12:40:32.193Z</time></trkpt><trkpt lat="37.6322483" lon="15.0849617"><ele>551.0</ele><time>2026-04-26T12:40:33.193Z</time></trkpt><trkpt lat="37.6323983" lon="15.0850783"><ele>551.0</ele><time>2026-04-26T12:40:34.194Z</time></trkpt><trkpt lat="37.632535" lon="15.0851883"><ele>551.0</ele><time>2026-04-26T12:40:35.193Z</time></trkpt><trkpt lat="37.6326817" lon="15.0852933"><ele>551.0</ele><time>2026-04-26T12:40:36.193Z</time></trkpt><trkpt lat="37.6328383" lon="15.0853717"><ele>552.0</ele><time>2026-04-26T12:40:37.193Z</time></trkpt><trkpt lat="37.63301" lon="15.0854333"><ele>553.0</ele><time>2026-04-26T12:40:38.193Z</time></trkpt><trkpt lat="37.6332017" lon="15.08546"><ele>554.0</ele><time>2026-04-26T12:40:39.193Z</time></trkpt><trkpt lat="37.6333967" lon="15.08546"><ele>554.0</ele><time>2026-04-26T12:40:40.193Z</time></trkpt><trkpt lat="37.633595" lon="15.0854517"><ele>554.0</ele><time>2026-04-26T12:40:41.193Z</time></trkpt><trkpt lat="37.6337783" lon="15.0854483"><ele>554.0</ele><time>2026-04-26T12:40:42.193Z</time></trkpt><trkpt lat="37.6339617" lon="15.08545"><ele>554.3333333333333</ele><time>2026-04-26T12:40:43.193Z</time></trkpt><trkpt lat="37.6341433" lon="15.085465"><ele>554.6666666666666</ele><time>2026-04-26T12:40:44.194Z</time></trkpt><trkpt lat="37.6343217" lon="15.0855017"><ele>555.0</ele><time>2026-04-26T12:40:45.193Z</time></trkpt><trkpt lat="37.6344917" lon="15.085545"><ele>555.0</ele><time>2026-04-26T12:40:46.193Z</time></trkpt><trkpt lat="37.6346617" lon="15.08559"><ele>555.0</ele><time>2026-04-26T12:40:47.193Z</time></trkpt><trkpt lat="37.6348183" lon="15.0856517"><ele>555.0</ele><time>2026-04-26T12:40:48.193Z</time></trkpt><trkpt lat="37.6349667" lon="15.0857317"><ele>551.6666666666666</ele><time>2026-04-26T12:40:49.193Z</time></trkpt><trkpt lat="37.63513" lon="15.0858417"><ele>548.3333333333333</ele><time>2026-04-26T12:40:50.193Z</time></trkpt><trkpt lat="37.6352967" lon="15.0859783"><ele>545.0</ele><time>2026-04-26T12:40:51.193Z</time></trkpt><trkpt lat="37.63547" lon="15.0861067"><ele>544.0</ele><time>2026-04-26T12:40:52.193Z</time></trkpt><trkpt lat="37.6356417" lon="15.0862383"><ele>543.0</ele><time>2026-04-26T12:40:53.193Z</time></trkpt><trkpt lat="37.63581" lon="15.0863817"><ele>542.0</ele><time>2026-04-26T12:40:54.193Z</time></trkpt><trkpt lat="37.6359717" lon="15.0865167"><ele>538.0</ele><time>2026-04-26T12:40:55.193Z</time></trkpt><trkpt lat="37.6361333" lon="15.0866467"><ele>534.0</ele><time>2026-04-26T12:40:56.193Z</time></trkpt><trkpt lat="37.6362883" lon="15.08677"><ele>530.0</ele><time>2026-04-26T12:40:57.194Z</time></trkpt><trkpt lat="37.6364433" lon="15.086895"><ele>529.0</ele><time>2026-04-26T12:40:58.193Z</time></trkpt><trkpt lat="37.6366" lon="15.087015"><ele>528.0</ele><time>2026-04-26T12:40:59.193Z</time></trkpt><trkpt lat="37.6367583" lon="15.0871433"><ele>527.0</ele><time>2026-04-26T12:41:00.194Z</time></trkpt><trkpt lat="37.636915" lon="15.0872717"><ele>526.6666666666666</ele><time>2026-04-26T12:41:01.193Z</time></trkpt><trkpt lat="37.6370767" lon="15.0874017"><ele>526.3333333333334</ele><time>2026-04-26T12:41:02.193Z</time></trkpt><trkpt lat="37.637225" lon="15.087535"><ele>526.0</ele><time>2026-04-26T12:41:03.193Z</time></trkpt><trkpt lat="37.6373767" lon="15.0876783"><ele>526.0</ele><time>2026-04-26T12:41:04.193Z</time></trkpt><trkpt lat="37.637535" lon="15.0878317"><ele>526.0</ele><time>2026-04-26T12:41:05.193Z</time></trkpt><trkpt lat="37.6376733" lon="15.0879967"><ele>526.0</ele><time>2026-04-26T12:41:06.194Z</time></trkpt><trkpt lat="37.6378117" lon="15.0881533"><ele>525.3333333333334</ele><time>2026-04-26T12:41:07.193Z</time></trkpt><trkpt lat="37.6379417" lon="15.0882933"><ele>524.6666666666666</ele><time>2026-04-26T12:41:08.193Z</time></trkpt><trkpt lat="37.63807" lon="15.0884367"><ele>524.0</ele><time>2026-04-26T12:41:09.185Z</time></trkpt><trkpt lat="37.6382033" lon="15.0885767"><ele>524.0</ele><time>2026-04-26T12:41:10.193Z</time></trkpt><trkpt lat="37.6383333" lon="15.0887133"><ele>524.0</ele><time>2026-04-26T12:41:11.193Z</time></trkpt><trkpt lat="37.6384567" lon="15.0888483"><ele>524.0</ele><time>2026-04-26T12:41:12.193Z</time></trkpt><trkpt lat="37.6385767" lon="15.08897"><ele>524.2</ele><time>2026-04-26T12:41:13.193Z</time></trkpt><trkpt lat="37.638685" lon="15.08907"><ele>524.4</ele><time>2026-04-26T12:41:14.194Z</time></trkpt><trkpt lat="37.6387683" lon="15.0891567"><ele>524.6</ele><time>2026-04-26T12:41:15.193Z</time></trkpt><trkpt lat="37.6388317" lon="15.0892167"><ele>524.8</ele><time>2026-04-26T12:41:16.193Z</time></trkpt><trkpt lat="37.638885" lon="15.0892633"><ele>525.0</ele><time>2026-04-26T12:41:17.193Z</time></trkpt><trkpt lat="37.6389467" lon="15.0893117"><ele>524.4</ele><time>2026-04-26T12:41:18.193Z</time></trkpt><trkpt lat="37.6390167" lon="15.0893567"><ele>523.8</ele><time>2026-04-26T12:41:19.193Z</time></trkpt><trkpt lat="37.63909" lon="15.0894117"><ele>523.2</ele><time>2026-04-26T12:41:20.193Z</time></trkpt><trkpt lat="37.6391767" lon="15.0894867"><ele>522.6</ele><time>2026-04-26T12:41:21.193Z</time></trkpt><trkpt lat="37.63929" lon="15.08959"><ele>522.0</ele><time>2026-04-26T12:41:22.193Z</time></trkpt><trkpt lat="37.6394283" lon="15.089715"><ele>522.0</ele><time>2026-04-26T12:41:23.194Z</time></trkpt><trkpt lat="37.63959" lon="15.0898467"><ele>522.0</ele><time>2026-04-26T12:41:24.193Z</time></trkpt><trkpt lat="37.639765" lon="15.089985"><ele>522.0</ele><time>2026-04-26T12:41:25.193Z</time></trkpt><trkpt lat="37.6399417" lon="15.09012"><ele>520.6666666666666</ele><time>2026-04-26T12:41:26.193Z</time></trkpt><trkpt lat="37.6401183" lon="15.0902317"><ele>519.3333333333333</ele><time>2026-04-26T12:41:27.193Z</time></trkpt><trkpt lat="37.6402817" lon="15.09035"><ele>518.0</ele><time>2026-04-26T12:41:28.193Z</time></trkpt><trkpt lat="37.6404417" lon="15.0904683"><ele>518.0</ele><time>2026-04-26T12:41:29.193Z</time></trkpt><trkpt lat="37.64059" lon="15.0905783"><ele>518.0</ele><time>2026-04-26T12:41:30.193Z</time></trkpt><trkpt lat="37.6407283" lon="15.0906917"><ele>518.0</ele><time>2026-04-26T12:41:31.193Z</time></trkpt><trkpt lat="37.6408567" lon="15.0907867"><ele>516.5</ele><time>2026-04-26T12:41:32.193Z</time></trkpt><trkpt lat="37.6409833" lon="15.090875"><ele>515.0</ele><time>2026-04-26T12:41:33.194Z</time></trkpt><trkpt lat="37.6410933" lon="15.0909567"><ele>513.5</ele><time>2026-04-26T12:41:34.193Z</time></trkpt><trkpt lat="37.6411967" lon="15.0910333"><ele>512.0</ele><time>2026-04-26T12:41:35.193Z</time></trkpt><trkpt lat="37.641295" lon="15.0911017"><ele>511.75</ele><time>2026-04-26T12:41:36.194Z</time></trkpt><trkpt lat="37.6413867" lon="15.0911683"><ele>511.5</ele><time>2026-04-26T12:41:37.193Z</time></trkpt><trkpt lat="37.64147" lon="15.09123"><ele>511.25</ele><time>2026-04-26T12:41:38.193Z</time></trkpt><trkpt lat="37.6415717" lon="15.0913033"><ele>511.0</ele><time>2026-04-26T12:41:39.194Z</time></trkpt><trkpt lat="37.6416833" lon="15.0913933"><ele>511.0</ele><time>2026-04-26T12:41:40.193Z</time></trkpt><trkpt lat="37.6418233" lon="15.0914933"><ele>511.0</ele><time>2026-04-26T12:41:41.193Z</time></trkpt><trkpt lat="37.6419783" lon="15.0916067"><ele>511.0</ele><time>2026-04-26T12:41:42.193Z</time></trkpt><trkpt lat="37.64214" lon="15.091725"><ele>511.33333333333337</ele><time>2026-04-26T12:41:43.193Z</time></trkpt><trkpt lat="37.6423183" lon="15.0918517"><ele>511.66666666666663</ele><time>2026-04-26T12:41:44.193Z</time></trkpt><trkpt lat="37.6424933" lon="15.091985"><ele>512.0</ele><time>2026-04-26T12:41:45.193Z</time></trkpt><trkpt lat="37.6426533" lon="15.092105"><ele>514.0</ele><time>2026-04-26T12:41:46.194Z</time></trkpt><trkpt lat="37.6428067" lon="15.0922133"><ele>516.0</ele><time>2026-04-26T12:41:47.193Z</time></trkpt><trkpt lat="37.6429483" lon="15.0923217"><ele>518.0</ele><time>2026-04-26T12:41:48.193Z</time></trkpt><trkpt lat="37.643085" lon="15.0924183"><ele>517.0</ele><time>2026-04-26T12:41:49.193Z</time></trkpt><trkpt lat="37.64321" lon="15.092515"><ele>516.0</ele><time>2026-04-26T12:41:50.193Z</time></trkpt><trkpt lat="37.64332" lon="15.0925983"><ele>515.0</ele><time>2026-04-26T12:41:51.193Z</time></trkpt><trkpt lat="37.643425" lon="15.0926783"><ele>514.0</ele><time>2026-04-26T12:41:52.193Z</time></trkpt><trkpt lat="37.643515" lon="15.092755"><ele>514.0</ele><time>2026-04-26T12:41:53.193Z</time></trkpt><trkpt lat="37.6435883" lon="15.0928283"><ele>514.0</ele><time>2026-04-26T12:41:54.193Z</time></trkpt><trkpt lat="37.6436417" lon="15.0928967"><ele>514.0</ele><time>2026-04-26T12:41:55.193Z</time></trkpt><trkpt lat="37.6437017" lon="15.0929983"><ele>514.0</ele><time>2026-04-26T12:41:57.193Z</time></trkpt><trkpt lat="37.6437583" lon="15.093035"><ele>514.0</ele><time>2026-04-26T12:42:00.194Z</time></trkpt><trkpt lat="37.6438767" lon="15.092995"><ele>514.5</ele><time>2026-04-26T12:42:02.193Z</time></trkpt><trkpt lat="37.6439567" lon="15.0929417"><ele>515.0</ele><time>2026-04-26T12:42:03.193Z</time></trkpt><trkpt lat="37.64405" lon="15.092875"><ele>515.5</ele><time>2026-04-26T12:42:04.193Z</time></trkpt><trkpt lat="37.6441717" lon="15.092775"><ele>516.0</ele><time>2026-04-26T12:42:05.193Z</time></trkpt><trkpt lat="37.644305" lon="15.0926617"><ele>516.0</ele><time>2026-04-26T12:42:06.193Z</time></trkpt><trkpt lat="37.6444517" lon="15.0925533"><ele>516.0</ele><time>2026-04-26T12:42:07.193Z</time></trkpt><trkpt lat="37.6445867" lon="15.09246"><ele>516.0</ele><time>2026-04-26T12:42:08.193Z</time></trkpt><trkpt lat="37.6447117" lon="15.09237"><ele>517.25</ele><time>2026-04-26T12:42:09.193Z</time></trkpt><trkpt lat="37.6448383" lon="15.0923017"><ele>518.5</ele><time>2026-04-26T12:42:10.193Z</time></trkpt><trkpt lat="37.6449717" lon="15.0922483"><ele>519.75</ele><time>2026-04-26T12:42:11.193Z</time></trkpt><trkpt lat="37.6451017" lon="15.0921983"><ele>521.0</ele><time>2026-04-26T12:42:12.193Z</time></trkpt><trkpt lat="37.6452367" lon="15.09217"><ele>521.75</ele><time>2026-04-26T12:42:13.193Z</time></trkpt><trkpt lat="37.6453567" lon="15.0921333"><ele>522.5</ele><time>2026-04-26T12:42:14.193Z</time></trkpt><trkpt lat="37.6454883" lon="15.0921267"><ele>523.25</ele><time>2026-04-26T12:42:15.193Z</time></trkpt><trkpt lat="37.64562" lon="15.09214"><ele>524.0</ele><time>2026-04-26T12:42:16.193Z</time></trkpt><trkpt lat="37.6457533" lon="15.0921667"><ele>524.0</ele><time>2026-04-26T12:42:17.193Z</time></trkpt><trkpt lat="37.64588" lon="15.0922133"><ele>524.0</ele><time>2026-04-26T12:42:18.193Z</time></trkpt><trkpt lat="37.6459967" lon="15.0922783"><ele>524.0</ele><time>2026-04-26T12:42:19.193Z</time></trkpt><trkpt lat="37.6461033" lon="15.0923417"><ele>524.0</ele><time>2026-04-26T12:42:20.194Z</time></trkpt><trkpt lat="37.6462083" lon="15.0924117"><ele>524.75</ele><time>2026-04-26T12:42:21.193Z</time></trkpt><trkpt lat="37.64632" lon="15.09247"><ele>525.5</ele><time>2026-04-26T12:42:22.193Z</time></trkpt><trkpt lat="37.6464483" lon="15.0925133"><ele>526.25</ele><time>2026-04-26T12:42:23.193Z</time></trkpt><trkpt lat="37.6465833" lon="15.092535"><ele>527.0</ele><time>2026-04-26T12:42:24.193Z</time></trkpt><trkpt lat="37.646715" lon="15.0925567"><ele>527.0</ele><time>2026-04-26T12:42:25.193Z</time></trkpt><trkpt lat="37.6468567" lon="15.0925633"><ele>527.0</ele><time>2026-04-26T12:42:26.193Z</time></trkpt><trkpt lat="37.6470283" lon="15.0925733"><ele>527.0</ele><time>2026-04-26T12:42:27.193Z</time></trkpt><trkpt lat="37.6472117" lon="15.0925917"><ele>528.3333333333333</ele><time>2026-04-26T12:42:28.193Z</time></trkpt><trkpt lat="37.6474183" lon="15.0926183"><ele>529.6666666666666</ele><time>2026-04-26T12:42:29.193Z</time></trkpt><trkpt lat="37.6476433" lon="15.0926517"><ele>531.0</ele><time>2026-04-26T12:42:30.193Z</time></trkpt><trkpt lat="37.647855" lon="15.0926883"><ele>532.3333333333334</ele><time>2026-04-26T12:42:31.193Z</time></trkpt><trkpt lat="37.64806" lon="15.0927133"><ele>533.6666666666667</ele><time>2026-04-26T12:42:32.193Z</time></trkpt><trkpt lat="37.64825" lon="15.0927333"><ele>535.0</ele><time>2026-04-26T12:42:33.193Z</time></trkpt><trkpt lat="37.6484267" lon="15.092755"><ele>535.0</ele><time>2026-04-26T12:42:34.193Z</time></trkpt><trkpt lat="37.6486083" lon="15.0927817"><ele>535.0</ele><time>2026-04-26T12:42:35.193Z</time></trkpt><trkpt lat="37.6488083" lon="15.0928033"><ele>535.0</ele><time>2026-04-26T12:42:36.193Z</time></trkpt><trkpt lat="37.6489767" lon="15.0928583"><ele>537.6666666666667</ele><time>2026-04-26T12:42:37.193Z</time></trkpt><trkpt lat="37.649135" lon="15.09292"><ele>540.3333333333334</ele><time>2026-04-26T12:42:38.193Z</time></trkpt><trkpt lat="37.649285" lon="15.0929717"><ele>543.0</ele><time>2026-04-26T12:42:39.193Z</time></trkpt><trkpt lat="37.6494467" lon="15.0930117"><ele>544.3333333333334</ele><time>2026-04-26T12:42:40.193Z</time></trkpt><trkpt lat="37.6496033" lon="15.0930517"><ele>545.6666666666667</ele><time>2026-04-26T12:42:41.193Z</time></trkpt><trkpt lat="37.64976" lon="15.0930883"><ele>547.0</ele><time>2026-04-26T12:42:42.193Z</time></trkpt><trkpt lat="37.6499033" lon="15.0931317"><ele>547.0</ele><time>2026-04-26T12:42:43.193Z</time></trkpt><trkpt lat="37.6500467" lon="15.093185"><ele>547.0</ele><time>2026-04-26T12:42:44.193Z</time></trkpt><trkpt lat="37.6501983" lon="15.0932717"><ele>547.0</ele><time>2026-04-26T12:42:45.193Z</time></trkpt><trkpt lat="37.6503133" lon="15.0933883"><ele>548.6666666666667</ele><time>2026-04-26T12:42:46.193Z</time></trkpt><trkpt lat="37.650415" lon="15.093525"><ele>550.3333333333334</ele><time>2026-04-26T12:42:47.193Z</time></trkpt><trkpt lat="37.6505067" lon="15.09368"><ele>552.0</ele><time>2026-04-26T12:42:48.193Z</time></trkpt><trkpt lat="37.6505917" lon="15.0938433"><ele>552.0</ele><time>2026-04-26T12:42:49.193Z</time></trkpt><trkpt lat="37.65069" lon="15.0940067"><ele>552.0</ele><time>2026-04-26T12:42:50.194Z</time></trkpt><trkpt lat="37.6507983" lon="15.094155"><ele>552.0</ele><time>2026-04-26T12:42:51.193Z</time></trkpt><trkpt lat="37.65093" lon="15.09429"><ele>552.3333333333334</ele><time>2026-04-26T12:42:52.194Z</time></trkpt><trkpt lat="37.6510767" lon="15.0943967"><ele>552.6666666666667</ele><time>2026-04-26T12:42:53.193Z</time></trkpt><trkpt lat="37.6512333" lon="15.0944783"><ele>553.0</ele><time>2026-04-26T12:42:54.193Z</time></trkpt><trkpt lat="37.6514033" lon="15.0945417"><ele>553.3333333333334</ele><time>2026-04-26T12:42:55.193Z</time></trkpt><trkpt lat="37.6515833" lon="15.0946117"><ele>553.6666666666666</ele><time>2026-04-26T12:42:56.193Z</time></trkpt><trkpt lat="37.651735" lon="15.0946967"><ele>554.0</ele><time>2026-04-26T12:42:57.193Z</time></trkpt><trkpt lat="37.6518833" lon="15.0948167"><ele>554.3333333333333</ele><time>2026-04-26T12:42:58.193Z</time></trkpt><trkpt lat="37.6520283" lon="15.09497"><ele>554.6666666666666</ele><time>2026-04-26T12:42:59.193Z</time></trkpt><trkpt lat="37.6521617" lon="15.0951383"><ele>555.0</ele><time>2026-04-26T12:43:00.194Z</time></trkpt><trkpt lat="37.6522917" lon="15.0953017"><ele>555.0</ele><time>2026-04-26T12:43:01.193Z</time></trkpt><trkpt lat="37.6524267" lon="15.095455"><ele>555.0</ele><time>2026-04-26T12:43:02.193Z</time></trkpt><trkpt lat="37.652565" lon="15.0955933"><ele>555.0</ele><time>2026-04-26T12:43:03.193Z</time></trkpt><trkpt lat="37.6527133" lon="15.0957183"><ele>553.6666666666666</ele><time>2026-04-26T12:43:04.194Z</time></trkpt><trkpt lat="37.6528567" lon="15.0958467"><ele>552.3333333333333</ele><time>2026-04-26T12:43:05.194Z</time></trkpt><trkpt lat="37.6530033" lon="15.0959733"><ele>551.0</ele><time>2026-04-26T12:43:06.193Z</time></trkpt><trkpt lat="37.6531433" lon="15.0961"><ele>551.0</ele><time>2026-04-26T12:43:07.193Z</time></trkpt><trkpt lat="37.6532817" lon="15.0962117"><ele>551.0</ele><time>2026-04-26T12:43:08.193Z</time></trkpt><trkpt lat="37.653415" lon="15.0963317"><ele>551.0</ele><time>2026-04-26T12:43:09.193Z</time></trkpt><trkpt lat="37.6535517" lon="15.0964483"><ele>551.3333333333333</ele><time>2026-04-26T12:43:10.193Z</time></trkpt><trkpt lat="37.6536867" lon="15.096565"><ele>551.6666666666666</ele><time>2026-04-26T12:43:11.193Z</time></trkpt><trkpt lat="37.6538267" lon="15.09669"><ele>552.0</ele><time>2026-04-26T12:43:12.193Z</time></trkpt><trkpt lat="37.6539683" lon="15.0968183"><ele>552.0</ele><time>2026-04-26T12:43:13.193Z</time></trkpt><trkpt lat="37.6541017" lon="15.0969483"><ele>552.0</ele><time>2026-04-26T12:43:14.194Z</time></trkpt><trkpt lat="37.65423" lon="15.0970967"><ele>552.0</ele><time>2026-04-26T12:43:15.193Z</time></trkpt><trkpt lat="37.654335" lon="15.0972367"><ele>552.0</ele><time>2026-04-26T12:43:16.193Z</time></trkpt><trkpt lat="37.6544317" lon="15.09737"><ele>552.0</ele><time>2026-04-26T12:43:17.193Z</time></trkpt><trkpt lat="37.6545217" lon="15.0974967"><ele>552.0</ele><time>2026-04-26T12:43:18.193Z</time></trkpt><trkpt lat="37.6546133" lon="15.0976167"><ele>552.0</ele><time>2026-04-26T12:43:19.193Z</time></trkpt><trkpt lat="37.6547083" lon="15.0977383"><ele>553.75</ele><time>2026-04-26T12:43:20.193Z</time></trkpt><trkpt lat="37.6548117" lon="15.09786"><ele>555.5</ele><time>2026-04-26T12:43:21.193Z</time></trkpt><trkpt lat="37.6549083" lon="15.097975"><ele>557.25</ele><time>2026-04-26T12:43:22.193Z</time></trkpt><trkpt lat="37.655005" lon="15.09808"><ele>559.0</ele><time>2026-04-26T12:43:23.193Z</time></trkpt><trkpt lat="37.6551183" lon="15.0981667"><ele>559.0</ele><time>2026-04-26T12:43:24.193Z</time></trkpt><trkpt lat="37.6552367" lon="15.098235"><ele>559.0</ele><time>2026-04-26T12:43:25.193Z</time></trkpt><trkpt lat="37.6553617" lon="15.0982583"><ele>559.0</ele><time>2026-04-26T12:43:26.194Z</time></trkpt><trkpt lat="37.6555017" lon="15.09827"><ele>559.0</ele><time>2026-04-26T12:43:27.193Z</time></trkpt><trkpt lat="37.65564" lon="15.0982817"><ele>557.25</ele><time>2026-04-26T12:43:28.193Z</time></trkpt><trkpt lat="37.6557833" lon="15.0983017"><ele>555.5</ele><time>2026-04-26T12:43:29.194Z</time></trkpt><trkpt lat="37.6559283" lon="15.0983083"><ele>553.75</ele><time>2026-04-26T12:43:30.193Z</time></trkpt><trkpt lat="37.6560767" lon="15.0983167"><ele>552.0</ele><time>2026-04-26T12:43:31.193Z</time></trkpt><trkpt lat="37.6562133" lon="15.098335"><ele>550.25</ele><time>2026-04-26T12:43:32.193Z</time></trkpt><trkpt lat="37.65635" lon="15.098345"><ele>548.5</ele><time>2026-04-26T12:43:33.193Z</time></trkpt><trkpt lat="37.6564983" lon="15.0983583"><ele>546.75</ele><time>2026-04-26T12:43:34.193Z</time></trkpt><trkpt lat="37.656635" lon="15.0983817"><ele>545.0</ele><time>2026-04-26T12:43:35.193Z</time></trkpt><trkpt lat="37.656755" lon="15.0984017"><ele>545.0</ele><time>2026-04-26T12:43:36.194Z</time></trkpt><trkpt lat="37.6568817" lon="15.0984267"><ele>545.0</ele><time>2026-04-26T12:43:37.193Z</time></trkpt><trkpt lat="37.65701" lon="15.09844"><ele>545.0</ele><time>2026-04-26T12:43:38.194Z</time></trkpt><trkpt lat="37.6571233" lon="15.0984367"><ele>545.0</ele><time>2026-04-26T12:43:39.193Z</time></trkpt><trkpt lat="37.6572433" lon="15.0984417"><ele>543.75</ele><time>2026-04-26T12:43:40.193Z</time></trkpt><trkpt lat="37.6573617" lon="15.098435"><ele>542.5</ele><time>2026-04-26T12:43:41.193Z</time></trkpt><trkpt lat="37.6574867" lon="15.0984333"><ele>541.25</ele><time>2026-04-26T12:43:42.193Z</time></trkpt><trkpt lat="37.6576083" lon="15.098425"><ele>540.0</ele><time>2026-04-26T12:43:43.193Z</time></trkpt><trkpt lat="37.6577233" lon="15.0984117"><ele>538.8</ele><time>2026-04-26T12:43:44.193Z</time></trkpt><trkpt lat="37.65783" lon="15.0984133"><ele>537.6</ele><time>2026-04-26T12:43:45.193Z</time></trkpt><trkpt lat="37.6579317" lon="15.0984117"><ele>536.4</ele><time>2026-04-26T12:43:46.193Z</time></trkpt><trkpt lat="37.6580183" lon="15.0984383"><ele>535.2</ele><time>2026-04-26T12:43:47.193Z</time></trkpt><trkpt lat="37.6580983" lon="15.0985083"><ele>534.0</ele><time>2026-04-26T12:43:48.193Z</time></trkpt><trkpt lat="37.6581783" lon="15.0985833"><ele>534.0</ele><time>2026-04-26T12:43:49.193Z</time></trkpt><trkpt lat="37.6582517" lon="15.0986667"><ele>534.0</ele><time>2026-04-26T12:43:50.193Z</time></trkpt><trkpt lat="37.6583383" lon="15.0987183"><ele>534.0</ele><time>2026-04-26T12:43:51.194Z</time></trkpt><trkpt lat="37.6584233" lon="15.098735"><ele>534.0</ele><time>2026-04-26T12:43:52.193Z</time></trkpt><trkpt lat="37.6585133" lon="15.0987267"><ele>534.0</ele><time>2026-04-26T12:43:53.193Z</time></trkpt><trkpt lat="37.6585967" lon="15.0986817"><ele>532.6666666666666</ele><time>2026-04-26T12:43:54.194Z</time></trkpt><trkpt lat="37.658675" lon="15.098625"><ele>531.3333333333334</ele><time>2026-04-26T12:43:55.193Z</time></trkpt><trkpt lat="37.6587467" lon="15.0985567"><ele>530.0</ele><time>2026-04-26T12:43:56.193Z</time></trkpt><trkpt lat="37.6588033" lon="15.098485"><ele>528.6666666666667</ele><time>2026-04-26T12:43:57.194Z</time></trkpt><trkpt lat="37.6588567" lon="15.0984067"><ele>527.3333333333334</ele><time>2026-04-26T12:43:58.193Z</time></trkpt><trkpt lat="37.6589083" lon="15.09834"><ele>526.0</ele><time>2026-04-26T12:43:59.193Z</time></trkpt><trkpt lat="37.6589683" lon="15.0982933"><ele>526.0</ele><time>2026-04-26T12:44:00.193Z</time></trkpt><trkpt lat="37.6590517" lon="15.0982633"><ele>526.0</ele><time>2026-04-26T12:44:02.193Z</time></trkpt><trkpt lat="37.6591417" lon="15.09838"><ele>526.0</ele><time>2026-04-26T12:44:04.194Z</time></trkpt><trkpt lat="37.659205" lon="15.0984967"><ele>526.0</ele><time>2026-04-26T12:44:05.193Z</time></trkpt><trkpt lat="37.6592883" lon="15.09863"><ele>526.0</ele><time>2026-04-26T12:44:06.193Z</time></trkpt><trkpt lat="37.6593817" lon="15.0987833"><ele>526.0</ele><time>2026-04-26T12:44:07.193Z</time></trkpt><trkpt lat="37.65948" lon="15.0989417"><ele>526.0</ele><time>2026-04-26T12:44:08.194Z</time></trkpt><trkpt lat="37.659585" lon="15.0991083"><ele>522.6666666666667</ele><time>2026-04-26T12:44:09.193Z</time></trkpt><trkpt lat="37.65969" lon="15.09928"><ele>519.3333333333334</ele><time>2026-04-26T12:44:10.193Z</time></trkpt><trkpt lat="37.659795" lon="15.0994617"><ele>516.0</ele><time>2026-04-26T12:44:11.194Z</time></trkpt><trkpt lat="37.6598983" lon="15.0996317"><ele>516.0</ele><time>2026-04-26T12:44:12.194Z</time></trkpt><trkpt lat="37.6600033" lon="15.099805"><ele>516.0</ele><time>2026-04-26T12:44:13.193Z</time></trkpt><trkpt lat="37.6601083" lon="15.09998"><ele>516.0</ele><time>2026-04-26T12:44:14.193Z</time></trkpt><trkpt lat="37.6602167" lon="15.1001533"><ele>513.3333333333334</ele><time>2026-04-26T12:44:15.193Z</time></trkpt><trkpt lat="37.6603217" lon="15.10032"><ele>510.6666666666667</ele><time>2026-04-26T12:44:16.193Z</time></trkpt><trkpt lat="37.660425" lon="15.1004933"><ele>508.0</ele><time>2026-04-26T12:44:17.194Z</time></trkpt><trkpt lat="37.6605217" lon="15.10066"><ele>508.0</ele><time>2026-04-26T12:44:18.194Z</time></trkpt><trkpt lat="37.6606183" lon="15.100825"><ele>508.0</ele><time>2026-04-26T12:44:19.193Z</time></trkpt><trkpt lat="37.6607183" lon="15.1009933"><ele>508.0</ele><time>2026-04-26T12:44:20.194Z</time></trkpt><trkpt lat="37.6608217" lon="15.1011517"><ele>508.0</ele><time>2026-04-26T12:44:21.193Z</time></trkpt><trkpt lat="37.660915" lon="15.1013083"><ele>508.0</ele><time>2026-04-26T12:44:22.193Z</time></trkpt><trkpt lat="37.6610067" lon="15.1014617"><ele>508.0</ele><time>2026-04-26T12:44:23.193Z</time></trkpt><trkpt lat="37.6610933" lon="15.1016133"><ele>509.25</ele><time>2026-04-26T12:44:24.193Z</time></trkpt><trkpt lat="37.6611733" lon="15.1017683"><ele>510.5</ele><time>2026-04-26T12:44:25.193Z</time></trkpt><trkpt lat="37.6612467" lon="15.1019333"><ele>511.75</ele><time>2026-04-26T12:44:26.193Z</time></trkpt><trkpt lat="37.6613133" lon="15.1021017"><ele>513.0</ele><time>2026-04-26T12:44:27.193Z</time></trkpt><trkpt lat="37.6613733" lon="15.10229"><ele>510.33333333333337</ele><time>2026-04-26T12:44:28.193Z</time></trkpt><trkpt lat="37.6614333" lon="15.1024917"><ele>507.6666666666667</ele><time>2026-04-26T12:44:29.193Z</time></trkpt><trkpt lat="37.6614933" lon="15.102685"><ele>505.0</ele><time>2026-04-26T12:44:30.193Z</time></trkpt><trkpt lat="37.66155" lon="15.1028783"><ele>505.0</ele><time>2026-04-26T12:44:31.193Z</time></trkpt><trkpt lat="37.661605" lon="15.1030683"><ele>505.0</ele><time>2026-04-26T12:44:32.193Z</time></trkpt><trkpt lat="37.661665" lon="15.1032517"><ele>505.0</ele><time>2026-04-26T12:44:33.193Z</time></trkpt><trkpt lat="37.6617267" lon="15.103425"><ele>503.75</ele><time>2026-04-26T12:44:34.193Z</time></trkpt><trkpt lat="37.6617833" lon="15.1036"><ele>502.5</ele><time>2026-04-26T12:44:35.193Z</time></trkpt><trkpt lat="37.6618417" lon="15.1037783"><ele>501.25</ele><time>2026-04-26T12:44:36.193Z</time></trkpt><trkpt lat="37.6618867" lon="15.1039483"><ele>500.0</ele><time>2026-04-26T12:44:37.193Z</time></trkpt><trkpt lat="37.6619283" lon="15.1041383"><ele>498.3333333333333</ele><time>2026-04-26T12:44:38.193Z</time></trkpt><trkpt lat="37.6619533" lon="15.1043333"><ele>496.66666666666663</ele><time>2026-04-26T12:44:39.194Z</time></trkpt><trkpt lat="37.6619783" lon="15.1045333"><ele>495.0</ele><time>2026-04-26T12:44:40.193Z</time></trkpt><trkpt lat="37.6620033" lon="15.104725"><ele>495.0</ele><time>2026-04-26T12:44:41.193Z</time></trkpt><trkpt lat="37.66202" lon="15.1049117"><ele>495.0</ele><time>2026-04-26T12:44:42.193Z</time></trkpt><trkpt lat="37.6620433" lon="15.1050917"><ele>495.0</ele><time>2026-04-26T12:44:43.193Z</time></trkpt><trkpt lat="37.6620933" lon="15.1052517"><ele>495.0</ele><time>2026-04-26T12:44:44.193Z</time></trkpt><trkpt lat="37.6621833" lon="15.1053967"><ele>493.0</ele><time>2026-04-26T12:44:45.193Z</time></trkpt><trkpt lat="37.6623" lon="15.10553"><ele>491.0</ele><time>2026-04-26T12:44:46.193Z</time></trkpt><trkpt lat="37.6624233" lon="15.1056533"><ele>489.0</ele><time>2026-04-26T12:44:47.193Z</time></trkpt><trkpt lat="37.6625417" lon="15.1057767"><ele>487.75</ele><time>2026-04-26T12:44:48.193Z</time></trkpt><trkpt lat="37.6626517" lon="15.1058967"><ele>486.5</ele><time>2026-04-26T12:44:49.193Z</time></trkpt><trkpt lat="37.6627517" lon="15.1060033"><ele>485.25</ele><time>2026-04-26T12:44:50.193Z</time></trkpt><trkpt lat="37.66284" lon="15.1060917"><ele>484.0</ele><time>2026-04-26T12:44:51.193Z</time></trkpt><trkpt lat="37.662905" lon="15.106165"><ele>484.00000000000006</ele><time>2026-04-26T12:44:52.193Z</time></trkpt><trkpt lat="37.6629583" lon="15.1062317"><ele>484.0</ele><time>2026-04-26T12:44:53.193Z</time></trkpt><trkpt lat="37.6629683" lon="15.1063533"><ele>484.0</ele><time>2026-04-26T12:44:55.193Z</time></trkpt><trkpt lat="37.662915" lon="15.1063983"><ele>484.0</ele><time>2026-04-26T12:44:56.193Z</time></trkpt><trkpt lat="37.6628283" lon="15.10641"><ele>484.00000000000006</ele><time>2026-04-26T12:44:57.193Z</time></trkpt><trkpt lat="37.6627183" lon="15.106415"><ele>484.0</ele><time>2026-04-26T12:44:58.193Z</time></trkpt><trkpt lat="37.6626117" lon="15.10645"><ele>484.0</ele><time>2026-04-26T12:44:59.193Z</time></trkpt><trkpt lat="37.6625367" lon="15.1065267"><ele>484.0</ele><time>2026-04-26T12:45:00.193Z</time></trkpt><trkpt lat="37.6625117" lon="15.10664"><ele>484.0</ele><time>2026-04-26T12:45:01.193Z</time></trkpt><trkpt lat="37.6625233" lon="15.1067617"><ele>484.0</ele><time>2026-04-26T12:45:02.194Z</time></trkpt><trkpt lat="37.662585" lon="15.106885"><ele>484.0</ele><time>2026-04-26T12:45:03.194Z</time></trkpt><trkpt lat="37.66268" lon="15.1070267"><ele>481.33333333333337</ele><time>2026-04-26T12:45:04.193Z</time></trkpt><trkpt lat="37.6627883" lon="15.1071667"><ele>478.66666666666663</ele><time>2026-04-26T12:45:05.193Z</time></trkpt><trkpt lat="37.6629033" lon="15.1073167"><ele>476.0</ele><time>2026-04-26T12:45:06.194Z</time></trkpt><trkpt lat="37.6630133" lon="15.10746"><ele>474.0</ele><time>2026-04-26T12:45:07.193Z</time></trkpt><trkpt lat="37.66312" lon="15.1075917"><ele>472.0</ele><time>2026-04-26T12:45:08.193Z</time></trkpt><trkpt lat="37.6632217" lon="15.107715"><ele>470.0</ele><time>2026-04-26T12:45:09.193Z</time></trkpt><trkpt lat="37.6633233" lon="15.10784"><ele>468.0</ele><time>2026-04-26T12:45:10.193Z</time></trkpt><trkpt lat="37.6634067" lon="15.1079733"><ele>468.0</ele><time>2026-04-26T12:45:11.193Z</time></trkpt><trkpt lat="37.6634617" lon="15.1081283"><ele>468.0</ele><time>2026-04-26T12:45:12.193Z</time></trkpt><trkpt lat="37.6635217" lon="15.1083033"><ele>468.0</ele><time>2026-04-26T12:45:13.193Z</time></trkpt><trkpt lat="37.6635867" lon="15.1084983"><ele>466.33333333333337</ele><time>2026-04-26T12:45:14.193Z</time></trkpt><trkpt lat="37.6636567" lon="15.1087017"><ele>464.6666666666667</ele><time>2026-04-26T12:45:15.193Z</time></trkpt><trkpt lat="37.663725" lon="15.1088933"><ele>463.0</ele><time>2026-04-26T12:45:16.194Z</time></trkpt><trkpt lat="37.6637867" lon="15.1090767"><ele>461.5</ele><time>2026-04-26T12:45:17.194Z</time></trkpt><trkpt lat="37.6638433" lon="15.109245"><ele>460.0</ele><time>2026-04-26T12:45:18.193Z</time></trkpt><trkpt lat="37.6639033" lon="15.1094133"><ele>458.5</ele><time>2026-04-26T12:45:19.193Z</time></trkpt><trkpt lat="37.6639633" lon="15.1095783"><ele>457.0</ele><time>2026-04-26T12:45:20.193Z</time></trkpt><trkpt lat="37.6640333" lon="15.1097267"><ele>457.0</ele><time>2026-04-26T12:45:21.193Z</time></trkpt><trkpt lat="37.6641133" lon="15.1098717"><ele>457.0</ele><time>2026-04-26T12:45:22.193Z</time></trkpt><trkpt lat="37.6642017" lon="15.1100133"><ele>457.0</ele><time>2026-04-26T12:45:23.193Z</time></trkpt><trkpt lat="37.6643" lon="15.1101517"><ele>457.0</ele><time>2026-04-26T12:45:24.194Z</time></trkpt><trkpt lat="37.6644083" lon="15.1102733"><ele>456.5</ele><time>2026-04-26T12:45:25.193Z</time></trkpt><trkpt lat="37.6645233" lon="15.1103967"><ele>456.0</ele><time>2026-04-26T12:45:26.193Z</time></trkpt><trkpt lat="37.664635" lon="15.1105067"><ele>455.5</ele><time>2026-04-26T12:45:27.193Z</time></trkpt><trkpt lat="37.664755" lon="15.11061"><ele>455.0</ele><time>2026-04-26T12:45:28.194Z</time></trkpt><trkpt lat="37.6648783" lon="15.1107033"><ele>453.3333333333333</ele><time>2026-04-26T12:45:29.193Z</time></trkpt><trkpt lat="37.66501" lon="15.1107883"><ele>451.66666666666663</ele><time>2026-04-26T12:45:30.193Z</time></trkpt><trkpt lat="37.66515" lon="15.1108817"><ele>450.0</ele><time>2026-04-26T12:45:31.193Z</time></trkpt><trkpt lat="37.6653083" lon="15.11097"><ele>450.0</ele><time>2026-04-26T12:45:32.193Z</time></trkpt><trkpt lat="37.6654667" lon="15.111055"><ele>450.0</ele><time>2026-04-26T12:45:33.193Z</time></trkpt><trkpt lat="37.6656267" lon="15.1111317"><ele>450.0</ele><time>2026-04-26T12:45:34.194Z</time></trkpt><trkpt lat="37.66579" lon="15.1112083"><ele>450.0</ele><time>2026-04-26T12:45:35.193Z</time></trkpt><trkpt lat="37.66596" lon="15.1112917"><ele>450.0</ele><time>2026-04-26T12:45:36.193Z</time></trkpt><trkpt lat="37.666125" lon="15.1113717"><ele>450.0</ele><time>2026-04-26T12:45:37.193Z</time></trkpt><trkpt lat="37.6662817" lon="15.111435"><ele>449.0</ele><time>2026-04-26T12:45:38.193Z</time></trkpt><trkpt lat="37.6664283" lon="15.1115017"><ele>448.0</ele><time>2026-04-26T12:45:39.193Z</time></trkpt><trkpt lat="37.6665667" lon="15.1115617"><ele>447.0</ele><time>2026-04-26T12:45:40.193Z</time></trkpt><trkpt lat="37.666705" lon="15.111625"><ele>446.0</ele><time>2026-04-26T12:45:41.193Z</time></trkpt><trkpt lat="37.6668383" lon="15.1116883"><ele>445.75</ele><time>2026-04-26T12:45:42.194Z</time></trkpt><trkpt lat="37.66696" lon="15.11178"><ele>445.5</ele><time>2026-04-26T12:45:43.194Z</time></trkpt><trkpt lat="37.6670817" lon="15.1118883"><ele>445.25</ele><time>2026-04-26T12:45:44.193Z</time></trkpt><trkpt lat="37.6671933" lon="15.11202"><ele>445.0</ele><time>2026-04-26T12:45:45.193Z</time></trkpt><trkpt lat="37.6673" lon="15.1121633"><ele>445.0</ele><time>2026-04-26T12:45:46.193Z</time></trkpt><trkpt lat="37.6673983" lon="15.11231"><ele>445.0</ele><time>2026-04-26T12:45:47.193Z</time></trkpt><trkpt lat="37.6674967" lon="15.1124667"><ele>445.0</ele><time>2026-04-26T12:45:48.193Z</time></trkpt><trkpt lat="37.667585" lon="15.11264"><ele>443.33333333333337</ele><time>2026-04-26T12:45:49.193Z</time></trkpt><trkpt lat="37.6676733" lon="15.1127967"><ele>441.66666666666663</ele><time>2026-04-26T12:45:50.194Z</time></trkpt><trkpt lat="37.6677683" lon="15.1129483"><ele>440.0</ele><time>2026-04-26T12:45:51.193Z</time></trkpt><trkpt lat="37.6678817" lon="15.1130817"><ele>440.0</ele><time>2026-04-26T12:45:52.193Z</time></trkpt><trkpt lat="37.6680083" lon="15.11319"><ele>440.0</ele><time>2026-04-26T12:45:53.194Z</time></trkpt><trkpt lat="37.6681517" lon="15.1132917"><ele>440.0</ele><time>2026-04-26T12:45:54.193Z</time></trkpt><trkpt lat="37.6683017" lon="15.113395"><ele>438.3333333333333</ele><time>2026-04-26T12:45:55.193Z</time></trkpt><trkpt lat="37.6684483" lon="15.1135"><ele>436.66666666666663</ele><time>2026-04-26T12:45:56.191Z</time></trkpt><trkpt lat="37.668585" lon="15.1136067"><ele>435.0</ele><time>2026-04-26T12:45:57.194Z</time></trkpt><trkpt lat="37.66872" lon="15.1137017"><ele>434.25</ele><time>2026-04-26T12:45:58.193Z</time></trkpt><trkpt lat="37.668845" lon="15.113795"><ele>433.5</ele><time>2026-04-26T12:45:59.193Z</time></trkpt><trkpt lat="37.66897" lon="15.1138683"><ele>432.75</ele><time>2026-04-26T12:46:00.193Z</time></trkpt><trkpt lat="37.6691083" lon="15.1139083"><ele>432.0</ele><time>2026-04-26T12:46:01.193Z</time></trkpt><trkpt lat="37.6692633" lon="15.1139267"><ele>432.0</ele><time>2026-04-26T12:46:02.193Z</time></trkpt><trkpt lat="37.6694283" lon="15.1139283"><ele>432.0</ele><time>2026-04-26T12:46:03.193Z</time></trkpt><trkpt lat="37.6696033" lon="15.113935"><ele>432.0</ele><time>2026-04-26T12:46:04.194Z</time></trkpt><trkpt lat="37.669785" lon="15.1139433"><ele>431.33333333333337</ele><time>2026-04-26T12:46:05.193Z</time></trkpt><trkpt lat="37.66996" lon="15.1139567"><ele>430.6666666666667</ele><time>2026-04-26T12:46:06.193Z</time></trkpt><trkpt lat="37.67013" lon="15.1139833"><ele>430.0</ele><time>2026-04-26T12:46:07.193Z</time></trkpt><trkpt lat="37.6702933" lon="15.114005"><ele>429.5</ele><time>2026-04-26T12:46:08.194Z</time></trkpt><trkpt lat="37.67045" lon="15.1140267"><ele>429.0</ele><time>2026-04-26T12:46:09.193Z</time></trkpt><trkpt lat="37.6705933" lon="15.114045"><ele>428.5</ele><time>2026-04-26T12:46:10.193Z</time></trkpt><trkpt lat="37.6707333" lon="15.1140667"><ele>428.0</ele><time>2026-04-26T12:46:11.194Z</time></trkpt><trkpt lat="37.6708733" lon="15.1141017"><ele>426.66666666666663</ele><time>2026-04-26T12:46:12.194Z</time></trkpt><trkpt lat="37.671015" lon="15.1141717"><ele>425.33333333333337</ele><time>2026-04-26T12:46:13.193Z</time></trkpt><trkpt lat="37.6711567" lon="15.114255"><ele>424.0</ele><time>2026-04-26T12:46:14.193Z</time></trkpt><trkpt lat="37.67129" lon="15.1143583"><ele>424.0</ele><time>2026-04-26T12:46:15.193Z</time></trkpt><trkpt lat="37.6714183" lon="15.1144733"><ele>424.0</ele><time>2026-04-26T12:46:16.194Z</time></trkpt><trkpt lat="37.67154" lon="15.1145833"><ele>424.0</ele><time>2026-04-26T12:46:17.193Z</time></trkpt><trkpt lat="37.671655" lon="15.1146883"><ele>424.0</ele><time>2026-04-26T12:46:18.193Z</time></trkpt><trkpt lat="37.671765" lon="15.1147967"><ele>423.0</ele><time>2026-04-26T12:46:19.194Z</time></trkpt><trkpt lat="37.6718683" lon="15.1149217"><ele>422.0</ele><time>2026-04-26T12:46:20.193Z</time></trkpt><trkpt lat="37.671965" lon="15.11507"><ele>421.0</ele><time>2026-04-26T12:46:21.193Z</time></trkpt><trkpt lat="37.6720417" lon="15.11523"><ele>420.0</ele><time>2026-04-26T12:46:22.193Z</time></trkpt><trkpt lat="37.67211" lon="15.1153783"><ele>419.0</ele><time>2026-04-26T12:46:23.193Z</time></trkpt><trkpt lat="37.6721767" lon="15.11552"><ele>418.0</ele><time>2026-04-26T12:46:24.194Z</time></trkpt><trkpt lat="37.672245" lon="15.115645"><ele>417.0</ele><time>2026-04-26T12:46:25.193Z</time></trkpt><trkpt lat="37.672325" lon="15.115735"><ele>416.0</ele><time>2026-04-26T12:46:26.193Z</time></trkpt><trkpt lat="37.6724283" lon="15.115785"><ele>415.8</ele><time>2026-04-26T12:46:27.193Z</time></trkpt><trkpt lat="37.6725317" lon="15.1157833"><ele>415.6</ele><time>2026-04-26T12:46:28.193Z</time></trkpt><trkpt lat="37.6726283" lon="15.1157883"><ele>415.4</ele><time>2026-04-26T12:46:29.193Z</time></trkpt><trkpt lat="37.6727217" lon="15.1158617"><ele>415.2</ele><time>2026-04-26T12:46:30.193Z</time></trkpt><trkpt lat="37.6727933" lon="15.1159817"><ele>415.0</ele><time>2026-04-26T12:46:31.193Z</time></trkpt><trkpt lat="37.6728567" lon="15.1161317"><ele>415.0</ele><time>2026-04-26T12:46:32.193Z</time></trkpt><trkpt lat="37.6729217" lon="15.1163"><ele>415.0</ele><time>2026-04-26T12:46:33.193Z</time></trkpt><trkpt lat="37.6729983" lon="15.1164817"><ele>415.0</ele><time>2026-04-26T12:46:34.193Z</time></trkpt><trkpt lat="37.673075" lon="15.116675"><ele>412.0</ele><time>2026-04-26T12:46:35.193Z</time></trkpt><trkpt lat="37.6731483" lon="15.1168683"><ele>409.0</ele><time>2026-04-26T12:46:36.193Z</time></trkpt><trkpt lat="37.6732233" lon="15.1170483"><ele>406.0</ele><time>2026-04-26T12:46:37.193Z</time></trkpt><trkpt lat="37.6732983" lon="15.11722"><ele>406.0</ele><time>2026-04-26T12:46:38.193Z</time></trkpt><trkpt lat="37.67337" lon="15.11738"><ele>406.0</ele><time>2026-04-26T12:46:39.193Z</time></trkpt><trkpt lat="37.6734467" lon="15.117525"><ele>406.0</ele><time>2026-04-26T12:46:40.193Z</time></trkpt><trkpt lat="37.673545" lon="15.11766"><ele>406.0</ele><time>2026-04-26T12:46:41.193Z</time></trkpt><trkpt lat="37.6736633" lon="15.117775"><ele>406.0</ele><time>2026-04-26T12:46:42.193Z</time></trkpt><trkpt lat="37.6737983" lon="15.11789"><ele>406.0</ele><time>2026-04-26T12:46:43.193Z</time></trkpt><trkpt lat="37.67394" lon="15.11801"><ele>406.0</ele><time>2026-04-26T12:46:44.194Z</time></trkpt><trkpt lat="37.674085" lon="15.1181367"><ele>406.33333333333337</ele><time>2026-04-26T12:46:45.194Z</time></trkpt><trkpt lat="37.6742417" lon="15.1182633"><ele>406.66666666666663</ele><time>2026-04-26T12:46:46.193Z</time></trkpt><trkpt lat="37.674395" lon="15.1183983"><ele>407.0</ele><time>2026-04-26T12:46:47.193Z</time></trkpt><trkpt lat="37.6745417" lon="15.1185383"><ele>407.3333333333333</ele><time>2026-04-26T12:46:48.194Z</time></trkpt><trkpt lat="37.6746783" lon="15.1186817"><ele>407.66666666666663</ele><time>2026-04-26T12:46:49.193Z</time></trkpt><trkpt lat="37.6748083" lon="15.11883"><ele>408.0</ele><time>2026-04-26T12:46:50.193Z</time></trkpt><trkpt lat="37.6749483" lon="15.1189767"><ele>408.0</ele><time>2026-04-26T12:46:51.193Z</time></trkpt><trkpt lat="37.6750933" lon="15.1190933"><ele>408.0</ele><time>2026-04-26T12:46:52.193Z</time></trkpt><trkpt lat="37.675255" lon="15.1192033"><ele>408.0</ele><time>2026-04-26T12:46:53.194Z</time></trkpt><trkpt lat="37.6754233" lon="15.1193083"><ele>408.0</ele><time>2026-04-26T12:46:54.193Z</time></trkpt><trkpt lat="37.67559" lon="15.119405"><ele>408.0</ele><time>2026-04-26T12:46:55.193Z</time></trkpt><trkpt lat="37.6757483" lon="15.1195133"><ele>408.0</ele><time>2026-04-26T12:46:56.194Z</time></trkpt><trkpt lat="37.6759" lon="15.1196417"><ele>408.0</ele><time>2026-04-26T12:46:57.194Z</time></trkpt><trkpt lat="37.6760417" lon="15.1197867"><ele>408.0</ele><time>2026-04-26T12:46:58.194Z</time></trkpt><trkpt lat="37.6761783" lon="15.11993"><ele>408.0</ele><time>2026-04-26T12:46:59.193Z</time></trkpt><trkpt lat="37.6763233" lon="15.1200583"><ele>407.0</ele><time>2026-04-26T12:47:00.193Z</time></trkpt><trkpt lat="37.676475" lon="15.1201733"><ele>406.0</ele><time>2026-04-26T12:47:01.193Z</time></trkpt><trkpt lat="37.6766433" lon="15.1202883"><ele>405.0</ele><time>2026-04-26T12:47:02.194Z</time></trkpt><trkpt lat="37.6768017" lon="15.1203917"><ele>406.66666666666663</ele><time>2026-04-26T12:47:03.193Z</time></trkpt><trkpt lat="37.6769567" lon="15.1204967"><ele>408.3333333333333</ele><time>2026-04-26T12:47:04.193Z</time></trkpt><trkpt lat="37.6771117" lon="15.1205917"><ele>410.0</ele><time>2026-04-26T12:47:05.194Z</time></trkpt><trkpt lat="37.6772517" lon="15.1206883"><ele>408.0</ele><time>2026-04-26T12:47:06.193Z</time></trkpt><trkpt lat="37.677385" lon="15.1207867"><ele>406.0</ele><time>2026-04-26T12:47:07.193Z</time></trkpt><trkpt lat="37.6775017" lon="15.1208817"><ele>404.0</ele><time>2026-04-26T12:47:08.194Z</time></trkpt><trkpt lat="37.6776017" lon="15.1209867"><ele>402.0</ele><time>2026-04-26T12:47:09.193Z</time></trkpt><trkpt lat="37.67769" lon="15.1211167"><ele>402.0</ele><time>2026-04-26T12:47:10.193Z</time></trkpt><trkpt lat="37.6777683" lon="15.1212783"><ele>402.0</ele><time>2026-04-26T12:47:11.193Z</time></trkpt><trkpt lat="37.6778433" lon="15.121445"><ele>402.0</ele><time>2026-04-26T12:47:12.194Z</time></trkpt><trkpt lat="37.6779083" lon="15.121625"><ele>402.25</ele><time>2026-04-26T12:47:13.194Z</time></trkpt><trkpt lat="37.6779683" lon="15.1218033"><ele>402.5</ele><time>2026-04-26T12:47:14.193Z</time></trkpt><trkpt lat="37.678025" lon="15.1219733"><ele>402.75</ele><time>2026-04-26T12:47:15.193Z</time></trkpt><trkpt lat="37.678065" lon="15.1221483"><ele>403.0</ele><time>2026-04-26T12:47:16.194Z</time></trkpt><trkpt lat="37.678095" lon="15.12234"><ele>399.0</ele><time>2026-04-26T12:47:17.193Z</time></trkpt><trkpt lat="37.6781083" lon="15.1225483"><ele>395.0</ele><time>2026-04-26T12:47:18.194Z</time></trkpt><trkpt lat="37.6781133" lon="15.1227583"><ele>391.0</ele><time>2026-04-26T12:47:19.194Z</time></trkpt><trkpt lat="37.67813" lon="15.1229783"><ele>391.0</ele><time>2026-04-26T12:47:20.193Z</time></trkpt><trkpt lat="37.6781417" lon="15.123195"><ele>391.0</ele><time>2026-04-26T12:47:21.194Z</time></trkpt><trkpt lat="37.67816" lon="15.1234033"><ele>391.0</ele><time>2026-04-26T12:47:22.193Z</time></trkpt><trkpt lat="37.6781667" lon="15.123595"><ele>389.0</ele><time>2026-04-26T12:47:23.193Z</time></trkpt><trkpt lat="37.6781717" lon="15.1237717"><ele>387.0</ele><time>2026-04-26T12:47:24.193Z</time></trkpt><trkpt lat="37.6781767" lon="15.12393"><ele>385.0</ele><time>2026-04-26T12:47:25.193Z</time></trkpt><trkpt lat="37.678205" lon="15.1240633"><ele>383.0</ele><time>2026-04-26T12:47:26.193Z</time></trkpt><trkpt lat="37.6782767" lon="15.1241867"><ele>381.6666666666667</ele><time>2026-04-26T12:47:27.193Z</time></trkpt><trkpt lat="37.6783883" lon="15.1243233"><ele>380.3333333333333</ele><time>2026-04-26T12:47:28.193Z</time></trkpt><trkpt lat="37.6785217" lon="15.1244517"><ele>379.0</ele><time>2026-04-26T12:47:29.193Z</time></trkpt><trkpt lat="37.6786617" lon="15.1245717"><ele>381.3333333333333</ele><time>2026-04-26T12:47:30.193Z</time></trkpt><trkpt lat="37.678795" lon="15.1246867"><ele>383.66666666666663</ele><time>2026-04-26T12:47:31.193Z</time></trkpt><trkpt lat="37.6789133" lon="15.124805"><ele>386.0</ele><time>2026-04-26T12:47:32.193Z</time></trkpt><trkpt lat="37.67902" lon="15.1249467"><ele>386.0</ele><time>2026-04-26T12:47:33.193Z</time></trkpt><trkpt lat="37.6791217" lon="15.12511"><ele>386.0</ele><time>2026-04-26T12:47:34.193Z</time></trkpt><trkpt lat="37.67922" lon="15.125285"><ele>386.0</ele><time>2026-04-26T12:47:35.193Z</time></trkpt><trkpt lat="37.67933" lon="15.1254733"><ele>386.3333333333333</ele><time>2026-04-26T12:47:36.193Z</time></trkpt><trkpt lat="37.6794467" lon="15.1256817"><ele>386.66666666666663</ele><time>2026-04-26T12:47:37.193Z</time></trkpt><trkpt lat="37.679555" lon="15.1258683"><ele>387.0</ele><time>2026-04-26T12:47:38.193Z</time></trkpt><trkpt lat="37.6796683" lon="15.126045"><ele>387.0</ele><time>2026-04-26T12:47:39.193Z</time></trkpt><trkpt lat="37.6797817" lon="15.12621"><ele>387.0</ele><time>2026-04-26T12:47:40.194Z</time></trkpt><trkpt lat="37.6799017" lon="15.1263717"><ele>387.0</ele><time>2026-04-26T12:47:41.193Z</time></trkpt><trkpt lat="37.6800367" lon="15.1265283"><ele>386.66666666666663</ele><time>2026-04-26T12:47:42.193Z</time></trkpt><trkpt lat="37.6801883" lon="15.1266667"><ele>386.3333333333333</ele><time>2026-04-26T12:47:43.193Z</time></trkpt><trkpt lat="37.6803483" lon="15.1267917"><ele>386.0</ele><time>2026-04-26T12:47:44.193Z</time></trkpt><trkpt lat="37.6804967" lon="15.1269"><ele>386.0</ele><time>2026-04-26T12:47:45.193Z</time></trkpt><trkpt lat="37.680645" lon="15.127"><ele>386.0</ele><time>2026-04-26T12:47:46.193Z</time></trkpt><trkpt lat="37.680785" lon="15.1271083"><ele>386.0</ele><time>2026-04-26T12:47:47.193Z</time></trkpt><trkpt lat="37.6809117" lon="15.1272267"><ele>386.0</ele><time>2026-04-26T12:47:48.193Z</time></trkpt><trkpt lat="37.6810217" lon="15.1273717"><ele>386.0</ele><time>2026-04-26T12:47:49.193Z</time></trkpt><trkpt lat="37.6811233" lon="15.12753"><ele>386.0</ele><time>2026-04-26T12:47:50.193Z</time></trkpt><trkpt lat="37.6812333" lon="15.1276717"><ele>386.5</ele><time>2026-04-26T12:47:51.193Z</time></trkpt><trkpt lat="37.68134" lon="15.127805"><ele>387.0</ele><time>2026-04-26T12:47:52.193Z</time></trkpt><trkpt lat="37.681445" lon="15.1279333"><ele>387.5</ele><time>2026-04-26T12:47:53.193Z</time></trkpt><trkpt lat="37.6815517" lon="15.12807"><ele>388.0</ele><time>2026-04-26T12:47:54.194Z</time></trkpt><trkpt lat="37.68165" lon="15.1282117"><ele>387.33333333333337</ele><time>2026-04-26T12:47:55.193Z</time></trkpt><trkpt lat="37.6817433" lon="15.128365"><ele>386.66666666666663</ele><time>2026-04-26T12:47:56.193Z</time></trkpt><trkpt lat="37.68184" lon="15.1285367"><ele>386.0</ele><time>2026-04-26T12:47:57.193Z</time></trkpt><trkpt lat="37.6819217" lon="15.1287017"><ele>387.3333333333333</ele><time>2026-04-26T12:47:58.193Z</time></trkpt><trkpt lat="37.6819867" lon="15.1288783"><ele>388.66666666666663</ele><time>2026-04-26T12:47:59.193Z</time></trkpt><trkpt lat="37.6820483" lon="15.129075"><ele>390.0</ele><time>2026-04-26T12:48:00.193Z</time></trkpt><trkpt lat="37.682105" lon="15.12927"><ele>387.3333333333333</ele><time>2026-04-26T12:48:01.193Z</time></trkpt><trkpt lat="37.6821617" lon="15.1294633"><ele>384.66666666666663</ele><time>2026-04-26T12:48:02.193Z</time></trkpt><trkpt lat="37.68222" lon="15.129665"><ele>382.0</ele><time>2026-04-26T12:48:03.193Z</time></trkpt><trkpt lat="37.6822817" lon="15.1298667"><ele>381.0</ele><time>2026-04-26T12:48:04.193Z</time></trkpt><trkpt lat="37.6823567" lon="15.1300583"><ele>380.0</ele><time>2026-04-26T12:48:05.193Z</time></trkpt><trkpt lat="37.6824433" lon="15.13025"><ele>379.0</ele><time>2026-04-26T12:48:06.193Z</time></trkpt><trkpt lat="37.6825267" lon="15.130435"><ele>379.0</ele><time>2026-04-26T12:48:07.193Z</time></trkpt><trkpt lat="37.6826167" lon="15.1306117"><ele>379.0</ele><time>2026-04-26T12:48:08.194Z</time></trkpt><trkpt lat="37.6827117" lon="15.1307783"><ele>379.0</ele><time>2026-04-26T12:48:09.193Z</time></trkpt><trkpt lat="37.6828217" lon="15.1309417"><ele>381.0</ele><time>2026-04-26T12:48:10.193Z</time></trkpt><trkpt lat="37.682945" lon="15.13109"><ele>383.0</ele><time>2026-04-26T12:48:11.193Z</time></trkpt><trkpt lat="37.68306" lon="15.1312317"><ele>385.0</ele><time>2026-04-26T12:48:12.193Z</time></trkpt><trkpt lat="37.6831783" lon="15.1313633"><ele>385.0</ele><time>2026-04-26T12:48:13.193Z</time></trkpt><trkpt lat="37.6832983" lon="15.1314767"><ele>385.0</ele><time>2026-04-26T12:48:14.193Z</time></trkpt><trkpt lat="37.6834117" lon="15.1315767"><ele>385.0</ele><time>2026-04-26T12:48:15.194Z</time></trkpt><trkpt lat="37.6835217" lon="15.1316617"><ele>385.0</ele><time>2026-04-26T12:48:16.193Z</time></trkpt><trkpt lat="37.6836117" lon="15.1317633"><ele>383.6</ele><time>2026-04-26T12:48:17.193Z</time></trkpt><trkpt lat="37.6836983" lon="15.1318517"><ele>382.2</ele><time>2026-04-26T12:48:18.193Z</time></trkpt><trkpt lat="37.683775" lon="15.1319317"><ele>380.79999999999995</ele><time>2026-04-26T12:48:19.193Z</time></trkpt><trkpt lat="37.6838433" lon="15.13201"><ele>379.4</ele><time>2026-04-26T12:48:20.194Z</time></trkpt><trkpt lat="37.68392" lon="15.1320833"><ele>378.0</ele><time>2026-04-26T12:48:21.193Z</time></trkpt><trkpt lat="37.6839983" lon="15.132155"><ele>378.0</ele><time>2026-04-26T12:48:22.192Z</time></trkpt><trkpt lat="37.684075" lon="15.1322283"><ele>378.0</ele><time>2026-04-26T12:48:23.192Z</time></trkpt><trkpt lat="37.684155" lon="15.1322967"><ele>378.0</ele><time>2026-04-26T12:48:24.192Z</time></trkpt><trkpt lat="37.684235" lon="15.132375"><ele>378.0</ele><time>2026-04-26T12:48:25.192Z</time></trkpt><trkpt lat="37.6843133" lon="15.13244"><ele>378.0</ele><time>2026-04-26T12:48:26.192Z</time></trkpt><trkpt lat="37.684395" lon="15.132525"><ele>377.2</ele><time>2026-04-26T12:48:27.192Z</time></trkpt><trkpt lat="37.68447" lon="15.1326133"><ele>376.4</ele><time>2026-04-26T12:48:28.192Z</time></trkpt><trkpt lat="37.6845483" lon="15.1326983"><ele>375.59999999999997</ele><time>2026-04-26T12:48:29.192Z</time></trkpt><trkpt lat="37.6846217" lon="15.1327917"><ele>374.79999999999995</ele><time>2026-04-26T12:48:30.192Z</time></trkpt><trkpt lat="37.6847067" lon="15.13288"><ele>374.0</ele><time>2026-04-26T12:48:31.192Z</time></trkpt><trkpt lat="37.6847833" lon="15.1329683"><ele>374.0</ele><time>2026-04-26T12:48:32.192Z</time></trkpt><trkpt lat="37.6848617" lon="15.1330583"><ele>374.0</ele><time>2026-04-26T12:48:33.192Z</time></trkpt><trkpt lat="37.68494" lon="15.1331567"><ele>374.0</ele><time>2026-04-26T12:48:34.192Z</time></trkpt><trkpt lat="37.6850233" lon="15.1332333"><ele>374.0</ele><time>2026-04-26T12:48:35.192Z</time></trkpt><trkpt lat="37.6851" lon="15.13331"><ele>374.0</ele><time>2026-04-26T12:48:36.192Z</time></trkpt><trkpt lat="37.6851683" lon="15.1334033"><ele>372.79999999999995</ele><time>2026-04-26T12:48:37.193Z</time></trkpt><trkpt lat="37.6852417" lon="15.1334983"><ele>371.59999999999997</ele><time>2026-04-26T12:48:38.192Z</time></trkpt><trkpt lat="37.68532" lon="15.133585"><ele>370.4</ele><time>2026-04-26T12:48:39.192Z</time></trkpt><trkpt lat="37.6853883" lon="15.1336833"><ele>369.2</ele><time>2026-04-26T12:48:40.192Z</time></trkpt><trkpt lat="37.6854633" lon="15.1337633"><ele>368.0</ele><time>2026-04-26T12:48:41.193Z</time></trkpt><trkpt lat="37.6855267" lon="15.1338583"><ele>367.4</ele><time>2026-04-26T12:48:42.192Z</time></trkpt><trkpt lat="37.68557" lon="15.13396"><ele>366.79999999999995</ele><time>2026-04-26T12:48:43.192Z</time></trkpt><trkpt lat="37.6856083" lon="15.134065"><ele>366.2</ele><time>2026-04-26T12:48:44.192Z</time></trkpt><trkpt lat="37.6856333" lon="15.1341783"><ele>365.6</ele><time>2026-04-26T12:48:45.192Z</time></trkpt><trkpt lat="37.6856617" lon="15.1342883"><ele>365.0</ele><time>2026-04-26T12:48:46.192Z</time></trkpt><trkpt lat="37.6856933" lon="15.1344017"><ele>364.5</ele><time>2026-04-26T12:48:47.193Z</time></trkpt><trkpt lat="37.68572" lon="15.134495"><ele>364.0</ele><time>2026-04-26T12:48:48.192Z</time></trkpt><trkpt lat="37.6857517" lon="15.13458"><ele>363.5</ele><time>2026-04-26T12:48:49.192Z</time></trkpt><trkpt lat="37.6858033" lon="15.134665"><ele>363.0</ele><time>2026-04-26T12:48:50.193Z</time></trkpt><trkpt lat="37.6858617" lon="15.1347433"><ele>362.5</ele><time>2026-04-26T12:48:51.192Z</time></trkpt><trkpt lat="37.6859183" lon="15.1348217"><ele>362.0</ele><time>2026-04-26T12:48:52.192Z</time></trkpt><trkpt lat="37.685985" lon="15.1349"><ele>361.83333333333337</ele><time>2026-04-26T12:48:53.192Z</time></trkpt><trkpt lat="37.6860517" lon="15.134975"><ele>361.6666666666667</ele><time>2026-04-26T12:48:54.193Z</time></trkpt><trkpt lat="37.6861083" lon="15.1350417"><ele>361.5</ele><time>2026-04-26T12:48:55.192Z</time></trkpt><trkpt lat="37.6861633" lon="15.1351067"><ele>361.3333333333333</ele><time>2026-04-26T12:48:56.192Z</time></trkpt><trkpt lat="37.6862083" lon="15.1351733"><ele>361.16666666666663</ele><time>2026-04-26T12:48:57.193Z</time></trkpt><trkpt lat="37.6862433" lon="15.1352517"><ele>361.0</ele><time>2026-04-26T12:48:58.192Z</time></trkpt><trkpt lat="37.6862733" lon="15.135345"><ele>360.66666666666663</ele><time>2026-04-26T12:48:59.192Z</time></trkpt><trkpt lat="37.6862967" lon="15.1354483"><ele>360.3333333333333</ele><time>2026-04-26T12:49:00.192Z</time></trkpt><trkpt lat="37.6863183" lon="15.1355433"><ele>360.0</ele><time>2026-04-26T12:49:01.192Z</time></trkpt><trkpt lat="37.686345" lon="15.1356433"><ele>359.6666666666667</ele><time>2026-04-26T12:49:02.192Z</time></trkpt><trkpt lat="37.6863617" lon="15.135755"><ele>359.33333333333337</ele><time>2026-04-26T12:49:03.192Z</time></trkpt><trkpt lat="37.6863667" lon="15.1358567"><ele>359.0</ele><time>2026-04-26T12:49:04.192Z</time></trkpt><trkpt lat="37.6863733" lon="15.1359617"><ele>358.5</ele><time>2026-04-26T12:49:05.192Z</time></trkpt><trkpt lat="37.6863867" lon="15.1360683"><ele>358.0</ele><time>2026-04-26T12:49:06.192Z</time></trkpt><trkpt lat="37.6864033" lon="15.1361683"><ele>357.5</ele><time>2026-04-26T12:49:07.192Z</time></trkpt><trkpt lat="37.686415" lon="15.13627"><ele>357.0</ele><time>2026-04-26T12:49:08.193Z</time></trkpt><trkpt lat="37.6864283" lon="15.1363683"><ele>356.5</ele><time>2026-04-26T12:49:09.192Z</time></trkpt><trkpt lat="37.6864483" lon="15.1364617"><ele>356.0</ele><time>2026-04-26T12:49:10.192Z</time></trkpt><trkpt lat="37.6864667" lon="15.13656"><ele>355.0</ele><time>2026-04-26T12:49:11.193Z</time></trkpt><trkpt lat="37.6864833" lon="15.1366533"><ele>354.0</ele><time>2026-04-26T12:49:12.192Z</time></trkpt><trkpt lat="37.686495" lon="15.1367517"><ele>353.0</ele><time>2026-04-26T12:49:13.192Z</time></trkpt><trkpt lat="37.6865133" lon="15.1368467"><ele>352.0</ele><time>2026-04-26T12:49:14.192Z</time></trkpt><trkpt lat="37.68653" lon="15.1369417"><ele>351.0</ele><time>2026-04-26T12:49:15.192Z</time></trkpt><trkpt lat="37.68654" lon="15.13703"><ele>350.0</ele><time>2026-04-26T12:49:16.193Z</time></trkpt><trkpt lat="37.686555" lon="15.137125"><ele>350.0</ele><time>2026-04-26T12:49:17.192Z</time></trkpt><trkpt lat="37.68658" lon="15.137215"><ele>350.0</ele><time>2026-04-26T12:49:18.193Z</time></trkpt><trkpt lat="37.6866" lon="15.1373"><ele>350.0</ele><time>2026-04-26T12:49:19.193Z</time></trkpt><trkpt lat="37.68662" lon="15.13739"><ele>350.0</ele><time>2026-04-26T12:49:20.192Z</time></trkpt><trkpt lat="37.6866333" lon="15.1374833"><ele>350.0</ele><time>2026-04-26T12:49:21.192Z</time></trkpt><trkpt lat="37.6866567" lon="15.137575"><ele>350.0</ele><time>2026-04-26T12:49:22.192Z</time></trkpt><trkpt lat="37.68668" lon="15.137665"><ele>350.0</ele><time>2026-04-26T12:49:23.192Z</time></trkpt><trkpt lat="37.6867033" lon="15.1377533"><ele>349.6666666666667</ele><time>2026-04-26T12:49:24.192Z</time></trkpt><trkpt lat="37.6867283" lon="15.1378433"><ele>349.33333333333337</ele><time>2026-04-26T12:49:25.192Z</time></trkpt><trkpt lat="37.6867483" lon="15.1379383"><ele>349.0</ele><time>2026-04-26T12:49:26.193Z</time></trkpt><trkpt lat="37.6867783" lon="15.13803"><ele>348.6666666666667</ele><time>2026-04-26T12:49:27.192Z</time></trkpt><trkpt lat="37.68681" lon="15.1381217"><ele>348.3333333333333</ele><time>2026-04-26T12:49:28.192Z</time></trkpt><trkpt lat="37.68686" lon="15.13821"><ele>348.0</ele><time>2026-04-26T12:49:29.192Z</time></trkpt><trkpt lat="37.6869183" lon="15.1382983"><ele>346.6666666666667</ele><time>2026-04-26T12:49:30.193Z</time></trkpt><trkpt lat="37.6869783" lon="15.1383883"><ele>345.3333333333333</ele><time>2026-04-26T12:49:31.192Z</time></trkpt><trkpt lat="37.6870233" lon="15.1384767"><ele>344.0</ele><time>2026-04-26T12:49:32.192Z</time></trkpt><trkpt lat="37.6870683" lon="15.1385767"><ele>342.66666666666663</ele><time>2026-04-26T12:49:33.192Z</time></trkpt><trkpt lat="37.68711" lon="15.138675"><ele>341.3333333333333</ele><time>2026-04-26T12:49:34.192Z</time></trkpt><trkpt lat="37.6871467" lon="15.1387717"><ele>340.0</ele><time>2026-04-26T12:49:35.192Z</time></trkpt><trkpt lat="37.6871683" lon="15.1388667"><ele>340.0</ele><time>2026-04-26T12:49:36.192Z</time></trkpt><trkpt lat="37.6871867" lon="15.1389617"><ele>340.0</ele><time>2026-04-26T12:49:37.192Z</time></trkpt><trkpt lat="37.6871967" lon="15.13907"><ele>340.0</ele><time>2026-04-26T12:49:38.192Z</time></trkpt><trkpt lat="37.68719" lon="15.1391983"><ele>340.0</ele><time>2026-04-26T12:49:39.193Z</time></trkpt><trkpt lat="37.6871883" lon="15.1393267"><ele>340.0</ele><time>2026-04-26T12:49:40.192Z</time></trkpt><trkpt lat="37.687195" lon="15.1394467"><ele>339.4</ele><time>2026-04-26T12:49:41.192Z</time></trkpt><trkpt lat="37.6871933" lon="15.1395733"><ele>338.8</ele><time>2026-04-26T12:49:42.192Z</time></trkpt><trkpt lat="37.6871833" lon="15.13969"><ele>338.20000000000005</ele><time>2026-04-26T12:49:43.192Z</time></trkpt><trkpt lat="37.687185" lon="15.13982"><ele>337.6</ele><time>2026-04-26T12:49:44.192Z</time></trkpt><trkpt lat="37.6871817" lon="15.1399217"><ele>337.0</ele><time>2026-04-26T12:49:45.192Z</time></trkpt><trkpt lat="37.68718" lon="15.1400483"><ele>336.40000000000003</ele><time>2026-04-26T12:49:46.192Z</time></trkpt><trkpt lat="37.6871767" lon="15.140165"><ele>335.8</ele><time>2026-04-26T12:49:47.192Z</time></trkpt><trkpt lat="37.6871767" lon="15.140285"><ele>335.2</ele><time>2026-04-26T12:49:48.192Z</time></trkpt><trkpt lat="37.68717" lon="15.1403933"><ele>334.6</ele><time>2026-04-26T12:49:49.192Z</time></trkpt><trkpt lat="37.6871767" lon="15.1405083"><ele>334.0</ele><time>2026-04-26T12:49:50.192Z</time></trkpt><trkpt lat="37.687185" lon="15.1406267"><ele>333.0</ele><time>2026-04-26T12:49:51.192Z</time></trkpt><trkpt lat="37.68719" lon="15.1407567"><ele>332.0</ele><time>2026-04-26T12:49:52.192Z</time></trkpt><trkpt lat="37.6871867" lon="15.1408983"><ele>331.0</ele><time>2026-04-26T12:49:53.192Z</time></trkpt><trkpt lat="37.6871883" lon="15.1410483"><ele>330.0</ele><time>2026-04-26T12:49:54.192Z</time></trkpt><trkpt lat="37.6871933" lon="15.1412"><ele>330.0</ele><time>2026-04-26T12:49:55.192Z</time></trkpt><trkpt lat="37.6872" lon="15.1413533"><ele>330.0</ele><time>2026-04-26T12:49:56.192Z</time></trkpt><trkpt lat="37.6872017" lon="15.1414983"><ele>330.0</ele><time>2026-04-26T12:49:57.192Z</time></trkpt><trkpt lat="37.6871983" lon="15.1416233"><ele>330.0</ele><time>2026-04-26T12:49:58.192Z</time></trkpt><trkpt lat="37.6871967" lon="15.1417317"><ele>330.0</ele><time>2026-04-26T12:49:59.192Z</time></trkpt><trkpt lat="37.6871933" lon="15.1418383"><ele>329.0</ele><time>2026-04-26T12:50:00.192Z</time></trkpt><trkpt lat="37.6871883" lon="15.1419217"><ele>328.0</ele><time>2026-04-26T12:50:01.193Z</time></trkpt><trkpt lat="37.6871833" lon="15.1420217"><ele>327.0</ele><time>2026-04-26T12:50:03.192Z</time></trkpt><trkpt lat="37.6872117" lon="15.1421633"><ele>326.0</ele><time>2026-04-26T12:51:13.192Z</time></trkpt><trkpt lat="37.687205" lon="15.1422683"><ele>325.0</ele><time>2026-04-26T12:51:15.192Z</time></trkpt><trkpt lat="37.6872083" lon="15.1423583"><ele>324.0</ele><time>2026-04-26T12:51:16.192Z</time></trkpt><trkpt lat="37.6872117" lon="15.1424717"><ele>323.0</ele><time>2026-04-26T12:51:17.192Z</time></trkpt><trkpt lat="37.6872133" lon="15.1426017"><ele>322.0</ele><time>2026-04-26T12:51:18.193Z</time></trkpt><trkpt lat="37.68722" lon="15.14274"><ele>321.0</ele><time>2026-04-26T12:51:19.193Z</time></trkpt><trkpt lat="37.6872233" lon="15.1428933"><ele>320.0</ele><time>2026-04-26T12:51:20.193Z</time></trkpt><trkpt lat="37.6872233" lon="15.143055"><ele>320.0</ele><time>2026-04-26T12:51:21.192Z</time></trkpt><trkpt lat="37.687225" lon="15.1432117"><ele>320.0</ele><time>2026-04-26T12:51:22.192Z</time></trkpt><trkpt lat="37.6872233" lon="15.1433633"><ele>320.0</ele><time>2026-04-26T12:51:23.193Z</time></trkpt><trkpt lat="37.6872233" lon="15.1435067"><ele>320.0</ele><time>2026-04-26T12:51:24.192Z</time></trkpt><trkpt lat="37.687225" lon="15.1436533"><ele>319.0</ele><time>2026-04-26T12:51:25.192Z</time></trkpt><trkpt lat="37.6872217" lon="15.1438117"><ele>318.0</ele><time>2026-04-26T12:51:26.192Z</time></trkpt><trkpt lat="37.6872233" lon="15.1439683"><ele>317.0</ele><time>2026-04-26T12:51:27.192Z</time></trkpt><trkpt lat="37.6872333" lon="15.14412"><ele>316.0</ele><time>2026-04-26T12:51:28.192Z</time></trkpt><trkpt lat="37.687235" lon="15.1442733"><ele>314.8</ele><time>2026-04-26T12:51:29.192Z</time></trkpt><trkpt lat="37.6872283" lon="15.14442"><ele>313.6</ele><time>2026-04-26T12:51:30.192Z</time></trkpt><trkpt lat="37.6872283" lon="15.1445533"><ele>312.4</ele><time>2026-04-26T12:51:31.192Z</time></trkpt><trkpt lat="37.6872233" lon="15.1446833"><ele>311.2</ele><time>2026-04-26T12:51:32.192Z</time></trkpt><trkpt lat="37.6872217" lon="15.144815"><ele>310.0</ele><time>2026-04-26T12:51:33.193Z</time></trkpt><trkpt lat="37.687215" lon="15.1449283"><ele>309.16666666666663</ele><time>2026-04-26T12:51:34.193Z</time></trkpt><trkpt lat="37.68721" lon="15.1450467"><ele>308.3333333333333</ele><time>2026-04-26T12:51:35.192Z</time></trkpt><trkpt lat="37.6871917" lon="15.1451433"><ele>307.5</ele><time>2026-04-26T12:51:36.192Z</time></trkpt><trkpt lat="37.6871533" lon="15.1452383"><ele>306.6666666666667</ele><time>2026-04-26T12:51:37.192Z</time></trkpt><trkpt lat="37.687115" lon="15.1453283"><ele>305.83333333333337</ele><time>2026-04-26T12:51:38.192Z</time></trkpt><trkpt lat="37.6870667" lon="15.145415"><ele>305.0</ele><time>2026-04-26T12:51:39.192Z</time></trkpt><trkpt lat="37.6870467" lon="15.1455117"><ele>305.0</ele><time>2026-04-26T12:51:40.192Z</time></trkpt><trkpt lat="37.6870533" lon="15.1456017"><ele>305.0</ele><time>2026-04-26T12:51:41.192Z</time></trkpt><trkpt lat="37.6870883" lon="15.1456867"><ele>305.0</ele><time>2026-04-26T12:51:42.192Z</time></trkpt><trkpt lat="37.687145" lon="15.145785"><ele>305.0</ele><time>2026-04-26T12:51:43.192Z</time></trkpt><trkpt lat="37.6871983" lon="15.1458867"><ele>305.0</ele><time>2026-04-26T12:51:44.192Z</time></trkpt><trkpt lat="37.687245" lon="15.1460183"><ele>303.25</ele><time>2026-04-26T12:51:45.192Z</time></trkpt><trkpt lat="37.68728" lon="15.146175"><ele>301.5</ele><time>2026-04-26T12:51:46.192Z</time></trkpt><trkpt lat="37.6873067" lon="15.1463567"><ele>299.75</ele><time>2026-04-26T12:51:47.192Z</time></trkpt><trkpt lat="37.68733" lon="15.1465567"><ele>298.0</ele><time>2026-04-26T12:51:48.192Z</time></trkpt><trkpt lat="37.68736" lon="15.146765"><ele>296.3333333333333</ele><time>2026-04-26T12:51:49.192Z</time></trkpt><trkpt lat="37.6874017" lon="15.1469567"><ele>294.6666666666667</ele><time>2026-04-26T12:51:50.192Z</time></trkpt><trkpt lat="37.68745" lon="15.14715"><ele>293.0</ele><time>2026-04-26T12:51:51.192Z</time></trkpt><trkpt lat="37.687505" lon="15.14735"><ele>293.0</ele><time>2026-04-26T12:51:52.192Z</time></trkpt><trkpt lat="37.687565" lon="15.1475383"><ele>293.0</ele><time>2026-04-26T12:51:53.192Z</time></trkpt><trkpt lat="37.68762" lon="15.14771"><ele>293.0</ele><time>2026-04-26T12:51:54.192Z</time></trkpt><trkpt lat="37.6876783" lon="15.1478733"><ele>293.0</ele><time>2026-04-26T12:51:55.192Z</time></trkpt><trkpt lat="37.6877367" lon="15.1480283"><ele>292.5</ele><time>2026-04-26T12:51:56.192Z</time></trkpt><trkpt lat="37.6877917" lon="15.1481667"><ele>292.0</ele><time>2026-04-26T12:51:57.193Z</time></trkpt><trkpt lat="37.68785" lon="15.1483083"><ele>291.5</ele><time>2026-04-26T12:51:58.192Z</time></trkpt><trkpt lat="37.687905" lon="15.1484417"><ele>291.0</ele><time>2026-04-26T12:51:59.192Z</time></trkpt><trkpt lat="37.687955" lon="15.1485617"><ele>290.2</ele><time>2026-04-26T12:52:00.193Z</time></trkpt><trkpt lat="37.6880067" lon="15.1486717"><ele>289.40000000000003</ele><time>2026-04-26T12:52:01.192Z</time></trkpt><trkpt lat="37.6880533" lon="15.1487783"><ele>288.6</ele><time>2026-04-26T12:52:02.192Z</time></trkpt><trkpt lat="37.6880933" lon="15.1488917"><ele>287.8</ele><time>2026-04-26T12:52:03.192Z</time></trkpt><trkpt lat="37.688125" lon="15.149005"><ele>287.0</ele><time>2026-04-26T12:52:04.193Z</time></trkpt><trkpt lat="37.6881567" lon="15.1491233"><ele>286.4</ele><time>2026-04-26T12:52:05.193Z</time></trkpt><trkpt lat="37.6881933" lon="15.149225"><ele>285.79999999999995</ele><time>2026-04-26T12:52:06.192Z</time></trkpt><trkpt lat="37.68823" lon="15.1493333"><ele>285.2</ele><time>2026-04-26T12:52:07.192Z</time></trkpt><trkpt lat="37.6882683" lon="15.1494483"><ele>284.59999999999997</ele><time>2026-04-26T12:52:08.192Z</time></trkpt><trkpt lat="37.6883083" lon="15.1495667"><ele>284.0</ele><time>2026-04-26T12:52:09.192Z</time></trkpt><trkpt lat="37.688365" lon="15.1496733"><ele>284.0</ele><time>2026-04-26T12:52:10.192Z</time></trkpt><trkpt lat="37.688445" lon="15.149765"><ele>284.0</ele><time>2026-04-26T12:52:11.192Z</time></trkpt><trkpt lat="37.6885367" lon="15.1498317"><ele>284.0</ele><time>2026-04-26T12:52:12.192Z</time></trkpt><trkpt lat="37.68864" lon="15.1498817"><ele>284.0</ele><time>2026-04-26T12:52:13.192Z</time></trkpt><trkpt lat="37.6887433" lon="15.14993"><ele>284.0</ele><time>2026-04-26T12:52:14.192Z</time></trkpt><trkpt lat="37.68885" lon="15.1499767"><ele>283.8</ele><time>2026-04-26T12:52:15.192Z</time></trkpt><trkpt lat="37.6889567" lon="15.1500217"><ele>283.59999999999997</ele><time>2026-04-26T12:52:16.192Z</time></trkpt><trkpt lat="37.68906" lon="15.1500633"><ele>283.4</ele><time>2026-04-26T12:52:17.192Z</time></trkpt><trkpt lat="37.689165" lon="15.150095"><ele>283.2</ele><time>2026-04-26T12:52:18.192Z</time></trkpt><trkpt lat="37.6892733" lon="15.15013"><ele>283.0</ele><time>2026-04-26T12:52:19.193Z</time></trkpt><trkpt lat="37.689375" lon="15.1501617"><ele>284.0</ele><time>2026-04-26T12:52:20.192Z</time></trkpt><trkpt lat="37.689495" lon="15.1501817"><ele>285.0</ele><time>2026-04-26T12:52:21.192Z</time></trkpt><trkpt lat="37.6896383" lon="15.15018"><ele>286.0</ele><time>2026-04-26T12:52:22.192Z</time></trkpt><trkpt lat="37.6898133" lon="15.150165"><ele>287.0</ele><time>2026-04-26T12:52:23.192Z</time></trkpt><trkpt lat="37.6899967" lon="15.1501583"><ele>287.0</ele><time>2026-04-26T12:52:24.192Z</time></trkpt><trkpt lat="37.6901917" lon="15.1501517"><ele>287.0</ele><time>2026-04-26T12:52:25.192Z</time></trkpt><trkpt lat="37.6903833" lon="15.1501533"><ele>287.0</ele><time>2026-04-26T12:52:26.192Z</time></trkpt><trkpt lat="37.69058" lon="15.1501467"><ele>286.6666666666667</ele><time>2026-04-26T12:52:27.192Z</time></trkpt><trkpt lat="37.6907683" lon="15.1501383"><ele>286.3333333333333</ele><time>2026-04-26T12:52:28.192Z</time></trkpt><trkpt lat="37.6909533" lon="15.15013"><ele>286.0</ele><time>2026-04-26T12:52:29.192Z</time></trkpt><trkpt lat="37.6911333" lon="15.1501317"><ele>287.0</ele><time>2026-04-26T12:52:30.192Z</time></trkpt><trkpt lat="37.691305" lon="15.1501283"><ele>288.0</ele><time>2026-04-26T12:52:31.192Z</time></trkpt><trkpt lat="37.6914583" lon="15.1501233"><ele>289.0</ele><time>2026-04-26T12:52:32.192Z</time></trkpt><trkpt lat="37.6916017" lon="15.15012"><ele>289.0</ele><time>2026-04-26T12:52:33.192Z</time></trkpt><trkpt lat="37.6917233" lon="15.1501267"><ele>289.0</ele><time>2026-04-26T12:52:34.192Z</time></trkpt><trkpt lat="37.6918317" lon="15.1501433"><ele>289.0</ele><time>2026-04-26T12:52:35.192Z</time></trkpt><trkpt lat="37.691915" lon="15.1501833"><ele>289.0</ele><time>2026-04-26T12:52:36.192Z</time></trkpt><trkpt lat="37.6919717" lon="15.150225"><ele>289.0</ele><time>2026-04-26T12:52:37.192Z</time></trkpt><trkpt lat="37.6920317" lon="15.1503317"><ele>289.4</ele><time>2026-04-26T12:52:39.192Z</time></trkpt><trkpt lat="37.69208" lon="15.1504917"><ele>289.79999999999995</ele><time>2026-04-26T12:52:41.192Z</time></trkpt><trkpt lat="37.6920983" lon="15.150605"><ele>290.20000000000005</ele><time>2026-04-26T12:52:42.192Z</time></trkpt><trkpt lat="37.6921267" lon="15.1507267"><ele>290.6</ele><time>2026-04-26T12:52:43.192Z</time></trkpt><trkpt lat="37.69216" lon="15.1508417"><ele>291.0</ele><time>2026-04-26T12:52:44.192Z</time></trkpt><trkpt lat="37.6922033" lon="15.1509567"><ele>289.5</ele><time>2026-04-26T12:52:45.192Z</time></trkpt><trkpt lat="37.6922783" lon="15.1510683"><ele>288.0</ele><time>2026-04-26T12:52:46.192Z</time></trkpt><trkpt lat="37.6923667" lon="15.1511683"><ele>286.5</ele><time>2026-04-26T12:52:47.192Z</time></trkpt><trkpt lat="37.6924567" lon="15.1512433"><ele>285.0</ele><time>2026-04-26T12:52:48.192Z</time></trkpt><trkpt lat="37.692555" lon="15.1513117"><ele>285.0</ele><time>2026-04-26T12:52:49.192Z</time></trkpt><trkpt lat="37.6926533" lon="15.1513617"><ele>285.0</ele><time>2026-04-26T12:52:50.192Z</time></trkpt><trkpt lat="37.6927517" lon="15.151415"><ele>285.0</ele><time>2026-04-26T12:52:51.192Z</time></trkpt><trkpt lat="37.692845" lon="15.1514633"><ele>285.0</ele><time>2026-04-26T12:52:52.192Z</time></trkpt><trkpt lat="37.69293" lon="15.1515133"><ele>285.0</ele><time>2026-04-26T12:52:53.192Z</time></trkpt><trkpt lat="37.693025" lon="15.151565"><ele>283.1666666666667</ele><time>2026-04-26T12:52:54.192Z</time></trkpt><trkpt lat="37.6931167" lon="15.1516133"><ele>281.3333333333333</ele><time>2026-04-26T12:52:55.192Z</time></trkpt><trkpt lat="37.6931933" lon="15.151665"><ele>279.5</ele><time>2026-04-26T12:52:56.192Z</time></trkpt><trkpt lat="37.6932733" lon="15.1517233"><ele>277.66666666666663</ele><time>2026-04-26T12:52:57.192Z</time></trkpt><trkpt lat="37.693335" lon="15.15179"><ele>275.8333333333333</ele><time>2026-04-26T12:52:58.192Z</time></trkpt><trkpt lat="37.6933883" lon="15.1518783"><ele>274.0</ele><time>2026-04-26T12:52:59.192Z</time></trkpt><trkpt lat="37.6934367" lon="15.1519733"><ele>274.0</ele><time>2026-04-26T12:53:00.192Z</time></trkpt><trkpt lat="37.6934733" lon="15.152065"><ele>274.0</ele><time>2026-04-26T12:53:01.192Z</time></trkpt><trkpt lat="37.6935" lon="15.1521633"><ele>274.0</ele><time>2026-04-26T12:53:02.192Z</time></trkpt><trkpt lat="37.6935083" lon="15.1522817"><ele>274.0</ele><time>2026-04-26T12:53:03.193Z</time></trkpt><trkpt lat="37.6935033" lon="15.1524117"><ele>274.0</ele><time>2026-04-26T12:53:04.193Z</time></trkpt><trkpt lat="37.693485" lon="15.15255"><ele>272.75</ele><time>2026-04-26T12:53:05.193Z</time></trkpt><trkpt lat="37.6934617" lon="15.152695"><ele>271.5</ele><time>2026-04-26T12:53:06.193Z</time></trkpt><trkpt lat="37.69344" lon="15.152835"><ele>270.25</ele><time>2026-04-26T12:53:07.193Z</time></trkpt><trkpt lat="37.6934217" lon="15.1529767"><ele>269.0</ele><time>2026-04-26T12:53:08.193Z</time></trkpt><trkpt lat="37.6933983" lon="15.1531217"><ele>268.59999999999997</ele><time>2026-04-26T12:53:09.192Z</time></trkpt><trkpt lat="37.69338" lon="15.153265"><ele>268.2</ele><time>2026-04-26T12:53:10.192Z</time></trkpt><trkpt lat="37.69336" lon="15.1534067"><ele>267.79999999999995</ele><time>2026-04-26T12:53:11.192Z</time></trkpt><trkpt lat="37.6933383" lon="15.1535417"><ele>267.4</ele><time>2026-04-26T12:53:12.192Z</time></trkpt><trkpt lat="37.693315" lon="15.1536683"><ele>267.0</ele><time>2026-04-26T12:53:13.192Z</time></trkpt><trkpt lat="37.693295" lon="15.153795"><ele>267.0</ele><time>2026-04-26T12:53:14.192Z</time></trkpt><trkpt lat="37.6932717" lon="15.15392"><ele>267.0</ele><time>2026-04-26T12:53:15.192Z</time></trkpt><trkpt lat="37.6932433" lon="15.15404"><ele>267.0</ele><time>2026-04-26T12:53:16.192Z</time></trkpt><trkpt lat="37.6932083" lon="15.1541717"><ele>267.0</ele><time>2026-04-26T12:53:17.192Z</time></trkpt><trkpt lat="37.6931783" lon="15.1543067"><ele>267.0</ele><time>2026-04-26T12:53:18.192Z</time></trkpt><trkpt lat="37.6931617" lon="15.1544467"><ele>265.25</ele><time>2026-04-26T12:53:19.192Z</time></trkpt><trkpt lat="37.6931583" lon="15.1545967"><ele>263.5</ele><time>2026-04-26T12:53:20.192Z</time></trkpt><trkpt lat="37.6931733" lon="15.15474"><ele>261.75</ele><time>2026-04-26T12:53:21.193Z</time></trkpt><trkpt lat="37.693195" lon="15.1548783"><ele>260.0</ele><time>2026-04-26T12:53:22.192Z</time></trkpt><trkpt lat="37.6932267" lon="15.15502"><ele>258.75</ele><time>2026-04-26T12:53:23.192Z</time></trkpt><trkpt lat="37.6932817" lon="15.15517"><ele>257.5</ele><time>2026-04-26T12:53:24.192Z</time></trkpt><trkpt lat="37.6933567" lon="15.1553067"><ele>256.25</ele><time>2026-04-26T12:53:25.192Z</time></trkpt><trkpt lat="37.6934433" lon="15.1554417"><ele>255.0</ele><time>2026-04-26T12:53:26.192Z</time></trkpt><trkpt lat="37.693545" lon="15.15559"><ele>254.33333333333331</ele><time>2026-04-26T12:53:27.192Z</time></trkpt><trkpt lat="37.6936733" lon="15.155755"><ele>253.66666666666666</ele><time>2026-04-26T12:53:28.192Z</time></trkpt><trkpt lat="37.6938033" lon="15.1559433"><ele>253.0</ele><time>2026-04-26T12:53:29.192Z</time></trkpt><trkpt lat="37.69393" lon="15.1561417"><ele>253.0</ele><time>2026-04-26T12:53:30.192Z</time></trkpt><trkpt lat="37.6940417" lon="15.1563283"><ele>253.0</ele><time>2026-04-26T12:53:31.192Z</time></trkpt><trkpt lat="37.6941417" lon="15.1565167"><ele>253.0</ele><time>2026-04-26T12:53:32.192Z</time></trkpt><trkpt lat="37.69423" lon="15.156715"><ele>253.33333333333331</ele><time>2026-04-26T12:53:33.192Z</time></trkpt><trkpt lat="37.6943083" lon="15.156915"><ele>253.66666666666669</ele><time>2026-04-26T12:53:34.193Z</time></trkpt><trkpt lat="37.6943867" lon="15.1571267"><ele>254.0</ele><time>2026-04-26T12:53:35.192Z</time></trkpt><trkpt lat="37.6944583" lon="15.15734"><ele>252.66666666666669</ele><time>2026-04-26T12:53:36.192Z</time></trkpt><trkpt lat="37.6945333" lon="15.1575567"><ele>251.33333333333331</ele><time>2026-04-26T12:53:37.192Z</time></trkpt><trkpt lat="37.694605" lon="15.1577833"><ele>250.0</ele><time>2026-04-26T12:53:38.192Z</time></trkpt><trkpt lat="37.6946683" lon="15.158005"><ele>248.0</ele><time>2026-04-26T12:53:39.193Z</time></trkpt><trkpt lat="37.6947317" lon="15.1582133"><ele>246.0</ele><time>2026-04-26T12:53:40.192Z</time></trkpt><trkpt lat="37.6947933" lon="15.1584117"><ele>244.0</ele><time>2026-04-26T12:53:41.192Z</time></trkpt><trkpt lat="37.6948583" lon="15.1586083"><ele>244.0</ele><time>2026-04-26T12:53:42.192Z</time></trkpt><trkpt lat="37.69492" lon="15.1588067"><ele>244.0</ele><time>2026-04-26T12:53:43.192Z</time></trkpt><trkpt lat="37.6949683" lon="15.15901"><ele>244.0</ele><time>2026-04-26T12:53:44.192Z</time></trkpt><trkpt lat="37.69501" lon="15.15922"><ele>243.0</ele><time>2026-04-26T12:53:45.192Z</time></trkpt><trkpt lat="37.6950417" lon="15.1594333"><ele>242.0</ele><time>2026-04-26T12:53:46.192Z</time></trkpt><trkpt lat="37.6950767" lon="15.159655"><ele>241.0</ele><time>2026-04-26T12:53:47.192Z</time></trkpt><trkpt lat="37.6951067" lon="15.1598717"><ele>240.0</ele><time>2026-04-26T12:53:48.192Z</time></trkpt><trkpt lat="37.6951367" lon="15.1600783"><ele>239.0</ele><time>2026-04-26T12:53:49.192Z</time></trkpt><trkpt lat="37.6951567" lon="15.1602783"><ele>238.0</ele><time>2026-04-26T12:53:50.192Z</time></trkpt><trkpt lat="37.6951683" lon="15.1604817"><ele>238.0</ele><time>2026-04-26T12:53:51.192Z</time></trkpt><trkpt lat="37.6951667" lon="15.1606833"><ele>238.0</ele><time>2026-04-26T12:53:52.193Z</time></trkpt><trkpt lat="37.69516" lon="15.1608933"><ele>238.0</ele><time>2026-04-26T12:53:53.193Z</time></trkpt><trkpt lat="37.6951567" lon="15.1610933"><ele>236.33333333333331</ele><time>2026-04-26T12:53:54.193Z</time></trkpt><trkpt lat="37.69516" lon="15.1612983"><ele>234.66666666666669</ele><time>2026-04-26T12:53:55.192Z</time></trkpt><trkpt lat="37.6951717" lon="15.161495"><ele>233.0</ele><time>2026-04-26T12:53:56.192Z</time></trkpt><trkpt lat="37.6952017" lon="15.1616883"><ele>232.0</ele><time>2026-04-26T12:53:57.192Z</time></trkpt><trkpt lat="37.6952433" lon="15.1618917"><ele>231.0</ele><time>2026-04-26T12:53:58.192Z</time></trkpt><trkpt lat="37.6952917" lon="15.162095"><ele>230.0</ele><time>2026-04-26T12:53:59.192Z</time></trkpt><trkpt lat="37.6953583" lon="15.1622967"><ele>229.0</ele><time>2026-04-26T12:54:00.192Z</time></trkpt><trkpt lat="37.6954317" lon="15.1624883"><ele>228.0</ele><time>2026-04-26T12:54:01.192Z</time></trkpt><trkpt lat="37.6955183" lon="15.1626933"><ele>227.0</ele><time>2026-04-26T12:54:02.192Z</time></trkpt><trkpt lat="37.6956033" lon="15.1628883"><ele>227.0</ele><time>2026-04-26T12:54:03.192Z</time></trkpt><trkpt lat="37.695685" lon="15.1630867"><ele>227.0</ele><time>2026-04-26T12:54:04.192Z</time></trkpt><trkpt lat="37.6957617" lon="15.1632767"><ele>227.0</ele><time>2026-04-26T12:54:05.192Z</time></trkpt><trkpt lat="37.6958433" lon="15.163475"><ele>225.0</ele><time>2026-04-26T12:54:06.193Z</time></trkpt><trkpt lat="37.6959267" lon="15.1636717"><ele>223.0</ele><time>2026-04-26T12:54:07.192Z</time></trkpt><trkpt lat="37.696005" lon="15.163865"><ele>221.0</ele><time>2026-04-26T12:54:08.192Z</time></trkpt><trkpt lat="37.6960817" lon="15.16406"><ele>222.0</ele><time>2026-04-26T12:54:09.192Z</time></trkpt><trkpt lat="37.6961567" lon="15.1642583"><ele>223.0</ele><time>2026-04-26T12:54:10.193Z</time></trkpt><trkpt lat="37.6962233" lon="15.164465"><ele>224.0</ele><time>2026-04-26T12:54:11.193Z</time></trkpt><trkpt lat="37.696285" lon="15.1646767"><ele>221.66666666666669</ele><time>2026-04-26T12:54:12.193Z</time></trkpt><trkpt lat="37.6963383" lon="15.164885"><ele>219.33333333333331</ele><time>2026-04-26T12:54:13.192Z</time></trkpt><trkpt lat="37.696385" lon="15.1650883"><ele>217.0</ele><time>2026-04-26T12:54:14.192Z</time></trkpt><trkpt lat="37.696425" lon="15.1653017"><ele>217.0</ele><time>2026-04-26T12:54:15.192Z</time></trkpt><trkpt lat="37.69646" lon="15.1655117"><ele>217.0</ele><time>2026-04-26T12:54:16.192Z</time></trkpt><trkpt lat="37.696495" lon="15.1657267"><ele>217.0</ele><time>2026-04-26T12:54:17.192Z</time></trkpt><trkpt lat="37.696525" lon="15.1659333"><ele>216.5</ele><time>2026-04-26T12:54:18.192Z</time></trkpt><trkpt lat="37.6965483" lon="15.1661217"><ele>216.0</ele><time>2026-04-26T12:54:19.192Z</time></trkpt><trkpt lat="37.69657" lon="15.1663"><ele>215.5</ele><time>2026-04-26T12:54:20.192Z</time></trkpt><trkpt lat="37.6966133" lon="15.1664533"><ele>215.0</ele><time>2026-04-26T12:54:21.193Z</time></trkpt><trkpt lat="37.6966883" lon="15.166575"><ele>214.0</ele><time>2026-04-26T12:54:22.192Z</time></trkpt><trkpt lat="37.6968" lon="15.16667"><ele>213.0</ele><time>2026-04-26T12:54:23.193Z</time></trkpt><trkpt lat="37.6969333" lon="15.16673"><ele>212.0</ele><time>2026-04-26T12:54:24.192Z</time></trkpt><trkpt lat="37.6970833" lon="15.166765"><ele>211.0</ele><time>2026-04-26T12:54:25.192Z</time></trkpt><trkpt lat="37.6972467" lon="15.1667767"><ele>210.33333333333331</ele><time>2026-04-26T12:54:26.192Z</time></trkpt><trkpt lat="37.6974083" lon="15.16677"><ele>209.66666666666669</ele><time>2026-04-26T12:54:27.192Z</time></trkpt><trkpt lat="37.6975783" lon="15.1667483"><ele>209.0</ele><time>2026-04-26T12:54:28.192Z</time></trkpt><trkpt lat="37.6977483" lon="15.1667383"><ele>207.0</ele><time>2026-04-26T12:54:29.192Z</time></trkpt><trkpt lat="37.6979167" lon="15.1667333"><ele>205.0</ele><time>2026-04-26T12:54:30.192Z</time></trkpt><trkpt lat="37.6980783" lon="15.1667283"><ele>203.0</ele><time>2026-04-26T12:54:31.193Z</time></trkpt><trkpt lat="37.698235" lon="15.16672"><ele>203.0</ele><time>2026-04-26T12:54:32.192Z</time></trkpt><trkpt lat="37.6983967" lon="15.1666983"><ele>203.0</ele><time>2026-04-26T12:54:33.192Z</time></trkpt><trkpt lat="37.69856" lon="15.1666467"><ele>203.0</ele><time>2026-04-26T12:54:34.193Z</time></trkpt><trkpt lat="37.6987183" lon="15.1665733"><ele>204.66666666666669</ele><time>2026-04-26T12:54:35.192Z</time></trkpt><trkpt lat="37.6988717" lon="15.1664883"><ele>206.33333333333331</ele><time>2026-04-26T12:54:36.192Z</time></trkpt><trkpt lat="37.69901" lon="15.166405"><ele>208.0</ele><time>2026-04-26T12:54:37.193Z</time></trkpt><trkpt lat="37.6991433" lon="15.1663117"><ele>208.0</ele><time>2026-04-26T12:54:38.192Z</time></trkpt><trkpt lat="37.6992683" lon="15.16623"><ele>208.0</ele><time>2026-04-26T12:54:39.192Z</time></trkpt><trkpt lat="37.6993817" lon="15.1661783"><ele>208.0</ele><time>2026-04-26T12:54:40.192Z</time></trkpt><trkpt lat="37.6994883" lon="15.166155"><ele>208.0</ele><time>2026-04-26T12:54:41.192Z</time></trkpt><trkpt lat="37.6995983" lon="15.1661767"><ele>207.0</ele><time>2026-04-26T12:54:42.193Z</time></trkpt><trkpt lat="37.6996917" lon="15.1662383"><ele>206.0</ele><time>2026-04-26T12:54:43.192Z</time></trkpt><trkpt lat="37.6997633" lon="15.16636"><ele>205.0</ele><time>2026-04-26T12:54:44.192Z</time></trkpt><trkpt lat="37.6998133" lon="15.1664983"><ele>204.0</ele><time>2026-04-26T12:54:45.192Z</time></trkpt><trkpt lat="37.69986" lon="15.1666367"><ele>201.5</ele><time>2026-04-26T12:54:46.192Z</time></trkpt><trkpt lat="37.6998917" lon="15.1667767"><ele>199.0</ele><time>2026-04-26T12:54:47.192Z</time></trkpt><trkpt lat="37.6998983" lon="15.1669517"><ele>196.5</ele><time>2026-04-26T12:54:48.192Z</time></trkpt><trkpt lat="37.6999067" lon="15.16712"><ele>194.0</ele><time>2026-04-26T12:54:49.193Z</time></trkpt><trkpt lat="37.6999283" lon="15.16728"><ele>193.25</ele><time>2026-04-26T12:54:50.192Z</time></trkpt><trkpt lat="37.6999633" lon="15.16742"><ele>192.5</ele><time>2026-04-26T12:54:51.192Z</time></trkpt><trkpt lat="37.7000133" lon="15.1675417"><ele>191.75</ele><time>2026-04-26T12:54:52.192Z</time></trkpt><trkpt lat="37.7000867" lon="15.1676467"><ele>191.0</ele><time>2026-04-26T12:54:53.192Z</time></trkpt><trkpt lat="37.7001783" lon="15.16774"><ele>192.0</ele><time>2026-04-26T12:54:54.192Z</time></trkpt><trkpt lat="37.7002867" lon="15.1678117"><ele>193.0</ele><time>2026-04-26T12:54:55.192Z</time></trkpt><trkpt lat="37.7004083" lon="15.1678817"><ele>194.0</ele><time>2026-04-26T12:54:56.192Z</time></trkpt><trkpt lat="37.7005517" lon="15.1679483"><ele>195.0</ele><time>2026-04-26T12:54:57.192Z</time></trkpt><trkpt lat="37.7007" lon="15.1680167"><ele>195.0</ele><time>2026-04-26T12:54:58.193Z</time></trkpt><trkpt lat="37.7008517" lon="15.1680917"><ele>195.0</ele><time>2026-04-26T12:54:59.192Z</time></trkpt><trkpt lat="37.7009967" lon="15.1681767"><ele>195.0</ele><time>2026-04-26T12:55:00.192Z</time></trkpt><trkpt lat="37.70114" lon="15.1682567"><ele>193.0</ele><time>2026-04-26T12:55:01.192Z</time></trkpt><trkpt lat="37.7012767" lon="15.1683367"><ele>191.0</ele><time>2026-04-26T12:55:02.192Z</time></trkpt><trkpt lat="37.7014133" lon="15.16842"><ele>189.0</ele><time>2026-04-26T12:55:03.192Z</time></trkpt><trkpt lat="37.7015433" lon="15.1685283"><ele>189.0</ele><time>2026-04-26T12:55:04.192Z</time></trkpt><trkpt lat="37.70168" lon="15.1686433"><ele>189.0</ele><time>2026-04-26T12:55:05.192Z</time></trkpt><trkpt lat="37.7018117" lon="15.168755"><ele>189.0</ele><time>2026-04-26T12:55:06.192Z</time></trkpt><trkpt lat="37.7019467" lon="15.1688683"><ele>189.0</ele><time>2026-04-26T12:55:07.192Z</time></trkpt><trkpt lat="37.70207" lon="15.1689833"><ele>189.0</ele><time>2026-04-26T12:55:08.193Z</time></trkpt><trkpt lat="37.7021933" lon="15.1691"><ele>189.0</ele><time>2026-04-26T12:55:09.192Z</time></trkpt><trkpt lat="37.70232" lon="15.1692133"><ele>188.25</ele><time>2026-04-26T12:55:10.193Z</time></trkpt><trkpt lat="37.702435" lon="15.1693183"><ele>187.5</ele><time>2026-04-26T12:55:11.192Z</time></trkpt><trkpt lat="37.702545" lon="15.1694183"><ele>186.75</ele><time>2026-04-26T12:55:12.192Z</time></trkpt><trkpt lat="37.7026583" lon="15.1695117"><ele>186.0</ele><time>2026-04-26T12:55:13.192Z</time></trkpt><trkpt lat="37.7027583" lon="15.1695917"><ele>186.0</ele><time>2026-04-26T12:55:14.192Z</time></trkpt><trkpt lat="37.70285" lon="15.1696733"><ele>186.0</ele><time>2026-04-26T12:55:15.192Z</time></trkpt><trkpt lat="37.7029333" lon="15.1697433"><ele>186.0</ele><time>2026-04-26T12:55:16.192Z</time></trkpt><trkpt lat="37.7030283" lon="15.169805"><ele>186.0</ele><time>2026-04-26T12:55:17.192Z</time></trkpt><trkpt lat="37.7031283" lon="15.16987"><ele>186.0</ele><time>2026-04-26T12:55:18.192Z</time></trkpt><trkpt lat="37.7032183" lon="15.1699367"><ele>186.0</ele><time>2026-04-26T12:55:19.192Z</time></trkpt><trkpt lat="37.7033167" lon="15.1700083"><ele>186.0</ele><time>2026-04-26T12:55:20.192Z</time></trkpt><trkpt lat="37.7034033" lon="15.1700717"><ele>186.0</ele><time>2026-04-26T12:55:21.192Z</time></trkpt><trkpt lat="37.7034967" lon="15.1701367"><ele>186.0</ele><time>2026-04-26T12:55:22.193Z</time></trkpt><trkpt lat="37.7035733" lon="15.1702033"><ele>186.0</ele><time>2026-04-26T12:55:23.192Z</time></trkpt><trkpt lat="37.703655" lon="15.1702717"><ele>186.0</ele><time>2026-04-26T12:55:24.192Z</time></trkpt><trkpt lat="37.7037233" lon="15.1703367"><ele>186.0</ele><time>2026-04-26T12:55:25.192Z</time></trkpt><trkpt lat="37.7037867" lon="15.170415"><ele>186.0</ele><time>2026-04-26T12:55:26.192Z</time></trkpt><trkpt lat="37.7038383" lon="15.1704917"><ele>186.0</ele><time>2026-04-26T12:55:27.193Z</time></trkpt><trkpt lat="37.7038783" lon="15.1705783"><ele>186.0</ele><time>2026-04-26T12:55:28.192Z</time></trkpt><trkpt lat="37.70391" lon="15.170685"><ele>186.0</ele><time>2026-04-26T12:55:29.193Z</time></trkpt><trkpt lat="37.7039367" lon="15.17078"><ele>185.14285714285717</ele><time>2026-04-26T12:55:30.192Z</time></trkpt><trkpt lat="37.703975" lon="15.1708617"><ele>184.28571428571428</ele><time>2026-04-26T12:55:31.192Z</time></trkpt><trkpt lat="37.7040267" lon="15.1709267"><ele>183.42857142857144</ele><time>2026-04-26T12:55:32.193Z</time></trkpt><trkpt lat="37.70409" lon="15.1709617"><ele>182.57142857142858</ele><time>2026-04-26T12:55:33.192Z</time></trkpt><trkpt lat="37.70416" lon="15.1709667"><ele>181.71428571428572</ele><time>2026-04-26T12:55:34.192Z</time></trkpt><trkpt lat="37.7042317" lon="15.170965"><ele>180.85714285714286</ele><time>2026-04-26T12:55:35.192Z</time></trkpt><trkpt lat="37.7043067" lon="15.170955"><ele>180.0</ele><time>2026-04-26T12:55:36.192Z</time></trkpt><trkpt lat="37.7043967" lon="15.170965"><ele>179.8</ele><time>2026-04-26T12:55:37.192Z</time></trkpt><trkpt lat="37.70449" lon="15.17101"><ele>179.6</ele><time>2026-04-26T12:55:38.192Z</time></trkpt><trkpt lat="37.7045767" lon="15.1710733"><ele>179.39999999999998</ele><time>2026-04-26T12:55:39.193Z</time></trkpt><trkpt lat="37.70467" lon="15.1711483"><ele>179.2</ele><time>2026-04-26T12:55:40.192Z</time></trkpt><trkpt lat="37.7047617" lon="15.1712333"><ele>179.0</ele><time>2026-04-26T12:55:41.192Z</time></trkpt><trkpt lat="37.704855" lon="15.1713217"><ele>179.0</ele><time>2026-04-26T12:55:42.192Z</time></trkpt><trkpt lat="37.7049417" lon="15.1714017"><ele>179.0</ele><time>2026-04-26T12:55:43.192Z</time></trkpt><trkpt lat="37.7050167" lon="15.1714783"><ele>179.0</ele><time>2026-04-26T12:55:44.192Z</time></trkpt><trkpt lat="37.70509" lon="15.1715583"><ele>179.0</ele><time>2026-04-26T12:55:45.193Z</time></trkpt><trkpt lat="37.7051617" lon="15.1716483"><ele>179.0</ele><time>2026-04-26T12:55:46.192Z</time></trkpt><trkpt lat="37.70522" lon="15.171755"><ele>179.25</ele><time>2026-04-26T12:55:47.192Z</time></trkpt><trkpt lat="37.7052717" lon="15.17187"><ele>179.5</ele><time>2026-04-26T12:55:48.192Z</time></trkpt><trkpt lat="37.705315" lon="15.1720133"><ele>179.75</ele><time>2026-04-26T12:55:49.193Z</time></trkpt><trkpt lat="37.7053617" lon="15.1721833"><ele>180.0</ele><time>2026-04-26T12:55:50.192Z</time></trkpt><trkpt lat="37.705415" lon="15.172355"><ele>179.0</ele><time>2026-04-26T12:55:51.192Z</time></trkpt><trkpt lat="37.705465" lon="15.172525"><ele>178.0</ele><time>2026-04-26T12:55:52.192Z</time></trkpt><trkpt lat="37.7055317" lon="15.172685"><ele>177.0</ele><time>2026-04-26T12:55:53.192Z</time></trkpt><trkpt lat="37.7055933" lon="15.1728467"><ele>176.0</ele><time>2026-04-26T12:55:54.193Z</time></trkpt><trkpt lat="37.7056583" lon="15.1730067"><ele>176.0</ele><time>2026-04-26T12:55:55.193Z</time></trkpt><trkpt lat="37.7057317" lon="15.1731433"><ele>176.0</ele><time>2026-04-26T12:55:56.192Z</time></trkpt><trkpt lat="37.7057917" lon="15.1732667"><ele>176.0</ele><time>2026-04-26T12:55:57.192Z</time></trkpt><trkpt lat="37.705845" lon="15.1733667"><ele>176.0</ele><time>2026-04-26T12:55:58.192Z</time></trkpt><trkpt lat="37.7058883" lon="15.173455"><ele>176.0</ele><time>2026-04-26T12:55:59.192Z</time></trkpt><trkpt lat="37.7059117" lon="15.1735483"><ele>175.4</ele><time>2026-04-26T12:56:00.192Z</time></trkpt><trkpt lat="37.70592" lon="15.17364"><ele>174.8</ele><time>2026-04-26T12:56:01.192Z</time></trkpt><trkpt lat="37.7059217" lon="15.17378"><ele>174.20000000000002</ele><time>2026-04-26T12:56:03.192Z</time></trkpt><trkpt lat="37.70591" lon="15.1738633"><ele>173.60000000000002</ele><time>2026-04-26T12:56:15.192Z</time></trkpt><trkpt lat="37.7059917" lon="15.1739383"><ele>173.0</ele><time>2026-04-26T12:56:18.192Z</time></trkpt><trkpt lat="37.7061017" lon="15.1739567"><ele>172.83333333333331</ele><time>2026-04-26T12:56:20.193Z</time></trkpt><trkpt lat="37.7061967" lon="15.1739533"><ele>172.66666666666666</ele><time>2026-04-26T12:56:22.192Z</time></trkpt><trkpt lat="37.7063017" lon="15.1739883"><ele>172.5</ele><time>2026-04-26T12:56:24.192Z</time></trkpt><trkpt lat="37.7063967" lon="15.1740083"><ele>172.33333333333334</ele><time>2026-04-26T12:56:26.192Z</time></trkpt><trkpt lat="37.7064633" lon="15.1740017"><ele>172.16666666666669</ele><time>2026-04-26T12:56:28.192Z</time></trkpt><trkpt lat="37.7065283" lon="15.1740017"><ele>172.0</ele><time>2026-04-26T12:56:32.192Z</time></trkpt><trkpt lat="37.70662" lon="15.1740167"><ele>171.16666666666669</ele><time>2026-04-26T12:56:35.192Z</time></trkpt><trkpt lat="37.7067267" lon="15.1740283"><ele>170.33333333333334</ele><time>2026-04-26T12:56:37.192Z</time></trkpt><trkpt lat="37.7067917" lon="15.1740267"><ele>169.5</ele><time>2026-04-26T12:56:38.192Z</time></trkpt><trkpt lat="37.70686" lon="15.1740383"><ele>168.66666666666666</ele><time>2026-04-26T12:56:39.192Z</time></trkpt><trkpt lat="37.7069383" lon="15.174045"><ele>167.83333333333331</ele><time>2026-04-26T12:56:40.193Z</time></trkpt><trkpt lat="37.70702" lon="15.1740533"><ele>167.0</ele><time>2026-04-26T12:56:41.192Z</time></trkpt><trkpt lat="37.7071083" lon="15.1740617"><ele>166.8</ele><time>2026-04-26T12:56:42.192Z</time></trkpt><trkpt lat="37.7072117" lon="15.1740583"><ele>166.6</ele><time>2026-04-26T12:56:43.192Z</time></trkpt><trkpt lat="37.7073217" lon="15.1740633"><ele>166.4</ele><time>2026-04-26T12:56:44.192Z</time></trkpt><trkpt lat="37.7074417" lon="15.1740767"><ele>166.20000000000002</ele><time>2026-04-26T12:56:45.192Z</time></trkpt><trkpt lat="37.707555" lon="15.17409"><ele>166.0</ele><time>2026-04-26T12:56:46.192Z</time></trkpt><trkpt lat="37.7076683" lon="15.1740967"><ele>165.8</ele><time>2026-04-26T12:56:47.193Z</time></trkpt><trkpt lat="37.707775" lon="15.1741167"><ele>165.60000000000002</ele><time>2026-04-26T12:56:48.192Z</time></trkpt><trkpt lat="37.7078783" lon="15.1741417"><ele>165.4</ele><time>2026-04-26T12:56:49.193Z</time></trkpt><trkpt lat="37.707975" lon="15.174165"><ele>165.2</ele><time>2026-04-26T12:56:50.192Z</time></trkpt><trkpt lat="37.7080767" lon="15.1741833"><ele>165.0</ele><time>2026-04-26T12:56:51.193Z</time></trkpt><trkpt lat="37.7081833" lon="15.1742217"><ele>165.0</ele><time>2026-04-26T12:56:52.193Z</time></trkpt><trkpt lat="37.7083" lon="15.1742517"><ele>165.0</ele><time>2026-04-26T12:56:53.192Z</time></trkpt><trkpt lat="37.7084183" lon="15.1742767"><ele>165.0</ele><time>2026-04-26T12:56:54.192Z</time></trkpt><trkpt lat="37.708525" lon="15.1743083"><ele>165.0</ele><time>2026-04-26T12:56:55.192Z</time></trkpt><trkpt lat="37.7086367" lon="15.1743517"><ele>164.2</ele><time>2026-04-26T12:56:56.192Z</time></trkpt><trkpt lat="37.7087467" lon="15.1743883"><ele>163.4</ele><time>2026-04-26T12:56:57.192Z</time></trkpt><trkpt lat="37.708855" lon="15.17442"><ele>162.60000000000002</ele><time>2026-04-26T12:56:58.192Z</time></trkpt><trkpt lat="37.70896" lon="15.1744517"><ele>161.8</ele><time>2026-04-26T12:56:59.192Z</time></trkpt><trkpt lat="37.7090567" lon="15.1744783"><ele>161.0</ele><time>2026-04-26T12:57:00.193Z</time></trkpt><trkpt lat="37.709155" lon="15.1745"><ele>161.0</ele><time>2026-04-26T12:57:01.192Z</time></trkpt><trkpt lat="37.7092533" lon="15.1745083"><ele>161.0</ele><time>2026-04-26T12:57:02.192Z</time></trkpt><trkpt lat="37.7093483" lon="15.174515"><ele>161.0</ele><time>2026-04-26T12:57:03.192Z</time></trkpt><trkpt lat="37.7094383" lon="15.174525"><ele>161.0</ele><time>2026-04-26T12:57:04.192Z</time></trkpt><trkpt lat="37.7095467" lon="15.1745567"><ele>161.0</ele><time>2026-04-26T12:57:05.193Z</time></trkpt><trkpt lat="37.7096483" lon="15.1745683"><ele>161.25</ele><time>2026-04-26T12:57:06.193Z</time></trkpt><trkpt lat="37.7097567" lon="15.1745817"><ele>161.5</ele><time>2026-04-26T12:57:07.192Z</time></trkpt><trkpt lat="37.7098833" lon="15.1746"><ele>161.75</ele><time>2026-04-26T12:57:08.193Z</time></trkpt><trkpt lat="37.71001" lon="15.1746383"><ele>162.0</ele><time>2026-04-26T12:57:09.192Z</time></trkpt><trkpt lat="37.7101433" lon="15.17469"><ele>161.33333333333334</ele><time>2026-04-26T12:57:10.192Z</time></trkpt><trkpt lat="37.7102917" lon="15.1747433"><ele>160.66666666666669</ele><time>2026-04-26T12:57:11.192Z</time></trkpt><trkpt lat="37.7104367" lon="15.1748"><ele>160.0</ele><time>2026-04-26T12:57:12.192Z</time></trkpt><trkpt lat="37.7105817" lon="15.17486"><ele>159.5</ele><time>2026-04-26T12:57:13.192Z</time></trkpt><trkpt lat="37.7107217" lon="15.1749233"><ele>159.0</ele><time>2026-04-26T12:57:14.192Z</time></trkpt><trkpt lat="37.7108517" lon="15.1749833"><ele>158.5</ele><time>2026-04-26T12:57:15.193Z</time></trkpt><trkpt lat="37.7109833" lon="15.1750317"><ele>158.0</ele><time>2026-04-26T12:57:16.192Z</time></trkpt><trkpt lat="37.7111117" lon="15.1750733"><ele>157.5</ele><time>2026-04-26T12:57:17.192Z</time></trkpt><trkpt lat="37.7112333" lon="15.175115"><ele>157.0</ele><time>2026-04-26T12:57:18.192Z</time></trkpt><trkpt lat="37.7113533" lon="15.1751583"><ele>156.5</ele><time>2026-04-26T12:57:19.192Z</time></trkpt><trkpt lat="37.711475" lon="15.1752017"><ele>156.0</ele><time>2026-04-26T12:57:20.192Z</time></trkpt><trkpt lat="37.7115967" lon="15.1752583"><ele>156.0</ele><time>2026-04-26T12:57:21.192Z</time></trkpt><trkpt lat="37.7117317" lon="15.1753133"><ele>156.0</ele><time>2026-04-26T12:57:22.192Z</time></trkpt><trkpt lat="37.7118767" lon="15.1753783"><ele>156.0</ele><time>2026-04-26T12:57:23.193Z</time></trkpt><trkpt lat="37.7120283" lon="15.17545"><ele>154.66666666666666</ele><time>2026-04-26T12:57:24.192Z</time></trkpt><trkpt lat="37.712165" lon="15.1755317"><ele>153.33333333333331</ele><time>2026-04-26T12:57:25.192Z</time></trkpt><trkpt lat="37.7123067" lon="15.1756033"><ele>152.0</ele><time>2026-04-26T12:57:26.192Z</time></trkpt><trkpt lat="37.71244" lon="15.175685"><ele>152.0</ele><time>2026-04-26T12:57:27.193Z</time></trkpt><trkpt lat="37.712565" lon="15.1757667"><ele>152.0</ele><time>2026-04-26T12:57:28.192Z</time></trkpt><trkpt lat="37.71269" lon="15.1758383"><ele>152.0</ele><time>2026-04-26T12:57:29.192Z</time></trkpt><trkpt lat="37.712815" lon="15.1759"><ele>152.0</ele><time>2026-04-26T12:57:30.192Z</time></trkpt><trkpt lat="37.712935" lon="15.175965"><ele>150.75</ele><time>2026-04-26T12:57:31.192Z</time></trkpt><trkpt lat="37.713055" lon="15.176035"><ele>149.5</ele><time>2026-04-26T12:57:32.192Z</time></trkpt><trkpt lat="37.7131833" lon="15.176105"><ele>148.25</ele><time>2026-04-26T12:57:33.192Z</time></trkpt><trkpt lat="37.713295" lon="15.1761667"><ele>147.0</ele><time>2026-04-26T12:57:34.192Z</time></trkpt><trkpt lat="37.7134067" lon="15.1762267"><ele>147.0</ele><time>2026-04-26T12:57:35.193Z</time></trkpt><trkpt lat="37.71351" lon="15.1762833"><ele>147.0</ele><time>2026-04-26T12:57:36.192Z</time></trkpt><trkpt lat="37.713615" lon="15.1763383"><ele>147.0</ele><time>2026-04-26T12:57:37.192Z</time></trkpt><trkpt lat="37.7137083" lon="15.1763883"><ele>147.0</ele><time>2026-04-26T12:57:38.192Z</time></trkpt><trkpt lat="37.7137983" lon="15.176445"><ele>147.0</ele><time>2026-04-26T12:57:39.193Z</time></trkpt><trkpt lat="37.7138833" lon="15.176495"><ele>146.4</ele><time>2026-04-26T12:57:40.192Z</time></trkpt><trkpt lat="37.7139683" lon="15.1765517"><ele>145.79999999999998</ele><time>2026-04-26T12:57:41.192Z</time></trkpt><trkpt lat="37.7140517" lon="15.1765867"><ele>145.2</ele><time>2026-04-26T12:57:42.192Z</time></trkpt><trkpt lat="37.71413" lon="15.1766383"><ele>144.6</ele><time>2026-04-26T12:57:43.193Z</time></trkpt><trkpt lat="37.7142117" lon="15.1766933"><ele>144.0</ele><time>2026-04-26T12:57:44.192Z</time></trkpt><trkpt lat="37.7142917" lon="15.1767533"><ele>144.0</ele><time>2026-04-26T12:57:45.192Z</time></trkpt><trkpt lat="37.71437" lon="15.1768117"><ele>144.0</ele><time>2026-04-26T12:57:46.192Z</time></trkpt><trkpt lat="37.7144517" lon="15.1768767"><ele>144.0</ele><time>2026-04-26T12:57:47.193Z</time></trkpt><trkpt lat="37.7145367" lon="15.1769417"><ele>144.0</ele><time>2026-04-26T12:57:48.193Z</time></trkpt><trkpt lat="37.7146183" lon="15.177"><ele>144.0</ele><time>2026-04-26T12:57:49.192Z</time></trkpt><trkpt lat="37.7147" lon="15.17705"><ele>143.5</ele><time>2026-04-26T12:57:50.192Z</time></trkpt><trkpt lat="37.7147783" lon="15.1771033"><ele>143.0</ele><time>2026-04-26T12:57:51.192Z</time></trkpt><trkpt lat="37.7148467" lon="15.1771483"><ele>142.5</ele><time>2026-04-26T12:57:52.192Z</time></trkpt><trkpt lat="37.7149067" lon="15.1772"><ele>142.0</ele><time>2026-04-26T12:57:53.193Z</time></trkpt><trkpt lat="37.71497" lon="15.17725"><ele>141.5</ele><time>2026-04-26T12:57:54.193Z</time></trkpt><trkpt lat="37.7150283" lon="15.1772917"><ele>141.0</ele><time>2026-04-26T12:57:55.192Z</time></trkpt><trkpt lat="37.71509" lon="15.1773333"><ele>140.5</ele><time>2026-04-26T12:57:56.192Z</time></trkpt><trkpt lat="37.715155" lon="15.1773833"><ele>140.0</ele><time>2026-04-26T12:57:57.192Z</time></trkpt><trkpt lat="37.7152283" lon="15.17743"><ele>139.5</ele><time>2026-04-26T12:57:58.192Z</time></trkpt><trkpt lat="37.7153017" lon="15.1774867"><ele>139.0</ele><time>2026-04-26T12:57:59.192Z</time></trkpt><trkpt lat="37.71538" lon="15.17756"><ele>138.5</ele><time>2026-04-26T12:58:00.192Z</time></trkpt><trkpt lat="37.7154633" lon="15.1776133"><ele>138.0</ele><time>2026-04-26T12:58:01.192Z</time></trkpt><trkpt lat="37.7155417" lon="15.1776783"><ele>138.0</ele><time>2026-04-26T12:58:02.192Z</time></trkpt><trkpt lat="37.715635" lon="15.1777283"><ele>138.0</ele><time>2026-04-26T12:58:03.193Z</time></trkpt><trkpt lat="37.7157483" lon="15.1777967"><ele>138.0</ele><time>2026-04-26T12:58:04.192Z</time></trkpt><trkpt lat="37.71587" lon="15.1778783"><ele>138.0</ele><time>2026-04-26T12:58:05.192Z</time></trkpt><trkpt lat="37.715995" lon="15.1779883"><ele>136.75</ele><time>2026-04-26T12:58:06.193Z</time></trkpt><trkpt lat="37.7161233" lon="15.1780917"><ele>135.5</ele><time>2026-04-26T12:58:07.192Z</time></trkpt><trkpt lat="37.7162467" lon="15.1781933"><ele>134.25</ele><time>2026-04-26T12:58:08.193Z</time></trkpt><trkpt lat="37.7163633" lon="15.1782883"><ele>133.0</ele><time>2026-04-26T12:58:09.192Z</time></trkpt><trkpt lat="37.7164783" lon="15.1783783"><ele>132.25</ele><time>2026-04-26T12:58:10.192Z</time></trkpt><trkpt lat="37.7165917" lon="15.1784567"><ele>131.5</ele><time>2026-04-26T12:58:11.192Z</time></trkpt><trkpt lat="37.7167" lon="15.17854"><ele>130.75</ele><time>2026-04-26T12:58:12.192Z</time></trkpt><trkpt lat="37.71681" lon="15.1786183"><ele>130.0</ele><time>2026-04-26T12:58:13.192Z</time></trkpt><trkpt lat="37.71691" lon="15.1786883"><ele>129.4</ele><time>2026-04-26T12:58:14.192Z</time></trkpt><trkpt lat="37.7170067" lon="15.1787633"><ele>128.8</ele><time>2026-04-26T12:58:15.192Z</time></trkpt><trkpt lat="37.7171033" lon="15.17885"><ele>128.2</ele><time>2026-04-26T12:58:16.192Z</time></trkpt><trkpt lat="37.717195" lon="15.178915"><ele>127.6</ele><time>2026-04-26T12:58:17.192Z</time></trkpt><trkpt lat="37.7172683" lon="15.1789883"><ele>127.0</ele><time>2026-04-26T12:58:18.192Z</time></trkpt><trkpt lat="37.717355" lon="15.179035"><ele>127.00000000000001</ele><time>2026-04-26T12:58:19.193Z</time></trkpt><trkpt lat="37.7174317" lon="15.17909"><ele>127.0</ele><time>2026-04-26T12:58:20.192Z</time></trkpt><trkpt lat="37.7175" lon="15.1791333"><ele>127.0</ele><time>2026-04-26T12:58:21.192Z</time></trkpt><trkpt lat="37.7175683" lon="15.17918"><ele>127.0</ele><time>2026-04-26T12:58:22.192Z</time></trkpt><trkpt lat="37.7176467" lon="15.1792517"><ele>127.00000000000001</ele><time>2026-04-26T12:58:23.192Z</time></trkpt><trkpt lat="37.7177383" lon="15.1793283"><ele>127.0</ele><time>2026-04-26T12:58:24.193Z</time></trkpt><trkpt lat="37.7178467" lon="15.1794017"><ele>127.0</ele><time>2026-04-26T12:58:25.193Z</time></trkpt><trkpt lat="37.7179567" lon="15.1794767"><ele>127.0</ele><time>2026-04-26T12:58:26.193Z</time></trkpt><trkpt lat="37.7180667" lon="15.17956"><ele>127.0</ele><time>2026-04-26T12:58:27.192Z</time></trkpt><trkpt lat="37.7181767" lon="15.1796433"><ele>127.0</ele><time>2026-04-26T12:58:28.192Z</time></trkpt><trkpt lat="37.7182883" lon="15.17973"><ele>127.0</ele><time>2026-04-26T12:58:29.192Z</time></trkpt><trkpt lat="37.7184" lon="15.1798267"><ele>127.0</ele><time>2026-04-26T12:58:30.192Z</time></trkpt><trkpt lat="37.7185083" lon="15.1799133"><ele>127.0</ele><time>2026-04-26T12:58:31.192Z</time></trkpt><trkpt lat="37.7186233" lon="15.179995"><ele>127.0</ele><time>2026-04-26T12:58:32.193Z</time></trkpt><trkpt lat="37.7187333" lon="15.180085"><ele>125.0</ele><time>2026-04-26T12:58:33.192Z</time></trkpt><trkpt lat="37.7188433" lon="15.1801633"><ele>123.0</ele><time>2026-04-26T12:58:34.193Z</time></trkpt><trkpt lat="37.7189483" lon="15.1802383"><ele>121.0</ele><time>2026-04-26T12:58:35.192Z</time></trkpt><trkpt lat="37.71905" lon="15.1803167"><ele>119.0</ele><time>2026-04-26T12:58:36.192Z</time></trkpt><trkpt lat="37.719155" lon="15.1804"><ele>119.0</ele><time>2026-04-26T12:58:37.192Z</time></trkpt><trkpt lat="37.71926" lon="15.1804917"><ele>119.0</ele><time>2026-04-26T12:58:38.192Z</time></trkpt><trkpt lat="37.7193767" lon="15.1805767"><ele>119.0</ele><time>2026-04-26T12:58:39.192Z</time></trkpt><trkpt lat="37.7194883" lon="15.1806633"><ele>119.0</ele><time>2026-04-26T12:58:40.192Z</time></trkpt><trkpt lat="37.7195933" lon="15.1807433"><ele>118.0</ele><time>2026-04-26T12:58:41.192Z</time></trkpt><trkpt lat="37.7197067" lon="15.1808183"><ele>117.0</ele><time>2026-04-26T12:58:42.193Z</time></trkpt><trkpt lat="37.7198133" lon="15.1809"><ele>116.0</ele><time>2026-04-26T12:58:43.192Z</time></trkpt><trkpt lat="37.719925" lon="15.1809767"><ele>115.0</ele><time>2026-04-26T12:58:44.192Z</time></trkpt><trkpt lat="37.7200333" lon="15.181065"><ele>115.0</ele><time>2026-04-26T12:58:45.193Z</time></trkpt><trkpt lat="37.7201383" lon="15.181135"><ele>115.0</ele><time>2026-04-26T12:58:46.192Z</time></trkpt><trkpt lat="37.7202467" lon="15.1812083"><ele>115.0</ele><time>2026-04-26T12:58:47.192Z</time></trkpt><trkpt lat="37.7203517" lon="15.1812833"><ele>115.0</ele><time>2026-04-26T12:58:48.193Z</time></trkpt><trkpt lat="37.720455" lon="15.1813617"><ele>114.0</ele><time>2026-04-26T12:58:49.192Z</time></trkpt><trkpt lat="37.7205483" lon="15.1814417"><ele>113.0</ele><time>2026-04-26T12:58:50.192Z</time></trkpt><trkpt lat="37.720645" lon="15.1815133"><ele>112.0</ele><time>2026-04-26T12:58:51.192Z</time></trkpt><trkpt lat="37.7207417" lon="15.1815867"><ele>111.0</ele><time>2026-04-26T12:58:52.192Z</time></trkpt><trkpt lat="37.7208367" lon="15.181655"><ele>110.0</ele><time>2026-04-26T12:58:53.193Z</time></trkpt><trkpt lat="37.720925" lon="15.1817183"><ele>109.4</ele><time>2026-04-26T12:58:54.192Z</time></trkpt><trkpt lat="37.7210117" lon="15.1817833"><ele>108.8</ele><time>2026-04-26T12:58:55.192Z</time></trkpt><trkpt lat="37.7210983" lon="15.1818467"><ele>108.19999999999999</ele><time>2026-04-26T12:58:56.192Z</time></trkpt><trkpt lat="37.7211867" lon="15.181915"><ele>107.6</ele><time>2026-04-26T12:58:57.192Z</time></trkpt><trkpt lat="37.72128" lon="15.181985"><ele>107.0</ele><time>2026-04-26T12:58:58.192Z</time></trkpt><trkpt lat="37.72137" lon="15.1820433"><ele>106.6</ele><time>2026-04-26T12:58:59.192Z</time></trkpt><trkpt lat="37.7214583" lon="15.18211"><ele>106.19999999999999</ele><time>2026-04-26T12:59:00.192Z</time></trkpt><trkpt lat="37.721545" lon="15.1821683"><ele>105.8</ele><time>2026-04-26T12:59:01.192Z</time></trkpt><trkpt lat="37.7216317" lon="15.1822317"><ele>105.4</ele><time>2026-04-26T12:59:02.192Z</time></trkpt><trkpt lat="37.7217233" lon="15.1823"><ele>105.0</ele><time>2026-04-26T12:59:03.192Z</time></trkpt><trkpt lat="37.721825" lon="15.1823783"><ele>104.25</ele><time>2026-04-26T12:59:04.192Z</time></trkpt><trkpt lat="37.7219233" lon="15.182455"><ele>103.5</ele><time>2026-04-26T12:59:05.192Z</time></trkpt><trkpt lat="37.7220267" lon="15.1825333"><ele>102.75</ele><time>2026-04-26T12:59:06.192Z</time></trkpt><trkpt lat="37.72213" lon="15.182605"><ele>102.0</ele><time>2026-04-26T12:59:07.192Z</time></trkpt><trkpt lat="37.7222333" lon="15.18268"><ele>102.0</ele><time>2026-04-26T12:59:08.192Z</time></trkpt><trkpt lat="37.7223367" lon="15.18275"><ele>102.0</ele><time>2026-04-26T12:59:09.192Z</time></trkpt><trkpt lat="37.7224483" lon="15.18283"><ele>102.0</ele><time>2026-04-26T12:59:10.192Z</time></trkpt><trkpt lat="37.72254" lon="15.1829033"><ele>102.0</ele><time>2026-04-26T12:59:11.192Z</time></trkpt><trkpt lat="37.7226483" lon="15.182955"><ele>101.75</ele><time>2026-04-26T12:59:12.192Z</time></trkpt><trkpt lat="37.7227483" lon="15.1830233"><ele>101.5</ele><time>2026-04-26T12:59:13.192Z</time></trkpt><trkpt lat="37.722855" lon="15.1830867"><ele>101.25</ele><time>2026-04-26T12:59:14.192Z</time></trkpt><trkpt lat="37.7229583" lon="15.1831483"><ele>101.0</ele><time>2026-04-26T12:59:15.192Z</time></trkpt><trkpt lat="37.72307" lon="15.1832033"><ele>100.0</ele><time>2026-04-26T12:59:16.192Z</time></trkpt><trkpt lat="37.723185" lon="15.1832483"><ele>99.0</ele><time>2026-04-26T12:59:17.192Z</time></trkpt><trkpt lat="37.7232933" lon="15.1833083"><ele>98.0</ele><time>2026-04-26T12:59:18.192Z</time></trkpt><trkpt lat="37.7234033" lon="15.183365"><ele>97.0</ele><time>2026-04-26T12:59:19.192Z</time></trkpt><trkpt lat="37.7235183" lon="15.1834217"><ele>96.25</ele><time>2026-04-26T12:59:20.192Z</time></trkpt><trkpt lat="37.7236367" lon="15.1834933"><ele>95.5</ele><time>2026-04-26T12:59:21.192Z</time></trkpt><trkpt lat="37.7237533" lon="15.18355"><ele>94.75</ele><time>2026-04-26T12:59:22.192Z</time></trkpt><trkpt lat="37.7238683" lon="15.1836133"><ele>94.0</ele><time>2026-04-26T12:59:23.192Z</time></trkpt><trkpt lat="37.7239883" lon="15.18366"><ele>94.0</ele><time>2026-04-26T12:59:24.192Z</time></trkpt><trkpt lat="37.7241017" lon="15.1837333"><ele>94.0</ele><time>2026-04-26T12:59:25.193Z</time></trkpt><trkpt lat="37.7242167" lon="15.1837883"><ele>94.0</ele><time>2026-04-26T12:59:26.192Z</time></trkpt><trkpt lat="37.7243383" lon="15.1838367"><ele>94.0</ele><time>2026-04-26T12:59:27.192Z</time></trkpt><trkpt lat="37.7244433" lon="15.18389"><ele>93.80000000000001</ele><time>2026-04-26T12:59:28.192Z</time></trkpt><trkpt lat="37.7245433" lon="15.1839333"><ele>93.60000000000001</ele><time>2026-04-26T12:59:29.192Z</time></trkpt><trkpt lat="37.7246433" lon="15.183985"><ele>93.4</ele><time>2026-04-26T12:59:30.192Z</time></trkpt><trkpt lat="37.7247417" lon="15.1840233"><ele>93.2</ele><time>2026-04-26T12:59:31.192Z</time></trkpt><trkpt lat="37.72483" lon="15.1840633"><ele>93.0</ele><time>2026-04-26T12:59:32.192Z</time></trkpt><trkpt lat="37.7249083" lon="15.18409"><ele>92.83333333333333</ele><time>2026-04-26T12:59:33.192Z</time></trkpt><trkpt lat="37.7249833" lon="15.18411"><ele>92.66666666666667</ele><time>2026-04-26T12:59:34.193Z</time></trkpt><trkpt lat="37.7250567" lon="15.1841417"><ele>92.5</ele><time>2026-04-26T12:59:35.192Z</time></trkpt><trkpt lat="37.7251217" lon="15.1841667"><ele>92.33333333333334</ele><time>2026-04-26T12:59:36.193Z</time></trkpt><trkpt lat="37.7251833" lon="15.1841983"><ele>92.16666666666667</ele><time>2026-04-26T12:59:37.193Z</time></trkpt><trkpt lat="37.725245" lon="15.18423"><ele>92.0</ele><time>2026-04-26T12:59:38.192Z</time></trkpt><trkpt lat="37.7253567" lon="15.18428"><ele>91.85714285714286</ele><time>2026-04-26T12:59:40.192Z</time></trkpt><trkpt lat="37.7254183" lon="15.1842983"><ele>91.71428571428571</ele><time>2026-04-26T12:59:41.192Z</time></trkpt><trkpt lat="37.725485" lon="15.18431"><ele>91.57142857142857</ele><time>2026-04-26T12:59:42.192Z</time></trkpt><trkpt lat="37.7255567" lon="15.1843133"><ele>91.42857142857143</ele><time>2026-04-26T12:59:43.192Z</time></trkpt><trkpt lat="37.725635" lon="15.184315"><ele>91.28571428571428</ele><time>2026-04-26T12:59:44.192Z</time></trkpt><trkpt lat="37.72572" lon="15.184315"><ele>91.14285714285714</ele><time>2026-04-26T12:59:45.191Z</time></trkpt><trkpt lat="37.7258" lon="15.1843033"><ele>91.0</ele><time>2026-04-26T12:59:46.191Z</time></trkpt><trkpt lat="37.7258767" lon="15.1842983"><ele>91.0</ele><time>2026-04-26T12:59:47.191Z</time></trkpt><trkpt lat="37.725955" lon="15.18429"><ele>91.0</ele><time>2026-04-26T12:59:48.191Z</time></trkpt><trkpt lat="37.7260333" lon="15.1842833"><ele>91.0</ele><time>2026-04-26T12:59:49.191Z</time></trkpt><trkpt lat="37.72611" lon="15.1842833"><ele>91.0</ele><time>2026-04-26T12:59:50.191Z</time></trkpt><trkpt lat="37.7261867" lon="15.1842867"><ele>91.0</ele><time>2026-04-26T12:59:51.191Z</time></trkpt><trkpt lat="37.72626" lon="15.184265"><ele>91.0</ele><time>2026-04-26T12:59:52.191Z</time></trkpt><trkpt lat="37.7263267" lon="15.18428"><ele>90.19999999999999</ele><time>2026-04-26T12:59:53.191Z</time></trkpt><trkpt lat="37.7264483" lon="15.18427"><ele>89.39999999999999</ele><time>2026-04-26T12:59:55.191Z</time></trkpt><trkpt lat="37.7265567" lon="15.1842467"><ele>88.6</ele><time>2026-04-26T12:59:57.191Z</time></trkpt><trkpt lat="37.7266583" lon="15.1842383"><ele>87.8</ele><time>2026-04-26T12:59:59.191Z</time></trkpt><trkpt lat="37.7267517" lon="15.1842567"><ele>87.0</ele><time>2026-04-26T13:00:01.191Z</time></trkpt><trkpt lat="37.7268133" lon="15.1842733"><ele>87.0</ele><time>2026-04-26T13:00:03.191Z</time></trkpt></trkseg></trk></gpx>